<?xml version="1.0" encoding="UTF-8" standalone="no" ?>
<gpx xmlns="http://www.topografix.com/GPX/1/1" xmlns:xsi="http://www.w3.org/2001/XMLSchema-instance" xsi:schemaLocation="http://www.topografix.com/GPX/1/1 http://www.topografix.com/GPX/1/1/gpx.xsd" version="1.1" creator="VisuGPX - https://www.visugpx.com">
  <metadata>
    <name>Itinéraire prévu Norvège</name>
  </metadata>
  <trk>
    <name><![CDATA[7bis_Kiruna-Stockholm: 1600km]]></name>
    <trkseg>
      <trkpt lat="67.85515" lon="20.22584">
        <ele>532.621456</ele>
        <time>2020-08-27T10:37:45.610Z</time>
      </trkpt>
      <trkpt lat="67.85515" lon="20.22584">
        <ele>532.621456</ele>
        <time>2020-08-27T10:37:45.667Z</time>
      </trkpt>
      <trkpt lat="67.85521" lon="20.22589">
        <ele>532.621456</ele>
        <time>2020-08-27T10:37:49.837Z</time>
      </trkpt>
      <trkpt lat="67.85525" lon="20.22592">
        <ele>532.621456</ele>
        <time>2020-08-27T10:37:52.767Z</time>
      </trkpt>
      <trkpt lat="67.85549" lon="20.2261">
        <ele>532.621456</ele>
        <time>2020-08-27T10:38:00.415Z</time>
      </trkpt>
      <trkpt lat="67.85564" lon="20.22621">
        <ele>532.621456</ele>
        <time>2020-08-27T10:38:05.704Z</time>
      </trkpt>
      <trkpt lat="67.85582" lon="20.22633">
        <ele>532.621456</ele>
        <time>2020-08-27T10:38:10.955Z</time>
      </trkpt>
      <trkpt lat="67.85585" lon="20.22635">
        <ele>532.621456</ele>
        <time>2020-08-27T10:38:12.285Z</time>
      </trkpt>
      <trkpt lat="67.85612" lon="20.22649">
        <ele>532.742413</ele>
        <time>2020-08-27T10:38:20.052Z</time>
      </trkpt>
      <trkpt lat="67.85621" lon="20.22645">
        <ele>532.847951</ele>
        <time>2020-08-27T10:38:23.271Z</time>
      </trkpt>
      <trkpt lat="67.85618" lon="20.227">
        <ele>533.088601</ele>
        <time>2020-08-27T10:38:27.788Z</time>
      </trkpt>
      <trkpt lat="67.85612" lon="20.22776">
        <ele>533.422303</ele>
        <time>2020-08-27T10:38:34.092Z</time>
      </trkpt>
      <trkpt lat="67.85608" lon="20.22848">
        <ele>533.733797</ele>
        <time>2020-08-27T10:38:40.406Z</time>
      </trkpt>
      <trkpt lat="67.85538" lon="20.22818">
        <ele>534.533844</ele>
        <time>2020-08-27T10:38:54.385Z</time>
      </trkpt>
      <trkpt lat="67.85503" lon="20.22804">
        <ele>534.893407</ele>
        <time>2020-08-27T10:39:01.124Z</time>
      </trkpt>
      <trkpt lat="67.85494" lon="20.22799">
        <ele>534.979798</ele>
        <time>2020-08-27T10:39:02.627Z</time>
      </trkpt>
      <trkpt lat="67.85492" lon="20.22826">
        <ele>535.076707</ele>
        <time>2020-08-27T10:39:05.092Z</time>
      </trkpt>
      <trkpt lat="67.85483" lon="20.22949">
        <ele>535.509463</ele>
        <time>2020-08-27T10:39:13.965Z</time>
      </trkpt>
      <trkpt lat="67.85481" lon="20.22978">
        <ele>535.612727</ele>
        <time>2020-08-27T10:39:15.950Z</time>
      </trkpt>
      <trkpt lat="67.85473" lon="20.23095">
        <ele>536.027556</ele>
        <time>2020-08-27T10:39:25.726Z</time>
      </trkpt>
      <trkpt lat="67.8547" lon="20.2315">
        <ele>536.21798</ele>
        <time>2020-08-27T10:39:30.653Z</time>
      </trkpt>
      <trkpt lat="67.8547" lon="20.23176">
        <ele>536.310508</ele>
        <time>2020-08-27T10:39:32.634Z</time>
      </trkpt>
      <trkpt lat="67.8547" lon="20.23196">
        <ele>536.41203</ele>
        <time>2020-08-27T10:39:34.722Z</time>
      </trkpt>
      <trkpt lat="67.85476" lon="20.23293">
        <ele>536.988554</ele>
        <time>2020-08-27T10:39:43.968Z</time>
      </trkpt>
      <trkpt lat="67.85483" lon="20.23343">
        <ele>537.299994</ele>
        <time>2020-08-27T10:39:48.835Z</time>
      </trkpt>
      <trkpt lat="67.85469" lon="20.23354">
        <ele>537.515103</ele>
        <time>2020-08-27T10:39:52.250Z</time>
      </trkpt>
      <trkpt lat="67.8547" lon="20.23366">
        <ele>537.59094</ele>
        <time>2020-08-27T10:39:53.399Z</time>
      </trkpt>
      <trkpt lat="67.8547" lon="20.23367">
        <ele>537.594797</ele>
        <time>2020-08-27T10:39:53.558Z</time>
      </trkpt>
      <trkpt lat="67.85464" lon="20.23419">
        <ele>537.910372</ele>
        <time>2020-08-27T10:39:58.336Z</time>
      </trkpt>
      <trkpt lat="67.85462" lon="20.23439">
        <ele>538.037255</ele>
        <time>2020-08-27T10:40:00.321Z</time>
      </trkpt>
      <trkpt lat="67.85458" lon="20.23461">
        <ele>538.184419</ele>
        <time>2020-08-27T10:40:02.556Z</time>
      </trkpt>
      <trkpt lat="67.85448" lon="20.23509">
        <ele>538.506117</ele>
        <time>2020-08-27T10:40:07.284Z</time>
      </trkpt>
      <trkpt lat="67.85442" lon="20.23539">
        <ele>538.703673</ele>
        <time>2020-08-27T10:40:10.212Z</time>
      </trkpt>
      <trkpt lat="67.85435" lon="20.23553">
        <ele>538.831816</ele>
        <time>2020-08-27T10:40:12.120Z</time>
      </trkpt>
      <trkpt lat="67.85438" lon="20.23563">
        <ele>538.910232</ele>
        <time>2020-08-27T10:40:15.609Z</time>
      </trkpt>
      <trkpt lat="67.85424" lon="20.23598">
        <ele>539.148649</ele>
        <time>2020-08-27T10:40:19.522Z</time>
      </trkpt>
      <trkpt lat="67.85393" lon="20.23682">
        <ele>539.233845</ele>
        <time>2020-08-27T10:40:29.062Z</time>
      </trkpt>
      <trkpt lat="67.85372" lon="20.23744">
        <ele>539.293458</ele>
        <time>2020-08-27T10:40:35.356Z</time>
      </trkpt>
      <trkpt lat="67.85364" lon="20.23768">
        <ele>539.315801</ele>
        <time>2020-08-27T10:40:37.713Z</time>
      </trkpt>
      <trkpt lat="67.85367" lon="20.23777">
        <ele>539.323944</ele>
        <time>2020-08-27T10:40:38.568Z</time>
      </trkpt>
      <trkpt lat="67.85373" lon="20.23795">
        <ele>539.34124</ele>
        <time>2020-08-27T10:40:40.213Z</time>
      </trkpt>
      <trkpt lat="67.85369" lon="20.2381">
        <ele>539.354542</ele>
        <time>2020-08-27T10:40:41.454Z</time>
      </trkpt>
      <trkpt lat="67.85366" lon="20.23813">
        <ele>539.361461</ele>
        <time>2020-08-27T10:40:42.134Z</time>
      </trkpt>
      <trkpt lat="67.85344" lon="20.23934">
        <ele>539.458153</ele>
        <time>2020-08-27T10:40:51.347Z</time>
      </trkpt>
      <trkpt lat="67.85343" lon="20.2395">
        <ele>539.469296</ele>
        <time>2020-08-27T10:40:52.419Z</time>
      </trkpt>
      <trkpt lat="67.85339" lon="20.23985">
        <ele>539.355091</ele>
        <time>2020-08-27T10:40:54.667Z</time>
      </trkpt>
      <trkpt lat="67.85317" lon="20.24121">
        <ele>538.289579</ele>
        <time>2020-08-27T10:41:03.771Z</time>
      </trkpt>
      <trkpt lat="67.85314" lon="20.24122">
        <ele>538.237525</ele>
        <time>2020-08-27T10:41:04.192Z</time>
      </trkpt>
      <trkpt lat="67.85311" lon="20.24135">
        <ele>538.135143</ele>
        <time>2020-08-27T10:41:04.977Z</time>
      </trkpt>
      <trkpt lat="67.85293" lon="20.24261">
        <ele>537.165264</ele>
        <time>2020-08-27T10:41:12.523Z</time>
      </trkpt>
      <trkpt lat="67.85286" lon="20.24253">
        <ele>537.013857</ele>
        <time>2020-08-27T10:41:13.658Z</time>
      </trkpt>
      <trkpt lat="67.85282" lon="20.24283">
        <ele>536.791157</ele>
        <time>2020-08-27T10:41:15.327Z</time>
      </trkpt>
      <trkpt lat="67.85274" lon="20.24338">
        <ele>536.363214</ele>
        <time>2020-08-27T10:41:18.464Z</time>
      </trkpt>
      <trkpt lat="67.85265" lon="20.24395">
        <ele>535.769491</ele>
        <time>2020-08-27T10:41:21.645Z</time>
      </trkpt>
      <trkpt lat="67.85259" lon="20.24444">
        <ele>534.979146</ele>
        <time>2020-08-27T10:41:24.349Z</time>
      </trkpt>
      <trkpt lat="67.85253" lon="20.24487">
        <ele>534.298248</ele>
        <time>2020-08-27T10:41:26.612Z</time>
      </trkpt>
      <trkpt lat="67.85236" lon="20.2462">
        <ele>532.17532</ele>
        <time>2020-08-27T10:41:33.688Z</time>
      </trkpt>
      <trkpt lat="67.85232" lon="20.24657">
        <ele>531.581057</ele>
        <time>2020-08-27T10:41:35.659Z</time>
      </trkpt>
      <trkpt lat="67.85222" lon="20.24737">
        <ele>530.31576</ele>
        <time>2020-08-27T10:41:39.700Z</time>
      </trkpt>
      <trkpt lat="67.85194" lon="20.24973">
        <ele>525.988048</ele>
        <time>2020-08-27T10:41:51.663Z</time>
      </trkpt>
      <trkpt lat="67.85185" lon="20.25035">
        <ele>524.729472</ele>
        <time>2020-08-27T10:41:55.025Z</time>
      </trkpt>
      <trkpt lat="67.85185" lon="20.25039">
        <ele>524.647822</ele>
        <time>2020-08-27T10:41:55.198Z</time>
      </trkpt>
      <trkpt lat="67.85182" lon="20.25058">
        <ele>524.264439</ele>
        <time>2020-08-27T10:41:56.123Z</time>
      </trkpt>
      <trkpt lat="67.85158" lon="20.25179">
        <ele>521.675932</ele>
        <time>2020-08-27T10:42:02.730Z</time>
      </trkpt>
      <trkpt lat="67.85153" lon="20.25203">
        <ele>521.15256</ele>
        <time>2020-08-27T10:42:04.115Z</time>
      </trkpt>
      <trkpt lat="67.85152" lon="20.25206">
        <ele>521.078148</ele>
        <time>2020-08-27T10:42:04.283Z</time>
      </trkpt>
      <trkpt lat="67.85144" lon="20.25245">
        <ele>520.234503</ele>
        <time>2020-08-27T10:42:06.400Z</time>
      </trkpt>
      <trkpt lat="67.85117" lon="20.25358">
        <ele>517.418314</ele>
        <time>2020-08-27T10:42:12.584Z</time>
      </trkpt>
      <trkpt lat="67.8511" lon="20.25386">
        <ele>516.683155</ele>
        <time>2020-08-27T10:42:14.129Z</time>
      </trkpt>
      <trkpt lat="67.85115" lon="20.25396">
        <ele>516.353603</ele>
        <time>2020-08-27T10:42:14.969Z</time>
      </trkpt>
      <trkpt lat="67.8511" lon="20.25416">
        <ele>515.834025</ele>
        <time>2020-08-27T10:42:15.994Z</time>
      </trkpt>
      <trkpt lat="67.85063" lon="20.25557">
        <ele>511.754203</ele>
        <time>2020-08-27T10:42:24.406Z</time>
      </trkpt>
      <trkpt lat="67.8506" lon="20.25569">
        <ele>511.463022</ele>
        <time>2020-08-27T10:42:24.975Z</time>
      </trkpt>
      <trkpt lat="67.85056" lon="20.2559">
        <ele>510.931447</ele>
        <time>2020-08-27T10:42:26.164Z</time>
      </trkpt>
      <trkpt lat="67.85048" lon="20.25619">
        <ele>510.153415</ele>
        <time>2020-08-27T10:42:27.826Z</time>
      </trkpt>
      <trkpt lat="67.85044" lon="20.25627">
        <ele>509.876518</ele>
        <time>2020-08-27T10:42:28.378Z</time>
      </trkpt>
      <trkpt lat="67.85041" lon="20.25636">
        <ele>509.598227</ele>
        <time>2020-08-27T10:42:28.909Z</time>
      </trkpt>
      <trkpt lat="67.85029" lon="20.2565">
        <ele>508.934914</ele>
        <time>2020-08-27T10:42:30.532Z</time>
      </trkpt>
      <trkpt lat="67.84989" lon="20.25666">
        <ele>506.967448</ele>
        <time>2020-08-27T10:42:35.385Z</time>
      </trkpt>
      <trkpt lat="67.84979" lon="20.25675">
        <ele>506.485025</ele>
        <time>2020-08-27T10:42:36.552Z</time>
      </trkpt>
      <trkpt lat="67.84936" lon="20.25708">
        <ele>504.28727</ele>
        <time>2020-08-27T10:42:41.971Z</time>
      </trkpt>
      <trkpt lat="67.84917" lon="20.25731">
        <ele>503.294778</ele>
        <time>2020-08-27T10:42:44.606Z</time>
      </trkpt>
      <trkpt lat="67.84916" lon="20.25734">
        <ele>503.215979</ele>
        <time>2020-08-27T10:42:44.775Z</time>
      </trkpt>
      <trkpt lat="67.84915" lon="20.25737">
        <ele>503.13467</ele>
        <time>2020-08-27T10:42:44.979Z</time>
      </trkpt>
      <trkpt lat="67.84906" lon="20.2574">
        <ele>502.699864</ele>
        <time>2020-08-27T10:42:46.045Z</time>
      </trkpt>
      <trkpt lat="67.84897" lon="20.25742">
        <ele>502.26546</ele>
        <time>2020-08-27T10:42:47.202Z</time>
      </trkpt>
      <trkpt lat="67.84891" lon="20.2574">
        <ele>501.975454</ele>
        <time>2020-08-27T10:42:48.026Z</time>
      </trkpt>
      <trkpt lat="67.84894" lon="20.25801">
        <ele>500.845833</ele>
        <time>2020-08-27T10:42:50.952Z</time>
      </trkpt>
      <trkpt lat="67.84896" lon="20.26225">
        <ele>495.058558</ele>
        <time>2020-08-27T10:43:11.599Z</time>
      </trkpt>
      <trkpt lat="67.84887" lon="20.26671">
        <ele>489.031357</ele>
        <time>2020-08-27T10:43:33.169Z</time>
      </trkpt>
      <trkpt lat="67.84877" lon="20.26896">
        <ele>486.430047</ele>
        <time>2020-08-27T10:43:44.244Z</time>
      </trkpt>
      <trkpt lat="67.8483" lon="20.27653">
        <ele>479.487947</ele>
        <time>2020-08-27T10:44:24.114Z</time>
      </trkpt>
      <trkpt lat="67.84828" lon="20.27662">
        <ele>479.393653</ele>
        <time>2020-08-27T10:44:24.698Z</time>
      </trkpt>
      <trkpt lat="67.84824" lon="20.27672">
        <ele>479.289841</ele>
        <time>2020-08-27T10:44:25.406Z</time>
      </trkpt>
      <trkpt lat="67.84822" lon="20.27686">
        <ele>479.160633</ele>
        <time>2020-08-27T10:44:26.308Z</time>
      </trkpt>
      <trkpt lat="67.84821" lon="20.27703">
        <ele>479.038911</ele>
        <time>2020-08-27T10:44:27.292Z</time>
      </trkpt>
      <trkpt lat="67.8482" lon="20.2773">
        <ele>478.898942</ele>
        <time>2020-08-27T10:44:28.783Z</time>
      </trkpt>
      <trkpt lat="67.84824" lon="20.27748">
        <ele>478.789051</ele>
        <time>2020-08-27T10:44:29.904Z</time>
      </trkpt>
      <trkpt lat="67.8481" lon="20.28073">
        <ele>477.064128</ele>
        <time>2020-08-27T10:44:48.572Z</time>
      </trkpt>
      <trkpt lat="67.84808" lon="20.2866">
        <ele>473.630084</ele>
        <time>2020-08-27T10:45:21.427Z</time>
      </trkpt>
      <trkpt lat="67.84806" lon="20.28798">
        <ele>472.169221</ele>
        <time>2020-08-27T10:45:28.510Z</time>
      </trkpt>
      <trkpt lat="67.84806" lon="20.28968">
        <ele>470.351813</ele>
        <time>2020-08-27T10:45:37.111Z</time>
      </trkpt>
      <trkpt lat="67.84816" lon="20.2963">
        <ele>461.867947</ele>
        <time>2020-08-27T10:46:09.169Z</time>
      </trkpt>
      <trkpt lat="67.84811" lon="20.2973">
        <ele>460.509772</ele>
        <time>2020-08-27T10:46:14.063Z</time>
      </trkpt>
      <trkpt lat="67.8481" lon="20.29764">
        <ele>460.045295</ele>
        <time>2020-08-27T10:46:15.687Z</time>
      </trkpt>
      <trkpt lat="67.8481" lon="20.29896">
        <ele>458.2775</ele>
        <time>2020-08-27T10:46:22.135Z</time>
      </trkpt>
      <trkpt lat="67.84815" lon="20.30321">
        <ele>452.961766</ele>
        <time>2020-08-27T10:46:42.855Z</time>
      </trkpt>
      <trkpt lat="67.84812" lon="20.30447">
        <ele>451.454938</ele>
        <time>2020-08-27T10:46:49.188Z</time>
      </trkpt>
      <trkpt lat="67.84811" lon="20.30541">
        <ele>450.337857</ele>
        <time>2020-08-27T10:46:53.892Z</time>
      </trkpt>
      <trkpt lat="67.84764" lon="20.31285">
        <ele>443.480843</ele>
        <time>2020-08-27T10:47:32.666Z</time>
      </trkpt>
      <trkpt lat="67.84749" lon="20.31477">
        <ele>441.9133</ele>
        <time>2020-08-27T10:47:43.309Z</time>
      </trkpt>
      <trkpt lat="67.84733" lon="20.316">
        <ele>441.397186</ele>
        <time>2020-08-27T10:47:50.631Z</time>
      </trkpt>
      <trkpt lat="67.84717" lon="20.31695">
        <ele>441.033958</ele>
        <time>2020-08-27T10:47:56.595Z</time>
      </trkpt>
      <trkpt lat="67.84723" lon="20.31693">
        <ele>440.979644</ele>
        <time>2020-08-27T10:47:57.514Z</time>
      </trkpt>
      <trkpt lat="67.84732" lon="20.31692">
        <ele>440.899345</ele>
        <time>2020-08-27T10:47:58.897Z</time>
      </trkpt>
      <trkpt lat="67.84742" lon="20.31696">
        <ele>440.802436</ele>
        <time>2020-08-27T10:48:00.563Z</time>
      </trkpt>
      <trkpt lat="67.84756" lon="20.31705">
        <ele>440.66538</ele>
        <time>2020-08-27T10:48:02.901Z</time>
      </trkpt>
      <trkpt lat="67.84767" lon="20.31719">
        <ele>440.554558</ele>
        <time>2020-08-27T10:48:04.855Z</time>
      </trkpt>
      <trkpt lat="67.84791" lon="20.31781">
        <ele>440.246222</ele>
        <time>2020-08-27T10:48:10.326Z</time>
      </trkpt>
      <trkpt lat="67.84828" lon="20.3185">
        <ele>440.028569</ele>
        <time>2020-08-27T10:48:18.204Z</time>
      </trkpt>
      <trkpt lat="67.8484" lon="20.31872">
        <ele>439.984346</ele>
        <time>2020-08-27T10:48:20.585Z</time>
      </trkpt>
      <trkpt lat="67.84854" lon="20.31904">
        <ele>439.927743</ele>
        <time>2020-08-27T10:48:23.817Z</time>
      </trkpt>
      <trkpt lat="67.84889" lon="20.32003">
        <ele>439.769351</ele>
        <time>2020-08-27T10:48:32.594Z</time>
      </trkpt>
      <trkpt lat="67.84915" lon="20.32112">
        <ele>439.619369</ele>
        <time>2020-08-27T10:48:40.807Z</time>
      </trkpt>
      <trkpt lat="67.84922" lon="20.32151">
        <ele>439.556053</ele>
        <time>2020-08-27T10:48:43.653Z</time>
      </trkpt>
      <trkpt lat="67.84935" lon="20.32226">
        <ele>439.312892</ele>
        <time>2020-08-27T10:48:48.802Z</time>
      </trkpt>
      <trkpt lat="67.84946" lon="20.32333">
        <ele>438.986059</ele>
        <time>2020-08-27T10:48:55.511Z</time>
      </trkpt>
      <trkpt lat="67.84951" lon="20.32428">
        <ele>438.703618</ele>
        <time>2020-08-27T10:49:01.199Z</time>
      </trkpt>
      <trkpt lat="67.84943" lon="20.32591">
        <ele>438.22067</ele>
        <time>2020-08-27T10:49:10.722Z</time>
      </trkpt>
      <trkpt lat="67.84938" lon="20.32666">
        <ele>437.942982</ele>
        <time>2020-08-27T10:49:15.191Z</time>
      </trkpt>
      <trkpt lat="67.84925" lon="20.32788">
        <ele>437.461507</ele>
        <time>2020-08-27T10:49:22.673Z</time>
      </trkpt>
      <trkpt lat="67.8491" lon="20.32932">
        <ele>436.890659</ele>
        <time>2020-08-27T10:49:31.416Z</time>
      </trkpt>
      <trkpt lat="67.84904" lon="20.32981">
        <ele>436.695072</ele>
        <time>2020-08-27T10:49:34.364Z</time>
      </trkpt>
      <trkpt lat="67.84889" lon="20.33179">
        <ele>435.886303</ele>
        <time>2020-08-27T10:49:46.177Z</time>
      </trkpt>
      <trkpt lat="67.84885" lon="20.33216">
        <ele>435.725768</ele>
        <time>2020-08-27T10:49:48.533Z</time>
      </trkpt>
      <trkpt lat="67.84884" lon="20.33226">
        <ele>435.682844</ele>
        <time>2020-08-27T10:49:49.067Z</time>
      </trkpt>
      <trkpt lat="67.8488" lon="20.33236">
        <ele>435.621413</ele>
        <time>2020-08-27T10:49:49.929Z</time>
      </trkpt>
      <trkpt lat="67.84849" lon="20.33504">
        <ele>434.456888</ele>
        <time>2020-08-27T10:50:06.154Z</time>
      </trkpt>
      <trkpt lat="67.84848" lon="20.33516">
        <ele>434.402156</ele>
        <time>2020-08-27T10:50:06.863Z</time>
      </trkpt>
      <trkpt lat="67.84846" lon="20.33529">
        <ele>434.342607</ele>
        <time>2020-08-27T10:50:07.604Z</time>
      </trkpt>
      <trkpt lat="67.84792" lon="20.33953">
        <ele>432.076271</ele>
        <time>2020-08-27T10:50:32.855Z</time>
      </trkpt>
      <trkpt lat="67.84789" lon="20.33987">
        <ele>431.893029</ele>
        <time>2020-08-27T10:50:34.837Z</time>
      </trkpt>
      <trkpt lat="67.84783" lon="20.34026">
        <ele>431.660235</ele>
        <time>2020-08-27T10:50:37.211Z</time>
      </trkpt>
      <trkpt lat="67.84749" lon="20.34369">
        <ele>429.679501</ele>
        <time>2020-08-27T10:50:56.895Z</time>
      </trkpt>
      <trkpt lat="67.84752" lon="20.34391">
        <ele>429.550054</ele>
        <time>2020-08-27T10:50:58.187Z</time>
      </trkpt>
      <trkpt lat="67.84751" lon="20.34404">
        <ele>429.472212</ele>
        <time>2020-08-27T10:50:58.904Z</time>
      </trkpt>
      <trkpt lat="67.84742" lon="20.34399">
        <ele>429.347082</ele>
        <time>2020-08-27T10:51:00.257Z</time>
      </trkpt>
      <trkpt lat="67.84738" lon="20.34481">
        <ele>428.829347</ele>
        <time>2020-08-27T10:51:04.895Z</time>
      </trkpt>
      <trkpt lat="67.84734" lon="20.34553">
        <ele>428.37346</ele>
        <time>2020-08-27T10:51:08.917Z</time>
      </trkpt>
      <trkpt lat="67.84722" lon="20.34798">
        <ele>426.81159</ele>
        <time>2020-08-27T10:51:22.361Z</time>
      </trkpt>
      <trkpt lat="67.84717" lon="20.34901">
        <ele>426.154411</ele>
        <time>2020-08-27T10:51:28.018Z</time>
      </trkpt>
      <trkpt lat="67.84696" lon="20.34913">
        <ele>425.777719</ele>
        <time>2020-08-27T10:51:31.132Z</time>
      </trkpt>
      <trkpt lat="67.84589" lon="20.34951">
        <ele>423.907465</ele>
        <time>2020-08-27T10:51:46.688Z</time>
      </trkpt>
      <trkpt lat="67.8457" lon="20.34951">
        <ele>423.590773</ele>
        <time>2020-08-27T10:51:49.303Z</time>
      </trkpt>
      <trkpt lat="67.84575" lon="20.35054">
        <ele>422.959214</ele>
        <time>2020-08-27T10:51:55.039Z</time>
      </trkpt>
      <trkpt lat="67.84581" lon="20.35163">
        <ele>422.377511</ele>
        <time>2020-08-27T10:52:01.171Z</time>
      </trkpt>
      <trkpt lat="67.84588" lon="20.35279">
        <ele>421.749375</ele>
        <time>2020-08-27T10:52:07.786Z</time>
      </trkpt>
      <trkpt lat="67.84597" lon="20.35395">
        <ele>421.120027</ele>
        <time>2020-08-27T10:52:14.406Z</time>
      </trkpt>
      <trkpt lat="67.84642" lon="20.36001">
        <ele>418.134111</ele>
        <time>2020-08-27T10:52:49.796Z</time>
      </trkpt>
      <trkpt lat="67.84656" lon="20.36288">
        <ele>416.307226</ele>
        <time>2020-08-27T10:53:05.678Z</time>
      </trkpt>
      <trkpt lat="67.84662" lon="20.36507">
        <ele>414.898811</ele>
        <time>2020-08-27T10:53:17.411Z</time>
      </trkpt>
      <trkpt lat="67.84663" lon="20.3682">
        <ele>412.8564</ele>
        <time>2020-08-27T10:53:34.250Z</time>
      </trkpt>
      <trkpt lat="67.84638" lon="20.3782">
        <ele>408.412046</ele>
        <time>2020-08-27T10:54:32.012Z</time>
      </trkpt>
      <trkpt lat="67.84636" lon="20.37893">
        <ele>408.168458</ele>
        <time>2020-08-27T10:54:36.359Z</time>
      </trkpt>
      <trkpt lat="67.84635" lon="20.37924">
        <ele>408.082793</ele>
        <time>2020-08-27T10:54:38.276Z</time>
      </trkpt>
      <trkpt lat="67.84632" lon="20.38039">
        <ele>407.772121</ele>
        <time>2020-08-27T10:54:45.192Z</time>
      </trkpt>
      <trkpt lat="67.84631" lon="20.38085">
        <ele>407.64506</ele>
        <time>2020-08-27T10:54:47.980Z</time>
      </trkpt>
      <trkpt lat="67.84622" lon="20.38401">
        <ele>406.783959</ele>
        <time>2020-08-27T10:55:07.358Z</time>
      </trkpt>
      <trkpt lat="67.84601" lon="20.38708">
        <ele>405.932984</ele>
        <time>2020-08-27T10:55:26.343Z</time>
      </trkpt>
      <trkpt lat="67.84597" lon="20.38744">
        <ele>405.829754</ele>
        <time>2020-08-27T10:55:28.620Z</time>
      </trkpt>
      <trkpt lat="67.84596" lon="20.38751">
        <ele>405.810238</ele>
        <time>2020-08-27T10:55:29.014Z</time>
      </trkpt>
      <trkpt lat="67.84569" lon="20.3899">
        <ele>404.878119</ele>
        <time>2020-08-27T10:55:43.766Z</time>
      </trkpt>
      <trkpt lat="67.84552" lon="20.39116">
        <ele>404.345508</ele>
        <time>2020-08-27T10:55:51.435Z</time>
      </trkpt>
      <trkpt lat="67.84524" lon="20.39311">
        <ele>403.467388</ele>
        <time>2020-08-27T10:56:03.468Z</time>
      </trkpt>
      <trkpt lat="67.84503" lon="20.39451">
        <ele>402.765367</ele>
        <time>2020-08-27T10:56:11.997Z</time>
      </trkpt>
      <trkpt lat="67.84476" lon="20.39638">
        <ele>401.833557</ele>
        <time>2020-08-27T10:56:23.304Z</time>
      </trkpt>
      <trkpt lat="67.84433" lon="20.39933">
        <ele>400.377983</ele>
        <time>2020-08-27T10:56:41.521Z</time>
      </trkpt>
      <trkpt lat="67.84409" lon="20.40124">
        <ele>399.454498</ele>
        <time>2020-08-27T10:56:52.942Z</time>
      </trkpt>
      <trkpt lat="67.84389" lon="20.40308">
        <ele>398.652093</ele>
        <time>2020-08-27T10:57:03.827Z</time>
      </trkpt>
      <trkpt lat="67.84369" lon="20.40488">
        <ele>397.876584</ele>
        <time>2020-08-27T10:57:14.637Z</time>
      </trkpt>
      <trkpt lat="67.84366" lon="20.40512">
        <ele>397.772789</ele>
        <time>2020-08-27T10:57:16.115Z</time>
      </trkpt>
      <trkpt lat="67.84357" lon="20.40589">
        <ele>397.438518</ele>
        <time>2020-08-27T10:57:20.846Z</time>
      </trkpt>
      <trkpt lat="67.84348" lon="20.40673">
        <ele>397.286415</ele>
        <time>2020-08-27T10:57:26.047Z</time>
      </trkpt>
      <trkpt lat="67.84312" lon="20.40993">
        <ele>396.82086</ele>
        <time>2020-08-27T10:57:47.461Z</time>
      </trkpt>
      <trkpt lat="67.84301" lon="20.41091">
        <ele>396.711333</ele>
        <time>2020-08-27T10:57:54.443Z</time>
      </trkpt>
      <trkpt lat="67.84249" lon="20.41545">
        <ele>396.392957</ele>
        <time>2020-08-27T10:58:25.916Z</time>
      </trkpt>
      <trkpt lat="67.84232" lon="20.41699">
        <ele>395.833061</ele>
        <time>2020-08-27T10:58:35.780Z</time>
      </trkpt>
      <trkpt lat="67.84227" lon="20.41741">
        <ele>395.67865</ele>
        <time>2020-08-27T10:58:38.395Z</time>
      </trkpt>
      <trkpt lat="67.84215" lon="20.4186">
        <ele>395.251021</ele>
        <time>2020-08-27T10:58:45.473Z</time>
      </trkpt>
      <trkpt lat="67.8419" lon="20.4209">
        <ele>394.131421</ele>
        <time>2020-08-27T10:58:58.826Z</time>
      </trkpt>
      <trkpt lat="67.84181" lon="20.42227">
        <ele>393.32202</ele>
        <time>2020-08-27T10:59:06.466Z</time>
      </trkpt>
      <trkpt lat="67.84172" lon="20.42379">
        <ele>392.435264</ele>
        <time>2020-08-27T10:59:14.872Z</time>
      </trkpt>
      <trkpt lat="67.84168" lon="20.42496">
        <ele>391.869305</ele>
        <time>2020-08-27T10:59:21.396Z</time>
      </trkpt>
      <trkpt lat="67.84168" lon="20.42524">
        <ele>391.763186</ele>
        <time>2020-08-27T10:59:22.918Z</time>
      </trkpt>
      <trkpt lat="67.84166" lon="20.42746">
        <ele>390.925642</ele>
        <time>2020-08-27T10:59:35.937Z</time>
      </trkpt>
      <trkpt lat="67.84167" lon="20.42823">
        <ele>390.638294</ele>
        <time>2020-08-27T10:59:40.542Z</time>
      </trkpt>
      <trkpt lat="67.84173" lon="20.43115">
        <ele>389.919967</ele>
        <time>2020-08-27T10:59:58.484Z</time>
      </trkpt>
      <trkpt lat="67.84174" lon="20.43208">
        <ele>389.747583</ele>
        <time>2020-08-27T11:00:04.354Z</time>
      </trkpt>
      <trkpt lat="67.84176" lon="20.43432">
        <ele>389.375189</ele>
        <time>2020-08-27T11:00:18.651Z</time>
      </trkpt>
      <trkpt lat="67.84177" lon="20.43538">
        <ele>389.286443</ele>
        <time>2020-08-27T11:00:25.447Z</time>
      </trkpt>
      <trkpt lat="67.84176" lon="20.43672">
        <ele>389.174401</ele>
        <time>2020-08-27T11:00:34.035Z</time>
      </trkpt>
      <trkpt lat="67.84174" lon="20.43764">
        <ele>389.097365</ele>
        <time>2020-08-27T11:00:40.029Z</time>
      </trkpt>
      <trkpt lat="67.84171" lon="20.43827">
        <ele>389.044446</ele>
        <time>2020-08-27T11:00:44.220Z</time>
      </trkpt>
      <trkpt lat="67.84168" lon="20.4389">
        <ele>388.99525</ele>
        <time>2020-08-27T11:00:48.522Z</time>
      </trkpt>
      <trkpt lat="67.84163" lon="20.43985">
        <ele>388.93376</ele>
        <time>2020-08-27T11:00:54.928Z</time>
      </trkpt>
      <trkpt lat="67.84154" lon="20.4413">
        <ele>388.839666</ele>
        <time>2020-08-27T11:01:04.668Z</time>
      </trkpt>
      <trkpt lat="67.84151" lon="20.44165">
        <ele>388.816552</ele>
        <time>2020-08-27T11:01:07.009Z</time>
      </trkpt>
      <trkpt lat="67.84137" lon="20.44326">
        <ele>388.710596</ele>
        <time>2020-08-27T11:01:17.774Z</time>
      </trkpt>
      <trkpt lat="67.84135" lon="20.44345">
        <ele>388.686142</ele>
        <time>2020-08-27T11:01:19.040Z</time>
      </trkpt>
      <trkpt lat="67.84117" lon="20.44492">
        <ele>388.390849</ele>
        <time>2020-08-27T11:01:28.806Z</time>
      </trkpt>
      <trkpt lat="67.84091" lon="20.44709">
        <ele>387.951927</ele>
        <time>2020-08-27T11:01:42.879Z</time>
      </trkpt>
      <trkpt lat="67.8407" lon="20.44877">
        <ele>387.542731</ele>
        <time>2020-08-27T11:01:53.595Z</time>
      </trkpt>
      <trkpt lat="67.84047" lon="20.45067">
        <ele>387.007494</ele>
        <time>2020-08-27T11:02:05.602Z</time>
      </trkpt>
      <trkpt lat="67.84017" lon="20.45314">
        <ele>386.34428</ele>
        <time>2020-08-27T11:02:21.257Z</time>
      </trkpt>
      <trkpt lat="67.83984" lon="20.45639">
        <ele>385.592597</ele>
        <time>2020-08-27T11:02:41.906Z</time>
      </trkpt>
      <trkpt lat="67.83965" lon="20.45847">
        <ele>385.312326</ele>
        <time>2020-08-27T11:02:55.449Z</time>
      </trkpt>
      <trkpt lat="67.83943" lon="20.46168">
        <ele>385.021917</ele>
        <time>2020-08-27T11:03:16.760Z</time>
      </trkpt>
      <trkpt lat="67.83925" lon="20.46534">
        <ele>384.830208</ele>
        <time>2020-08-27T11:03:41.319Z</time>
      </trkpt>
      <trkpt lat="67.83892" lon="20.47991">
        <ele>383.255085</ele>
        <time>2020-08-27T11:05:15.382Z</time>
      </trkpt>
      <trkpt lat="67.83873" lon="20.48441">
        <ele>382.163789</ele>
        <time>2020-08-27T11:05:42.854Z</time>
      </trkpt>
      <trkpt lat="67.8386" lon="20.48711">
        <ele>381.394886</ele>
        <time>2020-08-27T11:05:59.136Z</time>
      </trkpt>
      <trkpt lat="67.83851" lon="20.48855">
        <ele>380.964226</ele>
        <time>2020-08-27T11:06:07.890Z</time>
      </trkpt>
      <trkpt lat="67.8383" lon="20.49133">
        <ele>380.132804</ele>
        <time>2020-08-27T11:06:24.880Z</time>
      </trkpt>
      <trkpt lat="67.83792" lon="20.49537">
        <ele>378.956781</ele>
        <time>2020-08-27T11:06:49.902Z</time>
      </trkpt>
      <trkpt lat="67.83727" lon="20.50053">
        <ele>377.805238</ele>
        <time>2020-08-27T11:07:23.357Z</time>
      </trkpt>
      <trkpt lat="67.83656" lon="20.50518">
        <ele>377.205779</ele>
        <time>2020-08-27T11:07:55.558Z</time>
      </trkpt>
      <trkpt lat="67.83579" lon="20.50922">
        <ele>377.007713</ele>
        <time>2020-08-27T11:08:25.704Z</time>
      </trkpt>
      <trkpt lat="67.83499" lon="20.51274">
        <ele>377.014106</ele>
        <time>2020-08-27T11:08:52.939Z</time>
      </trkpt>
      <trkpt lat="67.8343" lon="20.51557">
        <ele>377.361394</ele>
        <time>2020-08-27T11:09:16.525Z</time>
      </trkpt>
      <trkpt lat="67.8341" lon="20.51631">
        <ele>377.483392</ele>
        <time>2020-08-27T11:09:23.187Z</time>
      </trkpt>
      <trkpt lat="67.83293" lon="20.52044">
        <ele>379.454925</ele>
        <time>2020-08-27T11:10:04.159Z</time>
      </trkpt>
      <trkpt lat="67.83195" lon="20.5235">
        <ele>381.688928</ele>
        <time>2020-08-27T11:10:38.583Z</time>
      </trkpt>
      <trkpt lat="67.83108" lon="20.5259">
        <ele>384.08252</ele>
        <time>2020-08-27T11:11:08.618Z</time>
      </trkpt>
      <trkpt lat="67.83059" lon="20.52716">
        <ele>385.420334</ele>
        <time>2020-08-27T11:11:25.346Z</time>
      </trkpt>
      <trkpt lat="67.82482" lon="20.54008">
        <ele>402.107604</ele>
        <time>2020-08-27T11:14:34.590Z</time>
      </trkpt>
      <trkpt lat="67.8245" lon="20.54091">
        <ele>402.835249</ele>
        <time>2020-08-27T11:14:45.490Z</time>
      </trkpt>
      <trkpt lat="67.82425" lon="20.54112">
        <ele>403.252118</ele>
        <time>2020-08-27T11:14:51.700Z</time>
      </trkpt>
      <trkpt lat="67.82319" lon="20.54364">
        <ele>404.716486</ele>
        <time>2020-08-27T11:15:22.771Z</time>
      </trkpt>
      <trkpt lat="67.82293" lon="20.54459">
        <ele>404.933361</ele>
        <time>2020-08-27T11:15:31.266Z</time>
      </trkpt>
      <trkpt lat="67.82195" lon="20.54827">
        <ele>405.360213</ele>
        <time>2020-08-27T11:16:03.470Z</time>
      </trkpt>
      <trkpt lat="67.82065" lon="20.55541">
        <ele>405.496761</ele>
        <time>2020-08-27T11:17:00.785Z</time>
      </trkpt>
      <trkpt lat="67.82059" lon="20.55595">
        <ele>405.37577</ele>
        <time>2020-08-27T11:17:04.513Z</time>
      </trkpt>
      <trkpt lat="67.82067" lon="20.55623">
        <ele>405.30117</ele>
        <time>2020-08-27T11:17:06.978Z</time>
      </trkpt>
      <trkpt lat="67.8187" lon="20.56582">
        <ele>402.910112</ele>
        <time>2020-08-27T11:18:12.824Z</time>
      </trkpt>
      <trkpt lat="67.81698" lon="20.57409">
        <ele>401.927944</ele>
        <time>2020-08-27T11:19:14.171Z</time>
      </trkpt>
      <trkpt lat="67.81658" lon="20.57604">
        <ele>401.63839</ele>
        <time>2020-08-27T11:19:28.306Z</time>
      </trkpt>
      <trkpt lat="67.81565" lon="20.58049">
        <ele>400.874462</ele>
        <time>2020-08-27T11:19:59.919Z</time>
      </trkpt>
      <trkpt lat="67.81544" lon="20.58132">
        <ele>400.805057</ele>
        <time>2020-08-27T11:20:06.350Z</time>
      </trkpt>
      <trkpt lat="67.81531" lon="20.58187">
        <ele>400.759111</ele>
        <time>2020-08-27T11:20:10.748Z</time>
      </trkpt>
      <trkpt lat="67.81498" lon="20.58287">
        <ele>400.666816</ele>
        <time>2020-08-27T11:20:19.832Z</time>
      </trkpt>
      <trkpt lat="67.81466" lon="20.58393">
        <ele>400.876798</ele>
        <time>2020-08-27T11:20:29.030Z</time>
      </trkpt>
      <trkpt lat="67.81464" lon="20.58399">
        <ele>400.901627</ele>
        <time>2020-08-27T11:20:29.642Z</time>
      </trkpt>
      <trkpt lat="67.81441" lon="20.5846">
        <ele>401.154651</ele>
        <time>2020-08-27T11:20:35.977Z</time>
      </trkpt>
      <trkpt lat="67.81411" lon="20.58541">
        <ele>401.487454</ele>
        <time>2020-08-27T11:20:44.663Z</time>
      </trkpt>
      <trkpt lat="67.81399" lon="20.58569">
        <ele>401.608982</ele>
        <time>2020-08-27T11:20:48.059Z</time>
      </trkpt>
      <trkpt lat="67.81393" lon="20.58554">
        <ele>401.675808</ele>
        <time>2020-08-27T11:20:49.811Z</time>
      </trkpt>
      <trkpt lat="67.81378" lon="20.58534">
        <ele>401.803119</ele>
        <time>2020-08-27T11:20:53.415Z</time>
      </trkpt>
      <trkpt lat="67.81363" lon="20.58534">
        <ele>401.916754</ele>
        <time>2020-08-27T11:20:56.695Z</time>
      </trkpt>
      <trkpt lat="67.81355" lon="20.58537">
        <ele>401.98202</ele>
        <time>2020-08-27T11:20:58.468Z</time>
      </trkpt>
      <trkpt lat="67.80854" lon="20.58692">
        <ele>412.124456</ele>
        <time>2020-08-27T11:23:04.182Z</time>
      </trkpt>
      <trkpt lat="67.80728" lon="20.58736">
        <ele>414.773003</ele>
        <time>2020-08-27T11:23:40.653Z</time>
      </trkpt>
      <trkpt lat="67.805" lon="20.58855">
        <ele>417.447892</ele>
        <time>2020-08-27T11:24:31.151Z</time>
      </trkpt>
      <trkpt lat="67.80335" lon="20.58993">
        <ele>417.128272</ele>
        <time>2020-08-27T11:25:00.809Z</time>
      </trkpt>
      <trkpt lat="67.80319" lon="20.59015">
        <ele>417.051714</ele>
        <time>2020-08-27T11:25:03.946Z</time>
      </trkpt>
      <trkpt lat="67.80317" lon="20.59031">
        <ele>417.024715</ele>
        <time>2020-08-27T11:25:05.058Z</time>
      </trkpt>
      <trkpt lat="67.80319" lon="20.59062">
        <ele>416.975001</ele>
        <time>2020-08-27T11:25:07.076Z</time>
      </trkpt>
      <trkpt lat="67.80256" lon="20.59075">
        <ele>417.028425</ele>
        <time>2020-08-27T11:25:17.790Z</time>
      </trkpt>
      <trkpt lat="67.80136" lon="20.59111">
        <ele>417.259479</ele>
        <time>2020-08-27T11:25:40.124Z</time>
      </trkpt>
      <trkpt lat="67.7991" lon="20.5922">
        <ele>419.934361</ele>
        <time>2020-08-27T11:26:30.352Z</time>
      </trkpt>
      <trkpt lat="67.79022" lon="20.59764">
        <ele>433.38634</ele>
        <time>2020-08-27T11:29:56.725Z</time>
      </trkpt>
      <trkpt lat="67.7892" lon="20.59858">
        <ele>434.807615</ele>
        <time>2020-08-27T11:30:20.319Z</time>
      </trkpt>
      <trkpt lat="67.78824" lon="20.59994">
        <ele>436.030586</ele>
        <time>2020-08-27T11:30:43.524Z</time>
      </trkpt>
      <trkpt lat="67.78648" lon="20.60274">
        <ele>438.412907</ele>
        <time>2020-08-27T11:31:27.352Z</time>
      </trkpt>
      <trkpt lat="67.78176" lon="20.61002">
        <ele>446.016934</ele>
        <time>2020-08-27T11:33:29.181Z</time>
      </trkpt>
      <trkpt lat="67.78037" lon="20.61218">
        <ele>447.728251</ele>
        <time>2020-08-27T11:34:06.696Z</time>
      </trkpt>
      <trkpt lat="67.77922" lon="20.61382">
        <ele>447.457011</ele>
        <time>2020-08-27T11:34:29.171Z</time>
      </trkpt>
      <trkpt lat="67.77797" lon="20.61508">
        <ele>445.31966</ele>
        <time>2020-08-27T11:34:47.688Z</time>
      </trkpt>
      <trkpt lat="67.77716" lon="20.6157">
        <ele>443.746997</ele>
        <time>2020-08-27T11:34:59.283Z</time>
      </trkpt>
      <trkpt lat="67.77634" lon="20.61596">
        <ele>442.213927</ele>
        <time>2020-08-27T11:35:11.263Z</time>
      </trkpt>
      <trkpt lat="67.77386" lon="20.6162">
        <ele>441.098518</ele>
        <time>2020-08-27T11:35:52.783Z</time>
      </trkpt>
      <trkpt lat="67.77343" lon="20.61642">
        <ele>441.04979</ele>
        <time>2020-08-27T11:36:00.690Z</time>
      </trkpt>
      <trkpt lat="67.77284" lon="20.61676">
        <ele>440.984045</ele>
        <time>2020-08-27T11:36:11.399Z</time>
      </trkpt>
      <trkpt lat="67.77244" lon="20.61696">
        <ele>440.97708</ele>
        <time>2020-08-27T11:36:18.746Z</time>
      </trkpt>
      <trkpt lat="67.76952" lon="20.61952">
        <ele>441.045675</ele>
        <time>2020-08-27T11:37:13.705Z</time>
      </trkpt>
      <trkpt lat="67.76766" lon="20.62142">
        <ele>441.489314</ele>
        <time>2020-08-27T11:37:50.456Z</time>
      </trkpt>
      <trkpt lat="67.76176" lon="20.62808">
        <ele>447.395314</ele>
        <time>2020-08-27T11:40:04.622Z</time>
      </trkpt>
      <trkpt lat="67.75983" lon="20.62992">
        <ele>448.368693</ele>
        <time>2020-08-27T11:40:46.081Z</time>
      </trkpt>
      <trkpt lat="67.75627" lon="20.63288">
        <ele>446.154157</ele>
        <time>2020-08-27T11:41:45.027Z</time>
      </trkpt>
      <trkpt lat="67.75494" lon="20.6344">
        <ele>445.95631</ele>
        <time>2020-08-27T11:42:10.338Z</time>
      </trkpt>
      <trkpt lat="67.75362" lon="20.63622">
        <ele>446.055415</ele>
        <time>2020-08-27T11:42:38.652Z</time>
      </trkpt>
      <trkpt lat="67.75091" lon="20.64046">
        <ele>445.339483</ele>
        <time>2020-08-27T11:43:33.632Z</time>
      </trkpt>
      <trkpt lat="67.74893" lon="20.64361">
        <ele>442.720092</ele>
        <time>2020-08-27T11:44:07.372Z</time>
      </trkpt>
      <trkpt lat="67.74794" lon="20.64526">
        <ele>441.826933</ele>
        <time>2020-08-27T11:44:26.556Z</time>
      </trkpt>
      <trkpt lat="67.7471" lon="20.64697">
        <ele>441.975695</ele>
        <time>2020-08-27T11:44:46.418Z</time>
      </trkpt>
      <trkpt lat="67.74641" lon="20.6491">
        <ele>442.144064</ele>
        <time>2020-08-27T11:45:06.588Z</time>
      </trkpt>
      <trkpt lat="67.74295" lon="20.66064">
        <ele>442.900633</ele>
        <time>2020-08-27T11:46:49.016Z</time>
      </trkpt>
      <trkpt lat="67.7424" lon="20.66219">
        <ele>442.798995</ele>
        <time>2020-08-27T11:47:02.614Z</time>
      </trkpt>
      <trkpt lat="67.7413" lon="20.66495">
        <ele>442.467495</ele>
        <time>2020-08-27T11:47:28.192Z</time>
      </trkpt>
      <trkpt lat="67.73622" lon="20.67424">
        <ele>442.383845</ele>
        <time>2020-08-27T11:49:18.636Z</time>
      </trkpt>
      <trkpt lat="67.73419" lon="20.67827">
        <ele>442.087357</ele>
        <time>2020-08-27T11:50:03.825Z</time>
      </trkpt>
      <trkpt lat="67.73266" lon="20.68146">
        <ele>441.187167</ele>
        <time>2020-08-27T11:50:36.025Z</time>
      </trkpt>
      <trkpt lat="67.73221" lon="20.68252">
        <ele>440.816435</ele>
        <time>2020-08-27T11:50:45.565Z</time>
      </trkpt>
      <trkpt lat="67.73141" lon="20.68484">
        <ele>439.704762</ele>
        <time>2020-08-27T11:51:04.124Z</time>
      </trkpt>
      <trkpt lat="67.73065" lon="20.68729">
        <ele>438.350577</ele>
        <time>2020-08-27T11:51:22.623Z</time>
      </trkpt>
      <trkpt lat="67.72992" lon="20.69031">
        <ele>436.492794</ele>
        <time>2020-08-27T11:51:42.849Z</time>
      </trkpt>
      <trkpt lat="67.72772" lon="20.70186">
        <ele>427.447434</ele>
        <time>2020-08-27T11:52:52.835Z</time>
      </trkpt>
      <trkpt lat="67.72708" lon="20.70455">
        <ele>425.155896</ele>
        <time>2020-08-27T11:53:09.830Z</time>
      </trkpt>
      <trkpt lat="67.72588" lon="20.70839">
        <ele>421.824288</ele>
        <time>2020-08-27T11:53:36.770Z</time>
      </trkpt>
      <trkpt lat="67.72522" lon="20.7101">
        <ele>420.358951</ele>
        <time>2020-08-27T11:53:50.470Z</time>
      </trkpt>
      <trkpt lat="67.7252" lon="20.71017">
        <ele>420.298241</ele>
        <time>2020-08-27T11:53:50.985Z</time>
      </trkpt>
      <trkpt lat="67.72472" lon="20.71124">
        <ele>419.682957</ele>
        <time>2020-08-27T11:54:00.621Z</time>
      </trkpt>
      <trkpt lat="67.7239" lon="20.71298">
        <ele>418.680964</ele>
        <time>2020-08-27T11:54:16.990Z</time>
      </trkpt>
      <trkpt lat="67.71322" lon="20.73603">
        <ele>413.470853</ele>
        <time>2020-08-27T11:58:09.055Z</time>
      </trkpt>
      <trkpt lat="67.71338" lon="20.73653">
        <ele>413.374822</ele>
        <time>2020-08-27T11:58:13.523Z</time>
      </trkpt>
      <trkpt lat="67.71279" lon="20.73838">
        <ele>412.977081</ele>
        <time>2020-08-27T11:58:29.579Z</time>
      </trkpt>
      <trkpt lat="67.71222" lon="20.74017">
        <ele>412.552557</ele>
        <time>2020-08-27T11:58:44.715Z</time>
      </trkpt>
      <trkpt lat="67.712" lon="20.74125">
        <ele>412.327106</ele>
        <time>2020-08-27T11:58:52.590Z</time>
      </trkpt>
      <trkpt lat="67.7091" lon="20.75849">
        <ele>408.806144</ele>
        <time>2020-08-27T12:00:56.547Z</time>
      </trkpt>
      <trkpt lat="67.70808" lon="20.76368">
        <ele>406.5904</ele>
        <time>2020-08-27T12:01:33.035Z</time>
      </trkpt>
      <trkpt lat="67.70777" lon="20.76436">
        <ele>405.85667</ele>
        <time>2020-08-27T12:01:39.184Z</time>
      </trkpt>
      <trkpt lat="67.70466" lon="20.76988">
        <ele>399.181934</ele>
        <time>2020-08-27T12:02:34.562Z</time>
      </trkpt>
      <trkpt lat="67.7045" lon="20.7702">
        <ele>398.853675</ele>
        <time>2020-08-27T12:02:37.722Z</time>
      </trkpt>
      <trkpt lat="67.70434" lon="20.77069">
        <ele>398.465616</ele>
        <time>2020-08-27T12:02:41.488Z</time>
      </trkpt>
      <trkpt lat="67.70378" lon="20.77328">
        <ele>397.338459</ele>
        <time>2020-08-27T12:02:59.868Z</time>
      </trkpt>
      <trkpt lat="67.70343" lon="20.77503">
        <ele>396.87974</ele>
        <time>2020-08-27T12:03:12.966Z</time>
      </trkpt>
      <trkpt lat="67.70331" lon="20.77603">
        <ele>396.658135</ele>
        <time>2020-08-27T12:03:19.992Z</time>
      </trkpt>
      <trkpt lat="67.70305" lon="20.78104">
        <ele>396.419083</ele>
        <time>2020-08-27T12:03:55.090Z</time>
      </trkpt>
      <trkpt lat="67.69914" lon="20.79707">
        <ele>395.639511</ele>
        <time>2020-08-27T12:06:08.809Z</time>
      </trkpt>
      <trkpt lat="67.69611" lon="20.81026">
        <ele>387.018476</ele>
        <time>2020-08-27T12:07:39.186Z</time>
      </trkpt>
      <trkpt lat="67.6961" lon="20.81029">
        <ele>386.983521</ele>
        <time>2020-08-27T12:07:39.385Z</time>
      </trkpt>
      <trkpt lat="67.69456" lon="20.81705">
        <ele>380.753435</ele>
        <time>2020-08-27T12:08:22.876Z</time>
      </trkpt>
      <trkpt lat="67.69433" lon="20.81823">
        <ele>380.035699</ele>
        <time>2020-08-27T12:08:30.572Z</time>
      </trkpt>
      <trkpt lat="67.69338" lon="20.82492">
        <ele>376.790696</ele>
        <time>2020-08-27T12:09:13.885Z</time>
      </trkpt>
      <trkpt lat="67.69308" lon="20.82662">
        <ele>376.219061</ele>
        <time>2020-08-27T12:09:26.043Z</time>
      </trkpt>
      <trkpt lat="67.69308" lon="20.82665">
        <ele>376.211385</ele>
        <time>2020-08-27T12:09:26.214Z</time>
      </trkpt>
      <trkpt lat="67.69304" lon="20.82684">
        <ele>376.160206</ele>
        <time>2020-08-27T12:09:27.648Z</time>
      </trkpt>
      <trkpt lat="67.69273" lon="20.82831">
        <ele>375.752631</ele>
        <time>2020-08-27T12:09:38.541Z</time>
      </trkpt>
      <trkpt lat="67.69254" lon="20.82906">
        <ele>375.53856</ele>
        <time>2020-08-27T12:09:44.359Z</time>
      </trkpt>
      <trkpt lat="67.69244" lon="20.82944">
        <ele>375.426219</ele>
        <time>2020-08-27T12:09:47.367Z</time>
      </trkpt>
      <trkpt lat="67.69217" lon="20.83021">
        <ele>375.099131</ele>
        <time>2020-08-27T12:09:54.101Z</time>
      </trkpt>
      <trkpt lat="67.69106" lon="20.83368">
        <ele>373.499824</ele>
        <time>2020-08-27T12:10:22.036Z</time>
      </trkpt>
      <trkpt lat="67.6907" lon="20.8351">
        <ele>372.905734</ele>
        <time>2020-08-27T12:10:32.509Z</time>
      </trkpt>
      <trkpt lat="67.68984" lon="20.83908">
        <ele>371.291994</ele>
        <time>2020-08-27T12:11:01.353Z</time>
      </trkpt>
      <trkpt lat="67.68959" lon="20.83872">
        <ele>371.01623</ele>
        <time>2020-08-27T12:11:06.171Z</time>
      </trkpt>
      <trkpt lat="67.68914" lon="20.84109">
        <ele>369.898326</ele>
        <time>2020-08-27T12:11:21.659Z</time>
      </trkpt>
      <trkpt lat="67.68779" lon="20.84751">
        <ele>365.246137</ele>
        <time>2020-08-27T12:12:01.876Z</time>
      </trkpt>
      <trkpt lat="67.68707" lon="20.85083">
        <ele>362.748776</ele>
        <time>2020-08-27T12:12:22.576Z</time>
      </trkpt>
      <trkpt lat="67.68597" lon="20.85556">
        <ele>359.709697</ele>
        <time>2020-08-27T12:12:53.649Z</time>
      </trkpt>
      <trkpt lat="67.68544" lon="20.85781">
        <ele>358.684376</ele>
        <time>2020-08-27T12:13:09.551Z</time>
      </trkpt>
      <trkpt lat="67.68263" lon="20.86891">
        <ele>355.291461</ele>
        <time>2020-08-27T12:14:31.459Z</time>
      </trkpt>
      <trkpt lat="67.68243" lon="20.8697">
        <ele>354.92829</ele>
        <time>2020-08-27T12:14:37.109Z</time>
      </trkpt>
      <trkpt lat="67.68209" lon="20.871">
        <ele>354.327592</ele>
        <time>2020-08-27T12:14:46.388Z</time>
      </trkpt>
      <trkpt lat="67.67976" lon="20.87996">
        <ele>350.057776</ele>
        <time>2020-08-27T12:15:49.757Z</time>
      </trkpt>
      <trkpt lat="67.6792" lon="20.88216">
        <ele>349.556333</ele>
        <time>2020-08-27T12:16:06.067Z</time>
      </trkpt>
      <trkpt lat="67.678" lon="20.88683">
        <ele>349.257751</ele>
        <time>2020-08-27T12:16:43.787Z</time>
      </trkpt>
      <trkpt lat="67.6774" lon="20.88919">
        <ele>349.377245</ele>
        <time>2020-08-27T12:17:03.855Z</time>
      </trkpt>
      <trkpt lat="67.67645" lon="20.89348">
        <ele>349.693814</ele>
        <time>2020-08-27T12:17:38.877Z</time>
      </trkpt>
      <trkpt lat="67.67638" lon="20.89387">
        <ele>349.696184</ele>
        <time>2020-08-27T12:17:41.896Z</time>
      </trkpt>
      <trkpt lat="67.6752" lon="20.90014">
        <ele>349.477682</ele>
        <time>2020-08-27T12:18:28.572Z</time>
      </trkpt>
      <trkpt lat="67.67385" lon="20.90767">
        <ele>348.317647</ele>
        <time>2020-08-27T12:19:21.353Z</time>
      </trkpt>
      <trkpt lat="67.67294" lon="20.91321">
        <ele>347.766372</ele>
        <time>2020-08-27T12:20:00.999Z</time>
      </trkpt>
      <trkpt lat="67.67251" lon="20.91675">
        <ele>347.109902</ele>
        <time>2020-08-27T12:20:25.080Z</time>
      </trkpt>
      <trkpt lat="67.67234" lon="20.91911">
        <ele>346.41924</ele>
        <time>2020-08-27T12:20:39.435Z</time>
      </trkpt>
      <trkpt lat="67.67223" lon="20.92213">
        <ele>344.938797</ele>
        <time>2020-08-27T12:20:56.648Z</time>
      </trkpt>
      <trkpt lat="67.67233" lon="20.92981">
        <ele>341.162365</ele>
        <time>2020-08-27T12:21:39.851Z</time>
      </trkpt>
      <trkpt lat="67.6723" lon="20.9325">
        <ele>340.170459</ele>
        <time>2020-08-27T12:21:56.275Z</time>
      </trkpt>
      <trkpt lat="67.67229" lon="20.9327">
        <ele>340.134172</ele>
        <time>2020-08-27T12:21:57.567Z</time>
      </trkpt>
      <trkpt lat="67.67228" lon="20.93305">
        <ele>340.088851</ele>
        <time>2020-08-27T12:21:59.784Z</time>
      </trkpt>
      <trkpt lat="67.67225" lon="20.9338">
        <ele>339.991267</ele>
        <time>2020-08-27T12:22:04.582Z</time>
      </trkpt>
      <trkpt lat="67.67223" lon="20.93409">
        <ele>339.952701</ele>
        <time>2020-08-27T12:22:06.505Z</time>
      </trkpt>
      <trkpt lat="67.67221" lon="20.93457">
        <ele>339.889214</ele>
        <time>2020-08-27T12:22:09.672Z</time>
      </trkpt>
      <trkpt lat="67.67186" lon="20.94069">
        <ele>339.218055</ele>
        <time>2020-08-27T12:22:49.889Z</time>
      </trkpt>
      <trkpt lat="67.6718" lon="20.94139">
        <ele>339.152238</ele>
        <time>2020-08-27T12:22:54.579Z</time>
      </trkpt>
      <trkpt lat="67.6717" lon="20.94245">
        <ele>339.076404</ele>
        <time>2020-08-27T12:23:01.747Z</time>
      </trkpt>
      <trkpt lat="67.67165" lon="20.94295">
        <ele>339.050616</ele>
        <time>2020-08-27T12:23:05.156Z</time>
      </trkpt>
      <trkpt lat="67.67137" lon="20.94518">
        <ele>338.933264</ele>
        <time>2020-08-27T12:23:20.721Z</time>
      </trkpt>
      <trkpt lat="67.67074" lon="20.94869">
        <ele>338.769857</ele>
        <time>2020-08-27T12:23:46.728Z</time>
      </trkpt>
      <trkpt lat="67.66974" lon="20.95379">
        <ele>338.38523</ele>
        <time>2020-08-27T12:24:24.754Z</time>
      </trkpt>
      <trkpt lat="67.669" lon="20.95746">
        <ele>337.702333</ele>
        <time>2020-08-27T12:24:50.916Z</time>
      </trkpt>
      <trkpt lat="67.66801" lon="20.96242">
        <ele>336.277356</ele>
        <time>2020-08-27T12:25:25.451Z</time>
      </trkpt>
      <trkpt lat="67.66727" lon="20.96667">
        <ele>334.473655</ele>
        <time>2020-08-27T12:25:52.881Z</time>
      </trkpt>
      <trkpt lat="67.66698" lon="20.96929">
        <ele>332.942053</ele>
        <time>2020-08-27T12:26:08.369Z</time>
      </trkpt>
      <trkpt lat="67.66683" lon="20.97155">
        <ele>331.486597</ele>
        <time>2020-08-27T12:26:20.828Z</time>
      </trkpt>
      <trkpt lat="67.6668" lon="20.97203">
        <ele>331.17866</ele>
        <time>2020-08-27T12:26:23.421Z</time>
      </trkpt>
      <trkpt lat="67.66676" lon="20.9731">
        <ele>330.519841</ele>
        <time>2020-08-27T12:26:29.250Z</time>
      </trkpt>
      <trkpt lat="67.66675" lon="20.97329">
        <ele>330.408542</ele>
        <time>2020-08-27T12:26:30.219Z</time>
      </trkpt>
      <trkpt lat="67.66672" lon="20.97415">
        <ele>329.882491</ele>
        <time>2020-08-27T12:26:34.889Z</time>
      </trkpt>
      <trkpt lat="67.66669" lon="20.97511">
        <ele>329.296767</ele>
        <time>2020-08-27T12:26:40.154Z</time>
      </trkpt>
      <trkpt lat="67.66668" lon="20.97544">
        <ele>329.089617</ele>
        <time>2020-08-27T12:26:41.995Z</time>
      </trkpt>
      <trkpt lat="67.66666" lon="20.97605">
        <ele>328.721049</ele>
        <time>2020-08-27T12:26:45.411Z</time>
      </trkpt>
      <trkpt lat="67.66663" lon="20.97715">
        <ele>328.205279</ele>
        <time>2020-08-27T12:26:51.885Z</time>
      </trkpt>
      <trkpt lat="67.66662" lon="20.97749">
        <ele>328.193288</ele>
        <time>2020-08-27T12:26:53.897Z</time>
      </trkpt>
      <trkpt lat="67.66659" lon="20.97801">
        <ele>328.175145</ele>
        <time>2020-08-27T12:26:57.334Z</time>
      </trkpt>
      <trkpt lat="67.66651" lon="20.97912">
        <ele>328.135656</ele>
        <time>2020-08-27T12:27:04.731Z</time>
      </trkpt>
      <trkpt lat="67.66645" lon="20.97999">
        <ele>328.104742</ele>
        <time>2020-08-27T12:27:11.013Z</time>
      </trkpt>
      <trkpt lat="67.6664" lon="20.98058">
        <ele>328.08375</ele>
        <time>2020-08-27T12:27:15.292Z</time>
      </trkpt>
      <trkpt lat="67.66639" lon="20.98071">
        <ele>328.079209</ele>
        <time>2020-08-27T12:27:16.448Z</time>
      </trkpt>
      <trkpt lat="67.66622" lon="20.98223">
        <ele>328.01728</ele>
        <time>2020-08-27T12:27:28.092Z</time>
      </trkpt>
      <trkpt lat="67.66591" lon="20.98431">
        <ele>327.918507</ele>
        <time>2020-08-27T12:27:44.540Z</time>
      </trkpt>
      <trkpt lat="67.66564" lon="20.98576">
        <ele>327.847059</ele>
        <time>2020-08-27T12:27:54.584Z</time>
      </trkpt>
      <trkpt lat="67.66507" lon="20.98814">
        <ele>325.89424</ele>
        <time>2020-08-27T12:28:09.875Z</time>
      </trkpt>
      <trkpt lat="67.66489" lon="20.98871">
        <ele>325.353045</ele>
        <time>2020-08-27T12:28:13.788Z</time>
      </trkpt>
      <trkpt lat="67.66479" lon="20.98905">
        <ele>325.040409</ele>
        <time>2020-08-27T12:28:15.976Z</time>
      </trkpt>
      <trkpt lat="67.66448" lon="20.99">
        <ele>324.184042</ele>
        <time>2020-08-27T12:28:22.527Z</time>
      </trkpt>
      <trkpt lat="67.66393" lon="20.99145">
        <ele>322.974347</ele>
        <time>2020-08-27T12:28:33.297Z</time>
      </trkpt>
      <trkpt lat="67.66196" lon="20.99554">
        <ele>320.477355</ele>
        <time>2020-08-27T12:29:13.024Z</time>
      </trkpt>
      <trkpt lat="67.66071" lon="20.99833">
        <ele>320.079608</ele>
        <time>2020-08-27T12:29:41.497Z</time>
      </trkpt>
      <trkpt lat="67.65986" lon="21.00092">
        <ele>320.00755</ele>
        <time>2020-08-27T12:30:04.721Z</time>
      </trkpt>
      <trkpt lat="67.65882" lon="21.00476">
        <ele>320.042687</ele>
        <time>2020-08-27T12:30:36.705Z</time>
      </trkpt>
      <trkpt lat="67.65799" lon="21.00714">
        <ele>320.251309</ele>
        <time>2020-08-27T12:30:59.021Z</time>
      </trkpt>
      <trkpt lat="67.65768" lon="21.00791">
        <ele>320.439083</ele>
        <time>2020-08-27T12:31:06.999Z</time>
      </trkpt>
      <trkpt lat="67.65737" lon="21.00857">
        <ele>320.614724</ele>
        <time>2020-08-27T12:31:14.663Z</time>
      </trkpt>
      <trkpt lat="67.6564" lon="21.01026">
        <ele>321.490323</ele>
        <time>2020-08-27T12:31:38.257Z</time>
      </trkpt>
      <trkpt lat="67.65434" lon="21.01336">
        <ele>323.741303</ele>
        <time>2020-08-27T12:32:30.018Z</time>
      </trkpt>
      <trkpt lat="67.65375" lon="21.01427">
        <ele>324.242428</ele>
        <time>2020-08-27T12:32:43.412Z</time>
      </trkpt>
      <trkpt lat="67.65234" lon="21.01659">
        <ele>323.079765</ele>
        <time>2020-08-27T12:33:09.696Z</time>
      </trkpt>
      <trkpt lat="67.65204" lon="21.01704">
        <ele>322.855592</ele>
        <time>2020-08-27T12:33:14.715Z</time>
      </trkpt>
      <trkpt lat="67.65119" lon="21.01823">
        <ele>322.245899</ele>
        <time>2020-08-27T12:33:29.770Z</time>
      </trkpt>
      <trkpt lat="67.65077" lon="21.01894">
        <ele>321.927201</ele>
        <time>2020-08-27T12:33:38.397Z</time>
      </trkpt>
      <trkpt lat="67.65041" lon="21.01952">
        <ele>321.994031</ele>
        <time>2020-08-27T12:33:46.582Z</time>
      </trkpt>
      <trkpt lat="67.64996" lon="21.0204">
        <ele>322.190227</ele>
        <time>2020-08-27T12:33:57.318Z</time>
      </trkpt>
      <trkpt lat="67.64952" lon="21.02122">
        <ele>322.381712</ele>
        <time>2020-08-27T12:34:08.049Z</time>
      </trkpt>
      <trkpt lat="67.64921" lon="21.02184">
        <ele>322.498894</ele>
        <time>2020-08-27T12:34:15.735Z</time>
      </trkpt>
      <trkpt lat="67.64833" lon="21.02425">
        <ele>322.062287</ele>
        <time>2020-08-27T12:34:37.609Z</time>
      </trkpt>
      <trkpt lat="67.64737" lon="21.0275">
        <ele>320.97685</ele>
        <time>2020-08-27T12:35:01.920Z</time>
      </trkpt>
      <trkpt lat="67.64681" lon="21.02998">
        <ele>320.31093</ele>
        <time>2020-08-27T12:35:19.264Z</time>
      </trkpt>
      <trkpt lat="67.64636" lon="21.03262">
        <ele>320.187577</ele>
        <time>2020-08-27T12:35:38.333Z</time>
      </trkpt>
      <trkpt lat="67.64528" lon="21.04076">
        <ele>322.895352</ele>
        <time>2020-08-27T12:36:45.198Z</time>
      </trkpt>
      <trkpt lat="67.64473" lon="21.0451">
        <ele>325.990416</ele>
        <time>2020-08-27T12:37:27.419Z</time>
      </trkpt>
      <trkpt lat="67.64434" lon="21.04826">
        <ele>328.796483</ele>
        <time>2020-08-27T12:37:59.583Z</time>
      </trkpt>
      <trkpt lat="67.64407" lon="21.04962">
        <ele>330.173043</ele>
        <time>2020-08-27T12:38:14.385Z</time>
      </trkpt>
      <trkpt lat="67.64357" lon="21.05187">
        <ele>332.428874</ele>
        <time>2020-08-27T12:38:39.270Z</time>
      </trkpt>
      <trkpt lat="67.64291" lon="21.05436">
        <ele>334.909168</ele>
        <time>2020-08-27T12:39:08.384Z</time>
      </trkpt>
      <trkpt lat="67.64264" lon="21.05525">
        <ele>335.722687</ele>
        <time>2020-08-27T12:39:18.541Z</time>
      </trkpt>
      <trkpt lat="67.64263" lon="21.0553">
        <ele>335.749407</ele>
        <time>2020-08-27T12:39:19.275Z</time>
      </trkpt>
      <trkpt lat="67.64165" lon="21.05796">
        <ele>337.500843</ele>
        <time>2020-08-27T12:39:50.111Z</time>
      </trkpt>
      <trkpt lat="67.64078" lon="21.05985">
        <ele>338.164706</ele>
        <time>2020-08-27T12:40:11.912Z</time>
      </trkpt>
      <trkpt lat="67.64029" lon="21.06072">
        <ele>338.403237</ele>
        <time>2020-08-27T12:40:23.110Z</time>
      </trkpt>
      <trkpt lat="67.64008" lon="21.06108">
        <ele>338.503711</ele>
        <time>2020-08-27T12:40:27.830Z</time>
      </trkpt>
      <trkpt lat="67.63937" lon="21.06213">
        <ele>338.685735</ele>
        <time>2020-08-27T12:40:42.915Z</time>
      </trkpt>
      <trkpt lat="67.63851" lon="21.0632">
        <ele>338.881899</ele>
        <time>2020-08-27T12:41:00.537Z</time>
      </trkpt>
      <trkpt lat="67.638" lon="21.06382">
        <ele>338.931581</ele>
        <time>2020-08-27T12:41:10.632Z</time>
      </trkpt>
      <trkpt lat="67.63755" lon="21.06438">
        <ele>338.96206</ele>
        <time>2020-08-27T12:41:19.607Z</time>
      </trkpt>
      <trkpt lat="67.63709" lon="21.06498">
        <ele>338.993569</ele>
        <time>2020-08-27T12:41:28.820Z</time>
      </trkpt>
      <trkpt lat="67.63658" lon="21.06565">
        <ele>339.044335</ele>
        <time>2020-08-27T12:41:39.004Z</time>
      </trkpt>
      <trkpt lat="67.6358" lon="21.06663">
        <ele>339.156144</ele>
        <time>2020-08-27T12:41:54.660Z</time>
      </trkpt>
      <trkpt lat="67.63547" lon="21.06715">
        <ele>339.206561</ele>
        <time>2020-08-27T12:42:01.835Z</time>
      </trkpt>
      <trkpt lat="67.63539" lon="21.06725">
        <ele>339.217469</ele>
        <time>2020-08-27T12:42:03.428Z</time>
      </trkpt>
      <trkpt lat="67.63536" lon="21.0673">
        <ele>339.222327</ele>
        <time>2020-08-27T12:42:04.136Z</time>
      </trkpt>
      <trkpt lat="67.63511" lon="21.06769">
        <ele>339.273179</ele>
        <time>2020-08-27T12:42:09.515Z</time>
      </trkpt>
      <trkpt lat="67.63498" lon="21.06789">
        <ele>339.315154</ele>
        <time>2020-08-27T12:42:12.384Z</time>
      </trkpt>
      <trkpt lat="67.63432" lon="21.06895">
        <ele>339.529643</ele>
        <time>2020-08-27T12:42:26.985Z</time>
      </trkpt>
      <trkpt lat="67.63419" lon="21.06921">
        <ele>339.573982</ele>
        <time>2020-08-27T12:42:30.025Z</time>
      </trkpt>
      <trkpt lat="67.63396" lon="21.06968">
        <ele>339.654654</ele>
        <time>2020-08-27T12:42:35.518Z</time>
      </trkpt>
      <trkpt lat="67.63353" lon="21.07064">
        <ele>339.756338</ele>
        <time>2020-08-27T12:42:46.039Z</time>
      </trkpt>
      <trkpt lat="67.6332" lon="21.07145">
        <ele>339.779299</ele>
        <time>2020-08-27T12:42:54.365Z</time>
      </trkpt>
      <trkpt lat="67.63299" lon="21.07201">
        <ele>339.794689</ele>
        <time>2020-08-27T12:42:59.894Z</time>
      </trkpt>
      <trkpt lat="67.63277" lon="21.07259">
        <ele>339.810319</ele>
        <time>2020-08-27T12:43:05.368Z</time>
      </trkpt>
      <trkpt lat="67.63041" lon="21.07932">
        <ele>339.360959</ele>
        <time>2020-08-27T12:44:05.921Z</time>
      </trkpt>
      <trkpt lat="67.62982" lon="21.08093">
        <ele>339.209037</ele>
        <time>2020-08-27T12:44:20.547Z</time>
      </trkpt>
      <trkpt lat="67.62922" lon="21.08231">
        <ele>339.067231</ele>
        <time>2020-08-27T12:44:34.118Z</time>
      </trkpt>
      <trkpt lat="67.62859" lon="21.08358">
        <ele>338.940396</ele>
        <time>2020-08-27T12:44:47.904Z</time>
      </trkpt>
      <trkpt lat="67.62767" lon="21.08512">
        <ele>339.250059</ele>
        <time>2020-08-27T12:45:07.624Z</time>
      </trkpt>
      <trkpt lat="67.62639" lon="21.0867">
        <ele>340.801626</ele>
        <time>2020-08-27T12:45:36.193Z</time>
      </trkpt>
      <trkpt lat="67.62573" lon="21.08734">
        <ele>342.081697</ele>
        <time>2020-08-27T12:45:52.992Z</time>
      </trkpt>
      <trkpt lat="67.62361" lon="21.08941">
        <ele>349.824277</ele>
        <time>2020-08-27T12:46:59.520Z</time>
      </trkpt>
      <trkpt lat="67.61853" lon="21.09436">
        <ele>375.403269</ele>
        <time>2020-08-27T12:49:59.620Z</time>
      </trkpt>
      <trkpt lat="67.61713" lon="21.09581">
        <ele>382.044527</ele>
        <time>2020-08-27T12:50:48.193Z</time>
      </trkpt>
      <trkpt lat="67.61585" lon="21.09761">
        <ele>387.168893</ele>
        <time>2020-08-27T12:51:31.156Z</time>
      </trkpt>
      <trkpt lat="67.61462" lon="21.0997">
        <ele>391.145318</ele>
        <time>2020-08-27T12:52:09.819Z</time>
      </trkpt>
      <trkpt lat="67.61038" lon="21.10975">
        <ele>402.167375</ele>
        <time>2020-08-27T12:54:26.862Z</time>
      </trkpt>
      <trkpt lat="67.60824" lon="21.11382">
        <ele>405.759139</ele>
        <time>2020-08-27T12:55:24.939Z</time>
      </trkpt>
      <trkpt lat="67.60499" lon="21.11869">
        <ele>409.167275</ele>
        <time>2020-08-27T12:56:42.633Z</time>
      </trkpt>
      <trkpt lat="67.60244" lon="21.1207">
        <ele>410.825827</ele>
        <time>2020-08-27T12:57:34.946Z</time>
      </trkpt>
      <trkpt lat="67.60008" lon="21.12149">
        <ele>412.180272</ele>
        <time>2020-08-27T12:58:22.307Z</time>
      </trkpt>
      <trkpt lat="67.59787" lon="21.1217">
        <ele>412.666409</ele>
        <time>2020-08-27T12:59:02.889Z</time>
      </trkpt>
      <trkpt lat="67.59583" lon="21.12267">
        <ele>413.105782</ele>
        <time>2020-08-27T12:59:40.637Z</time>
      </trkpt>
      <trkpt lat="67.58702" lon="21.12802">
        <ele>416.468426</ele>
        <time>2020-08-27T13:02:33.361Z</time>
      </trkpt>
      <trkpt lat="67.58287" lon="21.13069">
        <ele>418.333151</ele>
        <time>2020-08-27T13:03:56.104Z</time>
      </trkpt>
      <trkpt lat="67.57832" lon="21.13625">
        <ele>418.331145</ele>
        <time>2020-08-27T13:05:25.393Z</time>
      </trkpt>
      <trkpt lat="67.57737" lon="21.13736">
        <ele>418.242469</ele>
        <time>2020-08-27T13:05:43.525Z</time>
      </trkpt>
      <trkpt lat="67.57633" lon="21.1384">
        <ele>418.137484</ele>
        <time>2020-08-27T13:06:02.968Z</time>
      </trkpt>
      <trkpt lat="67.57324" lon="21.14063">
        <ele>418.143555</ele>
        <time>2020-08-27T13:07:00.043Z</time>
      </trkpt>
      <trkpt lat="67.56456" lon="21.14635">
        <ele>418.998886</ele>
        <time>2020-08-27T13:09:42.868Z</time>
      </trkpt>
      <trkpt lat="67.56393" lon="21.14677">
        <ele>419.063923</ele>
        <time>2020-08-27T13:09:54.672Z</time>
      </trkpt>
      <trkpt lat="67.5624" lon="21.14774">
        <ele>419.032057</ele>
        <time>2020-08-27T13:10:22.626Z</time>
      </trkpt>
      <trkpt lat="67.56082" lon="21.14836">
        <ele>418.661981</ele>
        <time>2020-08-27T13:10:50.470Z</time>
      </trkpt>
      <trkpt lat="67.55948" lon="21.14845">
        <ele>417.908806</ele>
        <time>2020-08-27T13:11:12.546Z</time>
      </trkpt>
      <trkpt lat="67.55815" lon="21.14818">
        <ele>416.74736</ele>
        <time>2020-08-27T13:11:33.304Z</time>
      </trkpt>
      <trkpt lat="67.54868" lon="21.14447">
        <ele>405.296169</ele>
        <time>2020-08-27T13:13:57.733Z</time>
      </trkpt>
      <trkpt lat="67.54758" lon="21.14403">
        <ele>404.617649</ele>
        <time>2020-08-27T13:14:16.825Z</time>
      </trkpt>
      <trkpt lat="67.54655" lon="21.14371">
        <ele>404.414965</ele>
        <time>2020-08-27T13:14:35.317Z</time>
      </trkpt>
      <trkpt lat="67.54592" lon="21.14372">
        <ele>404.151143</ele>
        <time>2020-08-27T13:14:45.872Z</time>
      </trkpt>
      <trkpt lat="67.54548" lon="21.14373">
        <ele>403.591176</ele>
        <time>2020-08-27T13:14:52.872Z</time>
      </trkpt>
      <trkpt lat="67.54439" lon="21.14402">
        <ele>402.209641</ele>
        <time>2020-08-27T13:15:09.057Z</time>
      </trkpt>
      <trkpt lat="67.54317" lon="21.14484">
        <ele>399.303037</ele>
        <time>2020-08-27T13:15:26.553Z</time>
      </trkpt>
      <trkpt lat="67.54228" lon="21.14577">
        <ele>396.767994</ele>
        <time>2020-08-27T13:15:39.440Z</time>
      </trkpt>
      <trkpt lat="67.5386" lon="21.15039">
        <ele>384.391304</ele>
        <time>2020-08-27T13:16:32.828Z</time>
      </trkpt>
      <trkpt lat="67.53828" lon="21.15065">
        <ele>383.543682</ele>
        <time>2020-08-27T13:16:37.350Z</time>
      </trkpt>
      <trkpt lat="67.53736" lon="21.1514">
        <ele>381.443489</ele>
        <time>2020-08-27T13:16:50.974Z</time>
      </trkpt>
      <trkpt lat="67.53639" lon="21.1519">
        <ele>380.248101</ele>
        <time>2020-08-27T13:17:06.050Z</time>
      </trkpt>
      <trkpt lat="67.53538" lon="21.15209">
        <ele>379.301472</ele>
        <time>2020-08-27T13:17:22.225Z</time>
      </trkpt>
      <trkpt lat="67.53435" lon="21.15194">
        <ele>378.662865</ele>
        <time>2020-08-27T13:17:38.938Z</time>
      </trkpt>
      <trkpt lat="67.52494" lon="21.14876">
        <ele>374.418753</ele>
        <time>2020-08-27T13:20:16.516Z</time>
      </trkpt>
      <trkpt lat="67.52426" lon="21.1485">
        <ele>374.368335</ele>
        <time>2020-08-27T13:20:28.375Z</time>
      </trkpt>
      <trkpt lat="67.52361" lon="21.14806">
        <ele>374.318718</ele>
        <time>2020-08-27T13:20:40.379Z</time>
      </trkpt>
      <trkpt lat="67.52058" lon="21.14554">
        <ele>375.221089</ele>
        <time>2020-08-27T13:21:40.144Z</time>
      </trkpt>
      <trkpt lat="67.5187" lon="21.14424">
        <ele>376.212069</ele>
        <time>2020-08-27T13:22:18.233Z</time>
      </trkpt>
      <trkpt lat="67.51753" lon="21.14384">
        <ele>376.881735</ele>
        <time>2020-08-27T13:22:41.485Z</time>
      </trkpt>
      <trkpt lat="67.51373" lon="21.143">
        <ele>378.800158</ele>
        <time>2020-08-27T13:23:56.088Z</time>
      </trkpt>
      <trkpt lat="67.51245" lon="21.14271">
        <ele>378.966972</ele>
        <time>2020-08-27T13:24:19.934Z</time>
      </trkpt>
      <trkpt lat="67.51107" lon="21.14219">
        <ele>378.485674</ele>
        <time>2020-08-27T13:24:43.123Z</time>
      </trkpt>
      <trkpt lat="67.50965" lon="21.14145">
        <ele>377.358019</ele>
        <time>2020-08-27T13:25:05.894Z</time>
      </trkpt>
      <trkpt lat="67.50822" lon="21.14042">
        <ele>376.601677</ele>
        <time>2020-08-27T13:25:29.692Z</time>
      </trkpt>
      <trkpt lat="67.50685" lon="21.13919">
        <ele>376.457106</ele>
        <time>2020-08-27T13:25:55.357Z</time>
      </trkpt>
      <trkpt lat="67.50548" lon="21.1377">
        <ele>376.647814</ele>
        <time>2020-08-27T13:26:23.768Z</time>
      </trkpt>
      <trkpt lat="67.50515" lon="21.13731">
        <ele>376.634448</ele>
        <time>2020-08-27T13:26:30.554Z</time>
      </trkpt>
      <trkpt lat="67.49745" lon="21.12806">
        <ele>375.816798</ele>
        <time>2020-08-27T13:28:59.363Z</time>
      </trkpt>
      <trkpt lat="67.49324" lon="21.12311">
        <ele>370.26548</ele>
        <time>2020-08-27T13:30:09.558Z</time>
      </trkpt>
      <trkpt lat="67.49269" lon="21.1226">
        <ele>369.212433</ele>
        <time>2020-08-27T13:30:17.735Z</time>
      </trkpt>
      <trkpt lat="67.49272" lon="21.12221">
        <ele>368.765823</ele>
        <time>2020-08-27T13:30:19.877Z</time>
      </trkpt>
      <trkpt lat="67.49272" lon="21.12187">
        <ele>368.391819</ele>
        <time>2020-08-27T13:30:21.715Z</time>
      </trkpt>
      <trkpt lat="67.49266" lon="21.12163">
        <ele>368.064771</ele>
        <time>2020-08-27T13:30:23.289Z</time>
      </trkpt>
      <trkpt lat="67.4925" lon="21.12147">
        <ele>367.584708</ele>
        <time>2020-08-27T13:30:25.574Z</time>
      </trkpt>
      <trkpt lat="67.49105" lon="21.12035">
        <ele>363.907899</ele>
        <time>2020-08-27T13:30:46.422Z</time>
      </trkpt>
      <trkpt lat="67.49077" lon="21.12005">
        <ele>363.619913</ele>
        <time>2020-08-27T13:30:50.841Z</time>
      </trkpt>
      <trkpt lat="67.49062" lon="21.1199">
        <ele>363.468826</ele>
        <time>2020-08-27T13:30:53.262Z</time>
      </trkpt>
      <trkpt lat="67.49057" lon="21.11984">
        <ele>363.413191</ele>
        <time>2020-08-27T13:30:54.182Z</time>
      </trkpt>
      <trkpt lat="67.49037" lon="21.11959">
        <ele>363.202674</ele>
        <time>2020-08-27T13:30:57.872Z</time>
      </trkpt>
      <trkpt lat="67.48958" lon="21.11865">
        <ele>362.888907</ele>
        <time>2020-08-27T13:31:15.903Z</time>
      </trkpt>
      <trkpt lat="67.48851" lon="21.11737">
        <ele>365.161071</ele>
        <time>2020-08-27T13:31:45.883Z</time>
      </trkpt>
      <trkpt lat="67.48807" lon="21.11683">
        <ele>366.086335</ele>
        <time>2020-08-27T13:31:58.879Z</time>
      </trkpt>
      <trkpt lat="67.48777" lon="21.1165">
        <ele>366.593077</ele>
        <time>2020-08-27T13:32:07.242Z</time>
      </trkpt>
      <trkpt lat="67.48728" lon="21.11619">
        <ele>367.392677</ele>
        <time>2020-08-27T13:32:19.359Z</time>
      </trkpt>
      <trkpt lat="67.48692" lon="21.11602">
        <ele>367.970562</ele>
        <time>2020-08-27T13:32:27.377Z</time>
      </trkpt>
      <trkpt lat="67.48644" lon="21.11595">
        <ele>368.719992</ele>
        <time>2020-08-27T13:32:37.716Z</time>
      </trkpt>
      <trkpt lat="67.48554" lon="21.11614">
        <ele>370.2499</ele>
        <time>2020-08-27T13:32:58.768Z</time>
      </trkpt>
      <trkpt lat="67.48511" lon="21.11644">
        <ele>371.012303</ele>
        <time>2020-08-27T13:33:09.788Z</time>
      </trkpt>
      <trkpt lat="67.48472" lon="21.11677">
        <ele>371.709853</ele>
        <time>2020-08-27T13:33:20.065Z</time>
      </trkpt>
      <trkpt lat="67.48428" lon="21.11735">
        <ele>372.578345</ele>
        <time>2020-08-27T13:33:32.549Z</time>
      </trkpt>
      <trkpt lat="67.48342" lon="21.11887">
        <ele>374.430088</ele>
        <time>2020-08-27T13:33:58.968Z</time>
      </trkpt>
      <trkpt lat="67.48249" lon="21.12136">
        <ele>375.110352</ele>
        <time>2020-08-27T13:34:27.188Z</time>
      </trkpt>
      <trkpt lat="67.48173" lon="21.1231">
        <ele>374.837791</ele>
        <time>2020-08-27T13:34:43.945Z</time>
      </trkpt>
      <trkpt lat="67.48085" lon="21.12447">
        <ele>373.210277</ele>
        <time>2020-08-27T13:34:59.208Z</time>
      </trkpt>
      <trkpt lat="67.48003" lon="21.12524">
        <ele>372.129127</ele>
        <time>2020-08-27T13:35:12.413Z</time>
      </trkpt>
      <trkpt lat="67.47968" lon="21.1254">
        <ele>371.996968</ele>
        <time>2020-08-27T13:35:18.081Z</time>
      </trkpt>
      <trkpt lat="67.47961" lon="21.12569">
        <ele>371.947646</ele>
        <time>2020-08-27T13:35:20.330Z</time>
      </trkpt>
      <trkpt lat="67.47964" lon="21.1261">
        <ele>371.889137</ele>
        <time>2020-08-27T13:35:22.940Z</time>
      </trkpt>
      <trkpt lat="67.47901" lon="21.12663">
        <ele>371.641759</ele>
        <time>2020-08-27T13:35:34.807Z</time>
      </trkpt>
      <trkpt lat="67.47847" lon="21.12708">
        <ele>372.066762</ele>
        <time>2020-08-27T13:35:46.389Z</time>
      </trkpt>
      <trkpt lat="67.47658" lon="21.12822">
        <ele>375.384111</ele>
        <time>2020-08-27T13:36:32.804Z</time>
      </trkpt>
      <trkpt lat="67.47585" lon="21.12851">
        <ele>376.901126</ele>
        <time>2020-08-27T13:36:51.418Z</time>
      </trkpt>
      <trkpt lat="67.47491" lon="21.12867">
        <ele>378.642849</ele>
        <time>2020-08-27T13:37:14.143Z</time>
      </trkpt>
      <trkpt lat="67.47469" lon="21.12868">
        <ele>378.971236</ele>
        <time>2020-08-27T13:37:19.302Z</time>
      </trkpt>
      <trkpt lat="67.47448" lon="21.12867">
        <ele>379.290595</ele>
        <time>2020-08-27T13:37:24.098Z</time>
      </trkpt>
      <trkpt lat="67.47318" lon="21.12833">
        <ele>381.139715</ele>
        <time>2020-08-27T13:37:52.699Z</time>
      </trkpt>
      <trkpt lat="67.47239" lon="21.12783">
        <ele>382.035352</ele>
        <time>2020-08-27T13:38:09.475Z</time>
      </trkpt>
      <trkpt lat="67.46996" lon="21.12544">
        <ele>385.074544</ele>
        <time>2020-08-27T13:39:05.628Z</time>
      </trkpt>
      <trkpt lat="67.46886" lon="21.12476">
        <ele>386.669434</ele>
        <time>2020-08-27T13:39:30.885Z</time>
      </trkpt>
      <trkpt lat="67.46724" lon="21.12435">
        <ele>389.021581</ele>
        <time>2020-08-27T13:40:07.780Z</time>
      </trkpt>
      <trkpt lat="67.46662" lon="21.1243">
        <ele>389.931041</ele>
        <time>2020-08-27T13:40:21.777Z</time>
      </trkpt>
      <trkpt lat="67.4656" lon="21.12446">
        <ele>391.34058</ele>
        <time>2020-08-27T13:40:44.733Z</time>
      </trkpt>
      <trkpt lat="67.46423" lon="21.12477">
        <ele>393.091425</ele>
        <time>2020-08-27T13:41:14.926Z</time>
      </trkpt>
      <trkpt lat="67.46417" lon="21.12478">
        <ele>393.158668</ele>
        <time>2020-08-27T13:41:16.313Z</time>
      </trkpt>
      <trkpt lat="67.46225" lon="21.1252">
        <ele>395.197702</ele>
        <time>2020-08-27T13:41:56.665Z</time>
      </trkpt>
      <trkpt lat="67.46115" lon="21.12515">
        <ele>396.28401</ele>
        <time>2020-08-27T13:42:19.766Z</time>
      </trkpt>
      <trkpt lat="67.46013" lon="21.12472">
        <ele>397.76494</ele>
        <time>2020-08-27T13:42:42.130Z</time>
      </trkpt>
      <trkpt lat="67.45774" lon="21.12319">
        <ele>402.075486</ele>
        <time>2020-08-27T13:43:40.209Z</time>
      </trkpt>
      <trkpt lat="67.45723" lon="21.12299">
        <ele>403.157269</ele>
        <time>2020-08-27T13:43:53.424Z</time>
      </trkpt>
      <trkpt lat="67.45711" lon="21.12295">
        <ele>403.420466</ele>
        <time>2020-08-27T13:43:56.597Z</time>
      </trkpt>
      <trkpt lat="67.45694" lon="21.12289">
        <ele>403.788853</ele>
        <time>2020-08-27T13:44:01.184Z</time>
      </trkpt>
      <trkpt lat="67.45482" lon="21.12251">
        <ele>407.344617</ele>
        <time>2020-08-27T13:44:52.990Z</time>
      </trkpt>
      <trkpt lat="67.45175" lon="21.12199">
        <ele>407.854413</ele>
        <time>2020-08-27T13:45:47.387Z</time>
      </trkpt>
      <trkpt lat="67.4501" lon="21.1217">
        <ele>407.067501</ele>
        <time>2020-08-27T13:46:13.789Z</time>
      </trkpt>
      <trkpt lat="67.44831" lon="21.1214">
        <ele>406.700338</ele>
        <time>2020-08-27T13:46:44.501Z</time>
      </trkpt>
      <trkpt lat="67.4474" lon="21.12104">
        <ele>407.07622</ele>
        <time>2020-08-27T13:47:02.131Z</time>
      </trkpt>
      <trkpt lat="67.4462" lon="21.12012">
        <ele>407.74301</ele>
        <time>2020-08-27T13:47:27.395Z</time>
      </trkpt>
      <trkpt lat="67.44364" lon="21.11751">
        <ele>409.237509</ele>
        <time>2020-08-27T13:48:21.628Z</time>
      </trkpt>
      <trkpt lat="67.4426" lon="21.1168">
        <ele>409.084042</ele>
        <time>2020-08-27T13:48:40.957Z</time>
      </trkpt>
      <trkpt lat="67.44209" lon="21.11658">
        <ele>408.958134</ele>
        <time>2020-08-27T13:48:49.509Z</time>
      </trkpt>
      <trkpt lat="67.44174" lon="21.11649">
        <ele>408.873139</ele>
        <time>2020-08-27T13:48:55.129Z</time>
      </trkpt>
      <trkpt lat="67.44131" lon="21.11641">
        <ele>408.197913</ele>
        <time>2020-08-27T13:49:01.920Z</time>
      </trkpt>
      <trkpt lat="67.4411" lon="21.11639">
        <ele>407.845735</ele>
        <time>2020-08-27T13:49:05.359Z</time>
      </trkpt>
      <trkpt lat="67.44084" lon="21.11636">
        <ele>407.442086</ele>
        <time>2020-08-27T13:49:09.098Z</time>
      </trkpt>
      <trkpt lat="67.43957" lon="21.11639">
        <ele>404.967865</ele>
        <time>2020-08-27T13:49:26.830Z</time>
      </trkpt>
      <trkpt lat="67.43934" lon="21.11645">
        <ele>404.321266</ele>
        <time>2020-08-27T13:49:29.921Z</time>
      </trkpt>
      <trkpt lat="67.43933" lon="21.11635">
        <ele>404.212452</ele>
        <time>2020-08-27T13:49:30.477Z</time>
      </trkpt>
      <trkpt lat="67.43931" lon="21.11613">
        <ele>403.972748</ele>
        <time>2020-08-27T13:49:31.753Z</time>
      </trkpt>
      <trkpt lat="67.43923" lon="21.11617">
        <ele>403.765104</ele>
        <time>2020-08-27T13:49:32.697Z</time>
      </trkpt>
      <trkpt lat="67.43824" lon="21.11647">
        <ele>401.010206</ele>
        <time>2020-08-27T13:49:45.913Z</time>
      </trkpt>
      <trkpt lat="67.43714" lon="21.11737">
        <ele>398.15859</ele>
        <time>2020-08-27T13:50:01.324Z</time>
      </trkpt>
      <trkpt lat="67.43644" lon="21.11809">
        <ele>396.430983</ele>
        <time>2020-08-27T13:50:11.905Z</time>
      </trkpt>
      <trkpt lat="67.43525" lon="21.11982">
        <ele>394.789784</ele>
        <time>2020-08-27T13:50:32.630Z</time>
      </trkpt>
      <trkpt lat="67.43464" lon="21.12089">
        <ele>394.231191</ele>
        <time>2020-08-27T13:50:44.571Z</time>
      </trkpt>
      <trkpt lat="67.43393" lon="21.12243">
        <ele>393.843151</ele>
        <time>2020-08-27T13:51:00.150Z</time>
      </trkpt>
      <trkpt lat="67.4338" lon="21.12258">
        <ele>393.782114</ele>
        <time>2020-08-27T13:51:02.645Z</time>
      </trkpt>
      <trkpt lat="67.43328" lon="21.12258">
        <ele>393.561452</ele>
        <time>2020-08-27T13:51:11.519Z</time>
      </trkpt>
      <trkpt lat="67.43301" lon="21.12304">
        <ele>393.425982</ele>
        <time>2020-08-27T13:51:16.912Z</time>
      </trkpt>
      <trkpt lat="67.4328" lon="21.12352">
        <ele>393.305309</ele>
        <time>2020-08-27T13:51:21.718Z</time>
      </trkpt>
      <trkpt lat="67.43239" lon="21.12517">
        <ele>392.982609</ele>
        <time>2020-08-27T13:51:34.299Z</time>
      </trkpt>
      <trkpt lat="67.43215" lon="21.12582">
        <ele>392.774365</ele>
        <time>2020-08-27T13:51:39.884Z</time>
      </trkpt>
      <trkpt lat="67.43185" lon="21.12636">
        <ele>392.392014</ele>
        <time>2020-08-27T13:51:45.734Z</time>
      </trkpt>
      <trkpt lat="67.42741" lon="21.13205">
        <ele>387.221169</ele>
        <time>2020-08-27T13:53:01.441Z</time>
      </trkpt>
      <trkpt lat="67.42607" lon="21.13398">
        <ele>386.206132</ele>
        <time>2020-08-27T13:53:26.345Z</time>
      </trkpt>
      <trkpt lat="67.42342" lon="21.13703">
        <ele>384.15578</ele>
        <time>2020-08-27T13:54:13.295Z</time>
      </trkpt>
      <trkpt lat="67.42241" lon="21.13727">
        <ele>383.230353</ele>
        <time>2020-08-27T13:54:28.868Z</time>
      </trkpt>
      <trkpt lat="67.4218" lon="21.1372">
        <ele>382.682368</ele>
        <time>2020-08-27T13:54:38.141Z</time>
      </trkpt>
      <trkpt lat="67.41989" lon="21.13532">
        <ele>381.327847</ele>
        <time>2020-08-27T13:55:10.690Z</time>
      </trkpt>
      <trkpt lat="67.41946" lon="21.13453">
        <ele>381.12913</ele>
        <time>2020-08-27T13:55:19.887Z</time>
      </trkpt>
      <trkpt lat="67.41891" lon="21.13295">
        <ele>381.222731</ele>
        <time>2020-08-27T13:55:34.979Z</time>
      </trkpt>
      <trkpt lat="67.41834" lon="21.13042">
        <ele>381.7745</ele>
        <time>2020-08-27T13:55:57.245Z</time>
      </trkpt>
      <trkpt lat="67.41828" lon="21.12984">
        <ele>381.904705</ele>
        <time>2020-08-27T13:56:01.741Z</time>
      </trkpt>
      <trkpt lat="67.41825" lon="21.1295">
        <ele>382.064674</ele>
        <time>2020-08-27T13:56:04.455Z</time>
      </trkpt>
      <trkpt lat="67.41809" lon="21.12752">
        <ele>383.00428</ele>
        <time>2020-08-27T13:56:20.684Z</time>
      </trkpt>
      <trkpt lat="67.41816" lon="21.12651">
        <ele>383.48416</ele>
        <time>2020-08-27T13:56:29.571Z</time>
      </trkpt>
      <trkpt lat="67.41815" lon="21.12613">
        <ele>383.66347</ele>
        <time>2020-08-27T13:56:33.050Z</time>
      </trkpt>
      <trkpt lat="67.41804" lon="21.12477">
        <ele>384.491402</ele>
        <time>2020-08-27T13:56:45.245Z</time>
      </trkpt>
      <trkpt lat="67.41798" lon="21.12427">
        <ele>384.906523</ele>
        <time>2020-08-27T13:56:50.163Z</time>
      </trkpt>
      <trkpt lat="67.4178" lon="21.12363">
        <ele>385.541683</ele>
        <time>2020-08-27T13:56:57.542Z</time>
      </trkpt>
      <trkpt lat="67.41753" lon="21.12127">
        <ele>387.49764</ele>
        <time>2020-08-27T13:57:21.171Z</time>
      </trkpt>
      <trkpt lat="67.41738" lon="21.12047">
        <ele>388.081727</ele>
        <time>2020-08-27T13:57:29.835Z</time>
      </trkpt>
      <trkpt lat="67.4171" lon="21.11929">
        <ele>388.885482</ele>
        <time>2020-08-27T13:57:42.997Z</time>
      </trkpt>
      <trkpt lat="67.41653" lon="21.11741">
        <ele>390.270902</ele>
        <time>2020-08-27T13:58:02.990Z</time>
      </trkpt>
      <trkpt lat="67.41628" lon="21.11668">
        <ele>390.425834</ele>
        <time>2020-08-27T13:58:10.582Z</time>
      </trkpt>
      <trkpt lat="67.41612" lon="21.11597">
        <ele>390.359194</ele>
        <time>2020-08-27T13:58:16.531Z</time>
      </trkpt>
      <trkpt lat="67.41603" lon="21.1155">
        <ele>390.317073</ele>
        <time>2020-08-27T13:58:20.135Z</time>
      </trkpt>
      <trkpt lat="67.41601" lon="21.11535">
        <ele>390.303815</ele>
        <time>2020-08-27T13:58:21.215Z</time>
      </trkpt>
      <trkpt lat="67.41588" lon="21.11504">
        <ele>390.266999</ele>
        <time>2020-08-27T13:58:24.108Z</time>
      </trkpt>
      <trkpt lat="67.41581" lon="21.11499">
        <ele>390.249786</ele>
        <time>2020-08-27T13:58:25.530Z</time>
      </trkpt>
      <trkpt lat="67.41572" lon="21.11508">
        <ele>390.230177</ele>
        <time>2020-08-27T13:58:27.005Z</time>
      </trkpt>
      <trkpt lat="67.41562" lon="21.11528">
        <ele>390.204457</ele>
        <time>2020-08-27T13:58:29.020Z</time>
      </trkpt>
      <trkpt lat="67.41554" lon="21.11557">
        <ele>390.174534</ele>
        <time>2020-08-27T13:58:31.285Z</time>
      </trkpt>
      <trkpt lat="67.41547" lon="21.1157">
        <ele>390.156932</ele>
        <time>2020-08-27T13:58:32.568Z</time>
      </trkpt>
      <trkpt lat="67.41532" lon="21.1158">
        <ele>390.122809</ele>
        <time>2020-08-27T13:58:35.082Z</time>
      </trkpt>
      <trkpt lat="67.41517" lon="21.11558">
        <ele>390.04173</ele>
        <time>2020-08-27T13:58:37.685Z</time>
      </trkpt>
      <trkpt lat="67.41503" lon="21.11525">
        <ele>389.810492</ele>
        <time>2020-08-27T13:58:40.493Z</time>
      </trkpt>
      <trkpt lat="67.41521" lon="21.11461">
        <ele>389.430165</ele>
        <time>2020-08-27T13:58:45.413Z</time>
      </trkpt>
      <trkpt lat="67.41516" lon="21.11451">
        <ele>389.349943</ele>
        <time>2020-08-27T13:58:46.333Z</time>
      </trkpt>
      <trkpt lat="67.4145" lon="21.1134">
        <ele>388.381331</ele>
        <time>2020-08-27T13:58:58.283Z</time>
      </trkpt>
      <trkpt lat="67.41418" lon="21.11301">
        <ele>387.945597</ele>
        <time>2020-08-27T13:59:03.555Z</time>
      </trkpt>
      <trkpt lat="67.41393" lon="21.11275">
        <ele>387.634266</ele>
        <time>2020-08-27T13:59:07.455Z</time>
      </trkpt>
      <trkpt lat="67.41393" lon="21.11273">
        <ele>387.621099</ele>
        <time>2020-08-27T13:59:07.618Z</time>
      </trkpt>
      <trkpt lat="67.41341" lon="21.11215">
        <ele>386.953929</ele>
        <time>2020-08-27T13:59:16.371Z</time>
      </trkpt>
      <trkpt lat="67.4131" lon="21.11181">
        <ele>386.554533</ele>
        <time>2020-08-27T13:59:21.527Z</time>
      </trkpt>
      <trkpt lat="67.41273" lon="21.1114">
        <ele>386.078006</ele>
        <time>2020-08-27T13:59:27.528Z</time>
      </trkpt>
      <trkpt lat="67.412" lon="21.11052">
        <ele>385.088942</ele>
        <time>2020-08-27T13:59:39.695Z</time>
      </trkpt>
      <trkpt lat="67.41192" lon="21.11043">
        <ele>384.974468</ele>
        <time>2020-08-27T13:59:41.028Z</time>
      </trkpt>
      <trkpt lat="67.41187" lon="21.11037">
        <ele>384.901498</ele>
        <time>2020-08-27T13:59:41.930Z</time>
      </trkpt>
      <trkpt lat="67.41161" lon="21.10995">
        <ele>384.523907</ele>
        <time>2020-08-27T13:59:46.368Z</time>
      </trkpt>
      <trkpt lat="67.41063" lon="21.10798">
        <ele>383.367174</ele>
        <time>2020-08-27T14:00:05.142Z</time>
      </trkpt>
      <trkpt lat="67.41042" lon="21.10757">
        <ele>383.293813</ele>
        <time>2020-08-27T14:00:09.262Z</time>
      </trkpt>
      <trkpt lat="67.41017" lon="21.10713">
        <ele>383.210116</ele>
        <time>2020-08-27T14:00:14.384Z</time>
      </trkpt>
      <trkpt lat="67.40999" lon="21.10684">
        <ele>383.149239</ele>
        <time>2020-08-27T14:00:18.238Z</time>
      </trkpt>
      <trkpt lat="67.40978" lon="21.10656">
        <ele>383.08339</ele>
        <time>2020-08-27T14:00:22.400Z</time>
      </trkpt>
      <trkpt lat="67.40962" lon="21.10633">
        <ele>383.031299</ele>
        <time>2020-08-27T14:00:25.975Z</time>
      </trkpt>
      <trkpt lat="67.40945" lon="21.10612">
        <ele>382.979196</ele>
        <time>2020-08-27T14:00:29.407Z</time>
      </trkpt>
      <trkpt lat="67.40929" lon="21.10593">
        <ele>383.192016</ele>
        <time>2020-08-27T14:00:33.008Z</time>
      </trkpt>
      <trkpt lat="67.40849" lon="21.10513">
        <ele>384.228726</ele>
        <time>2020-08-27T14:00:51.542Z</time>
      </trkpt>
      <trkpt lat="67.40735" lon="21.10456">
        <ele>385.679363</ele>
        <time>2020-08-27T14:01:18.211Z</time>
      </trkpt>
      <trkpt lat="67.40714" lon="21.10449">
        <ele>385.974594</ele>
        <time>2020-08-27T14:01:23.199Z</time>
      </trkpt>
      <trkpt lat="67.407" lon="21.10448">
        <ele>386.155759</ele>
        <time>2020-08-27T14:01:26.152Z</time>
      </trkpt>
      <trkpt lat="67.40593" lon="21.10463">
        <ele>387.588901</ele>
        <time>2020-08-27T14:01:49.605Z</time>
      </trkpt>
      <trkpt lat="67.40513" lon="21.10507">
        <ele>388.165975</ele>
        <time>2020-08-27T14:02:06.448Z</time>
      </trkpt>
      <trkpt lat="67.40416" lon="21.10601">
        <ele>388.849679</ele>
        <time>2020-08-27T14:02:26.572Z</time>
      </trkpt>
      <trkpt lat="67.40305" lon="21.10754">
        <ele>389.148468</ele>
        <time>2020-08-27T14:02:50.203Z</time>
      </trkpt>
      <trkpt lat="67.40272" lon="21.10803">
        <ele>389.239414</ele>
        <time>2020-08-27T14:02:57.130Z</time>
      </trkpt>
      <trkpt lat="67.40256" lon="21.10826">
        <ele>389.249141</ele>
        <time>2020-08-27T14:03:00.238Z</time>
      </trkpt>
      <trkpt lat="67.4019" lon="21.1091">
        <ele>389.170927</ele>
        <time>2020-08-27T14:03:13.285Z</time>
      </trkpt>
      <trkpt lat="67.4006" lon="21.11025">
        <ele>389.053545</ele>
        <time>2020-08-27T14:03:37.040Z</time>
      </trkpt>
      <trkpt lat="67.39956" lon="21.11079">
        <ele>389.012683</ele>
        <time>2020-08-27T14:03:55.903Z</time>
      </trkpt>
      <trkpt lat="67.39858" lon="21.11096">
        <ele>389.000828</ele>
        <time>2020-08-27T14:04:13.427Z</time>
      </trkpt>
      <trkpt lat="67.39752" lon="21.11088">
        <ele>389.002159</ele>
        <time>2020-08-27T14:04:32.413Z</time>
      </trkpt>
      <trkpt lat="67.39678" lon="21.11061">
        <ele>389.016115</ele>
        <time>2020-08-27T14:04:45.825Z</time>
      </trkpt>
      <trkpt lat="67.39607" lon="21.1102">
        <ele>389.03153</ele>
        <time>2020-08-27T14:04:58.857Z</time>
      </trkpt>
      <trkpt lat="67.39531" lon="21.1096">
        <ele>389.051679</ele>
        <time>2020-08-27T14:05:13.062Z</time>
      </trkpt>
      <trkpt lat="67.39434" lon="21.10851">
        <ele>389.082861</ele>
        <time>2020-08-27T14:05:31.769Z</time>
      </trkpt>
      <trkpt lat="67.39365" lon="21.1075">
        <ele>389.333878</ele>
        <time>2020-08-27T14:05:46.166Z</time>
      </trkpt>
      <trkpt lat="67.39032" lon="21.10198">
        <ele>392.574714</ele>
        <time>2020-08-27T14:07:05.963Z</time>
      </trkpt>
      <trkpt lat="67.38845" lon="21.09907">
        <ele>396.084161</ele>
        <time>2020-08-27T14:07:58.946Z</time>
      </trkpt>
      <trkpt lat="67.38702" lon="21.09593">
        <ele>398.45344</ele>
        <time>2020-08-27T14:08:40.172Z</time>
      </trkpt>
      <trkpt lat="67.38621" lon="21.09315">
        <ele>399.129217</ele>
        <time>2020-08-27T14:09:05.940Z</time>
      </trkpt>
      <trkpt lat="67.38472" lon="21.08612">
        <ele>398.626326</ele>
        <time>2020-08-27T14:09:59.773Z</time>
      </trkpt>
      <trkpt lat="67.38399" lon="21.08334">
        <ele>397.195208</ele>
        <time>2020-08-27T14:10:19.449Z</time>
      </trkpt>
      <trkpt lat="67.38306" lon="21.0811">
        <ele>394.949118</ele>
        <time>2020-08-27T14:10:37.459Z</time>
      </trkpt>
      <trkpt lat="67.38207" lon="21.07939">
        <ele>392.783125</ele>
        <time>2020-08-27T14:10:54.130Z</time>
      </trkpt>
      <trkpt lat="67.3809" lon="21.07802">
        <ele>390.660752</ele>
        <time>2020-08-27T14:11:12.953Z</time>
      </trkpt>
      <trkpt lat="67.38029" lon="21.07753">
        <ele>390.134897</ele>
        <time>2020-08-27T14:11:22.706Z</time>
      </trkpt>
      <trkpt lat="67.37964" lon="21.07723">
        <ele>389.672607</ele>
        <time>2020-08-27T14:11:33.370Z</time>
      </trkpt>
      <trkpt lat="67.3785" lon="21.07714">
        <ele>389.182559</ele>
        <time>2020-08-27T14:11:52.780Z</time>
      </trkpt>
      <trkpt lat="67.37758" lon="21.07723">
        <ele>389.055264</ele>
        <time>2020-08-27T14:12:09.101Z</time>
      </trkpt>
      <trkpt lat="67.37609" lon="21.07836">
        <ele>389.079228</ele>
        <time>2020-08-27T14:12:36.777Z</time>
      </trkpt>
      <trkpt lat="67.37542" lon="21.07915">
        <ele>389.154327</ele>
        <time>2020-08-27T14:12:50.132Z</time>
      </trkpt>
      <trkpt lat="67.37467" lon="21.08053">
        <ele>389.408133</ele>
        <time>2020-08-27T14:13:07.443Z</time>
      </trkpt>
      <trkpt lat="67.37446" lon="21.08092">
        <ele>389.479692</ele>
        <time>2020-08-27T14:13:12.378Z</time>
      </trkpt>
      <trkpt lat="67.3742" lon="21.08139">
        <ele>389.566083</ele>
        <time>2020-08-27T14:13:18.370Z</time>
      </trkpt>
      <trkpt lat="67.37305" lon="21.08402">
        <ele>389.741471</ele>
        <time>2020-08-27T14:13:46.858Z</time>
      </trkpt>
      <trkpt lat="67.37221" lon="21.08533">
        <ele>389.650511</ele>
        <time>2020-08-27T14:14:03.595Z</time>
      </trkpt>
      <trkpt lat="67.37182" lon="21.08594">
        <ele>389.543874</ele>
        <time>2020-08-27T14:14:11.361Z</time>
      </trkpt>
      <trkpt lat="67.3715" lon="21.08633">
        <ele>389.46197</ele>
        <time>2020-08-27T14:14:17.317Z</time>
      </trkpt>
      <trkpt lat="67.3699" lon="21.08826">
        <ele>389.289058</ele>
        <time>2020-08-27T14:14:48.111Z</time>
      </trkpt>
      <trkpt lat="67.3691" lon="21.08967">
        <ele>389.36039</ele>
        <time>2020-08-27T14:15:05.760Z</time>
      </trkpt>
      <trkpt lat="67.36789" lon="21.0917">
        <ele>389.687246</ele>
        <time>2020-08-27T14:15:32.362Z</time>
      </trkpt>
      <trkpt lat="67.36766" lon="21.09209">
        <ele>389.837497</ele>
        <time>2020-08-27T14:15:37.459Z</time>
      </trkpt>
      <trkpt lat="67.36683" lon="21.09304">
        <ele>390.338228</ele>
        <time>2020-08-27T14:15:55.265Z</time>
      </trkpt>
      <trkpt lat="67.3663" lon="21.09354">
        <ele>390.697619</ele>
        <time>2020-08-27T14:16:06.824Z</time>
      </trkpt>
      <trkpt lat="67.36601" lon="21.09381">
        <ele>391.015867</ele>
        <time>2020-08-27T14:16:13.220Z</time>
      </trkpt>
      <trkpt lat="67.36506" lon="21.09443">
        <ele>392.030414</ele>
        <time>2020-08-27T14:16:34.158Z</time>
      </trkpt>
      <trkpt lat="67.3638" lon="21.09483">
        <ele>393.230193</ele>
        <time>2020-08-27T14:17:01.064Z</time>
      </trkpt>
      <trkpt lat="67.3591" lon="21.09555">
        <ele>397.708777</ele>
        <time>2020-08-27T14:18:38.066Z</time>
      </trkpt>
      <trkpt lat="67.35808" lon="21.09613">
        <ele>399.705571</ele>
        <time>2020-08-27T14:19:02.694Z</time>
      </trkpt>
      <trkpt lat="67.35504" lon="21.0975">
        <ele>407.553807</ele>
        <time>2020-08-27T14:20:24.455Z</time>
      </trkpt>
      <trkpt lat="67.35385" lon="21.09764">
        <ele>410.752624</ele>
        <time>2020-08-27T14:20:55.689Z</time>
      </trkpt>
      <trkpt lat="67.35265" lon="21.09742">
        <ele>414.289623</ele>
        <time>2020-08-27T14:21:27.693Z</time>
      </trkpt>
      <trkpt lat="67.35135" lon="21.0966">
        <ele>419.078207</ele>
        <time>2020-08-27T14:22:06.300Z</time>
      </trkpt>
      <trkpt lat="67.34951" lon="21.09513">
        <ele>427.257292</ele>
        <time>2020-08-27T14:23:08.190Z</time>
      </trkpt>
      <trkpt lat="67.34844" lon="21.0946">
        <ele>432.003872</ele>
        <time>2020-08-27T14:23:43.867Z</time>
      </trkpt>
      <trkpt lat="67.34735" lon="21.09432">
        <ele>436.179957</ele>
        <time>2020-08-27T14:24:17.707Z</time>
      </trkpt>
      <trkpt lat="67.34659" lon="21.09422">
        <ele>438.400888</ele>
        <time>2020-08-27T14:24:38.507Z</time>
      </trkpt>
      <trkpt lat="67.34582" lon="21.09426">
        <ele>439.624452</ele>
        <time>2020-08-27T14:24:56.908Z</time>
      </trkpt>
      <trkpt lat="67.34437" lon="21.09478">
        <ele>440.744424</ele>
        <time>2020-08-27T14:25:25.186Z</time>
      </trkpt>
      <trkpt lat="67.34345" lon="21.09497">
        <ele>440.70294</ele>
        <time>2020-08-27T14:25:40.602Z</time>
      </trkpt>
      <trkpt lat="67.3425" lon="21.09488">
        <ele>440.40779</ele>
        <time>2020-08-27T14:25:56.343Z</time>
      </trkpt>
      <trkpt lat="67.3422" lon="21.09473">
        <ele>440.296529</ele>
        <time>2020-08-27T14:26:01.590Z</time>
      </trkpt>
      <trkpt lat="67.34171" lon="21.0945">
        <ele>440.122705</ele>
        <time>2020-08-27T14:26:09.929Z</time>
      </trkpt>
      <trkpt lat="67.34091" lon="21.09393">
        <ele>440.064657</ele>
        <time>2020-08-27T14:26:24.277Z</time>
      </trkpt>
      <trkpt lat="67.33978" lon="21.09259">
        <ele>440.145517</ele>
        <time>2020-08-27T14:26:46.956Z</time>
      </trkpt>
      <trkpt lat="67.33916" lon="21.09157">
        <ele>440.665211</ele>
        <time>2020-08-27T14:27:01.189Z</time>
      </trkpt>
      <trkpt lat="67.33852" lon="21.09034">
        <ele>441.227541</ele>
        <time>2020-08-27T14:27:17.502Z</time>
      </trkpt>
      <trkpt lat="67.33726" lon="21.08681">
        <ele>443.296493</ele>
        <time>2020-08-27T14:27:57.883Z</time>
      </trkpt>
      <trkpt lat="67.33606" lon="21.08391">
        <ele>445.247967</ele>
        <time>2020-08-27T14:28:32.916Z</time>
      </trkpt>
      <trkpt lat="67.3348" lon="21.08168">
        <ele>447.397079</ele>
        <time>2020-08-27T14:29:06.757Z</time>
      </trkpt>
      <trkpt lat="67.33396" lon="21.08071">
        <ele>448.931684</ele>
        <time>2020-08-27T14:29:28.417Z</time>
      </trkpt>
      <trkpt lat="67.33314" lon="21.07995">
        <ele>450.670846</ele>
        <time>2020-08-27T14:29:49.626Z</time>
      </trkpt>
      <trkpt lat="67.33063" lon="21.0787">
        <ele>455.822593</ele>
        <time>2020-08-27T14:30:52.374Z</time>
      </trkpt>
      <trkpt lat="67.33046" lon="21.07865">
        <ele>456.077463</ele>
        <time>2020-08-27T14:30:56.508Z</time>
      </trkpt>
      <trkpt lat="67.32965" lon="21.07842">
        <ele>457.330128</ele>
        <time>2020-08-27T14:31:15.360Z</time>
      </trkpt>
      <trkpt lat="67.3293" lon="21.07847">
        <ele>457.864944</ele>
        <time>2020-08-27T14:31:23.061Z</time>
      </trkpt>
      <trkpt lat="67.32868" lon="21.07855">
        <ele>458.515959</ele>
        <time>2020-08-27T14:31:35.894Z</time>
      </trkpt>
      <trkpt lat="67.32757" lon="21.07904">
        <ele>459.316617</ele>
        <time>2020-08-27T14:31:57.977Z</time>
      </trkpt>
      <trkpt lat="67.32662" lon="21.07988">
        <ele>460.244566</ele>
        <time>2020-08-27T14:32:18.124Z</time>
      </trkpt>
      <trkpt lat="67.32506" lon="21.08167">
        <ele>462.284181</ele>
        <time>2020-08-27T14:32:55.558Z</time>
      </trkpt>
      <trkpt lat="67.32453" lon="21.08217">
        <ele>463.133259</ele>
        <time>2020-08-27T14:33:08.489Z</time>
      </trkpt>
      <trkpt lat="67.32366" lon="21.08263">
        <ele>464.483527</ele>
        <time>2020-08-27T14:33:29.143Z</time>
      </trkpt>
      <trkpt lat="67.32278" lon="21.08294">
        <ele>465.815115</ele>
        <time>2020-08-27T14:33:49.329Z</time>
      </trkpt>
      <trkpt lat="67.32157" lon="21.08279">
        <ele>467.480069</ele>
        <time>2020-08-27T14:34:16.355Z</time>
      </trkpt>
      <trkpt lat="67.31591" lon="21.0812">
        <ele>474.126766</ele>
        <time>2020-08-27T14:36:18.907Z</time>
      </trkpt>
      <trkpt lat="67.31311" lon="21.08115">
        <ele>476.946871</ele>
        <time>2020-08-27T14:37:18.017Z</time>
      </trkpt>
      <trkpt lat="67.31109" lon="21.08164">
        <ele>478.375856</ele>
        <time>2020-08-27T14:37:59.318Z</time>
      </trkpt>
      <trkpt lat="67.30566" lon="21.08426">
        <ele>479.395364</ele>
        <time>2020-08-27T14:39:40.741Z</time>
      </trkpt>
      <trkpt lat="67.3032" lon="21.08461">
        <ele>479.344501</ele>
        <time>2020-08-27T14:40:23.802Z</time>
      </trkpt>
      <trkpt lat="67.30254" lon="21.08456">
        <ele>479.352832</ele>
        <time>2020-08-27T14:40:35.796Z</time>
      </trkpt>
      <trkpt lat="67.3022" lon="21.08447">
        <ele>479.472352</ele>
        <time>2020-08-27T14:40:42.191Z</time>
      </trkpt>
      <trkpt lat="67.30131" lon="21.08423">
        <ele>479.86129</ele>
        <time>2020-08-27T14:40:59.271Z</time>
      </trkpt>
      <trkpt lat="67.29998" lon="21.08367">
        <ele>481.028288</ele>
        <time>2020-08-27T14:41:26.078Z</time>
      </trkpt>
      <trkpt lat="67.29172" lon="21.07916">
        <ele>492.415204</ele>
        <time>2020-08-27T14:44:32.197Z</time>
      </trkpt>
      <trkpt lat="67.29042" lon="21.07809">
        <ele>496.847039</ele>
        <time>2020-08-27T14:45:13.859Z</time>
      </trkpt>
      <trkpt lat="67.28721" lon="21.07436">
        <ele>505.529532</ele>
        <time>2020-08-27T14:46:48.074Z</time>
      </trkpt>
      <trkpt lat="67.28496" lon="21.07008">
        <ele>504.116687</ele>
        <time>2020-08-27T14:47:30.717Z</time>
      </trkpt>
      <trkpt lat="67.27874" lon="21.05488">
        <ele>500.506107</ele>
        <time>2020-08-27T14:49:52.614Z</time>
      </trkpt>
      <trkpt lat="67.27697" lon="21.05102">
        <ele>503.861715</ele>
        <time>2020-08-27T14:50:48.128Z</time>
      </trkpt>
      <trkpt lat="67.27554" lon="21.04808">
        <ele>504.674964</ele>
        <time>2020-08-27T14:51:27.417Z</time>
      </trkpt>
      <trkpt lat="67.27295" lon="21.04326">
        <ele>498.079832</ele>
        <time>2020-08-27T14:52:10.835Z</time>
      </trkpt>
      <trkpt lat="67.27006" lon="21.03882">
        <ele>488.626291</ele>
        <time>2020-08-27T14:52:55.625Z</time>
      </trkpt>
      <trkpt lat="67.26506" lon="21.03221">
        <ele>474.390162</ele>
        <time>2020-08-27T14:54:12.464Z</time>
      </trkpt>
      <trkpt lat="67.26374" lon="21.03079">
        <ele>469.250255</ele>
        <time>2020-08-27T14:54:30.643Z</time>
      </trkpt>
      <trkpt lat="67.26161" lon="21.02876">
        <ele>459.675986</ele>
        <time>2020-08-27T14:54:58.743Z</time>
      </trkpt>
      <trkpt lat="67.25795" lon="21.0257">
        <ele>446.163097</ele>
        <time>2020-08-27T14:55:47.904Z</time>
      </trkpt>
      <trkpt lat="67.25529" lon="21.02368">
        <ele>441.286463</ele>
        <time>2020-08-27T14:56:28.161Z</time>
      </trkpt>
      <trkpt lat="67.25371" lon="21.02227">
        <ele>441.82326</ele>
        <time>2020-08-27T14:57:00.143Z</time>
      </trkpt>
      <trkpt lat="67.25254" lon="21.02093">
        <ele>443.475686</ele>
        <time>2020-08-27T14:57:29.392Z</time>
      </trkpt>
      <trkpt lat="67.2507" lon="21.01828">
        <ele>446.204152</ele>
        <time>2020-08-27T14:58:17.831Z</time>
      </trkpt>
      <trkpt lat="67.24989" lon="21.01682">
        <ele>446.41511</ele>
        <time>2020-08-27T14:58:36.301Z</time>
      </trkpt>
      <trkpt lat="67.24805" lon="21.01318">
        <ele>444.074874</ele>
        <time>2020-08-27T14:59:11.434Z</time>
      </trkpt>
      <trkpt lat="67.24731" lon="21.01134">
        <ele>442.584679</ele>
        <time>2020-08-27T14:59:26.318Z</time>
      </trkpt>
      <trkpt lat="67.2467" lon="21.01003">
        <ele>441.266564</ele>
        <time>2020-08-27T14:59:37.845Z</time>
      </trkpt>
      <trkpt lat="67.24458" lon="21.00558">
        <ele>436.630678</ele>
        <time>2020-08-27T15:00:17.805Z</time>
      </trkpt>
      <trkpt lat="67.24393" lon="21.00456">
        <ele>434.684583</ele>
        <time>2020-08-27T15:00:28.314Z</time>
      </trkpt>
      <trkpt lat="67.24341" lon="21.00383">
        <ele>433.16126</ele>
        <time>2020-08-27T15:00:36.262Z</time>
      </trkpt>
      <trkpt lat="67.2422" lon="21.00258">
        <ele>428.669298</ele>
        <time>2020-08-27T15:00:52.956Z</time>
      </trkpt>
      <trkpt lat="67.24083" lon="21.00176">
        <ele>423.471142</ele>
        <time>2020-08-27T15:01:10.617Z</time>
      </trkpt>
      <trkpt lat="67.23997" lon="21.00159">
        <ele>420.231631</ele>
        <time>2020-08-27T15:01:21.700Z</time>
      </trkpt>
      <trkpt lat="67.23911" lon="21.00161">
        <ele>417.30676</ele>
        <time>2020-08-27T15:01:32.747Z</time>
      </trkpt>
      <trkpt lat="67.23828" lon="21.00181">
        <ele>414.561362</ele>
        <time>2020-08-27T15:01:43.703Z</time>
      </trkpt>
      <trkpt lat="67.23455" lon="21.00367">
        <ele>403.061863</ele>
        <time>2020-08-27T15:02:33.575Z</time>
      </trkpt>
      <trkpt lat="67.22948" lon="21.00632">
        <ele>394.672326</ele>
        <time>2020-08-27T15:03:49.027Z</time>
      </trkpt>
      <trkpt lat="67.22939" lon="21.00637">
        <ele>394.547412</ele>
        <time>2020-08-27T15:03:50.720Z</time>
      </trkpt>
      <trkpt lat="67.22841" lon="21.00691">
        <ele>393.561501</ele>
        <time>2020-08-27T15:04:06.936Z</time>
      </trkpt>
      <trkpt lat="67.22674" lon="21.00856">
        <ele>392.098706</ele>
        <time>2020-08-27T15:04:35.103Z</time>
      </trkpt>
      <trkpt lat="67.22616" lon="21.00936">
        <ele>391.545604</ele>
        <time>2020-08-27T15:04:45.295Z</time>
      </trkpt>
      <trkpt lat="67.22282" lon="21.01479">
        <ele>388.08743</ele>
        <time>2020-08-27T15:05:48.108Z</time>
      </trkpt>
      <trkpt lat="67.22187" lon="21.01602">
        <ele>385.578399</ele>
        <time>2020-08-27T15:06:02.862Z</time>
      </trkpt>
      <trkpt lat="67.22091" lon="21.01703">
        <ele>382.916261</ele>
        <time>2020-08-27T15:06:16.469Z</time>
      </trkpt>
      <trkpt lat="67.22012" lon="21.01764">
        <ele>380.799037</ele>
        <time>2020-08-27T15:06:27.253Z</time>
      </trkpt>
      <trkpt lat="67.21959" lon="21.018">
        <ele>379.373256</ele>
        <time>2020-08-27T15:06:34.681Z</time>
      </trkpt>
      <trkpt lat="67.21799" lon="21.0188">
        <ele>377.795618</ele>
        <time>2020-08-27T15:06:59.626Z</time>
      </trkpt>
      <trkpt lat="67.21765" lon="21.01889">
        <ele>377.571429</ele>
        <time>2020-08-27T15:07:06.287Z</time>
      </trkpt>
      <trkpt lat="67.21722" lon="21.01906">
        <ele>378.101485</ele>
        <time>2020-08-27T15:07:15.552Z</time>
      </trkpt>
      <trkpt lat="67.21602" lon="21.01934">
        <ele>380.141729</ele>
        <time>2020-08-27T15:07:44.837Z</time>
      </trkpt>
      <trkpt lat="67.21491" lon="21.01935">
        <ele>381.861621</ele>
        <time>2020-08-27T15:08:11.982Z</time>
      </trkpt>
      <trkpt lat="67.21357" lon="21.01889">
        <ele>383.327887</ele>
        <time>2020-08-27T15:08:40.963Z</time>
      </trkpt>
      <trkpt lat="67.21263" lon="21.01818">
        <ele>383.400897</ele>
        <time>2020-08-27T15:08:57.853Z</time>
      </trkpt>
      <trkpt lat="67.21156" lon="21.01699">
        <ele>383.608426</ele>
        <time>2020-08-27T15:09:16.946Z</time>
      </trkpt>
      <trkpt lat="67.21031" lon="21.01514">
        <ele>384.849268</ele>
        <time>2020-08-27T15:09:45.796Z</time>
      </trkpt>
      <trkpt lat="67.20956" lon="21.01362">
        <ele>387.196731</ele>
        <time>2020-08-27T15:10:10.833Z</time>
      </trkpt>
      <trkpt lat="67.20878" lon="21.01158">
        <ele>390.708261</ele>
        <time>2020-08-27T15:10:44.580Z</time>
      </trkpt>
      <trkpt lat="67.2084" lon="21.01036">
        <ele>392.902147</ele>
        <time>2020-08-27T15:11:02.958Z</time>
      </trkpt>
      <trkpt lat="67.208" lon="21.00892">
        <ele>395.177077</ele>
        <time>2020-08-27T15:11:23.053Z</time>
      </trkpt>
      <trkpt lat="67.20236" lon="20.98863">
        <ele>416.115097</ele>
        <time>2020-08-27T15:15:22.686Z</time>
      </trkpt>
      <trkpt lat="67.20174" lon="20.98669">
        <ele>417.75516</ele>
        <time>2020-08-27T15:15:44.375Z</time>
      </trkpt>
      <trkpt lat="67.20125" lon="20.98542">
        <ele>418.149545</ele>
        <time>2020-08-27T15:15:58.622Z</time>
      </trkpt>
      <trkpt lat="67.20071" lon="20.98423">
        <ele>418.555284</ele>
        <time>2020-08-27T15:16:12.400Z</time>
      </trkpt>
      <trkpt lat="67.19975" lon="20.98252">
        <ele>418.573107</ele>
        <time>2020-08-27T15:16:33.142Z</time>
      </trkpt>
      <trkpt lat="67.19912" lon="20.98161">
        <ele>418.395863</ele>
        <time>2020-08-27T15:16:45.336Z</time>
      </trkpt>
      <trkpt lat="67.19857" lon="20.98096">
        <ele>417.909123</ele>
        <time>2020-08-27T15:16:55.257Z</time>
      </trkpt>
      <trkpt lat="67.19743" lon="20.98">
        <ele>416.3783</ele>
        <time>2020-08-27T15:17:13.440Z</time>
      </trkpt>
      <trkpt lat="67.19546" lon="20.97899">
        <ele>411.853225</ele>
        <time>2020-08-27T15:17:41.078Z</time>
      </trkpt>
      <trkpt lat="67.19502" lon="20.97879">
        <ele>410.426685</ele>
        <time>2020-08-27T15:17:47.000Z</time>
      </trkpt>
      <trkpt lat="67.19499" lon="20.97877">
        <ele>410.30801</ele>
        <time>2020-08-27T15:17:47.406Z</time>
      </trkpt>
      <trkpt lat="67.19305" lon="20.97787">
        <ele>403.365302</ele>
        <time>2020-08-27T15:18:12.815Z</time>
      </trkpt>
      <trkpt lat="67.19104" lon="20.97663">
        <ele>394.610601</ele>
        <time>2020-08-27T15:18:38.524Z</time>
      </trkpt>
      <trkpt lat="67.19029" lon="20.97606">
        <ele>390.988587</ele>
        <time>2020-08-27T15:18:48.086Z</time>
      </trkpt>
      <trkpt lat="67.18888" lon="20.97491">
        <ele>384.319203</ele>
        <time>2020-08-27T15:19:06.094Z</time>
      </trkpt>
      <trkpt lat="67.1832" lon="20.96971">
        <ele>361.962076</ele>
        <time>2020-08-27T15:20:22.825Z</time>
      </trkpt>
      <trkpt lat="67.18251" lon="20.96903">
        <ele>360.65512</ele>
        <time>2020-08-27T15:20:33.888Z</time>
      </trkpt>
      <trkpt lat="67.182" lon="20.96852">
        <ele>359.688546</ele>
        <time>2020-08-27T15:20:42.552Z</time>
      </trkpt>
      <trkpt lat="67.18012" lon="20.9662">
        <ele>355.190902</ele>
        <time>2020-08-27T15:21:12.231Z</time>
      </trkpt>
      <trkpt lat="67.17854" lon="20.96377">
        <ele>347.129725</ele>
        <time>2020-08-27T15:21:34.854Z</time>
      </trkpt>
      <trkpt lat="67.17743" lon="20.96177">
        <ele>340.044333</ele>
        <time>2020-08-27T15:21:50.962Z</time>
      </trkpt>
      <trkpt lat="67.17734" lon="20.96159">
        <ele>339.429614</ele>
        <time>2020-08-27T15:21:52.331Z</time>
      </trkpt>
      <trkpt lat="67.17677" lon="20.96052">
        <ele>336.567432</ele>
        <time>2020-08-27T15:22:00.901Z</time>
      </trkpt>
      <trkpt lat="67.17011" lon="20.94787">
        <ele>314.955202</ele>
        <time>2020-08-27T15:23:52.941Z</time>
      </trkpt>
      <trkpt lat="67.16802" lon="20.94409">
        <ele>313.987135</ele>
        <time>2020-08-27T15:24:38.879Z</time>
      </trkpt>
      <trkpt lat="67.16648" lon="20.94245">
        <ele>313.234919</ele>
        <time>2020-08-27T15:25:07.748Z</time>
      </trkpt>
      <trkpt lat="67.16555" lon="20.94188">
        <ele>311.480813</ele>
        <time>2020-08-27T15:25:21.632Z</time>
      </trkpt>
      <trkpt lat="67.16221" lon="20.94096">
        <ele>302.600322</ele>
        <time>2020-08-27T15:26:05.769Z</time>
      </trkpt>
      <trkpt lat="67.16154" lon="20.94078">
        <ele>301.04951</ele>
        <time>2020-08-27T15:26:15.465Z</time>
      </trkpt>
      <trkpt lat="67.16071" lon="20.94043">
        <ele>300.827176</ele>
        <time>2020-08-27T15:26:28.912Z</time>
      </trkpt>
      <trkpt lat="67.15916" lon="20.93932">
        <ele>301.95375</ele>
        <time>2020-08-27T15:27:02.502Z</time>
      </trkpt>
      <trkpt lat="67.15742" lon="20.93728">
        <ele>305.804549</ele>
        <time>2020-08-27T15:27:49.386Z</time>
      </trkpt>
      <trkpt lat="67.15595" lon="20.93457">
        <ele>310.900527</ele>
        <time>2020-08-27T15:28:37.965Z</time>
      </trkpt>
      <trkpt lat="67.15379" lon="20.92999">
        <ele>320.727998</ele>
        <time>2020-08-27T15:29:59.599Z</time>
      </trkpt>
      <trkpt lat="67.15185" lon="20.92617">
        <ele>329.151543</ele>
        <time>2020-08-27T15:31:16.836Z</time>
      </trkpt>
      <trkpt lat="67.1497" lon="20.92218">
        <ele>328.41168</ele>
        <time>2020-08-27T15:31:59.951Z</time>
      </trkpt>
      <trkpt lat="67.14745" lon="20.91835">
        <ele>322.287644</ele>
        <time>2020-08-27T15:32:35.407Z</time>
      </trkpt>
      <trkpt lat="67.14553" lon="20.91483">
        <ele>322.234782</ele>
        <time>2020-08-27T15:33:20.749Z</time>
      </trkpt>
      <trkpt lat="67.14357" lon="20.91164">
        <ele>322.894928</ele>
        <time>2020-08-27T15:34:09.203Z</time>
      </trkpt>
      <trkpt lat="67.14112" lon="20.90829">
        <ele>315.393038</ele>
        <time>2020-08-27T15:34:46.093Z</time>
      </trkpt>
      <trkpt lat="67.14074" lon="20.90783">
        <ele>313.669782</ele>
        <time>2020-08-27T15:34:51.301Z</time>
      </trkpt>
      <trkpt lat="67.14055" lon="20.90759">
        <ele>312.793633</ele>
        <time>2020-08-27T15:34:53.904Z</time>
      </trkpt>
      <trkpt lat="67.13916" lon="20.90616">
        <ele>306.476573</ele>
        <time>2020-08-27T15:35:12.032Z</time>
      </trkpt>
      <trkpt lat="67.13901" lon="20.90603">
        <ele>305.814704</ele>
        <time>2020-08-27T15:35:13.929Z</time>
      </trkpt>
      <trkpt lat="67.13844" lon="20.90552">
        <ele>303.210693</ele>
        <time>2020-08-27T15:35:21.878Z</time>
      </trkpt>
      <trkpt lat="67.13791" lon="20.90503">
        <ele>302.14519</ele>
        <time>2020-08-27T15:35:29.304Z</time>
      </trkpt>
      <trkpt lat="67.13754" lon="20.90473">
        <ele>301.490898</ele>
        <time>2020-08-27T15:35:34.758Z</time>
      </trkpt>
      <trkpt lat="67.13682" lon="20.9043">
        <ele>300.246711</ele>
        <time>2020-08-27T15:35:46.455Z</time>
      </trkpt>
      <trkpt lat="67.13493" lon="20.9034">
        <ele>299.379722</ele>
        <time>2020-08-27T15:36:19.371Z</time>
      </trkpt>
      <trkpt lat="67.13162" lon="20.90217">
        <ele>296.829898</ele>
        <time>2020-08-27T15:37:12.881Z</time>
      </trkpt>
      <trkpt lat="67.13039" lon="20.90174">
        <ele>295.084732</ele>
        <time>2020-08-27T15:37:31.155Z</time>
      </trkpt>
      <trkpt lat="67.12905" lon="20.90145">
        <ele>293.017124</ele>
        <time>2020-08-27T15:37:50.541Z</time>
      </trkpt>
      <trkpt lat="67.12797" lon="20.90136">
        <ele>291.39845</ele>
        <time>2020-08-27T15:38:06.562Z</time>
      </trkpt>
      <trkpt lat="67.1269" lon="20.90144">
        <ele>290.094005</ele>
        <time>2020-08-27T15:38:22.824Z</time>
      </trkpt>
      <trkpt lat="67.12413" lon="20.90232">
        <ele>287.12978</ele>
        <time>2020-08-27T15:39:05.678Z</time>
      </trkpt>
      <trkpt lat="67.12252" lon="20.9029">
        <ele>285.664534</ele>
        <time>2020-08-27T15:39:31.203Z</time>
      </trkpt>
      <trkpt lat="67.12109" lon="20.90339">
        <ele>284.681538</ele>
        <time>2020-08-27T15:39:54.305Z</time>
      </trkpt>
      <trkpt lat="67.11916" lon="20.90405">
        <ele>283.7227</ele>
        <time>2020-08-27T15:40:26.480Z</time>
      </trkpt>
      <trkpt lat="67.11824" lon="20.9043">
        <ele>283.771641</ele>
        <time>2020-08-27T15:40:42.442Z</time>
      </trkpt>
      <trkpt lat="67.11658" lon="20.90429">
        <ele>284.888834</ele>
        <time>2020-08-27T15:41:14.974Z</time>
      </trkpt>
      <trkpt lat="67.11617" lon="20.9042">
        <ele>285.534471</ele>
        <time>2020-08-27T15:41:24.232Z</time>
      </trkpt>
      <trkpt lat="67.11572" lon="20.90412">
        <ele>286.254322</ele>
        <time>2020-08-27T15:41:35.083Z</time>
      </trkpt>
      <trkpt lat="67.11446" lon="20.90392">
        <ele>288.684801</ele>
        <time>2020-08-27T15:42:07.403Z</time>
      </trkpt>
      <trkpt lat="67.11028" lon="20.90316">
        <ele>296.355364</ele>
        <time>2020-08-27T15:43:49.514Z</time>
      </trkpt>
      <trkpt lat="67.10808" lon="20.90228">
        <ele>294.896351</ele>
        <time>2020-08-27T15:44:24.171Z</time>
      </trkpt>
      <trkpt lat="67.10741" lon="20.90189">
        <ele>293.259739</ele>
        <time>2020-08-27T15:44:33.409Z</time>
      </trkpt>
      <trkpt lat="67.10661" lon="20.90149">
        <ele>291.306315</ele>
        <time>2020-08-27T15:44:44.362Z</time>
      </trkpt>
      <trkpt lat="67.10629" lon="20.90131">
        <ele>290.564799</ele>
        <time>2020-08-27T15:44:48.717Z</time>
      </trkpt>
      <trkpt lat="67.10569" lon="20.90097">
        <ele>289.911806</ele>
        <time>2020-08-27T15:44:57.604Z</time>
      </trkpt>
      <trkpt lat="67.10552" lon="20.90287">
        <ele>289.114934</ele>
        <time>2020-08-27T15:45:09.806Z</time>
      </trkpt>
      <trkpt lat="67.10545" lon="20.90367">
        <ele>288.780963</ele>
        <time>2020-08-27T15:45:15.378Z</time>
      </trkpt>
      <trkpt lat="67.1053" lon="20.90544">
        <ele>288.838862</ele>
        <time>2020-08-27T15:45:28.282Z</time>
      </trkpt>
      <trkpt lat="67.10514" lon="20.90746">
        <ele>289.019574</ele>
        <time>2020-08-27T15:45:43.533Z</time>
      </trkpt>
      <trkpt lat="67.10486" lon="20.91087">
        <ele>289.40829</ele>
        <time>2020-08-27T15:46:08.979Z</time>
      </trkpt>
      <trkpt lat="67.10381" lon="20.92348">
        <ele>291.063817</ele>
        <time>2020-08-27T15:47:43.784Z</time>
      </trkpt>
      <trkpt lat="67.1038" lon="20.92361">
        <ele>291.085336</ele>
        <time>2020-08-27T15:47:44.909Z</time>
      </trkpt>
      <trkpt lat="67.10336" lon="20.92877">
        <ele>291.751207</ele>
        <time>2020-08-27T15:48:24.194Z</time>
      </trkpt>
      <trkpt lat="67.10288" lon="20.93292">
        <ele>291.891568</ele>
        <time>2020-08-27T15:48:54.621Z</time>
      </trkpt>
      <trkpt lat="67.10268" lon="20.93446">
        <ele>291.84343</ele>
        <time>2020-08-27T15:49:05.650Z</time>
      </trkpt>
      <trkpt lat="67.1022" lon="20.93779">
        <ele>291.603304</ele>
        <time>2020-08-27T15:49:29.340Z</time>
      </trkpt>
      <trkpt lat="67.10068" lon="20.94701">
        <ele>290.901385</ele>
        <time>2020-08-27T15:50:36.648Z</time>
      </trkpt>
      <trkpt lat="67.1006" lon="20.94753">
        <ele>290.873692</ele>
        <time>2020-08-27T15:50:40.494Z</time>
      </trkpt>
      <trkpt lat="67.10064" lon="20.94784">
        <ele>290.857287</ele>
        <time>2020-08-27T15:50:42.809Z</time>
      </trkpt>
      <trkpt lat="67.10063" lon="20.94828">
        <ele>290.839549</ele>
        <time>2020-08-27T15:50:45.896Z</time>
      </trkpt>
      <trkpt lat="67.10057" lon="20.94866">
        <ele>290.841493</ele>
        <time>2020-08-27T15:50:48.778Z</time>
      </trkpt>
      <trkpt lat="67.10043" lon="20.94952">
        <ele>290.845927</ele>
        <time>2020-08-27T15:50:55.345Z</time>
      </trkpt>
      <trkpt lat="67.10035" lon="20.95005">
        <ele>290.848676</ele>
        <time>2020-08-27T15:50:59.412Z</time>
      </trkpt>
      <trkpt lat="67.10016" lon="20.95077">
        <ele>290.852829</ele>
        <time>2020-08-27T15:51:05.566Z</time>
      </trkpt>
      <trkpt lat="67.10002" lon="20.95097">
        <ele>290.854838</ele>
        <time>2020-08-27T15:51:08.551Z</time>
      </trkpt>
      <trkpt lat="67.09964" lon="20.95318">
        <ele>290.677747</ele>
        <time>2020-08-27T15:51:25.084Z</time>
      </trkpt>
      <trkpt lat="67.0984" lon="20.96065">
        <ele>288.846501</ele>
        <time>2020-08-27T15:52:16.690Z</time>
      </trkpt>
      <trkpt lat="67.09809" lon="20.96251">
        <ele>287.924925</ele>
        <time>2020-08-27T15:52:28.593Z</time>
      </trkpt>
      <trkpt lat="67.09796" lon="20.96328">
        <ele>287.54537</ele>
        <time>2020-08-27T15:52:33.386Z</time>
      </trkpt>
      <trkpt lat="67.09641" lon="20.97182">
        <ele>283.492628</ele>
        <time>2020-08-27T15:53:28.833Z</time>
      </trkpt>
      <trkpt lat="67.09616" lon="20.97306">
        <ele>283.040359</ele>
        <time>2020-08-27T15:53:37.911Z</time>
      </trkpt>
      <trkpt lat="67.09442" lon="20.98126">
        <ele>283.72508</ele>
        <time>2020-08-27T15:54:46.418Z</time>
      </trkpt>
      <trkpt lat="67.09357" lon="20.9801">
        <ele>283.379078</ele>
        <time>2020-08-27T15:55:03.207Z</time>
      </trkpt>
      <trkpt lat="67.09344" lon="20.97997">
        <ele>283.321597</ele>
        <time>2020-08-27T15:55:05.676Z</time>
      </trkpt>
      <trkpt lat="67.09324" lon="20.9798">
        <ele>283.240438</ele>
        <time>2020-08-27T15:55:09.268Z</time>
      </trkpt>
      <trkpt lat="67.09296" lon="20.97984">
        <ele>283.129609</ele>
        <time>2020-08-27T15:55:14.049Z</time>
      </trkpt>
      <trkpt lat="67.09253" lon="20.98012">
        <ele>282.995205</ele>
        <time>2020-08-27T15:55:21.635Z</time>
      </trkpt>
      <trkpt lat="67.09225" lon="20.98053">
        <ele>282.935109</ele>
        <time>2020-08-27T15:55:27.186Z</time>
      </trkpt>
      <trkpt lat="67.09194" lon="20.98123">
        <ele>282.856055</ele>
        <time>2020-08-27T15:55:34.695Z</time>
      </trkpt>
      <trkpt lat="67.09146" lon="20.98281">
        <ele>282.708054</ele>
        <time>2020-08-27T15:55:49.213Z</time>
      </trkpt>
      <trkpt lat="67.09123" lon="20.9834">
        <ele>282.66747</ele>
        <time>2020-08-27T15:55:55.244Z</time>
      </trkpt>
      <trkpt lat="67.0902" lon="20.98521">
        <ele>282.544235</ele>
        <time>2020-08-27T15:56:18.118Z</time>
      </trkpt>
      <trkpt lat="67.08916" lon="20.98724">
        <ele>282.324054</ele>
        <time>2020-08-27T15:56:41.538Z</time>
      </trkpt>
      <trkpt lat="67.08839" lon="20.9891">
        <ele>282.184322</ele>
        <time>2020-08-27T15:57:00.633Z</time>
      </trkpt>
      <trkpt lat="67.08781" lon="20.99088">
        <ele>282.239646</ele>
        <time>2020-08-27T15:57:17.451Z</time>
      </trkpt>
      <trkpt lat="67.08754" lon="20.99193">
        <ele>282.269388</ele>
        <time>2020-08-27T15:57:26.711Z</time>
      </trkpt>
      <trkpt lat="67.08736" lon="20.99415">
        <ele>282.627701</ele>
        <time>2020-08-27T15:57:44.064Z</time>
      </trkpt>
      <trkpt lat="67.08739" lon="20.9948">
        <ele>282.750009</ele>
        <time>2020-08-27T15:57:49.138Z</time>
      </trkpt>
      <trkpt lat="67.08785" lon="20.99928">
        <ele>283.915067</ele>
        <time>2020-08-27T15:58:26.573Z</time>
      </trkpt>
      <trkpt lat="67.08785" lon="21.00009">
        <ele>284.160743</ele>
        <time>2020-08-27T15:58:33.277Z</time>
      </trkpt>
      <trkpt lat="67.08744" lon="21.00392">
        <ele>285.598038</ele>
        <time>2020-08-27T15:59:06.679Z</time>
      </trkpt>
      <trkpt lat="67.08607" lon="21.01474">
        <ele>290.625037</ele>
        <time>2020-08-27T16:00:44.952Z</time>
      </trkpt>
      <trkpt lat="67.08603" lon="21.01565">
        <ele>291.263384</ele>
        <time>2020-08-27T16:00:53.498Z</time>
      </trkpt>
      <trkpt lat="67.08604" lon="21.01692">
        <ele>292.142231</ele>
        <time>2020-08-27T16:01:05.471Z</time>
      </trkpt>
      <trkpt lat="67.08641" lon="21.02361">
        <ele>297.452829</ele>
        <time>2020-08-27T16:02:11.714Z</time>
      </trkpt>
      <trkpt lat="67.08643" lon="21.0245">
        <ele>298.468121</ele>
        <time>2020-08-27T16:02:21.089Z</time>
      </trkpt>
      <trkpt lat="67.08624" lon="21.02595">
        <ele>300.263972</ele>
        <time>2020-08-27T16:02:37.496Z</time>
      </trkpt>
      <trkpt lat="67.08629" lon="21.02626">
        <ele>300.656794</ele>
        <time>2020-08-27T16:02:41.111Z</time>
      </trkpt>
      <trkpt lat="67.08641" lon="21.02654">
        <ele>301.151669</ele>
        <time>2020-08-27T16:02:46.051Z</time>
      </trkpt>
      <trkpt lat="67.08651" lon="21.02666">
        <ele>301.484466</ele>
        <time>2020-08-27T16:02:49.359Z</time>
      </trkpt>
      <trkpt lat="67.08661" lon="21.02704">
        <ele>302.035312</ele>
        <time>2020-08-27T16:02:54.350Z</time>
      </trkpt>
      <trkpt lat="67.0867" lon="21.02848">
        <ele>303.850767</ele>
        <time>2020-08-27T16:03:10.979Z</time>
      </trkpt>
      <trkpt lat="67.08675" lon="21.02961">
        <ele>305.354125</ele>
        <time>2020-08-27T16:03:24.192Z</time>
      </trkpt>
      <trkpt lat="67.08677" lon="21.03007">
        <ele>305.974162</ele>
        <time>2020-08-27T16:03:29.909Z</time>
      </trkpt>
      <trkpt lat="67.08673" lon="21.03132">
        <ele>307.631878</ele>
        <time>2020-08-27T16:03:43.466Z</time>
      </trkpt>
      <trkpt lat="67.08665" lon="21.03197">
        <ele>308.53117</ele>
        <time>2020-08-27T16:03:50.945Z</time>
      </trkpt>
      <trkpt lat="67.08656" lon="21.0324">
        <ele>309.157766</ele>
        <time>2020-08-27T16:03:56.361Z</time>
      </trkpt>
      <trkpt lat="67.08631" lon="21.03315">
        <ele>310.032773</ele>
        <time>2020-08-27T16:04:06.745Z</time>
      </trkpt>
      <trkpt lat="67.08547" lon="21.03497">
        <ele>312.560418</ele>
        <time>2020-08-27T16:04:34.240Z</time>
      </trkpt>
      <trkpt lat="67.08523" lon="21.03567">
        <ele>313.345543</ele>
        <time>2020-08-27T16:04:42.578Z</time>
      </trkpt>
      <trkpt lat="67.08492" lon="21.0368">
        <ele>314.216324</ele>
        <time>2020-08-27T16:04:55.101Z</time>
      </trkpt>
      <trkpt lat="67.08447" lon="21.03898">
        <ele>315.768914</ele>
        <time>2020-08-27T16:05:17.073Z</time>
      </trkpt>
      <trkpt lat="67.08435" lon="21.03967">
        <ele>316.22895</ele>
        <time>2020-08-27T16:05:23.779Z</time>
      </trkpt>
      <trkpt lat="67.08416" lon="21.04069">
        <ele>316.814736</ele>
        <time>2020-08-27T16:05:33.550Z</time>
      </trkpt>
      <trkpt lat="67.0839" lon="21.04246">
        <ele>317.799251</ele>
        <time>2020-08-27T16:05:49.940Z</time>
      </trkpt>
      <trkpt lat="67.08359" lon="21.04542">
        <ele>319.199606</ele>
        <time>2020-08-27T16:06:15.778Z</time>
      </trkpt>
      <trkpt lat="67.08347" lon="21.04614">
        <ele>319.509234</ele>
        <time>2020-08-27T16:06:22.153Z</time>
      </trkpt>
      <trkpt lat="67.08277" lon="21.04816">
        <ele>320.534222</ele>
        <time>2020-08-27T16:06:44.093Z</time>
      </trkpt>
      <trkpt lat="67.08252" lon="21.04925">
        <ele>320.886726</ele>
        <time>2020-08-27T16:06:54.073Z</time>
      </trkpt>
      <trkpt lat="67.08205" lon="21.05184">
        <ele>321.686179</ele>
        <time>2020-08-27T16:07:16.286Z</time>
      </trkpt>
      <trkpt lat="67.082" lon="21.05209">
        <ele>321.736412</ele>
        <time>2020-08-27T16:07:18.398Z</time>
      </trkpt>
      <trkpt lat="67.08199" lon="21.05214">
        <ele>321.746154</ele>
        <time>2020-08-27T16:07:18.845Z</time>
      </trkpt>
      <trkpt lat="67.08151" lon="21.05486">
        <ele>322.29325</ele>
        <time>2020-08-27T16:07:41.618Z</time>
      </trkpt>
      <trkpt lat="67.08149" lon="21.05501">
        <ele>322.322751</ele>
        <time>2020-08-27T16:07:42.909Z</time>
      </trkpt>
      <trkpt lat="67.08124" lon="21.05639">
        <ele>322.554171</ele>
        <time>2020-08-27T16:07:54.096Z</time>
      </trkpt>
      <trkpt lat="67.08105" lon="21.05749">
        <ele>322.638661</ele>
        <time>2020-08-27T16:08:02.852Z</time>
      </trkpt>
      <trkpt lat="67.0809" lon="21.05834">
        <ele>322.703953</ele>
        <time>2020-08-27T16:08:09.517Z</time>
      </trkpt>
      <trkpt lat="67.08079" lon="21.05892">
        <ele>322.749741</ele>
        <time>2020-08-27T16:08:14.111Z</time>
      </trkpt>
      <trkpt lat="67.08077" lon="21.059">
        <ele>322.75563</ele>
        <time>2020-08-27T16:08:14.711Z</time>
      </trkpt>
      <trkpt lat="67.0804" lon="21.0612">
        <ele>322.848053</ele>
        <time>2020-08-27T16:08:31.548Z</time>
      </trkpt>
      <trkpt lat="67.07942" lon="21.06687">
        <ele>322.618733</ele>
        <time>2020-08-27T16:09:14.558Z</time>
      </trkpt>
      <trkpt lat="67.07883" lon="21.07295">
        <ele>321.441545</ele>
        <time>2020-08-27T16:09:54.930Z</time>
      </trkpt>
      <trkpt lat="67.07832" lon="21.07558">
        <ele>319.757472</ele>
        <time>2020-08-27T16:10:12.030Z</time>
      </trkpt>
      <trkpt lat="67.07812" lon="21.07647">
        <ele>319.129547</ele>
        <time>2020-08-27T16:10:17.745Z</time>
      </trkpt>
      <trkpt lat="67.07789" lon="21.07745">
        <ele>318.392485</ele>
        <time>2020-08-27T16:10:29.080Z</time>
      </trkpt>
      <trkpt lat="67.07744" lon="21.07919">
        <ele>316.720552</ele>
        <time>2020-08-27T16:10:49.126Z</time>
      </trkpt>
      <trkpt lat="67.07711" lon="21.08011">
        <ele>315.728329</ele>
        <time>2020-08-27T16:11:01.152Z</time>
      </trkpt>
      <trkpt lat="67.07694" lon="21.0804">
        <ele>315.305487</ele>
        <time>2020-08-27T16:11:06.511Z</time>
      </trkpt>
      <trkpt lat="67.0769" lon="21.0804">
        <ele>315.219285</ele>
        <time>2020-08-27T16:11:07.442Z</time>
      </trkpt>
      <trkpt lat="67.07575" lon="21.08791">
        <ele>312.390685</ele>
        <time>2020-08-27T16:11:56.617Z</time>
      </trkpt>
      <trkpt lat="67.07486" lon="21.09291">
        <ele>312.349228</ele>
        <time>2020-08-27T16:12:36.540Z</time>
      </trkpt>
      <trkpt lat="67.07416" lon="21.09609">
        <ele>311.852155</ele>
        <time>2020-08-27T16:13:02.073Z</time>
      </trkpt>
      <trkpt lat="67.07388" lon="21.09739">
        <ele>311.568572</ele>
        <time>2020-08-27T16:13:11.156Z</time>
      </trkpt>
      <trkpt lat="67.07146" lon="21.10748">
        <ele>302.206412</ele>
        <time>2020-08-27T16:14:15.290Z</time>
      </trkpt>
      <trkpt lat="67.06919" lon="21.11692">
        <ele>297.850413</ele>
        <time>2020-08-27T16:15:22.896Z</time>
      </trkpt>
      <trkpt lat="67.06791" lon="21.12224">
        <ele>296.760529</ele>
        <time>2020-08-27T16:16:03.908Z</time>
      </trkpt>
      <trkpt lat="67.06704" lon="21.12722">
        <ele>295.727277</ele>
        <time>2020-08-27T16:16:39.212Z</time>
      </trkpt>
      <trkpt lat="67.06642" lon="21.13434">
        <ele>294.006501</ele>
        <time>2020-08-27T16:17:25.184Z</time>
      </trkpt>
      <trkpt lat="67.0666" lon="21.13456">
        <ele>293.88896</ele>
        <time>2020-08-27T16:17:28.509Z</time>
      </trkpt>
      <trkpt lat="67.06668" lon="21.13642">
        <ele>293.456085</ele>
        <time>2020-08-27T16:17:40.834Z</time>
      </trkpt>
      <trkpt lat="67.06651" lon="21.13831">
        <ele>293.006343</ele>
        <time>2020-08-27T16:17:53.756Z</time>
      </trkpt>
      <trkpt lat="67.06649" lon="21.1392">
        <ele>292.879511</ele>
        <time>2020-08-27T16:17:59.798Z</time>
      </trkpt>
      <trkpt lat="67.0663" lon="21.14088">
        <ele>292.662051</ele>
        <time>2020-08-27T16:18:11.747Z</time>
      </trkpt>
      <trkpt lat="67.06612" lon="21.14712">
        <ele>292.28491</ele>
        <time>2020-08-27T16:18:55.996Z</time>
      </trkpt>
      <trkpt lat="67.06602" lon="21.14809">
        <ele>292.353249</ele>
        <time>2020-08-27T16:19:03.452Z</time>
      </trkpt>
      <trkpt lat="67.0659" lon="21.14856">
        <ele>292.439679</ele>
        <time>2020-08-27T16:19:07.572Z</time>
      </trkpt>
      <trkpt lat="67.06565" lon="21.14906">
        <ele>292.567974</ele>
        <time>2020-08-27T16:19:13.760Z</time>
      </trkpt>
      <trkpt lat="67.06455" lon="21.15043">
        <ele>293.187996</ele>
        <time>2020-08-27T16:19:38.756Z</time>
      </trkpt>
      <trkpt lat="67.06418" lon="21.15129">
        <ele>293.753483</ele>
        <time>2020-08-27T16:19:49.341Z</time>
      </trkpt>
      <trkpt lat="67.06391" lon="21.15239">
        <ele>294.329394</ele>
        <time>2020-08-27T16:20:00.524Z</time>
      </trkpt>
      <trkpt lat="67.06358" lon="21.15441">
        <ele>295.576248</ele>
        <time>2020-08-27T16:20:20.726Z</time>
      </trkpt>
      <trkpt lat="67.06341" lon="21.15694">
        <ele>297.877511</ele>
        <time>2020-08-27T16:20:46.392Z</time>
      </trkpt>
      <trkpt lat="67.0631" lon="21.15938">
        <ele>300.458886</ele>
        <time>2020-08-27T16:21:14.122Z</time>
      </trkpt>
      <trkpt lat="67.06277" lon="21.16099">
        <ele>302.56744</ele>
        <time>2020-08-27T16:21:34.514Z</time>
      </trkpt>
      <trkpt lat="67.06226" lon="21.16225">
        <ele>304.613597</ele>
        <time>2020-08-27T16:21:54.771Z</time>
      </trkpt>
      <trkpt lat="67.06131" lon="21.16522">
        <ele>307.400045</ele>
        <time>2020-08-27T16:22:32.959Z</time>
      </trkpt>
      <trkpt lat="67.05895" lon="21.17436">
        <ele>307.992772</ele>
        <time>2020-08-27T16:23:53.271Z</time>
      </trkpt>
      <trkpt lat="67.05521" lon="21.1877">
        <ele>302.780834</ele>
        <time>2020-08-27T16:25:39.187Z</time>
      </trkpt>
      <trkpt lat="67.05488" lon="21.18882">
        <ele>302.04443</ele>
        <time>2020-08-27T16:25:47.774Z</time>
      </trkpt>
      <trkpt lat="67.05376" lon="21.19049">
        <ele>299.392364</ele>
        <time>2020-08-27T16:26:07.192Z</time>
      </trkpt>
      <trkpt lat="67.05284" lon="21.19229">
        <ele>295.142299</ele>
        <time>2020-08-27T16:26:22.953Z</time>
      </trkpt>
      <trkpt lat="67.05251" lon="21.19311">
        <ele>293.130818</ele>
        <time>2020-08-27T16:26:28.814Z</time>
      </trkpt>
      <trkpt lat="67.05243" lon="21.19347">
        <ele>292.413932</ele>
        <time>2020-08-27T16:26:30.845Z</time>
      </trkpt>
      <trkpt lat="67.05237" lon="21.19414">
        <ele>291.259591</ele>
        <time>2020-08-27T16:26:34.202Z</time>
      </trkpt>
      <trkpt lat="67.05233" lon="21.19425">
        <ele>291.013361</ele>
        <time>2020-08-27T16:26:34.892Z</time>
      </trkpt>
      <trkpt lat="67.05221" lon="21.19413">
        <ele>290.466758</ele>
        <time>2020-08-27T16:26:36.443Z</time>
      </trkpt>
      <trkpt lat="67.05209" lon="21.19414">
        <ele>289.928174</ele>
        <time>2020-08-27T16:26:38.084Z</time>
      </trkpt>
      <trkpt lat="67.05202" lon="21.19419">
        <ele>289.617646</ele>
        <time>2020-08-27T16:26:38.937Z</time>
      </trkpt>
      <trkpt lat="67.05189" lon="21.19342">
        <ele>288.190927</ele>
        <time>2020-08-27T16:26:42.884Z</time>
      </trkpt>
      <trkpt lat="67.05159" lon="21.19403">
        <ele>286.521559</ele>
        <time>2020-08-27T16:26:47.472Z</time>
      </trkpt>
      <trkpt lat="67.04724" lon="21.20318">
        <ele>270.40833</ele>
        <time>2020-08-27T16:28:02.783Z</time>
      </trkpt>
      <trkpt lat="67.04565" lon="21.20726">
        <ele>268.051393</ele>
        <time>2020-08-27T16:28:38.416Z</time>
      </trkpt>
      <trkpt lat="67.04428" lon="21.2115">
        <ele>268.211328</ele>
        <time>2020-08-27T16:29:17.817Z</time>
      </trkpt>
      <trkpt lat="67.04319" lon="21.2152">
        <ele>268.995766</ele>
        <time>2020-08-27T16:29:52.901Z</time>
      </trkpt>
      <trkpt lat="67.0398" lon="21.2285">
        <ele>272.029412</ele>
        <time>2020-08-27T16:31:53.304Z</time>
      </trkpt>
      <trkpt lat="67.03856" lon="21.23364">
        <ele>273.343801</ele>
        <time>2020-08-27T16:32:39.606Z</time>
      </trkpt>
      <trkpt lat="67.03749" lon="21.23707">
        <ele>274.523221</ele>
        <time>2020-08-27T16:33:14.027Z</time>
      </trkpt>
      <trkpt lat="67.03632" lon="21.24024">
        <ele>275.775471</ele>
        <time>2020-08-27T16:33:48.403Z</time>
      </trkpt>
      <trkpt lat="67.03459" lon="21.24364">
        <ele>277.324782</ele>
        <time>2020-08-27T16:34:32.172Z</time>
      </trkpt>
      <trkpt lat="67.03331" lon="21.24566">
        <ele>278.477338</ele>
        <time>2020-08-27T16:35:03.061Z</time>
      </trkpt>
      <trkpt lat="67.03197" lon="21.24759">
        <ele>279.317122</ele>
        <time>2020-08-27T16:35:33.796Z</time>
      </trkpt>
      <trkpt lat="67.02775" lon="21.25236">
        <ele>279.577092</ele>
        <time>2020-08-27T16:36:56.410Z</time>
      </trkpt>
      <trkpt lat="67.02402" lon="21.25633">
        <ele>278.64635</ele>
        <time>2020-08-27T16:38:05.456Z</time>
      </trkpt>
      <trkpt lat="67.02285" lon="21.25791">
        <ele>278.254516</ele>
        <time>2020-08-27T16:38:27.820Z</time>
      </trkpt>
      <trkpt lat="67.02212" lon="21.25906">
        <ele>278.021359</ele>
        <time>2020-08-27T16:38:42.439Z</time>
      </trkpt>
      <trkpt lat="67.02145" lon="21.26031">
        <ele>277.822969</ele>
        <time>2020-08-27T16:38:56.878Z</time>
      </trkpt>
      <trkpt lat="67.021" lon="21.26119">
        <ele>277.717736</ele>
        <time>2020-08-27T16:39:06.658Z</time>
      </trkpt>
      <trkpt lat="67.02051" lon="21.26239">
        <ele>277.590822</ele>
        <time>2020-08-27T16:39:18.390Z</time>
      </trkpt>
      <trkpt lat="67.01983" lon="21.26436">
        <ele>277.37665</ele>
        <time>2020-08-27T16:39:35.941Z</time>
      </trkpt>
      <trkpt lat="67.01971" lon="21.26472">
        <ele>277.335727</ele>
        <time>2020-08-27T16:39:39.181Z</time>
      </trkpt>
      <trkpt lat="67.01792" lon="21.27053">
        <ele>276.802812</ele>
        <time>2020-08-27T16:40:29.189Z</time>
      </trkpt>
      <trkpt lat="67.01676" lon="21.27407">
        <ele>276.527488</ele>
        <time>2020-08-27T16:41:00.364Z</time>
      </trkpt>
      <trkpt lat="67.01622" lon="21.27536">
        <ele>276.468175</ele>
        <time>2020-08-27T16:41:13.263Z</time>
      </trkpt>
      <trkpt lat="67.01507" lon="21.27753">
        <ele>276.531071</ele>
        <time>2020-08-27T16:41:38.924Z</time>
      </trkpt>
      <trkpt lat="67.01418" lon="21.27887">
        <ele>276.730998</ele>
        <time>2020-08-27T16:41:58.076Z</time>
      </trkpt>
      <trkpt lat="67.01342" lon="21.27981">
        <ele>277.159094</ele>
        <time>2020-08-27T16:42:14.202Z</time>
      </trkpt>
      <trkpt lat="67.0125" lon="21.28062">
        <ele>277.700716</ele>
        <time>2020-08-27T16:42:33.179Z</time>
      </trkpt>
      <trkpt lat="67.01049" lon="21.28189">
        <ele>280.831307</ele>
        <time>2020-08-27T16:43:18.596Z</time>
      </trkpt>
      <trkpt lat="67.00952" lon="21.28278">
        <ele>284.632324</ele>
        <time>2020-08-27T16:43:48.247Z</time>
      </trkpt>
      <trkpt lat="67.00871" lon="21.28378">
        <ele>288.304802</ele>
        <time>2020-08-27T16:44:19.516Z</time>
      </trkpt>
      <trkpt lat="67.00742" lon="21.28584">
        <ele>295.764546</ele>
        <time>2020-08-27T16:45:12.031Z</time>
      </trkpt>
      <trkpt lat="67.00661" lon="21.28759">
        <ele>298.186778</ele>
        <time>2020-08-27T16:45:41.196Z</time>
      </trkpt>
      <trkpt lat="67.00539" lon="21.29133">
        <ele>300.16251</ele>
        <time>2020-08-27T16:46:18.100Z</time>
      </trkpt>
      <trkpt lat="67.00471" lon="21.29416">
        <ele>300.335893</ele>
        <time>2020-08-27T16:46:40.900Z</time>
      </trkpt>
      <trkpt lat="67.00418" lon="21.29669">
        <ele>300.328983</ele>
        <time>2020-08-27T16:47:00.715Z</time>
      </trkpt>
      <trkpt lat="67.00334" lon="21.30013">
        <ele>300.519992</ele>
        <time>2020-08-27T16:47:29.996Z</time>
      </trkpt>
      <trkpt lat="67.00283" lon="21.30262">
        <ele>300.505585</ele>
        <time>2020-08-27T16:47:50.161Z</time>
      </trkpt>
      <trkpt lat="67.00184" lon="21.30687">
        <ele>299.691262</ele>
        <time>2020-08-27T16:48:23.284Z</time>
      </trkpt>
      <trkpt lat="67.00173" lon="21.30725">
        <ele>299.552007</ele>
        <time>2020-08-27T16:48:26.150Z</time>
      </trkpt>
      <trkpt lat="67.00159" lon="21.30771">
        <ele>299.383366</ele>
        <time>2020-08-27T16:48:29.536Z</time>
      </trkpt>
      <trkpt lat="67.00129" lon="21.30871">
        <ele>298.773722</ele>
        <time>2020-08-27T16:48:36.817Z</time>
      </trkpt>
      <trkpt lat="67.00101" lon="21.30953">
        <ele>297.743669</ele>
        <time>2020-08-27T16:48:42.845Z</time>
      </trkpt>
      <trkpt lat="67.00066" lon="21.31058">
        <ele>296.439137</ele>
        <time>2020-08-27T16:48:50.208Z</time>
      </trkpt>
      <trkpt lat="66.9987" lon="21.31616">
        <ele>288.524846</ele>
        <time>2020-08-27T16:49:29.085Z</time>
      </trkpt>
      <trkpt lat="66.99683" lon="21.32098">
        <ele>282.974075</ele>
        <time>2020-08-27T16:50:06.461Z</time>
      </trkpt>
      <trkpt lat="66.99645" lon="21.32187">
        <ele>282.02517</ele>
        <time>2020-08-27T16:50:14.028Z</time>
      </trkpt>
      <trkpt lat="66.99638" lon="21.32202">
        <ele>281.938335</ele>
        <time>2020-08-27T16:50:15.384Z</time>
      </trkpt>
      <trkpt lat="66.99595" lon="21.32295">
        <ele>281.403836</ele>
        <time>2020-08-27T16:50:23.868Z</time>
      </trkpt>
      <trkpt lat="66.99535" lon="21.32422">
        <ele>280.660803</ele>
        <time>2020-08-27T16:50:36.116Z</time>
      </trkpt>
      <trkpt lat="66.99467" lon="21.32545">
        <ele>280.204541</ele>
        <time>2020-08-27T16:50:49.981Z</time>
      </trkpt>
      <trkpt lat="66.99377" lon="21.32689">
        <ele>279.935431</ele>
        <time>2020-08-27T16:51:08.266Z</time>
      </trkpt>
      <trkpt lat="66.9925" lon="21.3286">
        <ele>279.727004</ele>
        <time>2020-08-27T16:51:33.314Z</time>
      </trkpt>
      <trkpt lat="66.99156" lon="21.32963">
        <ele>279.684068</ele>
        <time>2020-08-27T16:51:51.204Z</time>
      </trkpt>
      <trkpt lat="66.99021" lon="21.33089">
        <ele>279.815723</ele>
        <time>2020-08-27T16:52:17.334Z</time>
      </trkpt>
      <trkpt lat="66.98644" lon="21.33407">
        <ele>281.831081</ele>
        <time>2020-08-27T16:53:35.041Z</time>
      </trkpt>
      <trkpt lat="66.98423" lon="21.33678">
        <ele>283.038136</ele>
        <time>2020-08-27T16:54:21.908Z</time>
      </trkpt>
      <trkpt lat="66.98252" lon="21.33985">
        <ele>285.006763</ele>
        <time>2020-08-27T16:55:05.135Z</time>
      </trkpt>
      <trkpt lat="66.9798" lon="21.34592">
        <ele>290.61523</ele>
        <time>2020-08-27T16:56:29.550Z</time>
      </trkpt>
      <trkpt lat="66.97879" lon="21.34779">
        <ele>291.532553</ele>
        <time>2020-08-27T16:56:55.657Z</time>
      </trkpt>
      <trkpt lat="66.97704" lon="21.35019">
        <ele>290.906298</ele>
        <time>2020-08-27T16:57:29.645Z</time>
      </trkpt>
      <trkpt lat="66.96592" lon="21.36413">
        <ele>269.360679</ele>
        <time>2020-08-27T17:00:27.111Z</time>
      </trkpt>
      <trkpt lat="66.96471" lon="21.36605">
        <ele>267.230967</ele>
        <time>2020-08-27T17:00:48.316Z</time>
      </trkpt>
      <trkpt lat="66.96348" lon="21.36823">
        <ele>265.454425</ele>
        <time>2020-08-27T17:01:11.074Z</time>
      </trkpt>
      <trkpt lat="66.96199" lon="21.3721">
        <ele>263.527092</ele>
        <time>2020-08-27T17:01:44.165Z</time>
      </trkpt>
      <trkpt lat="66.95992" lon="21.37922">
        <ele>261.36858</ele>
        <time>2020-08-27T17:02:40.753Z</time>
      </trkpt>
      <trkpt lat="66.9587" lon="21.38399">
        <ele>260.492114</ele>
        <time>2020-08-27T17:03:17.900Z</time>
      </trkpt>
      <trkpt lat="66.95786" lon="21.38877">
        <ele>260.011314</ele>
        <time>2020-08-27T17:03:53.344Z</time>
      </trkpt>
      <trkpt lat="66.95699" lon="21.39269">
        <ele>259.71658</ele>
        <time>2020-08-27T17:04:24.048Z</time>
      </trkpt>
      <trkpt lat="66.95611" lon="21.39575">
        <ele>259.542796</ele>
        <time>2020-08-27T17:04:49.840Z</time>
      </trkpt>
      <trkpt lat="66.954" lon="21.40077">
        <ele>259.437887</ele>
        <time>2020-08-27T17:05:41.234Z</time>
      </trkpt>
      <trkpt lat="66.95197" lon="21.40454">
        <ele>259.535782</ele>
        <time>2020-08-27T17:06:26.904Z</time>
      </trkpt>
      <trkpt lat="66.95112" lon="21.40651">
        <ele>259.389266</ele>
        <time>2020-08-27T17:06:46.687Z</time>
      </trkpt>
      <trkpt lat="66.94859" lon="21.41316">
        <ele>257.155938</ele>
        <time>2020-08-27T17:07:45.221Z</time>
      </trkpt>
      <trkpt lat="66.94608" lon="21.42027">
        <ele>255.875965</ele>
        <time>2020-08-27T17:08:47.953Z</time>
      </trkpt>
      <trkpt lat="66.94623" lon="21.4208">
        <ele>256.055026</ele>
        <time>2020-08-27T17:08:53.365Z</time>
      </trkpt>
      <trkpt lat="66.9462" lon="21.42155">
        <ele>256.257241</ele>
        <time>2020-08-27T17:08:59.497Z</time>
      </trkpt>
      <trkpt lat="66.94603" lon="21.42346">
        <ele>256.787413</ele>
        <time>2020-08-27T17:09:16.344Z</time>
      </trkpt>
      <trkpt lat="66.94518" lon="21.43129">
        <ele>259.615335</ele>
        <time>2020-08-27T17:10:25.589Z</time>
      </trkpt>
      <trkpt lat="66.94473" lon="21.43365">
        <ele>260.197945</ele>
        <time>2020-08-27T17:10:46.017Z</time>
      </trkpt>
      <trkpt lat="66.94414" lon="21.43592">
        <ele>260.388488</ele>
        <time>2020-08-27T17:11:06.293Z</time>
      </trkpt>
      <trkpt lat="66.94367" lon="21.43703">
        <ele>260.487521</ele>
        <time>2020-08-27T17:11:18.409Z</time>
      </trkpt>
      <trkpt lat="66.94027" lon="21.44158">
        <ele>260.951616</ele>
        <time>2020-08-27T17:12:31.394Z</time>
      </trkpt>
      <trkpt lat="66.93995" lon="21.44283">
        <ele>261.07121</ele>
        <time>2020-08-27T17:12:42.566Z</time>
      </trkpt>
      <trkpt lat="66.93976" lon="21.44245">
        <ele>261.119613</ele>
        <time>2020-08-27T17:12:46.907Z</time>
      </trkpt>
      <trkpt lat="66.93882" lon="21.44565">
        <ele>261.598628</ele>
        <time>2020-08-27T17:13:16.359Z</time>
      </trkpt>
      <trkpt lat="66.93787" lon="21.44908">
        <ele>262.011351</ele>
        <time>2020-08-27T17:13:48.259Z</time>
      </trkpt>
      <trkpt lat="66.93744" lon="21.45101">
        <ele>262.158693</ele>
        <time>2020-08-27T17:14:03.828Z</time>
      </trkpt>
      <trkpt lat="66.93716" lon="21.45231">
        <ele>261.454209</ele>
        <time>2020-08-27T17:14:13.305Z</time>
      </trkpt>
      <trkpt lat="66.93688" lon="21.45402">
        <ele>260.564768</ele>
        <time>2020-08-27T17:14:24.225Z</time>
      </trkpt>
      <trkpt lat="66.93654" lon="21.45635">
        <ele>258.760223</ele>
        <time>2020-08-27T17:14:37.845Z</time>
      </trkpt>
      <trkpt lat="66.93587" lon="21.46194">
        <ele>252.759261</ele>
        <time>2020-08-27T17:15:08.713Z</time>
      </trkpt>
      <trkpt lat="66.93542" lon="21.46492">
        <ele>249.53839</ele>
        <time>2020-08-27T17:15:25.461Z</time>
      </trkpt>
      <trkpt lat="66.93513" lon="21.46642">
        <ele>248.102299</ele>
        <time>2020-08-27T17:15:34.222Z</time>
      </trkpt>
      <trkpt lat="66.93448" lon="21.46926">
        <ele>247.277441</ele>
        <time>2020-08-27T17:15:53.377Z</time>
      </trkpt>
      <trkpt lat="66.93148" lon="21.47998">
        <ele>255.160692</ele>
        <time>2020-08-27T17:17:57.355Z</time>
      </trkpt>
      <trkpt lat="66.93023" lon="21.48489">
        <ele>255.900882</ele>
        <time>2020-08-27T17:18:43.324Z</time>
      </trkpt>
      <trkpt lat="66.9294" lon="21.4896">
        <ele>253.125292</ele>
        <time>2020-08-27T17:19:11.785Z</time>
      </trkpt>
      <trkpt lat="66.92879" lon="21.49509">
        <ele>250.349015</ele>
        <time>2020-08-27T17:19:44.068Z</time>
      </trkpt>
      <trkpt lat="66.92866" lon="21.49953">
        <ele>253.033407</ele>
        <time>2020-08-27T17:20:26.173Z</time>
      </trkpt>
      <trkpt lat="66.92859" lon="21.50353">
        <ele>256.950326</ele>
        <time>2020-08-27T17:21:10.592Z</time>
      </trkpt>
      <trkpt lat="66.92856" lon="21.50508">
        <ele>258.52082</ele>
        <time>2020-08-27T17:21:25.480Z</time>
      </trkpt>
      <trkpt lat="66.92855" lon="21.50538">
        <ele>258.559367</ele>
        <time>2020-08-27T17:21:28.074Z</time>
      </trkpt>
      <trkpt lat="66.92838" lon="21.50861">
        <ele>258.988112</ele>
        <time>2020-08-27T17:21:52.898Z</time>
      </trkpt>
      <trkpt lat="66.92823" lon="21.51039">
        <ele>258.559543</ele>
        <time>2020-08-27T17:22:03.999Z</time>
      </trkpt>
      <trkpt lat="66.9269" lon="21.52149">
        <ele>249.553571</ele>
        <time>2020-08-27T17:23:08.937Z</time>
      </trkpt>
      <trkpt lat="66.92624" lon="21.52513">
        <ele>244.610168</ele>
        <time>2020-08-27T17:23:28.761Z</time>
      </trkpt>
      <trkpt lat="66.92568" lon="21.52751">
        <ele>241.588671</ele>
        <time>2020-08-27T17:23:43.156Z</time>
      </trkpt>
      <trkpt lat="66.92582" lon="21.52782">
        <ele>241.349237</ele>
        <time>2020-08-27T17:23:45.858Z</time>
      </trkpt>
      <trkpt lat="66.9261" lon="21.52878">
        <ele>240.744985</ele>
        <time>2020-08-27T17:23:52.863Z</time>
      </trkpt>
      <trkpt lat="66.92612" lon="21.52895">
        <ele>240.653141</ele>
        <time>2020-08-27T17:23:53.953Z</time>
      </trkpt>
      <trkpt lat="66.92614" lon="21.52908">
        <ele>240.584053</ele>
        <time>2020-08-27T17:23:54.881Z</time>
      </trkpt>
      <trkpt lat="66.92621" lon="21.53076">
        <ele>239.724185</ele>
        <time>2020-08-27T17:24:05.853Z</time>
      </trkpt>
      <trkpt lat="66.92572" lon="21.53735">
        <ele>239.64531</ele>
        <time>2020-08-27T17:24:52.484Z</time>
      </trkpt>
      <trkpt lat="66.92552" lon="21.53863">
        <ele>239.721646</ele>
        <time>2020-08-27T17:25:02.244Z</time>
      </trkpt>
      <trkpt lat="66.92542" lon="21.53924">
        <ele>239.758673</ele>
        <time>2020-08-27T17:25:07.091Z</time>
      </trkpt>
      <trkpt lat="66.92532" lon="21.53962">
        <ele>239.784277</ele>
        <time>2020-08-27T17:25:10.493Z</time>
      </trkpt>
      <trkpt lat="66.92522" lon="21.54005">
        <ele>239.989401</ele>
        <time>2020-08-27T17:25:14.391Z</time>
      </trkpt>
      <trkpt lat="66.92509" lon="21.54057">
        <ele>240.259051</ele>
        <time>2020-08-27T17:25:19.098Z</time>
      </trkpt>
      <trkpt lat="66.92497" lon="21.54102">
        <ele>240.499473</ele>
        <time>2020-08-27T17:25:23.544Z</time>
      </trkpt>
      <trkpt lat="66.9246" lon="21.54214">
        <ele>241.140025</ele>
        <time>2020-08-27T17:25:35.688Z</time>
      </trkpt>
      <trkpt lat="66.92398" lon="21.54353">
        <ele>242.220418</ele>
        <time>2020-08-27T17:25:54.960Z</time>
      </trkpt>
      <trkpt lat="66.92259" lon="21.54548">
        <ele>245.026585</ele>
        <time>2020-08-27T17:26:33.048Z</time>
      </trkpt>
      <trkpt lat="66.92136" lon="21.54718">
        <ele>246.731218</ele>
        <time>2020-08-27T17:27:03.103Z</time>
      </trkpt>
      <trkpt lat="66.92018" lon="21.5487">
        <ele>248.844121</ele>
        <time>2020-08-27T17:27:31.058Z</time>
      </trkpt>
      <trkpt lat="66.91978" lon="21.54926">
        <ele>249.648547</ele>
        <time>2020-08-27T17:27:41.796Z</time>
      </trkpt>
      <trkpt lat="66.91929" lon="21.55022">
        <ele>251.055332</ele>
        <time>2020-08-27T17:27:58.907Z</time>
      </trkpt>
      <trkpt lat="66.9188" lon="21.55175">
        <ele>253.54224</ele>
        <time>2020-08-27T17:28:21.989Z</time>
      </trkpt>
      <trkpt lat="66.91849" lon="21.55306">
        <ele>255.466082</ele>
        <time>2020-08-27T17:28:39.194Z</time>
      </trkpt>
      <trkpt lat="66.91842" lon="21.55335">
        <ele>255.885095</ele>
        <time>2020-08-27T17:28:42.884Z</time>
      </trkpt>
      <trkpt lat="66.91797" lon="21.5548">
        <ele>256.255687</ele>
        <time>2020-08-27T17:29:01.275Z</time>
      </trkpt>
      <trkpt lat="66.9172" lon="21.557">
        <ele>256.479944</ele>
        <time>2020-08-27T17:29:19.308Z</time>
      </trkpt>
      <trkpt lat="66.91686" lon="21.55799">
        <ele>255.165687</ele>
        <time>2020-08-27T17:29:26.495Z</time>
      </trkpt>
      <trkpt lat="66.91658" lon="21.5587">
        <ele>254.179181</ele>
        <time>2020-08-27T17:29:31.832Z</time>
      </trkpt>
      <trkpt lat="66.91649" lon="21.55897">
        <ele>253.813517</ele>
        <time>2020-08-27T17:29:33.766Z</time>
      </trkpt>
      <trkpt lat="66.91566" lon="21.56131">
        <ele>250.251799</ele>
        <time>2020-08-27T17:29:50.053Z</time>
      </trkpt>
      <trkpt lat="66.91523" lon="21.56233">
        <ele>248.238056</ele>
        <time>2020-08-27T17:29:57.551Z</time>
      </trkpt>
      <trkpt lat="66.91512" lon="21.56255">
        <ele>247.743516</ele>
        <time>2020-08-27T17:29:59.443Z</time>
      </trkpt>
      <trkpt lat="66.91463" lon="21.56328">
        <ele>245.809385</ele>
        <time>2020-08-27T17:30:06.633Z</time>
      </trkpt>
      <trkpt lat="66.91433" lon="21.56381">
        <ele>244.726196</ele>
        <time>2020-08-27T17:30:11.330Z</time>
      </trkpt>
      <trkpt lat="66.91404" lon="21.56432">
        <ele>243.691235</ele>
        <time>2020-08-27T17:30:15.833Z</time>
      </trkpt>
      <trkpt lat="66.91369" lon="21.56518">
        <ele>242.261446</ele>
        <time>2020-08-27T17:30:22.072Z</time>
      </trkpt>
      <trkpt lat="66.91284" lon="21.56839">
        <ele>239.667866</ele>
        <time>2020-08-27T17:30:44.213Z</time>
      </trkpt>
      <trkpt lat="66.91216" lon="21.57033">
        <ele>238.8439</ele>
        <time>2020-08-27T17:31:01.837Z</time>
      </trkpt>
      <trkpt lat="66.91146" lon="21.57226">
        <ele>238.735092</ele>
        <time>2020-08-27T17:31:20.180Z</time>
      </trkpt>
      <trkpt lat="66.90979" lon="21.5769">
        <ele>238.321763</ele>
        <time>2020-08-27T17:32:02.801Z</time>
      </trkpt>
      <trkpt lat="66.90925" lon="21.57823">
        <ele>238.293536</ele>
        <time>2020-08-27T17:32:15.838Z</time>
      </trkpt>
      <trkpt lat="66.90844" lon="21.57965">
        <ele>238.256351</ele>
        <time>2020-08-27T17:32:33.591Z</time>
      </trkpt>
      <trkpt lat="66.90768" lon="21.58065">
        <ele>238.449031</ele>
        <time>2020-08-27T17:32:49.386Z</time>
      </trkpt>
      <trkpt lat="66.90731" lon="21.58114">
        <ele>238.548596</ele>
        <time>2020-08-27T17:32:57.408Z</time>
      </trkpt>
      <trkpt lat="66.9065" lon="21.58223">
        <ele>238.7477</ele>
        <time>2020-08-27T17:33:14.484Z</time>
      </trkpt>
      <trkpt lat="66.90618" lon="21.58271">
        <ele>238.818912</ele>
        <time>2020-08-27T17:33:21.271Z</time>
      </trkpt>
      <trkpt lat="66.90606" lon="21.5829">
        <ele>238.847832</ele>
        <time>2020-08-27T17:33:24.017Z</time>
      </trkpt>
      <trkpt lat="66.90555" lon="21.5839">
        <ele>238.972568</ele>
        <time>2020-08-27T17:33:35.723Z</time>
      </trkpt>
      <trkpt lat="66.905" lon="21.58578">
        <ele>239.133103</ele>
        <time>2020-08-27T17:33:52.593Z</time>
      </trkpt>
      <trkpt lat="66.90413" lon="21.589">
        <ele>239.358894</ele>
        <time>2020-08-27T17:34:21.073Z</time>
      </trkpt>
      <trkpt lat="66.90403" lon="21.59039">
        <ele>239.409222</ele>
        <time>2020-08-27T17:34:31.144Z</time>
      </trkpt>
      <trkpt lat="66.90399" lon="21.59083">
        <ele>239.424991</ele>
        <time>2020-08-27T17:34:34.331Z</time>
      </trkpt>
      <trkpt lat="66.90378" lon="21.59071">
        <ele>239.444443</ele>
        <time>2020-08-27T17:34:38.146Z</time>
      </trkpt>
      <trkpt lat="66.9034" lon="21.5904">
        <ele>239.480511</ele>
        <time>2020-08-27T17:34:45.292Z</time>
      </trkpt>
      <trkpt lat="66.90333" lon="21.59028">
        <ele>239.487368</ele>
        <time>2020-08-27T17:34:46.886Z</time>
      </trkpt>
      <trkpt lat="66.90221" lon="21.59362">
        <ele>239.492607</ele>
        <time>2020-08-27T17:35:17.377Z</time>
      </trkpt>
      <trkpt lat="66.90159" lon="21.59544">
        <ele>239.944642</ele>
        <time>2020-08-27T17:35:35.035Z</time>
      </trkpt>
      <trkpt lat="66.89853" lon="21.60438">
        <ele>242.100777</ele>
        <time>2020-08-27T17:37:06.998Z</time>
      </trkpt>
      <trkpt lat="66.88992" lon="21.62601">
        <ele>232.044988</ele>
        <time>2020-08-27T17:40:20.091Z</time>
      </trkpt>
      <trkpt lat="66.88543" lon="21.63654">
        <ele>204.648879</ele>
        <time>2020-08-27T17:41:34.511Z</time>
      </trkpt>
      <trkpt lat="66.88233" lon="21.64152">
        <ele>194.830279</ele>
        <time>2020-08-27T17:42:24.695Z</time>
      </trkpt>
      <trkpt lat="66.88022" lon="21.644">
        <ele>189.496103</ele>
        <time>2020-08-27T17:42:56.250Z</time>
      </trkpt>
      <trkpt lat="66.87809" lon="21.6465">
        <ele>186.356108</ele>
        <time>2020-08-27T17:43:32.298Z</time>
      </trkpt>
      <trkpt lat="66.87339" lon="21.65089">
        <ele>181.905831</ele>
        <time>2020-08-27T17:44:50.579Z</time>
      </trkpt>
      <trkpt lat="66.87085" lon="21.65349">
        <ele>180.277566</ele>
        <time>2020-08-27T17:45:34.888Z</time>
      </trkpt>
      <trkpt lat="66.86946" lon="21.65525">
        <ele>180.445213</ele>
        <time>2020-08-27T17:46:03.310Z</time>
      </trkpt>
      <trkpt lat="66.86356" lon="21.66542">
        <ele>188.559282</ele>
        <time>2020-08-27T17:48:37.753Z</time>
      </trkpt>
      <trkpt lat="66.86168" lon="21.66873">
        <ele>188.689798</ele>
        <time>2020-08-27T17:49:20.462Z</time>
      </trkpt>
      <trkpt lat="66.86042" lon="21.67036">
        <ele>186.994626</ele>
        <time>2020-08-27T17:49:41.260Z</time>
      </trkpt>
      <trkpt lat="66.85899" lon="21.67196">
        <ele>183.477238</ele>
        <time>2020-08-27T17:50:02.571Z</time>
      </trkpt>
      <trkpt lat="66.85666" lon="21.67405">
        <ele>178.397125</ele>
        <time>2020-08-27T17:50:37.340Z</time>
      </trkpt>
      <trkpt lat="66.85415" lon="21.67706">
        <ele>173.67573</ele>
        <time>2020-08-27T17:51:17.865Z</time>
      </trkpt>
      <trkpt lat="66.85157" lon="21.68068">
        <ele>168.350686</ele>
        <time>2020-08-27T17:51:59.620Z</time>
      </trkpt>
      <trkpt lat="66.85016" lon="21.68323">
        <ele>166.243872</ele>
        <time>2020-08-27T17:52:25.312Z</time>
      </trkpt>
      <trkpt lat="66.84859" lon="21.68688">
        <ele>165.130562</ele>
        <time>2020-08-27T17:53:02.302Z</time>
      </trkpt>
      <trkpt lat="66.84659" lon="21.69405">
        <ele>161.73418</ele>
        <time>2020-08-27T17:53:57.510Z</time>
      </trkpt>
      <trkpt lat="66.84436" lon="21.7028">
        <ele>151.024136</ele>
        <time>2020-08-27T17:54:51.473Z</time>
      </trkpt>
      <trkpt lat="66.84228" lon="21.70974">
        <ele>150.465963</ele>
        <time>2020-08-27T17:55:49.741Z</time>
      </trkpt>
      <trkpt lat="66.83946" lon="21.71784">
        <ele>162.439411</ele>
        <time>2020-08-27T17:57:51.025Z</time>
      </trkpt>
      <trkpt lat="66.83846" lon="21.721">
        <ele>164.467902</ele>
        <time>2020-08-27T17:58:23.154Z</time>
      </trkpt>
      <trkpt lat="66.83754" lon="21.72477">
        <ele>167.496847</ele>
        <time>2020-08-27T17:59:02.971Z</time>
      </trkpt>
      <trkpt lat="66.8366" lon="21.73061">
        <ele>174.294577</ele>
        <time>2020-08-27T18:00:13.224Z</time>
      </trkpt>
      <trkpt lat="66.83592" lon="21.73731">
        <ele>178.395735</ele>
        <time>2020-08-27T18:01:12.626Z</time>
      </trkpt>
      <trkpt lat="66.83499" lon="21.74552">
        <ele>179.69148</ele>
        <time>2020-08-27T18:02:22.875Z</time>
      </trkpt>
      <trkpt lat="66.83383" lon="21.75344">
        <ele>169.259617</ele>
        <time>2020-08-27T18:03:04.996Z</time>
      </trkpt>
      <trkpt lat="66.83189" lon="21.76762">
        <ele>153.450784</ele>
        <time>2020-08-27T18:04:24.774Z</time>
      </trkpt>
      <trkpt lat="66.83146" lon="21.77078">
        <ele>150.045897</ele>
        <time>2020-08-27T18:04:44.360Z</time>
      </trkpt>
      <trkpt lat="66.83073" lon="21.77454">
        <ele>144.001041</ele>
        <time>2020-08-27T18:05:05.179Z</time>
      </trkpt>
      <trkpt lat="66.82984" lon="21.77799">
        <ele>137.804406</ele>
        <time>2020-08-27T18:05:24.667Z</time>
      </trkpt>
      <trkpt lat="66.8283" lon="21.78267">
        <ele>134.753156</ele>
        <time>2020-08-27T18:06:01.917Z</time>
      </trkpt>
      <trkpt lat="66.82718" lon="21.78529">
        <ele>136.62894</ele>
        <time>2020-08-27T18:06:38.007Z</time>
      </trkpt>
      <trkpt lat="66.82592" lon="21.78777">
        <ele>139.686373</ele>
        <time>2020-08-27T18:07:18.163Z</time>
      </trkpt>
      <trkpt lat="66.82383" lon="21.79069">
        <ele>142.932172</ele>
        <time>2020-08-27T18:08:12.464Z</time>
      </trkpt>
      <trkpt lat="66.81944" lon="21.79395">
        <ele>141.008292</ele>
        <time>2020-08-27T18:09:28.040Z</time>
      </trkpt>
      <trkpt lat="66.81687" lon="21.79687">
        <ele>136.632622</ele>
        <time>2020-08-27T18:10:08.785Z</time>
      </trkpt>
      <trkpt lat="66.8135" lon="21.80164">
        <ele>129.5929</ele>
        <time>2020-08-27T18:11:03.617Z</time>
      </trkpt>
      <trkpt lat="66.8095" lon="21.80803">
        <ele>126.827444</ele>
        <time>2020-08-27T18:12:19.981Z</time>
      </trkpt>
      <trkpt lat="66.80731" lon="21.81119">
        <ele>126.983812</ele>
        <time>2020-08-27T18:13:09.926Z</time>
      </trkpt>
      <trkpt lat="66.807" lon="21.81163">
        <ele>125.626651</ele>
        <time>2020-08-27T18:13:15.178Z</time>
      </trkpt>
      <trkpt lat="66.80084" lon="21.81533">
        <ele>102.026091</ele>
        <time>2020-08-27T18:14:34.533Z</time>
      </trkpt>
      <trkpt lat="66.7996" lon="21.81613">
        <ele>101.265717</ele>
        <time>2020-08-27T18:14:52.589Z</time>
      </trkpt>
      <trkpt lat="66.79851" lon="21.81678">
        <ele>103.209714</ele>
        <time>2020-08-27T18:15:22.778Z</time>
      </trkpt>
      <trkpt lat="66.79659" lon="21.81799">
        <ele>115.761218</ele>
        <time>2020-08-27T18:16:46.771Z</time>
      </trkpt>
      <trkpt lat="66.7951" lon="21.81951">
        <ele>122.442312</ele>
        <time>2020-08-27T18:17:38.962Z</time>
      </trkpt>
      <trkpt lat="66.79361" lon="21.82159">
        <ele>119.775137</ele>
        <time>2020-08-27T18:18:02.423Z</time>
      </trkpt>
      <trkpt lat="66.792" lon="21.82417">
        <ele>112.500383</ele>
        <time>2020-08-27T18:18:25.469Z</time>
      </trkpt>
      <trkpt lat="66.78574" lon="21.83782">
        <ele>117.122603</ele>
        <time>2020-08-27T18:21:11.771Z</time>
      </trkpt>
      <trkpt lat="66.78401" lon="21.84171">
        <ele>120.911322</ele>
        <time>2020-08-27T18:22:05.665Z</time>
      </trkpt>
      <trkpt lat="66.78208" lon="21.84543">
        <ele>125.895533</ele>
        <time>2020-08-27T18:23:08.948Z</time>
      </trkpt>
      <trkpt lat="66.7781" lon="21.85062">
        <ele>128.693367</ele>
        <time>2020-08-27T18:24:35.970Z</time>
      </trkpt>
      <trkpt lat="66.77685" lon="21.85247">
        <ele>128.818927</ele>
        <time>2020-08-27T18:24:58.774Z</time>
      </trkpt>
      <trkpt lat="66.7738" lon="21.85876">
        <ele>131.362743</ele>
        <time>2020-08-27T18:26:25.275Z</time>
      </trkpt>
      <trkpt lat="66.7725" lon="21.86107">
        <ele>127.061778</ele>
        <time>2020-08-27T18:26:46.052Z</time>
      </trkpt>
      <trkpt lat="66.77128" lon="21.86286">
        <ele>123.448415</ele>
        <time>2020-08-27T18:27:03.129Z</time>
      </trkpt>
      <trkpt lat="66.77045" lon="21.86408">
        <ele>121.747779</ele>
        <time>2020-08-27T18:27:19.224Z</time>
      </trkpt>
      <trkpt lat="66.77052" lon="21.86492">
        <ele>123.247663</ele>
        <time>2020-08-27T18:27:29.211Z</time>
      </trkpt>
      <trkpt lat="66.77039" lon="21.86534">
        <ele>124.323119</ele>
        <time>2020-08-27T18:27:36.531Z</time>
      </trkpt>
      <trkpt lat="66.76904" lon="21.86774">
        <ele>132.120466</ele>
        <time>2020-08-27T18:28:39.870Z</time>
      </trkpt>
      <trkpt lat="66.76824" lon="21.86949">
        <ele>135.776825</ele>
        <time>2020-08-27T18:29:11.246Z</time>
      </trkpt>
      <trkpt lat="66.76497" lon="21.87726">
        <ele>135.239433</ele>
        <time>2020-08-27T18:30:32.698Z</time>
      </trkpt>
      <trkpt lat="66.76397" lon="21.87961">
        <ele>128.895989</ele>
        <time>2020-08-27T18:30:48.839Z</time>
      </trkpt>
      <trkpt lat="66.7627" lon="21.88324">
        <ele>113.70457</ele>
        <time>2020-08-27T18:31:09.942Z</time>
      </trkpt>
      <trkpt lat="66.76207" lon="21.88456">
        <ele>111.01654</ele>
        <time>2020-08-27T18:31:19.357Z</time>
      </trkpt>
      <trkpt lat="66.76129" lon="21.8857">
        <ele>109.572953</ele>
        <time>2020-08-27T18:31:34.789Z</time>
      </trkpt>
      <trkpt lat="66.75882" lon="21.88719">
        <ele>134.767409</ele>
        <time>2020-08-27T18:33:57.330Z</time>
      </trkpt>
      <trkpt lat="66.75814" lon="21.88791">
        <ele>141.970539</ele>
        <time>2020-08-27T18:34:36.615Z</time>
      </trkpt>
      <trkpt lat="66.74995" lon="21.89647">
        <ele>162.64963</ele>
        <time>2020-08-27T18:38:11.506Z</time>
      </trkpt>
      <trkpt lat="66.7497" lon="21.8961">
        <ele>163.252746</ele>
        <time>2020-08-27T18:38:18.936Z</time>
      </trkpt>
      <trkpt lat="66.74773" lon="21.90024">
        <ele>168.549979</ele>
        <time>2020-08-27T18:39:24.429Z</time>
      </trkpt>
      <trkpt lat="66.74598" lon="21.90498">
        <ele>171.808495</ele>
        <time>2020-08-27T18:40:13.790Z</time>
      </trkpt>
      <trkpt lat="66.74303" lon="21.91532">
        <ele>185.886986</ele>
        <time>2020-08-27T18:42:48.288Z</time>
      </trkpt>
      <trkpt lat="66.73978" lon="21.92476">
        <ele>156.680999</ele>
        <time>2020-08-27T18:43:45.000Z</time>
      </trkpt>
      <trkpt lat="66.737" lon="21.93214">
        <ele>138.424617</ele>
        <time>2020-08-27T18:44:34.207Z</time>
      </trkpt>
      <trkpt lat="66.73198" lon="21.94364">
        <ele>139.472746</ele>
        <time>2020-08-27T18:46:51.398Z</time>
      </trkpt>
      <trkpt lat="66.72689" lon="21.95429">
        <ele>128.546518</ele>
        <time>2020-08-27T18:48:24.778Z</time>
      </trkpt>
      <trkpt lat="66.72282" lon="21.96253">
        <ele>127.515498</ele>
        <time>2020-08-27T18:49:54.522Z</time>
      </trkpt>
      <trkpt lat="66.71577" lon="21.97506">
        <ele>143.392393</ele>
        <time>2020-08-27T18:53:25.706Z</time>
      </trkpt>
      <trkpt lat="66.71085" lon="21.98331">
        <ele>135.126739</ele>
        <time>2020-08-27T18:54:52.354Z</time>
      </trkpt>
      <trkpt lat="66.71015" lon="21.98455">
        <ele>133.647568</ele>
        <time>2020-08-27T18:55:03.032Z</time>
      </trkpt>
      <trkpt lat="66.70994" lon="21.98497">
        <ele>133.181077</ele>
        <time>2020-08-27T18:55:06.479Z</time>
      </trkpt>
      <trkpt lat="66.70532" lon="21.99428">
        <ele>138.702522</ele>
        <time>2020-08-27T18:57:16.952Z</time>
      </trkpt>
      <trkpt lat="66.70036" lon="22.00475">
        <ele>141.586628</ele>
        <time>2020-08-27T18:59:17.898Z</time>
      </trkpt>
      <trkpt lat="66.69662" lon="22.01335">
        <ele>149.067896</ele>
        <time>2020-08-27T19:01:24.120Z</time>
      </trkpt>
      <trkpt lat="66.69516" lon="22.01843">
        <ele>140.417439</ele>
        <time>2020-08-27T19:01:54.385Z</time>
      </trkpt>
      <trkpt lat="66.69453" lon="22.02155">
        <ele>138.658723</ele>
        <time>2020-08-27T19:02:12.209Z</time>
      </trkpt>
      <trkpt lat="66.69297" lon="22.02891">
        <ele>148.206498</ele>
        <time>2020-08-27T19:04:01.134Z</time>
      </trkpt>
      <trkpt lat="66.6917" lon="22.03578">
        <ele>147.942668</ele>
        <time>2020-08-27T19:04:48.290Z</time>
      </trkpt>
      <trkpt lat="66.69025" lon="22.04601">
        <ele>144.444136</ele>
        <time>2020-08-27T19:06:01.349Z</time>
      </trkpt>
      <trkpt lat="66.68964" lon="22.04997">
        <ele>137.71876</ele>
        <time>2020-08-27T19:06:21.665Z</time>
      </trkpt>
      <trkpt lat="66.68884" lon="22.05369">
        <ele>129.265323</ele>
        <time>2020-08-27T19:06:41.477Z</time>
      </trkpt>
      <trkpt lat="66.68786" lon="22.05711">
        <ele>124.039401</ele>
        <time>2020-08-27T19:07:03.619Z</time>
      </trkpt>
      <trkpt lat="66.68576" lon="22.06329">
        <ele>121.566062</ele>
        <time>2020-08-27T19:07:57.660Z</time>
      </trkpt>
      <trkpt lat="66.68453" lon="22.0681">
        <ele>118.227396</ele>
        <time>2020-08-27T19:08:30.289Z</time>
      </trkpt>
      <trkpt lat="66.67808" lon="22.10535">
        <ele>99.509604</ele>
        <time>2020-08-27T19:12:34.235Z</time>
      </trkpt>
      <trkpt lat="66.67502" lon="22.12217">
        <ele>111.042031</ele>
        <time>2020-08-27T19:15:25.668Z</time>
      </trkpt>
      <trkpt lat="66.67305" lon="22.13075">
        <ele>116.106863</ele>
        <time>2020-08-27T19:16:55.702Z</time>
      </trkpt>
      <trkpt lat="66.67155" lon="22.13664">
        <ele>113.880446</ele>
        <time>2020-08-27T19:17:38.111Z</time>
      </trkpt>
      <trkpt lat="66.6704" lon="22.14088">
        <ele>109.579543</ele>
        <time>2020-08-27T19:18:06.026Z</time>
      </trkpt>
      <trkpt lat="66.6689" lon="22.14637">
        <ele>105.93953</ele>
        <time>2020-08-27T19:18:45.230Z</time>
      </trkpt>
      <trkpt lat="66.66204" lon="22.16697">
        <ele>100.717139</ele>
        <time>2020-08-27T19:21:42.412Z</time>
      </trkpt>
      <trkpt lat="66.66103" lon="22.16954">
        <ele>100.175046</ele>
        <time>2020-08-27T19:22:06.361Z</time>
      </trkpt>
      <trkpt lat="66.65985" lon="22.17192">
        <ele>99.834169</ele>
        <time>2020-08-27T19:22:31.931Z</time>
      </trkpt>
      <trkpt lat="66.65848" lon="22.17422">
        <ele>100.075673</ele>
        <time>2020-08-27T19:23:01.929Z</time>
      </trkpt>
      <trkpt lat="66.65833" lon="22.17446">
        <ele>100.232524</ele>
        <time>2020-08-27T19:23:05.313Z</time>
      </trkpt>
      <trkpt lat="66.65745" lon="22.17565">
        <ele>101.13929</ele>
        <time>2020-08-27T19:23:25.796Z</time>
      </trkpt>
      <trkpt lat="66.65627" lon="22.17689">
        <ele>102.792464</ele>
        <time>2020-08-27T19:23:54.662Z</time>
      </trkpt>
      <trkpt lat="66.65609" lon="22.17707">
        <ele>103.098352</ele>
        <time>2020-08-27T19:23:59.265Z</time>
      </trkpt>
      <trkpt lat="66.65465" lon="22.17838">
        <ele>105.31404</ele>
        <time>2020-08-27T19:24:34.673Z</time>
      </trkpt>
      <trkpt lat="66.65427" lon="22.17873">
        <ele>105.838067</ele>
        <time>2020-08-27T19:24:43.634Z</time>
      </trkpt>
      <trkpt lat="66.65273" lon="22.18008">
        <ele>106.914875</ele>
        <time>2020-08-27T19:25:17.577Z</time>
      </trkpt>
      <trkpt lat="66.65101" lon="22.18168">
        <ele>106.361451</ele>
        <time>2020-08-27T19:25:47.388Z</time>
      </trkpt>
      <trkpt lat="66.64973" lon="22.18287">
        <ele>106.01364</ele>
        <time>2020-08-27T19:26:08.557Z</time>
      </trkpt>
      <trkpt lat="66.64789" lon="22.18483">
        <ele>107.387376</ele>
        <time>2020-08-27T19:26:52.500Z</time>
      </trkpt>
      <trkpt lat="66.64659" lon="22.18689">
        <ele>108.239218</ele>
        <time>2020-08-27T19:27:22.923Z</time>
      </trkpt>
      <trkpt lat="66.64537" lon="22.18928">
        <ele>107.960663</ele>
        <time>2020-08-27T19:27:47.991Z</time>
      </trkpt>
      <trkpt lat="66.64433" lon="22.1918">
        <ele>108.295331</ele>
        <time>2020-08-27T19:28:13.930Z</time>
      </trkpt>
      <trkpt lat="66.64316" lon="22.19431">
        <ele>110.983744</ele>
        <time>2020-08-27T19:28:49.666Z</time>
      </trkpt>
      <trkpt lat="66.64196" lon="22.19666">
        <ele>115.680099</ele>
        <time>2020-08-27T19:29:32.007Z</time>
      </trkpt>
      <trkpt lat="66.64014" lon="22.19903">
        <ele>123.988336</ele>
        <time>2020-08-27T19:30:36.961Z</time>
      </trkpt>
      <trkpt lat="66.64001" lon="22.19844">
        <ele>125.161064</ele>
        <time>2020-08-27T19:30:46.357Z</time>
      </trkpt>
      <trkpt lat="66.63972" lon="22.19845">
        <ele>126.334823</ele>
        <time>2020-08-27T19:30:55.899Z</time>
      </trkpt>
      <trkpt lat="66.63638" lon="22.19954">
        <ele>137.113387</ele>
        <time>2020-08-27T19:32:33.760Z</time>
      </trkpt>
      <trkpt lat="66.63557" lon="22.20001">
        <ele>137.688188</ele>
        <time>2020-08-27T19:32:52.424Z</time>
      </trkpt>
      <trkpt lat="66.63408" lon="22.20126">
        <ele>137.14273</ele>
        <time>2020-08-27T19:33:19.180Z</time>
      </trkpt>
      <trkpt lat="66.6331" lon="22.20223">
        <ele>135.227445</ele>
        <time>2020-08-27T19:33:34.493Z</time>
      </trkpt>
      <trkpt lat="66.63171" lon="22.20397">
        <ele>132.772029</ele>
        <time>2020-08-27T19:33:56.921Z</time>
      </trkpt>
      <trkpt lat="66.63093" lon="22.20507">
        <ele>132.0862</ele>
        <time>2020-08-27T19:34:14.324Z</time>
      </trkpt>
      <trkpt lat="66.62985" lon="22.20689">
        <ele>132.504044</ele>
        <time>2020-08-27T19:34:41.791Z</time>
      </trkpt>
      <trkpt lat="66.62961" lon="22.2073">
        <ele>132.29647</ele>
        <time>2020-08-27T19:34:47.270Z</time>
      </trkpt>
      <trkpt lat="66.62824" lon="22.20954">
        <ele>129.525257</ele>
        <time>2020-08-27T19:35:11.515Z</time>
      </trkpt>
      <trkpt lat="66.62717" lon="22.21158">
        <ele>126.443059</ele>
        <time>2020-08-27T19:35:30.341Z</time>
      </trkpt>
      <trkpt lat="66.62636" lon="22.2135">
        <ele>124.70413</ele>
        <time>2020-08-27T19:35:47.452Z</time>
      </trkpt>
      <trkpt lat="66.6256" lon="22.21556">
        <ele>123.556633</ele>
        <time>2020-08-27T19:36:06.422Z</time>
      </trkpt>
      <trkpt lat="66.62221" lon="22.22666">
        <ele>118.74712</ele>
        <time>2020-08-27T19:37:37.848Z</time>
      </trkpt>
      <trkpt lat="66.62226" lon="22.22717">
        <ele>118.559301</ele>
        <time>2020-08-27T19:37:41.109Z</time>
      </trkpt>
      <trkpt lat="66.62056" lon="22.2298">
        <ele>117.281025</ele>
        <time>2020-08-27T19:38:12.381Z</time>
      </trkpt>
      <trkpt lat="66.61888" lon="22.23238">
        <ele>116.983363</ele>
        <time>2020-08-27T19:38:51.072Z</time>
      </trkpt>
      <trkpt lat="66.61289" lon="22.23959">
        <ele>112.858262</ele>
        <time>2020-08-27T19:40:36.770Z</time>
      </trkpt>
      <trkpt lat="66.6103" lon="22.24353">
        <ele>111.443156</ele>
        <time>2020-08-27T19:41:28.940Z</time>
      </trkpt>
      <trkpt lat="66.60682" lon="22.2509">
        <ele>103.446445</ele>
        <time>2020-08-27T19:42:33.347Z</time>
      </trkpt>
      <trkpt lat="66.60546" lon="22.25298">
        <ele>101.214058</ele>
        <time>2020-08-27T19:42:57.085Z</time>
      </trkpt>
      <trkpt lat="66.60364" lon="22.25518">
        <ele>99.351997</ele>
        <time>2020-08-27T19:43:29.356Z</time>
      </trkpt>
      <trkpt lat="66.60044" lon="22.2583">
        <ele>95.641446</ele>
        <time>2020-08-27T19:44:21.822Z</time>
      </trkpt>
      <trkpt lat="66.59851" lon="22.26082">
        <ele>94.245814</ele>
        <time>2020-08-27T19:44:54.515Z</time>
      </trkpt>
      <trkpt lat="66.59767" lon="22.2619">
        <ele>94.718975</ele>
        <time>2020-08-27T19:45:14.967Z</time>
      </trkpt>
      <trkpt lat="66.59682" lon="22.26289">
        <ele>97.866035</ele>
        <time>2020-08-27T19:45:41.967Z</time>
      </trkpt>
      <trkpt lat="66.59595" lon="22.2639">
        <ele>101.459631</ele>
        <time>2020-08-27T19:46:12.775Z</time>
      </trkpt>
      <trkpt lat="66.59414" lon="22.26516">
        <ele>108.869182</ele>
        <time>2020-08-27T19:47:11.845Z</time>
      </trkpt>
      <trkpt lat="66.58937" lon="22.26654">
        <ele>116.687651</ele>
        <time>2020-08-27T19:49:04.624Z</time>
      </trkpt>
      <trkpt lat="66.58705" lon="22.26751">
        <ele>114.34584</ele>
        <time>2020-08-27T19:49:39.912Z</time>
      </trkpt>
      <trkpt lat="66.58473" lon="22.26894">
        <ele>106.521119</ele>
        <time>2020-08-27T19:50:10.477Z</time>
      </trkpt>
      <trkpt lat="66.58236" lon="22.27094">
        <ele>99.350276</ele>
        <time>2020-08-27T19:50:43.744Z</time>
      </trkpt>
      <trkpt lat="66.58091" lon="22.27272">
        <ele>96.968185</ele>
        <time>2020-08-27T19:51:06.559Z</time>
      </trkpt>
      <trkpt lat="66.57695" lon="22.27787">
        <ele>99.046359</ele>
        <time>2020-08-27T19:52:35.815Z</time>
      </trkpt>
      <trkpt lat="66.57623" lon="22.27884">
        <ele>99.926883</ele>
        <time>2020-08-27T19:52:53.567Z</time>
      </trkpt>
      <trkpt lat="66.57054" lon="22.28653">
        <ele>106.783515</ele>
        <time>2020-08-27T19:55:11.962Z</time>
      </trkpt>
      <trkpt lat="66.56885" lon="22.28889">
        <ele>107.056223</ele>
        <time>2020-08-27T19:55:47.595Z</time>
      </trkpt>
      <trkpt lat="66.56794" lon="22.2904">
        <ele>106.446668</ele>
        <time>2020-08-27T19:56:05.116Z</time>
      </trkpt>
      <trkpt lat="66.56684" lon="22.29261">
        <ele>104.885472</ele>
        <time>2020-08-27T19:56:26.406Z</time>
      </trkpt>
      <trkpt lat="66.56583" lon="22.29503">
        <ele>103.300462</ele>
        <time>2020-08-27T19:56:47.275Z</time>
      </trkpt>
      <trkpt lat="66.5623" lon="22.30676">
        <ele>98.155841</ele>
        <time>2020-08-27T19:58:18.473Z</time>
      </trkpt>
      <trkpt lat="66.56076" lon="22.31059">
        <ele>98.948932</ele>
        <time>2020-08-27T19:59:01.371Z</time>
      </trkpt>
      <trkpt lat="66.55907" lon="22.31374">
        <ele>100.887734</ele>
        <time>2020-08-27T19:59:45.925Z</time>
      </trkpt>
      <trkpt lat="66.55832" lon="22.3148">
        <ele>101.35591</ele>
        <time>2020-08-27T20:00:02.918Z</time>
      </trkpt>
      <trkpt lat="66.55561" lon="22.31859">
        <ele>103.046102</ele>
        <time>2020-08-27T20:01:02.085Z</time>
      </trkpt>
      <trkpt lat="66.55445" lon="22.32094">
        <ele>104.688107</ele>
        <time>2020-08-27T20:01:35.056Z</time>
      </trkpt>
      <trkpt lat="66.55343" lon="22.32332">
        <ele>106.290793</ele>
        <time>2020-08-27T20:02:06.000Z</time>
      </trkpt>
      <trkpt lat="66.55183" lon="22.32868">
        <ele>107.499365</ele>
        <time>2020-08-27T20:02:57.500Z</time>
      </trkpt>
      <trkpt lat="66.54998" lon="22.33589">
        <ele>106.367199</ele>
        <time>2020-08-27T20:03:55.398Z</time>
      </trkpt>
      <trkpt lat="66.54766" lon="22.3455">
        <ele>100.899902</ele>
        <time>2020-08-27T20:05:02.003Z</time>
      </trkpt>
      <trkpt lat="66.54637" lon="22.3503">
        <ele>98.950881</ele>
        <time>2020-08-27T20:05:39.389Z</time>
      </trkpt>
      <trkpt lat="66.54565" lon="22.35267">
        <ele>97.076114</ele>
        <time>2020-08-27T20:05:57.301Z</time>
      </trkpt>
      <trkpt lat="66.54493" lon="22.35477">
        <ele>94.898876</ele>
        <time>2020-08-27T20:06:12.435Z</time>
      </trkpt>
      <trkpt lat="66.54337" lon="22.35906">
        <ele>90.744963</ele>
        <time>2020-08-27T20:06:43.820Z</time>
      </trkpt>
      <trkpt lat="66.54009" lon="22.36754">
        <ele>95.162384</ele>
        <time>2020-08-27T20:08:27.332Z</time>
      </trkpt>
      <trkpt lat="66.53756" lon="22.37431">
        <ele>101.220598</ele>
        <time>2020-08-27T20:09:50.982Z</time>
      </trkpt>
      <trkpt lat="66.53673" lon="22.37692">
        <ele>105.030086</ele>
        <time>2020-08-27T20:10:27.815Z</time>
      </trkpt>
      <trkpt lat="66.53612" lon="22.37937">
        <ele>109.713583</ele>
        <time>2020-08-27T20:11:03.798Z</time>
      </trkpt>
      <trkpt lat="66.53557" lon="22.38224">
        <ele>114.959366</ele>
        <time>2020-08-27T20:11:44.570Z</time>
      </trkpt>
      <trkpt lat="66.53496" lon="22.3859">
        <ele>120.953387</ele>
        <time>2020-08-27T20:12:33.135Z</time>
      </trkpt>
      <trkpt lat="66.53454" lon="22.38979">
        <ele>124.939152</ele>
        <time>2020-08-27T20:13:14.779Z</time>
      </trkpt>
      <trkpt lat="66.53351" lon="22.40151">
        <ele>126.029985</ele>
        <time>2020-08-27T20:14:41.896Z</time>
      </trkpt>
      <trkpt lat="66.53312" lon="22.40488">
        <ele>125.627782</ele>
        <time>2020-08-27T20:15:06.446Z</time>
      </trkpt>
      <trkpt lat="66.53261" lon="22.40793">
        <ele>124.371212</ele>
        <time>2020-08-27T20:15:27.324Z</time>
      </trkpt>
      <trkpt lat="66.5316" lon="22.41245">
        <ele>118.809031</ele>
        <time>2020-08-27T20:15:55.593Z</time>
      </trkpt>
      <trkpt lat="66.52802" lon="22.42753">
        <ele>91.465623</ele>
        <time>2020-08-27T20:17:22.672Z</time>
      </trkpt>
      <trkpt lat="66.52677" lon="22.43238">
        <ele>90.543073</ele>
        <time>2020-08-27T20:18:04.009Z</time>
      </trkpt>
      <trkpt lat="66.52608" lon="22.43453">
        <ele>91.562057</ele>
        <time>2020-08-27T20:18:28.763Z</time>
      </trkpt>
      <trkpt lat="66.5253" lon="22.43652">
        <ele>93.34822</ele>
        <time>2020-08-27T20:18:54.473Z</time>
      </trkpt>
      <trkpt lat="66.5236" lon="22.44009">
        <ele>97.159544</ele>
        <time>2020-08-27T20:19:45.965Z</time>
      </trkpt>
      <trkpt lat="66.52225" lon="22.44209">
        <ele>100.235949</ele>
        <time>2020-08-27T20:20:23.946Z</time>
      </trkpt>
      <trkpt lat="66.52084" lon="22.44368">
        <ele>103.175503</ele>
        <time>2020-08-27T20:21:01.822Z</time>
      </trkpt>
      <trkpt lat="66.51717" lon="22.44712">
        <ele>108.359556</ele>
        <time>2020-08-27T20:22:30.467Z</time>
      </trkpt>
      <trkpt lat="66.50015" lon="22.4615">
        <ele>83.325247</ele>
        <time>2020-08-27T20:26:56.248Z</time>
      </trkpt>
      <trkpt lat="66.4973" lon="22.46496">
        <ele>78.982983</ele>
        <time>2020-08-27T20:27:43.504Z</time>
      </trkpt>
      <trkpt lat="66.49741" lon="22.46554">
        <ele>78.630373</ele>
        <time>2020-08-27T20:27:47.407Z</time>
      </trkpt>
      <trkpt lat="66.49522" lon="22.47078">
        <ele>75.575252</ele>
        <time>2020-08-27T20:28:35.747Z</time>
      </trkpt>
      <trkpt lat="66.49187" lon="22.47897">
        <ele>73.589102</ele>
        <time>2020-08-27T20:29:58.750Z</time>
      </trkpt>
      <trkpt lat="66.49145" lon="22.47987">
        <ele>73.283533</ele>
        <time>2020-08-27T20:30:08.089Z</time>
      </trkpt>
      <trkpt lat="66.49108" lon="22.48045">
        <ele>73.044995</ele>
        <time>2020-08-27T20:30:15.331Z</time>
      </trkpt>
      <trkpt lat="66.49031" lon="22.48132">
        <ele>72.902793</ele>
        <time>2020-08-27T20:30:29.841Z</time>
      </trkpt>
      <trkpt lat="66.48962" lon="22.48183">
        <ele>73.788133</ele>
        <time>2020-08-27T20:30:43.368Z</time>
      </trkpt>
      <trkpt lat="66.48416" lon="22.48489">
        <ele>80.925358</ele>
        <time>2020-08-27T20:32:54.451Z</time>
      </trkpt>
      <trkpt lat="66.48405" lon="22.48436">
        <ele>81.272234</ele>
        <time>2020-08-27T20:33:00.279Z</time>
      </trkpt>
      <trkpt lat="66.4824" lon="22.48678">
        <ele>83.317189</ele>
        <time>2020-08-27T20:33:41.602Z</time>
      </trkpt>
      <trkpt lat="66.47574" lon="22.49652">
        <ele>84.220272</ele>
        <time>2020-08-27T20:36:02.363Z</time>
      </trkpt>
      <trkpt lat="66.47438" lon="22.49828">
        <ele>82.719131</ele>
        <time>2020-08-27T20:36:25.438Z</time>
      </trkpt>
      <trkpt lat="66.47361" lon="22.49913">
        <ele>81.93609</ele>
        <time>2020-08-27T20:36:38.015Z</time>
      </trkpt>
      <trkpt lat="66.46937" lon="22.50209">
        <ele>78.382595</ele>
        <time>2020-08-27T20:37:47.932Z</time>
      </trkpt>
      <trkpt lat="66.46868" lon="22.50258">
        <ele>78.439069</ele>
        <time>2020-08-27T20:38:00.772Z</time>
      </trkpt>
      <trkpt lat="66.46554" lon="22.506">
        <ele>80.479339</ele>
        <time>2020-08-27T20:39:09.326Z</time>
      </trkpt>
      <trkpt lat="66.46302" lon="22.50912">
        <ele>81.673326</ele>
        <time>2020-08-27T20:40:05.232Z</time>
      </trkpt>
      <trkpt lat="66.46223" lon="22.51052">
        <ele>80.547301</ele>
        <time>2020-08-27T20:40:20.878Z</time>
      </trkpt>
      <trkpt lat="66.4607" lon="22.51447">
        <ele>74.286712</ele>
        <time>2020-08-27T20:40:49.378Z</time>
      </trkpt>
      <trkpt lat="66.45996" lon="22.51698">
        <ele>71.391258</ele>
        <time>2020-08-27T20:41:05.384Z</time>
      </trkpt>
      <trkpt lat="66.4597" lon="22.51791">
        <ele>71.671988</ele>
        <time>2020-08-27T20:41:12.218Z</time>
      </trkpt>
      <trkpt lat="66.45849" lon="22.52213">
        <ele>75.286578</ele>
        <time>2020-08-27T20:42:09.421Z</time>
      </trkpt>
      <trkpt lat="66.45762" lon="22.5243">
        <ele>77.970461</ele>
        <time>2020-08-27T20:42:41.923Z</time>
      </trkpt>
      <trkpt lat="66.45615" lon="22.52754">
        <ele>79.661608</ele>
        <time>2020-08-27T20:43:20.373Z</time>
      </trkpt>
      <trkpt lat="66.45509" lon="22.5307">
        <ele>79.858136</ele>
        <time>2020-08-27T20:43:49.893Z</time>
      </trkpt>
      <trkpt lat="66.45443" lon="22.53347">
        <ele>79.746564</ele>
        <time>2020-08-27T20:44:12.864Z</time>
      </trkpt>
      <trkpt lat="66.4531" lon="22.54109">
        <ele>77.185906</ele>
        <time>2020-08-27T20:45:06.487Z</time>
      </trkpt>
      <trkpt lat="66.45293" lon="22.542">
        <ele>76.663857</ele>
        <time>2020-08-27T20:45:12.139Z</time>
      </trkpt>
      <trkpt lat="66.45246" lon="22.54467">
        <ele>74.176285</ele>
        <time>2020-08-27T20:45:28.067Z</time>
      </trkpt>
      <trkpt lat="66.4519" lon="22.54738">
        <ele>72.587393</ele>
        <time>2020-08-27T20:45:45.461Z</time>
      </trkpt>
      <trkpt lat="66.45109" lon="22.55035">
        <ele>72.22709</ele>
        <time>2020-08-27T20:46:10.967Z</time>
      </trkpt>
      <trkpt lat="66.45005" lon="22.55385">
        <ele>74.034449</ele>
        <time>2020-08-27T20:46:51.181Z</time>
      </trkpt>
      <trkpt lat="66.44922" lon="22.55664">
        <ele>74.509532</ele>
        <time>2020-08-27T20:47:18.115Z</time>
      </trkpt>
      <trkpt lat="66.44745" lon="22.56243">
        <ele>69.854908</ele>
        <time>2020-08-27T20:47:59.633Z</time>
      </trkpt>
      <trkpt lat="66.44631" lon="22.56596">
        <ele>67.196931</ele>
        <time>2020-08-27T20:48:26.376Z</time>
      </trkpt>
      <trkpt lat="66.44596" lon="22.56704">
        <ele>66.504395</ele>
        <time>2020-08-27T20:48:34.943Z</time>
      </trkpt>
      <trkpt lat="66.44457" lon="22.57083">
        <ele>65.202846</ele>
        <time>2020-08-27T20:49:08.126Z</time>
      </trkpt>
      <trkpt lat="66.44314" lon="22.57427">
        <ele>65.735522</ele>
        <time>2020-08-27T20:49:44.953Z</time>
      </trkpt>
      <trkpt lat="66.44189" lon="22.57657">
        <ele>67.164885</ele>
        <time>2020-08-27T20:50:17.937Z</time>
      </trkpt>
      <trkpt lat="66.43984" lon="22.57996">
        <ele>69.689794</ele>
        <time>2020-08-27T20:51:11.647Z</time>
      </trkpt>
      <trkpt lat="66.43784" lon="22.58428">
        <ele>70.002134</ele>
        <time>2020-08-27T20:51:59.347Z</time>
      </trkpt>
      <trkpt lat="66.43619" lon="22.5896">
        <ele>67.683532</ele>
        <time>2020-08-27T20:52:41.968Z</time>
      </trkpt>
      <trkpt lat="66.43516" lon="22.59406">
        <ele>64.18333</ele>
        <time>2020-08-27T20:53:11.325Z</time>
      </trkpt>
      <trkpt lat="66.43472" lon="22.59681">
        <ele>61.994454</ele>
        <time>2020-08-27T20:53:27.849Z</time>
      </trkpt>
      <trkpt lat="66.43459" lon="22.59765">
        <ele>61.589642</ele>
        <time>2020-08-27T20:53:33.113Z</time>
      </trkpt>
      <trkpt lat="66.43433" lon="22.59928">
        <ele>60.810135</ele>
        <time>2020-08-27T20:53:43.699Z</time>
      </trkpt>
      <trkpt lat="66.43427" lon="22.59961">
        <ele>60.653325</ele>
        <time>2020-08-27T20:53:45.914Z</time>
      </trkpt>
      <trkpt lat="66.43425" lon="22.59976">
        <ele>60.580696</ele>
        <time>2020-08-27T20:53:46.993Z</time>
      </trkpt>
      <trkpt lat="66.43337" lon="22.60522">
        <ele>60.317158</ele>
        <time>2020-08-27T20:54:29.611Z</time>
      </trkpt>
      <trkpt lat="66.43289" lon="22.60779">
        <ele>60.440877</ele>
        <time>2020-08-27T20:54:50.744Z</time>
      </trkpt>
      <trkpt lat="66.4321" lon="22.61116">
        <ele>60.417239</ele>
        <time>2020-08-27T20:55:18.647Z</time>
      </trkpt>
      <trkpt lat="66.43144" lon="22.61337">
        <ele>60.312084</ele>
        <time>2020-08-27T20:55:37.689Z</time>
      </trkpt>
      <trkpt lat="66.43077" lon="22.61518">
        <ele>60.17064</ele>
        <time>2020-08-27T20:55:54.809Z</time>
      </trkpt>
      <trkpt lat="66.42977" lon="22.61758">
        <ele>60.106089</ele>
        <time>2020-08-27T20:56:19.343Z</time>
      </trkpt>
      <trkpt lat="66.42865" lon="22.61975">
        <ele>60.081294</ele>
        <time>2020-08-27T20:56:44.765Z</time>
      </trkpt>
      <trkpt lat="66.4239" lon="22.62737">
        <ele>60.333937</ele>
        <time>2020-08-27T20:58:24.876Z</time>
      </trkpt>
      <trkpt lat="66.42117" lon="22.63213">
        <ele>62.527062</ele>
        <time>2020-08-27T20:59:33.945Z</time>
      </trkpt>
      <trkpt lat="66.41849" lon="22.63698">
        <ele>62.257701</ele>
        <time>2020-08-27T21:00:31.061Z</time>
      </trkpt>
      <trkpt lat="66.41305" lon="22.64711">
        <ele>60.164905</ele>
        <time>2020-08-27T21:02:25.731Z</time>
      </trkpt>
      <trkpt lat="66.41113" lon="22.65098">
        <ele>59.835889</ele>
        <time>2020-08-27T21:03:09.164Z</time>
      </trkpt>
      <trkpt lat="66.41085" lon="22.65153">
        <ele>59.771395</ele>
        <time>2020-08-27T21:03:15.269Z</time>
      </trkpt>
      <trkpt lat="66.4097" lon="22.65337">
        <ele>59.570557</ele>
        <time>2020-08-27T21:03:38.710Z</time>
      </trkpt>
      <trkpt lat="66.40863" lon="22.65468">
        <ele>59.47791</ele>
        <time>2020-08-27T21:03:59.584Z</time>
      </trkpt>
      <trkpt lat="66.40714" lon="22.65651">
        <ele>60.546491</ele>
        <time>2020-08-27T21:04:31.606Z</time>
      </trkpt>
      <trkpt lat="66.40556" lon="22.65844">
        <ele>63.95671</ele>
        <time>2020-08-27T21:05:13.161Z</time>
      </trkpt>
      <trkpt lat="66.40151" lon="22.66273">
        <ele>79.121175</ele>
        <time>2020-08-27T21:07:23.975Z</time>
      </trkpt>
      <trkpt lat="66.40125" lon="22.663">
        <ele>79.891168</ele>
        <time>2020-08-27T21:07:31.722Z</time>
      </trkpt>
      <trkpt lat="66.39828" lon="22.66616">
        <ele>87.79435</ele>
        <time>2020-08-27T21:08:52.110Z</time>
      </trkpt>
      <trkpt lat="66.3966" lon="22.66794">
        <ele>92.416957</ele>
        <time>2020-08-27T21:09:40.824Z</time>
      </trkpt>
      <trkpt lat="66.39491" lon="22.66925">
        <ele>96.037894</ele>
        <time>2020-08-27T21:10:25.478Z</time>
      </trkpt>
      <trkpt lat="66.38955" lon="22.67234">
        <ele>100.188023</ele>
        <time>2020-08-27T21:12:16.747Z</time>
      </trkpt>
      <trkpt lat="66.38721" lon="22.67458">
        <ele>97.520547</ele>
        <time>2020-08-27T21:12:56.511Z</time>
      </trkpt>
      <trkpt lat="66.38501" lon="22.67718">
        <ele>89.038051</ele>
        <time>2020-08-27T21:13:27.284Z</time>
      </trkpt>
      <trkpt lat="66.38364" lon="22.67945">
        <ele>81.543406</ele>
        <time>2020-08-27T21:13:47.263Z</time>
      </trkpt>
      <trkpt lat="66.38315" lon="22.68024">
        <ele>80.172702</ele>
        <time>2020-08-27T21:13:54.771Z</time>
      </trkpt>
      <trkpt lat="66.38176" lon="22.68404">
        <ele>76.821074</ele>
        <time>2020-08-27T21:14:26.342Z</time>
      </trkpt>
      <trkpt lat="66.38103" lon="22.68679">
        <ele>75.225676</ele>
        <time>2020-08-27T21:14:46.827Z</time>
      </trkpt>
      <trkpt lat="66.37875" lon="22.69722">
        <ele>67.100239</ele>
        <time>2020-08-27T21:15:55.381Z</time>
      </trkpt>
      <trkpt lat="66.37674" lon="22.70336">
        <ele>60.685051</ele>
        <time>2020-08-27T21:16:41.182Z</time>
      </trkpt>
      <trkpt lat="66.3765" lon="22.70418">
        <ele>59.638897</ele>
        <time>2020-08-27T21:16:46.509Z</time>
      </trkpt>
      <trkpt lat="66.37643" lon="22.70441">
        <ele>59.339821</ele>
        <time>2020-08-27T21:16:47.988Z</time>
      </trkpt>
      <trkpt lat="66.37637" lon="22.70459">
        <ele>59.092771</ele>
        <time>2020-08-27T21:16:49.246Z</time>
      </trkpt>
      <trkpt lat="66.37621" lon="22.70508">
        <ele>58.37694</ele>
        <time>2020-08-27T21:16:52.404Z</time>
      </trkpt>
      <trkpt lat="66.37583" lon="22.70684">
        <ele>55.687703</ele>
        <time>2020-08-27T21:17:02.463Z</time>
      </trkpt>
      <trkpt lat="66.37567" lon="22.70756">
        <ele>54.574138</ele>
        <time>2020-08-27T21:17:06.670Z</time>
      </trkpt>
      <trkpt lat="66.37553" lon="22.7085">
        <ele>53.219968</ele>
        <time>2020-08-27T21:17:11.945Z</time>
      </trkpt>
      <trkpt lat="66.37529" lon="22.71006">
        <ele>52.226029</ele>
        <time>2020-08-27T21:17:21.444Z</time>
      </trkpt>
      <trkpt lat="66.37499" lon="22.7121">
        <ele>51.548226</ele>
        <time>2020-08-27T21:17:35.640Z</time>
      </trkpt>
      <trkpt lat="66.37497" lon="22.71228">
        <ele>51.488521</ele>
        <time>2020-08-27T21:17:37.039Z</time>
      </trkpt>
      <trkpt lat="66.37484" lon="22.71289">
        <ele>51.275559</ele>
        <time>2020-08-27T21:17:42.335Z</time>
      </trkpt>
      <trkpt lat="66.37466" lon="22.71366">
        <ele>51.236244</ele>
        <time>2020-08-27T21:17:49.494Z</time>
      </trkpt>
      <trkpt lat="66.37438" lon="22.71444">
        <ele>51.287993</ele>
        <time>2020-08-27T21:17:58.042Z</time>
      </trkpt>
      <trkpt lat="66.37372" lon="22.71557">
        <ele>51.385631</ele>
        <time>2020-08-27T21:18:12.626Z</time>
      </trkpt>
      <trkpt lat="66.3735" lon="22.71596">
        <ele>51.418758</ele>
        <time>2020-08-27T21:18:17.153Z</time>
      </trkpt>
      <trkpt lat="66.37341" lon="22.71615">
        <ele>51.341029</ele>
        <time>2020-08-27T21:18:19.147Z</time>
      </trkpt>
      <trkpt lat="66.37325" lon="22.71649">
        <ele>51.119285</ele>
        <time>2020-08-27T21:18:22.501Z</time>
      </trkpt>
      <trkpt lat="66.3727" lon="22.71766">
        <ele>50.348889</ele>
        <time>2020-08-27T21:18:33.668Z</time>
      </trkpt>
      <trkpt lat="66.37207" lon="22.71912">
        <ele>49.456222</ele>
        <time>2020-08-27T21:18:46.410Z</time>
      </trkpt>
      <trkpt lat="66.37176" lon="22.71982">
        <ele>49.138729</ele>
        <time>2020-08-27T21:18:52.571Z</time>
      </trkpt>
      <trkpt lat="66.37117" lon="22.72121">
        <ele>48.511037</ele>
        <time>2020-08-27T21:19:05.329Z</time>
      </trkpt>
      <trkpt lat="66.37084" lon="22.72195">
        <ele>48.170868</ele>
        <time>2020-08-27T21:19:12.907Z</time>
      </trkpt>
      <trkpt lat="66.36997" lon="22.72391">
        <ele>48.928878</ele>
        <time>2020-08-27T21:19:36.090Z</time>
      </trkpt>
      <trkpt lat="66.36983" lon="22.72413">
        <ele>49.043139</ele>
        <time>2020-08-27T21:19:39.549Z</time>
      </trkpt>
      <trkpt lat="66.36957" lon="22.72458">
        <ele>49.269247</ele>
        <time>2020-08-27T21:19:46.282Z</time>
      </trkpt>
      <trkpt lat="66.36918" lon="22.72522">
        <ele>49.721452</ele>
        <time>2020-08-27T21:19:56.314Z</time>
      </trkpt>
      <trkpt lat="66.36648" lon="22.7282">
        <ele>53.078763</ele>
        <time>2020-08-27T21:21:00.231Z</time>
      </trkpt>
      <trkpt lat="66.36641" lon="22.72827">
        <ele>53.160335</ele>
        <time>2020-08-27T21:21:01.752Z</time>
      </trkpt>
      <trkpt lat="66.36637" lon="22.72832">
        <ele>53.2145</ele>
        <time>2020-08-27T21:21:02.806Z</time>
      </trkpt>
      <trkpt lat="66.36614" lon="22.7286">
        <ele>53.496738</ele>
        <time>2020-08-27T21:21:08.024Z</time>
      </trkpt>
      <trkpt lat="66.36587" lon="22.72892">
        <ele>53.74188</ele>
        <time>2020-08-27T21:21:14.089Z</time>
      </trkpt>
      <trkpt lat="66.36564" lon="22.72921">
        <ele>53.958256</ele>
        <time>2020-08-27T21:21:19.424Z</time>
      </trkpt>
      <trkpt lat="66.36505" lon="22.73001">
        <ele>54.515118</ele>
        <time>2020-08-27T21:21:33.112Z</time>
      </trkpt>
      <trkpt lat="66.36498" lon="22.7301">
        <ele>54.577446</ele>
        <time>2020-08-27T21:21:34.632Z</time>
      </trkpt>
      <trkpt lat="66.36486" lon="22.73029">
        <ele>54.697679</ele>
        <time>2020-08-27T21:21:37.590Z</time>
      </trkpt>
      <trkpt lat="66.36433" lon="22.73111">
        <ele>55.17027</ele>
        <time>2020-08-27T21:21:50.280Z</time>
      </trkpt>
      <trkpt lat="66.36422" lon="22.73134">
        <ele>55.267362</ele>
        <time>2020-08-27T21:21:53.297Z</time>
      </trkpt>
      <trkpt lat="66.36418" lon="22.73142">
        <ele>55.303841</ele>
        <time>2020-08-27T21:21:54.362Z</time>
      </trkpt>
      <trkpt lat="66.36387" lon="22.73205">
        <ele>55.572708</ele>
        <time>2020-08-27T21:22:02.452Z</time>
      </trkpt>
      <trkpt lat="66.36353" lon="22.73275">
        <ele>55.874934</ele>
        <time>2020-08-27T21:22:11.509Z</time>
      </trkpt>
      <trkpt lat="66.36318" lon="22.73359">
        <ele>56.202145</ele>
        <time>2020-08-27T21:22:21.224Z</time>
      </trkpt>
      <trkpt lat="66.36156" lon="22.73845">
        <ele>55.694494</ele>
        <time>2020-08-27T21:23:06.048Z</time>
      </trkpt>
      <trkpt lat="66.36124" lon="22.73943">
        <ele>55.303191</ele>
        <time>2020-08-27T21:23:13.962Z</time>
      </trkpt>
      <trkpt lat="66.36044" lon="22.74179">
        <ele>54.278648</ele>
        <time>2020-08-27T21:23:32.277Z</time>
      </trkpt>
      <trkpt lat="66.36026" lon="22.74233">
        <ele>54.029771</ele>
        <time>2020-08-27T21:23:36.560Z</time>
      </trkpt>
      <trkpt lat="66.36014" lon="22.74261">
        <ele>53.887544</ele>
        <time>2020-08-27T21:23:38.988Z</time>
      </trkpt>
      <trkpt lat="66.36007" lon="22.74279">
        <ele>53.796385</ele>
        <time>2020-08-27T21:23:40.652Z</time>
      </trkpt>
      <trkpt lat="66.35995" lon="22.74309">
        <ele>53.642413</ele>
        <time>2020-08-27T21:23:43.393Z</time>
      </trkpt>
      <trkpt lat="66.35979" lon="22.74341">
        <ele>53.466091</ele>
        <time>2020-08-27T21:23:46.751Z</time>
      </trkpt>
      <trkpt lat="66.35961" lon="22.74379">
        <ele>53.332253</ele>
        <time>2020-08-27T21:23:50.777Z</time>
      </trkpt>
      <trkpt lat="66.35886" lon="22.74515">
        <ele>54.379493</ele>
        <time>2020-08-27T21:24:09.434Z</time>
      </trkpt>
      <trkpt lat="66.35866" lon="22.74551">
        <ele>54.654763</ele>
        <time>2020-08-27T21:24:14.866Z</time>
      </trkpt>
      <trkpt lat="66.3584" lon="22.74601">
        <ele>55.034103</ele>
        <time>2020-08-27T21:24:23.014Z</time>
      </trkpt>
      <trkpt lat="66.35801" lon="22.74673">
        <ele>55.794317</ele>
        <time>2020-08-27T21:24:35.176Z</time>
      </trkpt>
      <trkpt lat="66.35769" lon="22.74744">
        <ele>56.665333</ele>
        <time>2020-08-27T21:24:45.973Z</time>
      </trkpt>
      <trkpt lat="66.3576" lon="22.74768">
        <ele>56.929228</ele>
        <time>2020-08-27T21:24:49.039Z</time>
      </trkpt>
      <trkpt lat="66.35751" lon="22.74794">
        <ele>57.219393</ele>
        <time>2020-08-27T21:24:52.424Z</time>
      </trkpt>
      <trkpt lat="66.35745" lon="22.7481">
        <ele>57.395366</ele>
        <time>2020-08-27T21:24:54.805Z</time>
      </trkpt>
      <trkpt lat="66.35706" lon="22.74944">
        <ele>58.757734</ele>
        <time>2020-08-27T21:25:10.749Z</time>
      </trkpt>
      <trkpt lat="66.35672" lon="22.75086">
        <ele>59.808721</ele>
        <time>2020-08-27T21:25:26.350Z</time>
      </trkpt>
      <trkpt lat="66.3564" lon="22.75299">
        <ele>61.145444</ele>
        <time>2020-08-27T21:25:47.387Z</time>
      </trkpt>
      <trkpt lat="66.35618" lon="22.75523">
        <ele>61.158412</ele>
        <time>2020-08-27T21:26:06.062Z</time>
      </trkpt>
      <trkpt lat="66.3561" lon="22.75608">
        <ele>60.855352</ele>
        <time>2020-08-27T21:26:12.121Z</time>
      </trkpt>
      <trkpt lat="66.3558" lon="22.75932">
        <ele>58.092626</ele>
        <time>2020-08-27T21:26:30.841Z</time>
      </trkpt>
      <trkpt lat="66.3556" lon="22.76188">
        <ele>53.537402</ele>
        <time>2020-08-27T21:26:43.458Z</time>
      </trkpt>
      <trkpt lat="66.35558" lon="22.7621">
        <ele>53.146533</ele>
        <time>2020-08-27T21:26:44.471Z</time>
      </trkpt>
      <trkpt lat="66.35543" lon="22.7632">
        <ele>51.184401</ele>
        <time>2020-08-27T21:26:50.160Z</time>
      </trkpt>
      <trkpt lat="66.35532" lon="22.76392">
        <ele>49.918322</ele>
        <time>2020-08-27T21:26:53.884Z</time>
      </trkpt>
      <trkpt lat="66.35527" lon="22.76424">
        <ele>49.360952</ele>
        <time>2020-08-27T21:26:55.583Z</time>
      </trkpt>
      <trkpt lat="66.35468" lon="22.76664">
        <ele>44.867365</ele>
        <time>2020-08-27T21:27:09.859Z</time>
      </trkpt>
      <trkpt lat="66.3545" lon="22.76716">
        <ele>44.609851</ele>
        <time>2020-08-27T21:27:13.638Z</time>
      </trkpt>
      <trkpt lat="66.35433" lon="22.76765">
        <ele>44.366909</ele>
        <time>2020-08-27T21:27:17.696Z</time>
      </trkpt>
      <trkpt lat="66.35417" lon="22.76806">
        <ele>44.147367</ele>
        <time>2020-08-27T21:27:21.496Z</time>
      </trkpt>
      <trkpt lat="66.35393" lon="22.76863">
        <ele>43.845626</ele>
        <time>2020-08-27T21:27:26.850Z</time>
      </trkpt>
      <trkpt lat="66.35341" lon="22.76966">
        <ele>43.242069</ele>
        <time>2020-08-27T21:27:38.720Z</time>
      </trkpt>
      <trkpt lat="66.35339" lon="22.7697">
        <ele>43.276633</ele>
        <time>2020-08-27T21:27:39.321Z</time>
      </trkpt>
      <trkpt lat="66.35315" lon="22.77013">
        <ele>43.677387</ele>
        <time>2020-08-27T21:27:45.176Z</time>
      </trkpt>
      <trkpt lat="66.35276" lon="22.77085">
        <ele>44.337928</ele>
        <time>2020-08-27T21:27:55.911Z</time>
      </trkpt>
      <trkpt lat="66.35196" lon="22.77229">
        <ele>45.677233</ele>
        <time>2020-08-27T21:28:19.477Z</time>
      </trkpt>
      <trkpt lat="66.35132" lon="22.77346">
        <ele>46.520398</ele>
        <time>2020-08-27T21:28:37.285Z</time>
      </trkpt>
      <trkpt lat="66.35112" lon="22.77383">
        <ele>46.79117</ele>
        <time>2020-08-27T21:28:42.888Z</time>
      </trkpt>
      <trkpt lat="66.35108" lon="22.7739">
        <ele>46.843842</ele>
        <time>2020-08-27T21:28:43.689Z</time>
      </trkpt>
      <trkpt lat="66.35034" lon="22.77526">
        <ele>47.661483</ele>
        <time>2020-08-27T21:29:01.960Z</time>
      </trkpt>
      <trkpt lat="66.34959" lon="22.77642">
        <ele>47.961758</ele>
        <time>2020-08-27T21:29:17.964Z</time>
      </trkpt>
      <trkpt lat="66.34936" lon="22.77671">
        <ele>48.049735</ele>
        <time>2020-08-27T21:29:22.849Z</time>
      </trkpt>
      <trkpt lat="66.34889" lon="22.77723">
        <ele>48.228527</ele>
        <time>2020-08-27T21:29:32.790Z</time>
      </trkpt>
      <trkpt lat="66.34748" lon="22.77875">
        <ele>48.822706</ele>
        <time>2020-08-27T21:30:02.602Z</time>
      </trkpt>
      <trkpt lat="66.34729" lon="22.77897">
        <ele>48.905126</ele>
        <time>2020-08-27T21:30:06.424Z</time>
      </trkpt>
      <trkpt lat="66.34709" lon="22.7792">
        <ele>48.995478</ele>
        <time>2020-08-27T21:30:10.318Z</time>
      </trkpt>
      <trkpt lat="66.34687" lon="22.7795">
        <ele>49.09397</ele>
        <time>2020-08-27T21:30:14.645Z</time>
      </trkpt>
      <trkpt lat="66.34666" lon="22.7798">
        <ele>49.192891</ele>
        <time>2020-08-27T21:30:19.003Z</time>
      </trkpt>
      <trkpt lat="66.34606" lon="22.78064">
        <ele>49.466159</ele>
        <time>2020-08-27T21:30:31.015Z</time>
      </trkpt>
      <trkpt lat="66.34582" lon="22.78099">
        <ele>49.578898</ele>
        <time>2020-08-27T21:30:36.356Z</time>
      </trkpt>
      <trkpt lat="66.34476" lon="22.78257">
        <ele>52.739789</ele>
        <time>2020-08-27T21:31:07.702Z</time>
      </trkpt>
      <trkpt lat="66.34308" lon="22.78508">
        <ele>57.95645</ele>
        <time>2020-08-27T21:32:07.780Z</time>
      </trkpt>
      <trkpt lat="66.34235" lon="22.78614">
        <ele>58.147902</ele>
        <time>2020-08-27T21:32:23.304Z</time>
      </trkpt>
      <trkpt lat="66.34166" lon="22.78739">
        <ele>55.336182</ele>
        <time>2020-08-27T21:32:34.218Z</time>
      </trkpt>
      <trkpt lat="66.34062" lon="22.7893">
        <ele>49.906411</ele>
        <time>2020-08-27T21:32:49.630Z</time>
      </trkpt>
      <trkpt lat="66.34042" lon="22.78967">
        <ele>48.693089</ele>
        <time>2020-08-27T21:32:52.528Z</time>
      </trkpt>
      <trkpt lat="66.33993" lon="22.79062">
        <ele>45.587672</ele>
        <time>2020-08-27T21:33:00.125Z</time>
      </trkpt>
      <trkpt lat="66.34025" lon="22.79155">
        <ele>43.865967</ele>
        <time>2020-08-27T21:33:06.651Z</time>
      </trkpt>
      <trkpt lat="66.3394" lon="22.79312">
        <ele>41.655648</ele>
        <time>2020-08-27T21:33:22.026Z</time>
      </trkpt>
      <trkpt lat="66.33849" lon="22.79473">
        <ele>41.571033</ele>
        <time>2020-08-27T21:33:41.541Z</time>
      </trkpt>
      <trkpt lat="66.33818" lon="22.79508">
        <ele>42.08285</ele>
        <time>2020-08-27T21:33:48.906Z</time>
      </trkpt>
      <trkpt lat="66.33776" lon="22.79536">
        <ele>42.728636</ele>
        <time>2020-08-27T21:34:00.383Z</time>
      </trkpt>
      <trkpt lat="66.33768" lon="22.7954">
        <ele>42.847728</ele>
        <time>2020-08-27T21:34:02.773Z</time>
      </trkpt>
      <trkpt lat="66.33741" lon="22.79555">
        <ele>43.264485</ele>
        <time>2020-08-27T21:34:11.110Z</time>
      </trkpt>
      <trkpt lat="66.33706" lon="22.79559">
        <ele>44.741258</ele>
        <time>2020-08-27T21:34:22.131Z</time>
      </trkpt>
      <trkpt lat="66.3369" lon="22.79585">
        <ele>45.63691</ele>
        <time>2020-08-27T21:34:28.490Z</time>
      </trkpt>
      <trkpt lat="66.33648" lon="22.79453">
        <ele>48.727671</ele>
        <time>2020-08-27T21:34:51.923Z</time>
      </trkpt>
      <trkpt lat="66.33621" lon="22.79424">
        <ele>50.078373</ele>
        <time>2020-08-27T21:35:02.271Z</time>
      </trkpt>
      <trkpt lat="66.33587" lon="22.79428">
        <ele>51.582671</ele>
        <time>2020-08-27T21:35:14.071Z</time>
      </trkpt>
      <trkpt lat="66.33559" lon="22.79444">
        <ele>52.042494</ele>
        <time>2020-08-27T21:35:23.963Z</time>
      </trkpt>
      <trkpt lat="66.33534" lon="22.79439">
        <ele>52.441698</ele>
        <time>2020-08-27T21:35:31.865Z</time>
      </trkpt>
      <trkpt lat="66.33446" lon="22.79382">
        <ele>53.872432</ele>
        <time>2020-08-27T21:35:52.092Z</time>
      </trkpt>
      <trkpt lat="66.33409" lon="22.7937">
        <ele>54.362333</ele>
        <time>2020-08-27T21:35:57.816Z</time>
      </trkpt>
      <trkpt lat="66.33379" lon="22.79382">
        <ele>53.978775</ele>
        <time>2020-08-27T21:36:02.349Z</time>
      </trkpt>
      <trkpt lat="66.33344" lon="22.79412">
        <ele>53.528352</ele>
        <time>2020-08-27T21:36:07.510Z</time>
      </trkpt>
      <trkpt lat="66.33273" lon="22.7951">
        <ele>52.521163</ele>
        <time>2020-08-27T21:36:19.287Z</time>
      </trkpt>
      <trkpt lat="66.33232" lon="22.79555">
        <ele>53.102038</ele>
        <time>2020-08-27T21:36:28.902Z</time>
      </trkpt>
      <trkpt lat="66.3317" lon="22.79602">
        <ele>56.534515</ele>
        <time>2020-08-27T21:36:48.214Z</time>
      </trkpt>
      <trkpt lat="66.33153" lon="22.79609">
        <ele>57.438251</ele>
        <time>2020-08-27T21:36:54.355Z</time>
      </trkpt>
      <trkpt lat="66.3311" lon="22.79608">
        <ele>59.679567</ele>
        <time>2020-08-27T21:37:12.451Z</time>
      </trkpt>
      <trkpt lat="66.33084" lon="22.79601">
        <ele>61.048068</ele>
        <time>2020-08-27T21:37:24.278Z</time>
      </trkpt>
      <trkpt lat="66.33012" lon="22.7955">
        <ele>66.855006</ele>
        <time>2020-08-27T21:38:02.291Z</time>
      </trkpt>
      <trkpt lat="66.32965" lon="22.79568">
        <ele>70.698185</ele>
        <time>2020-08-27T21:38:26.232Z</time>
      </trkpt>
      <trkpt lat="66.32948" lon="22.7959">
        <ele>72.252132</ele>
        <time>2020-08-27T21:38:34.436Z</time>
      </trkpt>
      <trkpt lat="66.32886" lon="22.79731">
        <ele>76.996876</ele>
        <time>2020-08-27T21:39:06.243Z</time>
      </trkpt>
      <trkpt lat="66.32823" lon="22.80068">
        <ele>79.70614</ele>
        <time>2020-08-27T21:39:40.580Z</time>
      </trkpt>
      <trkpt lat="66.32781" lon="22.80319">
        <ele>75.659266</ele>
        <time>2020-08-27T21:39:55.316Z</time>
      </trkpt>
      <trkpt lat="66.32762" lon="22.80425">
        <ele>73.929568</ele>
        <time>2020-08-27T21:40:01.143Z</time>
      </trkpt>
      <trkpt lat="66.32749" lon="22.80484">
        <ele>72.825881</ele>
        <time>2020-08-27T21:40:04.577Z</time>
      </trkpt>
      <trkpt lat="66.32734" lon="22.80534">
        <ele>71.559964</ele>
        <time>2020-08-27T21:40:07.650Z</time>
      </trkpt>
      <trkpt lat="66.32716" lon="22.80585">
        <ele>70.191259</ele>
        <time>2020-08-27T21:40:10.964Z</time>
      </trkpt>
      <trkpt lat="66.32576" lon="22.80817">
        <ele>62.549588</ele>
        <time>2020-08-27T21:40:32.515Z</time>
      </trkpt>
      <trkpt lat="66.3239" lon="22.80945">
        <ele>55.971154</ele>
        <time>2020-08-27T21:41:00.011Z</time>
      </trkpt>
      <trkpt lat="66.32364" lon="22.80973">
        <ele>54.874068</ele>
        <time>2020-08-27T21:41:03.926Z</time>
      </trkpt>
      <trkpt lat="66.32353" lon="22.80984">
        <ele>54.418697</ele>
        <time>2020-08-27T21:41:05.379Z</time>
      </trkpt>
      <trkpt lat="66.32282" lon="22.81116">
        <ele>50.859762</ele>
        <time>2020-08-27T21:41:16.831Z</time>
      </trkpt>
      <trkpt lat="66.32238" lon="22.81206">
        <ele>48.104332</ele>
        <time>2020-08-27T21:41:23.827Z</time>
      </trkpt>
      <trkpt lat="66.32214" lon="22.81255">
        <ele>46.572048</ele>
        <time>2020-08-27T21:41:27.787Z</time>
      </trkpt>
      <trkpt lat="66.322" lon="22.81295">
        <ele>45.534668</ele>
        <time>2020-08-27T21:41:30.580Z</time>
      </trkpt>
      <trkpt lat="66.32194" lon="22.81335">
        <ele>44.711287</ele>
        <time>2020-08-27T21:41:32.695Z</time>
      </trkpt>
      <trkpt lat="66.32193" lon="22.81466">
        <ele>42.352532</ele>
        <time>2020-08-27T21:41:39.582Z</time>
      </trkpt>
      <trkpt lat="66.32194" lon="22.81499">
        <ele>42.038746</ele>
        <time>2020-08-27T21:41:41.302Z</time>
      </trkpt>
      <trkpt lat="66.32115" lon="22.81479">
        <ele>40.212337</ele>
        <time>2020-08-27T21:41:52.099Z</time>
      </trkpt>
      <trkpt lat="66.32039" lon="22.81454">
        <ele>38.428695</ele>
        <time>2020-08-27T21:42:03.542Z</time>
      </trkpt>
      <trkpt lat="66.31967" lon="22.81424">
        <ele>38.050689</ele>
        <time>2020-08-27T21:42:15.624Z</time>
      </trkpt>
      <trkpt lat="66.31868" lon="22.81377">
        <ele>37.579593</ele>
        <time>2020-08-27T21:42:32.567Z</time>
      </trkpt>
      <trkpt lat="66.31271" lon="22.81116">
        <ele>37.299937</ele>
        <time>2020-08-27T21:44:19.911Z</time>
      </trkpt>
      <trkpt lat="66.31254" lon="22.81109">
        <ele>37.316178</ele>
        <time>2020-08-27T21:44:23.111Z</time>
      </trkpt>
      <trkpt lat="66.31111" lon="22.81051">
        <ele>37.353687</ele>
        <time>2020-08-27T21:44:49.644Z</time>
      </trkpt>
      <trkpt lat="66.30925" lon="22.81">
        <ele>37.068621</ele>
        <time>2020-08-27T21:45:21.714Z</time>
      </trkpt>
      <trkpt lat="66.30768" lon="22.80999">
        <ele>36.989487</ele>
        <time>2020-08-27T21:45:49.100Z</time>
      </trkpt>
      <trkpt lat="66.30681" lon="22.81014">
        <ele>37.34084</ele>
        <time>2020-08-27T21:46:05.490Z</time>
      </trkpt>
      <trkpt lat="66.30496" lon="22.81074">
        <ele>38.663334</ele>
        <time>2020-08-27T21:46:43.271Z</time>
      </trkpt>
      <trkpt lat="66.30249" lon="22.81225">
        <ele>41.235895</ele>
        <time>2020-08-27T21:47:37.887Z</time>
      </trkpt>
      <trkpt lat="66.30111" lon="22.81307">
        <ele>41.876293</ele>
        <time>2020-08-27T21:48:06.553Z</time>
      </trkpt>
      <trkpt lat="66.29845" lon="22.81474">
        <ele>39.759131</ele>
        <time>2020-08-27T21:48:49.376Z</time>
      </trkpt>
      <trkpt lat="66.2973" lon="22.81544">
        <ele>38.457685</ele>
        <time>2020-08-27T21:49:07.126Z</time>
      </trkpt>
      <trkpt lat="66.2963" lon="22.81609">
        <ele>37.383574</ele>
        <time>2020-08-27T21:49:23.090Z</time>
      </trkpt>
      <trkpt lat="66.29569" lon="22.81646">
        <ele>36.730451</ele>
        <time>2020-08-27T21:49:32.942Z</time>
      </trkpt>
      <trkpt lat="66.29502" lon="22.81681">
        <ele>36.334502</ele>
        <time>2020-08-27T21:49:43.651Z</time>
      </trkpt>
      <trkpt lat="66.2943" lon="22.81711">
        <ele>35.932352</ele>
        <time>2020-08-27T21:49:55.712Z</time>
      </trkpt>
      <trkpt lat="66.29349" lon="22.81729">
        <ele>35.837852</ele>
        <time>2020-08-27T21:50:09.709Z</time>
      </trkpt>
      <trkpt lat="66.29296" lon="22.81731">
        <ele>36.040223</ele>
        <time>2020-08-27T21:50:19.597Z</time>
      </trkpt>
      <trkpt lat="66.2906" lon="22.81709">
        <ele>37.488836</ele>
        <time>2020-08-27T21:51:07.479Z</time>
      </trkpt>
      <trkpt lat="66.28996" lon="22.81706">
        <ele>37.890745</ele>
        <time>2020-08-27T21:51:20.338Z</time>
      </trkpt>
      <trkpt lat="66.28958" lon="22.81704">
        <ele>38.084716</ele>
        <time>2020-08-27T21:51:27.958Z</time>
      </trkpt>
      <trkpt lat="66.28891" lon="22.81701">
        <ele>38.424907</ele>
        <time>2020-08-27T21:51:41.088Z</time>
      </trkpt>
      <trkpt lat="66.28818" lon="22.81713">
        <ele>38.597672</ele>
        <time>2020-08-27T21:51:54.719Z</time>
      </trkpt>
      <trkpt lat="66.28701" lon="22.81759">
        <ele>38.397992</ele>
        <time>2020-08-27T21:52:15.143Z</time>
      </trkpt>
      <trkpt lat="66.28694" lon="22.81763">
        <ele>38.385134</ele>
        <time>2020-08-27T21:52:16.360Z</time>
      </trkpt>
      <trkpt lat="66.28594" lon="22.81812">
        <ele>37.947662</ele>
        <time>2020-08-27T21:52:33.115Z</time>
      </trkpt>
      <trkpt lat="66.28519" lon="22.81847">
        <ele>37.55437</ele>
        <time>2020-08-27T21:52:45.571Z</time>
      </trkpt>
      <trkpt lat="66.28451" lon="22.81872">
        <ele>37.292065</ele>
        <time>2020-08-27T21:52:56.910Z</time>
      </trkpt>
      <trkpt lat="66.28448" lon="22.81873">
        <ele>37.282246</ele>
        <time>2020-08-27T21:52:57.456Z</time>
      </trkpt>
      <trkpt lat="66.28382" lon="22.81885">
        <ele>37.079183</ele>
        <time>2020-08-27T21:53:08.688Z</time>
      </trkpt>
      <trkpt lat="66.28372" lon="22.81885">
        <ele>37.04797</ele>
        <time>2020-08-27T21:53:10.424Z</time>
      </trkpt>
      <trkpt lat="66.283" lon="22.81887">
        <ele>36.862608</ele>
        <time>2020-08-27T21:53:22.719Z</time>
      </trkpt>
      <trkpt lat="66.28117" lon="22.81864">
        <ele>36.81867</ele>
        <time>2020-08-27T21:53:55.161Z</time>
      </trkpt>
      <trkpt lat="66.28111" lon="22.81863">
        <ele>36.836342</ele>
        <time>2020-08-27T21:53:56.140Z</time>
      </trkpt>
      <trkpt lat="66.27956" lon="22.81836">
        <ele>37.318318</ele>
        <time>2020-08-27T21:54:25.873Z</time>
      </trkpt>
      <trkpt lat="66.27847" lon="22.81825">
        <ele>37.676377</ele>
        <time>2020-08-27T21:54:46.920Z</time>
      </trkpt>
      <trkpt lat="66.27602" lon="22.81809">
        <ele>38.076517</ele>
        <time>2020-08-27T21:55:31.774Z</time>
      </trkpt>
      <trkpt lat="66.27597" lon="22.81809">
        <ele>38.081259</ele>
        <time>2020-08-27T21:55:32.690Z</time>
      </trkpt>
      <trkpt lat="66.27525" lon="22.81808">
        <ele>37.962833</ele>
        <time>2020-08-27T21:55:45.124Z</time>
      </trkpt>
      <trkpt lat="66.27393" lon="22.81827">
        <ele>37.756147</ele>
        <time>2020-08-27T21:56:07.903Z</time>
      </trkpt>
      <trkpt lat="66.27172" lon="22.81905">
        <ele>37.660758</ele>
        <time>2020-08-27T21:56:47.186Z</time>
      </trkpt>
      <trkpt lat="66.27053" lon="22.81915">
        <ele>37.740106</ele>
        <time>2020-08-27T21:57:08.723Z</time>
      </trkpt>
      <trkpt lat="66.26986" lon="22.81909">
        <ele>38.096653</ele>
        <time>2020-08-27T21:57:21.091Z</time>
      </trkpt>
      <trkpt lat="66.26886" lon="22.81882">
        <ele>38.630647</ele>
        <time>2020-08-27T21:57:40.585Z</time>
      </trkpt>
      <trkpt lat="66.26324" lon="22.81699">
        <ele>49.334017</ele>
        <time>2020-08-27T21:59:53.646Z</time>
      </trkpt>
      <trkpt lat="66.26288" lon="22.81684">
        <ele>51.042776</ele>
        <time>2020-08-27T22:00:06.333Z</time>
      </trkpt>
      <trkpt lat="66.26199" lon="22.81646">
        <ele>55.20436</ele>
        <time>2020-08-27T22:00:38.717Z</time>
      </trkpt>
      <trkpt lat="66.26096" lon="22.81596">
        <ele>58.879703</ele>
        <time>2020-08-27T22:01:13.393Z</time>
      </trkpt>
      <trkpt lat="66.25997" lon="22.8155">
        <ele>61.888874</ele>
        <time>2020-08-27T22:01:38.373Z</time>
      </trkpt>
      <trkpt lat="66.25906" lon="22.81508">
        <ele>62.167461</ele>
        <time>2020-08-27T22:01:55.959Z</time>
      </trkpt>
      <trkpt lat="66.25824" lon="22.81473">
        <ele>62.237691</ele>
        <time>2020-08-27T22:02:09.686Z</time>
      </trkpt>
      <trkpt lat="66.25745" lon="22.81436">
        <ele>62.752144</ele>
        <time>2020-08-27T22:02:22.751Z</time>
      </trkpt>
      <trkpt lat="66.25639" lon="22.81388">
        <ele>63.540467</ele>
        <time>2020-08-27T22:02:46.163Z</time>
      </trkpt>
      <trkpt lat="66.25574" lon="22.81358">
        <ele>66.054139</ele>
        <time>2020-08-27T22:03:03.943Z</time>
      </trkpt>
      <trkpt lat="66.25088" lon="22.81139">
        <ele>85.450665</ele>
        <time>2020-08-27T22:05:39.850Z</time>
      </trkpt>
      <trkpt lat="66.25017" lon="22.81096">
        <ele>86.724038</ele>
        <time>2020-08-27T22:05:58.159Z</time>
      </trkpt>
      <trkpt lat="66.24934" lon="22.81029">
        <ele>88.252511</ele>
        <time>2020-08-27T22:06:16.228Z</time>
      </trkpt>
      <trkpt lat="66.24855" lon="22.80948">
        <ele>87.391717</ele>
        <time>2020-08-27T22:06:30.238Z</time>
      </trkpt>
      <trkpt lat="66.24775" lon="22.80846">
        <ele>86.424753</ele>
        <time>2020-08-27T22:06:43.211Z</time>
      </trkpt>
      <trkpt lat="66.24533" lon="22.80475">
        <ele>80.216947</ele>
        <time>2020-08-27T22:07:21.887Z</time>
      </trkpt>
      <trkpt lat="66.24455" lon="22.80373">
        <ele>78.832481</ele>
        <time>2020-08-27T22:07:35.411Z</time>
      </trkpt>
      <trkpt lat="66.24333" lon="22.80249">
        <ele>79.593988</ele>
        <time>2020-08-27T22:08:01.210Z</time>
      </trkpt>
      <trkpt lat="66.2427" lon="22.80203">
        <ele>80.128891</ele>
        <time>2020-08-27T22:08:16.415Z</time>
      </trkpt>
      <trkpt lat="66.2412" lon="22.80132">
        <ele>81.970743</ele>
        <time>2020-08-27T22:08:50.294Z</time>
      </trkpt>
      <trkpt lat="66.23858" lon="22.80037">
        <ele>82.024268</ele>
        <time>2020-08-27T22:09:37.636Z</time>
      </trkpt>
      <trkpt lat="66.23692" lon="22.79989">
        <ele>80.473463</ele>
        <time>2020-08-27T22:10:04.807Z</time>
      </trkpt>
      <trkpt lat="66.23567" lon="22.79968">
        <ele>77.879428</ele>
        <time>2020-08-27T22:10:22.261Z</time>
      </trkpt>
      <trkpt lat="66.22766" lon="22.79879">
        <ele>43.38436</ele>
        <time>2020-08-27T22:12:00.792Z</time>
      </trkpt>
      <trkpt lat="66.22613" lon="22.79879">
        <ele>41.15565</ele>
        <time>2020-08-27T22:12:25.571Z</time>
      </trkpt>
      <trkpt lat="66.22547" lon="22.7989">
        <ele>41.234997</ele>
        <time>2020-08-27T22:12:39.110Z</time>
      </trkpt>
      <trkpt lat="66.2248" lon="22.79915">
        <ele>41.3148</ele>
        <time>2020-08-27T22:12:52.329Z</time>
      </trkpt>
      <trkpt lat="66.22347" lon="22.79986">
        <ele>41.475505</ele>
        <time>2020-08-27T22:13:17.013Z</time>
      </trkpt>
      <trkpt lat="66.22207" lon="22.80105">
        <ele>41.157561</ele>
        <time>2020-08-27T22:13:42.134Z</time>
      </trkpt>
      <trkpt lat="66.2148" lon="22.80854">
        <ele>38.379744</ele>
        <time>2020-08-27T22:15:55.141Z</time>
      </trkpt>
      <trkpt lat="66.21438" lon="22.80889">
        <ele>38.067186</ele>
        <time>2020-08-27T22:16:02.104Z</time>
      </trkpt>
      <trkpt lat="66.21422" lon="22.809">
        <ele>37.950317</ele>
        <time>2020-08-27T22:16:04.696Z</time>
      </trkpt>
      <trkpt lat="66.21318" lon="22.80952">
        <ele>37.210766</ele>
        <time>2020-08-27T22:16:21.343Z</time>
      </trkpt>
      <trkpt lat="66.21004" lon="22.81028">
        <ele>36.040732</ele>
        <time>2020-08-27T22:17:14.377Z</time>
      </trkpt>
      <trkpt lat="66.20853" lon="22.81061">
        <ele>35.946299</ele>
        <time>2020-08-27T22:17:41.410Z</time>
      </trkpt>
      <trkpt lat="66.20749" lon="22.81058">
        <ele>35.967453</ele>
        <time>2020-08-27T22:18:00.097Z</time>
      </trkpt>
      <trkpt lat="66.20695" lon="22.81047">
        <ele>35.979564</ele>
        <time>2020-08-27T22:18:09.797Z</time>
      </trkpt>
      <trkpt lat="66.20584" lon="22.81">
        <ele>36.000012</ele>
        <time>2020-08-27T22:18:29.966Z</time>
      </trkpt>
      <trkpt lat="66.20324" lon="22.80851">
        <ele>36.000012</ele>
        <time>2020-08-27T22:19:17.602Z</time>
      </trkpt>
      <trkpt lat="66.20232" lon="22.8082">
        <ele>36.000012</ele>
        <time>2020-08-27T22:19:34.046Z</time>
      </trkpt>
      <trkpt lat="66.19701" lon="22.8078">
        <ele>36.000012</ele>
        <time>2020-08-27T22:21:08.905Z</time>
      </trkpt>
      <trkpt lat="66.19045" lon="22.80766">
        <ele>36.000012</ele>
        <time>2020-08-27T22:23:05.888Z</time>
      </trkpt>
      <trkpt lat="66.18937" lon="22.80734">
        <ele>36.000012</ele>
        <time>2020-08-27T22:23:25.285Z</time>
      </trkpt>
      <trkpt lat="66.18685" lon="22.80571">
        <ele>36.055643</ele>
        <time>2020-08-27T22:24:12.013Z</time>
      </trkpt>
      <trkpt lat="66.18647" lon="22.80559">
        <ele>36.070616</ele>
        <time>2020-08-27T22:24:18.814Z</time>
      </trkpt>
      <trkpt lat="66.18595" lon="22.80553">
        <ele>36.133734</ele>
        <time>2020-08-27T22:24:28.358Z</time>
      </trkpt>
      <trkpt lat="66.18548" lon="22.80554">
        <ele>36.192965</ele>
        <time>2020-08-27T22:24:36.999Z</time>
      </trkpt>
      <trkpt lat="66.18455" lon="22.80589">
        <ele>36.298625</ele>
        <time>2020-08-27T22:24:54.079Z</time>
      </trkpt>
      <trkpt lat="66.184" lon="22.80626">
        <ele>36.304953</ele>
        <time>2020-08-27T22:25:04.572Z</time>
      </trkpt>
      <trkpt lat="66.1826" lon="22.80759">
        <ele>36.273094</ele>
        <time>2020-08-27T22:25:30.998Z</time>
      </trkpt>
      <trkpt lat="66.18204" lon="22.80801">
        <ele>36.204036</ele>
        <time>2020-08-27T22:25:41.223Z</time>
      </trkpt>
      <trkpt lat="66.18145" lon="22.8083">
        <ele>36.133437</ele>
        <time>2020-08-27T22:25:51.703Z</time>
      </trkpt>
      <trkpt lat="66.18088" lon="22.80844">
        <ele>36.106831</ele>
        <time>2020-08-27T22:26:01.676Z</time>
      </trkpt>
      <trkpt lat="66.18028" lon="22.80849">
        <ele>36.10885</ele>
        <time>2020-08-27T22:26:12.316Z</time>
      </trkpt>
      <trkpt lat="66.1787" lon="22.80862">
        <ele>36.369266</ele>
        <time>2020-08-27T22:26:41.115Z</time>
      </trkpt>
      <trkpt lat="66.17395" lon="22.81018">
        <ele>37.980241</ele>
        <time>2020-08-27T22:28:13.082Z</time>
      </trkpt>
      <trkpt lat="66.17303" lon="22.81019">
        <ele>37.633065</ele>
        <time>2020-08-27T22:28:28.620Z</time>
      </trkpt>
      <trkpt lat="66.17167" lon="22.80976">
        <ele>37.037292</ele>
        <time>2020-08-27T22:28:50.464Z</time>
      </trkpt>
      <trkpt lat="66.17118" lon="22.80952">
        <ele>36.785381</ele>
        <time>2020-08-27T22:28:58.526Z</time>
      </trkpt>
      <trkpt lat="66.17049" lon="22.809">
        <ele>36.442053</ele>
        <time>2020-08-27T22:29:10.622Z</time>
      </trkpt>
      <trkpt lat="66.16935" lon="22.80782">
        <ele>36.661084</ele>
        <time>2020-08-27T22:29:33.333Z</time>
      </trkpt>
      <trkpt lat="66.16919" lon="22.80759">
        <ele>36.694474</ele>
        <time>2020-08-27T22:29:36.946Z</time>
      </trkpt>
      <trkpt lat="66.16894" lon="22.80723">
        <ele>36.74628</ele>
        <time>2020-08-27T22:29:42.545Z</time>
      </trkpt>
      <trkpt lat="66.16826" lon="22.80623">
        <ele>36.974184</ele>
        <time>2020-08-27T22:29:57.666Z</time>
      </trkpt>
      <trkpt lat="66.16706" lon="22.80411">
        <ele>37.251374</ele>
        <time>2020-08-27T22:30:25.028Z</time>
      </trkpt>
      <trkpt lat="66.16652" lon="22.80332">
        <ele>37.187184</ele>
        <time>2020-08-27T22:30:36.085Z</time>
      </trkpt>
      <trkpt lat="66.16597" lon="22.80267">
        <ele>37.12521</ele>
        <time>2020-08-27T22:30:46.493Z</time>
      </trkpt>
      <trkpt lat="66.16472" lon="22.80154">
        <ele>36.765931</ele>
        <time>2020-08-27T22:31:08.733Z</time>
      </trkpt>
      <trkpt lat="66.16409" lon="22.80116">
        <ele>36.582613</ele>
        <time>2020-08-27T22:31:19.873Z</time>
      </trkpt>
      <trkpt lat="66.16152" lon="22.8003">
        <ele>36.617347</ele>
        <time>2020-08-27T22:32:06.623Z</time>
      </trkpt>
      <trkpt lat="66.16077" lon="22.79991">
        <ele>36.663086</ele>
        <time>2020-08-27T22:32:20.650Z</time>
      </trkpt>
      <trkpt lat="66.16014" lon="22.79942">
        <ele>36.577552</ele>
        <time>2020-08-27T22:32:32.402Z</time>
      </trkpt>
      <trkpt lat="66.15943" lon="22.79878">
        <ele>36.414767</ele>
        <time>2020-08-27T22:32:45.450Z</time>
      </trkpt>
      <trkpt lat="66.15657" lon="22.79564">
        <ele>35.070735</ele>
        <time>2020-08-27T22:33:36.769Z</time>
      </trkpt>
      <trkpt lat="66.15175" lon="22.78991">
        <ele>32.864587</ele>
        <time>2020-08-27T22:35:06.410Z</time>
      </trkpt>
      <trkpt lat="66.15118" lon="22.78909">
        <ele>32.573014</ele>
        <time>2020-08-27T22:35:17.271Z</time>
      </trkpt>
      <trkpt lat="66.15054" lon="22.78801">
        <ele>32.226327</ele>
        <time>2020-08-27T22:35:30.103Z</time>
      </trkpt>
      <trkpt lat="66.14849" lon="22.78417">
        <ele>31.180294</ele>
        <time>2020-08-27T22:36:12.977Z</time>
      </trkpt>
      <trkpt lat="66.14741" lon="22.78262">
        <ele>30.767465</ele>
        <time>2020-08-27T22:36:34.348Z</time>
      </trkpt>
      <trkpt lat="66.14623" lon="22.78142">
        <ele>30.385909</ele>
        <time>2020-08-27T22:36:56.036Z</time>
      </trkpt>
      <trkpt lat="66.14313" lon="22.77936">
        <ele>29.243921</ele>
        <time>2020-08-27T22:37:49.801Z</time>
      </trkpt>
      <trkpt lat="66.14247" lon="22.77864">
        <ele>29.067058</ele>
        <time>2020-08-27T22:38:02.177Z</time>
      </trkpt>
      <trkpt lat="66.14181" lon="22.77776">
        <ele>28.959659</ele>
        <time>2020-08-27T22:38:15.269Z</time>
      </trkpt>
      <trkpt lat="66.14114" lon="22.77668">
        <ele>28.831123</ele>
        <time>2020-08-27T22:38:29.598Z</time>
      </trkpt>
      <trkpt lat="66.13981" lon="22.7741">
        <ele>28.37817</ele>
        <time>2020-08-27T22:38:58.441Z</time>
      </trkpt>
      <trkpt lat="66.13973" lon="22.77393">
        <ele>28.317201</ele>
        <time>2020-08-27T22:39:00.197Z</time>
      </trkpt>
      <trkpt lat="66.13899" lon="22.7724">
        <ele>27.744547</ele>
        <time>2020-08-27T22:39:15.664Z</time>
      </trkpt>
      <trkpt lat="66.13846" lon="22.77115">
        <ele>27.310431</ele>
        <time>2020-08-27T22:39:27.421Z</time>
      </trkpt>
      <trkpt lat="66.1378" lon="22.76923">
        <ele>27.366058</ele>
        <time>2020-08-27T22:39:45.054Z</time>
      </trkpt>
      <trkpt lat="66.13743" lon="22.7679">
        <ele>27.401609</ele>
        <time>2020-08-27T22:39:57.491Z</time>
      </trkpt>
      <trkpt lat="66.1371" lon="22.76651">
        <ele>27.783977</ele>
        <time>2020-08-27T22:40:10.387Z</time>
      </trkpt>
      <trkpt lat="66.1366" lon="22.76414">
        <ele>28.549027</ele>
        <time>2020-08-27T22:40:32.401Z</time>
      </trkpt>
      <trkpt lat="66.13611" lon="22.76158">
        <ele>29.516962</ele>
        <time>2020-08-27T22:40:56.145Z</time>
      </trkpt>
      <trkpt lat="66.13573" lon="22.75954">
        <ele>30.276629</ele>
        <time>2020-08-27T22:41:15.099Z</time>
      </trkpt>
      <trkpt lat="66.1352" lon="22.75667">
        <ele>30.821283</ele>
        <time>2020-08-27T22:41:40.244Z</time>
      </trkpt>
      <trkpt lat="66.13472" lon="22.75422">
        <ele>30.737313</ele>
        <time>2020-08-27T22:41:59.657Z</time>
      </trkpt>
      <trkpt lat="66.13444" lon="22.7527">
        <ele>30.447632</ele>
        <time>2020-08-27T22:42:10.716Z</time>
      </trkpt>
      <trkpt lat="66.13312" lon="22.74531">
        <ele>28.634895</ele>
        <time>2020-08-27T22:43:02.869Z</time>
      </trkpt>
      <trkpt lat="66.1329" lon="22.74359">
        <ele>28.417814</ele>
        <time>2020-08-27T22:43:15.943Z</time>
      </trkpt>
      <trkpt lat="66.13283" lon="22.74308">
        <ele>28.583952</ele>
        <time>2020-08-27T22:43:20.140Z</time>
      </trkpt>
      <trkpt lat="66.13255" lon="22.74105">
        <ele>29.708001</ele>
        <time>2020-08-27T22:43:38.324Z</time>
      </trkpt>
      <trkpt lat="66.1315" lon="22.73308">
        <ele>35.633081</ele>
        <time>2020-08-27T22:45:01.240Z</time>
      </trkpt>
      <trkpt lat="66.13102" lon="22.73052">
        <ele>37.179006</ele>
        <time>2020-08-27T22:45:25.682Z</time>
      </trkpt>
      <trkpt lat="66.13078" lon="22.72941">
        <ele>37.411653</ele>
        <time>2020-08-27T22:45:35.434Z</time>
      </trkpt>
      <trkpt lat="66.13024" lon="22.72723">
        <ele>37.883272</ele>
        <time>2020-08-27T22:45:54.619Z</time>
      </trkpt>
      <trkpt lat="66.12849" lon="22.72007">
        <ele>39.387805</ele>
        <time>2020-08-27T22:47:01.391Z</time>
      </trkpt>
      <trkpt lat="66.12817" lon="22.71894">
        <ele>38.994279</ele>
        <time>2020-08-27T22:47:10.735Z</time>
      </trkpt>
      <trkpt lat="66.12795" lon="22.71822">
        <ele>38.230205</ele>
        <time>2020-08-27T22:47:16.358Z</time>
      </trkpt>
      <trkpt lat="66.12758" lon="22.71712">
        <ele>37.020166</ele>
        <time>2020-08-27T22:47:24.652Z</time>
      </trkpt>
      <trkpt lat="66.12644" lon="22.71437">
        <ele>32.581327</ele>
        <time>2020-08-27T22:47:44.910Z</time>
      </trkpt>
      <trkpt lat="66.12599" lon="22.7134">
        <ele>30.628475</ele>
        <time>2020-08-27T22:47:52.742Z</time>
      </trkpt>
      <trkpt lat="66.12518" lon="22.71159">
        <ele>29.473402</ele>
        <time>2020-08-27T22:48:08.399Z</time>
      </trkpt>
      <trkpt lat="66.12498" lon="22.71118">
        <ele>29.340357</ele>
        <time>2020-08-27T22:48:12.955Z</time>
      </trkpt>
      <trkpt lat="66.12395" lon="22.70887">
        <ele>30.049811</ele>
        <time>2020-08-27T22:48:43.170Z</time>
      </trkpt>
      <trkpt lat="66.12291" lon="22.70704">
        <ele>31.893964</ele>
        <time>2020-08-27T22:49:12.992Z</time>
      </trkpt>
      <trkpt lat="66.12253" lon="22.70645">
        <ele>32.485788</ele>
        <time>2020-08-27T22:49:23.302Z</time>
      </trkpt>
      <trkpt lat="66.12216" lon="22.70602">
        <ele>33.021976</ele>
        <time>2020-08-27T22:49:32.377Z</time>
      </trkpt>
      <trkpt lat="66.12167" lon="22.70543">
        <ele>33.737322</ele>
        <time>2020-08-27T22:49:44.005Z</time>
      </trkpt>
      <trkpt lat="66.12112" lon="22.7049">
        <ele>34.205021</ele>
        <time>2020-08-27T22:49:56.007Z</time>
      </trkpt>
      <trkpt lat="66.12005" lon="22.70413">
        <ele>34.801537</ele>
        <time>2020-08-27T22:50:17.264Z</time>
      </trkpt>
      <trkpt lat="66.11958" lon="22.70389">
        <ele>35.120042</ele>
        <time>2020-08-27T22:50:26.404Z</time>
      </trkpt>
      <trkpt lat="66.11908" lon="22.70379">
        <ele>35.556148</ele>
        <time>2020-08-27T22:50:36.331Z</time>
      </trkpt>
      <trkpt lat="66.11809" lon="22.70374">
        <ele>36.415886</ele>
        <time>2020-08-27T22:50:57.340Z</time>
      </trkpt>
      <trkpt lat="66.11669" lon="22.70398">
        <ele>38.12474</ele>
        <time>2020-08-27T22:51:28.599Z</time>
      </trkpt>
      <trkpt lat="66.11593" lon="22.70438">
        <ele>38.934395</ele>
        <time>2020-08-27T22:51:45.570Z</time>
      </trkpt>
      <trkpt lat="66.11205" lon="22.7073">
        <ele>41.220372</ele>
        <time>2020-08-27T22:53:04.024Z</time>
      </trkpt>
      <trkpt lat="66.11163" lon="22.70753">
        <ele>41.495287</ele>
        <time>2020-08-27T22:53:11.906Z</time>
      </trkpt>
      <trkpt lat="66.11101" lon="22.70777">
        <ele>41.898832</ele>
        <time>2020-08-27T22:53:24.137Z</time>
      </trkpt>
      <trkpt lat="66.10821" lon="22.70846">
        <ele>47.918928</ele>
        <time>2020-08-27T22:54:33.859Z</time>
      </trkpt>
      <trkpt lat="66.10762" lon="22.70874">
        <ele>49.420801</ele>
        <time>2020-08-27T22:54:50.378Z</time>
      </trkpt>
      <trkpt lat="66.10695" lon="22.70917">
        <ele>51.02826</ele>
        <time>2020-08-27T22:55:09.144Z</time>
      </trkpt>
      <trkpt lat="66.10465" lon="22.71142">
        <ele>55.133496</ele>
        <time>2020-08-27T22:56:08.575Z</time>
      </trkpt>
      <trkpt lat="66.10391" lon="22.71188">
        <ele>55.620304</ele>
        <time>2020-08-27T22:56:21.488Z</time>
      </trkpt>
      <trkpt lat="66.10325" lon="22.71216">
        <ele>54.745501</ele>
        <time>2020-08-27T22:56:31.395Z</time>
      </trkpt>
      <trkpt lat="66.10227" lon="22.71228">
        <ele>53.463247</ele>
        <time>2020-08-27T22:56:45.368Z</time>
      </trkpt>
      <trkpt lat="66.09702" lon="22.71187">
        <ele>51.7228</ele>
        <time>2020-08-27T22:58:14.253Z</time>
      </trkpt>
      <trkpt lat="66.09616" lon="22.71187">
        <ele>52.060419</ele>
        <time>2020-08-27T22:58:31.840Z</time>
      </trkpt>
      <trkpt lat="66.09575" lon="22.71193">
        <ele>52.26772</ele>
        <time>2020-08-27T22:58:40.024Z</time>
      </trkpt>
      <trkpt lat="66.09519" lon="22.71208">
        <ele>52.55904</ele>
        <time>2020-08-27T22:58:51.396Z</time>
      </trkpt>
      <trkpt lat="66.0933" lon="22.71293">
        <ele>52.196234</ele>
        <time>2020-08-27T22:59:24.405Z</time>
      </trkpt>
      <trkpt lat="66.0916" lon="22.71338">
        <ele>50.289283</ele>
        <time>2020-08-27T22:59:50.689Z</time>
      </trkpt>
      <trkpt lat="66.09059" lon="22.7135">
        <ele>48.378246</ele>
        <time>2020-08-27T23:00:05.037Z</time>
      </trkpt>
      <trkpt lat="66.08615" lon="22.71365">
        <ele>38.8283</ele>
        <time>2020-08-27T23:01:06.781Z</time>
      </trkpt>
      <trkpt lat="66.08365" lon="22.71397">
        <ele>34.556643</ele>
        <time>2020-08-27T23:01:42.895Z</time>
      </trkpt>
      <trkpt lat="66.0829" lon="22.7141">
        <ele>33.345045</ele>
        <time>2020-08-27T23:01:53.959Z</time>
      </trkpt>
      <trkpt lat="66.08183" lon="22.71413">
        <ele>32.190751</ele>
        <time>2020-08-27T23:02:09.936Z</time>
      </trkpt>
      <trkpt lat="66.08102" lon="22.71395">
        <ele>31.543736</ele>
        <time>2020-08-27T23:02:22.850Z</time>
      </trkpt>
      <trkpt lat="66.08032" lon="22.71365">
        <ele>31.595468</ele>
        <time>2020-08-27T23:02:35.414Z</time>
      </trkpt>
      <trkpt lat="66.07954" lon="22.71311">
        <ele>32.149736</ele>
        <time>2020-08-27T23:02:51.312Z</time>
      </trkpt>
      <trkpt lat="66.07837" lon="22.71197">
        <ele>33.760768</ele>
        <time>2020-08-27T23:03:20.156Z</time>
      </trkpt>
      <trkpt lat="66.07736" lon="22.71096">
        <ele>35.664345</ele>
        <time>2020-08-27T23:03:46.453Z</time>
      </trkpt>
      <trkpt lat="66.07734" lon="22.71093">
        <ele>35.708434</ele>
        <time>2020-08-27T23:03:47.528Z</time>
      </trkpt>
      <trkpt lat="66.07627" lon="22.71005">
        <ele>36.20353</ele>
        <time>2020-08-27T23:04:11.568Z</time>
      </trkpt>
      <trkpt lat="66.07364" lon="22.70855">
        <ele>34.342021</ele>
        <time>2020-08-27T23:04:53.432Z</time>
      </trkpt>
      <trkpt lat="66.07201" lon="22.70766">
        <ele>32.136006</ele>
        <time>2020-08-27T23:05:17.958Z</time>
      </trkpt>
      <trkpt lat="66.07179" lon="22.70754">
        <ele>32.021377</ele>
        <time>2020-08-27T23:05:21.392Z</time>
      </trkpt>
      <trkpt lat="66.07093" lon="22.70722">
        <ele>31.58051</ele>
        <time>2020-08-27T23:05:35.071Z</time>
      </trkpt>
      <trkpt lat="66.07003" lon="22.70696">
        <ele>31.663093</ele>
        <time>2020-08-27T23:05:52.431Z</time>
      </trkpt>
      <trkpt lat="66.06952" lon="22.70683">
        <ele>32.310889</ele>
        <time>2020-08-27T23:06:02.871Z</time>
      </trkpt>
      <trkpt lat="66.06953" lon="22.70664">
        <ele>32.407568</ele>
        <time>2020-08-27T23:06:04.858Z</time>
      </trkpt>
      <trkpt lat="66.06967" lon="22.70449">
        <ele>33.528288</ele>
        <time>2020-08-27T23:06:25.119Z</time>
      </trkpt>
      <trkpt lat="66.06967" lon="22.70258">
        <ele>35.129923</ele>
        <time>2020-08-27T23:06:44.453Z</time>
      </trkpt>
      <trkpt lat="66.06954" lon="22.70093">
        <ele>36.561077</ele>
        <time>2020-08-27T23:07:01.109Z</time>
      </trkpt>
      <trkpt lat="66.0693" lon="22.69778">
        <ele>39.200619</ele>
        <time>2020-08-27T23:07:33.799Z</time>
      </trkpt>
      <trkpt lat="66.06904" lon="22.69337">
        <ele>41.689962</ele>
        <time>2020-08-27T23:08:16.298Z</time>
      </trkpt>
      <trkpt lat="66.06888" lon="22.69106">
        <ele>42.290015</ele>
        <time>2020-08-27T23:08:33.129Z</time>
      </trkpt>
      <trkpt lat="66.06858" lon="22.68876">
        <ele>41.373593</ele>
        <time>2020-08-27T23:08:48.025Z</time>
      </trkpt>
      <trkpt lat="66.06827" lon="22.68687">
        <ele>40.704728</ele>
        <time>2020-08-27T23:09:00.604Z</time>
      </trkpt>
      <trkpt lat="66.06786" lon="22.68514">
        <ele>40.797864</ele>
        <time>2020-08-27T23:09:14.384Z</time>
      </trkpt>
      <trkpt lat="66.06742" lon="22.68358">
        <ele>40.885641</ele>
        <time>2020-08-27T23:09:29.411Z</time>
      </trkpt>
      <trkpt lat="66.0661" lon="22.68071">
        <ele>43.140194</ele>
        <time>2020-08-27T23:10:08.518Z</time>
      </trkpt>
      <trkpt lat="66.06567" lon="22.67946">
        <ele>44.353672</ele>
        <time>2020-08-27T23:10:24.425Z</time>
      </trkpt>
      <trkpt lat="66.06523" lon="22.67796">
        <ele>45.818205</ele>
        <time>2020-08-27T23:10:42.603Z</time>
      </trkpt>
      <trkpt lat="66.06476" lon="22.676">
        <ele>47.67052</ele>
        <time>2020-08-27T23:11:05.263Z</time>
      </trkpt>
      <trkpt lat="66.06446" lon="22.674">
        <ele>49.470535</ele>
        <time>2020-08-27T23:11:26.505Z</time>
      </trkpt>
      <trkpt lat="66.06416" lon="22.67095">
        <ele>52.087027</ele>
        <time>2020-08-27T23:11:57.714Z</time>
      </trkpt>
      <trkpt lat="66.06413" lon="22.66791">
        <ele>54.607497</ele>
        <time>2020-08-27T23:12:27.780Z</time>
      </trkpt>
      <trkpt lat="66.06421" lon="22.66665">
        <ele>55.706657</ele>
        <time>2020-08-27T23:12:40.327Z</time>
      </trkpt>
      <trkpt lat="66.06481" lon="22.66049">
        <ele>61.54573</ele>
        <time>2020-08-27T23:13:44.315Z</time>
      </trkpt>
      <trkpt lat="66.06491" lon="22.65852">
        <ele>63.927563</ele>
        <time>2020-08-27T23:14:06.179Z</time>
      </trkpt>
      <trkpt lat="66.06495" lon="22.65583">
        <ele>67.611951</ele>
        <time>2020-08-27T23:14:37.719Z</time>
      </trkpt>
      <trkpt lat="66.06488" lon="22.65389">
        <ele>70.718239</ele>
        <time>2020-08-27T23:15:01.770Z</time>
      </trkpt>
      <trkpt lat="66.06435" lon="22.64444">
        <ele>87.304695</ele>
        <time>2020-08-27T23:17:05.429Z</time>
      </trkpt>
      <trkpt lat="66.06398" lon="22.6382">
        <ele>97.427946</ele>
        <time>2020-08-27T23:18:23.410Z</time>
      </trkpt>
      <trkpt lat="66.06387" lon="22.63609">
        <ele>99.677622</ele>
        <time>2020-08-27T23:18:48.388Z</time>
      </trkpt>
      <trkpt lat="66.06334" lon="22.62666">
        <ele>106.749989</ele>
        <time>2020-08-27T23:20:20.572Z</time>
      </trkpt>
      <trkpt lat="66.06329" lon="22.62507">
        <ele>107.20438</ele>
        <time>2020-08-27T23:20:32.194Z</time>
      </trkpt>
      <trkpt lat="66.06338" lon="22.6197">
        <ele>104.53505</ele>
        <time>2020-08-27T23:21:04.843Z</time>
      </trkpt>
      <trkpt lat="66.06336" lon="22.61687">
        <ele>101.444886</ele>
        <time>2020-08-27T23:21:20.484Z</time>
      </trkpt>
      <trkpt lat="66.06312" lon="22.61363">
        <ele>96.542809</ele>
        <time>2020-08-27T23:21:37.549Z</time>
      </trkpt>
      <trkpt lat="66.06294" lon="22.61206">
        <ele>93.685893</ele>
        <time>2020-08-27T23:21:45.739Z</time>
      </trkpt>
      <trkpt lat="66.06247" lon="22.60935">
        <ele>87.755667</ele>
        <time>2020-08-27T23:22:00.090Z</time>
      </trkpt>
      <trkpt lat="66.06206" lon="22.60746">
        <ele>83.230597</ele>
        <time>2020-08-27T23:22:10.557Z</time>
      </trkpt>
      <trkpt lat="66.0617" lon="22.60618">
        <ele>80.407606</ele>
        <time>2020-08-27T23:22:18.218Z</time>
      </trkpt>
      <trkpt lat="66.06125" lon="22.60471">
        <ele>77.082563</ele>
        <time>2020-08-27T23:22:27.509Z</time>
      </trkpt>
      <trkpt lat="66.06025" lon="22.60229">
        <ele>71.776886</ele>
        <time>2020-08-27T23:22:45.385Z</time>
      </trkpt>
      <trkpt lat="66.05939" lon="22.60067">
        <ele>68.403972</ele>
        <time>2020-08-27T23:22:59.520Z</time>
      </trkpt>
      <trkpt lat="66.05857" lon="22.59909">
        <ele>66.612557</ele>
        <time>2020-08-27T23:23:14.047Z</time>
      </trkpt>
      <trkpt lat="66.05663" lon="22.59548">
        <ele>65.60175</ele>
        <time>2020-08-27T23:23:56.184Z</time>
      </trkpt>
      <trkpt lat="66.05578" lon="22.59366">
        <ele>66.57428</ele>
        <time>2020-08-27T23:24:19.717Z</time>
      </trkpt>
      <trkpt lat="66.05503" lon="22.59163">
        <ele>67.630094</ele>
        <time>2020-08-27T23:24:43.790Z</time>
      </trkpt>
      <trkpt lat="66.0545" lon="22.58982">
        <ele>68.565291</ele>
        <time>2020-08-27T23:25:02.927Z</time>
      </trkpt>
      <trkpt lat="66.05402" lon="22.58755">
        <ele>69.403948</ele>
        <time>2020-08-27T23:25:24.603Z</time>
      </trkpt>
      <trkpt lat="66.05378" lon="22.58617">
        <ele>69.819718</ele>
        <time>2020-08-27T23:25:36.874Z</time>
      </trkpt>
      <trkpt lat="66.05353" lon="22.58435">
        <ele>70.043742</ele>
        <time>2020-08-27T23:25:51.855Z</time>
      </trkpt>
      <trkpt lat="66.05325" lon="22.58188">
        <ele>69.571488</ele>
        <time>2020-08-27T23:26:09.663Z</time>
      </trkpt>
      <trkpt lat="66.05307" lon="22.57912">
        <ele>68.186657</ele>
        <time>2020-08-27T23:26:26.532Z</time>
      </trkpt>
      <trkpt lat="66.05305" lon="22.57802">
        <ele>67.390187</ele>
        <time>2020-08-27T23:26:32.813Z</time>
      </trkpt>
      <trkpt lat="66.05321" lon="22.57566">
        <ele>65.642285</ele>
        <time>2020-08-27T23:26:46.414Z</time>
      </trkpt>
      <trkpt lat="66.05367" lon="22.56841">
        <ele>60.493575</ele>
        <time>2020-08-27T23:27:29.572Z</time>
      </trkpt>
      <trkpt lat="66.05376" lon="22.56483">
        <ele>57.924832</ele>
        <time>2020-08-27T23:27:51.027Z</time>
      </trkpt>
      <trkpt lat="66.05374" lon="22.56292">
        <ele>56.443192</ele>
        <time>2020-08-27T23:28:01.885Z</time>
      </trkpt>
      <trkpt lat="66.0537" lon="22.56155">
        <ele>54.886813</ele>
        <time>2020-08-27T23:28:09.402Z</time>
      </trkpt>
      <trkpt lat="66.05359" lon="22.55939">
        <ele>52.407016</ele>
        <time>2020-08-27T23:28:21.147Z</time>
      </trkpt>
      <trkpt lat="66.05338" lon="22.55672">
        <ele>49.523085</ele>
        <time>2020-08-27T23:28:35.666Z</time>
      </trkpt>
      <trkpt lat="66.05284" lon="22.55011">
        <ele>44.03902</ele>
        <time>2020-08-27T23:29:14.048Z</time>
      </trkpt>
      <trkpt lat="66.0528" lon="22.54971">
        <ele>44.235772</ele>
        <time>2020-08-27T23:29:17.166Z</time>
      </trkpt>
      <trkpt lat="66.05262" lon="22.54743">
        <ele>46.011519</ele>
        <time>2020-08-27T23:29:38.435Z</time>
      </trkpt>
      <trkpt lat="66.05257" lon="22.54548">
        <ele>47.663584</ele>
        <time>2020-08-27T23:30:01.451Z</time>
      </trkpt>
      <trkpt lat="66.05259" lon="22.54409">
        <ele>50.001913</ele>
        <time>2020-08-27T23:30:18.878Z</time>
      </trkpt>
      <trkpt lat="66.05268" lon="22.54273">
        <ele>52.301792</ele>
        <time>2020-08-27T23:30:36.267Z</time>
      </trkpt>
      <trkpt lat="66.05302" lon="22.53855">
        <ele>59.806623</ele>
        <time>2020-08-27T23:31:31.710Z</time>
      </trkpt>
      <trkpt lat="66.05337" lon="22.53126">
        <ele>73.014543</ele>
        <time>2020-08-27T23:33:07.716Z</time>
      </trkpt>
      <trkpt lat="66.05351" lon="22.52809">
        <ele>78.608295</ele>
        <time>2020-08-27T23:33:48.149Z</time>
      </trkpt>
      <trkpt lat="66.05363" lon="22.52556">
        <ele>83.710738</ele>
        <time>2020-08-27T23:34:21.859Z</time>
      </trkpt>
      <trkpt lat="66.05368" lon="22.52283">
        <ele>89.250046</ele>
        <time>2020-08-27T23:35:01.242Z</time>
      </trkpt>
      <trkpt lat="66.0536" lon="22.5192">
        <ele>96.770774</ele>
        <time>2020-08-27T23:35:52.166Z</time>
      </trkpt>
      <trkpt lat="66.0534" lon="22.51525">
        <ele>102.904005</ele>
        <time>2020-08-27T23:36:40.888Z</time>
      </trkpt>
      <trkpt lat="66.05332" lon="22.51358">
        <ele>104.68465</ele>
        <time>2020-08-27T23:36:59.109Z</time>
      </trkpt>
      <trkpt lat="66.05312" lon="22.50977">
        <ele>107.904721</ele>
        <time>2020-08-27T23:37:36.685Z</time>
      </trkpt>
      <trkpt lat="66.05288" lon="22.50503">
        <ele>110.445159</ele>
        <time>2020-08-27T23:38:18.207Z</time>
      </trkpt>
      <trkpt lat="66.05278" lon="22.50324">
        <ele>111.47384</ele>
        <time>2020-08-27T23:38:34.154Z</time>
      </trkpt>
      <trkpt lat="66.05233" lon="22.49517">
        <ele>117.541062</ele>
        <time>2020-08-27T23:39:52.236Z</time>
      </trkpt>
      <trkpt lat="66.05219" lon="22.4919">
        <ele>120.720745</ele>
        <time>2020-08-27T23:40:27.109Z</time>
      </trkpt>
      <trkpt lat="66.05221" lon="22.48969">
        <ele>123.219677</ele>
        <time>2020-08-27T23:40:51.463Z</time>
      </trkpt>
      <trkpt lat="66.05229" lon="22.48776">
        <ele>125.356334</ele>
        <time>2020-08-27T23:41:12.821Z</time>
      </trkpt>
      <trkpt lat="66.05265" lon="22.48392">
        <ele>129.411099</ele>
        <time>2020-08-27T23:41:54.259Z</time>
      </trkpt>
      <trkpt lat="66.05277" lon="22.48166">
        <ele>131.449838</ele>
        <time>2020-08-27T23:42:17.275Z</time>
      </trkpt>
      <trkpt lat="66.05283" lon="22.47927">
        <ele>133.567018</ele>
        <time>2020-08-27T23:42:41.315Z</time>
      </trkpt>
      <trkpt lat="66.05287" lon="22.4776">
        <ele>134.958419</ele>
        <time>2020-08-27T23:42:57.885Z</time>
      </trkpt>
      <trkpt lat="66.05303" lon="22.47525">
        <ele>136.935459</ele>
        <time>2020-08-27T23:43:21.389Z</time>
      </trkpt>
      <trkpt lat="66.05436" lon="22.46238">
        <ele>146.794329</ele>
        <time>2020-08-27T23:45:28.775Z</time>
      </trkpt>
      <trkpt lat="66.05462" lon="22.46055">
        <ele>148.622087</ele>
        <time>2020-08-27T23:45:48.174Z</time>
      </trkpt>
      <trkpt lat="66.05534" lon="22.45617">
        <ele>153.43795</ele>
        <time>2020-08-27T23:46:38.108Z</time>
      </trkpt>
      <trkpt lat="66.05575" lon="22.45318">
        <ele>156.821404</ele>
        <time>2020-08-27T23:47:12.840Z</time>
      </trkpt>
      <trkpt lat="66.05588" lon="22.45142">
        <ele>158.633542</ele>
        <time>2020-08-27T23:47:32.155Z</time>
      </trkpt>
      <trkpt lat="66.05599" lon="22.44857">
        <ele>160.805469</ele>
        <time>2020-08-27T23:48:00.772Z</time>
      </trkpt>
      <trkpt lat="66.05599" lon="22.44709">
        <ele>161.445657</ele>
        <time>2020-08-27T23:48:14.102Z</time>
      </trkpt>
      <trkpt lat="66.05584" lon="22.44332">
        <ele>161.321997</ele>
        <time>2020-08-27T23:48:41.409Z</time>
      </trkpt>
      <trkpt lat="66.05567" lon="22.4416">
        <ele>160.58853</ele>
        <time>2020-08-27T23:48:52.037Z</time>
      </trkpt>
      <trkpt lat="66.05523" lon="22.43841">
        <ele>157.092181</ele>
        <time>2020-08-27T23:49:10.534Z</time>
      </trkpt>
      <trkpt lat="66.05477" lon="22.43586">
        <ele>153.570523</ele>
        <time>2020-08-27T23:49:25.103Z</time>
      </trkpt>
      <trkpt lat="66.05409" lon="22.43239">
        <ele>148.286949</ele>
        <time>2020-08-27T23:49:45.312Z</time>
      </trkpt>
      <trkpt lat="66.05363" lon="22.43054">
        <ele>145.885457</ele>
        <time>2020-08-27T23:49:57.032Z</time>
      </trkpt>
      <trkpt lat="66.05332" lon="22.42924">
        <ele>144.211469</ele>
        <time>2020-08-27T23:50:05.461Z</time>
      </trkpt>
      <trkpt lat="66.05303" lon="22.4279">
        <ele>143.323642</ele>
        <time>2020-08-27T23:50:14.260Z</time>
      </trkpt>
      <trkpt lat="66.05281" lon="22.42657">
        <ele>142.577466</ele>
        <time>2020-08-27T23:50:22.947Z</time>
      </trkpt>
      <trkpt lat="66.05268" lon="22.42563">
        <ele>142.064204</ele>
        <time>2020-08-27T23:50:29.081Z</time>
      </trkpt>
      <trkpt lat="66.05086" lon="22.411">
        <ele>141.910204</ele>
        <time>2020-08-27T23:52:18.961Z</time>
      </trkpt>
      <trkpt lat="66.04952" lon="22.40306">
        <ele>145.90901</ele>
        <time>2020-08-27T23:53:37.527Z</time>
      </trkpt>
      <trkpt lat="66.04936" lon="22.4013">
        <ele>146.278654</ele>
        <time>2020-08-27T23:53:51.301Z</time>
      </trkpt>
      <trkpt lat="66.04931" lon="22.39961">
        <ele>146.60164</ele>
        <time>2020-08-27T23:54:03.562Z</time>
      </trkpt>
      <trkpt lat="66.04937" lon="22.3977">
        <ele>146.690727</ele>
        <time>2020-08-27T23:54:17.416Z</time>
      </trkpt>
      <trkpt lat="66.04957" lon="22.39578">
        <ele>146.782645</ele>
        <time>2020-08-27T23:54:32.692Z</time>
      </trkpt>
      <trkpt lat="66.04974" lon="22.39476">
        <ele>146.590375</ele>
        <time>2020-08-27T23:54:40.922Z</time>
      </trkpt>
      <trkpt lat="66.04995" lon="22.39374">
        <ele>146.257174</ele>
        <time>2020-08-27T23:54:49.208Z</time>
      </trkpt>
      <trkpt lat="66.05167" lon="22.38596">
        <ele>142.237973</ele>
        <time>2020-08-27T23:55:43.047Z</time>
      </trkpt>
      <trkpt lat="66.05217" lon="22.38361">
        <ele>141.016118</ele>
        <time>2020-08-27T23:55:59.465Z</time>
      </trkpt>
      <trkpt lat="66.05242" lon="22.38177">
        <ele>140.503563</ele>
        <time>2020-08-27T23:56:12.120Z</time>
      </trkpt>
      <trkpt lat="66.05256" lon="22.38035">
        <ele>140.117995</ele>
        <time>2020-08-27T23:56:21.867Z</time>
      </trkpt>
      <trkpt lat="66.05269" lon="22.37792">
        <ele>139.675639</ele>
        <time>2020-08-27T23:56:38.534Z</time>
      </trkpt>
      <trkpt lat="66.05267" lon="22.37555">
        <ele>139.373735</ele>
        <time>2020-08-27T23:56:54.851Z</time>
      </trkpt>
      <trkpt lat="66.05253" lon="22.37326">
        <ele>139.296708</ele>
        <time>2020-08-27T23:57:11.117Z</time>
      </trkpt>
      <trkpt lat="66.05231" lon="22.37126">
        <ele>139.289369</ele>
        <time>2020-08-27T23:57:26.163Z</time>
      </trkpt>
      <trkpt lat="66.0508" lon="22.36286">
        <ele>140.074818</ele>
        <time>2020-08-27T23:58:35.663Z</time>
      </trkpt>
      <trkpt lat="66.05025" lon="22.35979">
        <ele>140.211068</ele>
        <time>2020-08-27T23:59:00.792Z</time>
      </trkpt>
      <trkpt lat="66.04959" lon="22.35608">
        <ele>140.174514</ele>
        <time>2020-08-27T23:59:29.838Z</time>
      </trkpt>
      <trkpt lat="66.04918" lon="22.3541">
        <ele>140.111586</ele>
        <time>2020-08-27T23:59:45.546Z</time>
      </trkpt>
      <trkpt lat="66.04874" lon="22.3524">
        <ele>140.076025</ele>
        <time>2020-08-28T00:00:00.011Z</time>
      </trkpt>
      <trkpt lat="66.04829" lon="22.35114">
        <ele>140.046459</ele>
        <time>2020-08-28T00:00:12.216Z</time>
      </trkpt>
      <trkpt lat="66.04781" lon="22.35002">
        <ele>140.129019</ele>
        <time>2020-08-28T00:00:24.250Z</time>
      </trkpt>
      <trkpt lat="66.04134" lon="22.33734">
        <ele>141.221399</ele>
        <time>2020-08-28T00:02:55.865Z</time>
      </trkpt>
      <trkpt lat="66.04083" lon="22.33624">
        <ele>140.933969</ele>
        <time>2020-08-28T00:03:07.199Z</time>
      </trkpt>
      <trkpt lat="66.04031" lon="22.33481">
        <ele>140.484536</ele>
        <time>2020-08-28T00:03:19.845Z</time>
      </trkpt>
      <trkpt lat="66.03981" lon="22.33266">
        <ele>139.864601</ele>
        <time>2020-08-28T00:03:35.810Z</time>
      </trkpt>
      <trkpt lat="66.03962" lon="22.3314">
        <ele>139.503552</ele>
        <time>2020-08-28T00:03:44.609Z</time>
      </trkpt>
      <trkpt lat="66.0395" lon="22.33012">
        <ele>139.152191</ele>
        <time>2020-08-28T00:03:53.253Z</time>
      </trkpt>
      <trkpt lat="66.03942" lon="22.32754">
        <ele>138.588036</ele>
        <time>2020-08-28T00:04:10.628Z</time>
      </trkpt>
      <trkpt lat="66.03946" lon="22.32612">
        <ele>138.295568</ele>
        <time>2020-08-28T00:04:20.263Z</time>
      </trkpt>
      <trkpt lat="66.0396" lon="22.32456">
        <ele>137.93133</ele>
        <time>2020-08-28T00:04:31.013Z</time>
      </trkpt>
      <trkpt lat="66.04027" lon="22.3194">
        <ele>136.153317</ele>
        <time>2020-08-28T00:05:06.307Z</time>
      </trkpt>
      <trkpt lat="66.04037" lon="22.3176">
        <ele>135.275192</ele>
        <time>2020-08-28T00:05:17.437Z</time>
      </trkpt>
      <trkpt lat="66.04039" lon="22.31628">
        <ele>134.516395</ele>
        <time>2020-08-28T00:05:25.311Z</time>
      </trkpt>
      <trkpt lat="66.04021" lon="22.31219">
        <ele>131.136864</ele>
        <time>2020-08-28T00:05:48.725Z</time>
      </trkpt>
      <trkpt lat="66.04019" lon="22.31094">
        <ele>129.926068</ele>
        <time>2020-08-28T00:05:55.726Z</time>
      </trkpt>
      <trkpt lat="66.04027" lon="22.30935">
        <ele>128.379246</ele>
        <time>2020-08-28T00:06:04.624Z</time>
      </trkpt>
      <trkpt lat="66.04069" lon="22.30498">
        <ele>124.359881</ele>
        <time>2020-08-28T00:06:29.702Z</time>
      </trkpt>
      <trkpt lat="66.04092" lon="22.30351">
        <ele>123.057594</ele>
        <time>2020-08-28T00:06:38.713Z</time>
      </trkpt>
      <trkpt lat="66.04193" lon="22.29806">
        <ele>121.8197</ele>
        <time>2020-08-28T00:07:17.186Z</time>
      </trkpt>
      <trkpt lat="66.04055" lon="22.29672">
        <ele>123.440926</ele>
        <time>2020-08-28T00:07:51.484Z</time>
      </trkpt>
      <trkpt lat="66.03918" lon="22.29551">
        <ele>126.624913</ele>
        <time>2020-08-28T00:08:29.054Z</time>
      </trkpt>
      <trkpt lat="66.03745" lon="22.29474">
        <ele>129.735292</ele>
        <time>2020-08-28T00:09:10.205Z</time>
      </trkpt>
      <trkpt lat="66.03677" lon="22.29455">
        <ele>130.672126</ele>
        <time>2020-08-28T00:09:25.665Z</time>
      </trkpt>
      <trkpt lat="66.03573" lon="22.29444">
        <ele>132.065011</ele>
        <time>2020-08-28T00:09:48.595Z</time>
      </trkpt>
      <trkpt lat="66.03377" lon="22.29467">
        <ele>133.618016</ele>
        <time>2020-08-28T00:10:29.122Z</time>
      </trkpt>
      <trkpt lat="66.03115" lon="22.29597">
        <ele>132.789498</ele>
        <time>2020-08-28T00:11:14.535Z</time>
      </trkpt>
      <trkpt lat="66.0307" lon="22.2962">
        <ele>132.470906</ele>
        <time>2020-08-28T00:11:21.568Z</time>
      </trkpt>
      <trkpt lat="66.02897" lon="22.2971">
        <ele>130.516436</ele>
        <time>2020-08-28T00:11:48.424Z</time>
      </trkpt>
      <trkpt lat="66.02739" lon="22.29769">
        <ele>128.259379</ele>
        <time>2020-08-28T00:12:12.563Z</time>
      </trkpt>
      <trkpt lat="66.0236" lon="22.29814">
        <ele>121.013687</ele>
        <time>2020-08-28T00:13:06.264Z</time>
      </trkpt>
      <trkpt lat="66.02167" lon="22.29856">
        <ele>117.777282</ele>
        <time>2020-08-28T00:13:33.682Z</time>
      </trkpt>
      <trkpt lat="66.01574" lon="22.30195">
        <ele>115.612987</ele>
        <time>2020-08-28T00:15:18.339Z</time>
      </trkpt>
      <trkpt lat="66.0144" lon="22.30312">
        <ele>114.425125</ele>
        <time>2020-08-28T00:15:40.635Z</time>
      </trkpt>
      <trkpt lat="66.01335" lon="22.30436">
        <ele>112.34779</ele>
        <time>2020-08-28T00:15:57.459Z</time>
      </trkpt>
      <trkpt lat="66.01167" lon="22.30725">
        <ele>107.796311</ele>
        <time>2020-08-28T00:16:25.868Z</time>
      </trkpt>
      <trkpt lat="66.0109" lon="22.30894">
        <ele>105.294502</ele>
        <time>2020-08-28T00:16:39.743Z</time>
      </trkpt>
      <trkpt lat="66.00929" lon="22.31258">
        <ele>100.460328</ele>
        <time>2020-08-28T00:17:09.826Z</time>
      </trkpt>
      <trkpt lat="66.00873" lon="22.31385">
        <ele>99.008393</ele>
        <time>2020-08-28T00:17:21.032Z</time>
      </trkpt>
      <trkpt lat="66.00841" lon="22.31457">
        <ele>98.675106</ele>
        <time>2020-08-28T00:17:27.674Z</time>
      </trkpt>
      <trkpt lat="66.00323" lon="22.32409">
        <ele>93.512658</ele>
        <time>2020-08-28T00:19:11.482Z</time>
      </trkpt>
      <trkpt lat="66.00178" lon="22.32676">
        <ele>90.664588</ele>
        <time>2020-08-28T00:19:37.833Z</time>
      </trkpt>
      <trkpt lat="65.99989" lon="22.32985">
        <ele>85.643469</ele>
        <time>2020-08-28T00:20:09.158Z</time>
      </trkpt>
      <trkpt lat="65.99891" lon="22.3313">
        <ele>82.885606</ele>
        <time>2020-08-28T00:20:24.748Z</time>
      </trkpt>
      <trkpt lat="65.99584" lon="22.33585">
        <ele>74.974042</ele>
        <time>2020-08-28T00:21:14.467Z</time>
      </trkpt>
      <trkpt lat="65.99414" lon="22.33821">
        <ele>71.938707</ele>
        <time>2020-08-28T00:21:43.173Z</time>
      </trkpt>
      <trkpt lat="65.99175" lon="22.34153">
        <ele>69.06818</ele>
        <time>2020-08-28T00:22:26.456Z</time>
      </trkpt>
      <trkpt lat="65.99045" lon="22.34342">
        <ele>66.886067</ele>
        <time>2020-08-28T00:22:48.524Z</time>
      </trkpt>
      <trkpt lat="65.98942" lon="22.34492">
        <ele>64.711932</ele>
        <time>2020-08-28T00:23:05.440Z</time>
      </trkpt>
      <trkpt lat="65.98732" lon="22.34873">
        <ele>60.991217</ele>
        <time>2020-08-28T00:23:43.640Z</time>
      </trkpt>
      <trkpt lat="65.98305" lon="22.35904">
        <ele>57.180556</ele>
        <time>2020-08-28T00:25:20.398Z</time>
      </trkpt>
      <trkpt lat="65.98156" lon="22.36263">
        <ele>57.78561</ele>
        <time>2020-08-28T00:26:02.554Z</time>
      </trkpt>
      <trkpt lat="65.97835" lon="22.37075">
        <ele>56.647216</ele>
        <time>2020-08-28T00:27:22.058Z</time>
      </trkpt>
      <trkpt lat="65.97753" lon="22.37259">
        <ele>55.527439</ele>
        <time>2020-08-28T00:27:38.616Z</time>
      </trkpt>
      <trkpt lat="65.97672" lon="22.37419">
        <ele>53.508601</ele>
        <time>2020-08-28T00:27:53.216Z</time>
      </trkpt>
      <trkpt lat="65.97645" lon="22.37469">
        <ele>52.827568</ele>
        <time>2020-08-28T00:27:58.035Z</time>
      </trkpt>
      <trkpt lat="65.97507" lon="22.37646">
        <ele>49.666692</ele>
        <time>2020-08-28T00:28:19.773Z</time>
      </trkpt>
      <trkpt lat="65.97379" lon="22.37766">
        <ele>46.827924</ele>
        <time>2020-08-28T00:28:39.272Z</time>
      </trkpt>
      <trkpt lat="65.97245" lon="22.37849">
        <ele>43.878001</ele>
        <time>2020-08-28T00:28:58.538Z</time>
      </trkpt>
      <trkpt lat="65.97118" lon="22.37888">
        <ele>40.786609</ele>
        <time>2020-08-28T00:29:16.037Z</time>
      </trkpt>
      <trkpt lat="65.9695" lon="22.37884">
        <ele>36.079106</ele>
        <time>2020-08-28T00:29:38.613Z</time>
      </trkpt>
      <trkpt lat="65.9694" lon="22.37883">
        <ele>35.784318</ele>
        <time>2020-08-28T00:29:39.972Z</time>
      </trkpt>
      <trkpt lat="65.96825" lon="22.37889">
        <ele>32.23009</ele>
        <time>2020-08-28T00:29:54.938Z</time>
      </trkpt>
      <trkpt lat="65.96774" lon="22.37893">
        <ele>30.60153</ele>
        <time>2020-08-28T00:30:01.584Z</time>
      </trkpt>
      <trkpt lat="65.9664" lon="22.37909">
        <ele>26.925286</ele>
        <time>2020-08-28T00:30:19.368Z</time>
      </trkpt>
      <trkpt lat="65.96551" lon="22.37931">
        <ele>24.674987</ele>
        <time>2020-08-28T00:30:31.767Z</time>
      </trkpt>
      <trkpt lat="65.96368" lon="22.38036">
        <ele>21.590419</ele>
        <time>2020-08-28T00:30:59.425Z</time>
      </trkpt>
      <trkpt lat="65.9618" lon="22.38177">
        <ele>17.735855</ele>
        <time>2020-08-28T00:31:27.425Z</time>
      </trkpt>
      <trkpt lat="65.96144" lon="22.38211">
        <ele>16.736</ele>
        <time>2020-08-28T00:31:32.657Z</time>
      </trkpt>
      <trkpt lat="65.96096" lon="22.38265">
        <ele>15.379911</ele>
        <time>2020-08-28T00:31:39.711Z</time>
      </trkpt>
      <trkpt lat="65.96093" lon="22.38241">
        <ele>15.115422</ele>
        <time>2020-08-28T00:31:41.069Z</time>
      </trkpt>
      <trkpt lat="65.96082" lon="22.38241">
        <ele>14.845456</ele>
        <time>2020-08-28T00:31:42.583Z</time>
      </trkpt>
      <trkpt lat="65.9597" lon="22.3832">
        <ele>12.528398</ele>
        <time>2020-08-28T00:31:59.181Z</time>
      </trkpt>
      <trkpt lat="65.95809" lon="22.38466">
        <ele>10.409368</ele>
        <time>2020-08-28T00:32:27.035Z</time>
      </trkpt>
      <trkpt lat="65.95677" lon="22.38636">
        <ele>9.698244</ele>
        <time>2020-08-28T00:32:53.524Z</time>
      </trkpt>
      <trkpt lat="65.95526" lon="22.38891">
        <ele>9.175596</ele>
        <time>2020-08-28T00:33:26.039Z</time>
      </trkpt>
      <trkpt lat="65.95285" lon="22.39308">
        <ele>8.229282</ele>
        <time>2020-08-28T00:34:18.157Z</time>
      </trkpt>
      <trkpt lat="65.95216" lon="22.39554">
        <ele>7.866714</ele>
        <time>2020-08-28T00:34:39.919Z</time>
      </trkpt>
      <trkpt lat="65.95173" lon="22.39742">
        <ele>7.61681</ele>
        <time>2020-08-28T00:34:55.311Z</time>
      </trkpt>
      <trkpt lat="65.95075" lon="22.3981">
        <ele>7.413589</ele>
        <time>2020-08-28T00:35:12.588Z</time>
      </trkpt>
      <trkpt lat="65.95056" lon="22.39819">
        <ele>7.37329</ele>
        <time>2020-08-28T00:35:16.072Z</time>
      </trkpt>
      <trkpt lat="65.95003" lon="22.39843">
        <ele>7.26812</ele>
        <time>2020-08-28T00:35:25.358Z</time>
      </trkpt>
      <trkpt lat="65.95" lon="22.39844">
        <ele>7.27166</ele>
        <time>2020-08-28T00:35:25.892Z</time>
      </trkpt>
      <trkpt lat="65.94792" lon="22.39918">
        <ele>7.599108</ele>
        <time>2020-08-28T00:36:04.499Z</time>
      </trkpt>
      <trkpt lat="65.94609" lon="22.39987">
        <ele>8.286492</ele>
        <time>2020-08-28T00:36:39.988Z</time>
      </trkpt>
      <trkpt lat="65.94413" lon="22.40061">
        <ele>8.823266</ele>
        <time>2020-08-28T00:37:18.013Z</time>
      </trkpt>
      <trkpt lat="65.94333" lon="22.40099">
        <ele>8.784098</ele>
        <time>2020-08-28T00:37:32.062Z</time>
      </trkpt>
      <trkpt lat="65.9427" lon="22.40128">
        <ele>8.638874</ele>
        <time>2020-08-28T00:37:42.637Z</time>
      </trkpt>
      <trkpt lat="65.94211" lon="22.40178">
        <ele>8.295472</ele>
        <time>2020-08-28T00:37:52.824Z</time>
      </trkpt>
      <trkpt lat="65.94129" lon="22.40256">
        <ele>7.816545</ele>
        <time>2020-08-28T00:38:06.972Z</time>
      </trkpt>
      <trkpt lat="65.93993" lon="22.40432">
        <ele>7.589277</ele>
        <time>2020-08-28T00:38:33.568Z</time>
      </trkpt>
      <trkpt lat="65.93851" lon="22.40617">
        <ele>7.990791</ele>
        <time>2020-08-28T00:39:04.044Z</time>
      </trkpt>
      <trkpt lat="65.93806" lon="22.40675">
        <ele>8.165528</ele>
        <time>2020-08-28T00:39:13.876Z</time>
      </trkpt>
      <trkpt lat="65.9374" lon="22.40773">
        <ele>8.271158</ele>
        <time>2020-08-28T00:39:28.747Z</time>
      </trkpt>
      <trkpt lat="65.93698" lon="22.40836">
        <ele>8.337373</ele>
        <time>2020-08-28T00:39:37.731Z</time>
      </trkpt>
      <trkpt lat="65.93626" lon="22.40955">
        <ele>8.190287</ele>
        <time>2020-08-28T00:39:52.758Z</time>
      </trkpt>
      <trkpt lat="65.93469" lon="22.41217">
        <ele>6.764497</ele>
        <time>2020-08-28T00:40:22.738Z</time>
      </trkpt>
      <trkpt lat="65.93372" lon="22.41379">
        <ele>5.533249</ele>
        <time>2020-08-28T00:40:40.598Z</time>
      </trkpt>
      <trkpt lat="65.93329" lon="22.41474">
        <ele>5.040595</ele>
        <time>2020-08-28T00:40:49.519Z</time>
      </trkpt>
      <trkpt lat="65.93306" lon="22.41527">
        <ele>4.800556</ele>
        <time>2020-08-28T00:40:54.517Z</time>
      </trkpt>
      <trkpt lat="65.93256" lon="22.41639">
        <ele>4.294109</ele>
        <time>2020-08-28T00:41:05.277Z</time>
      </trkpt>
      <trkpt lat="65.93173" lon="22.41824">
        <ele>3.859185</ele>
        <time>2020-08-28T00:41:24.130Z</time>
      </trkpt>
      <trkpt lat="65.93133" lon="22.41916">
        <ele>3.765772</ele>
        <time>2020-08-28T00:41:33.855Z</time>
      </trkpt>
      <trkpt lat="65.93095" lon="22.42014">
        <ele>3.672459</ele>
        <time>2020-08-28T00:41:43.597Z</time>
      </trkpt>
      <trkpt lat="65.93059" lon="22.42129">
        <ele>3.773578</ele>
        <time>2020-08-28T00:41:54.427Z</time>
      </trkpt>
      <trkpt lat="65.9302" lon="22.42252">
        <ele>3.881232</ele>
        <time>2020-08-28T00:42:05.946Z</time>
      </trkpt>
      <trkpt lat="65.9286" lon="22.42763">
        <ele>4.71757</ele>
        <time>2020-08-28T00:42:55.536Z</time>
      </trkpt>
      <trkpt lat="65.92744" lon="22.43134">
        <ele>5.832242</ele>
        <time>2020-08-28T00:43:33.892Z</time>
      </trkpt>
      <trkpt lat="65.92651" lon="22.4343">
        <ele>6.582528</ele>
        <time>2020-08-28T00:44:03.607Z</time>
      </trkpt>
      <trkpt lat="65.92622" lon="22.43509">
        <ele>6.549823</ele>
        <time>2020-08-28T00:44:11.703Z</time>
      </trkpt>
      <trkpt lat="65.92577" lon="22.43628">
        <ele>6.500248</ele>
        <time>2020-08-28T00:44:23.421Z</time>
      </trkpt>
      <trkpt lat="65.92504" lon="22.43749">
        <ele>6.154112</ele>
        <time>2020-08-28T00:44:37.962Z</time>
      </trkpt>
      <trkpt lat="65.92491" lon="22.43768">
        <ele>5.979729</ele>
        <time>2020-08-28T00:44:40.428Z</time>
      </trkpt>
      <trkpt lat="65.92418" lon="22.43866">
        <ele>5.052049</ele>
        <time>2020-08-28T00:44:52.981Z</time>
      </trkpt>
      <trkpt lat="65.92361" lon="22.4392">
        <ele>4.358406</ele>
        <time>2020-08-28T00:45:02.053Z</time>
      </trkpt>
      <trkpt lat="65.92303" lon="22.43968">
        <ele>3.636694</ele>
        <time>2020-08-28T00:45:10.955Z</time>
      </trkpt>
      <trkpt lat="65.92162" lon="22.44074">
        <ele>2.358137</ele>
        <time>2020-08-28T00:45:33.841Z</time>
      </trkpt>
      <trkpt lat="65.92158" lon="22.44076">
        <ele>2.362081</ele>
        <time>2020-08-28T00:45:34.608Z</time>
      </trkpt>
      <trkpt lat="65.92077" lon="22.44172">
        <ele>2.451209</ele>
        <time>2020-08-28T00:45:50.745Z</time>
      </trkpt>
      <trkpt lat="65.92005" lon="22.44273">
        <ele>2.939701</ele>
        <time>2020-08-28T00:46:08.019Z</time>
      </trkpt>
      <trkpt lat="65.91979" lon="22.44314">
        <ele>3.367182</ele>
        <time>2020-08-28T00:46:14.888Z</time>
      </trkpt>
      <trkpt lat="65.91967" lon="22.44336">
        <ele>3.56995</ele>
        <time>2020-08-28T00:46:18.171Z</time>
      </trkpt>
      <trkpt lat="65.91921" lon="22.44423">
        <ele>4.358155</ele>
        <time>2020-08-28T00:46:31.297Z</time>
      </trkpt>
      <trkpt lat="65.91889" lon="22.44486">
        <ele>4.921113</ele>
        <time>2020-08-28T00:46:40.802Z</time>
      </trkpt>
      <trkpt lat="65.91815" lon="22.44627">
        <ele>6.356409</ele>
        <time>2020-08-28T00:47:02.593Z</time>
      </trkpt>
      <trkpt lat="65.91727" lon="22.44773">
        <ele>7.820037</ele>
        <time>2020-08-28T00:47:26.926Z</time>
      </trkpt>
      <trkpt lat="65.91631" lon="22.44874">
        <ele>8.369458</ele>
        <time>2020-08-28T00:47:47.984Z</time>
      </trkpt>
      <trkpt lat="65.91581" lon="22.44926">
        <ele>8.653883</ele>
        <time>2020-08-28T00:47:57.543Z</time>
      </trkpt>
      <trkpt lat="65.91545" lon="22.44949">
        <ele>8.346124</ele>
        <time>2020-08-28T00:48:03.720Z</time>
      </trkpt>
      <trkpt lat="65.91441" lon="22.45008">
        <ele>7.327914</ele>
        <time>2020-08-28T00:48:19.972Z</time>
      </trkpt>
      <trkpt lat="65.91128" lon="22.45146">
        <ele>3.530028</ele>
        <time>2020-08-28T00:49:07.449Z</time>
      </trkpt>
      <trkpt lat="65.90872" lon="22.4526">
        <ele>1.738791</ele>
        <time>2020-08-28T00:49:49.827Z</time>
      </trkpt>
      <trkpt lat="65.90776" lon="22.45303">
        <ele>1.79529</ele>
        <time>2020-08-28T00:50:07.249Z</time>
      </trkpt>
      <trkpt lat="65.90765" lon="22.45257">
        <ele>1.808383</ele>
        <time>2020-08-28T00:50:11.304Z</time>
      </trkpt>
      <trkpt lat="65.90752" lon="22.45215">
        <ele>1.821172</ele>
        <time>2020-08-28T00:50:15.150Z</time>
      </trkpt>
      <trkpt lat="65.90735" lon="22.45179">
        <ele>1.83458</ele>
        <time>2020-08-28T00:50:19.368Z</time>
      </trkpt>
      <trkpt lat="65.90718" lon="22.45166">
        <ele>1.850624</ele>
        <time>2020-08-28T00:50:22.748Z</time>
      </trkpt>
      <trkpt lat="65.90621" lon="22.45152">
        <ele>2.408234</ele>
        <time>2020-08-28T00:50:41.752Z</time>
      </trkpt>
      <trkpt lat="65.90598" lon="22.4516">
        <ele>2.538072</ele>
        <time>2020-08-28T00:50:46.300Z</time>
      </trkpt>
      <trkpt lat="65.90517" lon="22.45221">
        <ele>3.187142</ele>
        <time>2020-08-28T00:51:03.273Z</time>
      </trkpt>
      <trkpt lat="65.90473" lon="22.45224">
        <ele>3.735272</ele>
        <time>2020-08-28T00:51:12.749Z</time>
      </trkpt>
      <trkpt lat="65.90382" lon="22.45148">
        <ele>4.899788</ele>
        <time>2020-08-28T00:51:33.827Z</time>
      </trkpt>
      <trkpt lat="65.90178" lon="22.45053">
        <ele>8.037504</ele>
        <time>2020-08-28T00:52:21.907Z</time>
      </trkpt>
      <trkpt lat="65.90149" lon="22.45036">
        <ele>8.324744</ele>
        <time>2020-08-28T00:52:28.523Z</time>
      </trkpt>
      <trkpt lat="65.90127" lon="22.45022">
        <ele>8.53844</ele>
        <time>2020-08-28T00:52:33.311Z</time>
      </trkpt>
      <trkpt lat="65.90106" lon="22.45001">
        <ele>8.756245</ele>
        <time>2020-08-28T00:52:38.078Z</time>
      </trkpt>
      <trkpt lat="65.90091" lon="22.44982">
        <ele>8.9208</ele>
        <time>2020-08-28T00:52:41.663Z</time>
      </trkpt>
      <trkpt lat="65.90035" lon="22.44898">
        <ele>9.55917</ele>
        <time>2020-08-28T00:52:55.038Z</time>
      </trkpt>
      <trkpt lat="65.89975" lon="22.44815">
        <ele>9.709611</ele>
        <time>2020-08-28T00:53:07.961Z</time>
      </trkpt>
      <trkpt lat="65.89917" lon="22.44734">
        <ele>9.793572</ele>
        <time>2020-08-28T00:53:19.937Z</time>
      </trkpt>
      <trkpt lat="65.89887" lon="22.44699">
        <ele>9.835414</ele>
        <time>2020-08-28T00:53:25.721Z</time>
      </trkpt>
      <trkpt lat="65.89869" lon="22.44678">
        <ele>9.857012</ele>
        <time>2020-08-28T00:53:29.168Z</time>
      </trkpt>
      <trkpt lat="65.89842" lon="22.44645">
        <ele>9.777346</ele>
        <time>2020-08-28T00:53:34.432Z</time>
      </trkpt>
      <trkpt lat="65.89831" lon="22.4463">
        <ele>9.746485</ele>
        <time>2020-08-28T00:53:36.467Z</time>
      </trkpt>
      <trkpt lat="65.89768" lon="22.44535">
        <ele>9.553606</ele>
        <time>2020-08-28T00:53:49.133Z</time>
      </trkpt>
      <trkpt lat="65.89729" lon="22.44477">
        <ele>9.436776</ele>
        <time>2020-08-28T00:53:56.781Z</time>
      </trkpt>
      <trkpt lat="65.89693" lon="22.44427">
        <ele>9.390318</ele>
        <time>2020-08-28T00:54:03.765Z</time>
      </trkpt>
      <trkpt lat="65.89482" lon="22.4413">
        <ele>9.784428</ele>
        <time>2020-08-28T00:54:47.562Z</time>
      </trkpt>
      <trkpt lat="65.89448" lon="22.44098">
        <ele>9.958958</ele>
        <time>2020-08-28T00:54:54.952Z</time>
      </trkpt>
      <trkpt lat="65.89375" lon="22.44055">
        <ele>10.440788</ele>
        <time>2020-08-28T00:55:10.775Z</time>
      </trkpt>
      <trkpt lat="65.89363" lon="22.4403">
        <ele>10.606103</ele>
        <time>2020-08-28T00:55:14.151Z</time>
      </trkpt>
      <trkpt lat="65.89347" lon="22.43954">
        <ele>10.980937</ele>
        <time>2020-08-28T00:55:21.853Z</time>
      </trkpt>
      <trkpt lat="65.89327" lon="22.4368">
        <ele>12.128553</ele>
        <time>2020-08-28T00:55:46.381Z</time>
      </trkpt>
      <trkpt lat="65.89316" lon="22.43597">
        <ele>11.9568</ele>
        <time>2020-08-28T00:55:53.423Z</time>
      </trkpt>
      <trkpt lat="65.89292" lon="22.43503">
        <ele>11.739036</ele>
        <time>2020-08-28T00:56:01.373Z</time>
      </trkpt>
      <trkpt lat="65.89228" lon="22.4331">
        <ele>11.180106</ele>
        <time>2020-08-28T00:56:16.805Z</time>
      </trkpt>
      <trkpt lat="65.89167" lon="22.43138">
        <ele>9.863838</ele>
        <time>2020-08-28T00:56:30.167Z</time>
      </trkpt>
      <trkpt lat="65.89146" lon="22.4308">
        <ele>9.408126</ele>
        <time>2020-08-28T00:56:34.835Z</time>
      </trkpt>
      <trkpt lat="65.89121" lon="22.43033">
        <ele>8.960121</ele>
        <time>2020-08-28T00:56:39.486Z</time>
      </trkpt>
      <trkpt lat="65.88968" lon="22.42867">
        <ele>8.035926</ele>
        <time>2020-08-28T00:57:06.757Z</time>
      </trkpt>
      <trkpt lat="65.88922" lon="22.42776">
        <ele>8.03615</ele>
        <time>2020-08-28T00:57:17.787Z</time>
      </trkpt>
      <trkpt lat="65.88906" lon="22.42717">
        <ele>8.164482</ele>
        <time>2020-08-28T00:57:23.302Z</time>
      </trkpt>
      <trkpt lat="65.88824" lon="22.42252">
        <ele>9.163179</ele>
        <time>2020-08-28T00:58:04.299Z</time>
      </trkpt>
      <trkpt lat="65.88817" lon="22.42187">
        <ele>9.310951</ele>
        <time>2020-08-28T00:58:09.703Z</time>
      </trkpt>
      <trkpt lat="65.88805" lon="22.41901">
        <ele>9.787517</ele>
        <time>2020-08-28T00:58:32.269Z</time>
      </trkpt>
      <trkpt lat="65.88747" lon="22.41443">
        <ele>10.129113</ele>
        <time>2020-08-28T00:59:08.376Z</time>
      </trkpt>
      <trkpt lat="65.88741" lon="22.41353">
        <ele>10.148236</ele>
        <time>2020-08-28T00:59:15.048Z</time>
      </trkpt>
      <trkpt lat="65.88745" lon="22.41223">
        <ele>10.175573</ele>
        <time>2020-08-28T00:59:24.501Z</time>
      </trkpt>
      <trkpt lat="65.88739" lon="22.41074">
        <ele>10.098214</ele>
        <time>2020-08-28T00:59:35.210Z</time>
      </trkpt>
      <trkpt lat="65.88753" lon="22.40949">
        <ele>9.979114</ele>
        <time>2020-08-28T00:59:44.413Z</time>
      </trkpt>
      <trkpt lat="65.8875" lon="22.40884">
        <ele>9.919214</ele>
        <time>2020-08-28T00:59:48.989Z</time>
      </trkpt>
      <trkpt lat="65.88739" lon="22.40835">
        <ele>9.869588</ele>
        <time>2020-08-28T00:59:52.733Z</time>
      </trkpt>
      <trkpt lat="65.88707" lon="22.4076">
        <ele>9.748146</ele>
        <time>2020-08-28T01:00:00.352Z</time>
      </trkpt>
      <trkpt lat="65.887" lon="22.40721">
        <ele>9.651588</ele>
        <time>2020-08-28T01:00:03.261Z</time>
      </trkpt>
      <trkpt lat="65.88701" lon="22.40665">
        <ele>9.524781</ele>
        <time>2020-08-28T01:00:07.086Z</time>
      </trkpt>
      <trkpt lat="65.8871" lon="22.40586">
        <ele>9.337169</ele>
        <time>2020-08-28T01:00:12.656Z</time>
      </trkpt>
      <trkpt lat="65.88714" lon="22.40556">
        <ele>9.265364</ele>
        <time>2020-08-28T01:00:14.682Z</time>
      </trkpt>
      <trkpt lat="65.88717" lon="22.40424">
        <ele>8.964561</ele>
        <time>2020-08-28T01:00:23.538Z</time>
      </trkpt>
      <trkpt lat="65.88725" lon="22.40344">
        <ele>8.777033</ele>
        <time>2020-08-28T01:00:28.865Z</time>
      </trkpt>
      <trkpt lat="65.88722" lon="22.40301">
        <ele>8.640492</ele>
        <time>2020-08-28T01:00:31.677Z</time>
      </trkpt>
      <trkpt lat="65.88712" lon="22.40252">
        <ele>8.473378</ele>
        <time>2020-08-28T01:00:35.273Z</time>
      </trkpt>
      <trkpt lat="65.88692" lon="22.4021">
        <ele>8.275567</ele>
        <time>2020-08-28T01:00:39.364Z</time>
      </trkpt>
      <trkpt lat="65.88658" lon="22.40131">
        <ele>7.923879</ele>
        <time>2020-08-28T01:00:46.843Z</time>
      </trkpt>
      <trkpt lat="65.88648" lon="22.40081">
        <ele>7.751123</ele>
        <time>2020-08-28T01:00:50.406Z</time>
      </trkpt>
      <trkpt lat="65.88635" lon="22.39882">
        <ele>7.3958</ele>
        <time>2020-08-28T01:01:03.706Z</time>
      </trkpt>
      <trkpt lat="65.88637" lon="22.39838">
        <ele>7.382091</ele>
        <time>2020-08-28T01:01:06.742Z</time>
      </trkpt>
      <trkpt lat="65.88667" lon="22.39729">
        <ele>7.341334</ele>
        <time>2020-08-28T01:01:16.364Z</time>
      </trkpt>
      <trkpt lat="65.8868" lon="22.39618">
        <ele>7.305515</ele>
        <time>2020-08-28T01:01:25.187Z</time>
      </trkpt>
      <trkpt lat="65.88679" lon="22.39604">
        <ele>7.301129</ele>
        <time>2020-08-28T01:01:26.204Z</time>
      </trkpt>
      <trkpt lat="65.88678" lon="22.39578">
        <ele>7.293011</ele>
        <time>2020-08-28T01:01:28.257Z</time>
      </trkpt>
      <trkpt lat="65.88674" lon="22.39563">
        <ele>7.301901</ele>
        <time>2020-08-28T01:01:29.646Z</time>
      </trkpt>
      <trkpt lat="65.8866" lon="22.39518">
        <ele>7.415891</ele>
        <time>2020-08-28T01:01:33.965Z</time>
      </trkpt>
      <trkpt lat="65.88642" lon="22.3947">
        <ele>7.550349</ele>
        <time>2020-08-28T01:01:39.211Z</time>
      </trkpt>
      <trkpt lat="65.88611" lon="22.3939">
        <ele>7.77306</ele>
        <time>2020-08-28T01:01:47.927Z</time>
      </trkpt>
      <trkpt lat="65.88558" lon="22.3927">
        <ele>8.135843</ele>
        <time>2020-08-28T01:02:02.507Z</time>
      </trkpt>
      <trkpt lat="65.88539" lon="22.39243">
        <ele>8.225268</ele>
        <time>2020-08-28T01:02:06.790Z</time>
      </trkpt>
      <trkpt lat="65.8849" lon="22.39209">
        <ele>8.39101</ele>
        <time>2020-08-28T01:02:16.449Z</time>
      </trkpt>
      <trkpt lat="65.8847" lon="22.39181">
        <ele>8.465826</ele>
        <time>2020-08-28T01:02:20.759Z</time>
      </trkpt>
      <trkpt lat="65.88358" lon="22.38975">
        <ele>8.910231</ele>
        <time>2020-08-28T01:02:47.007Z</time>
      </trkpt>
      <trkpt lat="65.88298" lon="22.38797">
        <ele>9.198508</ele>
        <time>2020-08-28T01:03:04.798Z</time>
      </trkpt>
      <trkpt lat="65.88251" lon="22.38577">
        <ele>9.489452</ele>
        <time>2020-08-28T01:03:23.910Z</time>
      </trkpt>
      <trkpt lat="65.88234" lon="22.38474">
        <ele>9.61416</ele>
        <time>2020-08-28T01:03:32.376Z</time>
      </trkpt>
      <trkpt lat="65.88209" lon="22.38368">
        <ele>9.753764</ele>
        <time>2020-08-28T01:03:41.760Z</time>
      </trkpt>
      <trkpt lat="65.88188" lon="22.38323">
        <ele>9.820802</ele>
        <time>2020-08-28T01:03:46.863Z</time>
      </trkpt>
      <trkpt lat="65.88158" lon="22.38278">
        <ele>9.854479</ele>
        <time>2020-08-28T01:03:53.330Z</time>
      </trkpt>
      <trkpt lat="65.88046" lon="22.38149">
        <ele>9.972461</ele>
        <time>2020-08-28T01:04:15.690Z</time>
      </trkpt>
      <trkpt lat="65.87957" lon="22.38019">
        <ele>9.993704</ele>
        <time>2020-08-28T01:04:34.221Z</time>
      </trkpt>
      <trkpt lat="65.87719" lon="22.37823">
        <ele>9.985118</ele>
        <time>2020-08-28T01:05:19.052Z</time>
      </trkpt>
      <trkpt lat="65.87667" lon="22.37802">
        <ele>9.968541</ele>
        <time>2020-08-28T01:05:28.336Z</time>
      </trkpt>
      <trkpt lat="65.87611" lon="22.3781">
        <ele>9.942638</ele>
        <time>2020-08-28T01:05:38.226Z</time>
      </trkpt>
      <trkpt lat="65.87572" lon="22.37788">
        <ele>9.92385</ele>
        <time>2020-08-28T01:05:50.226Z</time>
      </trkpt>
      <trkpt lat="65.87564" lon="22.37785">
        <ele>9.920114</ele>
        <time>2020-08-28T01:05:52.632Z</time>
      </trkpt>
      <trkpt lat="65.87458" lon="22.3775">
        <ele>9.90525</ele>
        <time>2020-08-28T01:06:24.207Z</time>
      </trkpt>
      <trkpt lat="65.87431" lon="22.37726">
        <ele>9.907658</ele>
        <time>2020-08-28T01:06:32.853Z</time>
      </trkpt>
      <trkpt lat="65.87428" lon="22.37695">
        <ele>9.908729</ele>
        <time>2020-08-28T01:06:36.700Z</time>
      </trkpt>
      <trkpt lat="65.8744" lon="22.37589">
        <ele>9.912458</ele>
        <time>2020-08-28T01:06:50.088Z</time>
      </trkpt>
      <trkpt lat="65.8745" lon="22.3751">
        <ele>9.916625</ele>
        <time>2020-08-28T01:07:00.206Z</time>
      </trkpt>
      <trkpt lat="65.87452" lon="22.37489">
        <ele>9.920668</ele>
        <time>2020-08-28T01:07:02.871Z</time>
      </trkpt>
      <trkpt lat="65.87454" lon="22.37217">
        <ele>9.971601</ele>
        <time>2020-08-28T01:07:36.359Z</time>
      </trkpt>
      <trkpt lat="65.87433" lon="22.36771">
        <ele>9.999171</ele>
        <time>2020-08-28T01:08:30.953Z</time>
      </trkpt>
      <trkpt lat="65.87424" lon="22.36722">
        <ele>9.999525</ele>
        <time>2020-08-28T01:08:37.500Z</time>
      </trkpt>
      <trkpt lat="65.874" lon="22.36653">
        <ele>10.00145</ele>
        <time>2020-08-28T01:08:48.499Z</time>
      </trkpt>
      <trkpt lat="65.87343" lon="22.36575">
        <ele>10.015198</ele>
        <time>2020-08-28T01:09:07.948Z</time>
      </trkpt>
      <trkpt lat="65.87235" lon="22.36486">
        <ele>10.046338</ele>
        <time>2020-08-28T01:09:41.754Z</time>
      </trkpt>
      <trkpt lat="65.87224" lon="22.36468">
        <ele>10.066488</ele>
        <time>2020-08-28T01:09:45.851Z</time>
      </trkpt>
      <trkpt lat="65.87205" lon="22.36401">
        <ele>10.115208</ele>
        <time>2020-08-28T01:09:55.820Z</time>
      </trkpt>
      <trkpt lat="65.87188" lon="22.36286">
        <ele>10.188728</ele>
        <time>2020-08-28T01:10:11.022Z</time>
      </trkpt>
      <trkpt lat="65.87175" lon="22.36154">
        <ele>10.270605</ele>
        <time>2020-08-28T01:10:27.872Z</time>
      </trkpt>
      <trkpt lat="65.8717" lon="22.36047">
        <ele>10.254244</ele>
        <time>2020-08-28T01:10:41.157Z</time>
      </trkpt>
      <trkpt lat="65.87168" lon="22.36043">
        <ele>10.248495</ele>
        <time>2020-08-28T01:10:41.680Z</time>
      </trkpt>
      <trkpt lat="65.87155" lon="22.36024">
        <ele>10.215328</ele>
        <time>2020-08-28T01:10:44.523Z</time>
      </trkpt>
      <trkpt lat="65.87162" lon="22.35869">
        <ele>10.076208</ele>
        <time>2020-08-28T01:10:55.856Z</time>
      </trkpt>
      <trkpt lat="65.87181" lon="22.34815">
        <ele>7.945639</ele>
        <time>2020-08-28T01:12:06.784Z</time>
      </trkpt>
      <trkpt lat="65.87177" lon="22.34539">
        <ele>6.853261</ele>
        <time>2020-08-28T01:12:24.061Z</time>
      </trkpt>
      <trkpt lat="65.87168" lon="22.34388">
        <ele>6.243511</ele>
        <time>2020-08-28T01:12:33.602Z</time>
      </trkpt>
      <trkpt lat="65.87164" lon="22.34336">
        <ele>6.170744</ele>
        <time>2020-08-28T01:12:37.097Z</time>
      </trkpt>
      <trkpt lat="65.8716" lon="22.34295">
        <ele>6.19241</ele>
        <time>2020-08-28T01:12:39.822Z</time>
      </trkpt>
      <trkpt lat="65.87154" lon="22.34243">
        <ele>6.22052</ele>
        <time>2020-08-28T01:12:43.560Z</time>
      </trkpt>
      <trkpt lat="65.8715" lon="22.34206">
        <ele>6.239807</ele>
        <time>2020-08-28T01:12:46.137Z</time>
      </trkpt>
      <trkpt lat="65.87133" lon="22.34061">
        <ele>6.317266</ele>
        <time>2020-08-28T01:12:57.435Z</time>
      </trkpt>
      <trkpt lat="65.87109" lon="22.33911">
        <ele>6.706596</ele>
        <time>2020-08-28T01:13:10.950Z</time>
      </trkpt>
      <trkpt lat="65.87065" lon="22.337">
        <ele>8.7908</ele>
        <time>2020-08-28T01:13:34.094Z</time>
      </trkpt>
      <trkpt lat="65.8702" lon="22.33514">
        <ele>10.778728</ele>
        <time>2020-08-28T01:13:58.667Z</time>
      </trkpt>
      <trkpt lat="65.86991" lon="22.33388">
        <ele>12.291608</ele>
        <time>2020-08-28T01:14:14.899Z</time>
      </trkpt>
      <trkpt lat="65.8698" lon="22.3334">
        <ele>12.875211</ele>
        <time>2020-08-28T01:14:21.436Z</time>
      </trkpt>
      <trkpt lat="65.86797" lon="22.32554">
        <ele>19.398129</ele>
        <time>2020-08-28T01:15:49.596Z</time>
      </trkpt>
      <trkpt lat="65.86585" lon="22.3168">
        <ele>18.764495</ele>
        <time>2020-08-28T01:16:58.976Z</time>
      </trkpt>
      <trkpt lat="65.86561" lon="22.3158">
        <ele>18.703626</ele>
        <time>2020-08-28T01:17:07.534Z</time>
      </trkpt>
      <trkpt lat="65.86507" lon="22.31353">
        <ele>18.641249</ele>
        <time>2020-08-28T01:17:27.322Z</time>
      </trkpt>
      <trkpt lat="65.86416" lon="22.3097">
        <ele>17.781814</ele>
        <time>2020-08-28T01:17:57.659Z</time>
      </trkpt>
      <trkpt lat="65.86389" lon="22.30838">
        <ele>17.175404</ele>
        <time>2020-08-28T01:18:06.816Z</time>
      </trkpt>
      <trkpt lat="65.86381" lon="22.30803">
        <ele>16.912101</ele>
        <time>2020-08-28T01:18:09.194Z</time>
      </trkpt>
      <trkpt lat="65.86373" lon="22.30768">
        <ele>16.645909</ele>
        <time>2020-08-28T01:18:11.677Z</time>
      </trkpt>
      <trkpt lat="65.86378" lon="22.30759">
        <ele>16.541115</ele>
        <time>2020-08-28T01:18:12.736Z</time>
      </trkpt>
      <trkpt lat="65.86373" lon="22.30736">
        <ele>16.369556</ele>
        <time>2020-08-28T01:18:15.413Z</time>
      </trkpt>
      <trkpt lat="65.86315" lon="22.30411">
        <ele>14.065138</ele>
        <time>2020-08-28T01:18:52.450Z</time>
      </trkpt>
      <trkpt lat="65.86306" lon="22.30384">
        <ele>13.847116</ele>
        <time>2020-08-28T01:18:56.270Z</time>
      </trkpt>
      <trkpt lat="65.86304" lon="22.3037">
        <ele>13.753869</ele>
        <time>2020-08-28T01:18:57.754Z</time>
      </trkpt>
      <trkpt lat="65.86286" lon="22.30285">
        <ele>13.157727</ele>
        <time>2020-08-28T01:19:08.001Z</time>
      </trkpt>
      <trkpt lat="65.86225" lon="22.29975">
        <ele>11.377311</ele>
        <time>2020-08-28T01:19:45.161Z</time>
      </trkpt>
      <trkpt lat="65.86203" lon="22.29892">
        <ele>11.009092</ele>
        <time>2020-08-28T01:19:56.231Z</time>
      </trkpt>
      <trkpt lat="65.86196" lon="22.29902">
        <ele>10.929425</ele>
        <time>2020-08-28T01:19:58.139Z</time>
      </trkpt>
      <trkpt lat="65.86169" lon="22.29806">
        <ele>10.491745</ele>
        <time>2020-08-28T01:20:05.826Z</time>
      </trkpt>
      <trkpt lat="65.86152" lon="22.29748">
        <ele>10.2688</ele>
        <time>2020-08-28T01:20:10.542Z</time>
      </trkpt>
      <trkpt lat="65.86154" lon="22.29745">
        <ele>10.263949</ele>
        <time>2020-08-28T01:20:10.861Z</time>
      </trkpt>
      <trkpt lat="65.86156" lon="22.29721">
        <ele>10.238627</ele>
        <time>2020-08-28T01:20:12.503Z</time>
      </trkpt>
      <trkpt lat="65.86155" lon="22.29713">
        <ele>10.22974</ele>
        <time>2020-08-28T01:20:13.093Z</time>
      </trkpt>
      <trkpt lat="65.86152" lon="22.29707">
        <ele>10.221911</ele>
        <time>2020-08-28T01:20:13.616Z</time>
      </trkpt>
      <trkpt lat="65.8614" lon="22.29707">
        <ele>10.192323</ele>
        <time>2020-08-28T01:20:15.641Z</time>
      </trkpt>
      <trkpt lat="65.86139" lon="22.2971">
        <ele>10.187985</ele>
        <time>2020-08-28T01:20:15.925Z</time>
      </trkpt>
      <trkpt lat="65.86138" lon="22.29712">
        <ele>10.184283</ele>
        <time>2020-08-28T01:20:16.174Z</time>
      </trkpt>
      <trkpt lat="65.86136" lon="22.29734">
        <ele>10.161414</ele>
        <time>2020-08-28T01:20:17.722Z</time>
      </trkpt>
      <trkpt lat="65.86138" lon="22.29742">
        <ele>10.152526</ele>
        <time>2020-08-28T01:20:18.285Z</time>
      </trkpt>
      <trkpt lat="65.86134" lon="22.29755">
        <ele>10.136641</ele>
        <time>2020-08-28T01:20:19.401Z</time>
      </trkpt>
      <trkpt lat="65.86129" lon="22.2979">
        <ele>10.098653</ele>
        <time>2020-08-28T01:20:22.224Z</time>
      </trkpt>
      <trkpt lat="65.86128" lon="22.29813">
        <ele>10.075502</ele>
        <time>2020-08-28T01:20:23.941Z</time>
      </trkpt>
      <trkpt lat="65.86122" lon="22.29812">
        <ele>10.061603</ele>
        <time>2020-08-28T01:20:24.903Z</time>
      </trkpt>
      <trkpt lat="65.86056" lon="22.29613">
        <ele>9.857532</ele>
        <time>2020-08-28T01:20:44.267Z</time>
      </trkpt>
      <trkpt lat="65.85958" lon="22.29404">
        <ele>9.994581</ele>
        <time>2020-08-28T01:21:08.886Z</time>
      </trkpt>
      <trkpt lat="65.85938" lon="22.29366">
        <ele>10.020722</ele>
        <time>2020-08-28T01:21:13.673Z</time>
      </trkpt>
      <trkpt lat="65.85914" lon="22.29319">
        <ele>10.094384</ele>
        <time>2020-08-28T01:21:19.607Z</time>
      </trkpt>
      <trkpt lat="65.85904" lon="22.29294">
        <ele>10.13915</ele>
        <time>2020-08-28T01:21:22.531Z</time>
      </trkpt>
      <trkpt lat="65.85902" lon="22.29286">
        <ele>10.150617</ele>
        <time>2020-08-28T01:21:23.305Z</time>
      </trkpt>
      <trkpt lat="65.85901" lon="22.29231">
        <ele>10.217813</ele>
        <time>2020-08-28T01:21:27.685Z</time>
      </trkpt>
      <trkpt lat="65.85878" lon="22.29185">
        <ele>10.304509</ele>
        <time>2020-08-28T01:21:33.389Z</time>
      </trkpt>
      <trkpt lat="65.85855" lon="22.29147">
        <ele>10.388918</ele>
        <time>2020-08-28T01:21:38.937Z</time>
      </trkpt>
      <trkpt lat="65.85856" lon="22.29139">
        <ele>10.399336</ele>
        <time>2020-08-28T01:21:39.768Z</time>
      </trkpt>
      <trkpt lat="65.85822" lon="22.29096">
        <ele>10.514294</ele>
        <time>2020-08-28T01:21:47.028Z</time>
      </trkpt>
      <trkpt lat="65.8577" lon="22.29024">
        <ele>10.527521</ele>
        <time>2020-08-28T01:21:58.346Z</time>
      </trkpt>
      <trkpt lat="65.85749" lon="22.28994">
        <ele>10.504034</ele>
        <time>2020-08-28T01:22:02.961Z</time>
      </trkpt>
      <trkpt lat="65.85728" lon="22.2896">
        <ele>10.480547</ele>
        <time>2020-08-28T01:22:07.525Z</time>
      </trkpt>
      <trkpt lat="65.85708" lon="22.28925">
        <ele>10.456918</ele>
        <time>2020-08-28T01:22:11.971Z</time>
      </trkpt>
      <trkpt lat="65.85691" lon="22.28894">
        <ele>10.43645</ele>
        <time>2020-08-28T01:22:15.597Z</time>
      </trkpt>
      <trkpt lat="65.85692" lon="22.28887">
        <ele>10.433593</ele>
        <time>2020-08-28T01:22:16.127Z</time>
      </trkpt>
      <trkpt lat="65.8569" lon="22.28865">
        <ele>10.424625</ele>
        <time>2020-08-28T01:22:17.745Z</time>
      </trkpt>
      <trkpt lat="65.85688" lon="22.28862">
        <ele>10.422724</ele>
        <time>2020-08-28T01:22:18.042Z</time>
      </trkpt>
      <trkpt lat="65.85687" lon="22.2886">
        <ele>10.42146</ele>
        <time>2020-08-28T01:22:18.232Z</time>
      </trkpt>
      <trkpt lat="65.85684" lon="22.28858">
        <ele>10.418377</ele>
        <time>2020-08-28T01:22:18.722Z</time>
      </trkpt>
      <trkpt lat="65.85678" lon="22.28862">
        <ele>10.412283</ele>
        <time>2020-08-28T01:22:19.774Z</time>
      </trkpt>
      <trkpt lat="65.85675" lon="22.28867">
        <ele>10.409142</ele>
        <time>2020-08-28T01:22:20.346Z</time>
      </trkpt>
      <trkpt lat="65.85673" lon="22.28861">
        <ele>10.406088</ele>
        <time>2020-08-28T01:22:20.895Z</time>
      </trkpt>
      <trkpt lat="65.85662" lon="22.28838">
        <ele>10.322255</ele>
        <time>2020-08-28T01:22:23.455Z</time>
      </trkpt>
      <trkpt lat="65.8564" lon="22.28784">
        <ele>9.806876</ele>
        <time>2020-08-28T01:22:28.182Z</time>
      </trkpt>
      <trkpt lat="65.85629" lon="22.28755">
        <ele>9.534196</ele>
        <time>2020-08-28T01:22:30.570Z</time>
      </trkpt>
      <trkpt lat="65.85623" lon="22.28735">
        <ele>9.363091</ele>
        <time>2020-08-28T01:22:32.094Z</time>
      </trkpt>
      <trkpt lat="65.85614" lon="22.28705">
        <ele>9.112162</ele>
        <time>2020-08-28T01:22:34.330Z</time>
      </trkpt>
      <trkpt lat="65.85609" lon="22.28686">
        <ele>8.954083</ele>
        <time>2020-08-28T01:22:35.604Z</time>
      </trkpt>
      <trkpt lat="65.85576" lon="22.28535">
        <ele>7.793147</ele>
        <time>2020-08-28T01:22:45.393Z</time>
      </trkpt>
      <trkpt lat="65.85566" lon="22.28489">
        <ele>7.430785</ele>
        <time>2020-08-28T01:22:48.424Z</time>
      </trkpt>
      <trkpt lat="65.85549" lon="22.28408">
        <ele>6.82696</ele>
        <time>2020-08-28T01:22:53.615Z</time>
      </trkpt>
      <trkpt lat="65.85535" lon="22.28348">
        <ele>6.370333</ele>
        <time>2020-08-28T01:22:57.519Z</time>
      </trkpt>
      <trkpt lat="65.85529" lon="22.28325">
        <ele>6.191697</ele>
        <time>2020-08-28T01:22:59.117Z</time>
      </trkpt>
      <trkpt lat="65.85492" lon="22.28195">
        <ele>5.138187</ele>
        <time>2020-08-28T01:23:08.528Z</time>
      </trkpt>
      <trkpt lat="65.85455" lon="22.28091">
        <ele>4.450664</ele>
        <time>2020-08-28T01:23:17.275Z</time>
      </trkpt>
      <trkpt lat="65.85415" lon="22.28003">
        <ele>4.362906</ele>
        <time>2020-08-28T01:23:26.333Z</time>
      </trkpt>
      <trkpt lat="65.85353" lon="22.27885">
        <ele>4.231903</ele>
        <time>2020-08-28T01:23:40.457Z</time>
      </trkpt>
      <trkpt lat="65.85294" lon="22.278">
        <ele>4.601908</ele>
        <time>2020-08-28T01:23:53.336Z</time>
      </trkpt>
      <trkpt lat="65.85235" lon="22.27727">
        <ele>5.364426</ele>
        <time>2020-08-28T01:24:07.271Z</time>
      </trkpt>
      <trkpt lat="65.85185" lon="22.27666">
        <ele>6.003531</ele>
        <time>2020-08-28T01:24:20.033Z</time>
      </trkpt>
      <trkpt lat="65.85123" lon="22.27595">
        <ele>7.111966</ele>
        <time>2020-08-28T01:24:36.542Z</time>
      </trkpt>
      <trkpt lat="65.85037" lon="22.27504">
        <ele>8.809277</ele>
        <time>2020-08-28T01:24:59.134Z</time>
      </trkpt>
      <trkpt lat="65.85027" lon="22.27557">
        <ele>9.248925</ele>
        <time>2020-08-28T01:25:04.791Z</time>
      </trkpt>
      <trkpt lat="65.85013" lon="22.2763">
        <ele>9.658146</ele>
        <time>2020-08-28T01:25:12.256Z</time>
      </trkpt>
      <trkpt lat="65.85001" lon="22.27699">
        <ele>9.894176</ele>
        <time>2020-08-28T01:25:18.979Z</time>
      </trkpt>
      <trkpt lat="65.84979" lon="22.27816">
        <ele>10.294811</ele>
        <time>2020-08-28T01:25:29.818Z</time>
      </trkpt>
      <trkpt lat="65.84958" lon="22.27928">
        <ele>10.680103</ele>
        <time>2020-08-28T01:25:39.235Z</time>
      </trkpt>
      <trkpt lat="65.84943" lon="22.28028">
        <ele>10.922129</ele>
        <time>2020-08-28T01:25:47.278Z</time>
      </trkpt>
      <trkpt lat="65.84936" lon="22.28071">
        <ele>10.953325</ele>
        <time>2020-08-28T01:25:50.764Z</time>
      </trkpt>
      <trkpt lat="65.84925" lon="22.28137">
        <ele>11.001842</ele>
        <time>2020-08-28T01:25:56.181Z</time>
      </trkpt>
      <trkpt lat="65.84904" lon="22.28263">
        <ele>11.093744</ele>
        <time>2020-08-28T01:26:06.351Z</time>
      </trkpt>
      <trkpt lat="65.84887" lon="22.28374">
        <ele>11.174184</ele>
        <time>2020-08-28T01:26:15.282Z</time>
      </trkpt>
      <trkpt lat="65.84876" lon="22.28443">
        <ele>11.237048</ele>
        <time>2020-08-28T01:26:20.829Z</time>
      </trkpt>
      <trkpt lat="65.84824" lon="22.28655">
        <ele>11.478616</ele>
        <time>2020-08-28T01:26:39.596Z</time>
      </trkpt>
      <trkpt lat="65.84804" lon="22.28727">
        <ele>11.56409</ele>
        <time>2020-08-28T01:26:46.406Z</time>
      </trkpt>
      <trkpt lat="65.84792" lon="22.28774">
        <ele>11.617436</ele>
        <time>2020-08-28T01:26:50.596Z</time>
      </trkpt>
      <trkpt lat="65.84775" lon="22.28921">
        <ele>12.056912</ele>
        <time>2020-08-28T01:27:02.384Z</time>
      </trkpt>
      <trkpt lat="65.84754" lon="22.29002">
        <ele>12.342792</ele>
        <time>2020-08-28T01:27:09.917Z</time>
      </trkpt>
      <trkpt lat="65.84671" lon="22.29119">
        <ele>13.209961</ele>
        <time>2020-08-28T01:27:30.136Z</time>
      </trkpt>
      <trkpt lat="65.84657" lon="22.29126">
        <ele>13.480433</ele>
        <time>2020-08-28T01:27:33.296Z</time>
      </trkpt>
      <trkpt lat="65.84618" lon="22.29118">
        <ele>14.21394</ele>
        <time>2020-08-28T01:27:42.350Z</time>
      </trkpt>
      <trkpt lat="65.84612" lon="22.2912">
        <ele>14.344168</ele>
        <time>2020-08-28T01:27:44.124Z</time>
      </trkpt>
      <trkpt lat="65.84592" lon="22.29127">
        <ele>14.711805</ele>
        <time>2020-08-28T01:27:48.717Z</time>
      </trkpt>
      <trkpt lat="65.84526" lon="22.29168">
        <ele>16.003691</ele>
        <time>2020-08-28T01:28:05.753Z</time>
      </trkpt>
      <trkpt lat="65.84499" lon="22.29167">
        <ele>16.515068</ele>
        <time>2020-08-28T01:28:12.782Z</time>
      </trkpt>
      <trkpt lat="65.84469" lon="22.29166">
        <ele>17.086989</ele>
        <time>2020-08-28T01:28:20.564Z</time>
      </trkpt>
      <trkpt lat="65.84452" lon="22.29176">
        <ele>17.427998</ele>
        <time>2020-08-28T01:28:25.086Z</time>
      </trkpt>
      <trkpt lat="65.84433" lon="22.29198">
        <ele>17.816547</ele>
        <time>2020-08-28T01:28:30.172Z</time>
      </trkpt>
      <trkpt lat="65.84385" lon="22.29283">
        <ele>18.936792</ele>
        <time>2020-08-28T01:28:44.145Z</time>
      </trkpt>
      <trkpt lat="65.84361" lon="22.29319">
        <ele>19.482136</ele>
        <time>2020-08-28T01:28:50.713Z</time>
      </trkpt>
      <trkpt lat="65.84324" lon="22.2937">
        <ele>19.907505</ele>
        <time>2020-08-28T01:28:59.911Z</time>
      </trkpt>
      <trkpt lat="65.84268" lon="22.29427">
        <ele>20.268974</ele>
        <time>2020-08-28T01:29:12.142Z</time>
      </trkpt>
      <trkpt lat="65.8405" lon="22.2966">
        <ele>20.9002</ele>
        <time>2020-08-28T01:29:55.693Z</time>
      </trkpt>
      <trkpt lat="65.84012" lon="22.29688">
        <ele>20.907668</ele>
        <time>2020-08-28T01:30:02.753Z</time>
      </trkpt>
      <trkpt lat="65.83961" lon="22.29708">
        <ele>20.833498</ele>
        <time>2020-08-28T01:30:11.675Z</time>
      </trkpt>
      <trkpt lat="65.83946" lon="22.29726">
        <ele>20.809577</ele>
        <time>2020-08-28T01:30:14.536Z</time>
      </trkpt>
      <trkpt lat="65.83904" lon="22.29779">
        <ele>20.74099</ele>
        <time>2020-08-28T01:30:22.721Z</time>
      </trkpt>
      <trkpt lat="65.83847" lon="22.2988">
        <ele>20.650403</ele>
        <time>2020-08-28T01:30:34.840Z</time>
      </trkpt>
      <trkpt lat="65.83782" lon="22.3005">
        <ele>20.590068</ele>
        <time>2020-08-28T01:30:51.536Z</time>
      </trkpt>
      <trkpt lat="65.83661" lon="22.30316">
        <ele>20.633691</ele>
        <time>2020-08-28T01:31:20.952Z</time>
      </trkpt>
      <trkpt lat="65.8356" lon="22.3058">
        <ele>20.753325</ele>
        <time>2020-08-28T01:31:47.953Z</time>
      </trkpt>
      <trkpt lat="65.83495" lon="22.30781">
        <ele>20.81514</ele>
        <time>2020-08-28T01:32:06.775Z</time>
      </trkpt>
      <trkpt lat="65.83455" lon="22.30845">
        <ele>20.752466</ele>
        <time>2020-08-28T01:32:15.324Z</time>
      </trkpt>
      <trkpt lat="65.83352" lon="22.3096">
        <ele>20.508576</ele>
        <time>2020-08-28T01:32:34.658Z</time>
      </trkpt>
      <trkpt lat="65.83269" lon="22.31167">
        <ele>20.005443</ele>
        <time>2020-08-28T01:32:54.495Z</time>
      </trkpt>
      <trkpt lat="65.83198" lon="22.3139">
        <ele>19.366631</ele>
        <time>2020-08-28T01:33:13.486Z</time>
      </trkpt>
      <trkpt lat="65.83174" lon="22.31444">
        <ele>19.125413</ele>
        <time>2020-08-28T01:33:18.720Z</time>
      </trkpt>
      <trkpt lat="65.83139" lon="22.31504">
        <ele>18.811895</ele>
        <time>2020-08-28T01:33:25.475Z</time>
      </trkpt>
      <trkpt lat="65.83029" lon="22.31605">
        <ele>17.950973</ele>
        <time>2020-08-28T01:33:44.111Z</time>
      </trkpt>
      <trkpt lat="65.82963" lon="22.31688">
        <ele>17.421883</ele>
        <time>2020-08-28T01:33:55.967Z</time>
      </trkpt>
      <trkpt lat="65.82872" lon="22.31882">
        <ele>16.843959</ele>
        <time>2020-08-28T01:34:15.693Z</time>
      </trkpt>
      <trkpt lat="65.82826" lon="22.32007">
        <ele>16.747882</ele>
        <time>2020-08-28T01:34:27.587Z</time>
      </trkpt>
      <trkpt lat="65.82782" lon="22.32075">
        <ele>16.673639</ele>
        <time>2020-08-28T01:34:37.132Z</time>
      </trkpt>
      <trkpt lat="65.82762" lon="22.32094">
        <ele>16.697368</ele>
        <time>2020-08-28T01:34:41.008Z</time>
      </trkpt>
      <trkpt lat="65.82734" lon="22.32122">
        <ele>16.802282</ele>
        <time>2020-08-28T01:34:46.784Z</time>
      </trkpt>
      <trkpt lat="65.82681" lon="22.3212">
        <ele>16.985239</ele>
        <time>2020-08-28T01:34:56.970Z</time>
      </trkpt>
      <trkpt lat="65.82549" lon="22.32085">
        <ele>17.329264</ele>
        <time>2020-08-28T01:35:22.298Z</time>
      </trkpt>
      <trkpt lat="65.82514" lon="22.32067">
        <ele>17.369554</ele>
        <time>2020-08-28T01:35:28.930Z</time>
      </trkpt>
      <trkpt lat="65.82487" lon="22.32038">
        <ele>17.403372</ele>
        <time>2020-08-28T01:35:34.388Z</time>
      </trkpt>
      <trkpt lat="65.8238" lon="22.31867">
        <ele>17.13809</ele>
        <time>2020-08-28T01:35:56.363Z</time>
      </trkpt>
      <trkpt lat="65.82263" lon="22.31645">
        <ele>16.131766</ele>
        <time>2020-08-28T01:36:20.081Z</time>
      </trkpt>
      <trkpt lat="65.82166" lon="22.31432">
        <ele>14.633648</ele>
        <time>2020-08-28T01:36:39.822Z</time>
      </trkpt>
      <trkpt lat="65.82075" lon="22.31287">
        <ele>13.257927</ele>
        <time>2020-08-28T01:36:56.088Z</time>
      </trkpt>
      <trkpt lat="65.82045" lon="22.31215">
        <ele>12.722845</ele>
        <time>2020-08-28T01:37:02.317Z</time>
      </trkpt>
      <trkpt lat="65.81928" lon="22.30805">
        <ele>10.537221</ele>
        <time>2020-08-28T01:37:33.838Z</time>
      </trkpt>
      <trkpt lat="65.81906" lon="22.30714">
        <ele>10.213529</ele>
        <time>2020-08-28T01:37:40.799Z</time>
      </trkpt>
      <trkpt lat="65.81893" lon="22.30652">
        <ele>10.095052</ele>
        <time>2020-08-28T01:37:45.369Z</time>
      </trkpt>
      <trkpt lat="65.81828" lon="22.30325">
        <ele>9.629803</ele>
        <time>2020-08-28T01:38:10.530Z</time>
      </trkpt>
      <trkpt lat="65.81807" lon="22.30223">
        <ele>9.889097</ele>
        <time>2020-08-28T01:38:19.126Z</time>
      </trkpt>
      <trkpt lat="65.81803" lon="22.302">
        <ele>9.946214</ele>
        <time>2020-08-28T01:38:21.048Z</time>
      </trkpt>
      <trkpt lat="65.81718" lon="22.29893">
        <ele>11.256424</ele>
        <time>2020-08-28T01:38:52.536Z</time>
      </trkpt>
      <trkpt lat="65.81692" lon="22.29849">
        <ele>11.771735</ele>
        <time>2020-08-28T01:39:00.187Z</time>
      </trkpt>
      <trkpt lat="65.81666" lon="22.29827">
        <ele>12.206624</ele>
        <time>2020-08-28T01:39:06.711Z</time>
      </trkpt>
      <trkpt lat="65.81623" lon="22.29815">
        <ele>12.896643</ele>
        <time>2020-08-28T01:39:16.924Z</time>
      </trkpt>
      <trkpt lat="65.81561" lon="22.29819">
        <ele>13.89276</ele>
        <time>2020-08-28T01:39:31.697Z</time>
      </trkpt>
      <trkpt lat="65.81516" lon="22.29826">
        <ele>14.619474</ele>
        <time>2020-08-28T01:39:42.233Z</time>
      </trkpt>
      <trkpt lat="65.81393" lon="22.29858">
        <ele>16.543459</ele>
        <time>2020-08-28T01:40:09.979Z</time>
      </trkpt>
      <trkpt lat="65.81141" lon="22.29863">
        <ele>19.742838</ele>
        <time>2020-08-28T01:41:05.304Z</time>
      </trkpt>
      <trkpt lat="65.81066" lon="22.29899">
        <ele>20.663209</ele>
        <time>2020-08-28T01:41:22.166Z</time>
      </trkpt>
      <trkpt lat="65.81015" lon="22.29948">
        <ele>21.015984</ele>
        <time>2020-08-28T01:41:33.605Z</time>
      </trkpt>
      <trkpt lat="65.80992" lon="22.2997">
        <ele>21.134535</ele>
        <time>2020-08-28T01:41:38.483Z</time>
      </trkpt>
      <trkpt lat="65.8095" lon="22.30051">
        <ele>21.387844</ele>
        <time>2020-08-28T01:41:48.490Z</time>
      </trkpt>
      <trkpt lat="65.80914" lon="22.3015">
        <ele>21.640071</ele>
        <time>2020-08-28T01:41:58.466Z</time>
      </trkpt>
      <trkpt lat="65.80869" lon="22.30251">
        <ele>21.922422</ele>
        <time>2020-08-28T01:42:09.531Z</time>
      </trkpt>
      <trkpt lat="65.80839" lon="22.30317">
        <ele>22.106047</ele>
        <time>2020-08-28T01:42:17.106Z</time>
      </trkpt>
      <trkpt lat="65.80804" lon="22.30377">
        <ele>22.299045</ele>
        <time>2020-08-28T01:42:25.426Z</time>
      </trkpt>
      <trkpt lat="65.80753" lon="22.3044">
        <ele>22.642134</ele>
        <time>2020-08-28T01:42:37.377Z</time>
      </trkpt>
      <trkpt lat="65.80557" lon="22.30627">
        <ele>24.233571</ele>
        <time>2020-08-28T01:43:21.788Z</time>
      </trkpt>
      <trkpt lat="65.80419" lon="22.30788">
        <ele>24.366738</ele>
        <time>2020-08-28T01:43:48.186Z</time>
      </trkpt>
      <trkpt lat="65.80251" lon="22.30862">
        <ele>24.018895</ele>
        <time>2020-08-28T01:44:16.660Z</time>
      </trkpt>
      <trkpt lat="65.80208" lon="22.30868">
        <ele>24.273596</ele>
        <time>2020-08-28T01:44:24.859Z</time>
      </trkpt>
      <trkpt lat="65.80141" lon="22.30835">
        <ele>24.671082</ele>
        <time>2020-08-28T01:44:38.505Z</time>
      </trkpt>
      <trkpt lat="65.80106" lon="22.30812">
        <ele>24.882079</ele>
        <time>2020-08-28T01:44:46.075Z</time>
      </trkpt>
      <trkpt lat="65.80018" lon="22.30753">
        <ele>25.696131</ele>
        <time>2020-08-28T01:45:05.895Z</time>
      </trkpt>
      <trkpt lat="65.79953" lon="22.3073">
        <ele>26.335781</ele>
        <time>2020-08-28T01:45:19.904Z</time>
      </trkpt>
      <trkpt lat="65.79908" lon="22.30747">
        <ele>26.774548</ele>
        <time>2020-08-28T01:45:29.393Z</time>
      </trkpt>
      <trkpt lat="65.79867" lon="22.30782">
        <ele>26.790838</ele>
        <time>2020-08-28T01:45:37.697Z</time>
      </trkpt>
      <trkpt lat="65.79824" lon="22.30785">
        <ele>26.80714</ele>
        <time>2020-08-28T01:45:45.609Z</time>
      </trkpt>
      <trkpt lat="65.79808" lon="22.30774">
        <ele>26.813369</ele>
        <time>2020-08-28T01:45:48.531Z</time>
      </trkpt>
      <trkpt lat="65.79784" lon="22.30732">
        <ele>26.824597</ele>
        <time>2020-08-28T01:45:53.656Z</time>
      </trkpt>
      <trkpt lat="65.79713" lon="22.30552">
        <ele>26.235865</ele>
        <time>2020-08-28T01:46:10.318Z</time>
      </trkpt>
      <trkpt lat="65.79684" lon="22.30504">
        <ele>25.859388</ele>
        <time>2020-08-28T01:46:15.714Z</time>
      </trkpt>
      <trkpt lat="65.79652" lon="22.30473">
        <ele>25.4858</ele>
        <time>2020-08-28T01:46:20.992Z</time>
      </trkpt>
      <trkpt lat="65.79503" lon="22.30452">
        <ele>23.260352</ele>
        <time>2020-08-28T01:46:42.945Z</time>
      </trkpt>
      <trkpt lat="65.79436" lon="22.30468">
        <ele>22.111621</ele>
        <time>2020-08-28T01:46:52.457Z</time>
      </trkpt>
      <trkpt lat="65.79331" lon="22.30541">
        <ele>19.812967</ele>
        <time>2020-08-28T01:47:07.754Z</time>
      </trkpt>
      <trkpt lat="65.79263" lon="22.30607">
        <ele>18.221498</ele>
        <time>2020-08-28T01:47:17.882Z</time>
      </trkpt>
      <trkpt lat="65.79137" lon="22.30773">
        <ele>15.33808</ele>
        <time>2020-08-28T01:47:37.806Z</time>
      </trkpt>
      <trkpt lat="65.79093" lon="22.30773">
        <ele>14.44117</ele>
        <time>2020-08-28T01:47:44.274Z</time>
      </trkpt>
      <trkpt lat="65.79058" lon="22.30725">
        <ele>13.867119</ele>
        <time>2020-08-28T01:47:50.010Z</time>
      </trkpt>
      <trkpt lat="65.79018" lon="22.30646">
        <ele>13.172423</ele>
        <time>2020-08-28T01:47:57.812Z</time>
      </trkpt>
      <trkpt lat="65.78997" lon="22.30593">
        <ele>12.769672</ele>
        <time>2020-08-28T01:48:02.361Z</time>
      </trkpt>
      <trkpt lat="65.78989" lon="22.30571">
        <ele>12.607727</ele>
        <time>2020-08-28T01:48:04.223Z</time>
      </trkpt>
      <trkpt lat="65.78981" lon="22.30547">
        <ele>12.436486</ele>
        <time>2020-08-28T01:48:06.105Z</time>
      </trkpt>
      <trkpt lat="65.78935" lon="22.30359">
        <ele>11.397003</ele>
        <time>2020-08-28T01:48:19.910Z</time>
      </trkpt>
      <trkpt lat="65.78885" lon="22.30243">
        <ele>10.689035</ele>
        <time>2020-08-28T01:48:30.377Z</time>
      </trkpt>
      <trkpt lat="65.78826" lon="22.30138">
        <ele>10.029054</ele>
        <time>2020-08-28T01:48:41.875Z</time>
      </trkpt>
      <trkpt lat="65.78776" lon="22.30077">
        <ele>9.872029</ele>
        <time>2020-08-28T01:48:50.996Z</time>
      </trkpt>
      <trkpt lat="65.78645" lon="22.29888">
        <ele>9.648545</ele>
        <time>2020-08-28T01:49:18.045Z</time>
      </trkpt>
      <trkpt lat="65.78606" lon="22.29805">
        <ele>9.765482</ele>
        <time>2020-08-28T01:49:27.856Z</time>
      </trkpt>
      <trkpt lat="65.78564" lon="22.29712">
        <ele>9.895899</ele>
        <time>2020-08-28T01:49:38.713Z</time>
      </trkpt>
      <trkpt lat="65.78536" lon="22.2967">
        <ele>9.968101</ele>
        <time>2020-08-28T01:49:44.796Z</time>
      </trkpt>
      <trkpt lat="65.78511" lon="22.29659">
        <ele>9.985735</ele>
        <time>2020-08-28T01:49:49.496Z</time>
      </trkpt>
      <trkpt lat="65.78489" lon="22.29655">
        <ele>10.001142</ele>
        <time>2020-08-28T01:49:53.609Z</time>
      </trkpt>
      <trkpt lat="65.78436" lon="22.29674">
        <ele>10.037823</ele>
        <time>2020-08-28T01:50:03.155Z</time>
      </trkpt>
      <trkpt lat="65.7842" lon="22.29667">
        <ele>10.04908</ele>
        <time>2020-08-28T01:50:06.075Z</time>
      </trkpt>
      <trkpt lat="65.78408" lon="22.29662">
        <ele>10.057454</ele>
        <time>2020-08-28T01:50:08.179Z</time>
      </trkpt>
      <trkpt lat="65.78359" lon="22.2961">
        <ele>10.094623</ele>
        <time>2020-08-28T01:50:17.753Z</time>
      </trkpt>
      <trkpt lat="65.78317" lon="22.29527">
        <ele>10.130717</ele>
        <time>2020-08-28T01:50:27.269Z</time>
      </trkpt>
      <trkpt lat="65.78296" lon="22.29468">
        <ele>10.152018</ele>
        <time>2020-08-28T01:50:32.951Z</time>
      </trkpt>
      <trkpt lat="65.78249" lon="22.29235">
        <ele>10.319856</ele>
        <time>2020-08-28T01:50:52.499Z</time>
      </trkpt>
      <trkpt lat="65.78194" lon="22.29085">
        <ele>10.839233</ele>
        <time>2020-08-28T01:51:08.432Z</time>
      </trkpt>
      <trkpt lat="65.78172" lon="22.29">
        <ele>11.100427</ele>
        <time>2020-08-28T01:51:16.838Z</time>
      </trkpt>
      <trkpt lat="65.78163" lon="22.2894">
        <ele>11.265063</ele>
        <time>2020-08-28T01:51:22.286Z</time>
      </trkpt>
      <trkpt lat="65.78161" lon="22.28877">
        <ele>11.491765</ele>
        <time>2020-08-28T01:51:27.806Z</time>
      </trkpt>
      <trkpt lat="65.78171" lon="22.28723">
        <ele>12.197311</ele>
        <time>2020-08-28T01:51:41.572Z</time>
      </trkpt>
      <trkpt lat="65.78168" lon="22.28665">
        <ele>12.464176</ele>
        <time>2020-08-28T01:51:46.854Z</time>
      </trkpt>
      <trkpt lat="65.78154" lon="22.28567">
        <ele>12.934122</ele>
        <time>2020-08-28T01:51:56.136Z</time>
      </trkpt>
      <trkpt lat="65.78096" lon="22.283">
        <ele>13.921755</ele>
        <time>2020-08-28T01:52:22.150Z</time>
      </trkpt>
      <trkpt lat="65.78062" lon="22.2822">
        <ele>14.237425</ele>
        <time>2020-08-28T01:52:31.362Z</time>
      </trkpt>
      <trkpt lat="65.77929" lon="22.28153">
        <ele>14.654737</ele>
        <time>2020-08-28T01:52:56.217Z</time>
      </trkpt>
      <trkpt lat="65.77826" lon="22.28072">
        <ele>14.737398</ele>
        <time>2020-08-28T01:53:15.974Z</time>
      </trkpt>
      <trkpt lat="65.77808" lon="22.28058">
        <ele>14.707385</ele>
        <time>2020-08-28T01:53:19.307Z</time>
      </trkpt>
      <trkpt lat="65.77791" lon="22.28033">
        <ele>14.676092</ele>
        <time>2020-08-28T01:53:22.796Z</time>
      </trkpt>
      <trkpt lat="65.77774" lon="22.27987">
        <ele>14.636124</ele>
        <time>2020-08-28T01:53:27.314Z</time>
      </trkpt>
      <trkpt lat="65.77737" lon="22.27859">
        <ele>14.53412</ele>
        <time>2020-08-28T01:53:38.260Z</time>
      </trkpt>
      <trkpt lat="65.77725" lon="22.27844">
        <ele>14.512202</ele>
        <time>2020-08-28T01:53:40.720Z</time>
      </trkpt>
      <trkpt lat="65.77721" lon="22.27839">
        <ele>14.504773</ele>
        <time>2020-08-28T01:53:41.418Z</time>
      </trkpt>
      <trkpt lat="65.77682" lon="22.27837">
        <ele>14.374636</ele>
        <time>2020-08-28T01:53:47.919Z</time>
      </trkpt>
      <trkpt lat="65.77624" lon="22.27845">
        <ele>14.12258</ele>
        <time>2020-08-28T01:53:57.838Z</time>
      </trkpt>
      <trkpt lat="65.77589" lon="22.27833">
        <ele>13.971241</ele>
        <time>2020-08-28T01:54:03.695Z</time>
      </trkpt>
      <trkpt lat="65.77568" lon="22.27814">
        <ele>13.873332</ele>
        <time>2020-08-28T01:54:07.407Z</time>
      </trkpt>
      <trkpt lat="65.77548" lon="22.27782">
        <ele>13.768023</ele>
        <time>2020-08-28T01:54:11.358Z</time>
      </trkpt>
      <trkpt lat="65.77509" lon="22.27724">
        <ele>13.522999</ele>
        <time>2020-08-28T01:54:18.678Z</time>
      </trkpt>
      <trkpt lat="65.77482" lon="22.27681">
        <ele>13.330354</ele>
        <time>2020-08-28T01:54:23.930Z</time>
      </trkpt>
      <trkpt lat="65.7746" lon="22.27668">
        <ele>13.194299</ele>
        <time>2020-08-28T01:54:27.640Z</time>
      </trkpt>
      <trkpt lat="65.77422" lon="22.27663">
        <ele>12.966838</ele>
        <time>2020-08-28T01:54:33.915Z</time>
      </trkpt>
      <trkpt lat="65.77377" lon="22.27657">
        <ele>12.696981</ele>
        <time>2020-08-28T01:54:41.341Z</time>
      </trkpt>
      <trkpt lat="65.77343" lon="22.27652">
        <ele>12.464843</ele>
        <time>2020-08-28T01:54:46.713Z</time>
      </trkpt>
      <trkpt lat="65.77287" lon="22.27615">
        <ele>12.035038</ele>
        <time>2020-08-28T01:54:55.847Z</time>
      </trkpt>
      <trkpt lat="65.77256" lon="22.27565">
        <ele>11.766171</ele>
        <time>2020-08-28T01:55:01.622Z</time>
      </trkpt>
      <trkpt lat="65.77233" lon="22.2752">
        <ele>11.549015</ele>
        <time>2020-08-28T01:55:06.355Z</time>
      </trkpt>
      <trkpt lat="65.77221" lon="22.27475">
        <ele>11.387113</ele>
        <time>2020-08-28T01:55:09.913Z</time>
      </trkpt>
      <trkpt lat="65.77214" lon="22.2745">
        <ele>11.307482</ele>
        <time>2020-08-28T01:55:11.943Z</time>
      </trkpt>
      <trkpt lat="65.77202" lon="22.2737">
        <ele>11.259313</ele>
        <time>2020-08-28T01:55:17.720Z</time>
      </trkpt>
      <trkpt lat="65.77187" lon="22.27294">
        <ele>11.21125</ele>
        <time>2020-08-28T01:55:23.562Z</time>
      </trkpt>
      <trkpt lat="65.77171" lon="22.2722">
        <ele>11.164342</ele>
        <time>2020-08-28T01:55:29.462Z</time>
      </trkpt>
      <trkpt lat="65.77168" lon="22.27188">
        <ele>11.14614</ele>
        <time>2020-08-28T01:55:31.799Z</time>
      </trkpt>
      <trkpt lat="65.77163" lon="22.27137">
        <ele>11.116377</ele>
        <time>2020-08-28T01:55:35.754Z</time>
      </trkpt>
      <trkpt lat="65.77163" lon="22.27069">
        <ele>11.077666</ele>
        <time>2020-08-28T01:55:40.977Z</time>
      </trkpt>
      <trkpt lat="65.7717" lon="22.26986">
        <ele>11.21545</ele>
        <time>2020-08-28T01:55:47.554Z</time>
      </trkpt>
      <trkpt lat="65.77187" lon="22.26924">
        <ele>11.409955</ele>
        <time>2020-08-28T01:55:53.653Z</time>
      </trkpt>
      <trkpt lat="65.77221" lon="22.26848">
        <ele>11.705414</ele>
        <time>2020-08-28T01:56:03.087Z</time>
      </trkpt>
      <trkpt lat="65.77279" lon="22.26764">
        <ele>12.13793</ele>
        <time>2020-08-28T01:56:16.685Z</time>
      </trkpt>
      <trkpt lat="65.77284" lon="22.26746">
        <ele>12.192189</ele>
        <time>2020-08-28T01:56:18.604Z</time>
      </trkpt>
      <trkpt lat="65.77293" lon="22.26709">
        <ele>12.271284</ele>
        <time>2020-08-28T01:56:22.130Z</time>
      </trkpt>
      <trkpt lat="65.77298" lon="22.26645">
        <ele>12.375613</ele>
        <time>2020-08-28T01:56:27.609Z</time>
      </trkpt>
      <trkpt lat="65.773" lon="22.26616">
        <ele>12.421749</ele>
        <time>2020-08-28T01:56:29.885Z</time>
      </trkpt>
      <trkpt lat="65.77298" lon="22.26558">
        <ele>12.514441</ele>
        <time>2020-08-28T01:56:34.631Z</time>
      </trkpt>
      <trkpt lat="65.77297" lon="22.26514">
        <ele>12.585846</ele>
        <time>2020-08-28T01:56:38.036Z</time>
      </trkpt>
      <trkpt lat="65.7729" lon="22.26283">
        <ele>12.884198</ele>
        <time>2020-08-28T01:56:55.667Z</time>
      </trkpt>
      <trkpt lat="65.77293" lon="22.26238">
        <ele>12.830518</ele>
        <time>2020-08-28T01:56:59.005Z</time>
      </trkpt>
      <trkpt lat="65.77299" lon="22.26149">
        <ele>12.725295</ele>
        <time>2020-08-28T01:57:05.473Z</time>
      </trkpt>
      <trkpt lat="65.77297" lon="22.26052">
        <ele>12.612822</ele>
        <time>2020-08-28T01:57:12.287Z</time>
      </trkpt>
      <trkpt lat="65.77297" lon="22.26026">
        <ele>12.582582</ele>
        <time>2020-08-28T01:57:14.066Z</time>
      </trkpt>
      <trkpt lat="65.77275" lon="22.25813">
        <ele>12.058087</ele>
        <time>2020-08-28T01:57:28.815Z</time>
      </trkpt>
      <trkpt lat="65.77269" lon="22.25754">
        <ele>11.741641</ele>
        <time>2020-08-28T01:57:32.706Z</time>
      </trkpt>
      <trkpt lat="65.77269" lon="22.25683">
        <ele>11.373995</ele>
        <time>2020-08-28T01:57:37.163Z</time>
      </trkpt>
      <trkpt lat="65.77273" lon="22.25616">
        <ele>11.02217</ele>
        <time>2020-08-28T01:57:41.376Z</time>
      </trkpt>
      <trkpt lat="65.77281" lon="22.25511">
        <ele>10.465026</ele>
        <time>2020-08-28T01:57:47.842Z</time>
      </trkpt>
      <trkpt lat="65.77286" lon="22.25441">
        <ele>10.078302</ele>
        <time>2020-08-28T01:57:51.965Z</time>
      </trkpt>
      <trkpt lat="65.77291" lon="22.25377">
        <ele>9.517364</ele>
        <time>2020-08-28T01:57:55.693Z</time>
      </trkpt>
      <trkpt lat="65.77302" lon="22.25232">
        <ele>8.250449</ele>
        <time>2020-08-28T01:58:04.094Z</time>
      </trkpt>
      <trkpt lat="65.77302" lon="22.25215">
        <ele>8.101598</ele>
        <time>2020-08-28T01:58:05.037Z</time>
      </trkpt>
      <trkpt lat="65.77308" lon="22.25005">
        <ele>6.333962</ele>
        <time>2020-08-28T01:58:17.097Z</time>
      </trkpt>
      <trkpt lat="65.7731" lon="22.24943">
        <ele>6.131404</ele>
        <time>2020-08-28T01:58:20.754Z</time>
      </trkpt>
      <trkpt lat="65.77316" lon="22.24814">
        <ele>5.709524</ele>
        <time>2020-08-28T01:58:28.768Z</time>
      </trkpt>
      <trkpt lat="65.77319" lon="22.24784">
        <ele>5.607261</ele>
        <time>2020-08-28T01:58:30.757Z</time>
      </trkpt>
      <trkpt lat="65.77323" lon="22.24753">
        <ele>5.503347</ele>
        <time>2020-08-28T01:58:32.911Z</time>
      </trkpt>
      <trkpt lat="65.77338" lon="22.24695">
        <ele>5.280643</ele>
        <time>2020-08-28T01:58:37.669Z</time>
      </trkpt>
      <trkpt lat="65.77343" lon="22.24674">
        <ele>5.200385</ele>
        <time>2020-08-28T01:58:39.518Z</time>
      </trkpt>
      <trkpt lat="65.77388" lon="22.24507">
        <ele>5.079385</ele>
        <time>2020-08-28T01:58:55.293Z</time>
      </trkpt>
      <trkpt lat="65.77407" lon="22.24406">
        <ele>5.223005</ele>
        <time>2020-08-28T01:59:04.303Z</time>
      </trkpt>
      <trkpt lat="65.77422" lon="22.24329">
        <ele>5.331202</ele>
        <time>2020-08-28T01:59:11.047Z</time>
      </trkpt>
      <trkpt lat="65.7744" lon="22.24233">
        <ele>5.466528</ele>
        <time>2020-08-28T01:59:19.189Z</time>
      </trkpt>
      <trkpt lat="65.77456" lon="22.24132">
        <ele>5.323361</ele>
        <time>2020-08-28T01:59:26.934Z</time>
      </trkpt>
      <trkpt lat="65.77495" lon="22.23881">
        <ele>4.809504</ele>
        <time>2020-08-28T01:59:44.867Z</time>
      </trkpt>
      <trkpt lat="65.77503" lon="22.23791">
        <ele>4.627234</ele>
        <time>2020-08-28T01:59:50.877Z</time>
      </trkpt>
      <trkpt lat="65.77501" lon="22.23446">
        <ele>3.830763</ele>
        <time>2020-08-28T02:00:13.671Z</time>
      </trkpt>
      <trkpt lat="65.77537" lon="22.23199">
        <ele>3.604795</ele>
        <time>2020-08-28T02:00:32.253Z</time>
      </trkpt>
      <trkpt lat="65.77572" lon="22.22983">
        <ele>3.55999</ele>
        <time>2020-08-28T02:00:49.489Z</time>
      </trkpt>
      <trkpt lat="65.77583" lon="22.22916">
        <ele>3.592693</ele>
        <time>2020-08-28T02:00:54.943Z</time>
      </trkpt>
      <trkpt lat="65.77615" lon="22.22804">
        <ele>3.705566</ele>
        <time>2020-08-28T02:01:05.354Z</time>
      </trkpt>
      <trkpt lat="65.77715" lon="22.22537">
        <ele>4.038284</ele>
        <time>2020-08-28T02:01:32.997Z</time>
      </trkpt>
      <trkpt lat="65.77734" lon="22.22474">
        <ele>4.12649</ele>
        <time>2020-08-28T02:01:38.937Z</time>
      </trkpt>
      <trkpt lat="65.77761" lon="22.22295">
        <ele>4.341345</ele>
        <time>2020-08-28T02:01:53.511Z</time>
      </trkpt>
      <trkpt lat="65.77774" lon="22.21847">
        <ele>5.017284</ele>
        <time>2020-08-28T02:02:28.675Z</time>
      </trkpt>
      <trkpt lat="65.77773" lon="22.21681">
        <ele>5.266377</ele>
        <time>2020-08-28T02:02:41.723Z</time>
      </trkpt>
      <trkpt lat="65.77764" lon="22.21552">
        <ele>5.459037</ele>
        <time>2020-08-28T02:02:51.965Z</time>
      </trkpt>
      <trkpt lat="65.77746" lon="22.21411">
        <ele>5.676462</ele>
        <time>2020-08-28T02:03:03.427Z</time>
      </trkpt>
      <trkpt lat="65.77699" lon="22.21173">
        <ele>5.953673</ele>
        <time>2020-08-28T02:03:23.644Z</time>
      </trkpt>
      <trkpt lat="65.77673" lon="22.21065">
        <ele>6.073014</ele>
        <time>2020-08-28T02:03:33.104Z</time>
      </trkpt>
      <trkpt lat="65.7767" lon="22.21053">
        <ele>6.086461</ele>
        <time>2020-08-28T02:03:34.171Z</time>
      </trkpt>
      <trkpt lat="65.77651" lon="22.20985">
        <ele>6.164822</ele>
        <time>2020-08-28T02:03:40.397Z</time>
      </trkpt>
      <trkpt lat="65.77643" lon="22.20956">
        <ele>6.19586</ele>
        <time>2020-08-28T02:03:43.147Z</time>
      </trkpt>
      <trkpt lat="65.77456" lon="22.20422">
        <ele>6.777494</ele>
        <time>2020-08-28T02:04:36.543Z</time>
      </trkpt>
      <trkpt lat="65.77378" lon="22.20176">
        <ele>6.931034</ele>
        <time>2020-08-28T02:04:59.817Z</time>
      </trkpt>
      <trkpt lat="65.77318" lon="22.20046">
        <ele>6.981541</ele>
        <time>2020-08-28T02:05:14.262Z</time>
      </trkpt>
      <trkpt lat="65.77197" lon="22.19868">
        <ele>7.000012</ele>
        <time>2020-08-28T02:05:39.503Z</time>
      </trkpt>
      <trkpt lat="65.7716" lon="22.19765">
        <ele>7.000012</ele>
        <time>2020-08-28T02:05:49.587Z</time>
      </trkpt>
      <trkpt lat="65.77152" lon="22.1973">
        <ele>7.000012</ele>
        <time>2020-08-28T02:05:52.489Z</time>
      </trkpt>
      <trkpt lat="65.7715" lon="22.19717">
        <ele>7.000012</ele>
        <time>2020-08-28T02:05:53.539Z</time>
      </trkpt>
      <trkpt lat="65.77139" lon="22.19648">
        <ele>7.000012</ele>
        <time>2020-08-28T02:05:58.972Z</time>
      </trkpt>
      <trkpt lat="65.77134" lon="22.19572">
        <ele>7.000012</ele>
        <time>2020-08-28T02:06:04.601Z</time>
      </trkpt>
      <trkpt lat="65.77136" lon="22.19493">
        <ele>7.000012</ele>
        <time>2020-08-28T02:06:10.394Z</time>
      </trkpt>
      <trkpt lat="65.77144" lon="22.19414">
        <ele>7.000012</ele>
        <time>2020-08-28T02:06:16.356Z</time>
      </trkpt>
      <trkpt lat="65.77153" lon="22.19353">
        <ele>7.000012</ele>
        <time>2020-08-28T02:06:21.153Z</time>
      </trkpt>
      <trkpt lat="65.77164" lon="22.19275">
        <ele>7.000643</ele>
        <time>2020-08-28T02:06:27.223Z</time>
      </trkpt>
      <trkpt lat="65.77172" lon="22.19189">
        <ele>7.001816</ele>
        <time>2020-08-28T02:06:33.666Z</time>
      </trkpt>
      <trkpt lat="65.77172" lon="22.19108">
        <ele>7.002897</ele>
        <time>2020-08-28T02:06:39.596Z</time>
      </trkpt>
      <trkpt lat="65.77158" lon="22.18963">
        <ele>7.004886</ele>
        <time>2020-08-28T02:06:50.517Z</time>
      </trkpt>
      <trkpt lat="65.77149" lon="22.18799">
        <ele>7.027773</ele>
        <time>2020-08-28T02:07:02.637Z</time>
      </trkpt>
      <trkpt lat="65.77144" lon="22.1817">
        <ele>7.292128</ele>
        <time>2020-08-28T02:07:49.388Z</time>
      </trkpt>
      <trkpt lat="65.77137" lon="22.18084">
        <ele>7.348411</ele>
        <time>2020-08-28T02:07:56.122Z</time>
      </trkpt>
      <trkpt lat="65.77123" lon="22.17992">
        <ele>7.422581</ele>
        <time>2020-08-28T02:08:03.661Z</time>
      </trkpt>
      <trkpt lat="65.771" lon="22.17904">
        <ele>7.528877</ele>
        <time>2020-08-28T02:08:11.703Z</time>
      </trkpt>
      <trkpt lat="65.77086" lon="22.17861">
        <ele>7.584342</ele>
        <time>2020-08-28T02:08:15.904Z</time>
      </trkpt>
      <trkpt lat="65.76997" lon="22.1765">
        <ele>7.855348</ele>
        <time>2020-08-28T02:08:39.181Z</time>
      </trkpt>
      <trkpt lat="65.76968" lon="22.17548">
        <ele>7.890893</ele>
        <time>2020-08-28T02:08:48.373Z</time>
      </trkpt>
      <trkpt lat="65.76964" lon="22.17528">
        <ele>7.897266</ele>
        <time>2020-08-28T02:08:50.011Z</time>
      </trkpt>
      <trkpt lat="65.7695" lon="22.17455">
        <ele>7.920319</ele>
        <time>2020-08-28T02:08:55.925Z</time>
      </trkpt>
      <trkpt lat="65.76942" lon="22.17352">
        <ele>7.950537</ele>
        <time>2020-08-28T02:09:03.674Z</time>
      </trkpt>
      <trkpt lat="65.76947" lon="22.17103">
        <ele>7.85271</ele>
        <time>2020-08-28T02:09:21.659Z</time>
      </trkpt>
      <trkpt lat="65.76956" lon="22.16975">
        <ele>7.77724</ele>
        <time>2020-08-28T02:09:30.990Z</time>
      </trkpt>
      <trkpt lat="65.76945" lon="22.1697">
        <ele>7.7607</ele>
        <time>2020-08-28T02:09:33.084Z</time>
      </trkpt>
      <trkpt lat="65.76778" lon="22.16836">
        <ele>7.526432</ele>
        <time>2020-08-28T02:10:04.503Z</time>
      </trkpt>
      <trkpt lat="65.76623" lon="22.16832">
        <ele>7.865209</ele>
        <time>2020-08-28T02:10:34.073Z</time>
      </trkpt>
      <trkpt lat="65.76599" lon="22.16841">
        <ele>7.948558</ele>
        <time>2020-08-28T02:10:39.116Z</time>
      </trkpt>
      <trkpt lat="65.76585" lon="22.16856">
        <ele>7.998501</ele>
        <time>2020-08-28T02:10:42.205Z</time>
      </trkpt>
      <trkpt lat="65.76572" lon="22.16863">
        <ele>8.044523</ele>
        <time>2020-08-28T02:10:45.055Z</time>
      </trkpt>
      <trkpt lat="65.76562" lon="22.16868">
        <ele>8.075748</ele>
        <time>2020-08-28T02:10:46.930Z</time>
      </trkpt>
      <trkpt lat="65.7654" lon="22.16869">
        <ele>8.246075</ele>
        <time>2020-08-28T02:10:51.686Z</time>
      </trkpt>
      <trkpt lat="65.76446" lon="22.16912">
        <ele>8.989509</ele>
        <time>2020-08-28T02:11:12.104Z</time>
      </trkpt>
      <trkpt lat="65.76416" lon="22.1691">
        <ele>9.221246</ele>
        <time>2020-08-28T02:11:18.488Z</time>
      </trkpt>
      <trkpt lat="65.764" lon="22.16897">
        <ele>9.356974</ele>
        <time>2020-08-28T02:11:22.253Z</time>
      </trkpt>
      <trkpt lat="65.7636" lon="22.16834">
        <ele>9.576481</ele>
        <time>2020-08-28T02:11:31.871Z</time>
      </trkpt>
      <trkpt lat="65.76324" lon="22.16808">
        <ele>9.694317</ele>
        <time>2020-08-28T02:11:39.374Z</time>
      </trkpt>
      <trkpt lat="65.76245" lon="22.16789">
        <ele>9.941971</ele>
        <time>2020-08-28T02:11:54.736Z</time>
      </trkpt>
      <trkpt lat="65.76131" lon="22.1681">
        <ele>9.903549</ele>
        <time>2020-08-28T02:12:16.002Z</time>
      </trkpt>
      <trkpt lat="65.76068" lon="22.16834">
        <ele>9.800264</ele>
        <time>2020-08-28T02:12:27.337Z</time>
      </trkpt>
      <trkpt lat="65.75946" lon="22.16893">
        <ele>9.334012</ele>
        <time>2020-08-28T02:12:49.254Z</time>
      </trkpt>
      <trkpt lat="65.75442" lon="22.17329">
        <ele>6.672135</ele>
        <time>2020-08-28T02:14:21.043Z</time>
      </trkpt>
      <trkpt lat="65.75433" lon="22.17336">
        <ele>6.63107</ele>
        <time>2020-08-28T02:14:22.582Z</time>
      </trkpt>
      <trkpt lat="65.75345" lon="22.17411">
        <ele>6.231001</ele>
        <time>2020-08-28T02:14:38.955Z</time>
      </trkpt>
      <trkpt lat="65.75131" lon="22.17606">
        <ele>5.241829</ele>
        <time>2020-08-28T02:15:19.469Z</time>
      </trkpt>
      <trkpt lat="65.75006" lon="22.17683">
        <ele>4.279008</ele>
        <time>2020-08-28T02:15:40.628Z</time>
      </trkpt>
      <trkpt lat="65.74961" lon="22.17687">
        <ele>3.749497</ele>
        <time>2020-08-28T02:15:47.591Z</time>
      </trkpt>
      <trkpt lat="65.74927" lon="22.17678">
        <ele>3.341127</ele>
        <time>2020-08-28T02:15:52.977Z</time>
      </trkpt>
      <trkpt lat="65.74874" lon="22.17639">
        <ele>2.690336</ele>
        <time>2020-08-28T02:16:01.661Z</time>
      </trkpt>
      <trkpt lat="65.74843" lon="22.17602">
        <ele>2.282125</ele>
        <time>2020-08-28T02:16:07.147Z</time>
      </trkpt>
      <trkpt lat="65.74777" lon="22.17487">
        <ele>1.767903</ele>
        <time>2020-08-28T02:16:20.450Z</time>
      </trkpt>
      <trkpt lat="65.74771" lon="22.17451">
        <ele>1.670471</ele>
        <time>2020-08-28T02:16:23.136Z</time>
      </trkpt>
      <trkpt lat="65.74779" lon="22.17385">
        <ele>1.496026</ele>
        <time>2020-08-28T02:16:28.005Z</time>
      </trkpt>
      <trkpt lat="65.74779" lon="22.17336">
        <ele>1.373217</ele>
        <time>2020-08-28T02:16:31.480Z</time>
      </trkpt>
      <trkpt lat="65.74734" lon="22.17135">
        <ele>1.220688</ele>
        <time>2020-08-28T02:16:48.924Z</time>
      </trkpt>
      <trkpt lat="65.74712" lon="22.17084">
        <ele>1.261408</ele>
        <time>2020-08-28T02:16:54.586Z</time>
      </trkpt>
      <trkpt lat="65.747" lon="22.17037">
        <ele>1.292341</ele>
        <time>2020-08-28T02:16:59.010Z</time>
      </trkpt>
      <trkpt lat="65.74694" lon="22.16992">
        <ele>1.318782</ele>
        <time>2020-08-28T02:17:02.704Z</time>
      </trkpt>
      <trkpt lat="65.74694" lon="22.16975">
        <ele>1.328116</ele>
        <time>2020-08-28T02:17:04.005Z</time>
      </trkpt>
      <trkpt lat="65.74695" lon="22.16944">
        <ele>1.345683</ele>
        <time>2020-08-28T02:17:06.632Z</time>
      </trkpt>
      <trkpt lat="65.74692" lon="22.16906">
        <ele>1.367377</ele>
        <time>2020-08-28T02:17:09.682Z</time>
      </trkpt>
      <trkpt lat="65.74671" lon="22.16864">
        <ele>1.443105</ele>
        <time>2020-08-28T02:17:14.944Z</time>
      </trkpt>
      <trkpt lat="65.74655" lon="22.16801">
        <ele>1.588694</ele>
        <time>2020-08-28T02:17:20.968Z</time>
      </trkpt>
      <trkpt lat="65.74648" lon="22.16743">
        <ele>1.708134</ele>
        <time>2020-08-28T02:17:25.822Z</time>
      </trkpt>
      <trkpt lat="65.74648" lon="22.16729">
        <ele>1.737237</ele>
        <time>2020-08-28T02:17:27.136Z</time>
      </trkpt>
      <trkpt lat="65.7464" lon="22.16636">
        <ele>1.924883</ele>
        <time>2020-08-28T02:17:35.016Z</time>
      </trkpt>
      <trkpt lat="65.7463" lon="22.16597">
        <ele>2.015829</ele>
        <time>2020-08-28T02:17:38.776Z</time>
      </trkpt>
      <trkpt lat="65.7461" lon="22.16578">
        <ele>2.118951</ele>
        <time>2020-08-28T02:17:43.145Z</time>
      </trkpt>
      <trkpt lat="65.74599" lon="22.1658">
        <ele>2.172927</ele>
        <time>2020-08-28T02:17:45.377Z</time>
      </trkpt>
      <trkpt lat="65.74576" lon="22.16595">
        <ele>2.303928</ele>
        <time>2020-08-28T02:17:50.276Z</time>
      </trkpt>
      <trkpt lat="65.74534" lon="22.16672">
        <ele>2.677049</ele>
        <time>2020-08-28T02:18:01.047Z</time>
      </trkpt>
      <trkpt lat="65.74486" lon="22.16753">
        <ele>3.091189</ele>
        <time>2020-08-28T02:18:13.144Z</time>
      </trkpt>
      <trkpt lat="65.74453" lon="22.16769">
        <ele>3.324987</ele>
        <time>2020-08-28T02:18:20.124Z</time>
      </trkpt>
      <trkpt lat="65.74412" lon="22.16762">
        <ele>3.672056</ele>
        <time>2020-08-28T02:18:29.091Z</time>
      </trkpt>
      <trkpt lat="65.74377" lon="22.16728">
        <ele>4.082684</ele>
        <time>2020-08-28T02:18:37.230Z</time>
      </trkpt>
      <trkpt lat="65.74326" lon="22.16672">
        <ele>4.690226</ele>
        <time>2020-08-28T02:18:49.606Z</time>
      </trkpt>
      <trkpt lat="65.74256" lon="22.16608">
        <ele>5.520327</ele>
        <time>2020-08-28T02:19:06.625Z</time>
      </trkpt>
      <trkpt lat="65.7419" lon="22.16554">
        <ele>6.27552</ele>
        <time>2020-08-28T02:19:22.203Z</time>
      </trkpt>
      <trkpt lat="65.74111" lon="22.16481">
        <ele>7.189721</ele>
        <time>2020-08-28T02:19:40.611Z</time>
      </trkpt>
      <trkpt lat="65.74095" lon="22.16445">
        <ele>7.432404</ele>
        <time>2020-08-28T02:19:45.364Z</time>
      </trkpt>
      <trkpt lat="65.74057" lon="22.16289">
        <ele>8.31816</ele>
        <time>2020-08-28T02:20:01.328Z</time>
      </trkpt>
      <trkpt lat="65.74056" lon="22.16283">
        <ele>8.354024</ele>
        <time>2020-08-28T02:20:02.045Z</time>
      </trkpt>
      <trkpt lat="65.74045" lon="22.16253">
        <ele>8.54776</ele>
        <time>2020-08-28T02:20:05.527Z</time>
      </trkpt>
      <trkpt lat="65.74026" lon="22.16243">
        <ele>8.788245</ele>
        <time>2020-08-28T02:20:09.855Z</time>
      </trkpt>
      <trkpt lat="65.74011" lon="22.16257">
        <ele>8.973956</ele>
        <time>2020-08-28T02:20:13.304Z</time>
      </trkpt>
      <trkpt lat="65.73999" lon="22.16298">
        <ele>9.221802</ele>
        <time>2020-08-28T02:20:18.010Z</time>
      </trkpt>
      <trkpt lat="65.73991" lon="22.16335">
        <ele>9.429053</ele>
        <time>2020-08-28T02:20:22.335Z</time>
      </trkpt>
      <trkpt lat="65.73982" lon="22.16385">
        <ele>9.744348</ele>
        <time>2020-08-28T02:20:27.420Z</time>
      </trkpt>
      <trkpt lat="65.73976" lon="22.16415">
        <ele>10.003109</ele>
        <time>2020-08-28T02:20:30.875Z</time>
      </trkpt>
      <trkpt lat="65.73967" lon="22.16467">
        <ele>10.435625</ele>
        <time>2020-08-28T02:20:36.151Z</time>
      </trkpt>
      <trkpt lat="65.73958" lon="22.16519">
        <ele>10.874561</ele>
        <time>2020-08-28T02:20:41.801Z</time>
      </trkpt>
      <trkpt lat="65.73953" lon="22.16545">
        <ele>11.096577</ele>
        <time>2020-08-28T02:20:44.482Z</time>
      </trkpt>
      <trkpt lat="65.73949" lon="22.16565">
        <ele>11.266327</ele>
        <time>2020-08-28T02:20:46.805Z</time>
      </trkpt>
      <trkpt lat="65.73938" lon="22.16623">
        <ele>11.766255</ele>
        <time>2020-08-28T02:20:53.070Z</time>
      </trkpt>
      <trkpt lat="65.7393" lon="22.16657">
        <ele>12.068491</ele>
        <time>2020-08-28T02:20:57.257Z</time>
      </trkpt>
      <trkpt lat="65.73897" lon="22.16786">
        <ele>13.18101</ele>
        <time>2020-08-28T02:21:12.218Z</time>
      </trkpt>
      <trkpt lat="65.73884" lon="22.1686">
        <ele>13.646283</ele>
        <time>2020-08-28T02:21:20.027Z</time>
      </trkpt>
      <trkpt lat="65.7386" lon="22.17102">
        <ele>15.086842</ele>
        <time>2020-08-28T02:21:43.086Z</time>
      </trkpt>
      <trkpt lat="65.73845" lon="22.17197">
        <ele>15.561949</ele>
        <time>2020-08-28T02:21:51.608Z</time>
      </trkpt>
      <trkpt lat="65.73839" lon="22.17225">
        <ele>15.597688</ele>
        <time>2020-08-28T02:21:54.185Z</time>
      </trkpt>
      <trkpt lat="65.7383" lon="22.17265">
        <ele>15.649895</ele>
        <time>2020-08-28T02:21:57.986Z</time>
      </trkpt>
      <trkpt lat="65.73804" lon="22.17345">
        <ele>15.763518</ele>
        <time>2020-08-28T02:22:05.974Z</time>
      </trkpt>
      <trkpt lat="65.73714" lon="22.1758">
        <ele>15.764963</ele>
        <time>2020-08-28T02:22:29.518Z</time>
      </trkpt>
      <trkpt lat="65.73674" lon="22.1772">
        <ele>15.248227</ele>
        <time>2020-08-28T02:22:40.608Z</time>
      </trkpt>
      <trkpt lat="65.73649" lon="22.17786">
        <ele>14.973584</ele>
        <time>2020-08-28T02:22:46.393Z</time>
      </trkpt>
      <trkpt lat="65.73636" lon="22.17814">
        <ele>14.84506</ele>
        <time>2020-08-28T02:22:49.047Z</time>
      </trkpt>
      <trkpt lat="65.73623" lon="22.17837">
        <ele>14.729228</ele>
        <time>2020-08-28T02:22:51.463Z</time>
      </trkpt>
      <trkpt lat="65.73519" lon="22.17996">
        <ele>13.269465</ele>
        <time>2020-08-28T02:23:09.996Z</time>
      </trkpt>
      <trkpt lat="65.73449" lon="22.18195">
        <ele>12.131783</ele>
        <time>2020-08-28T02:23:26.516Z</time>
      </trkpt>
      <trkpt lat="65.73384" lon="22.18355">
        <ele>11.332687</ele>
        <time>2020-08-28T02:23:40.931Z</time>
      </trkpt>
      <trkpt lat="65.73354" lon="22.18425">
        <ele>10.973909</ele>
        <time>2020-08-28T02:23:47.642Z</time>
      </trkpt>
      <trkpt lat="65.73273" lon="22.18617">
        <ele>10.589044</ele>
        <time>2020-08-28T02:24:06.299Z</time>
      </trkpt>
      <trkpt lat="65.73158" lon="22.18865">
        <ele>10.328773</ele>
        <time>2020-08-28T02:24:33.569Z</time>
      </trkpt>
      <trkpt lat="65.73081" lon="22.18978">
        <ele>10.293786</ele>
        <time>2020-08-28T02:24:49.657Z</time>
      </trkpt>
      <trkpt lat="65.73064" lon="22.18994">
        <ele>10.281764</ele>
        <time>2020-08-28T02:24:52.985Z</time>
      </trkpt>
      <trkpt lat="65.73048" lon="22.19007">
        <ele>10.269981</ele>
        <time>2020-08-28T02:24:55.891Z</time>
      </trkpt>
      <trkpt lat="65.72921" lon="22.19065">
        <ele>10.180373</ele>
        <time>2020-08-28T02:25:18.656Z</time>
      </trkpt>
      <trkpt lat="65.72899" lon="22.19082">
        <ele>10.164505</ele>
        <time>2020-08-28T02:25:22.602Z</time>
      </trkpt>
      <trkpt lat="65.72877" lon="22.19108">
        <ele>10.14819</ele>
        <time>2020-08-28T02:25:27.003Z</time>
      </trkpt>
      <trkpt lat="65.72625" lon="22.19543">
        <ele>10.009746</ele>
        <time>2020-08-28T02:26:21.729Z</time>
      </trkpt>
      <trkpt lat="65.72576" lon="22.19646">
        <ele>10.015013</ele>
        <time>2020-08-28T02:26:33.200Z</time>
      </trkpt>
      <trkpt lat="65.72565" lon="22.19681">
        <ele>10.019505</ele>
        <time>2020-08-28T02:26:36.470Z</time>
      </trkpt>
      <trkpt lat="65.72556" lon="22.19716">
        <ele>10.023656</ele>
        <time>2020-08-28T02:26:39.502Z</time>
      </trkpt>
      <trkpt lat="65.72543" lon="22.19792">
        <ele>10.031959</ele>
        <time>2020-08-28T02:26:45.572Z</time>
      </trkpt>
      <trkpt lat="65.72483" lon="22.20115">
        <ele>10.158292</ele>
        <time>2020-08-28T02:27:11.872Z</time>
      </trkpt>
      <trkpt lat="65.72473" lon="22.20169">
        <ele>10.192377</ele>
        <time>2020-08-28T02:27:16.337Z</time>
      </trkpt>
      <trkpt lat="65.7241" lon="22.205">
        <ele>10.314516</ele>
        <time>2020-08-28T02:27:43.864Z</time>
      </trkpt>
      <trkpt lat="65.72398" lon="22.20553">
        <ele>10.319304</ele>
        <time>2020-08-28T02:27:48.387Z</time>
      </trkpt>
      <trkpt lat="65.72377" lon="22.20652">
        <ele>10.328172</ele>
        <time>2020-08-28T02:27:56.584Z</time>
      </trkpt>
      <trkpt lat="65.7231" lon="22.20939">
        <ele>10.12397</ele>
        <time>2020-08-28T02:28:20.349Z</time>
      </trkpt>
      <trkpt lat="65.72245" lon="22.21157">
        <ele>9.827042</ele>
        <time>2020-08-28T02:28:39.042Z</time>
      </trkpt>
      <trkpt lat="65.72228" lon="22.21205">
        <ele>9.720206</ele>
        <time>2020-08-28T02:28:43.243Z</time>
      </trkpt>
      <trkpt lat="65.72214" lon="22.21241">
        <ele>9.633304</ele>
        <time>2020-08-28T02:28:46.695Z</time>
      </trkpt>
      <trkpt lat="65.72167" lon="22.21331">
        <ele>9.384852</ele>
        <time>2020-08-28T02:28:56.551Z</time>
      </trkpt>
      <trkpt lat="65.72157" lon="22.21347">
        <ele>9.33362</ele>
        <time>2020-08-28T02:28:58.557Z</time>
      </trkpt>
      <trkpt lat="65.7215" lon="22.21358">
        <ele>9.296875</ele>
        <time>2020-08-28T02:28:59.957Z</time>
      </trkpt>
      <trkpt lat="65.71518" lon="22.22237">
        <ele>7.34965</ele>
        <time>2020-08-28T02:31:04.000Z</time>
      </trkpt>
      <trkpt lat="65.71416" lon="22.22389">
        <ele>7.209161</ele>
        <time>2020-08-28T02:31:25.097Z</time>
      </trkpt>
      <trkpt lat="65.71343" lon="22.22513">
        <ele>7.12615</ele>
        <time>2020-08-28T02:31:40.889Z</time>
      </trkpt>
      <trkpt lat="65.71287" lon="22.22623">
        <ele>7.087557</ele>
        <time>2020-08-28T02:31:53.736Z</time>
      </trkpt>
      <trkpt lat="65.71173" lon="22.22885">
        <ele>6.872427</ele>
        <time>2020-08-28T02:32:21.285Z</time>
      </trkpt>
      <trkpt lat="65.71139" lon="22.22973">
        <ele>6.743462</ele>
        <time>2020-08-28T02:32:29.804Z</time>
      </trkpt>
      <trkpt lat="65.71116" lon="22.23035">
        <ele>6.652673</ele>
        <time>2020-08-28T02:32:35.758Z</time>
      </trkpt>
      <trkpt lat="65.71051" lon="22.23208">
        <ele>6.042396</ele>
        <time>2020-08-28T02:32:51.536Z</time>
      </trkpt>
      <trkpt lat="65.71038" lon="22.23236">
        <ele>5.904037</ele>
        <time>2020-08-28T02:32:54.267Z</time>
      </trkpt>
      <trkpt lat="65.71026" lon="22.23259">
        <ele>5.781567</ele>
        <time>2020-08-28T02:32:56.611Z</time>
      </trkpt>
      <trkpt lat="65.71013" lon="22.23285">
        <ele>5.644099</ele>
        <time>2020-08-28T02:32:59.244Z</time>
      </trkpt>
      <trkpt lat="65.70997" lon="22.23314">
        <ele>5.478312</ele>
        <time>2020-08-28T02:33:02.374Z</time>
      </trkpt>
      <trkpt lat="65.70942" lon="22.23391">
        <ele>4.881334</ele>
        <time>2020-08-28T02:33:12.213Z</time>
      </trkpt>
      <trkpt lat="65.70933" lon="22.23401">
        <ele>4.754122</ele>
        <time>2020-08-28T02:33:13.716Z</time>
      </trkpt>
      <trkpt lat="65.70914" lon="22.23418">
        <ele>4.500624</ele>
        <time>2020-08-28T02:33:16.690Z</time>
      </trkpt>
      <trkpt lat="65.709" lon="22.23429">
        <ele>4.318933</ele>
        <time>2020-08-28T02:33:18.860Z</time>
      </trkpt>
      <trkpt lat="65.70887" lon="22.23438">
        <ele>4.149587</ele>
        <time>2020-08-28T02:33:20.907Z</time>
      </trkpt>
      <trkpt lat="65.70874" lon="22.23445">
        <ele>3.972179</ele>
        <time>2020-08-28T02:33:22.964Z</time>
      </trkpt>
      <trkpt lat="65.70816" lon="22.23459">
        <ele>3.239449</ele>
        <time>2020-08-28T02:33:31.552Z</time>
      </trkpt>
      <trkpt lat="65.70789" lon="22.23458">
        <ele>2.901265</ele>
        <time>2020-08-28T02:33:35.567Z</time>
      </trkpt>
      <trkpt lat="65.70775" lon="22.23449">
        <ele>2.76475</ele>
        <time>2020-08-28T02:33:37.762Z</time>
      </trkpt>
      <trkpt lat="65.70723" lon="22.23412">
        <ele>2.412095</ele>
        <time>2020-08-28T02:33:46.045Z</time>
      </trkpt>
      <trkpt lat="65.70705" lon="22.23396">
        <ele>2.284422</ele>
        <time>2020-08-28T02:33:49.033Z</time>
      </trkpt>
      <trkpt lat="65.70692" lon="22.23377">
        <ele>2.181462</ele>
        <time>2020-08-28T02:33:51.617Z</time>
      </trkpt>
      <trkpt lat="65.70656" lon="22.23322">
        <ele>1.904102</ele>
        <time>2020-08-28T02:33:58.553Z</time>
      </trkpt>
      <trkpt lat="65.70625" lon="22.23272">
        <ele>1.659945</ele>
        <time>2020-08-28T02:34:04.957Z</time>
      </trkpt>
      <trkpt lat="65.70606" lon="22.23241">
        <ele>1.772006</ele>
        <time>2020-08-28T02:34:09.294Z</time>
      </trkpt>
      <trkpt lat="65.70572" lon="22.23187">
        <ele>2.048169</ele>
        <time>2020-08-28T02:34:16.972Z</time>
      </trkpt>
      <trkpt lat="65.70541" lon="22.23134">
        <ele>2.299378</ele>
        <time>2020-08-28T02:34:24.451Z</time>
      </trkpt>
      <trkpt lat="65.70539" lon="22.2313">
        <ele>2.320871</ele>
        <time>2020-08-28T02:34:25.110Z</time>
      </trkpt>
      <trkpt lat="65.70529" lon="22.23114">
        <ele>2.399152</ele>
        <time>2020-08-28T02:34:27.475Z</time>
      </trkpt>
      <trkpt lat="65.705" lon="22.23069">
        <ele>2.634862</ele>
        <time>2020-08-28T02:34:34.806Z</time>
      </trkpt>
      <trkpt lat="65.70431" lon="22.22958">
        <ele>3.471491</ele>
        <time>2020-08-28T02:34:53.062Z</time>
      </trkpt>
      <trkpt lat="65.70394" lon="22.22897">
        <ele>4.019361</ele>
        <time>2020-08-28T02:35:02.930Z</time>
      </trkpt>
      <trkpt lat="65.70339" lon="22.22797">
        <ele>4.862014</ele>
        <time>2020-08-28T02:35:17.932Z</time>
      </trkpt>
      <trkpt lat="65.70276" lon="22.22671">
        <ele>5.502118</ele>
        <time>2020-08-28T02:35:35.438Z</time>
      </trkpt>
      <trkpt lat="65.69904" lon="22.21912">
        <ele>8.534877</ele>
        <time>2020-08-28T02:37:11.012Z</time>
      </trkpt>
      <trkpt lat="65.69818" lon="22.21733">
        <ele>8.927505</ele>
        <time>2020-08-28T02:37:32.457Z</time>
      </trkpt>
      <trkpt lat="65.69681" lon="22.2145">
        <ele>9.464883</ele>
        <time>2020-08-28T02:38:05.893Z</time>
      </trkpt>
      <trkpt lat="65.69615" lon="22.21333">
        <ele>9.719714</ele>
        <time>2020-08-28T02:38:21.472Z</time>
      </trkpt>
      <trkpt lat="65.69541" lon="22.21226">
        <ele>10.045016</ele>
        <time>2020-08-28T02:38:38.098Z</time>
      </trkpt>
      <trkpt lat="65.69438" lon="22.21113">
        <ele>10.237967</ele>
        <time>2020-08-28T02:38:59.365Z</time>
      </trkpt>
      <trkpt lat="65.69341" lon="22.21034">
        <ele>10.096563</ele>
        <time>2020-08-28T02:39:16.846Z</time>
      </trkpt>
      <trkpt lat="65.69202" lon="22.20971">
        <ele>9.789605</ele>
        <time>2020-08-28T02:39:40.248Z</time>
      </trkpt>
      <trkpt lat="65.68759" lon="22.20918">
        <ele>9.698132</ele>
        <time>2020-08-28T02:40:59.815Z</time>
      </trkpt>
      <trkpt lat="65.68718" lon="22.20921">
        <ele>9.712319</ele>
        <time>2020-08-28T02:41:07.257Z</time>
      </trkpt>
      <trkpt lat="65.68678" lon="22.20931">
        <ele>9.726061</ele>
        <time>2020-08-28T02:41:14.425Z</time>
      </trkpt>
      <trkpt lat="65.68597" lon="22.20963">
        <ele>9.754576</ele>
        <time>2020-08-28T02:41:29.303Z</time>
      </trkpt>
      <trkpt lat="65.68475" lon="22.21047">
        <ele>9.555747</ele>
        <time>2020-08-28T02:41:51.533Z</time>
      </trkpt>
      <trkpt lat="65.67242" lon="22.2237">
        <ele>4.316337</ele>
        <time>2020-08-28T02:45:37.049Z</time>
      </trkpt>
      <trkpt lat="65.67136" lon="22.22452">
        <ele>3.911501</ele>
        <time>2020-08-28T02:45:55.800Z</time>
      </trkpt>
      <trkpt lat="65.67051" lon="22.22496">
        <ele>3.653553</ele>
        <time>2020-08-28T02:46:10.387Z</time>
      </trkpt>
      <trkpt lat="65.6696" lon="22.22518">
        <ele>3.420239</ele>
        <time>2020-08-28T02:46:25.997Z</time>
      </trkpt>
      <trkpt lat="65.6688" lon="22.2252">
        <ele>3.329414</ele>
        <time>2020-08-28T02:46:39.923Z</time>
      </trkpt>
      <trkpt lat="65.66753" lon="22.22521">
        <ele>3.343509</ele>
        <time>2020-08-28T02:47:02.650Z</time>
      </trkpt>
      <trkpt lat="65.66516" lon="22.22517">
        <ele>3.77376</ele>
        <time>2020-08-28T02:47:46.828Z</time>
      </trkpt>
      <trkpt lat="65.65252" lon="22.22486">
        <ele>6.007626</ele>
        <time>2020-08-28T02:51:38.591Z</time>
      </trkpt>
      <trkpt lat="65.65141" lon="22.22502">
        <ele>6.586466</ele>
        <time>2020-08-28T02:52:00.760Z</time>
      </trkpt>
      <trkpt lat="65.65099" lon="22.22521">
        <ele>6.873406</ele>
        <time>2020-08-28T02:52:09.434Z</time>
      </trkpt>
      <trkpt lat="65.65067" lon="22.22542">
        <ele>7.130046</ele>
        <time>2020-08-28T02:52:16.215Z</time>
      </trkpt>
      <trkpt lat="65.65007" lon="22.22593">
        <ele>7.622484</ele>
        <time>2020-08-28T02:52:29.221Z</time>
      </trkpt>
      <trkpt lat="65.64929" lon="22.22682">
        <ele>8.177802</ele>
        <time>2020-08-28T02:52:46.551Z</time>
      </trkpt>
      <trkpt lat="65.64846" lon="22.2278">
        <ele>8.546689</ele>
        <time>2020-08-28T02:53:04.591Z</time>
      </trkpt>
      <trkpt lat="65.64763" lon="22.22886">
        <ele>8.651069</ele>
        <time>2020-08-28T02:53:21.761Z</time>
      </trkpt>
      <trkpt lat="65.64702" lon="22.22964">
        <ele>8.411067</ele>
        <time>2020-08-28T02:53:33.538Z</time>
      </trkpt>
      <trkpt lat="65.64583" lon="22.23127">
        <ele>7.825005</ele>
        <time>2020-08-28T02:53:55.429Z</time>
      </trkpt>
      <trkpt lat="65.64532" lon="22.2321">
        <ele>7.503335</ele>
        <time>2020-08-28T02:54:05.246Z</time>
      </trkpt>
      <trkpt lat="65.6448" lon="22.23304">
        <ele>7.237336</ele>
        <time>2020-08-28T02:54:16.109Z</time>
      </trkpt>
      <trkpt lat="65.64431" lon="22.2338">
        <ele>7.523569</ele>
        <time>2020-08-28T02:54:26.792Z</time>
      </trkpt>
      <trkpt lat="65.64385" lon="22.23436">
        <ele>7.774755</ele>
        <time>2020-08-28T02:54:36.952Z</time>
      </trkpt>
      <trkpt lat="65.64367" lon="22.23454">
        <ele>7.870117</ele>
        <time>2020-08-28T02:54:41.121Z</time>
      </trkpt>
      <trkpt lat="65.64337" lon="22.23481">
        <ele>8.025597</ele>
        <time>2020-08-28T02:54:47.809Z</time>
      </trkpt>
      <trkpt lat="65.64283" lon="22.23517">
        <ele>8.512374</ele>
        <time>2020-08-28T02:54:59.453Z</time>
      </trkpt>
      <trkpt lat="65.6426" lon="22.23527">
        <ele>8.744908</ele>
        <time>2020-08-28T02:55:04.701Z</time>
      </trkpt>
      <trkpt lat="65.64234" lon="22.23534">
        <ele>8.995641</ele>
        <time>2020-08-28T02:55:10.314Z</time>
      </trkpt>
      <trkpt lat="65.64181" lon="22.2354">
        <ele>9.506515</ele>
        <time>2020-08-28T02:55:21.606Z</time>
      </trkpt>
      <trkpt lat="65.64131" lon="22.23533">
        <ele>9.835333</ele>
        <time>2020-08-28T02:55:31.763Z</time>
      </trkpt>
      <trkpt lat="65.64105" lon="22.23526">
        <ele>9.852393</ele>
        <time>2020-08-28T02:55:36.933Z</time>
      </trkpt>
      <trkpt lat="65.6407" lon="22.23509">
        <ele>9.875219</ele>
        <time>2020-08-28T02:55:43.380Z</time>
      </trkpt>
      <trkpt lat="65.64033" lon="22.23486">
        <ele>9.899934</ele>
        <time>2020-08-28T02:55:50.190Z</time>
      </trkpt>
      <trkpt lat="65.64018" lon="22.23473">
        <ele>9.910058</ele>
        <time>2020-08-28T02:55:52.830Z</time>
      </trkpt>
      <trkpt lat="65.63951" lon="22.23402">
        <ele>9.754269</ele>
        <time>2020-08-28T02:56:05.038Z</time>
      </trkpt>
      <trkpt lat="65.63882" lon="22.23297">
        <ele>9.197098</ele>
        <time>2020-08-28T02:56:17.875Z</time>
      </trkpt>
      <trkpt lat="65.6386" lon="22.23257">
        <ele>9.010572</ele>
        <time>2020-08-28T02:56:22.249Z</time>
      </trkpt>
      <trkpt lat="65.63864" lon="22.23241">
        <ele>8.954779</ele>
        <time>2020-08-28T02:56:23.568Z</time>
      </trkpt>
      <trkpt lat="65.63821" lon="22.23132">
        <ele>8.671943</ele>
        <time>2020-08-28T02:56:34.126Z</time>
      </trkpt>
      <trkpt lat="65.63801" lon="22.23045">
        <ele>8.613364</ele>
        <time>2020-08-28T02:56:41.185Z</time>
      </trkpt>
      <trkpt lat="65.63778" lon="22.22994">
        <ele>8.569379</ele>
        <time>2020-08-28T02:56:46.613Z</time>
      </trkpt>
      <trkpt lat="65.63707" lon="22.22705">
        <ele>8.872327</ele>
        <time>2020-08-28T02:57:13.723Z</time>
      </trkpt>
      <trkpt lat="65.6369" lon="22.22638">
        <ele>9.109174</ele>
        <time>2020-08-28T02:57:20.769Z</time>
      </trkpt>
      <trkpt lat="65.6368" lon="22.22586">
        <ele>9.282217</ele>
        <time>2020-08-28T02:57:25.857Z</time>
      </trkpt>
      <trkpt lat="65.6367" lon="22.22557">
        <ele>9.395086</ele>
        <time>2020-08-28T02:57:29.209Z</time>
      </trkpt>
      <trkpt lat="65.63655" lon="22.22524">
        <ele>9.539388</ele>
        <time>2020-08-28T02:57:33.537Z</time>
      </trkpt>
      <trkpt lat="65.63625" lon="22.22444">
        <ele>9.915396</ele>
        <time>2020-08-28T02:57:43.509Z</time>
      </trkpt>
      <trkpt lat="65.6361" lon="22.22417">
        <ele>10.111718</ele>
        <time>2020-08-28T02:57:47.422Z</time>
      </trkpt>
      <trkpt lat="65.63602" lon="22.22396">
        <ele>10.240477</ele>
        <time>2020-08-28T02:57:50.214Z</time>
      </trkpt>
      <trkpt lat="65.63599" lon="22.22388">
        <ele>10.286303</ele>
        <time>2020-08-28T02:57:51.235Z</time>
      </trkpt>
      <trkpt lat="65.63589" lon="22.22384">
        <ele>10.400786</ele>
        <time>2020-08-28T02:57:53.481Z</time>
      </trkpt>
      <trkpt lat="65.63527" lon="22.22262">
        <ele>11.251393</ele>
        <time>2020-08-28T02:58:10.919Z</time>
      </trkpt>
      <trkpt lat="65.63469" lon="22.22167">
        <ele>12.06755</ele>
        <time>2020-08-28T02:58:26.387Z</time>
      </trkpt>
      <trkpt lat="65.63387" lon="22.21982">
        <ele>13.534069</ele>
        <time>2020-08-28T02:58:51.600Z</time>
      </trkpt>
      <trkpt lat="65.63289" lon="22.21814">
        <ele>15.43321</ele>
        <time>2020-08-28T02:59:20.007Z</time>
      </trkpt>
      <trkpt lat="65.63158" lon="22.21545">
        <ele>18.221643</ele>
        <time>2020-08-28T03:00:02.173Z</time>
      </trkpt>
      <trkpt lat="65.63098" lon="22.21449">
        <ele>19.279083</ele>
        <time>2020-08-28T03:00:18.693Z</time>
      </trkpt>
      <trkpt lat="65.63044" lon="22.21316">
        <ele>20.044892</ele>
        <time>2020-08-28T03:00:35.517Z</time>
      </trkpt>
      <trkpt lat="65.62992" lon="22.21245">
        <ele>20.396003</ele>
        <time>2020-08-28T03:00:47.754Z</time>
      </trkpt>
      <trkpt lat="65.62931" lon="22.21106">
        <ele>20.841507</ele>
        <time>2020-08-28T03:01:04.352Z</time>
      </trkpt>
      <trkpt lat="65.62866" lon="22.20977">
        <ele>20.649625</ele>
        <time>2020-08-28T03:01:20.556Z</time>
      </trkpt>
      <trkpt lat="65.62853" lon="22.20942">
        <ele>20.604928</ele>
        <time>2020-08-28T03:01:24.263Z</time>
      </trkpt>
      <trkpt lat="65.62809" lon="22.20819">
        <ele>20.449852</ele>
        <time>2020-08-28T03:01:35.441Z</time>
      </trkpt>
      <trkpt lat="65.62784" lon="22.20773">
        <ele>19.735384</ele>
        <time>2020-08-28T03:01:40.345Z</time>
      </trkpt>
      <trkpt lat="65.62767" lon="22.20748">
        <ele>19.223571</ele>
        <time>2020-08-28T03:01:43.516Z</time>
      </trkpt>
      <trkpt lat="65.62747" lon="22.20721">
        <ele>18.622096</ele>
        <time>2020-08-28T03:01:47.035Z</time>
      </trkpt>
      <trkpt lat="65.62741" lon="22.20713">
        <ele>18.455062</ele>
        <time>2020-08-28T03:01:48.017Z</time>
      </trkpt>
      <trkpt lat="65.62725" lon="22.20697">
        <ele>18.025351</ele>
        <time>2020-08-28T03:01:50.342Z</time>
      </trkpt>
      <trkpt lat="65.62665" lon="22.20625">
        <ele>16.309271</ele>
        <time>2020-08-28T03:01:59.519Z</time>
      </trkpt>
      <trkpt lat="65.62641" lon="22.20576">
        <ele>15.331046</ele>
        <time>2020-08-28T03:02:03.639Z</time>
      </trkpt>
      <trkpt lat="65.62616" lon="22.20501">
        <ele>13.756357</ele>
        <time>2020-08-28T03:02:08.884Z</time>
      </trkpt>
      <trkpt lat="65.6259" lon="22.20436">
        <ele>12.310676</ele>
        <time>2020-08-28T03:02:13.788Z</time>
      </trkpt>
      <trkpt lat="65.62559" lon="22.20375">
        <ele>10.776789</ele>
        <time>2020-08-28T03:02:19.012Z</time>
      </trkpt>
      <trkpt lat="65.62543" lon="22.20346">
        <ele>9.979508</ele>
        <time>2020-08-28T03:02:21.697Z</time>
      </trkpt>
      <trkpt lat="65.62507" lon="22.20278">
        <ele>8.397727</ele>
        <time>2020-08-28T03:02:27.763Z</time>
      </trkpt>
      <trkpt lat="65.62433" lon="22.20211">
        <ele>6.279636</ele>
        <time>2020-08-28T03:02:38.737Z</time>
      </trkpt>
      <trkpt lat="65.62413" lon="22.20215">
        <ele>5.749419</ele>
        <time>2020-08-28T03:02:41.536Z</time>
      </trkpt>
      <trkpt lat="65.62382" lon="22.20256">
        <ele>4.79957</ele>
        <time>2020-08-28T03:02:46.743Z</time>
      </trkpt>
      <trkpt lat="65.62368" lon="22.20264">
        <ele>4.413586</ele>
        <time>2020-08-28T03:02:48.907Z</time>
      </trkpt>
      <trkpt lat="65.62265" lon="22.20205">
        <ele>2.889977</ele>
        <time>2020-08-28T03:03:05.112Z</time>
      </trkpt>
      <trkpt lat="65.6225" lon="22.20189">
        <ele>2.689455</ele>
        <time>2020-08-28T03:03:07.670Z</time>
      </trkpt>
      <trkpt lat="65.62244" lon="22.20182">
        <ele>2.612339</ele>
        <time>2020-08-28T03:03:08.720Z</time>
      </trkpt>
      <trkpt lat="65.6224" lon="22.2018">
        <ele>2.562179</ele>
        <time>2020-08-28T03:03:09.363Z</time>
      </trkpt>
      <trkpt lat="65.6223" lon="22.20202">
        <ele>2.403788</ele>
        <time>2020-08-28T03:03:11.500Z</time>
      </trkpt>
      <trkpt lat="65.62206" lon="22.20201">
        <ele>2.101864</ele>
        <time>2020-08-28T03:03:15.703Z</time>
      </trkpt>
      <trkpt lat="65.62184" lon="22.20202">
        <ele>1.837667</ele>
        <time>2020-08-28T03:03:19.381Z</time>
      </trkpt>
      <trkpt lat="65.6216" lon="22.20196">
        <ele>2.011103</ele>
        <time>2020-08-28T03:03:23.628Z</time>
      </trkpt>
      <trkpt lat="65.62135" lon="22.20193">
        <ele>2.252714</ele>
        <time>2020-08-28T03:03:28.309Z</time>
      </trkpt>
      <trkpt lat="65.62089" lon="22.2019">
        <ele>2.675572</ele>
        <time>2020-08-28T03:03:37.196Z</time>
      </trkpt>
      <trkpt lat="65.62086" lon="22.20189">
        <ele>2.711127</ele>
        <time>2020-08-28T03:03:38.061Z</time>
      </trkpt>
      <trkpt lat="65.62085" lon="22.20199">
        <ele>2.748968</ele>
        <time>2020-08-28T03:03:39.154Z</time>
      </trkpt>
      <trkpt lat="65.62075" lon="22.20199">
        <ele>2.843433</ele>
        <time>2020-08-28T03:03:41.616Z</time>
      </trkpt>
      <trkpt lat="65.61985" lon="22.20193">
        <ele>4.43673</ele>
        <time>2020-08-28T03:04:03.106Z</time>
      </trkpt>
      <trkpt lat="65.61952" lon="22.2019">
        <ele>5.883234</ele>
        <time>2020-08-28T03:04:12.085Z</time>
      </trkpt>
      <trkpt lat="65.6192" lon="22.20185">
        <ele>7.274327</ele>
        <time>2020-08-28T03:04:21.881Z</time>
      </trkpt>
      <trkpt lat="65.61866" lon="22.20165">
        <ele>9.683971</ele>
        <time>2020-08-28T03:04:40.406Z</time>
      </trkpt>
      <trkpt lat="65.61833" lon="22.20148">
        <ele>11.162079</ele>
        <time>2020-08-28T03:04:52.958Z</time>
      </trkpt>
      <trkpt lat="65.61821" lon="22.2014">
        <ele>11.956543</ele>
        <time>2020-08-28T03:04:57.764Z</time>
      </trkpt>
      <trkpt lat="65.61767" lon="22.20102">
        <ele>16.423176</ele>
        <time>2020-08-28T03:05:20.960Z</time>
      </trkpt>
      <trkpt lat="65.61672" lon="22.20006">
        <ele>24.571147</ele>
        <time>2020-08-28T03:06:07.618Z</time>
      </trkpt>
      <trkpt lat="65.61576" lon="22.19863">
        <ele>32.594958</ele>
        <time>2020-08-28T03:06:58.557Z</time>
      </trkpt>
      <trkpt lat="65.61546" lon="22.19808">
        <ele>35.260318</ele>
        <time>2020-08-28T03:07:13.710Z</time>
      </trkpt>
      <trkpt lat="65.61526" lon="22.19768">
        <ele>37.043447</ele>
        <time>2020-08-28T03:07:23.196Z</time>
      </trkpt>
      <trkpt lat="65.6134" lon="22.19318">
        <ele>45.102756</ele>
        <time>2020-08-28T03:08:34.884Z</time>
      </trkpt>
      <trkpt lat="65.61272" lon="22.19169">
        <ele>46.574903</ele>
        <time>2020-08-28T03:08:54.825Z</time>
      </trkpt>
      <trkpt lat="65.61252" lon="22.19134">
        <ele>46.883399</ele>
        <time>2020-08-28T03:08:59.545Z</time>
      </trkpt>
      <trkpt lat="65.61225" lon="22.19087">
        <ele>46.202416</ele>
        <time>2020-08-28T03:09:05.366Z</time>
      </trkpt>
      <trkpt lat="65.612" lon="22.19048">
        <ele>45.595503</ele>
        <time>2020-08-28T03:09:10.113Z</time>
      </trkpt>
      <trkpt lat="65.61173" lon="22.19011">
        <ele>44.953836</ele>
        <time>2020-08-28T03:09:14.717Z</time>
      </trkpt>
      <trkpt lat="65.61169" lon="22.19005">
        <ele>44.840136</ele>
        <time>2020-08-28T03:09:15.521Z</time>
      </trkpt>
      <trkpt lat="65.61155" lon="22.18988">
        <ele>44.527095</ele>
        <time>2020-08-28T03:09:17.586Z</time>
      </trkpt>
      <trkpt lat="65.61079" lon="22.189">
        <ele>41.849524</ele>
        <time>2020-08-28T03:09:28.324Z</time>
      </trkpt>
      <trkpt lat="65.61015" lon="22.18842">
        <ele>37.462533</ele>
        <time>2020-08-28T03:09:36.202Z</time>
      </trkpt>
      <trkpt lat="65.60881" lon="22.18744">
        <ele>28.833915</ele>
        <time>2020-08-28T03:09:52.071Z</time>
      </trkpt>
      <trkpt lat="65.60826" lon="22.18702">
        <ele>25.59214</ele>
        <time>2020-08-28T03:09:58.861Z</time>
      </trkpt>
      <trkpt lat="65.6077" lon="22.18661">
        <ele>22.292028</ele>
        <time>2020-08-28T03:10:06.109Z</time>
      </trkpt>
      <trkpt lat="65.60753" lon="22.18649">
        <ele>21.422172</ele>
        <time>2020-08-28T03:10:08.367Z</time>
      </trkpt>
      <trkpt lat="65.60747" lon="22.18644">
        <ele>21.297913</ele>
        <time>2020-08-28T03:10:09.186Z</time>
      </trkpt>
      <trkpt lat="65.60724" lon="22.18626">
        <ele>20.817225</ele>
        <time>2020-08-28T03:10:12.378Z</time>
      </trkpt>
      <trkpt lat="65.60678" lon="22.18593">
        <ele>19.87522</ele>
        <time>2020-08-28T03:10:19.213Z</time>
      </trkpt>
      <trkpt lat="65.6066" lon="22.1858">
        <ele>19.503266</ele>
        <time>2020-08-28T03:10:22.136Z</time>
      </trkpt>
      <trkpt lat="65.6063" lon="22.18556">
        <ele>18.878354</ele>
        <time>2020-08-28T03:10:27.025Z</time>
      </trkpt>
      <trkpt lat="65.60602" lon="22.18537">
        <ele>18.305653</ele>
        <time>2020-08-28T03:10:31.413Z</time>
      </trkpt>
      <trkpt lat="65.60569" lon="22.18514">
        <ele>17.817979</ele>
        <time>2020-08-28T03:10:36.452Z</time>
      </trkpt>
      <trkpt lat="65.60465" lon="22.1847">
        <ele>16.940524</ele>
        <time>2020-08-28T03:10:52.613Z</time>
      </trkpt>
      <trkpt lat="65.60433" lon="22.18466">
        <ele>16.675698</ele>
        <time>2020-08-28T03:10:57.955Z</time>
      </trkpt>
      <trkpt lat="65.60396" lon="22.18468">
        <ele>16.453476</ele>
        <time>2020-08-28T03:11:04.421Z</time>
      </trkpt>
      <trkpt lat="65.60356" lon="22.18481">
        <ele>16.434102</ele>
        <time>2020-08-28T03:11:11.833Z</time>
      </trkpt>
      <trkpt lat="65.60323" lon="22.18493">
        <ele>16.418489</ele>
        <time>2020-08-28T03:11:17.710Z</time>
      </trkpt>
      <trkpt lat="65.60283" lon="22.18514">
        <ele>16.398683</ele>
        <time>2020-08-28T03:11:25.081Z</time>
      </trkpt>
      <trkpt lat="65.60226" lon="22.18549">
        <ele>16.341093</ele>
        <time>2020-08-28T03:11:35.535Z</time>
      </trkpt>
      <trkpt lat="65.60151" lon="22.18599">
        <ele>15.737397</ele>
        <time>2020-08-28T03:11:49.156Z</time>
      </trkpt>
      <trkpt lat="65.60098" lon="22.18625">
        <ele>15.326378</ele>
        <time>2020-08-28T03:11:57.686Z</time>
      </trkpt>
      <trkpt lat="65.60031" lon="22.18654">
        <ele>14.464521</ele>
        <time>2020-08-28T03:12:07.374Z</time>
      </trkpt>
      <trkpt lat="65.60007" lon="22.18666">
        <ele>13.926964</ele>
        <time>2020-08-28T03:12:10.808Z</time>
      </trkpt>
      <trkpt lat="65.59993" lon="22.18673">
        <ele>13.611826</ele>
        <time>2020-08-28T03:12:12.759Z</time>
      </trkpt>
      <trkpt lat="65.59986" lon="22.18669">
        <ele>13.448914</ele>
        <time>2020-08-28T03:12:13.820Z</time>
      </trkpt>
      <trkpt lat="65.59977" lon="22.18653">
        <ele>13.204581</ele>
        <time>2020-08-28T03:12:15.390Z</time>
      </trkpt>
      <trkpt lat="65.59973" lon="22.18642">
        <ele>13.081842</ele>
        <time>2020-08-28T03:12:16.139Z</time>
      </trkpt>
      <trkpt lat="65.59969" lon="22.18634">
        <ele>12.958787</ele>
        <time>2020-08-28T03:12:16.887Z</time>
      </trkpt>
      <trkpt lat="65.59963" lon="22.1863">
        <ele>12.834241</ele>
        <time>2020-08-28T03:12:17.683Z</time>
      </trkpt>
      <trkpt lat="65.59948" lon="22.18607">
        <ele>12.431976</ele>
        <time>2020-08-28T03:12:20.297Z</time>
      </trkpt>
      <trkpt lat="65.59935" lon="22.18591">
        <ele>12.115003</ele>
        <time>2020-08-28T03:12:22.248Z</time>
      </trkpt>
      <trkpt lat="65.59923" lon="22.18565">
        <ele>11.763788</ele>
        <time>2020-08-28T03:12:24.642Z</time>
      </trkpt>
      <trkpt lat="65.5991" lon="22.18538">
        <ele>11.387557</ele>
        <time>2020-08-28T03:12:27.094Z</time>
      </trkpt>
      <trkpt lat="65.59894" lon="22.18496">
        <ele>10.928479</ele>
        <time>2020-08-28T03:12:30.527Z</time>
      </trkpt>
      <trkpt lat="65.59885" lon="22.18467">
        <ele>10.684432</ele>
        <time>2020-08-28T03:12:32.553Z</time>
      </trkpt>
      <trkpt lat="65.59855" lon="22.18368">
        <ele>9.869574</ele>
        <time>2020-08-28T03:12:39.593Z</time>
      </trkpt>
      <trkpt lat="65.59835" lon="22.18267">
        <ele>9.122653</ele>
        <time>2020-08-28T03:12:46.311Z</time>
      </trkpt>
      <trkpt lat="65.59807" lon="22.18085">
        <ele>7.95474</ele>
        <time>2020-08-28T03:12:59.060Z</time>
      </trkpt>
      <trkpt lat="65.59794" lon="22.17959">
        <ele>7.431606</ele>
        <time>2020-08-28T03:13:07.478Z</time>
      </trkpt>
      <trkpt lat="65.59792" lon="22.17908">
        <ele>7.225381</ele>
        <time>2020-08-28T03:13:10.845Z</time>
      </trkpt>
      <trkpt lat="65.59793" lon="22.17893">
        <ele>7.161817</ele>
        <time>2020-08-28T03:13:11.773Z</time>
      </trkpt>
      <trkpt lat="65.59796" lon="22.17761">
        <ele>6.626919</ele>
        <time>2020-08-28T03:13:20.196Z</time>
      </trkpt>
      <trkpt lat="65.59797" lon="22.17721">
        <ele>6.467023</ele>
        <time>2020-08-28T03:13:22.664Z</time>
      </trkpt>
      <trkpt lat="65.59797" lon="22.1769">
        <ele>6.367341</ele>
        <time>2020-08-28T03:13:24.743Z</time>
      </trkpt>
      <trkpt lat="65.59795" lon="22.17641">
        <ele>6.253666</ele>
        <time>2020-08-28T03:13:28.079Z</time>
      </trkpt>
      <trkpt lat="65.59804" lon="22.17633">
        <ele>6.198329</ele>
        <time>2020-08-28T03:13:29.677Z</time>
      </trkpt>
      <trkpt lat="65.59799" lon="22.176">
        <ele>6.115282</ele>
        <time>2020-08-28T03:13:32.185Z</time>
      </trkpt>
      <trkpt lat="65.59791" lon="22.17546">
        <ele>5.984548</ele>
        <time>2020-08-28T03:13:36.041Z</time>
      </trkpt>
      <trkpt lat="65.59778" lon="22.17467">
        <ele>5.789268</ele>
        <time>2020-08-28T03:13:42.038Z</time>
      </trkpt>
      <trkpt lat="65.59772" lon="22.17433">
        <ele>5.702805</ele>
        <time>2020-08-28T03:13:44.739Z</time>
      </trkpt>
      <trkpt lat="65.59749" lon="22.17392">
        <ele>5.544897</ele>
        <time>2020-08-28T03:13:49.765Z</time>
      </trkpt>
      <trkpt lat="65.59724" lon="22.17344">
        <ele>5.395466</ele>
        <time>2020-08-28T03:13:55.726Z</time>
      </trkpt>
      <trkpt lat="65.59702" lon="22.17302">
        <ele>5.383855</ele>
        <time>2020-08-28T03:14:01.002Z</time>
      </trkpt>
      <trkpt lat="65.59678" lon="22.17271">
        <ele>5.372878</ele>
        <time>2020-08-28T03:14:05.882Z</time>
      </trkpt>
      <trkpt lat="65.59663" lon="22.17255">
        <ele>5.366016</ele>
        <time>2020-08-28T03:14:08.887Z</time>
      </trkpt>
      <trkpt lat="65.59651" lon="22.17244">
        <ele>5.360877</ele>
        <time>2020-08-28T03:14:11.247Z</time>
      </trkpt>
      <trkpt lat="65.59631" lon="22.17229">
        <ele>5.352021</ele>
        <time>2020-08-28T03:14:15.129Z</time>
      </trkpt>
      <trkpt lat="65.59613" lon="22.17218">
        <ele>5.344782</ele>
        <time>2020-08-28T03:14:18.462Z</time>
      </trkpt>
      <trkpt lat="65.59595" lon="22.1721">
        <ele>5.337188</ele>
        <time>2020-08-28T03:14:21.795Z</time>
      </trkpt>
      <trkpt lat="65.59591" lon="22.17206">
        <ele>5.335478</ele>
        <time>2020-08-28T03:14:22.597Z</time>
      </trkpt>
      <trkpt lat="65.59589" lon="22.17198">
        <ele>5.333838</ele>
        <time>2020-08-28T03:14:23.404Z</time>
      </trkpt>
      <trkpt lat="65.59588" lon="22.17171">
        <ele>5.329185</ele>
        <time>2020-08-28T03:14:25.490Z</time>
      </trkpt>
      <trkpt lat="65.59586" lon="22.17144">
        <ele>5.32467</ele>
        <time>2020-08-28T03:14:27.481Z</time>
      </trkpt>
      <trkpt lat="65.59584" lon="22.17109">
        <ele>5.403609</ele>
        <time>2020-08-28T03:14:30.346Z</time>
      </trkpt>
      <trkpt lat="65.59581" lon="22.17077">
        <ele>5.485555</ele>
        <time>2020-08-28T03:14:32.909Z</time>
      </trkpt>
      <trkpt lat="65.59576" lon="22.17055">
        <ele>5.545329</ele>
        <time>2020-08-28T03:14:34.752Z</time>
      </trkpt>
      <trkpt lat="65.59559" lon="22.17012">
        <ele>5.692932</ele>
        <time>2020-08-28T03:14:39.736Z</time>
      </trkpt>
      <trkpt lat="65.59538" lon="22.16959">
        <ele>5.875127</ele>
        <time>2020-08-28T03:14:45.856Z</time>
      </trkpt>
      <trkpt lat="65.59519" lon="22.16908">
        <ele>6.044486</ele>
        <time>2020-08-28T03:14:51.695Z</time>
      </trkpt>
      <trkpt lat="65.59508" lon="22.1686">
        <ele>6.1828</ele>
        <time>2020-08-28T03:14:56.311Z</time>
      </trkpt>
      <trkpt lat="65.59502" lon="22.16822">
        <ele>6.283448</ele>
        <time>2020-08-28T03:14:59.922Z</time>
      </trkpt>
      <trkpt lat="65.595" lon="22.16797">
        <ele>6.345415</ele>
        <time>2020-08-28T03:15:02.199Z</time>
      </trkpt>
      <trkpt lat="65.59497" lon="22.16755">
        <ele>6.50279</ele>
        <time>2020-08-28T03:15:06.251Z</time>
      </trkpt>
      <trkpt lat="65.5949" lon="22.16709">
        <ele>6.747758</ele>
        <time>2020-08-28T03:15:10.854Z</time>
      </trkpt>
      <trkpt lat="65.59485" lon="22.16672">
        <ele>6.949101</ele>
        <time>2020-08-28T03:15:14.784Z</time>
      </trkpt>
      <trkpt lat="65.59471" lon="22.16597">
        <ele>7.36789</ele>
        <time>2020-08-28T03:15:22.985Z</time>
      </trkpt>
      <trkpt lat="65.5943" lon="22.16391">
        <ele>8.523003</ele>
        <time>2020-08-28T03:15:44.654Z</time>
      </trkpt>
      <trkpt lat="65.59405" lon="22.16266">
        <ele>8.451771</ele>
        <time>2020-08-28T03:15:56.062Z</time>
      </trkpt>
      <trkpt lat="65.59394" lon="22.16204">
        <ele>8.363798</ele>
        <time>2020-08-28T03:16:01.143Z</time>
      </trkpt>
      <trkpt lat="65.59377" lon="22.16129">
        <ele>8.252248</ele>
        <time>2020-08-28T03:16:07.289Z</time>
      </trkpt>
      <trkpt lat="65.59332" lon="22.15892">
        <ele>7.579442</ele>
        <time>2020-08-28T03:16:24.575Z</time>
      </trkpt>
      <trkpt lat="65.59321" lon="22.1567">
        <ele>6.555324</ele>
        <time>2020-08-28T03:16:39.111Z</time>
      </trkpt>
      <trkpt lat="65.59323" lon="22.15656">
        <ele>6.486017</ele>
        <time>2020-08-28T03:16:40.007Z</time>
      </trkpt>
      <trkpt lat="65.59327" lon="22.15623">
        <ele>6.331143</ele>
        <time>2020-08-28T03:16:42.361Z</time>
      </trkpt>
      <trkpt lat="65.59328" lon="22.15599">
        <ele>6.22248</ele>
        <time>2020-08-28T03:16:44.016Z</time>
      </trkpt>
      <trkpt lat="65.59315" lon="22.15589">
        <ele>6.079111</ele>
        <time>2020-08-28T03:16:46.041Z</time>
      </trkpt>
      <trkpt lat="65.59309" lon="22.15585">
        <ele>6.045951</ele>
        <time>2020-08-28T03:16:47.121Z</time>
      </trkpt>
      <trkpt lat="65.59285" lon="22.15577">
        <ele>6.040433</ele>
        <time>2020-08-28T03:16:51.324Z</time>
      </trkpt>
      <trkpt lat="65.59276" lon="22.15572">
        <ele>6.038351</ele>
        <time>2020-08-28T03:16:52.812Z</time>
      </trkpt>
      <trkpt lat="65.5926" lon="22.15557">
        <ele>6.034429</ele>
        <time>2020-08-28T03:16:55.925Z</time>
      </trkpt>
      <trkpt lat="65.59231" lon="22.15553">
        <ele>6.027822</ele>
        <time>2020-08-28T03:17:01.095Z</time>
      </trkpt>
      <trkpt lat="65.59215" lon="22.15552">
        <ele>6.024275</ele>
        <time>2020-08-28T03:17:04.000Z</time>
      </trkpt>
      <trkpt lat="65.59176" lon="22.15541">
        <ele>6.015403</ele>
        <time>2020-08-28T03:17:11.720Z</time>
      </trkpt>
      <trkpt lat="65.59119" lon="22.15521">
        <ele>6.064312</ele>
        <time>2020-08-28T03:17:23.920Z</time>
      </trkpt>
      <trkpt lat="65.5911" lon="22.15518">
        <ele>6.092387</ele>
        <time>2020-08-28T03:17:25.619Z</time>
      </trkpt>
      <trkpt lat="65.59089" lon="22.15511">
        <ele>6.166774</ele>
        <time>2020-08-28T03:17:30.153Z</time>
      </trkpt>
      <trkpt lat="65.59078" lon="22.15506">
        <ele>6.206082</ele>
        <time>2020-08-28T03:17:32.441Z</time>
      </trkpt>
      <trkpt lat="65.59067" lon="22.15507">
        <ele>6.243903</ele>
        <time>2020-08-28T03:17:34.784Z</time>
      </trkpt>
      <trkpt lat="65.59052" lon="22.15501">
        <ele>6.296855</ele>
        <time>2020-08-28T03:17:37.964Z</time>
      </trkpt>
      <trkpt lat="65.59048" lon="22.15499">
        <ele>6.309754</ele>
        <time>2020-08-28T03:17:38.683Z</time>
      </trkpt>
      <trkpt lat="65.59034" lon="22.15493">
        <ele>6.357363</ele>
        <time>2020-08-28T03:17:41.564Z</time>
      </trkpt>
      <trkpt lat="65.5902" lon="22.15483">
        <ele>6.408872</ele>
        <time>2020-08-28T03:17:44.597Z</time>
      </trkpt>
      <trkpt lat="65.59012" lon="22.15476">
        <ele>6.438913</ele>
        <time>2020-08-28T03:17:46.226Z</time>
      </trkpt>
      <trkpt lat="65.59005" lon="22.15462">
        <ele>6.469691</ele>
        <time>2020-08-28T03:17:47.844Z</time>
      </trkpt>
      <trkpt lat="65.58996" lon="22.15432">
        <ele>6.521678</ele>
        <time>2020-08-28T03:17:50.823Z</time>
      </trkpt>
      <trkpt lat="65.5899" lon="22.15404">
        <ele>6.567408</ele>
        <time>2020-08-28T03:17:53.267Z</time>
      </trkpt>
      <trkpt lat="65.58985" lon="22.15394">
        <ele>6.588387</ele>
        <time>2020-08-28T03:17:54.323Z</time>
      </trkpt>
      <trkpt lat="65.58982" lon="22.15365">
        <ele>6.606537</ele>
        <time>2020-08-28T03:17:56.619Z</time>
      </trkpt>
      <trkpt lat="65.58979" lon="22.15343">
        <ele>6.508677</ele>
        <time>2020-08-28T03:17:58.469Z</time>
      </trkpt>
      <trkpt lat="65.58983" lon="22.15334">
        <ele>6.455586</ele>
        <time>2020-08-28T03:17:59.336Z</time>
      </trkpt>
      <trkpt lat="65.58967" lon="22.15178">
        <ele>5.788924</ele>
        <time>2020-08-28T03:18:10.616Z</time>
      </trkpt>
      <trkpt lat="65.58965" lon="22.15158">
        <ele>5.704533</ele>
        <time>2020-08-28T03:18:11.932Z</time>
      </trkpt>
      <trkpt lat="65.58964" lon="22.1514">
        <ele>5.629254</ele>
        <time>2020-08-28T03:18:13.069Z</time>
      </trkpt>
      <trkpt lat="65.58963" lon="22.15118">
        <ele>5.53513</ele>
        <time>2020-08-28T03:18:14.612Z</time>
      </trkpt>
      <trkpt lat="65.58945" lon="22.14943">
        <ele>4.782188</ele>
        <time>2020-08-28T03:18:25.961Z</time>
      </trkpt>
      <trkpt lat="65.58939" lon="22.1494">
        <ele>4.703381</ele>
        <time>2020-08-28T03:18:26.924Z</time>
      </trkpt>
      <trkpt lat="65.58927" lon="22.14922">
        <ele>4.531527</ele>
        <time>2020-08-28T03:18:29.029Z</time>
      </trkpt>
      <trkpt lat="65.58924" lon="22.14874">
        <ele>4.285128</ele>
        <time>2020-08-28T03:18:32.148Z</time>
      </trkpt>
      <trkpt lat="65.58924" lon="22.14858">
        <ele>4.203014</ele>
        <time>2020-08-28T03:18:33.134Z</time>
      </trkpt>
      <trkpt lat="65.58922" lon="22.14838">
        <ele>4.093468</ele>
        <time>2020-08-28T03:18:34.485Z</time>
      </trkpt>
      <trkpt lat="65.58911" lon="22.14758">
        <ele>3.665298</ele>
        <time>2020-08-28T03:18:39.895Z</time>
      </trkpt>
      <trkpt lat="65.58909" lon="22.14742">
        <ele>3.580232</ele>
        <time>2020-08-28T03:18:41.016Z</time>
      </trkpt>
      <trkpt lat="65.58906" lon="22.14715">
        <ele>3.439604</ele>
        <time>2020-08-28T03:18:42.849Z</time>
      </trkpt>
      <trkpt lat="65.58903" lon="22.14698">
        <ele>3.347014</ele>
        <time>2020-08-28T03:18:43.985Z</time>
      </trkpt>
      <trkpt lat="65.58894" lon="22.14706">
        <ele>3.221544</ele>
        <time>2020-08-28T03:18:45.641Z</time>
      </trkpt>
      <trkpt lat="65.58882" lon="22.14713">
        <ele>3.068358</ele>
        <time>2020-08-28T03:18:47.695Z</time>
      </trkpt>
      <trkpt lat="65.58856" lon="22.1474">
        <ele>2.721124</ele>
        <time>2020-08-28T03:18:52.239Z</time>
      </trkpt>
      <trkpt lat="65.58847" lon="22.14754">
        <ele>2.599196</ele>
        <time>2020-08-28T03:18:53.957Z</time>
      </trkpt>
      <trkpt lat="65.58701" lon="22.14924">
        <ele>1.839573</ele>
        <time>2020-08-28T03:19:22.271Z</time>
      </trkpt>
      <trkpt lat="65.58648" lon="22.14971">
        <ele>1.625469</ele>
        <time>2020-08-28T03:19:32.030Z</time>
      </trkpt>
      <trkpt lat="65.58631" lon="22.14979">
        <ele>1.563829</ele>
        <time>2020-08-28T03:19:35.298Z</time>
      </trkpt>
      <trkpt lat="65.58594" lon="22.1495">
        <ele>1.429095</ele>
        <time>2020-08-28T03:19:42.161Z</time>
      </trkpt>
      <trkpt lat="65.58582" lon="22.14941">
        <ele>1.386746</ele>
        <time>2020-08-28T03:19:44.173Z</time>
      </trkpt>
      <trkpt lat="65.58562" lon="22.14923">
        <ele>1.311135</ele>
        <time>2020-08-28T03:19:48.189Z</time>
      </trkpt>
      <trkpt lat="65.58502" lon="22.14851">
        <ele>1.145562</ele>
        <time>2020-08-28T03:19:59.910Z</time>
      </trkpt>
      <trkpt lat="65.58497" lon="22.14838">
        <ele>1.14852</ele>
        <time>2020-08-28T03:20:01.327Z</time>
      </trkpt>
      <trkpt lat="65.58494" lon="22.14832">
        <ele>1.149831</ele>
        <time>2020-08-28T03:20:01.895Z</time>
      </trkpt>
      <trkpt lat="65.58487" lon="22.14784">
        <ele>1.158009</ele>
        <time>2020-08-28T03:20:05.711Z</time>
      </trkpt>
      <trkpt lat="65.5848" lon="22.14723">
        <ele>1.168027</ele>
        <time>2020-08-28T03:20:10.342Z</time>
      </trkpt>
      <trkpt lat="65.58467" lon="22.14605">
        <ele>1.187395</ele>
        <time>2020-08-28T03:20:19.989Z</time>
      </trkpt>
      <trkpt lat="65.58457" lon="22.14511">
        <ele>1.202703</ele>
        <time>2020-08-28T03:20:27.742Z</time>
      </trkpt>
      <trkpt lat="65.58454" lon="22.14468">
        <ele>1.233363</ele>
        <time>2020-08-28T03:20:31.421Z</time>
      </trkpt>
      <trkpt lat="65.58451" lon="22.14429">
        <ele>1.334521</ele>
        <time>2020-08-28T03:20:34.606Z</time>
      </trkpt>
      <trkpt lat="65.58448" lon="22.14401">
        <ele>1.406807</ele>
        <time>2020-08-28T03:20:36.926Z</time>
      </trkpt>
      <trkpt lat="65.58447" lon="22.14363">
        <ele>1.50381</ele>
        <time>2020-08-28T03:20:40.231Z</time>
      </trkpt>
      <trkpt lat="65.58448" lon="22.1435">
        <ele>1.538447</ele>
        <time>2020-08-28T03:20:41.332Z</time>
      </trkpt>
      <trkpt lat="65.58435" lon="22.14337">
        <ele>1.626258</ele>
        <time>2020-08-28T03:20:44.180Z</time>
      </trkpt>
      <trkpt lat="65.5843" lon="22.14327">
        <ele>1.665029</ele>
        <time>2020-08-28T03:20:45.590Z</time>
      </trkpt>
      <trkpt lat="65.58417" lon="22.14271">
        <ele>1.8301</ele>
        <time>2020-08-28T03:20:50.980Z</time>
      </trkpt>
      <trkpt lat="65.58399" lon="22.14106">
        <ele>2.269805</ele>
        <time>2020-08-28T03:21:05.871Z</time>
      </trkpt>
      <trkpt lat="65.58393" lon="22.14063">
        <ele>2.389159</ele>
        <time>2020-08-28T03:21:09.939Z</time>
      </trkpt>
      <trkpt lat="65.58385" lon="22.13988">
        <ele>2.599255</ele>
        <time>2020-08-28T03:21:16.703Z</time>
      </trkpt>
      <trkpt lat="65.58371" lon="22.13857">
        <ele>2.967755</ele>
        <time>2020-08-28T03:21:28.364Z</time>
      </trkpt>
      <trkpt lat="65.58367" lon="22.13859">
        <ele>2.992919</ele>
        <time>2020-08-28T03:21:29.151Z</time>
      </trkpt>
      <trkpt lat="65.58363" lon="22.13861">
        <ele>3.019771</ele>
        <time>2020-08-28T03:21:30.004Z</time>
      </trkpt>
      <trkpt lat="65.58304" lon="22.13897">
        <ele>3.41777</ele>
        <time>2020-08-28T03:21:42.355Z</time>
      </trkpt>
      <trkpt lat="65.5829" lon="22.13905">
        <ele>3.516739</ele>
        <time>2020-08-28T03:21:45.251Z</time>
      </trkpt>
      <trkpt lat="65.58214" lon="22.13956">
        <ele>4.180526</ele>
        <time>2020-08-28T03:22:01.329Z</time>
      </trkpt>
      <trkpt lat="65.58179" lon="22.13977">
        <ele>4.477938</ele>
        <time>2020-08-28T03:22:08.453Z</time>
      </trkpt>
      <trkpt lat="65.58136" lon="22.14006">
        <ele>4.856481</ele>
        <time>2020-08-28T03:22:18.206Z</time>
      </trkpt>
      <trkpt lat="65.5813" lon="22.13952">
        <ele>5.074747</ele>
        <time>2020-08-28T03:22:23.099Z</time>
      </trkpt>
      <trkpt lat="65.58119" lon="22.1385">
        <ele>5.727256</ele>
        <time>2020-08-28T03:22:33.023Z</time>
      </trkpt>
      <trkpt lat="65.5811" lon="22.13773">
        <ele>6.220103</ele>
        <time>2020-08-28T03:22:40.661Z</time>
      </trkpt>
      <trkpt lat="65.58106" lon="22.13743">
        <ele>6.410273</ele>
        <time>2020-08-28T03:22:43.793Z</time>
      </trkpt>
      <trkpt lat="65.58099" lon="22.13668">
        <ele>6.886523</ele>
        <time>2020-08-28T03:22:51.391Z</time>
      </trkpt>
      <trkpt lat="65.58098" lon="22.13662">
        <ele>6.926141</ele>
        <time>2020-08-28T03:22:52.054Z</time>
      </trkpt>
      <trkpt lat="65.5809" lon="22.13586">
        <ele>7.406815</ele>
        <time>2020-08-28T03:22:59.376Z</time>
      </trkpt>
      <trkpt lat="65.58083" lon="22.13516">
        <ele>7.725751</ele>
        <time>2020-08-28T03:23:05.897Z</time>
      </trkpt>
      <trkpt lat="65.58082" lon="22.1351">
        <ele>7.732433</ele>
        <time>2020-08-28T03:23:06.458Z</time>
      </trkpt>
      <trkpt lat="65.5808" lon="22.13488">
        <ele>7.758787</ele>
        <time>2020-08-28T03:23:08.544Z</time>
      </trkpt>
      <trkpt lat="65.58069" lon="22.13491">
        <ele>7.790004</ele>
        <time>2020-08-28T03:23:10.796Z</time>
      </trkpt>
      <trkpt lat="65.58041" lon="22.13491">
        <ele>7.867876</ele>
        <time>2020-08-28T03:23:16.703Z</time>
      </trkpt>
      <trkpt lat="65.58026" lon="22.1347">
        <ele>7.916424</ele>
        <time>2020-08-28T03:23:20.063Z</time>
      </trkpt>
      <trkpt lat="65.58017" lon="22.1345">
        <ele>7.952629</ele>
        <time>2020-08-28T03:23:22.702Z</time>
      </trkpt>
      <trkpt lat="65.58013" lon="22.13422">
        <ele>7.986063</ele>
        <time>2020-08-28T03:23:24.851Z</time>
      </trkpt>
      <trkpt lat="65.57983" lon="22.13161">
        <ele>7.989468</ele>
        <time>2020-08-28T03:23:44.435Z</time>
      </trkpt>
      <trkpt lat="65.5779" lon="22.11342">
        <ele>4.531792</ele>
        <time>2020-08-28T03:25:56.215Z</time>
      </trkpt>
      <trkpt lat="65.57785" lon="22.11295">
        <ele>4.674392</ele>
        <time>2020-08-28T03:26:00.974Z</time>
      </trkpt>
      <trkpt lat="65.57778" lon="22.11207">
        <ele>4.940925</ele>
        <time>2020-08-28T03:26:10.083Z</time>
      </trkpt>
      <trkpt lat="65.57782" lon="22.11189">
        <ele>5.004268</ele>
        <time>2020-08-28T03:26:12.055Z</time>
      </trkpt>
      <trkpt lat="65.57791" lon="22.11169">
        <ele>5.091884</ele>
        <time>2020-08-28T03:26:15.925Z</time>
      </trkpt>
      <trkpt lat="65.57795" lon="22.11202">
        <ele>5.24784</ele>
        <time>2020-08-28T03:26:19.324Z</time>
      </trkpt>
      <trkpt lat="65.57782" lon="22.11214">
        <ele>5.524543</ele>
        <time>2020-08-28T03:26:23.052Z</time>
      </trkpt>
      <trkpt lat="65.57762" lon="22.11233">
        <ele>5.962972</ele>
        <time>2020-08-28T03:26:28.890Z</time>
      </trkpt>
      <trkpt lat="65.57748" lon="22.11246">
        <ele>6.266713</ele>
        <time>2020-08-28T03:26:33.018Z</time>
      </trkpt>
      <trkpt lat="65.5774" lon="22.11233">
        <ele>6.463893</ele>
        <time>2020-08-28T03:26:35.879Z</time>
      </trkpt>
      <trkpt lat="65.57737" lon="22.11219">
        <ele>6.60448</ele>
        <time>2020-08-28T03:26:37.492Z</time>
      </trkpt>
      <trkpt lat="65.57735" lon="22.11193">
        <ele>6.822703</ele>
        <time>2020-08-28T03:26:40.339Z</time>
      </trkpt>
      <trkpt lat="65.57734" lon="22.11171">
        <ele>7.00965</ele>
        <time>2020-08-28T03:26:43.061Z</time>
      </trkpt>
      <trkpt lat="65.57737" lon="22.11095">
        <ele>7.654519</ele>
        <time>2020-08-28T03:26:50.476Z</time>
      </trkpt>
      <trkpt lat="65.57734" lon="22.1105">
        <ele>8.032424</ele>
        <time>2020-08-28T03:26:54.800Z</time>
      </trkpt>
      <trkpt lat="65.57729" lon="22.11018">
        <ele>8.325852</ele>
        <time>2020-08-28T03:26:58.240Z</time>
      </trkpt>
      <trkpt lat="65.57722" lon="22.10974">
        <ele>8.718304</ele>
        <time>2020-08-28T03:27:02.170Z</time>
      </trkpt>
      <trkpt lat="65.57708" lon="22.10845">
        <ele>9.413641</ele>
        <time>2020-08-28T03:27:15.831Z</time>
      </trkpt>
      <trkpt lat="65.57705" lon="22.108">
        <ele>9.640374</ele>
        <time>2020-08-28T03:27:19.735Z</time>
      </trkpt>
      <trkpt lat="65.57704" lon="22.10763">
        <ele>9.822564</ele>
        <time>2020-08-28T03:27:23.325Z</time>
      </trkpt>
      <trkpt lat="65.57703" lon="22.10721">
        <ele>10.029462</ele>
        <time>2020-08-28T03:27:26.599Z</time>
      </trkpt>
      <trkpt lat="65.577" lon="22.10571">
        <ele>10.763337</ele>
        <time>2020-08-28T03:27:39.913Z</time>
      </trkpt>
      <trkpt lat="65.57698" lon="22.10542">
        <ele>10.910774</ele>
        <time>2020-08-28T03:27:42.782Z</time>
      </trkpt>
      <trkpt lat="65.57694" lon="22.10479">
        <ele>11.366309</ele>
        <time>2020-08-28T03:27:48.773Z</time>
      </trkpt>
      <trkpt lat="65.5769" lon="22.10443">
        <ele>11.645649</ele>
        <time>2020-08-28T03:27:52.359Z</time>
      </trkpt>
      <trkpt lat="65.57687" lon="22.1041">
        <ele>11.905635</ele>
        <time>2020-08-28T03:27:55.745Z</time>
      </trkpt>
      <trkpt lat="65.57682" lon="22.10351">
        <ele>12.363571</ele>
        <time>2020-08-28T03:28:01.903Z</time>
      </trkpt>
      <trkpt lat="65.5768" lon="22.10292">
        <ele>12.808656</ele>
        <time>2020-08-28T03:28:08.085Z</time>
      </trkpt>
      <trkpt lat="65.57681" lon="22.1023">
        <ele>13.277764</ele>
        <time>2020-08-28T03:28:14.434Z</time>
      </trkpt>
      <trkpt lat="65.57684" lon="22.10166">
        <ele>13.764605</ele>
        <time>2020-08-28T03:28:21.306Z</time>
      </trkpt>
      <trkpt lat="65.57693" lon="22.09928">
        <ele>15.261623</ele>
        <time>2020-08-28T03:28:46.428Z</time>
      </trkpt>
      <trkpt lat="65.57694" lon="22.09822">
        <ele>15.867878</ele>
        <time>2020-08-28T03:28:56.402Z</time>
      </trkpt>
      <trkpt lat="65.57684" lon="22.09746">
        <ele>16.321402</ele>
        <time>2020-08-28T03:29:03.383Z</time>
      </trkpt>
      <trkpt lat="65.57696" lon="22.09655">
        <ele>16.786699</ele>
        <time>2020-08-28T03:29:11.494Z</time>
      </trkpt>
      <trkpt lat="65.57701" lon="22.09616">
        <ele>16.852222</ele>
        <time>2020-08-28T03:29:14.647Z</time>
      </trkpt>
      <trkpt lat="65.57692" lon="22.09599">
        <ele>16.896139</ele>
        <time>2020-08-28T03:29:17.154Z</time>
      </trkpt>
      <trkpt lat="65.57449" lon="22.09444">
        <ele>17.712978</ele>
        <time>2020-08-28T03:30:06.151Z</time>
      </trkpt>
      <trkpt lat="65.57442" lon="22.0945">
        <ele>17.731774</ele>
        <time>2020-08-28T03:30:07.696Z</time>
      </trkpt>
      <trkpt lat="65.57437" lon="22.09447">
        <ele>17.743631</ele>
        <time>2020-08-28T03:30:08.613Z</time>
      </trkpt>
      <trkpt lat="65.57432" lon="22.09445">
        <ele>17.75592</ele>
        <time>2020-08-28T03:30:09.633Z</time>
      </trkpt>
      <trkpt lat="65.57425" lon="22.09429">
        <ele>17.77852</ele>
        <time>2020-08-28T03:30:11.467Z</time>
      </trkpt>
      <trkpt lat="65.57317" lon="22.09358">
        <ele>17.94559</ele>
        <time>2020-08-28T03:30:32.774Z</time>
      </trkpt>
      <trkpt lat="65.57265" lon="22.09313">
        <ele>17.996191</ele>
        <time>2020-08-28T03:30:43.187Z</time>
      </trkpt>
      <trkpt lat="65.57258" lon="22.09305">
        <ele>18.002825</ele>
        <time>2020-08-28T03:30:44.564Z</time>
      </trkpt>
      <trkpt lat="65.5725" lon="22.09287">
        <ele>18.012596</ele>
        <time>2020-08-28T03:30:46.580Z</time>
      </trkpt>
      <trkpt lat="65.57221" lon="22.09197">
        <ele>18.071995</ele>
        <time>2020-08-28T03:30:55.535Z</time>
      </trkpt>
      <trkpt lat="65.57167" lon="22.09066">
        <ele>18.281072</ele>
        <time>2020-08-28T03:31:10.271Z</time>
      </trkpt>
      <trkpt lat="65.57147" lon="22.09031">
        <ele>18.348337</ele>
        <time>2020-08-28T03:31:15.069Z</time>
      </trkpt>
      <trkpt lat="65.57013" lon="22.08885">
        <ele>18.914913</ele>
        <time>2020-08-28T03:31:43.290Z</time>
      </trkpt>
      <trkpt lat="65.56852" lon="22.08703">
        <ele>19.627322</ele>
        <time>2020-08-28T03:32:18.043Z</time>
      </trkpt>
      <trkpt lat="65.56766" lon="22.08609">
        <ele>19.888801</ele>
        <time>2020-08-28T03:32:35.278Z</time>
      </trkpt>
      <trkpt lat="65.56761" lon="22.08635">
        <ele>19.920201</ele>
        <time>2020-08-28T03:32:37.300Z</time>
      </trkpt>
      <trkpt lat="65.56746" lon="22.08712">
        <ele>19.958687</ele>
        <time>2020-08-28T03:32:43.567Z</time>
      </trkpt>
      <trkpt lat="65.56703" lon="22.08901">
        <ele>20.055684</ele>
        <time>2020-08-28T03:32:59.632Z</time>
      </trkpt>
      <trkpt lat="65.56691" lon="22.08951">
        <ele>20.081746</ele>
        <time>2020-08-28T03:33:03.990Z</time>
      </trkpt>
      <trkpt lat="65.56592" lon="22.08897">
        <ele>20.304316</ele>
        <time>2020-08-28T03:33:23.678Z</time>
      </trkpt>
      <trkpt lat="65.56549" lon="22.08867">
        <ele>20.423557</ele>
        <time>2020-08-28T03:33:32.515Z</time>
      </trkpt>
      <trkpt lat="65.56483" lon="22.08826">
        <ele>20.592733</ele>
        <time>2020-08-28T03:33:46.039Z</time>
      </trkpt>
      <trkpt lat="65.56386" lon="22.08756">
        <ele>20.470853</ele>
        <time>2020-08-28T03:34:04.780Z</time>
      </trkpt>
      <trkpt lat="65.56354" lon="22.0874">
        <ele>20.431979</ele>
        <time>2020-08-28T03:34:10.462Z</time>
      </trkpt>
      <trkpt lat="65.56155" lon="22.08619">
        <ele>19.649883</ele>
        <time>2020-08-28T03:34:46.047Z</time>
      </trkpt>
      <trkpt lat="65.56029" lon="22.08536">
        <ele>19.436069</ele>
        <time>2020-08-28T03:35:09.311Z</time>
      </trkpt>
      <trkpt lat="65.55981" lon="22.08506">
        <ele>19.375687</ele>
        <time>2020-08-28T03:35:18.455Z</time>
      </trkpt>
      <trkpt lat="65.55969" lon="22.08497">
        <ele>19.359565</ele>
        <time>2020-08-28T03:35:20.918Z</time>
      </trkpt>
      <trkpt lat="65.55769" lon="22.08373">
        <ele>20.146909</ele>
        <time>2020-08-28T03:36:02.043Z</time>
      </trkpt>
      <trkpt lat="65.55481" lon="22.08195">
        <ele>21.460776</ele>
        <time>2020-08-28T03:37:02.297Z</time>
      </trkpt>
      <trkpt lat="65.55314" lon="22.08128">
        <ele>21.320631</ele>
        <time>2020-08-28T03:37:33.141Z</time>
      </trkpt>
      <trkpt lat="65.55224" lon="22.08084">
        <ele>20.988412</ele>
        <time>2020-08-28T03:37:48.818Z</time>
      </trkpt>
      <trkpt lat="65.55204" lon="22.08064">
        <ele>20.867542</ele>
        <time>2020-08-28T03:37:52.686Z</time>
      </trkpt>
      <trkpt lat="65.55123" lon="22.08011">
        <ele>20.417156</ele>
        <time>2020-08-28T03:38:06.912Z</time>
      </trkpt>
      <trkpt lat="65.55059" lon="22.07973">
        <ele>20.011101</ele>
        <time>2020-08-28T03:38:18.158Z</time>
      </trkpt>
      <trkpt lat="65.55045" lon="22.07957">
        <ele>19.900136</ele>
        <time>2020-08-28T03:38:20.888Z</time>
      </trkpt>
      <trkpt lat="65.55038" lon="22.07952">
        <ele>19.848704</ele>
        <time>2020-08-28T03:38:22.160Z</time>
      </trkpt>
      <trkpt lat="65.55031" lon="22.07943">
        <ele>19.799347</ele>
        <time>2020-08-28T03:38:23.351Z</time>
      </trkpt>
      <trkpt lat="65.55012" lon="22.07912">
        <ele>19.636259</ele>
        <time>2020-08-28T03:38:27.347Z</time>
      </trkpt>
      <trkpt lat="65.54892" lon="22.07833">
        <ele>18.673283</ele>
        <time>2020-08-28T03:38:48.020Z</time>
      </trkpt>
      <trkpt lat="65.54747" lon="22.07754">
        <ele>17.137634</ele>
        <time>2020-08-28T03:39:12.004Z</time>
      </trkpt>
      <trkpt lat="65.54668" lon="22.07702">
        <ele>16.01495</ele>
        <time>2020-08-28T03:39:24.734Z</time>
      </trkpt>
      <trkpt lat="65.54618" lon="22.07657">
        <ele>15.279947</ele>
        <time>2020-08-28T03:39:32.986Z</time>
      </trkpt>
      <trkpt lat="65.54503" lon="22.07589">
        <ele>13.842036</ele>
        <time>2020-08-28T03:39:51.426Z</time>
      </trkpt>
      <trkpt lat="65.54466" lon="22.07578">
        <ele>13.432484</ele>
        <time>2020-08-28T03:39:57.237Z</time>
      </trkpt>
      <trkpt lat="65.54096" lon="22.07343">
        <ele>10.286064</ele>
        <time>2020-08-28T03:41:00.768Z</time>
      </trkpt>
      <trkpt lat="65.54041" lon="22.07309">
        <ele>9.88367</ele>
        <time>2020-08-28T03:41:10.505Z</time>
      </trkpt>
      <trkpt lat="65.53902" lon="22.07216">
        <ele>8.958481</ele>
        <time>2020-08-28T03:41:34.924Z</time>
      </trkpt>
      <trkpt lat="65.53853" lon="22.07179">
        <ele>8.609272</ele>
        <time>2020-08-28T03:41:43.590Z</time>
      </trkpt>
      <trkpt lat="65.53668" lon="22.06997">
        <ele>7.323149</ele>
        <time>2020-08-28T03:42:17.033Z</time>
      </trkpt>
      <trkpt lat="65.53599" lon="22.06905">
        <ele>6.96134</ele>
        <time>2020-08-28T03:42:30.636Z</time>
      </trkpt>
      <trkpt lat="65.53517" lon="22.06777">
        <ele>6.740856</ele>
        <time>2020-08-28T03:42:48.118Z</time>
      </trkpt>
      <trkpt lat="65.53475" lon="22.06695">
        <ele>6.779168</ele>
        <time>2020-08-28T03:42:58.263Z</time>
      </trkpt>
      <trkpt lat="65.53412" lon="22.0656">
        <ele>6.844332</ele>
        <time>2020-08-28T03:43:14.599Z</time>
      </trkpt>
      <trkpt lat="65.53376" lon="22.06481">
        <ele>7.049264</ele>
        <time>2020-08-28T03:43:24.149Z</time>
      </trkpt>
      <trkpt lat="65.53338" lon="22.06359">
        <ele>7.319214</ele>
        <time>2020-08-28T03:43:36.947Z</time>
      </trkpt>
      <trkpt lat="65.53245" lon="22.06132">
        <ele>7.874278</ele>
        <time>2020-08-28T03:44:03.485Z</time>
      </trkpt>
      <trkpt lat="65.53078" lon="22.05758">
        <ele>8.631288</ele>
        <time>2020-08-28T03:44:48.833Z</time>
      </trkpt>
      <trkpt lat="65.53061" lon="22.05726">
        <ele>8.683936</ele>
        <time>2020-08-28T03:44:52.935Z</time>
      </trkpt>
      <trkpt lat="65.53021" lon="22.05649">
        <ele>8.775136</ele>
        <time>2020-08-28T03:45:02.461Z</time>
      </trkpt>
      <trkpt lat="65.53007" lon="22.0562">
        <ele>8.719903</ele>
        <time>2020-08-28T03:45:05.694Z</time>
      </trkpt>
      <trkpt lat="65.52961" lon="22.0552">
        <ele>8.53017</ele>
        <time>2020-08-28T03:45:16.448Z</time>
      </trkpt>
      <trkpt lat="65.52944" lon="22.05477">
        <ele>8.454052</ele>
        <time>2020-08-28T03:45:20.770Z</time>
      </trkpt>
      <trkpt lat="65.52932" lon="22.05451">
        <ele>8.403476</ele>
        <time>2020-08-28T03:45:23.582Z</time>
      </trkpt>
      <trkpt lat="65.52935" lon="22.05447">
        <ele>8.391305</ele>
        <time>2020-08-28T03:45:24.283Z</time>
      </trkpt>
      <trkpt lat="65.52877" lon="22.05296">
        <ele>8.363992</ele>
        <time>2020-08-28T03:45:38.510Z</time>
      </trkpt>
      <trkpt lat="65.52497" lon="22.04276">
        <ele>10.897477</ele>
        <time>2020-08-28T03:47:27.902Z</time>
      </trkpt>
      <trkpt lat="65.52468" lon="22.04162">
        <ele>11.459586</ele>
        <time>2020-08-28T03:47:41.045Z</time>
      </trkpt>
      <trkpt lat="65.52454" lon="22.04029">
        <ele>12.032179</ele>
        <time>2020-08-28T03:47:53.164Z</time>
      </trkpt>
      <trkpt lat="65.52437" lon="22.03877">
        <ele>12.209454</ele>
        <time>2020-08-28T03:48:06.600Z</time>
      </trkpt>
      <trkpt lat="65.52423" lon="22.0369">
        <ele>12.405713</ele>
        <time>2020-08-28T03:48:21.058Z</time>
      </trkpt>
      <trkpt lat="65.52384" lon="22.03173">
        <ele>11.548882</ele>
        <time>2020-08-28T03:48:56.288Z</time>
      </trkpt>
      <trkpt lat="65.52369" lon="22.03031">
        <ele>11.564375</ele>
        <time>2020-08-28T03:49:07.202Z</time>
      </trkpt>
      <trkpt lat="65.52354" lon="22.02884">
        <ele>11.580413</ele>
        <time>2020-08-28T03:49:18.807Z</time>
      </trkpt>
      <trkpt lat="65.52321" lon="22.02651">
        <ele>11.56234</ele>
        <time>2020-08-28T03:49:37.701Z</time>
      </trkpt>
      <trkpt lat="65.5229" lon="22.0245">
        <ele>11.499178</ele>
        <time>2020-08-28T03:49:53.280Z</time>
      </trkpt>
      <trkpt lat="65.5225" lon="22.02205">
        <ele>11.336008</ele>
        <time>2020-08-28T03:50:11.681Z</time>
      </trkpt>
      <trkpt lat="65.52191" lon="22.01945">
        <ele>11.115411</ele>
        <time>2020-08-28T03:50:32.907Z</time>
      </trkpt>
      <trkpt lat="65.52126" lon="22.01718">
        <ele>11.417533</ele>
        <time>2020-08-28T03:50:53.953Z</time>
      </trkpt>
      <trkpt lat="65.52038" lon="22.0153">
        <ele>11.831136</ele>
        <time>2020-08-28T03:51:17.195Z</time>
      </trkpt>
      <trkpt lat="65.52026" lon="22.01504">
        <ele>11.903754</ele>
        <time>2020-08-28T03:51:20.613Z</time>
      </trkpt>
      <trkpt lat="65.51958" lon="22.01397">
        <ele>12.257016</ele>
        <time>2020-08-28T03:51:36.027Z</time>
      </trkpt>
      <trkpt lat="65.51922" lon="22.01268">
        <ele>12.071981</ele>
        <time>2020-08-28T03:51:47.709Z</time>
      </trkpt>
      <trkpt lat="65.51905" lon="22.01186">
        <ele>11.79863</ele>
        <time>2020-08-28T03:51:54.004Z</time>
      </trkpt>
      <trkpt lat="65.51898" lon="22.01146">
        <ele>11.670062</ele>
        <time>2020-08-28T03:51:56.821Z</time>
      </trkpt>
      <trkpt lat="65.5189" lon="22.01089">
        <ele>11.489291</ele>
        <time>2020-08-28T03:52:00.742Z</time>
      </trkpt>
      <trkpt lat="65.51888" lon="22.00994">
        <ele>11.2075</ele>
        <time>2020-08-28T03:52:06.661Z</time>
      </trkpt>
      <trkpt lat="65.51887" lon="22.00954">
        <ele>11.08861</ele>
        <time>2020-08-28T03:52:09.123Z</time>
      </trkpt>
      <trkpt lat="65.51886" lon="22.00843">
        <ele>10.523209</ele>
        <time>2020-08-28T03:52:15.916Z</time>
      </trkpt>
      <trkpt lat="65.51886" lon="22.00816">
        <ele>10.38018</ele>
        <time>2020-08-28T03:52:17.557Z</time>
      </trkpt>
      <trkpt lat="65.51886" lon="22.00635">
        <ele>9.435872</ele>
        <time>2020-08-28T03:52:28.676Z</time>
      </trkpt>
      <trkpt lat="65.51908" lon="22.00408">
        <ele>8.770506</ele>
        <time>2020-08-28T03:52:43.768Z</time>
      </trkpt>
      <trkpt lat="65.51933" lon="22.00241">
        <ele>8.711885</ele>
        <time>2020-08-28T03:52:56.891Z</time>
      </trkpt>
      <trkpt lat="65.51984" lon="21.99893">
        <ele>9.169389</ele>
        <time>2020-08-28T03:53:27.197Z</time>
      </trkpt>
      <trkpt lat="65.52018" lon="21.99656">
        <ele>9.653624</ele>
        <time>2020-08-28T03:53:47.658Z</time>
      </trkpt>
      <trkpt lat="65.52082" lon="21.99364">
        <ele>9.791224</ele>
        <time>2020-08-28T03:54:12.543Z</time>
      </trkpt>
      <trkpt lat="65.52168" lon="21.99118">
        <ele>9.213898</ele>
        <time>2020-08-28T03:54:34.865Z</time>
      </trkpt>
      <trkpt lat="65.52179" lon="21.99086">
        <ele>9.118235</ele>
        <time>2020-08-28T03:54:37.580Z</time>
      </trkpt>
      <trkpt lat="65.52231" lon="21.98955">
        <ele>8.601714</ele>
        <time>2020-08-28T03:54:49.511Z</time>
      </trkpt>
      <trkpt lat="65.52285" lon="21.98781">
        <ele>7.676654</ele>
        <time>2020-08-28T03:55:03.385Z</time>
      </trkpt>
      <trkpt lat="65.52346" lon="21.98527">
        <ele>6.496735</ele>
        <time>2020-08-28T03:55:22.020Z</time>
      </trkpt>
      <trkpt lat="65.52399" lon="21.98275">
        <ele>5.445303</ele>
        <time>2020-08-28T03:55:40.384Z</time>
      </trkpt>
      <trkpt lat="65.52445" lon="21.98062">
        <ele>5.24031</ele>
        <time>2020-08-28T03:55:56.813Z</time>
      </trkpt>
      <trkpt lat="65.52484" lon="21.97873">
        <ele>5.129718</ele>
        <time>2020-08-28T03:56:13.048Z</time>
      </trkpt>
      <trkpt lat="65.52503" lon="21.97726">
        <ele>5.575094</ele>
        <time>2020-08-28T03:56:25.530Z</time>
      </trkpt>
      <trkpt lat="65.52509" lon="21.9768">
        <ele>5.722473</ele>
        <time>2020-08-28T03:56:29.641Z</time>
      </trkpt>
      <trkpt lat="65.52511" lon="21.9748">
        <ele>6.337888</ele>
        <time>2020-08-28T03:56:46.837Z</time>
      </trkpt>
      <trkpt lat="65.52462" lon="21.96565">
        <ele>9.818356</ele>
        <time>2020-08-28T03:58:07.082Z</time>
      </trkpt>
      <trkpt lat="65.52406" lon="21.95388">
        <ele>11.108637</ele>
        <time>2020-08-28T03:59:38.338Z</time>
      </trkpt>
      <trkpt lat="65.52405" lon="21.95283">
        <ele>11.185963</ele>
        <time>2020-08-28T03:59:46.129Z</time>
      </trkpt>
      <trkpt lat="65.52414" lon="21.95159">
        <ele>11.270044</ele>
        <time>2020-08-28T03:59:55.516Z</time>
      </trkpt>
      <trkpt lat="65.52427" lon="21.95048">
        <ele>11.34748</ele>
        <time>2020-08-28T04:00:04.195Z</time>
      </trkpt>
      <trkpt lat="65.52528" lon="21.94624">
        <ele>11.827947</ele>
        <time>2020-08-28T04:00:42.342Z</time>
      </trkpt>
      <trkpt lat="65.52573" lon="21.94439">
        <ele>11.961415</ele>
        <time>2020-08-28T04:00:58.881Z</time>
      </trkpt>
      <trkpt lat="65.52798" lon="21.93501">
        <ele>12.004043</ele>
        <time>2020-08-28T04:02:17.411Z</time>
      </trkpt>
      <trkpt lat="65.5283" lon="21.93367">
        <ele>12.225796</ele>
        <time>2020-08-28T04:02:30.841Z</time>
      </trkpt>
      <trkpt lat="65.52946" lon="21.92879">
        <ele>13.683949</ele>
        <time>2020-08-28T04:03:20.608Z</time>
      </trkpt>
      <trkpt lat="65.53146" lon="21.9204">
        <ele>10.954747</ele>
        <time>2020-08-28T04:04:23.569Z</time>
      </trkpt>
      <trkpt lat="65.53153" lon="21.92011">
        <ele>10.810617</ele>
        <time>2020-08-28T04:04:25.616Z</time>
      </trkpt>
      <trkpt lat="65.53217" lon="21.91741">
        <ele>9.385268</ele>
        <time>2020-08-28T04:04:45.007Z</time>
      </trkpt>
      <trkpt lat="65.53228" lon="21.91695">
        <ele>9.132582</ele>
        <time>2020-08-28T04:04:48.245Z</time>
      </trkpt>
      <trkpt lat="65.53265" lon="21.91538">
        <ele>8.261111</ele>
        <time>2020-08-28T04:04:59.738Z</time>
      </trkpt>
      <trkpt lat="65.53337" lon="21.91239">
        <ele>7.360833</ele>
        <time>2020-08-28T04:05:22.657Z</time>
      </trkpt>
      <trkpt lat="65.53357" lon="21.91155">
        <ele>7.142467</ele>
        <time>2020-08-28T04:05:29.584Z</time>
      </trkpt>
      <trkpt lat="65.53376" lon="21.91074">
        <ele>7.078717</ele>
        <time>2020-08-28T04:05:36.365Z</time>
      </trkpt>
      <trkpt lat="65.53406" lon="21.9095">
        <ele>7.153612</ele>
        <time>2020-08-28T04:05:47.005Z</time>
      </trkpt>
      <trkpt lat="65.53479" lon="21.9064">
        <ele>7.460765</ele>
        <time>2020-08-28T04:06:14.637Z</time>
      </trkpt>
      <trkpt lat="65.53498" lon="21.90558">
        <ele>7.604675</ele>
        <time>2020-08-28T04:06:22.109Z</time>
      </trkpt>
      <trkpt lat="65.53519" lon="21.90473">
        <ele>7.757366</ele>
        <time>2020-08-28T04:06:30.063Z</time>
      </trkpt>
      <trkpt lat="65.53538" lon="21.90393">
        <ele>7.898603</ele>
        <time>2020-08-28T04:06:37.431Z</time>
      </trkpt>
      <trkpt lat="65.53659" lon="21.89886">
        <ele>8.875342</ele>
        <time>2020-08-28T04:07:23.770Z</time>
      </trkpt>
      <trkpt lat="65.53708" lon="21.89685">
        <ele>9.234196</ele>
        <time>2020-08-28T04:07:42.134Z</time>
      </trkpt>
      <trkpt lat="65.53753" lon="21.89496">
        <ele>9.577952</ele>
        <time>2020-08-28T04:07:59.384Z</time>
      </trkpt>
      <trkpt lat="65.53819" lon="21.89248">
        <ele>10.047755</ele>
        <time>2020-08-28T04:08:22.640Z</time>
      </trkpt>
      <trkpt lat="65.5389" lon="21.89045">
        <ele>10.395718</ele>
        <time>2020-08-28T04:08:43.165Z</time>
      </trkpt>
      <trkpt lat="65.53974" lon="21.88848">
        <ele>10.939211</ele>
        <time>2020-08-28T04:09:05.646Z</time>
      </trkpt>
      <trkpt lat="65.53985" lon="21.88824">
        <ele>11.037648</ele>
        <time>2020-08-28T04:09:08.541Z</time>
      </trkpt>
      <trkpt lat="65.54354" lon="21.87991">
        <ele>14.346115</ele>
        <time>2020-08-28T04:10:50.490Z</time>
      </trkpt>
      <trkpt lat="65.54406" lon="21.87846">
        <ele>14.372523</ele>
        <time>2020-08-28T04:11:05.116Z</time>
      </trkpt>
      <trkpt lat="65.54464" lon="21.87627">
        <ele>14.151297</ele>
        <time>2020-08-28T04:11:23.216Z</time>
      </trkpt>
      <trkpt lat="65.54495" lon="21.87466">
        <ele>13.628301</ele>
        <time>2020-08-28T04:11:34.997Z</time>
      </trkpt>
      <trkpt lat="65.54549" lon="21.8708">
        <ele>12.047336</ele>
        <time>2020-08-28T04:12:01.310Z</time>
      </trkpt>
      <trkpt lat="65.54577" lon="21.86835">
        <ele>10.793507</ele>
        <time>2020-08-28T04:12:17.256Z</time>
      </trkpt>
      <trkpt lat="65.54635" lon="21.86336">
        <ele>7.657854</ele>
        <time>2020-08-28T04:12:48.612Z</time>
      </trkpt>
      <trkpt lat="65.54683" lon="21.85937">
        <ele>5.750548</ele>
        <time>2020-08-28T04:13:14.625Z</time>
      </trkpt>
      <trkpt lat="65.54702" lon="21.8578">
        <ele>5.368676</ele>
        <time>2020-08-28T04:13:25.631Z</time>
      </trkpt>
      <trkpt lat="65.54783" lon="21.85089">
        <ele>5.147028</ele>
        <time>2020-08-28T04:14:18.739Z</time>
      </trkpt>
      <trkpt lat="65.54803" lon="21.84975">
        <ele>5.271767</ele>
        <time>2020-08-28T04:14:28.415Z</time>
      </trkpt>
      <trkpt lat="65.54826" lon="21.84886">
        <ele>5.378855</ele>
        <time>2020-08-28T04:14:36.779Z</time>
      </trkpt>
      <trkpt lat="65.5491" lon="21.84698">
        <ele>5.859056</ele>
        <time>2020-08-28T04:14:58.618Z</time>
      </trkpt>
      <trkpt lat="65.54906" lon="21.8465">
        <ele>5.956718</ele>
        <time>2020-08-28T04:15:02.650Z</time>
      </trkpt>
      <trkpt lat="65.5488" lon="21.84583">
        <ele>6.143541</ele>
        <time>2020-08-28T04:15:10.415Z</time>
      </trkpt>
      <trkpt lat="65.54852" lon="21.8448">
        <ele>6.434789</ele>
        <time>2020-08-28T04:15:20.834Z</time>
      </trkpt>
      <trkpt lat="65.54868" lon="21.84422">
        <ele>6.675885</ele>
        <time>2020-08-28T04:15:26.763Z</time>
      </trkpt>
      <trkpt lat="65.54931" lon="21.84242">
        <ele>7.501192</ele>
        <time>2020-08-28T04:15:47.649Z</time>
      </trkpt>
      <trkpt lat="65.5499" lon="21.84102">
        <ele>8.198182</ele>
        <time>2020-08-28T04:16:05.906Z</time>
      </trkpt>
      <trkpt lat="65.55038" lon="21.83964">
        <ele>8.827988</ele>
        <time>2020-08-28T04:16:22.100Z</time>
      </trkpt>
      <trkpt lat="65.55082" lon="21.83813">
        <ele>9.405167</ele>
        <time>2020-08-28T04:16:37.921Z</time>
      </trkpt>
      <trkpt lat="65.55172" lon="21.83643">
        <ele>9.812557</ele>
        <time>2020-08-28T04:17:00.393Z</time>
      </trkpt>
      <trkpt lat="65.55213" lon="21.83539">
        <ele>10.022659</ele>
        <time>2020-08-28T04:17:11.902Z</time>
      </trkpt>
      <trkpt lat="65.55302" lon="21.83258">
        <ele>10.4543</ele>
        <time>2020-08-28T04:17:40.237Z</time>
      </trkpt>
      <trkpt lat="65.55331" lon="21.83187">
        <ele>10.637204</ele>
        <time>2020-08-28T04:17:48.383Z</time>
      </trkpt>
      <trkpt lat="65.55365" lon="21.83126">
        <ele>10.940722</ele>
        <time>2020-08-28T04:17:56.924Z</time>
      </trkpt>
      <trkpt lat="65.55413" lon="21.83024">
        <ele>11.401132</ele>
        <time>2020-08-28T04:18:10.120Z</time>
      </trkpt>
      <trkpt lat="65.5547" lon="21.82912">
        <ele>12.010014</ele>
        <time>2020-08-28T04:18:26.190Z</time>
      </trkpt>
      <trkpt lat="65.55523" lon="21.82757">
        <ele>13.037272</ele>
        <time>2020-08-28T04:18:45.070Z</time>
      </trkpt>
      <trkpt lat="65.55532" lon="21.82763">
        <ele>13.154526</ele>
        <time>2020-08-28T04:18:47.480Z</time>
      </trkpt>
      <trkpt lat="65.55596" lon="21.827">
        <ele>14.006647</ele>
        <time>2020-08-28T04:19:03.327Z</time>
      </trkpt>
      <trkpt lat="65.5561" lon="21.8271">
        <ele>14.097319</ele>
        <time>2020-08-28T04:19:06.632Z</time>
      </trkpt>
      <trkpt lat="65.55619" lon="21.82717">
        <ele>14.139874</ele>
        <time>2020-08-28T04:19:08.456Z</time>
      </trkpt>
      <trkpt lat="65.55633" lon="21.82731">
        <ele>14.213223</ele>
        <time>2020-08-28T04:19:12.011Z</time>
      </trkpt>
      <trkpt lat="65.55643" lon="21.82739">
        <ele>14.261305</ele>
        <time>2020-08-28T04:19:14.312Z</time>
      </trkpt>
      <trkpt lat="65.55674" lon="21.82651">
        <ele>14.480677</ele>
        <time>2020-08-28T04:19:23.981Z</time>
      </trkpt>
      <trkpt lat="65.55679" lon="21.82646">
        <ele>14.507677</ele>
        <time>2020-08-28T04:19:25.046Z</time>
      </trkpt>
      <trkpt lat="65.55684" lon="21.82646">
        <ele>14.529787</ele>
        <time>2020-08-28T04:19:26.050Z</time>
      </trkpt>
      <trkpt lat="65.5569" lon="21.82612">
        <ele>14.600592</ele>
        <time>2020-08-28T04:19:29.239Z</time>
      </trkpt>
      <trkpt lat="65.55673" lon="21.82596">
        <ele>14.684124</ele>
        <time>2020-08-28T04:19:32.501Z</time>
      </trkpt>
      <trkpt lat="65.55686" lon="21.82401">
        <ele>14.613722</ele>
        <time>2020-08-28T04:19:47.323Z</time>
      </trkpt>
      <trkpt lat="65.55708" lon="21.82133">
        <ele>13.875524</ele>
        <time>2020-08-28T04:20:06.025Z</time>
      </trkpt>
      <trkpt lat="65.5571" lon="21.82095">
        <ele>13.771215</ele>
        <time>2020-08-28T04:20:08.710Z</time>
      </trkpt>
      <trkpt lat="65.55707" lon="21.82004">
        <ele>13.511829</ele>
        <time>2020-08-28T04:20:14.984Z</time>
      </trkpt>
      <trkpt lat="65.55715" lon="21.81873">
        <ele>13.126655</ele>
        <time>2020-08-28T04:20:23.947Z</time>
      </trkpt>
      <trkpt lat="65.55729" lon="21.81688">
        <ele>12.579476</ele>
        <time>2020-08-28T04:20:37.069Z</time>
      </trkpt>
      <trkpt lat="65.55725" lon="21.81629">
        <ele>12.417171</ele>
        <time>2020-08-28T04:20:41.418Z</time>
      </trkpt>
      <trkpt lat="65.5572" lon="21.81589">
        <ele>12.340085</ele>
        <time>2020-08-28T04:20:44.428Z</time>
      </trkpt>
      <trkpt lat="65.55732" lon="21.81416">
        <ele>12.025033</ele>
        <time>2020-08-28T04:20:56.482Z</time>
      </trkpt>
      <trkpt lat="65.55743" lon="21.81286">
        <ele>11.784395</ele>
        <time>2020-08-28T04:21:05.672Z</time>
      </trkpt>
      <trkpt lat="65.55766" lon="21.81072">
        <ele>11.275727</ele>
        <time>2020-08-28T04:21:20.940Z</time>
      </trkpt>
      <trkpt lat="65.55792" lon="21.8086">
        <ele>10.711339</ele>
        <time>2020-08-28T04:21:35.556Z</time>
      </trkpt>
      <trkpt lat="65.55839" lon="21.80575">
        <ele>10.06295</ele>
        <time>2020-08-28T04:21:56.088Z</time>
      </trkpt>
      <trkpt lat="65.55899" lon="21.80273">
        <ele>9.619856</ele>
        <time>2020-08-28T04:22:19.643Z</time>
      </trkpt>
      <trkpt lat="65.5606" lon="21.79678">
        <ele>9.511662</ele>
        <time>2020-08-28T04:23:12.410Z</time>
      </trkpt>
      <trkpt lat="65.56185" lon="21.79252">
        <ele>9.517469</ele>
        <time>2020-08-28T04:23:51.090Z</time>
      </trkpt>
      <trkpt lat="65.56264" lon="21.78968">
        <ele>9.308854</ele>
        <time>2020-08-28T04:24:15.519Z</time>
      </trkpt>
      <trkpt lat="65.56107" lon="21.78486">
        <ele>8.710021</ele>
        <time>2020-08-28T04:24:59.701Z</time>
      </trkpt>
      <trkpt lat="65.56015" lon="21.78173">
        <ele>7.716718</ele>
        <time>2020-08-28T04:25:25.679Z</time>
      </trkpt>
      <trkpt lat="65.55932" lon="21.77892">
        <ele>6.145778</ele>
        <time>2020-08-28T04:25:47.093Z</time>
      </trkpt>
      <trkpt lat="65.55863" lon="21.77645">
        <ele>4.928082</ele>
        <time>2020-08-28T04:26:05.814Z</time>
      </trkpt>
      <trkpt lat="65.55816" lon="21.77479">
        <ele>4.426329</ele>
        <time>2020-08-28T04:26:19.560Z</time>
      </trkpt>
      <trkpt lat="65.55764" lon="21.77295">
        <ele>4.396188</ele>
        <time>2020-08-28T04:26:35.921Z</time>
      </trkpt>
      <trkpt lat="65.55729" lon="21.77169">
        <ele>4.403103</ele>
        <time>2020-08-28T04:26:47.646Z</time>
      </trkpt>
      <trkpt lat="65.55675" lon="21.76954">
        <ele>4.705311</ele>
        <time>2020-08-28T04:27:07.360Z</time>
      </trkpt>
      <trkpt lat="65.55637" lon="21.76809">
        <ele>4.911266</ele>
        <time>2020-08-28T04:27:20.747Z</time>
      </trkpt>
      <trkpt lat="65.55608" lon="21.76796">
        <ele>5.007119</ele>
        <time>2020-08-28T04:27:26.408Z</time>
      </trkpt>
      <trkpt lat="65.55363" lon="21.76738">
        <ele>5.767971</ele>
        <time>2020-08-28T04:28:12.684Z</time>
      </trkpt>
      <trkpt lat="65.55315" lon="21.76698">
        <ele>5.916563</ele>
        <time>2020-08-28T04:28:22.219Z</time>
      </trkpt>
      <trkpt lat="65.55203" lon="21.76547">
        <ele>6.294118</ele>
        <time>2020-08-28T04:28:46.388Z</time>
      </trkpt>
      <trkpt lat="65.55147" lon="21.76511">
        <ele>6.462023</ele>
        <time>2020-08-28T04:28:57.072Z</time>
      </trkpt>
      <trkpt lat="65.54809" lon="21.76538">
        <ele>7.211813</ele>
        <time>2020-08-28T04:29:59.795Z</time>
      </trkpt>
      <trkpt lat="65.5477" lon="21.76516">
        <ele>7.297199</ele>
        <time>2020-08-28T04:30:07.198Z</time>
      </trkpt>
      <trkpt lat="65.54578" lon="21.76235">
        <ele>7.686352</ele>
        <time>2020-08-28T04:30:48.802Z</time>
      </trkpt>
      <trkpt lat="65.54508" lon="21.76213">
        <ele>7.669339</ele>
        <time>2020-08-28T04:31:01.443Z</time>
      </trkpt>
      <trkpt lat="65.54455" lon="21.76218">
        <ele>7.656463</ele>
        <time>2020-08-28T04:31:10.755Z</time>
      </trkpt>
      <trkpt lat="65.54413" lon="21.76262">
        <ele>7.582928</ele>
        <time>2020-08-28T04:31:18.658Z</time>
      </trkpt>
      <trkpt lat="65.54279" lon="21.76564">
        <ele>7.283208</ele>
        <time>2020-08-28T04:31:49.951Z</time>
      </trkpt>
      <trkpt lat="65.53853" lon="21.77525">
        <ele>8.296463</ele>
        <time>2020-08-28T04:33:37.828Z</time>
      </trkpt>
      <trkpt lat="65.53269" lon="21.78835">
        <ele>9.881352</ele>
        <time>2020-08-28T04:36:05.190Z</time>
      </trkpt>
      <trkpt lat="65.53233" lon="21.78889">
        <ele>9.93577</ele>
        <time>2020-08-28T04:36:12.760Z</time>
      </trkpt>
      <trkpt lat="65.53204" lon="21.78895">
        <ele>9.947202</ele>
        <time>2020-08-28T04:36:18.017Z</time>
      </trkpt>
      <trkpt lat="65.53181" lon="21.78888">
        <ele>9.95654</ele>
        <time>2020-08-28T04:36:22.291Z</time>
      </trkpt>
      <trkpt lat="65.5318" lon="21.78838">
        <ele>9.964715</ele>
        <time>2020-08-28T04:36:26.031Z</time>
      </trkpt>
      <trkpt lat="65.53177" lon="21.7879">
        <ele>9.972548</ele>
        <time>2020-08-28T04:36:29.606Z</time>
      </trkpt>
      <trkpt lat="65.53161" lon="21.787">
        <ele>9.988451</ele>
        <time>2020-08-28T04:36:36.840Z</time>
      </trkpt>
      <trkpt lat="65.52867" lon="21.78014">
        <ele>10.000012</ele>
        <time>2020-08-28T04:37:49.791Z</time>
      </trkpt>
      <trkpt lat="65.52767" lon="21.77827">
        <ele>10.000012</ele>
        <time>2020-08-28T04:38:12.451Z</time>
      </trkpt>
      <trkpt lat="65.52688" lon="21.7766">
        <ele>10.000012</ele>
        <time>2020-08-28T04:38:31.148Z</time>
      </trkpt>
      <trkpt lat="65.52673" lon="21.77622">
        <ele>10.000012</ele>
        <time>2020-08-28T04:38:35.103Z</time>
      </trkpt>
      <trkpt lat="65.52637" lon="21.77532">
        <ele>10.000012</ele>
        <time>2020-08-28T04:38:44.337Z</time>
      </trkpt>
      <trkpt lat="65.5258" lon="21.77338">
        <ele>10.000012</ele>
        <time>2020-08-28T04:39:01.816Z</time>
      </trkpt>
      <trkpt lat="65.52565" lon="21.77262">
        <ele>10.000012</ele>
        <time>2020-08-28T04:39:08.105Z</time>
      </trkpt>
      <trkpt lat="65.52424" lon="21.76234">
        <ele>10.008391</ele>
        <time>2020-08-28T04:40:28.185Z</time>
      </trkpt>
      <trkpt lat="65.52143" lon="21.74096">
        <ele>10.459391</ele>
        <time>2020-08-28T04:43:15.240Z</time>
      </trkpt>
      <trkpt lat="65.51899" lon="21.70915">
        <ele>15.703532</ele>
        <time>2020-08-28T04:47:31.487Z</time>
      </trkpt>
      <trkpt lat="65.51873" lon="21.70621">
        <ele>16.452102</ele>
        <time>2020-08-28T04:47:56.293Z</time>
      </trkpt>
      <trkpt lat="65.51874" lon="21.7039">
        <ele>17.128961</ele>
        <time>2020-08-28T04:48:15.715Z</time>
      </trkpt>
      <trkpt lat="65.51902" lon="21.69734">
        <ele>19.119518</ele>
        <time>2020-08-28T04:49:11.632Z</time>
      </trkpt>
      <trkpt lat="65.51908" lon="21.69453">
        <ele>19.734684</ele>
        <time>2020-08-28T04:49:34.026Z</time>
      </trkpt>
      <trkpt lat="65.51926" lon="21.6923">
        <ele>19.880989</ele>
        <time>2020-08-28T04:49:51.308Z</time>
      </trkpt>
      <trkpt lat="65.51958" lon="21.69039">
        <ele>19.998918</ele>
        <time>2020-08-28T04:50:06.723Z</time>
      </trkpt>
      <trkpt lat="65.52001" lon="21.6884">
        <ele>19.999516</ele>
        <time>2020-08-28T04:50:23.331Z</time>
      </trkpt>
      <trkpt lat="65.52206" lon="21.67891">
        <ele>20.021109</ele>
        <time>2020-08-28T04:51:42.560Z</time>
      </trkpt>
      <trkpt lat="65.52209" lon="21.67878">
        <ele>20.02638</ele>
        <time>2020-08-28T04:51:43.664Z</time>
      </trkpt>
      <trkpt lat="65.52258" lon="21.6765">
        <ele>20.116746</ele>
        <time>2020-08-28T04:52:02.845Z</time>
      </trkpt>
      <trkpt lat="65.52591" lon="21.66122">
        <ele>20.901959</ele>
        <time>2020-08-28T04:54:13.293Z</time>
      </trkpt>
      <trkpt lat="65.52604" lon="21.66058">
        <ele>20.935989</ele>
        <time>2020-08-28T04:54:18.695Z</time>
      </trkpt>
      <trkpt lat="65.52644" lon="21.65873">
        <ele>20.982876</ele>
        <time>2020-08-28T04:54:34.199Z</time>
      </trkpt>
      <trkpt lat="65.52655" lon="21.65792">
        <ele>20.987549</ele>
        <time>2020-08-28T04:54:40.494Z</time>
      </trkpt>
      <trkpt lat="65.52682" lon="21.65596">
        <ele>20.998967</ele>
        <time>2020-08-28T04:54:55.831Z</time>
      </trkpt>
      <trkpt lat="65.52684" lon="21.65516">
        <ele>20.974622</ele>
        <time>2020-08-28T04:55:01.728Z</time>
      </trkpt>
      <trkpt lat="65.52685" lon="21.65448">
        <ele>20.945983</ele>
        <time>2020-08-28T04:55:06.791Z</time>
      </trkpt>
      <trkpt lat="65.52685" lon="21.65426">
        <ele>20.937109</ele>
        <time>2020-08-28T04:55:08.342Z</time>
      </trkpt>
      <trkpt lat="65.52687" lon="21.6535">
        <ele>20.90516</ele>
        <time>2020-08-28T04:55:13.916Z</time>
      </trkpt>
      <trkpt lat="65.52676" lon="21.65206">
        <ele>20.843823</ele>
        <time>2020-08-28T04:55:24.445Z</time>
      </trkpt>
      <trkpt lat="65.52668" lon="21.65107">
        <ele>20.779212</ele>
        <time>2020-08-28T04:55:31.564Z</time>
      </trkpt>
      <trkpt lat="65.52643" lon="21.64813">
        <ele>20.481283</ele>
        <time>2020-08-28T04:55:52.820Z</time>
      </trkpt>
      <trkpt lat="65.52639" lon="21.6476">
        <ele>20.428313</ele>
        <time>2020-08-28T04:55:56.604Z</time>
      </trkpt>
      <trkpt lat="65.52605" lon="21.64331">
        <ele>20.283757</ele>
        <time>2020-08-28T04:56:28.414Z</time>
      </trkpt>
      <trkpt lat="65.5256" lon="21.64091">
        <ele>20.474038</ele>
        <time>2020-08-28T04:56:48.752Z</time>
      </trkpt>
      <trkpt lat="65.52488" lon="21.63829">
        <ele>20.714293</ele>
        <time>2020-08-28T04:57:13.145Z</time>
      </trkpt>
      <trkpt lat="65.52408" lon="21.63645">
        <ele>20.857811</ele>
        <time>2020-08-28T04:57:33.373Z</time>
      </trkpt>
      <trkpt lat="65.52226" lon="21.63398">
        <ele>20.52011</ele>
        <time>2020-08-28T04:58:09.219Z</time>
      </trkpt>
      <trkpt lat="65.52063" lon="21.63127">
        <ele>20.069601</ele>
        <time>2020-08-28T04:58:43.547Z</time>
      </trkpt>
      <trkpt lat="65.51888" lon="21.62783">
        <ele>18.658392</ele>
        <time>2020-08-28T04:59:20.515Z</time>
      </trkpt>
      <trkpt lat="65.51798" lon="21.62578">
        <ele>17.573579</ele>
        <time>2020-08-28T04:59:39.144Z</time>
      </trkpt>
      <trkpt lat="65.5159" lon="21.61945">
        <ele>16.753011</ele>
        <time>2020-08-28T05:00:36.121Z</time>
      </trkpt>
      <trkpt lat="65.51548" lon="21.61781">
        <ele>17.363917</ele>
        <time>2020-08-28T05:00:52.958Z</time>
      </trkpt>
      <trkpt lat="65.51526" lon="21.61624">
        <ele>18.003371</ele>
        <time>2020-08-28T05:01:07.928Z</time>
      </trkpt>
      <trkpt lat="65.51485" lon="21.60531">
        <ele>21.949071</ele>
        <time>2020-08-28T05:02:43.157Z</time>
      </trkpt>
      <trkpt lat="65.51457" lon="21.60083">
        <ele>21.577823</ele>
        <time>2020-08-28T05:03:15.759Z</time>
      </trkpt>
      <trkpt lat="65.51422" lon="21.59854">
        <ele>20.555098</ele>
        <time>2020-08-28T05:03:31.144Z</time>
      </trkpt>
      <trkpt lat="65.51372" lon="21.59631">
        <ele>18.392977</ele>
        <time>2020-08-28T05:03:45.964Z</time>
      </trkpt>
      <trkpt lat="65.51303" lon="21.59329">
        <ele>15.159741</ele>
        <time>2020-08-28T05:04:05.193Z</time>
      </trkpt>
      <trkpt lat="65.51224" lon="21.58983">
        <ele>12.17204</ele>
        <time>2020-08-28T05:04:28.055Z</time>
      </trkpt>
      <trkpt lat="65.51095" lon="21.58421">
        <ele>12.353198</ele>
        <time>2020-08-28T05:05:17.077Z</time>
      </trkpt>
      <trkpt lat="65.5096" lon="21.58536">
        <ele>13.406209</ele>
        <time>2020-08-28T05:05:49.308Z</time>
      </trkpt>
      <trkpt lat="65.50925" lon="21.58568">
        <ele>13.714264</ele>
        <time>2020-08-28T05:05:57.539Z</time>
      </trkpt>
      <trkpt lat="65.50521" lon="21.59089">
        <ele>12.885467</ele>
        <time>2020-08-28T05:07:15.935Z</time>
      </trkpt>
      <trkpt lat="65.50412" lon="21.59206">
        <ele>11.549014</ele>
        <time>2020-08-28T05:07:33.714Z</time>
      </trkpt>
      <trkpt lat="65.5032" lon="21.59253">
        <ele>10.673445</ele>
        <time>2020-08-28T05:07:47.770Z</time>
      </trkpt>
      <trkpt lat="65.50262" lon="21.59278">
        <ele>10.165745</ele>
        <time>2020-08-28T05:07:56.960Z</time>
      </trkpt>
      <trkpt lat="65.50012" lon="21.59386">
        <ele>9.529236</ele>
        <time>2020-08-28T05:08:40.901Z</time>
      </trkpt>
      <trkpt lat="65.49855" lon="21.59447">
        <ele>10.200374</ele>
        <time>2020-08-28T05:09:11.602Z</time>
      </trkpt>
      <trkpt lat="65.49804" lon="21.59484">
        <ele>10.707558</ele>
        <time>2020-08-28T05:09:22.842Z</time>
      </trkpt>
      <trkpt lat="65.49767" lon="21.59538">
        <ele>11.114956</ele>
        <time>2020-08-28T05:09:32.092Z</time>
      </trkpt>
      <trkpt lat="65.49658" lon="21.59842">
        <ele>12.386215</ele>
        <time>2020-08-28T05:10:07.350Z</time>
      </trkpt>
      <trkpt lat="65.49585" lon="21.60014">
        <ele>12.917193</ele>
        <time>2020-08-28T05:10:26.671Z</time>
      </trkpt>
      <trkpt lat="65.49505" lon="21.6018">
        <ele>12.503491</ele>
        <time>2020-08-28T05:10:44.292Z</time>
      </trkpt>
      <trkpt lat="65.49385" lon="21.6038">
        <ele>11.699637</ele>
        <time>2020-08-28T05:11:07.846Z</time>
      </trkpt>
      <trkpt lat="65.49282" lon="21.60518">
        <ele>10.885879</ele>
        <time>2020-08-28T05:11:26.765Z</time>
      </trkpt>
      <trkpt lat="65.49213" lon="21.6059">
        <ele>10.312576</ele>
        <time>2020-08-28T05:11:38.750Z</time>
      </trkpt>
      <trkpt lat="65.49166" lon="21.60619">
        <ele>9.938614</ele>
        <time>2020-08-28T05:11:46.488Z</time>
      </trkpt>
      <trkpt lat="65.49023" lon="21.60632">
        <ele>8.774085</ele>
        <time>2020-08-28T05:12:08.905Z</time>
      </trkpt>
      <trkpt lat="65.48966" lon="21.60661">
        <ele>8.281646</ele>
        <time>2020-08-28T05:12:18.246Z</time>
      </trkpt>
      <trkpt lat="65.48933" lon="21.60693">
        <ele>8.088305</ele>
        <time>2020-08-28T05:12:23.774Z</time>
      </trkpt>
      <trkpt lat="65.48894" lon="21.60765">
        <ele>7.933641</ele>
        <time>2020-08-28T05:12:31.789Z</time>
      </trkpt>
      <trkpt lat="65.48862" lon="21.60872">
        <ele>7.762212</ele>
        <time>2020-08-28T05:12:41.068Z</time>
      </trkpt>
      <trkpt lat="65.48843" lon="21.60985">
        <ele>7.603869</ele>
        <time>2020-08-28T05:12:50.039Z</time>
      </trkpt>
      <trkpt lat="65.48838" lon="21.61026">
        <ele>7.623978</ele>
        <time>2020-08-28T05:12:53.280Z</time>
      </trkpt>
      <trkpt lat="65.48813" lon="21.61249">
        <ele>7.985462</ele>
        <time>2020-08-28T05:13:11.651Z</time>
      </trkpt>
      <trkpt lat="65.48792" lon="21.61353">
        <ele>8.164899</ele>
        <time>2020-08-28T05:13:20.998Z</time>
      </trkpt>
      <trkpt lat="65.48718" lon="21.61534">
        <ele>8.600542</ele>
        <time>2020-08-28T05:13:41.653Z</time>
      </trkpt>
      <trkpt lat="65.48698" lon="21.61673">
        <ele>8.857216</ele>
        <time>2020-08-28T05:13:53.204Z</time>
      </trkpt>
      <trkpt lat="65.48699" lon="21.61757">
        <ele>9.006396</ele>
        <time>2020-08-28T05:13:59.888Z</time>
      </trkpt>
      <trkpt lat="65.48749" lon="21.62161">
        <ele>9.560081</ele>
        <time>2020-08-28T05:14:32.810Z</time>
      </trkpt>
      <trkpt lat="65.4875" lon="21.62286">
        <ele>9.657872</ele>
        <time>2020-08-28T05:14:42.504Z</time>
      </trkpt>
      <trkpt lat="65.4874" lon="21.62432">
        <ele>9.758788</ele>
        <time>2020-08-28T05:14:53.820Z</time>
      </trkpt>
      <trkpt lat="65.48698" lon="21.62584">
        <ele>9.882867</ele>
        <time>2020-08-28T05:15:07.558Z</time>
      </trkpt>
      <trkpt lat="65.48673" lon="21.62645">
        <ele>9.932279</ele>
        <time>2020-08-28T05:15:13.883Z</time>
      </trkpt>
      <trkpt lat="65.48532" lon="21.62991">
        <ele>10.467515</ele>
        <time>2020-08-28T05:15:50.712Z</time>
      </trkpt>
      <trkpt lat="65.48344" lon="21.63553">
        <ele>12.548566</ele>
        <time>2020-08-28T05:16:52.149Z</time>
      </trkpt>
      <trkpt lat="65.48301" lon="21.63659">
        <ele>12.646445</ele>
        <time>2020-08-28T05:17:04.351Z</time>
      </trkpt>
      <trkpt lat="65.48226" lon="21.6381">
        <ele>12.780772</ele>
        <time>2020-08-28T05:17:21.664Z</time>
      </trkpt>
      <trkpt lat="65.4821" lon="21.63866">
        <ele>12.79114</ele>
        <time>2020-08-28T05:17:26.603Z</time>
      </trkpt>
      <trkpt lat="65.48205" lon="21.63882">
        <ele>12.760663</ele>
        <time>2020-08-28T05:17:27.754Z</time>
      </trkpt>
      <trkpt lat="65.48159" lon="21.64073">
        <ele>12.409996</ele>
        <time>2020-08-28T05:17:42.799Z</time>
      </trkpt>
      <trkpt lat="65.48119" lon="21.64172">
        <ele>12.192858</ele>
        <time>2020-08-28T05:17:51.803Z</time>
      </trkpt>
      <trkpt lat="65.47991" lon="21.64334">
        <ele>13.256612</ele>
        <time>2020-08-28T05:18:20.485Z</time>
      </trkpt>
      <trkpt lat="65.47923" lon="21.64448">
        <ele>14.308658</ele>
        <time>2020-08-28T05:18:40.173Z</time>
      </trkpt>
      <trkpt lat="65.47798" lon="21.6479">
        <ele>17.636324</ele>
        <time>2020-08-28T05:19:26.386Z</time>
      </trkpt>
      <trkpt lat="65.47732" lon="21.64884">
        <ele>18.459477</ele>
        <time>2020-08-28T05:19:42.678Z</time>
      </trkpt>
      <trkpt lat="65.47666" lon="21.64991">
        <ele>19.176525</ele>
        <time>2020-08-28T05:19:57.869Z</time>
      </trkpt>
      <trkpt lat="65.47628" lon="21.65071">
        <ele>19.307997</ele>
        <time>2020-08-28T05:20:07.062Z</time>
      </trkpt>
      <trkpt lat="65.47595" lon="21.65164">
        <ele>19.440768</ele>
        <time>2020-08-28T05:20:16.352Z</time>
      </trkpt>
      <trkpt lat="65.47541" lon="21.65354">
        <ele>19.720687</ele>
        <time>2020-08-28T05:20:34.328Z</time>
      </trkpt>
      <trkpt lat="65.47408" lon="21.65672">
        <ele>20.389814</ele>
        <time>2020-08-28T05:21:10.086Z</time>
      </trkpt>
      <trkpt lat="65.47373" lon="21.6574">
        <ele>20.559017</ele>
        <time>2020-08-28T05:21:18.605Z</time>
      </trkpt>
      <trkpt lat="65.47148" lon="21.66015">
        <ele>21.856313</ele>
        <time>2020-08-28T05:22:06.897Z</time>
      </trkpt>
      <trkpt lat="65.46974" lon="21.66308">
        <ele>24.359298</ele>
        <time>2020-08-28T05:22:53.653Z</time>
      </trkpt>
      <trkpt lat="65.46925" lon="21.66363">
        <ele>25.034277</ele>
        <time>2020-08-28T05:23:05.941Z</time>
      </trkpt>
      <trkpt lat="65.46834" lon="21.66356">
        <ele>26.17879</ele>
        <time>2020-08-28T05:23:26.056Z</time>
      </trkpt>
      <trkpt lat="65.4679" lon="21.66364">
        <ele>26.583357</ele>
        <time>2020-08-28T05:23:35.408Z</time>
      </trkpt>
      <trkpt lat="65.4666" lon="21.66468">
        <ele>27.28853</ele>
        <time>2020-08-28T05:24:02.204Z</time>
      </trkpt>
      <trkpt lat="65.46558" lon="21.66599">
        <ele>27.038262</ele>
        <time>2020-08-28T05:24:22.261Z</time>
      </trkpt>
      <trkpt lat="65.46407" lon="21.6695">
        <ele>25.50855</ele>
        <time>2020-08-28T05:24:55.443Z</time>
      </trkpt>
      <trkpt lat="65.46378" lon="21.67001">
        <ele>25.157905</ele>
        <time>2020-08-28T05:25:00.940Z</time>
      </trkpt>
      <trkpt lat="65.46346" lon="21.67034">
        <ele>24.826768</ele>
        <time>2020-08-28T05:25:06.137Z</time>
      </trkpt>
      <trkpt lat="65.46291" lon="21.67043">
        <ele>24.297016</ele>
        <time>2020-08-28T05:25:14.426Z</time>
      </trkpt>
      <trkpt lat="65.45937" lon="21.66962">
        <ele>21.900396</ele>
        <time>2020-08-28T05:26:10.944Z</time>
      </trkpt>
      <trkpt lat="65.45863" lon="21.66964">
        <ele>21.985324</ele>
        <time>2020-08-28T05:26:25.002Z</time>
      </trkpt>
      <trkpt lat="65.45717" lon="21.66994">
        <ele>22.793311</ele>
        <time>2020-08-28T05:26:55.740Z</time>
      </trkpt>
      <trkpt lat="65.45633" lon="21.67027">
        <ele>23.303579</ele>
        <time>2020-08-28T05:27:12.671Z</time>
      </trkpt>
      <trkpt lat="65.4556" lon="21.67073">
        <ele>23.098966</ele>
        <time>2020-08-28T05:27:25.882Z</time>
      </trkpt>
      <trkpt lat="65.45502" lon="21.6711">
        <ele>22.932015</ele>
        <time>2020-08-28T05:27:35.848Z</time>
      </trkpt>
      <trkpt lat="65.45227" lon="21.67289">
        <ele>20.974616</ele>
        <time>2020-08-28T05:28:20.164Z</time>
      </trkpt>
      <trkpt lat="65.45162" lon="21.67321">
        <ele>20.782208</ele>
        <time>2020-08-28T05:28:31.635Z</time>
      </trkpt>
      <trkpt lat="65.45137" lon="21.67331">
        <ele>20.70969</ele>
        <time>2020-08-28T05:28:36.527Z</time>
      </trkpt>
      <trkpt lat="65.45107" lon="21.67344">
        <ele>20.829398</ele>
        <time>2020-08-28T05:28:42.305Z</time>
      </trkpt>
      <trkpt lat="65.45078" lon="21.67358">
        <ele>21.228494</ele>
        <time>2020-08-28T05:28:48.408Z</time>
      </trkpt>
      <trkpt lat="65.45059" lon="21.67387">
        <ele>21.520908</ele>
        <time>2020-08-28T05:28:53.240Z</time>
      </trkpt>
      <trkpt lat="65.45056" lon="21.67391">
        <ele>21.57318</ele>
        <time>2020-08-28T05:28:54.052Z</time>
      </trkpt>
      <trkpt lat="65.45045" lon="21.67404">
        <ele>21.731634</ele>
        <time>2020-08-28T05:28:56.593Z</time>
      </trkpt>
      <trkpt lat="65.45038" lon="21.67412">
        <ele>21.838802</ele>
        <time>2020-08-28T05:28:58.659Z</time>
      </trkpt>
      <trkpt lat="65.44855" lon="21.67637">
        <ele>24.484877</ele>
        <time>2020-08-28T05:29:46.698Z</time>
      </trkpt>
      <trkpt lat="65.44744" lon="21.67764">
        <ele>24.982663</ele>
        <time>2020-08-28T05:30:10.620Z</time>
      </trkpt>
      <trkpt lat="65.44573" lon="21.67973">
        <ele>23.357098</ele>
        <time>2020-08-28T05:30:39.984Z</time>
      </trkpt>
      <trkpt lat="65.44386" lon="21.68203">
        <ele>20.716859</ele>
        <time>2020-08-28T05:31:11.066Z</time>
      </trkpt>
      <trkpt lat="65.44141" lon="21.68432">
        <ele>18.446579</ele>
        <time>2020-08-28T05:31:52.714Z</time>
      </trkpt>
      <trkpt lat="65.44062" lon="21.68528">
        <ele>17.942748</ele>
        <time>2020-08-28T05:32:07.213Z</time>
      </trkpt>
      <trkpt lat="65.43989" lon="21.68687">
        <ele>17.342678</ele>
        <time>2020-08-28T05:32:23.498Z</time>
      </trkpt>
      <trkpt lat="65.43951" lon="21.68787">
        <ele>16.788875</ele>
        <time>2020-08-28T05:32:32.625Z</time>
      </trkpt>
      <trkpt lat="65.43927" lon="21.68859">
        <ele>16.407734</ele>
        <time>2020-08-28T05:32:38.730Z</time>
      </trkpt>
      <trkpt lat="65.43867" lon="21.68998">
        <ele>15.499767</ele>
        <time>2020-08-28T05:32:51.320Z</time>
      </trkpt>
      <trkpt lat="65.43819" lon="21.69061">
        <ele>14.341154</ele>
        <time>2020-08-28T05:32:59.181Z</time>
      </trkpt>
      <trkpt lat="65.43793" lon="21.69081">
        <ele>13.774427</ele>
        <time>2020-08-28T05:33:02.814Z</time>
      </trkpt>
      <trkpt lat="65.43736" lon="21.69102">
        <ele>12.547051</ele>
        <time>2020-08-28T05:33:10.688Z</time>
      </trkpt>
      <trkpt lat="65.43682" lon="21.69093">
        <ele>11.418789</ele>
        <time>2020-08-28T05:33:18.098Z</time>
      </trkpt>
      <trkpt lat="65.43656" lon="21.69078">
        <ele>10.873773</ele>
        <time>2020-08-28T05:33:21.750Z</time>
      </trkpt>
      <trkpt lat="65.43626" lon="21.69056">
        <ele>10.240417</ele>
        <time>2020-08-28T05:33:26.081Z</time>
      </trkpt>
      <trkpt lat="65.43602" lon="21.69038">
        <ele>9.727318</ele>
        <time>2020-08-28T05:33:29.638Z</time>
      </trkpt>
      <trkpt lat="65.43528" lon="21.68993">
        <ele>8.18279</ele>
        <time>2020-08-28T05:33:40.535Z</time>
      </trkpt>
      <trkpt lat="65.43508" lon="21.68977">
        <ele>7.961324</ele>
        <time>2020-08-28T05:33:43.722Z</time>
      </trkpt>
      <trkpt lat="65.43492" lon="21.68968">
        <ele>7.79952</ele>
        <time>2020-08-28T05:33:46.120Z</time>
      </trkpt>
      <trkpt lat="65.43481" lon="21.69021">
        <ele>7.544495</ele>
        <time>2020-08-28T05:33:50.155Z</time>
      </trkpt>
      <trkpt lat="65.43468" lon="21.6902">
        <ele>7.413149</ele>
        <time>2020-08-28T05:33:52.197Z</time>
      </trkpt>
      <trkpt lat="65.43446" lon="21.6901">
        <ele>7.178746</ele>
        <time>2020-08-28T05:33:55.939Z</time>
      </trkpt>
      <trkpt lat="65.43393" lon="21.69002">
        <ele>6.630369</ele>
        <time>2020-08-28T05:34:04.678Z</time>
      </trkpt>
      <trkpt lat="65.43349" lon="21.68998">
        <ele>6.237659</ele>
        <time>2020-08-28T05:34:12.018Z</time>
      </trkpt>
      <trkpt lat="65.43322" lon="21.68973">
        <ele>6.055342</ele>
        <time>2020-08-28T05:34:16.841Z</time>
      </trkpt>
      <trkpt lat="65.43278" lon="21.68924">
        <ele>5.747732</ele>
        <time>2020-08-28T05:34:24.747Z</time>
      </trkpt>
      <trkpt lat="65.4324" lon="21.68894">
        <ele>5.498388</ele>
        <time>2020-08-28T05:34:31.177Z</time>
      </trkpt>
      <trkpt lat="65.43187" lon="21.68877">
        <ele>5.190693</ele>
        <time>2020-08-28T05:34:39.933Z</time>
      </trkpt>
      <trkpt lat="65.43151" lon="21.6889">
        <ele>5.13654</ele>
        <time>2020-08-28T05:34:45.997Z</time>
      </trkpt>
      <trkpt lat="65.43119" lon="21.68903">
        <ele>5.087211</ele>
        <time>2020-08-28T05:34:51.606Z</time>
      </trkpt>
      <trkpt lat="65.43041" lon="21.68925">
        <ele>4.970497</ele>
        <time>2020-08-28T05:35:05.358Z</time>
      </trkpt>
      <trkpt lat="65.42865" lon="21.68756">
        <ele>5.400449</ele>
        <time>2020-08-28T05:35:41.263Z</time>
      </trkpt>
      <trkpt lat="65.42831" lon="21.6869">
        <ele>5.444227</ele>
        <time>2020-08-28T05:35:49.307Z</time>
      </trkpt>
      <trkpt lat="65.42824" lon="21.68647">
        <ele>5.443498</ele>
        <time>2020-08-28T05:35:52.912Z</time>
      </trkpt>
      <trkpt lat="65.42792" lon="21.68642">
        <ele>5.442301</ele>
        <time>2020-08-28T05:35:58.857Z</time>
      </trkpt>
      <trkpt lat="65.4275" lon="21.68634">
        <ele>5.440711</ele>
        <time>2020-08-28T05:36:06.610Z</time>
      </trkpt>
      <trkpt lat="65.42752" lon="21.68785">
        <ele>5.428998</ele>
        <time>2020-08-28T05:36:17.940Z</time>
      </trkpt>
      <trkpt lat="65.4276" lon="21.68831">
        <ele>5.373262</ele>
        <time>2020-08-28T05:36:21.534Z</time>
      </trkpt>
      <trkpt lat="65.42803" lon="21.68824">
        <ele>5.257847</ele>
        <time>2020-08-28T05:36:28.970Z</time>
      </trkpt>
      <trkpt lat="65.42837" lon="21.68839">
        <ele>5.163866</ele>
        <time>2020-08-28T05:36:35.073Z</time>
      </trkpt>
      <trkpt lat="65.42882" lon="21.68896">
        <ele>5.024412</ele>
        <time>2020-08-28T05:36:44.248Z</time>
      </trkpt>
      <trkpt lat="65.4292" lon="21.68948">
        <ele>4.992971</ele>
        <time>2020-08-28T05:36:52.155Z</time>
      </trkpt>
      <trkpt lat="65.42882" lon="21.68896">
        <ele>5.098374</ele>
        <time>2020-08-28T05:37:00.397Z</time>
      </trkpt>
      <trkpt lat="65.42837" lon="21.68839">
        <ele>5.223698</ele>
        <time>2020-08-28T05:37:10.427Z</time>
      </trkpt>
      <trkpt lat="65.42803" lon="21.68824">
        <ele>5.308156</ele>
        <time>2020-08-28T05:37:17.292Z</time>
      </trkpt>
      <trkpt lat="65.4276" lon="21.68831">
        <ele>5.453799</ele>
        <time>2020-08-28T05:37:25.878Z</time>
      </trkpt>
      <trkpt lat="65.42752" lon="21.68785">
        <ele>5.596554</ele>
        <time>2020-08-28T05:37:30.119Z</time>
      </trkpt>
      <trkpt lat="65.4275" lon="21.68634">
        <ele>6.031657</ele>
        <time>2020-08-28T05:37:43.133Z</time>
      </trkpt>
      <trkpt lat="65.42792" lon="21.68642">
        <ele>6.323922</ele>
        <time>2020-08-28T05:37:51.974Z</time>
      </trkpt>
      <trkpt lat="65.42794" lon="21.68547">
        <ele>6.596086</ele>
        <time>2020-08-28T05:38:00.488Z</time>
      </trkpt>
      <trkpt lat="65.42815" lon="21.68526">
        <ele>6.807644</ele>
        <time>2020-08-28T05:38:05.519Z</time>
      </trkpt>
      <trkpt lat="65.4281" lon="21.68331">
        <ele>7.602876</ele>
        <time>2020-08-28T05:38:22.214Z</time>
      </trkpt>
      <trkpt lat="65.42808" lon="21.683">
        <ele>7.730741</ele>
        <time>2020-08-28T05:38:25.077Z</time>
      </trkpt>
      <trkpt lat="65.42801" lon="21.68173">
        <ele>8.25526</ele>
        <time>2020-08-28T05:38:36.475Z</time>
      </trkpt>
      <trkpt lat="65.4278" lon="21.68004">
        <ele>8.75143</ele>
        <time>2020-08-28T05:38:51.787Z</time>
      </trkpt>
      <trkpt lat="65.42767" lon="21.67927">
        <ele>8.957524</ele>
        <time>2020-08-28T05:38:58.771Z</time>
      </trkpt>
      <trkpt lat="65.42756" lon="21.67859">
        <ele>9.139904</ele>
        <time>2020-08-28T05:39:04.720Z</time>
      </trkpt>
      <trkpt lat="65.42744" lon="21.67786">
        <ele>9.334484</ele>
        <time>2020-08-28T05:39:10.855Z</time>
      </trkpt>
      <trkpt lat="65.42738" lon="21.6772">
        <ele>9.47305</ele>
        <time>2020-08-28T05:39:16.084Z</time>
      </trkpt>
      <trkpt lat="65.42722" lon="21.67531">
        <ele>9.421304</ele>
        <time>2020-08-28T05:39:30.498Z</time>
      </trkpt>
      <trkpt lat="65.42712" lon="21.67338">
        <ele>9.368978</ele>
        <time>2020-08-28T05:39:44.289Z</time>
      </trkpt>
      <trkpt lat="65.42713" lon="21.6717">
        <ele>9.535804</ele>
        <time>2020-08-28T05:39:56.520Z</time>
      </trkpt>
      <trkpt lat="65.42714" lon="21.67103">
        <ele>9.623416</ele>
        <time>2020-08-28T05:40:01.552Z</time>
      </trkpt>
      <trkpt lat="65.42734" lon="21.66813">
        <ele>10.199034</ele>
        <time>2020-08-28T05:40:25.665Z</time>
      </trkpt>
      <trkpt lat="65.42774" lon="21.66517">
        <ele>11.564297</ele>
        <time>2020-08-28T05:40:54.015Z</time>
      </trkpt>
      <trkpt lat="65.428" lon="21.6637">
        <ele>12.028981</ele>
        <time>2020-08-28T05:41:08.177Z</time>
      </trkpt>
      <trkpt lat="65.42814" lon="21.66295">
        <ele>12.196837</ele>
        <time>2020-08-28T05:41:15.094Z</time>
      </trkpt>
      <trkpt lat="65.42905" lon="21.65951">
        <ele>12.542408</ele>
        <time>2020-08-28T05:41:45.870Z</time>
      </trkpt>
      <trkpt lat="65.43073" lon="21.65385">
        <ele>11.440546</ele>
        <time>2020-08-28T05:42:33.694Z</time>
      </trkpt>
      <trkpt lat="65.43124" lon="21.65195">
        <ele>11.052231</ele>
        <time>2020-08-28T05:42:49.821Z</time>
      </trkpt>
      <trkpt lat="65.43141" lon="21.65063">
        <ele>10.818285</ele>
        <time>2020-08-28T05:42:59.419Z</time>
      </trkpt>
      <trkpt lat="65.43157" lon="21.6474">
        <ele>10.025734</ele>
        <time>2020-08-28T05:43:21.475Z</time>
      </trkpt>
      <trkpt lat="65.4316" lon="21.64384">
        <ele>9.247524</ele>
        <time>2020-08-28T05:43:45.179Z</time>
      </trkpt>
      <trkpt lat="65.43171" lon="21.64008">
        <ele>8.842978</ele>
        <time>2020-08-28T05:44:12.258Z</time>
      </trkpt>
      <trkpt lat="65.43174" lon="21.63884">
        <ele>8.879815</ele>
        <time>2020-08-28T05:44:21.688Z</time>
      </trkpt>
      <trkpt lat="65.4318" lon="21.63799">
        <ele>8.905083</ele>
        <time>2020-08-28T05:44:28.185Z</time>
      </trkpt>
      <trkpt lat="65.43196" lon="21.63708">
        <ele>8.934366</ele>
        <time>2020-08-28T05:44:35.748Z</time>
      </trkpt>
      <trkpt lat="65.43227" lon="21.63632">
        <ele>9.09892</ele>
        <time>2020-08-28T05:44:44.064Z</time>
      </trkpt>
      <trkpt lat="65.43301" lon="21.63559">
        <ele>9.417635</ele>
        <time>2020-08-28T05:44:59.470Z</time>
      </trkpt>
      <trkpt lat="65.4334" lon="21.6352">
        <ele>9.58564</ele>
        <time>2020-08-28T05:45:07.394Z</time>
      </trkpt>
      <trkpt lat="65.43379" lon="21.63483">
        <ele>9.942742</ele>
        <time>2020-08-28T05:45:15.405Z</time>
      </trkpt>
      <trkpt lat="65.43385" lon="21.63476">
        <ele>10.0223</ele>
        <time>2020-08-28T05:45:16.844Z</time>
      </trkpt>
      <trkpt lat="65.43392" lon="21.63468">
        <ele>10.116815</ele>
        <time>2020-08-28T05:45:18.512Z</time>
      </trkpt>
      <trkpt lat="65.43367" lon="21.63323">
        <ele>10.889844</ele>
        <time>2020-08-28T05:45:31.998Z</time>
      </trkpt>
      <trkpt lat="65.43344" lon="21.63188">
        <ele>11.606651</ele>
        <time>2020-08-28T05:45:45.291Z</time>
      </trkpt>
      <trkpt lat="65.43275" lon="21.62752">
        <ele>16.479101</ele>
        <time>2020-08-28T05:46:36.154Z</time>
      </trkpt>
      <trkpt lat="65.43257" lon="21.6262">
        <ele>18.606801</ele>
        <time>2020-08-28T05:46:53.415Z</time>
      </trkpt>
      <trkpt lat="65.43248" lon="21.62562">
        <ele>19.530836</ele>
        <time>2020-08-28T05:47:01.035Z</time>
      </trkpt>
      <trkpt lat="65.43206" lon="21.62218">
        <ele>24.94219</ele>
        <time>2020-08-28T05:47:45.930Z</time>
      </trkpt>
      <trkpt lat="65.43181" lon="21.6197">
        <ele>28.711742</ele>
        <time>2020-08-28T05:48:16.467Z</time>
      </trkpt>
      <trkpt lat="65.43162" lon="21.61763">
        <ele>31.733324</ele>
        <time>2020-08-28T05:48:42.090Z</time>
      </trkpt>
      <trkpt lat="65.43148" lon="21.61585">
        <ele>34.298048</ele>
        <time>2020-08-28T05:49:04.152Z</time>
      </trkpt>
      <trkpt lat="65.43137" lon="21.61419">
        <ele>36.215878</ele>
        <time>2020-08-28T05:49:24.124Z</time>
      </trkpt>
      <trkpt lat="65.43124" lon="21.61185">
        <ele>38.122178</ele>
        <time>2020-08-28T05:49:48.768Z</time>
      </trkpt>
      <trkpt lat="65.43117" lon="21.61003">
        <ele>38.790375</ele>
        <time>2020-08-28T05:50:04.552Z</time>
      </trkpt>
      <trkpt lat="65.43106" lon="21.60419">
        <ele>34.327947</ele>
        <time>2020-08-28T05:50:39.499Z</time>
      </trkpt>
      <trkpt lat="65.43103" lon="21.60243">
        <ele>32.147672</ele>
        <time>2020-08-28T05:50:48.782Z</time>
      </trkpt>
      <trkpt lat="65.431" lon="21.60025">
        <ele>28.601311</ele>
        <time>2020-08-28T05:50:59.980Z</time>
      </trkpt>
      <trkpt lat="65.43097" lon="21.59783">
        <ele>24.426735</ele>
        <time>2020-08-28T05:51:12.574Z</time>
      </trkpt>
      <trkpt lat="65.43084" lon="21.59462">
        <ele>20.197534</ele>
        <time>2020-08-28T05:51:30.040Z</time>
      </trkpt>
      <trkpt lat="65.43079" lon="21.59385">
        <ele>19.191349</ele>
        <time>2020-08-28T05:51:34.429Z</time>
      </trkpt>
      <trkpt lat="65.43075" lon="21.59319">
        <ele>18.437735</ele>
        <time>2020-08-28T05:51:38.239Z</time>
      </trkpt>
      <trkpt lat="65.43046" lon="21.58963">
        <ele>15.703424</ele>
        <time>2020-08-28T05:51:59.734Z</time>
      </trkpt>
      <trkpt lat="65.43001" lon="21.58595">
        <ele>14.045384</ele>
        <time>2020-08-28T05:52:24.691Z</time>
      </trkpt>
      <trkpt lat="65.42949" lon="21.58228">
        <ele>12.811022</ele>
        <time>2020-08-28T05:52:50.783Z</time>
      </trkpt>
      <trkpt lat="65.4285" lon="21.57654">
        <ele>10.548593</ele>
        <time>2020-08-28T05:53:31.468Z</time>
      </trkpt>
      <trkpt lat="65.4279" lon="21.57343">
        <ele>8.764265</ele>
        <time>2020-08-28T05:53:52.710Z</time>
      </trkpt>
      <trkpt lat="65.4276" lon="21.57191">
        <ele>8.176207</ele>
        <time>2020-08-28T05:54:03.399Z</time>
      </trkpt>
      <trkpt lat="65.42796" lon="21.57064">
        <ele>7.729871</ele>
        <time>2020-08-28T05:54:13.514Z</time>
      </trkpt>
      <trkpt lat="65.42973" lon="21.55202">
        <ele>6.784942</ele>
        <time>2020-08-28T05:56:34.088Z</time>
      </trkpt>
      <trkpt lat="65.42992" lon="21.55064">
        <ele>6.40313</ele>
        <time>2020-08-28T05:56:44.307Z</time>
      </trkpt>
      <trkpt lat="65.43019" lon="21.54925">
        <ele>6.00393</ele>
        <time>2020-08-28T05:56:54.473Z</time>
      </trkpt>
      <trkpt lat="65.4306" lon="21.54747">
        <ele>5.461463</ele>
        <time>2020-08-28T05:57:07.474Z</time>
      </trkpt>
      <trkpt lat="65.43074" lon="21.54555">
        <ele>4.931336</ele>
        <time>2020-08-28T05:57:20.189Z</time>
      </trkpt>
      <trkpt lat="65.43073" lon="21.54539">
        <ele>4.887722</ele>
        <time>2020-08-28T05:57:21.232Z</time>
      </trkpt>
      <trkpt lat="65.43069" lon="21.54382">
        <ele>4.668866</ele>
        <time>2020-08-28T05:57:32.335Z</time>
      </trkpt>
      <trkpt lat="65.43027" lon="21.54153">
        <ele>5.635418</ele>
        <time>2020-08-28T05:57:53.269Z</time>
      </trkpt>
      <trkpt lat="65.42937" lon="21.53771">
        <ele>8.025323</ele>
        <time>2020-08-28T05:58:36.191Z</time>
      </trkpt>
      <trkpt lat="65.42855" lon="21.53532">
        <ele>9.379368</ele>
        <time>2020-08-28T05:59:03.851Z</time>
      </trkpt>
      <trkpt lat="65.42784" lon="21.53358">
        <ele>10.047962</ele>
        <time>2020-08-28T05:59:23.070Z</time>
      </trkpt>
      <trkpt lat="65.42678" lon="21.53157">
        <ele>10.659777</ele>
        <time>2020-08-28T05:59:48.379Z</time>
      </trkpt>
      <trkpt lat="65.42658" lon="21.5312">
        <ele>10.773879</ele>
        <time>2020-08-28T05:59:53.517Z</time>
      </trkpt>
      <trkpt lat="65.42509" lon="21.52851">
        <ele>11.967442</ele>
        <time>2020-08-28T06:00:31.682Z</time>
      </trkpt>
      <trkpt lat="65.42426" lon="21.52729">
        <ele>11.724419</ele>
        <time>2020-08-28T06:00:49.392Z</time>
      </trkpt>
      <trkpt lat="65.42363" lon="21.52666">
        <ele>11.358647</ele>
        <time>2020-08-28T06:01:00.182Z</time>
      </trkpt>
      <trkpt lat="65.42324" lon="21.52649">
        <ele>11.128348</ele>
        <time>2020-08-28T06:01:06.086Z</time>
      </trkpt>
      <trkpt lat="65.42229" lon="21.52607">
        <ele>9.841665</ele>
        <time>2020-08-28T06:01:20.293Z</time>
      </trkpt>
      <trkpt lat="65.42148" lon="21.5257">
        <ele>8.743366</ele>
        <time>2020-08-28T06:01:32.529Z</time>
      </trkpt>
      <trkpt lat="65.41936" lon="21.52471">
        <ele>6.973047</ele>
        <time>2020-08-28T06:02:06.697Z</time>
      </trkpt>
      <trkpt lat="65.41852" lon="21.52382">
        <ele>6.55661</ele>
        <time>2020-08-28T06:02:21.790Z</time>
      </trkpt>
      <trkpt lat="65.41761" lon="21.52211">
        <ele>6.393919</ele>
        <time>2020-08-28T06:02:41.994Z</time>
      </trkpt>
      <trkpt lat="65.41744" lon="21.52176">
        <ele>6.416637</ele>
        <time>2020-08-28T06:02:46.013Z</time>
      </trkpt>
      <trkpt lat="65.41718" lon="21.52122">
        <ele>6.452046</ele>
        <time>2020-08-28T06:02:52.414Z</time>
      </trkpt>
      <trkpt lat="65.41736" lon="21.52078">
        <ele>6.478358</ele>
        <time>2020-08-28T06:02:57.446Z</time>
      </trkpt>
      <trkpt lat="65.41805" lon="21.51946">
        <ele>6.724649</ele>
        <time>2020-08-28T06:03:14.947Z</time>
      </trkpt>
      <trkpt lat="65.41836" lon="21.51875">
        <ele>6.885116</ele>
        <time>2020-08-28T06:03:23.451Z</time>
      </trkpt>
      <trkpt lat="65.42005" lon="21.51345">
        <ele>7.821209</ele>
        <time>2020-08-28T06:04:18.197Z</time>
      </trkpt>
      <trkpt lat="65.42185" lon="21.50995">
        <ele>8.062675</ele>
        <time>2020-08-28T06:05:02.119Z</time>
      </trkpt>
      <trkpt lat="65.42321" lon="21.50751">
        <ele>8.103065</ele>
        <time>2020-08-28T06:05:33.605Z</time>
      </trkpt>
      <trkpt lat="65.42365" lon="21.50672">
        <ele>8.105904</ele>
        <time>2020-08-28T06:05:43.674Z</time>
      </trkpt>
      <trkpt lat="65.42412" lon="21.50557">
        <ele>8.110404</ele>
        <time>2020-08-28T06:05:56.202Z</time>
      </trkpt>
      <trkpt lat="65.42445" lon="21.50425">
        <ele>8.236169</ele>
        <time>2020-08-28T06:06:08.304Z</time>
      </trkpt>
      <trkpt lat="65.42428" lon="21.50409">
        <ele>8.270912</ele>
        <time>2020-08-28T06:06:11.720Z</time>
      </trkpt>
      <trkpt lat="65.42378" lon="21.50341">
        <ele>8.384542</ele>
        <time>2020-08-28T06:06:23.009Z</time>
      </trkpt>
      <trkpt lat="65.42335" lon="21.50237">
        <ele>8.541663</ele>
        <time>2020-08-28T06:06:34.947Z</time>
      </trkpt>
      <trkpt lat="65.42328" lon="21.50218">
        <ele>8.583101</ele>
        <time>2020-08-28T06:06:37.156Z</time>
      </trkpt>
      <trkpt lat="65.42291" lon="21.50092">
        <ele>8.822507</ele>
        <time>2020-08-28T06:06:49.607Z</time>
      </trkpt>
      <trkpt lat="65.42275" lon="21.50022">
        <ele>8.946914</ele>
        <time>2020-08-28T06:06:56.119Z</time>
      </trkpt>
      <trkpt lat="65.4224" lon="21.4977">
        <ele>9.374899</ele>
        <time>2020-08-28T06:07:18.310Z</time>
      </trkpt>
      <trkpt lat="65.42228" lon="21.49681">
        <ele>9.528701</ele>
        <time>2020-08-28T06:07:25.809Z</time>
      </trkpt>
      <trkpt lat="65.42226" lon="21.49642">
        <ele>9.592878</ele>
        <time>2020-08-28T06:07:28.954Z</time>
      </trkpt>
      <trkpt lat="65.42224" lon="21.49553">
        <ele>9.739108</ele>
        <time>2020-08-28T06:07:36.042Z</time>
      </trkpt>
      <trkpt lat="65.4222" lon="21.49486">
        <ele>9.846567</ele>
        <time>2020-08-28T06:07:41.513Z</time>
      </trkpt>
      <trkpt lat="65.42217" lon="21.49458">
        <ele>9.78724</ele>
        <time>2020-08-28T06:07:43.779Z</time>
      </trkpt>
      <trkpt lat="65.42214" lon="21.49427">
        <ele>9.721488</ele>
        <time>2020-08-28T06:07:46.301Z</time>
      </trkpt>
      <trkpt lat="65.42206" lon="21.49367">
        <ele>9.592788</ele>
        <time>2020-08-28T06:07:51.073Z</time>
      </trkpt>
      <trkpt lat="65.42198" lon="21.49322">
        <ele>9.490641</ele>
        <time>2020-08-28T06:07:54.757Z</time>
      </trkpt>
      <trkpt lat="65.42138" lon="21.49154">
        <ele>9.033515</ele>
        <time>2020-08-28T06:08:09.761Z</time>
      </trkpt>
      <trkpt lat="65.42029" lon="21.48833">
        <ele>5.913231</ele>
        <time>2020-08-28T06:08:34.050Z</time>
      </trkpt>
      <trkpt lat="65.42022" lon="21.48813">
        <ele>5.697747</ele>
        <time>2020-08-28T06:08:35.518Z</time>
      </trkpt>
      <trkpt lat="65.41999" lon="21.4873">
        <ele>5.045015</ele>
        <time>2020-08-28T06:08:41.274Z</time>
      </trkpt>
      <trkpt lat="65.41984" lon="21.48678">
        <ele>4.673501</ele>
        <time>2020-08-28T06:08:45.002Z</time>
      </trkpt>
      <trkpt lat="65.41978" lon="21.48657">
        <ele>4.523394</ele>
        <time>2020-08-28T06:08:46.495Z</time>
      </trkpt>
      <trkpt lat="65.41965" lon="21.486">
        <ele>4.13887</ele>
        <time>2020-08-28T06:08:50.438Z</time>
      </trkpt>
      <trkpt lat="65.41947" lon="21.4851">
        <ele>3.549642</ele>
        <time>2020-08-28T06:08:56.603Z</time>
      </trkpt>
      <trkpt lat="65.41925" lon="21.48416">
        <ele>2.91505</ele>
        <time>2020-08-28T06:09:03.722Z</time>
      </trkpt>
      <trkpt lat="65.41851" lon="21.48174">
        <ele>3.133067</ele>
        <time>2020-08-28T06:09:26.403Z</time>
      </trkpt>
      <trkpt lat="65.41704" lon="21.47751">
        <ele>4.526382</ele>
        <time>2020-08-28T06:10:12.908Z</time>
      </trkpt>
      <trkpt lat="65.41683" lon="21.47695">
        <ele>4.756188</ele>
        <time>2020-08-28T06:10:19.352Z</time>
      </trkpt>
      <trkpt lat="65.41654" lon="21.47616">
        <ele>5.078359</ele>
        <time>2020-08-28T06:10:28.275Z</time>
      </trkpt>
      <trkpt lat="65.41648" lon="21.47598">
        <ele>5.151331</ele>
        <time>2020-08-28T06:10:30.407Z</time>
      </trkpt>
      <trkpt lat="65.4161" lon="21.47493">
        <ele>5.573042</ele>
        <time>2020-08-28T06:10:41.963Z</time>
      </trkpt>
      <trkpt lat="65.41584" lon="21.47399">
        <ele>5.907014</ele>
        <time>2020-08-28T06:10:51.424Z</time>
      </trkpt>
      <trkpt lat="65.41407" lon="21.46947">
        <ele>7.032005</ele>
        <time>2020-08-28T06:11:41.292Z</time>
      </trkpt>
      <trkpt lat="65.41341" lon="21.46796">
        <ele>7.344962</ele>
        <time>2020-08-28T06:11:58.275Z</time>
      </trkpt>
      <trkpt lat="65.40896" lon="21.46186">
        <ele>8.095249</ele>
        <time>2020-08-28T06:13:31.793Z</time>
      </trkpt>
      <trkpt lat="65.40852" lon="21.46157">
        <ele>8.196303</ele>
        <time>2020-08-28T06:13:40.286Z</time>
      </trkpt>
      <trkpt lat="65.40697" lon="21.46168">
        <ele>8.723799</ele>
        <time>2020-08-28T06:14:09.743Z</time>
      </trkpt>
      <trkpt lat="65.406" lon="21.46189">
        <ele>9.089862</ele>
        <time>2020-08-28T06:14:28.365Z</time>
      </trkpt>
      <trkpt lat="65.40526" lon="21.46199">
        <ele>9.374304</ele>
        <time>2020-08-28T06:14:42.594Z</time>
      </trkpt>
      <trkpt lat="65.40493" lon="21.46196">
        <ele>9.511585</ele>
        <time>2020-08-28T06:14:48.690Z</time>
      </trkpt>
      <trkpt lat="65.40474" lon="21.46189">
        <ele>9.609504</ele>
        <time>2020-08-28T06:14:52.352Z</time>
      </trkpt>
      <trkpt lat="65.40415" lon="21.46145">
        <ele>9.924467</ele>
        <time>2020-08-28T06:15:03.996Z</time>
      </trkpt>
      <trkpt lat="65.40364" lon="21.46091">
        <ele>10.209657</ele>
        <time>2020-08-28T06:15:15.079Z</time>
      </trkpt>
      <trkpt lat="65.40296" lon="21.46018">
        <ele>10.882429</ele>
        <time>2020-08-28T06:15:30.222Z</time>
      </trkpt>
      <trkpt lat="65.40275" lon="21.45988">
        <ele>11.173674</ele>
        <time>2020-08-28T06:15:35.302Z</time>
      </trkpt>
      <trkpt lat="65.40286" lon="21.45939">
        <ele>11.447027</ele>
        <time>2020-08-28T06:15:40.492Z</time>
      </trkpt>
      <trkpt lat="65.40225" lon="21.44408">
        <ele>20.068607</ele>
        <time>2020-08-28T06:18:09.827Z</time>
      </trkpt>
      <trkpt lat="65.40205" lon="21.44247">
        <ele>19.518299</ele>
        <time>2020-08-28T06:18:22.507Z</time>
      </trkpt>
      <trkpt lat="65.40171" lon="21.44093">
        <ele>18.948841</ele>
        <time>2020-08-28T06:18:33.969Z</time>
      </trkpt>
      <trkpt lat="65.4009" lon="21.43917">
        <ele>16.477847</ele>
        <time>2020-08-28T06:18:49.380Z</time>
      </trkpt>
      <trkpt lat="65.39992" lon="21.4375">
        <ele>13.414872</ele>
        <time>2020-08-28T06:19:06.095Z</time>
      </trkpt>
      <trkpt lat="65.39941" lon="21.43663">
        <ele>12.326924</ele>
        <time>2020-08-28T06:19:15.142Z</time>
      </trkpt>
      <trkpt lat="65.39868" lon="21.43524">
        <ele>10.711793</ele>
        <time>2020-08-28T06:19:29.796Z</time>
      </trkpt>
      <trkpt lat="65.39695" lon="21.4323">
        <ele>10.574339</ele>
        <time>2020-08-28T06:20:09.654Z</time>
      </trkpt>
      <trkpt lat="65.39484" lon="21.42852">
        <ele>10.96417</ele>
        <time>2020-08-28T06:21:00.780Z</time>
      </trkpt>
      <trkpt lat="65.3917" lon="21.42326">
        <ele>10.597424</ele>
        <time>2020-08-28T06:22:08.664Z</time>
      </trkpt>
      <trkpt lat="65.38927" lon="21.41893">
        <ele>14.245135</ele>
        <time>2020-08-28T06:23:15.269Z</time>
      </trkpt>
      <trkpt lat="65.38865" lon="21.41736">
        <ele>16.233116</ele>
        <time>2020-08-28T06:23:40.264Z</time>
      </trkpt>
      <trkpt lat="65.38838" lon="21.41616">
        <ele>18.313478</ele>
        <time>2020-08-28T06:23:57.783Z</time>
      </trkpt>
      <trkpt lat="65.38787" lon="21.41264">
        <ele>24.232286</ele>
        <time>2020-08-28T06:24:47.199Z</time>
      </trkpt>
      <trkpt lat="65.38757" lon="21.41006">
        <ele>27.912584</ele>
        <time>2020-08-28T06:25:20.391Z</time>
      </trkpt>
      <trkpt lat="65.38717" lon="21.40785">
        <ele>30.354201</ele>
        <time>2020-08-28T06:25:47.007Z</time>
      </trkpt>
      <trkpt lat="65.3868" lon="21.40696">
        <ele>31.255814</ele>
        <time>2020-08-28T06:25:59.661Z</time>
      </trkpt>
      <trkpt lat="65.3862" lon="21.406">
        <ele>32.508667</ele>
        <time>2020-08-28T06:26:16.117Z</time>
      </trkpt>
      <trkpt lat="65.38453" lon="21.4037">
        <ele>33.212658</ele>
        <time>2020-08-28T06:26:54.442Z</time>
      </trkpt>
      <trkpt lat="65.38073" lon="21.3987">
        <ele>30.754425</ele>
        <time>2020-08-28T06:28:07.839Z</time>
      </trkpt>
      <trkpt lat="65.37923" lon="21.39673">
        <ele>30.096996</ele>
        <time>2020-08-28T06:28:37.022Z</time>
      </trkpt>
      <trkpt lat="65.37679" lon="21.39342">
        <ele>30.212424</ele>
        <time>2020-08-28T06:29:30.442Z</time>
      </trkpt>
      <trkpt lat="65.37628" lon="21.39274">
        <ele>30.14574</ele>
        <time>2020-08-28T06:29:41.672Z</time>
      </trkpt>
      <trkpt lat="65.37604" lon="21.39242">
        <ele>30.111006</ele>
        <time>2020-08-28T06:29:46.964Z</time>
      </trkpt>
      <trkpt lat="65.37573" lon="21.39235">
        <ele>30.073361</ele>
        <time>2020-08-28T06:29:52.580Z</time>
      </trkpt>
      <trkpt lat="65.37555" lon="21.39203">
        <ele>30.04478</ele>
        <time>2020-08-28T06:29:56.618Z</time>
      </trkpt>
      <trkpt lat="65.37548" lon="21.39186">
        <ele>30.032205</ele>
        <time>2020-08-28T06:29:58.501Z</time>
      </trkpt>
      <trkpt lat="65.37535" lon="21.39154">
        <ele>30.0098</ele>
        <time>2020-08-28T06:30:01.493Z</time>
      </trkpt>
      <trkpt lat="65.37519" lon="21.39137">
        <ele>29.945036</ele>
        <time>2020-08-28T06:30:04.591Z</time>
      </trkpt>
      <trkpt lat="65.37514" lon="21.39134">
        <ele>29.854304</ele>
        <time>2020-08-28T06:30:05.526Z</time>
      </trkpt>
      <trkpt lat="65.37456" lon="21.39081">
        <ele>28.92671</ele>
        <time>2020-08-28T06:30:15.603Z</time>
      </trkpt>
      <trkpt lat="65.37424" lon="21.39075">
        <ele>28.435915</ele>
        <time>2020-08-28T06:30:20.611Z</time>
      </trkpt>
      <trkpt lat="65.37356" lon="21.39107">
        <ele>27.384816</ele>
        <time>2020-08-28T06:30:30.837Z</time>
      </trkpt>
      <trkpt lat="65.37305" lon="21.39158">
        <ele>26.059972</ele>
        <time>2020-08-28T06:30:38.744Z</time>
      </trkpt>
      <trkpt lat="65.3727" lon="21.39197">
        <ele>25.077012</ele>
        <time>2020-08-28T06:30:44.221Z</time>
      </trkpt>
      <trkpt lat="65.36903" lon="21.39635">
        <ele>14.781645</ele>
        <time>2020-08-28T06:31:42.452Z</time>
      </trkpt>
      <trkpt lat="65.3676" lon="21.39788">
        <ele>11.661489</ele>
        <time>2020-08-28T06:32:05.421Z</time>
      </trkpt>
      <trkpt lat="65.36701" lon="21.39788">
        <ele>10.589349</ele>
        <time>2020-08-28T06:32:14.573Z</time>
      </trkpt>
      <trkpt lat="65.3664" lon="21.39777">
        <ele>10.101103</ele>
        <time>2020-08-28T06:32:24.468Z</time>
      </trkpt>
      <trkpt lat="65.36551" lon="21.39796">
        <ele>9.515525</ele>
        <time>2020-08-28T06:32:39.882Z</time>
      </trkpt>
      <trkpt lat="65.36356" lon="21.39746">
        <ele>9.049594</ele>
        <time>2020-08-28T06:33:15.462Z</time>
      </trkpt>
      <trkpt lat="65.36272" lon="21.39692">
        <ele>9.012997</ele>
        <time>2020-08-28T06:33:31.460Z</time>
      </trkpt>
      <trkpt lat="65.36051" lon="21.39613">
        <ele>9.078211</ele>
        <time>2020-08-28T06:34:13.049Z</time>
      </trkpt>
      <trkpt lat="65.35946" lon="21.39532">
        <ele>9.205612</ele>
        <time>2020-08-28T06:34:34.056Z</time>
      </trkpt>
      <trkpt lat="65.35893" lon="21.39476">
        <ele>9.316342</ele>
        <time>2020-08-28T06:34:45.203Z</time>
      </trkpt>
      <trkpt lat="65.35853" lon="21.39407">
        <ele>9.410836</ele>
        <time>2020-08-28T06:34:54.786Z</time>
      </trkpt>
      <trkpt lat="65.35818" lon="21.39323">
        <ele>9.507196</ele>
        <time>2020-08-28T06:35:04.324Z</time>
      </trkpt>
      <trkpt lat="65.35774" lon="21.39161">
        <ele>9.673925</ele>
        <time>2020-08-28T06:35:19.985Z</time>
      </trkpt>
      <trkpt lat="65.35755" lon="21.39114">
        <ele>9.730862</ele>
        <time>2020-08-28T06:35:25.277Z</time>
      </trkpt>
      <trkpt lat="65.35732" lon="21.3908">
        <ele>9.786319</ele>
        <time>2020-08-28T06:35:30.410Z</time>
      </trkpt>
      <trkpt lat="65.35705" lon="21.3907">
        <ele>9.842842</ele>
        <time>2020-08-28T06:35:35.586Z</time>
      </trkpt>
      <trkpt lat="65.3566" lon="21.391">
        <ele>9.805692</ele>
        <time>2020-08-28T06:35:44.252Z</time>
      </trkpt>
      <trkpt lat="65.35634" lon="21.39137">
        <ele>9.780132</ele>
        <time>2020-08-28T06:35:49.939Z</time>
      </trkpt>
      <trkpt lat="65.35607" lon="21.39156">
        <ele>9.756672</ele>
        <time>2020-08-28T06:35:55.112Z</time>
      </trkpt>
      <trkpt lat="65.35554" lon="21.39158">
        <ele>9.712812</ele>
        <time>2020-08-28T06:36:04.665Z</time>
      </trkpt>
      <trkpt lat="65.35484" lon="21.39184">
        <ele>9.503414</ele>
        <time>2020-08-28T06:36:17.229Z</time>
      </trkpt>
      <trkpt lat="65.35421" lon="21.39175">
        <ele>9.255141</ele>
        <time>2020-08-28T06:36:28.343Z</time>
      </trkpt>
      <trkpt lat="65.35365" lon="21.39181">
        <ele>9.035757</ele>
        <time>2020-08-28T06:36:37.978Z</time>
      </trkpt>
      <trkpt lat="65.35345" lon="21.39191">
        <ele>8.952986</ele>
        <time>2020-08-28T06:36:41.438Z</time>
      </trkpt>
      <trkpt lat="65.35325" lon="21.39211">
        <ele>8.855273</ele>
        <time>2020-08-28T06:36:45.188Z</time>
      </trkpt>
      <trkpt lat="65.35279" lon="21.39222">
        <ele>8.650869</ele>
        <time>2020-08-28T06:36:53.121Z</time>
      </trkpt>
      <trkpt lat="65.35257" lon="21.39216">
        <ele>8.550753</ele>
        <time>2020-08-28T06:36:56.992Z</time>
      </trkpt>
      <trkpt lat="65.35231" lon="21.3921">
        <ele>8.436071</ele>
        <time>2020-08-28T06:37:01.479Z</time>
      </trkpt>
      <trkpt lat="65.352" lon="21.39212">
        <ele>8.297035</ele>
        <time>2020-08-28T06:37:06.954Z</time>
      </trkpt>
      <trkpt lat="65.35177" lon="21.39218">
        <ele>8.195617</ele>
        <time>2020-08-28T06:37:10.950Z</time>
      </trkpt>
      <trkpt lat="65.35157" lon="21.39224">
        <ele>8.129618</ele>
        <time>2020-08-28T06:37:14.414Z</time>
      </trkpt>
      <trkpt lat="65.35139" lon="21.39247">
        <ele>8.062863</ele>
        <time>2020-08-28T06:37:18.012Z</time>
      </trkpt>
      <trkpt lat="65.35104" lon="21.3933">
        <ele>7.900141</ele>
        <time>2020-08-28T06:37:26.765Z</time>
      </trkpt>
      <trkpt lat="65.35095" lon="21.3937">
        <ele>7.838808</ele>
        <time>2020-08-28T06:37:30.119Z</time>
      </trkpt>
      <trkpt lat="65.35084" lon="21.3942">
        <ele>7.762307</ele>
        <time>2020-08-28T06:37:34.308Z</time>
      </trkpt>
      <trkpt lat="65.35071" lon="21.39526">
        <ele>7.61061</ele>
        <time>2020-08-28T06:37:42.620Z</time>
      </trkpt>
      <trkpt lat="65.35052" lon="21.39612">
        <ele>7.458041</ele>
        <time>2020-08-28T06:37:49.738Z</time>
      </trkpt>
      <trkpt lat="65.35034" lon="21.39638">
        <ele>7.379333</ele>
        <time>2020-08-28T06:37:53.363Z</time>
      </trkpt>
      <trkpt lat="65.35008" lon="21.39658">
        <ele>7.275877</ele>
        <time>2020-08-28T06:37:58.108Z</time>
      </trkpt>
      <trkpt lat="65.34932" lon="21.39708">
        <ele>6.97497</ele>
        <time>2020-08-28T06:38:11.854Z</time>
      </trkpt>
      <trkpt lat="65.34928" lon="21.39693">
        <ele>6.944973</ele>
        <time>2020-08-28T06:38:13.174Z</time>
      </trkpt>
      <trkpt lat="65.34913" lon="21.39665">
        <ele>6.857477</ele>
        <time>2020-08-28T06:38:16.457Z</time>
      </trkpt>
      <trkpt lat="65.34814" lon="21.39551">
        <ele>6.290671</ele>
        <time>2020-08-28T06:38:35.336Z</time>
      </trkpt>
      <trkpt lat="65.34785" lon="21.39534">
        <ele>6.139178</ele>
        <time>2020-08-28T06:38:40.303Z</time>
      </trkpt>
      <trkpt lat="65.34735" lon="21.39534">
        <ele>5.891421</ele>
        <time>2020-08-28T06:38:49.100Z</time>
      </trkpt>
      <trkpt lat="65.34727" lon="21.39534">
        <ele>5.857524</ele>
        <time>2020-08-28T06:38:50.357Z</time>
      </trkpt>
      <trkpt lat="65.34673" lon="21.39525">
        <ele>5.614696</ele>
        <time>2020-08-28T06:38:59.813Z</time>
      </trkpt>
      <trkpt lat="65.34654" lon="21.3953">
        <ele>5.532125</ele>
        <time>2020-08-28T06:39:02.969Z</time>
      </trkpt>
      <trkpt lat="65.34652" lon="21.3953">
        <ele>5.521291</ele>
        <time>2020-08-28T06:39:03.389Z</time>
      </trkpt>
      <trkpt lat="65.34646" lon="21.39533">
        <ele>5.493309</ele>
        <time>2020-08-28T06:39:04.481Z</time>
      </trkpt>
      <trkpt lat="65.34618" lon="21.39543">
        <ele>5.367433</ele>
        <time>2020-08-28T06:39:09.421Z</time>
      </trkpt>
      <trkpt lat="65.34572" lon="21.39592">
        <ele>5.148147</ele>
        <time>2020-08-28T06:39:18.235Z</time>
      </trkpt>
      <trkpt lat="65.34547" lon="21.39645">
        <ele>5.015484</ele>
        <time>2020-08-28T06:39:24.045Z</time>
      </trkpt>
      <trkpt lat="65.34536" lon="21.39655">
        <ele>4.969593</ele>
        <time>2020-08-28T06:39:26.021Z</time>
      </trkpt>
      <trkpt lat="65.34493" lon="21.3965">
        <ele>4.794951</ele>
        <time>2020-08-28T06:39:33.654Z</time>
      </trkpt>
      <trkpt lat="65.34458" lon="21.39665">
        <ele>4.653819</ele>
        <time>2020-08-28T06:39:39.879Z</time>
      </trkpt>
      <trkpt lat="65.34445" lon="21.39678">
        <ele>4.59711</ele>
        <time>2020-08-28T06:39:42.423Z</time>
      </trkpt>
      <trkpt lat="65.34434" lon="21.39677">
        <ele>4.555192</ele>
        <time>2020-08-28T06:39:44.232Z</time>
      </trkpt>
      <trkpt lat="65.34357" lon="21.39672">
        <ele>4.214443</ele>
        <time>2020-08-28T06:39:57.728Z</time>
      </trkpt>
      <trkpt lat="65.3435" lon="21.39677">
        <ele>4.181419</ele>
        <time>2020-08-28T06:39:58.945Z</time>
      </trkpt>
      <trkpt lat="65.34336" lon="21.39674">
        <ele>4.118793</ele>
        <time>2020-08-28T06:40:01.374Z</time>
      </trkpt>
      <trkpt lat="65.34307" lon="21.39686">
        <ele>3.984996</ele>
        <time>2020-08-28T06:40:06.416Z</time>
      </trkpt>
      <trkpt lat="65.34302" lon="21.39686">
        <ele>3.960881</ele>
        <time>2020-08-28T06:40:07.345Z</time>
      </trkpt>
      <trkpt lat="65.34296" lon="21.39691">
        <ele>3.933694</ele>
        <time>2020-08-28T06:40:11.546Z</time>
      </trkpt>
      <trkpt lat="65.34296" lon="21.39689">
        <ele>3.928383</ele>
        <time>2020-08-28T06:40:11.739Z</time>
      </trkpt>
      <trkpt lat="65.34294" lon="21.39674">
        <ele>3.898514</ele>
        <time>2020-08-28T06:40:12.874Z</time>
      </trkpt>
      <trkpt lat="65.34282" lon="21.39674">
        <ele>3.841643</ele>
        <time>2020-08-28T06:40:15.003Z</time>
      </trkpt>
      <trkpt lat="65.34281" lon="21.39666">
        <ele>3.826685</ele>
        <time>2020-08-28T06:40:15.752Z</time>
      </trkpt>
      <trkpt lat="65.34254" lon="21.39663">
        <ele>3.706009</ele>
        <time>2020-08-28T06:40:20.366Z</time>
      </trkpt>
      <trkpt lat="65.34188" lon="21.39654">
        <ele>3.500211</ele>
        <time>2020-08-28T06:40:32.067Z</time>
      </trkpt>
      <trkpt lat="65.34122" lon="21.3966">
        <ele>3.320027</ele>
        <time>2020-08-28T06:40:43.744Z</time>
      </trkpt>
      <trkpt lat="65.34106" lon="21.39672">
        <ele>3.274259</ele>
        <time>2020-08-28T06:40:46.756Z</time>
      </trkpt>
      <trkpt lat="65.34096" lon="21.39687">
        <ele>3.243099</ele>
        <time>2020-08-28T06:40:48.783Z</time>
      </trkpt>
      <trkpt lat="65.34091" lon="21.3969">
        <ele>3.229245</ele>
        <time>2020-08-28T06:40:49.663Z</time>
      </trkpt>
      <trkpt lat="65.34088" lon="21.3969">
        <ele>3.221865</ele>
        <time>2020-08-28T06:40:50.145Z</time>
      </trkpt>
      <trkpt lat="65.34044" lon="21.39715">
        <ele>3.161332</ele>
        <time>2020-08-28T06:40:58.110Z</time>
      </trkpt>
      <trkpt lat="65.34004" lon="21.39772">
        <ele>3.169709</ele>
        <time>2020-08-28T06:41:06.245Z</time>
      </trkpt>
      <trkpt lat="65.33976" lon="21.39818">
        <ele>3.175921</ele>
        <time>2020-08-28T06:41:12.380Z</time>
      </trkpt>
      <trkpt lat="65.33964" lon="21.39839">
        <ele>3.178546</ele>
        <time>2020-08-28T06:41:14.978Z</time>
      </trkpt>
      <trkpt lat="65.33959" lon="21.39855">
        <ele>3.180045</ele>
        <time>2020-08-28T06:41:16.536Z</time>
      </trkpt>
      <trkpt lat="65.33956" lon="21.39854">
        <ele>3.180687</ele>
        <time>2020-08-28T06:41:17.203Z</time>
      </trkpt>
      <trkpt lat="65.33922" lon="21.39826">
        <ele>3.187117</ele>
        <time>2020-08-28T06:41:23.965Z</time>
      </trkpt>
      <trkpt lat="65.33891" lon="21.39811">
        <ele>3.266869</ele>
        <time>2020-08-28T06:41:30.076Z</time>
      </trkpt>
      <trkpt lat="65.33874" lon="21.39846">
        <ele>3.370607</ele>
        <time>2020-08-28T06:41:34.403Z</time>
      </trkpt>
      <trkpt lat="65.33782" lon="21.40058">
        <ele>3.968659</ele>
        <time>2020-08-28T06:42:00.166Z</time>
      </trkpt>
      <trkpt lat="65.33753" lon="21.40122">
        <ele>4.219622</ele>
        <time>2020-08-28T06:42:08.419Z</time>
      </trkpt>
      <trkpt lat="65.33723" lon="21.40195">
        <ele>4.535671</ele>
        <time>2020-08-28T06:42:17.495Z</time>
      </trkpt>
      <trkpt lat="65.33696" lon="21.40255">
        <ele>4.802045</ele>
        <time>2020-08-28T06:42:25.226Z</time>
      </trkpt>
      <trkpt lat="65.33685" lon="21.40284">
        <ele>4.924367</ele>
        <time>2020-08-28T06:42:28.806Z</time>
      </trkpt>
      <trkpt lat="65.33672" lon="21.40318">
        <ele>5.063018</ele>
        <time>2020-08-28T06:42:32.758Z</time>
      </trkpt>
      <trkpt lat="65.33628" lon="21.40465">
        <ele>5.590782</ele>
        <time>2020-08-28T06:42:48.388Z</time>
      </trkpt>
      <trkpt lat="65.33625" lon="21.40471">
        <ele>5.61568</ele>
        <time>2020-08-28T06:42:49.272Z</time>
      </trkpt>
      <trkpt lat="65.3362" lon="21.40461">
        <ele>5.661117</ele>
        <time>2020-08-28T06:42:50.665Z</time>
      </trkpt>
      <trkpt lat="65.33581" lon="21.40395">
        <ele>5.983194</ele>
        <time>2020-08-28T06:43:00.580Z</time>
      </trkpt>
      <trkpt lat="65.33546" lon="21.40379">
        <ele>6.221358</ele>
        <time>2020-08-28T06:43:07.964Z</time>
      </trkpt>
      <trkpt lat="65.33542" lon="21.40371">
        <ele>6.257417</ele>
        <time>2020-08-28T06:43:09.058Z</time>
      </trkpt>
      <trkpt lat="65.33534" lon="21.40345">
        <ele>6.345</ele>
        <time>2020-08-28T06:43:11.842Z</time>
      </trkpt>
      <trkpt lat="65.33526" lon="21.40329">
        <ele>6.414768</ele>
        <time>2020-08-28T06:43:13.964Z</time>
      </trkpt>
      <trkpt lat="65.3351" lon="21.403">
        <ele>6.552908</ele>
        <time>2020-08-28T06:43:18.122Z</time>
      </trkpt>
      <trkpt lat="65.33502" lon="21.40273">
        <ele>6.633675</ele>
        <time>2020-08-28T06:43:21.046Z</time>
      </trkpt>
      <trkpt lat="65.33477" lon="21.40305">
        <ele>6.799618</ele>
        <time>2020-08-28T06:43:26.764Z</time>
      </trkpt>
      <trkpt lat="65.33466" lon="21.40317">
        <ele>6.873851</ele>
        <time>2020-08-28T06:43:29.326Z</time>
      </trkpt>
      <trkpt lat="65.33457" lon="21.40326">
        <ele>6.932945</ele>
        <time>2020-08-28T06:43:31.358Z</time>
      </trkpt>
      <trkpt lat="65.33437" lon="21.40347">
        <ele>7.058969</ele>
        <time>2020-08-28T06:43:35.791Z</time>
      </trkpt>
      <trkpt lat="65.33351" lon="21.40412">
        <ele>7.595063</ele>
        <time>2020-08-28T06:43:54.330Z</time>
      </trkpt>
      <trkpt lat="65.33331" lon="21.40419">
        <ele>7.663342</ele>
        <time>2020-08-28T06:43:58.398Z</time>
      </trkpt>
      <trkpt lat="65.33318" lon="21.40424">
        <ele>7.700581</ele>
        <time>2020-08-28T06:44:00.942Z</time>
      </trkpt>
      <trkpt lat="65.33293" lon="21.40436">
        <ele>7.77672</ele>
        <time>2020-08-28T06:44:06.238Z</time>
      </trkpt>
      <trkpt lat="65.33264" lon="21.40449">
        <ele>7.861079</ele>
        <time>2020-08-28T06:44:11.925Z</time>
      </trkpt>
      <trkpt lat="65.33246" lon="21.40457">
        <ele>7.914986</ele>
        <time>2020-08-28T06:44:15.329Z</time>
      </trkpt>
      <trkpt lat="65.3324" lon="21.40461">
        <ele>7.932477</ele>
        <time>2020-08-28T06:44:16.507Z</time>
      </trkpt>
      <trkpt lat="65.3309" lon="21.40529">
        <ele>8.066062</ele>
        <time>2020-08-28T06:44:44.337Z</time>
      </trkpt>
      <trkpt lat="65.3308" lon="21.40534">
        <ele>8.057328</ele>
        <time>2020-08-28T06:44:46.111Z</time>
      </trkpt>
      <trkpt lat="65.3307" lon="21.4054">
        <ele>8.048321</ele>
        <time>2020-08-28T06:44:47.915Z</time>
      </trkpt>
      <trkpt lat="65.33037" lon="21.40564">
        <ele>8.018102</ele>
        <time>2020-08-28T06:44:53.969Z</time>
      </trkpt>
      <trkpt lat="65.32917" lon="21.40708">
        <ele>7.254431</ele>
        <time>2020-08-28T06:45:16.359Z</time>
      </trkpt>
      <trkpt lat="65.32901" lon="21.40733">
        <ele>7.104602</ele>
        <time>2020-08-28T06:45:19.167Z</time>
      </trkpt>
      <trkpt lat="65.32885" lon="21.40763">
        <ele>6.942102</ele>
        <time>2020-08-28T06:45:22.501Z</time>
      </trkpt>
      <trkpt lat="65.32876" lon="21.40774">
        <ele>6.863421</ele>
        <time>2020-08-28T06:45:23.889Z</time>
      </trkpt>
      <trkpt lat="65.32844" lon="21.40817">
        <ele>6.567445</ele>
        <time>2020-08-28T06:45:29.502Z</time>
      </trkpt>
      <trkpt lat="65.32791" lon="21.40868">
        <ele>5.811846</ele>
        <time>2020-08-28T06:45:38.097Z</time>
      </trkpt>
      <trkpt lat="65.32776" lon="21.40878">
        <ele>5.600794</ele>
        <time>2020-08-28T06:45:40.287Z</time>
      </trkpt>
      <trkpt lat="65.32769" lon="21.40882">
        <ele>5.505823</ele>
        <time>2020-08-28T06:45:41.303Z</time>
      </trkpt>
      <trkpt lat="65.32751" lon="21.40894">
        <ele>5.255595</ele>
        <time>2020-08-28T06:45:44.175Z</time>
      </trkpt>
      <trkpt lat="65.32742" lon="21.40899">
        <ele>5.126438</ele>
        <time>2020-08-28T06:45:45.502Z</time>
      </trkpt>
      <trkpt lat="65.32731" lon="21.4089">
        <ele>4.970673</ele>
        <time>2020-08-28T06:45:47.229Z</time>
      </trkpt>
      <trkpt lat="65.32636" lon="21.40935">
        <ele>3.913896</ele>
        <time>2020-08-28T06:46:01.763Z</time>
      </trkpt>
      <trkpt lat="65.32633" lon="21.40936">
        <ele>3.894477</ele>
        <time>2020-08-28T06:46:02.212Z</time>
      </trkpt>
      <trkpt lat="65.325" lon="21.40995">
        <ele>3.030686</ele>
        <time>2020-08-28T06:46:24.568Z</time>
      </trkpt>
      <trkpt lat="65.32497" lon="21.40996">
        <ele>3.012888</ele>
        <time>2020-08-28T06:46:25.030Z</time>
      </trkpt>
      <trkpt lat="65.32473" lon="21.40997">
        <ele>2.95487</ele>
        <time>2020-08-28T06:46:29.186Z</time>
      </trkpt>
      <trkpt lat="65.32367" lon="21.41038">
        <ele>2.784907</ele>
        <time>2020-08-28T06:46:48.064Z</time>
      </trkpt>
      <trkpt lat="65.32328" lon="21.41048">
        <ele>2.72234</ele>
        <time>2020-08-28T06:46:54.963Z</time>
      </trkpt>
      <trkpt lat="65.3231" lon="21.41067">
        <ele>2.687977</ele>
        <time>2020-08-28T06:46:58.375Z</time>
      </trkpt>
      <trkpt lat="65.32254" lon="21.41117">
        <ele>2.556992</ele>
        <time>2020-08-28T06:47:08.834Z</time>
      </trkpt>
      <trkpt lat="65.32147" lon="21.41173">
        <ele>2.320764</ele>
        <time>2020-08-28T06:47:27.408Z</time>
      </trkpt>
      <trkpt lat="65.32041" lon="21.41243">
        <ele>2.191472</ele>
        <time>2020-08-28T06:47:46.474Z</time>
      </trkpt>
      <trkpt lat="65.32003" lon="21.41272">
        <ele>2.147459</ele>
        <time>2020-08-28T06:47:53.356Z</time>
      </trkpt>
      <trkpt lat="65.31917" lon="21.41369">
        <ele>2.19506</ele>
        <time>2020-08-28T06:48:10.429Z</time>
      </trkpt>
      <trkpt lat="65.31885" lon="21.41417">
        <ele>2.249622</ele>
        <time>2020-08-28T06:48:17.320Z</time>
      </trkpt>
      <trkpt lat="65.31864" lon="21.41452">
        <ele>2.287119</ele>
        <time>2020-08-28T06:48:22.092Z</time>
      </trkpt>
      <trkpt lat="65.31839" lon="21.41488">
        <ele>2.33029</ele>
        <time>2020-08-28T06:48:27.591Z</time>
      </trkpt>
      <trkpt lat="65.31819" lon="21.41519">
        <ele>2.364648</ele>
        <time>2020-08-28T06:48:31.931Z</time>
      </trkpt>
      <trkpt lat="65.3181" lon="21.41535">
        <ele>2.385282</ele>
        <time>2020-08-28T06:48:34.010Z</time>
      </trkpt>
      <trkpt lat="65.31784" lon="21.41592">
        <ele>2.45921</ele>
        <time>2020-08-28T06:48:40.652Z</time>
      </trkpt>
      <trkpt lat="65.31699" lon="21.4173">
        <ele>2.673298</ele>
        <time>2020-08-28T06:48:59.885Z</time>
      </trkpt>
      <trkpt lat="65.31681" lon="21.41746">
        <ele>2.713049</ele>
        <time>2020-08-28T06:49:03.397Z</time>
      </trkpt>
      <trkpt lat="65.31669" lon="21.41768">
        <ele>2.744394</ele>
        <time>2020-08-28T06:49:06.284Z</time>
      </trkpt>
      <trkpt lat="65.31624" lon="21.41838">
        <ele>2.620602</ele>
        <time>2020-08-28T06:49:16.226Z</time>
      </trkpt>
      <trkpt lat="65.31617" lon="21.41848">
        <ele>2.601215</ele>
        <time>2020-08-28T06:49:17.787Z</time>
      </trkpt>
      <trkpt lat="65.31603" lon="21.41869">
        <ele>2.56264</ele>
        <time>2020-08-28T06:49:20.783Z</time>
      </trkpt>
      <trkpt lat="65.31592" lon="21.41893">
        <ele>2.527898</ele>
        <time>2020-08-28T06:49:23.472Z</time>
      </trkpt>
      <trkpt lat="65.31587" lon="21.4191">
        <ele>2.508547</ele>
        <time>2020-08-28T06:49:25.018Z</time>
      </trkpt>
      <trkpt lat="65.31576" lon="21.41912">
        <ele>2.482578</ele>
        <time>2020-08-28T06:49:28.203Z</time>
      </trkpt>
      <trkpt lat="65.31549" lon="21.41927">
        <ele>2.418938</ele>
        <time>2020-08-28T06:49:36.111Z</time>
      </trkpt>
      <trkpt lat="65.31504" lon="21.41959">
        <ele>2.277276</ele>
        <time>2020-08-28T06:49:49.494Z</time>
      </trkpt>
      <trkpt lat="65.31402" lon="21.42063">
        <ele>1.619855</ele>
        <time>2020-08-28T06:50:20.277Z</time>
      </trkpt>
      <trkpt lat="65.31368" lon="21.42012">
        <ele>1.376774</ele>
        <time>2020-08-28T06:50:26.877Z</time>
      </trkpt>
      <trkpt lat="65.31314" lon="21.41914">
        <ele>1.082936</ele>
        <time>2020-08-28T06:50:38.029Z</time>
      </trkpt>
      <trkpt lat="65.31293" lon="21.41842">
        <ele>0.949635</ele>
        <time>2020-08-28T06:50:44.130Z</time>
      </trkpt>
      <trkpt lat="65.31272" lon="21.41738">
        <ele>0.773411</ele>
        <time>2020-08-28T06:50:52.365Z</time>
      </trkpt>
      <trkpt lat="65.31262" lon="21.41638">
        <ele>0.616592</ele>
        <time>2020-08-28T06:50:59.710Z</time>
      </trkpt>
      <trkpt lat="65.31248" lon="21.41574">
        <ele>0.548069</ele>
        <time>2020-08-28T06:51:04.879Z</time>
      </trkpt>
      <trkpt lat="65.31237" lon="21.41546">
        <ele>0.515874</ele>
        <time>2020-08-28T06:51:07.581Z</time>
      </trkpt>
      <trkpt lat="65.31085" lon="21.41199">
        <ele>0.246049</ele>
        <time>2020-08-28T06:51:45.365Z</time>
      </trkpt>
      <trkpt lat="65.31066" lon="21.41157">
        <ele>0.249014</ele>
        <time>2020-08-28T06:51:49.982Z</time>
      </trkpt>
      <trkpt lat="65.31033" lon="21.41108">
        <ele>0.25353</ele>
        <time>2020-08-28T06:51:57.078Z</time>
      </trkpt>
      <trkpt lat="65.31004" lon="21.41088">
        <ele>0.257048</ele>
        <time>2020-08-28T06:52:02.677Z</time>
      </trkpt>
      <trkpt lat="65.30963" lon="21.41077">
        <ele>0.713323</ele>
        <time>2020-08-28T06:52:10.372Z</time>
      </trkpt>
      <trkpt lat="65.30947" lon="21.41073">
        <ele>0.966497</ele>
        <time>2020-08-28T06:52:13.276Z</time>
      </trkpt>
      <trkpt lat="65.30932" lon="21.4107">
        <ele>1.210797</ele>
        <time>2020-08-28T06:52:16.178Z</time>
      </trkpt>
      <trkpt lat="65.30901" lon="21.4105">
        <ele>1.73537</ele>
        <time>2020-08-28T06:52:22.880Z</time>
      </trkpt>
      <trkpt lat="65.30861" lon="21.40998">
        <ele>2.473944</ele>
        <time>2020-08-28T06:52:34.342Z</time>
      </trkpt>
      <trkpt lat="65.30828" lon="21.40978">
        <ele>3.02975</ele>
        <time>2020-08-28T06:52:43.725Z</time>
      </trkpt>
      <trkpt lat="65.30798" lon="21.40928">
        <ele>4.18018</ele>
        <time>2020-08-28T06:52:54.178Z</time>
      </trkpt>
      <trkpt lat="65.30783" lon="21.40901">
        <ele>4.88853</ele>
        <time>2020-08-28T06:52:59.503Z</time>
      </trkpt>
      <trkpt lat="65.30779" lon="21.40836">
        <ele>5.913544</ele>
        <time>2020-08-28T06:53:07.870Z</time>
      </trkpt>
      <trkpt lat="65.30774" lon="21.40778">
        <ele>6.819286</ele>
        <time>2020-08-28T06:53:15.535Z</time>
      </trkpt>
      <trkpt lat="65.30772" lon="21.40713">
        <ele>7.848687</ele>
        <time>2020-08-28T06:53:24.015Z</time>
      </trkpt>
      <trkpt lat="65.30778" lon="21.40667">
        <ele>8.590406</ele>
        <time>2020-08-28T06:53:30.224Z</time>
      </trkpt>
      <trkpt lat="65.30756" lon="21.40665">
        <ele>9.388965</ele>
        <time>2020-08-28T06:53:37.239Z</time>
      </trkpt>
      <trkpt lat="65.30721" lon="21.40703">
        <ele>10.677914</ele>
        <time>2020-08-28T06:53:49.843Z</time>
      </trkpt>
      <trkpt lat="65.30662" lon="21.40731">
        <ele>12.53915</ele>
        <time>2020-08-28T06:54:07.479Z</time>
      </trkpt>
      <trkpt lat="65.30571" lon="21.40641">
        <ele>15.557611</ele>
        <time>2020-08-28T06:54:34.300Z</time>
      </trkpt>
      <trkpt lat="65.30524" lon="21.40557">
        <ele>16.472574</ele>
        <time>2020-08-28T06:54:48.967Z</time>
      </trkpt>
      <trkpt lat="65.3052" lon="21.40557">
        <ele>16.528912</ele>
        <time>2020-08-28T06:54:50.429Z</time>
      </trkpt>
      <trkpt lat="65.30437" lon="21.40558">
        <ele>17.835646</ele>
        <time>2020-08-28T06:55:09.468Z</time>
      </trkpt>
      <trkpt lat="65.30436" lon="21.40529">
        <ele>18.025417</ele>
        <time>2020-08-28T06:55:11.919Z</time>
      </trkpt>
      <trkpt lat="65.30437" lon="21.405">
        <ele>18.21544</ele>
        <time>2020-08-28T06:55:14.876Z</time>
      </trkpt>
      <trkpt lat="65.30399" lon="21.405">
        <ele>18.08282</ele>
        <time>2020-08-28T06:55:22.368Z</time>
      </trkpt>
      <trkpt lat="65.3034" lon="21.40496">
        <ele>17.680239</ele>
        <time>2020-08-28T06:55:32.346Z</time>
      </trkpt>
      <trkpt lat="65.30325" lon="21.40496">
        <ele>17.575195</ele>
        <time>2020-08-28T06:55:34.825Z</time>
      </trkpt>
      <trkpt lat="65.30278" lon="21.4047">
        <ele>17.248569</ele>
        <time>2020-08-28T06:55:42.470Z</time>
      </trkpt>
      <trkpt lat="65.30234" lon="21.40615">
        <ele>16.192375</ele>
        <time>2020-08-28T06:55:53.787Z</time>
      </trkpt>
      <trkpt lat="65.30187" lon="21.40781">
        <ele>14.703842</ele>
        <time>2020-08-28T06:56:06.332Z</time>
      </trkpt>
      <trkpt lat="65.30168" lon="21.40839">
        <ele>14.154612</ele>
        <time>2020-08-28T06:56:10.936Z</time>
      </trkpt>
      <trkpt lat="65.30152" lon="21.40882">
        <ele>13.730633</ele>
        <time>2020-08-28T06:56:14.524Z</time>
      </trkpt>
      <trkpt lat="65.30116" lon="21.40958">
        <ele>12.898585</ele>
        <time>2020-08-28T06:56:21.791Z</time>
      </trkpt>
      <trkpt lat="65.30061" lon="21.41071">
        <ele>11.645857</ele>
        <time>2020-08-28T06:56:32.664Z</time>
      </trkpt>
      <trkpt lat="65.30008" lon="21.41184">
        <ele>10.484211</ele>
        <time>2020-08-28T06:56:43.491Z</time>
      </trkpt>
      <trkpt lat="65.29996" lon="21.41204">
        <ele>10.276603</ele>
        <time>2020-08-28T06:56:45.824Z</time>
      </trkpt>
      <trkpt lat="65.29957" lon="21.41294">
        <ele>9.534012</ele>
        <time>2020-08-28T06:56:54.185Z</time>
      </trkpt>
      <trkpt lat="65.29928" lon="21.41322">
        <ele>9.110178</ele>
        <time>2020-08-28T06:56:59.066Z</time>
      </trkpt>
      <trkpt lat="65.29894" lon="21.41343">
        <ele>8.627606</ele>
        <time>2020-08-28T06:57:04.584Z</time>
      </trkpt>
      <trkpt lat="65.29768" lon="21.41343">
        <ele>7.322968</ele>
        <time>2020-08-28T06:57:24.939Z</time>
      </trkpt>
      <trkpt lat="65.29756" lon="21.4134">
        <ele>7.209979</ele>
        <time>2020-08-28T06:57:26.836Z</time>
      </trkpt>
      <trkpt lat="65.29729" lon="21.41357">
        <ele>6.937984</ele>
        <time>2020-08-28T06:57:31.640Z</time>
      </trkpt>
      <trkpt lat="65.29721" lon="21.41327">
        <ele>6.796397</ele>
        <time>2020-08-28T06:57:34.007Z</time>
      </trkpt>
      <trkpt lat="65.29713" lon="21.41298">
        <ele>6.66358</ele>
        <time>2020-08-28T06:57:36.310Z</time>
      </trkpt>
      <trkpt lat="65.297" lon="21.41313">
        <ele>6.53787</ele>
        <time>2020-08-28T06:57:38.533Z</time>
      </trkpt>
      <trkpt lat="65.29664" lon="21.41327">
        <ele>6.297616</ele>
        <time>2020-08-28T06:57:44.274Z</time>
      </trkpt>
      <trkpt lat="65.29573" lon="21.41334">
        <ele>5.702965</ele>
        <time>2020-08-28T06:57:58.948Z</time>
      </trkpt>
      <trkpt lat="65.2956" lon="21.41336">
        <ele>5.618014</ele>
        <time>2020-08-28T06:58:00.943Z</time>
      </trkpt>
      <trkpt lat="65.29545" lon="21.41338">
        <ele>5.519215</ele>
        <time>2020-08-28T06:58:03.407Z</time>
      </trkpt>
      <trkpt lat="65.29385" lon="21.41345">
        <ele>5.071246</ele>
        <time>2020-08-28T06:58:30.556Z</time>
      </trkpt>
      <trkpt lat="65.29306" lon="21.41352">
        <ele>5.030524</ele>
        <time>2020-08-28T06:58:44.775Z</time>
      </trkpt>
      <trkpt lat="65.29235" lon="21.41358">
        <ele>5.117667</ele>
        <time>2020-08-28T06:58:57.818Z</time>
      </trkpt>
      <trkpt lat="65.29185" lon="21.41361">
        <ele>5.178346</ele>
        <time>2020-08-28T06:59:06.989Z</time>
      </trkpt>
      <trkpt lat="65.29171" lon="21.41341">
        <ele>5.198001</ele>
        <time>2020-08-28T06:59:09.963Z</time>
      </trkpt>
      <trkpt lat="65.29158" lon="21.41337">
        <ele>5.230331</ele>
        <time>2020-08-28T06:59:12.548Z</time>
      </trkpt>
      <trkpt lat="65.28939" lon="21.41351">
        <ele>5.835573</ele>
        <time>2020-08-28T06:59:53.449Z</time>
      </trkpt>
      <trkpt lat="65.28897" lon="21.41323">
        <ele>5.988415</ele>
        <time>2020-08-28T07:00:01.719Z</time>
      </trkpt>
      <trkpt lat="65.28854" lon="21.41292">
        <ele>6.145238</ele>
        <time>2020-08-28T07:00:10.346Z</time>
      </trkpt>
      <trkpt lat="65.28843" lon="21.41286">
        <ele>6.183231</ele>
        <time>2020-08-28T07:00:12.533Z</time>
      </trkpt>
      <trkpt lat="65.28819" lon="21.4129">
        <ele>6.268539</ele>
        <time>2020-08-28T07:00:17.389Z</time>
      </trkpt>
      <trkpt lat="65.28809" lon="21.41281">
        <ele>6.308328</ele>
        <time>2020-08-28T07:00:19.452Z</time>
      </trkpt>
      <trkpt lat="65.28803" lon="21.41264">
        <ele>6.348825</ele>
        <time>2020-08-28T07:00:21.317Z</time>
      </trkpt>
      <trkpt lat="65.2879" lon="21.41183">
        <ele>6.502267</ele>
        <time>2020-08-28T07:00:28.452Z</time>
      </trkpt>
      <trkpt lat="65.28785" lon="21.41156">
        <ele>6.556572</ele>
        <time>2020-08-28T07:00:30.990Z</time>
      </trkpt>
      <trkpt lat="65.28771" lon="21.41132">
        <ele>6.630034</ele>
        <time>2020-08-28T07:00:36.321Z</time>
      </trkpt>
      <trkpt lat="65.28759" lon="21.41087">
        <ele>6.724994</ele>
        <time>2020-08-28T07:00:43.194Z</time>
      </trkpt>
      <trkpt lat="65.28747" lon="21.41045">
        <ele>6.815083</ele>
        <time>2020-08-28T07:00:49.774Z</time>
      </trkpt>
      <trkpt lat="65.28727" lon="21.41063">
        <ele>6.906307</ele>
        <time>2020-08-28T07:00:56.445Z</time>
      </trkpt>
      <trkpt lat="65.28684" lon="21.4105">
        <ele>7.094953</ele>
        <time>2020-08-28T07:01:10.006Z</time>
      </trkpt>
      <trkpt lat="65.28667" lon="21.41063">
        <ele>7.175689</ele>
        <time>2020-08-28T07:01:15.370Z</time>
      </trkpt>
      <trkpt lat="65.28644" lon="21.4111">
        <ele>7.320522</ele>
        <time>2020-08-28T07:01:24.904Z</time>
      </trkpt>
      <trkpt lat="65.28599" lon="21.41039">
        <ele>7.577139</ele>
        <time>2020-08-28T07:01:35.286Z</time>
      </trkpt>
      <trkpt lat="65.28544" lon="21.40954">
        <ele>7.884597</ele>
        <time>2020-08-28T07:01:47.988Z</time>
      </trkpt>
      <trkpt lat="65.28497" lon="21.40875">
        <ele>8.163086</ele>
        <time>2020-08-28T07:01:59.250Z</time>
      </trkpt>
      <trkpt lat="65.28479" lon="21.40844">
        <ele>8.271742</ele>
        <time>2020-08-28T07:02:03.647Z</time>
      </trkpt>
      <trkpt lat="65.28455" lon="21.40802">
        <ele>8.41625</ele>
        <time>2020-08-28T07:02:09.436Z</time>
      </trkpt>
      <trkpt lat="65.28424" lon="21.40754">
        <ele>8.597459</ele>
        <time>2020-08-28T07:02:16.548Z</time>
      </trkpt>
      <trkpt lat="65.28348" lon="21.4065">
        <ele>8.958086</ele>
        <time>2020-08-28T07:02:33.161Z</time>
      </trkpt>
      <trkpt lat="65.28301" lon="21.40571">
        <ele>9.167164</ele>
        <time>2020-08-28T07:02:44.120Z</time>
      </trkpt>
      <trkpt lat="65.28257" lon="21.40502">
        <ele>9.356237</ele>
        <time>2020-08-28T07:02:54.086Z</time>
      </trkpt>
      <trkpt lat="65.28184" lon="21.40389">
        <ele>9.609915</ele>
        <time>2020-08-28T07:03:10.610Z</time>
      </trkpt>
      <trkpt lat="65.28149" lon="21.40339">
        <ele>9.717016</ele>
        <time>2020-08-28T07:03:18.150Z</time>
      </trkpt>
      <trkpt lat="65.281" lon="21.40251">
        <ele>9.88277</ele>
        <time>2020-08-28T07:03:29.646Z</time>
      </trkpt>
      <trkpt lat="65.28065" lon="21.40173">
        <ele>9.929868</ele>
        <time>2020-08-28T07:03:38.407Z</time>
      </trkpt>
      <trkpt lat="65.28059" lon="21.40161">
        <ele>9.933566</ele>
        <time>2020-08-28T07:03:39.787Z</time>
      </trkpt>
      <trkpt lat="65.28002" lon="21.40024">
        <ele>9.972692</ele>
        <time>2020-08-28T07:03:54.261Z</time>
      </trkpt>
      <trkpt lat="65.27957" lon="21.39901">
        <ele>9.982566</ele>
        <time>2020-08-28T07:04:06.499Z</time>
      </trkpt>
      <trkpt lat="65.2794" lon="21.39852">
        <ele>9.952207</ele>
        <time>2020-08-28T07:04:11.133Z</time>
      </trkpt>
      <trkpt lat="65.2792" lon="21.39778">
        <ele>9.909421</ele>
        <time>2020-08-28T07:04:17.656Z</time>
      </trkpt>
      <trkpt lat="65.27847" lon="21.39472">
        <ele>9.687562</ele>
        <time>2020-08-28T07:04:43.249Z</time>
      </trkpt>
      <trkpt lat="65.27812" lon="21.39267">
        <ele>9.473921</ele>
        <time>2020-08-28T07:04:59.026Z</time>
      </trkpt>
      <trkpt lat="65.27791" lon="21.39112">
        <ele>9.324746</ele>
        <time>2020-08-28T07:05:10.623Z</time>
      </trkpt>
      <trkpt lat="65.27776" lon="21.38918">
        <ele>9.158275</ele>
        <time>2020-08-28T07:05:24.832Z</time>
      </trkpt>
      <trkpt lat="65.27766" lon="21.38789">
        <ele>9.04741</ele>
        <time>2020-08-28T07:05:34.424Z</time>
      </trkpt>
      <trkpt lat="65.27762" lon="21.38739">
        <ele>9.011927</ele>
        <time>2020-08-28T07:05:38.199Z</time>
      </trkpt>
      <trkpt lat="65.27728" lon="21.384">
        <ele>8.951765</ele>
        <time>2020-08-28T07:06:04.061Z</time>
      </trkpt>
      <trkpt lat="65.27689" lon="21.38125">
        <ele>9.330918</ele>
        <time>2020-08-28T07:06:25.783Z</time>
      </trkpt>
      <trkpt lat="65.27669" lon="21.37977">
        <ele>9.609215</ele>
        <time>2020-08-28T07:06:38.469Z</time>
      </trkpt>
      <trkpt lat="65.27659" lon="21.37908">
        <ele>9.835409</ele>
        <time>2020-08-28T07:06:44.626Z</time>
      </trkpt>
      <trkpt lat="65.27582" lon="21.37434">
        <ele>13.878239</ele>
        <time>2020-08-28T07:07:35.282Z</time>
      </trkpt>
      <trkpt lat="65.27501" lon="21.36993">
        <ele>18.901034</ele>
        <time>2020-08-28T07:08:30.218Z</time>
      </trkpt>
      <trkpt lat="65.2744" lon="21.36706">
        <ele>21.632951</ele>
        <time>2020-08-28T07:09:02.402Z</time>
      </trkpt>
      <trkpt lat="65.27261" lon="21.35939">
        <ele>25.85491</ele>
        <time>2020-08-28T07:10:18.621Z</time>
      </trkpt>
      <trkpt lat="65.27159" lon="21.35454">
        <ele>32.315712</ele>
        <time>2020-08-28T07:11:19.035Z</time>
      </trkpt>
      <trkpt lat="65.27137" lon="21.35326">
        <ele>34.588004</ele>
        <time>2020-08-28T07:11:37.839Z</time>
      </trkpt>
      <trkpt lat="65.27134" lon="21.35306">
        <ele>34.93563</ele>
        <time>2020-08-28T07:11:41.406Z</time>
      </trkpt>
      <trkpt lat="65.27103" lon="21.35125">
        <ele>37.959696</ele>
        <time>2020-08-28T07:12:08.884Z</time>
      </trkpt>
      <trkpt lat="65.26983" lon="21.34331">
        <ele>48.223993</ele>
        <time>2020-08-28T07:13:45.072Z</time>
      </trkpt>
      <trkpt lat="65.26906" lon="21.33656">
        <ele>50.243291</ele>
        <time>2020-08-28T07:14:41.311Z</time>
      </trkpt>
      <trkpt lat="65.26886" lon="21.33459">
        <ele>50.482478</ele>
        <time>2020-08-28T07:14:57.003Z</time>
      </trkpt>
      <trkpt lat="65.26879" lon="21.3339">
        <ele>50.549414</ele>
        <time>2020-08-28T07:15:02.582Z</time>
      </trkpt>
      <trkpt lat="65.26776" lon="21.32141">
        <ele>51.261697</ele>
        <time>2020-08-28T07:16:41.423Z</time>
      </trkpt>
      <trkpt lat="65.26753" lon="21.31831">
        <ele>50.656632</ele>
        <time>2020-08-28T07:17:02.328Z</time>
      </trkpt>
      <trkpt lat="65.26748" lon="21.31768">
        <ele>50.44542</ele>
        <time>2020-08-28T07:17:06.387Z</time>
      </trkpt>
      <trkpt lat="65.26729" lon="21.31508">
        <ele>49.562745</ele>
        <time>2020-08-28T07:17:23.752Z</time>
      </trkpt>
      <trkpt lat="65.26712" lon="21.31305">
        <ele>49.452744</ele>
        <time>2020-08-28T07:17:38.422Z</time>
      </trkpt>
      <trkpt lat="65.26695" lon="21.3109">
        <ele>49.477299</ele>
        <time>2020-08-28T07:17:55.560Z</time>
      </trkpt>
      <trkpt lat="65.26683" lon="21.30943">
        <ele>49.75742</ele>
        <time>2020-08-28T07:18:07.902Z</time>
      </trkpt>
      <trkpt lat="65.2666" lon="21.3066">
        <ele>50.505192</ele>
        <time>2020-08-28T07:18:32.179Z</time>
      </trkpt>
      <trkpt lat="65.26655" lon="21.30602">
        <ele>50.589728</ele>
        <time>2020-08-28T07:18:37.007Z</time>
      </trkpt>
      <trkpt lat="65.26636" lon="21.30403">
        <ele>50.536348</ele>
        <time>2020-08-28T07:18:53.150Z</time>
      </trkpt>
      <trkpt lat="65.26591" lon="21.29867">
        <ele>49.246409</ele>
        <time>2020-08-28T07:19:30.391Z</time>
      </trkpt>
      <trkpt lat="65.2658" lon="21.29743">
        <ele>48.617455</ele>
        <time>2020-08-28T07:19:38.210Z</time>
      </trkpt>
      <trkpt lat="65.26576" lon="21.29709">
        <ele>48.349347</ele>
        <time>2020-08-28T07:19:40.385Z</time>
      </trkpt>
      <trkpt lat="65.26573" lon="21.29678">
        <ele>48.102025</ele>
        <time>2020-08-28T07:19:42.254Z</time>
      </trkpt>
      <trkpt lat="65.2656" lon="21.29516">
        <ele>46.833222</ele>
        <time>2020-08-28T07:19:52.010Z</time>
      </trkpt>
      <trkpt lat="65.26543" lon="21.29377">
        <ele>45.713943</ele>
        <time>2020-08-28T07:20:00.580Z</time>
      </trkpt>
      <trkpt lat="65.26529" lon="21.29272">
        <ele>44.891456</ele>
        <time>2020-08-28T07:20:07.169Z</time>
      </trkpt>
      <trkpt lat="65.2641" lon="21.29264">
        <ele>42.797464</ele>
        <time>2020-08-28T07:20:24.155Z</time>
      </trkpt>
      <trkpt lat="65.2637" lon="21.29278">
        <ele>42.233221</ele>
        <time>2020-08-28T07:20:30.114Z</time>
      </trkpt>
      <trkpt lat="65.26341" lon="21.293">
        <ele>41.926121</ele>
        <time>2020-08-28T07:20:34.550Z</time>
      </trkpt>
      <trkpt lat="65.26298" lon="21.29333">
        <ele>41.451687</ele>
        <time>2020-08-28T07:20:41.535Z</time>
      </trkpt>
      <trkpt lat="65.26204" lon="21.29396">
        <ele>40.749891</ele>
        <time>2020-08-28T07:20:56.776Z</time>
      </trkpt>
      <trkpt lat="65.26112" lon="21.29427">
        <ele>41.710035</ele>
        <time>2020-08-28T07:21:15.595Z</time>
      </trkpt>
      <trkpt lat="65.26071" lon="21.29424">
        <ele>42.132532</ele>
        <time>2020-08-28T07:21:25.000Z</time>
      </trkpt>
      <trkpt lat="65.26033" lon="21.29413">
        <ele>42.650995</ele>
        <time>2020-08-28T07:21:34.526Z</time>
      </trkpt>
      <trkpt lat="65.2586" lon="21.29345">
        <ele>47.490851</ele>
        <time>2020-08-28T07:22:22.722Z</time>
      </trkpt>
      <trkpt lat="65.25851" lon="21.29344">
        <ele>47.611376</ele>
        <time>2020-08-28T07:22:25.517Z</time>
      </trkpt>
      <trkpt lat="65.25801" lon="21.29343">
        <ele>48.300299</ele>
        <time>2020-08-28T07:22:37.346Z</time>
      </trkpt>
      <trkpt lat="65.25667" lon="21.29367">
        <ele>49.948478</ele>
        <time>2020-08-28T07:23:05.107Z</time>
      </trkpt>
      <trkpt lat="65.25506" lon="21.29461">
        <ele>50.209343</ele>
        <time>2020-08-28T07:23:34.651Z</time>
      </trkpt>
      <trkpt lat="65.25465" lon="21.29477">
        <ele>50.227976</ele>
        <time>2020-08-28T07:23:42.206Z</time>
      </trkpt>
      <trkpt lat="65.25395" lon="21.29481">
        <ele>50.259456</ele>
        <time>2020-08-28T07:23:54.949Z</time>
      </trkpt>
      <trkpt lat="65.25337" lon="21.29466">
        <ele>50.285919</ele>
        <time>2020-08-28T07:24:05.656Z</time>
      </trkpt>
      <trkpt lat="65.25026" lon="21.29312">
        <ele>50.136275</ele>
        <time>2020-08-28T07:25:01.694Z</time>
      </trkpt>
      <trkpt lat="65.2477" lon="21.29222">
        <ele>49.685591</ele>
        <time>2020-08-28T07:25:46.569Z</time>
      </trkpt>
      <trkpt lat="65.24556" lon="21.29187">
        <ele>49.236409</ele>
        <time>2020-08-28T07:26:23.142Z</time>
      </trkpt>
      <trkpt lat="65.24545" lon="21.29184">
        <ele>49.217562</ele>
        <time>2020-08-28T07:26:25.136Z</time>
      </trkpt>
      <trkpt lat="65.24354" lon="21.29148">
        <ele>49.100072</ele>
        <time>2020-08-28T07:26:58.905Z</time>
      </trkpt>
      <trkpt lat="65.24231" lon="21.29139">
        <ele>49.226741</ele>
        <time>2020-08-28T07:27:21.448Z</time>
      </trkpt>
      <trkpt lat="65.24188" lon="21.29136">
        <ele>49.324076</ele>
        <time>2020-08-28T07:27:29.366Z</time>
      </trkpt>
      <trkpt lat="65.23949" lon="21.2912">
        <ele>49.79992</ele>
        <time>2020-08-28T07:28:13.838Z</time>
      </trkpt>
      <trkpt lat="65.23833" lon="21.29132">
        <ele>49.789175</ele>
        <time>2020-08-28T07:28:34.633Z</time>
      </trkpt>
      <trkpt lat="65.23714" lon="21.29163">
        <ele>49.618859</ele>
        <time>2020-08-28T07:28:55.199Z</time>
      </trkpt>
      <trkpt lat="65.2355" lon="21.29238">
        <ele>49.312593</ele>
        <time>2020-08-28T07:29:23.967Z</time>
      </trkpt>
      <trkpt lat="65.23477" lon="21.29284">
        <ele>49.226243</ele>
        <time>2020-08-28T07:29:37.112Z</time>
      </trkpt>
      <trkpt lat="65.23353" lon="21.29396">
        <ele>49.072617</ele>
        <time>2020-08-28T07:30:00.406Z</time>
      </trkpt>
      <trkpt lat="65.23167" lon="21.29508">
        <ele>48.651928</ele>
        <time>2020-08-28T07:30:33.964Z</time>
      </trkpt>
      <trkpt lat="65.23048" lon="21.29544">
        <ele>48.026987</ele>
        <time>2020-08-28T07:30:53.903Z</time>
      </trkpt>
      <trkpt lat="65.2291" lon="21.29535">
        <ele>46.243145</ele>
        <time>2020-08-28T07:31:14.908Z</time>
      </trkpt>
      <trkpt lat="65.229" lon="21.29531">
        <ele>46.10887</ele>
        <time>2020-08-28T07:31:16.175Z</time>
      </trkpt>
      <trkpt lat="65.22886" lon="21.29526">
        <ele>45.89506</ele>
        <time>2020-08-28T07:31:18.278Z</time>
      </trkpt>
      <trkpt lat="65.22858" lon="21.29516">
        <ele>45.487819</ele>
        <time>2020-08-28T07:31:22.262Z</time>
      </trkpt>
      <trkpt lat="65.22823" lon="21.295">
        <ele>44.837247</ele>
        <time>2020-08-28T07:31:27.350Z</time>
      </trkpt>
      <trkpt lat="65.22819" lon="21.29499">
        <ele>44.770493</ele>
        <time>2020-08-28T07:31:27.770Z</time>
      </trkpt>
      <trkpt lat="65.22776" lon="21.29474">
        <ele>43.857048</ele>
        <time>2020-08-28T07:31:34.030Z</time>
      </trkpt>
      <trkpt lat="65.2276" lon="21.2946">
        <ele>43.515127</ele>
        <time>2020-08-28T07:31:36.325Z</time>
      </trkpt>
      <trkpt lat="65.22696" lon="21.29406">
        <ele>42.154019</ele>
        <time>2020-08-28T07:31:45.784Z</time>
      </trkpt>
      <trkpt lat="65.22666" lon="21.2938">
        <ele>41.584533</ele>
        <time>2020-08-28T07:31:50.359Z</time>
      </trkpt>
      <trkpt lat="65.22609" lon="21.29302">
        <ele>41.085327</ele>
        <time>2020-08-28T07:32:00.334Z</time>
      </trkpt>
      <trkpt lat="65.22527" lon="21.29174">
        <ele>40.347409</ele>
        <time>2020-08-28T07:32:16.580Z</time>
      </trkpt>
      <trkpt lat="65.22422" lon="21.28977">
        <ele>40.704785</ele>
        <time>2020-08-28T07:32:41.954Z</time>
      </trkpt>
      <trkpt lat="65.22362" lon="21.28829">
        <ele>40.932767</ele>
        <time>2020-08-28T07:32:58.964Z</time>
      </trkpt>
      <trkpt lat="65.22344" lon="21.2878">
        <ele>40.962756</ele>
        <time>2020-08-28T07:33:04.236Z</time>
      </trkpt>
      <trkpt lat="65.22328" lon="21.28737">
        <ele>40.988321</ele>
        <time>2020-08-28T07:33:08.582Z</time>
      </trkpt>
      <trkpt lat="65.22302" lon="21.28661">
        <ele>41.032971</ele>
        <time>2020-08-28T07:33:16.008Z</time>
      </trkpt>
      <trkpt lat="65.22288" lon="21.28608">
        <ele>41.061656</ele>
        <time>2020-08-28T07:33:20.668Z</time>
      </trkpt>
      <trkpt lat="65.22259" lon="21.28509">
        <ele>41.005551</ele>
        <time>2020-08-28T07:33:29.443Z</time>
      </trkpt>
      <trkpt lat="65.22255" lon="21.28494">
        <ele>40.97282</ele>
        <time>2020-08-28T07:33:30.626Z</time>
      </trkpt>
      <trkpt lat="65.22243" lon="21.28442">
        <ele>40.861943</ele>
        <time>2020-08-28T07:33:34.773Z</time>
      </trkpt>
      <trkpt lat="65.2221" lon="21.28301">
        <ele>40.556823</ele>
        <time>2020-08-28T07:33:45.847Z</time>
      </trkpt>
      <trkpt lat="65.22154" lon="21.27963">
        <ele>40.063148</ele>
        <time>2020-08-28T07:34:10.840Z</time>
      </trkpt>
      <trkpt lat="65.22143" lon="21.27881">
        <ele>39.976297</ele>
        <time>2020-08-28T07:34:17.066Z</time>
      </trkpt>
      <trkpt lat="65.22123" lon="21.27734">
        <ele>39.957612</ele>
        <time>2020-08-28T07:34:28.521Z</time>
      </trkpt>
      <trkpt lat="65.21902" lon="21.25973">
        <ele>47.683933</ele>
        <time>2020-08-28T07:37:07.397Z</time>
      </trkpt>
      <trkpt lat="65.21848" lon="21.25622">
        <ele>52.793528</ele>
        <time>2020-08-28T07:37:55.928Z</time>
      </trkpt>
      <trkpt lat="65.21809" lon="21.25422">
        <ele>56.695331</ele>
        <time>2020-08-28T07:38:26.152Z</time>
      </trkpt>
      <trkpt lat="65.21587" lon="21.24387">
        <ele>74.570603</ele>
        <time>2020-08-28T07:40:50.449Z</time>
      </trkpt>
      <trkpt lat="65.21463" lon="21.23837">
        <ele>82.503238</ele>
        <time>2020-08-28T07:42:01.774Z</time>
      </trkpt>
      <trkpt lat="65.21313" lon="21.23154">
        <ele>91.151978</ele>
        <time>2020-08-28T07:43:26.550Z</time>
      </trkpt>
      <trkpt lat="65.21256" lon="21.22891">
        <ele>94.771193</ele>
        <time>2020-08-28T07:44:00.538Z</time>
      </trkpt>
      <trkpt lat="65.21177" lon="21.22508">
        <ele>99.610377</ele>
        <time>2020-08-28T07:44:50.492Z</time>
      </trkpt>
      <trkpt lat="65.20691" lon="21.20293">
        <ele>121.715161</ele>
        <time>2020-08-28T07:49:07.399Z</time>
      </trkpt>
      <trkpt lat="65.2059" lon="21.19837">
        <ele>124.413217</ele>
        <time>2020-08-28T07:49:53.080Z</time>
      </trkpt>
      <trkpt lat="65.20529" lon="21.19549">
        <ele>126.253653</ele>
        <time>2020-08-28T07:50:22.239Z</time>
      </trkpt>
      <trkpt lat="65.20269" lon="21.18366">
        <ele>137.104101</ele>
        <time>2020-08-28T07:52:40.862Z</time>
      </trkpt>
      <trkpt lat="65.20243" lon="21.18166">
        <ele>137.74173</ele>
        <time>2020-08-28T07:52:57.726Z</time>
      </trkpt>
      <trkpt lat="65.20238" lon="21.17991">
        <ele>137.832693</ele>
        <time>2020-08-28T07:53:10.044Z</time>
      </trkpt>
      <trkpt lat="65.20247" lon="21.17665">
        <ele>136.9658</ele>
        <time>2020-08-28T07:53:31.819Z</time>
      </trkpt>
      <trkpt lat="65.20247" lon="21.17476">
        <ele>136.615177</ele>
        <time>2020-08-28T07:53:44.693Z</time>
      </trkpt>
      <trkpt lat="65.20243" lon="21.17323">
        <ele>136.34764</ele>
        <time>2020-08-28T07:53:55.375Z</time>
      </trkpt>
      <trkpt lat="65.20217" lon="21.16977">
        <ele>136.256776</ele>
        <time>2020-08-28T07:54:21.308Z</time>
      </trkpt>
      <trkpt lat="65.20075" lon="21.15557">
        <ele>138.416143</ele>
        <time>2020-08-28T07:56:18.917Z</time>
      </trkpt>
      <trkpt lat="65.19866" lon="21.135">
        <ele>136.073065</ele>
        <time>2020-08-28T07:58:49.367Z</time>
      </trkpt>
      <trkpt lat="65.1975" lon="21.12315">
        <ele>139.224104</ele>
        <time>2020-08-28T08:00:30.941Z</time>
      </trkpt>
      <trkpt lat="65.1969" lon="21.11701">
        <ele>141.84981</ele>
        <time>2020-08-28T08:01:28.330Z</time>
      </trkpt>
      <trkpt lat="65.19585" lon="21.10632">
        <ele>143.035896</ele>
        <time>2020-08-28T08:02:55.541Z</time>
      </trkpt>
      <trkpt lat="65.19538" lon="21.10176">
        <ele>140.653869</ele>
        <time>2020-08-28T08:03:24.091Z</time>
      </trkpt>
      <trkpt lat="65.19513" lon="21.09932">
        <ele>139.971999</ele>
        <time>2020-08-28T08:03:40.710Z</time>
      </trkpt>
      <trkpt lat="65.19499" lon="21.0981">
        <ele>139.756335</ele>
        <time>2020-08-28T08:03:50.172Z</time>
      </trkpt>
      <trkpt lat="65.19464" lon="21.09593">
        <ele>139.309821</ele>
        <time>2020-08-28T08:04:08.151Z</time>
      </trkpt>
      <trkpt lat="65.19408" lon="21.09335">
        <ele>138.703596</ele>
        <time>2020-08-28T08:04:27.945Z</time>
      </trkpt>
      <trkpt lat="65.19382" lon="21.09224">
        <ele>137.790606</ele>
        <time>2020-08-28T08:04:35.883Z</time>
      </trkpt>
      <trkpt lat="65.1936" lon="21.09124">
        <ele>136.898259</ele>
        <time>2020-08-28T08:04:42.755Z</time>
      </trkpt>
      <trkpt lat="65.19271" lon="21.08754">
        <ele>132.862986</ele>
        <time>2020-08-28T08:05:07.186Z</time>
      </trkpt>
      <trkpt lat="65.19116" lon="21.08092">
        <ele>124.75997</ele>
        <time>2020-08-28T08:05:49.852Z</time>
      </trkpt>
      <trkpt lat="65.18982" lon="21.07528">
        <ele>120.753715</ele>
        <time>2020-08-28T08:06:30.522Z</time>
      </trkpt>
      <trkpt lat="65.18844" lon="21.06943">
        <ele>118.758712</ele>
        <time>2020-08-28T08:07:16.051Z</time>
      </trkpt>
      <trkpt lat="65.18796" lon="21.06781">
        <ele>118.29814</ele>
        <time>2020-08-28T08:07:29.724Z</time>
      </trkpt>
      <trkpt lat="65.1874" lon="21.06614">
        <ele>117.928485</ele>
        <time>2020-08-28T08:07:44.592Z</time>
      </trkpt>
      <trkpt lat="65.18651" lon="21.06386">
        <ele>117.551395</ele>
        <time>2020-08-28T08:08:06.566Z</time>
      </trkpt>
      <trkpt lat="65.18581" lon="21.06204">
        <ele>117.887863</ele>
        <time>2020-08-28T08:08:25.899Z</time>
      </trkpt>
      <trkpt lat="65.18549" lon="21.0612">
        <ele>118.044333</ele>
        <time>2020-08-28T08:08:35.370Z</time>
      </trkpt>
      <trkpt lat="65.18539" lon="21.06101">
        <ele>118.083905</ele>
        <time>2020-08-28T08:08:37.836Z</time>
      </trkpt>
      <trkpt lat="65.18486" lon="21.05964">
        <ele>119.479978</ele>
        <time>2020-08-28T08:08:53.947Z</time>
      </trkpt>
      <trkpt lat="65.18477" lon="21.05943">
        <ele>119.720685</ele>
        <time>2020-08-28T08:08:56.588Z</time>
      </trkpt>
      <trkpt lat="65.18447" lon="21.05866">
        <ele>120.5647</ele>
        <time>2020-08-28T08:09:06.378Z</time>
      </trkpt>
      <trkpt lat="65.18382" lon="21.05633">
        <ele>125.127765</ele>
        <time>2020-08-28T08:09:42.090Z</time>
      </trkpt>
      <trkpt lat="65.1836" lon="21.05538">
        <ele>127.602231</ele>
        <time>2020-08-28T08:09:58.996Z</time>
      </trkpt>
      <trkpt lat="65.18327" lon="21.05411">
        <ele>130.996837</ele>
        <time>2020-08-28T08:10:23.421Z</time>
      </trkpt>
      <trkpt lat="65.18297" lon="21.0531">
        <ele>133.948851</ele>
        <time>2020-08-28T08:10:44.432Z</time>
      </trkpt>
      <trkpt lat="65.18266" lon="21.05227">
        <ele>136.59302</ele>
        <time>2020-08-28T08:11:02.935Z</time>
      </trkpt>
      <trkpt lat="65.18224" lon="21.05134">
        <ele>139.85715</ele>
        <time>2020-08-28T08:11:23.384Z</time>
      </trkpt>
      <trkpt lat="65.18163" lon="21.05033">
        <ele>142.744365</ele>
        <time>2020-08-28T08:11:44.160Z</time>
      </trkpt>
      <trkpt lat="65.18036" lon="21.04923">
        <ele>146.460039</ele>
        <time>2020-08-28T08:12:18.598Z</time>
      </trkpt>
      <trkpt lat="65.17903" lon="21.04841">
        <ele>149.546055</ele>
        <time>2020-08-28T08:12:53.048Z</time>
      </trkpt>
      <trkpt lat="65.1781" lon="21.04718">
        <ele>151.802027</ele>
        <time>2020-08-28T08:13:19.440Z</time>
      </trkpt>
      <trkpt lat="65.17765" lon="21.04675">
        <ele>152.777288</ele>
        <time>2020-08-28T08:13:30.997Z</time>
      </trkpt>
      <trkpt lat="65.17725" lon="21.04641">
        <ele>153.627421</ele>
        <time>2020-08-28T08:13:41.171Z</time>
      </trkpt>
      <trkpt lat="65.17672" lon="21.0462">
        <ele>154.819317</ele>
        <time>2020-08-28T08:13:54.281Z</time>
      </trkpt>
      <trkpt lat="65.17624" lon="21.04613">
        <ele>155.970603</ele>
        <time>2020-08-28T08:14:06.112Z</time>
      </trkpt>
      <trkpt lat="65.17571" lon="21.04611">
        <ele>157.238729</ele>
        <time>2020-08-28T08:14:19.596Z</time>
      </trkpt>
      <trkpt lat="65.17512" lon="21.0462">
        <ele>158.713419</ele>
        <time>2020-08-28T08:14:35.319Z</time>
      </trkpt>
      <trkpt lat="65.17457" lon="21.046">
        <ele>160.396028</ele>
        <time>2020-08-28T08:14:50.709Z</time>
      </trkpt>
      <trkpt lat="65.17416" lon="21.04563">
        <ele>161.741526</ele>
        <time>2020-08-28T08:15:03.140Z</time>
      </trkpt>
      <trkpt lat="65.17331" lon="21.04445">
        <ele>164.553516</ele>
        <time>2020-08-28T08:15:30.724Z</time>
      </trkpt>
      <trkpt lat="65.17277" lon="21.04389">
        <ele>165.939527</ele>
        <time>2020-08-28T08:15:46.490Z</time>
      </trkpt>
      <trkpt lat="65.17184" lon="21.04352">
        <ele>168.139893</ele>
        <time>2020-08-28T08:16:09.351Z</time>
      </trkpt>
      <trkpt lat="65.17095" lon="21.04361">
        <ele>168.589983</ele>
        <time>2020-08-28T08:16:28.009Z</time>
      </trkpt>
      <trkpt lat="65.16981" lon="21.04433">
        <ele>168.779859</ele>
        <time>2020-08-28T08:16:48.563Z</time>
      </trkpt>
      <trkpt lat="65.16899" lon="21.04462">
        <ele>167.998791</ele>
        <time>2020-08-28T08:17:01.590Z</time>
      </trkpt>
      <trkpt lat="65.16694" lon="21.0449">
        <ele>165.040617</ele>
        <time>2020-08-28T08:17:31.827Z</time>
      </trkpt>
      <trkpt lat="65.16622" lon="21.0447">
        <ele>163.425201</ele>
        <time>2020-08-28T08:17:41.952Z</time>
      </trkpt>
      <trkpt lat="65.16588" lon="21.04447">
        <ele>162.322803</ele>
        <time>2020-08-28T08:17:46.870Z</time>
      </trkpt>
      <trkpt lat="65.16467" lon="21.0433">
        <ele>158.096556</ele>
        <time>2020-08-28T08:18:03.819Z</time>
      </trkpt>
      <trkpt lat="65.16251" lon="21.04133">
        <ele>147.579912</ele>
        <time>2020-08-28T08:18:31.999Z</time>
      </trkpt>
      <trkpt lat="65.16155" lon="21.04046">
        <ele>142.931647</ele>
        <time>2020-08-28T08:18:44.528Z</time>
      </trkpt>
      <trkpt lat="65.15714" lon="21.03561">
        <ele>127.701917</ele>
        <time>2020-08-28T08:19:48.243Z</time>
      </trkpt>
      <trkpt lat="65.15636" lon="21.03481">
        <ele>125.607315</ele>
        <time>2020-08-28T08:20:00.412Z</time>
      </trkpt>
      <trkpt lat="65.15611" lon="21.03447">
        <ele>125.032183</ele>
        <time>2020-08-28T08:20:04.659Z</time>
      </trkpt>
      <trkpt lat="65.15569" lon="21.03403">
        <ele>124.143901</ele>
        <time>2020-08-28T08:20:11.300Z</time>
      </trkpt>
      <trkpt lat="65.15516" lon="21.03368">
        <ele>123.060786</ele>
        <time>2020-08-28T08:20:19.162Z</time>
      </trkpt>
      <trkpt lat="65.15444" lon="21.03351">
        <ele>121.268727</ele>
        <time>2020-08-28T08:20:28.972Z</time>
      </trkpt>
      <trkpt lat="65.15333" lon="21.03381">
        <ele>118.096774</ele>
        <time>2020-08-28T08:20:43.777Z</time>
      </trkpt>
      <trkpt lat="65.15279" lon="21.03381">
        <ele>116.4562</ele>
        <time>2020-08-28T08:20:50.840Z</time>
      </trkpt>
      <trkpt lat="65.15245" lon="21.03364">
        <ele>115.320837</ele>
        <time>2020-08-28T08:20:55.442Z</time>
      </trkpt>
      <trkpt lat="65.15204" lon="21.03322">
        <ele>113.875891</ele>
        <time>2020-08-28T08:21:01.296Z</time>
      </trkpt>
      <trkpt lat="65.15173" lon="21.03265">
        <ele>112.628301</ele>
        <time>2020-08-28T08:21:06.346Z</time>
      </trkpt>
      <trkpt lat="65.15139" lon="21.03188">
        <ele>111.109236</ele>
        <time>2020-08-28T08:21:12.462Z</time>
      </trkpt>
      <trkpt lat="65.15064" lon="21.02955">
        <ele>107.088216</ele>
        <time>2020-08-28T08:21:28.519Z</time>
      </trkpt>
      <trkpt lat="65.15033" lon="21.02883">
        <ele>105.681609</ele>
        <time>2020-08-28T08:21:34.175Z</time>
      </trkpt>
      <trkpt lat="65.15009" lon="21.02847">
        <ele>104.923573</ele>
        <time>2020-08-28T08:21:37.944Z</time>
      </trkpt>
      <trkpt lat="65.14972" lon="21.02815">
        <ele>103.890434</ele>
        <time>2020-08-28T08:21:43.102Z</time>
      </trkpt>
      <trkpt lat="65.14936" lon="21.02802">
        <ele>102.911098</ele>
        <time>2020-08-28T08:21:48.036Z</time>
      </trkpt>
      <trkpt lat="65.14895" lon="21.02803">
        <ele>101.836131</ele>
        <time>2020-08-28T08:21:53.538Z</time>
      </trkpt>
      <trkpt lat="65.14791" lon="21.0284">
        <ele>99.619438</ele>
        <time>2020-08-28T08:22:08.423Z</time>
      </trkpt>
      <trkpt lat="65.14748" lon="21.02841">
        <ele>98.837203</ele>
        <time>2020-08-28T08:22:14.617Z</time>
      </trkpt>
      <trkpt lat="65.14699" lon="21.02827">
        <ele>97.940127</ele>
        <time>2020-08-28T08:22:21.793Z</time>
      </trkpt>
      <trkpt lat="65.14159" lon="21.02471">
        <ele>88.891249</ele>
        <time>2020-08-28T08:23:43.583Z</time>
      </trkpt>
      <trkpt lat="65.13935" lon="21.02332">
        <ele>85.088566</ele>
        <time>2020-08-28T08:24:17.198Z</time>
      </trkpt>
      <trkpt lat="65.13894" lon="21.02308">
        <ele>84.397729</ele>
        <time>2020-08-28T08:24:23.317Z</time>
      </trkpt>
      <trkpt lat="65.13788" lon="21.02238">
        <ele>82.414951</ele>
        <time>2020-08-28T08:24:39.394Z</time>
      </trkpt>
      <trkpt lat="65.13757" lon="21.02209">
        <ele>81.69516</ele>
        <time>2020-08-28T08:24:44.116Z</time>
      </trkpt>
      <trkpt lat="65.13681" lon="21.02076">
        <ele>79.645242</ele>
        <time>2020-08-28T08:24:57.199Z</time>
      </trkpt>
      <trkpt lat="65.13513" lon="21.01687">
        <ele>73.742613</ele>
        <time>2020-08-28T08:25:28.421Z</time>
      </trkpt>
      <trkpt lat="65.13466" lon="21.01576">
        <ele>72.935268</ele>
        <time>2020-08-28T08:25:38.089Z</time>
      </trkpt>
      <trkpt lat="65.13443" lon="21.0152">
        <ele>72.536283</ele>
        <time>2020-08-28T08:25:43.215Z</time>
      </trkpt>
      <trkpt lat="65.13429" lon="21.01487">
        <ele>72.295122</ele>
        <time>2020-08-28T08:25:46.549Z</time>
      </trkpt>
      <trkpt lat="65.13354" lon="21.01304">
        <ele>72.983529</ele>
        <time>2020-08-28T08:26:07.588Z</time>
      </trkpt>
      <trkpt lat="65.13315" lon="21.01249">
        <ele>73.602597</ele>
        <time>2020-08-28T08:26:18.559Z</time>
      </trkpt>
      <trkpt lat="65.13283" lon="21.01236">
        <ele>74.038164</ele>
        <time>2020-08-28T08:26:26.325Z</time>
      </trkpt>
      <trkpt lat="65.13255" lon="21.01226">
        <ele>74.45925</ele>
        <time>2020-08-28T08:26:33.370Z</time>
      </trkpt>
      <trkpt lat="65.13229" lon="21.01224">
        <ele>75.071098</ele>
        <time>2020-08-28T08:26:39.997Z</time>
      </trkpt>
      <trkpt lat="65.12875" lon="21.0144">
        <ele>83.287963</ele>
        <time>2020-08-28T08:28:13.067Z</time>
      </trkpt>
      <trkpt lat="65.12461" lon="21.01687">
        <ele>88.904084</ele>
        <time>2020-08-28T08:29:47.418Z</time>
      </trkpt>
      <trkpt lat="65.12429" lon="21.01711">
        <ele>89.189565</ele>
        <time>2020-08-28T08:29:54.008Z</time>
      </trkpt>
      <trkpt lat="65.11763" lon="21.02376">
        <ele>89.597316</ele>
        <time>2020-08-28T08:32:02.912Z</time>
      </trkpt>
      <trkpt lat="65.11713" lon="21.02453">
        <ele>89.592639</ele>
        <time>2020-08-28T08:32:13.631Z</time>
      </trkpt>
      <trkpt lat="65.11417" lon="21.03096">
        <ele>89.367562</ele>
        <time>2020-08-28T08:33:24.635Z</time>
      </trkpt>
      <trkpt lat="65.11167" lon="21.03674">
        <ele>88.074254</ele>
        <time>2020-08-28T08:34:23.784Z</time>
      </trkpt>
      <trkpt lat="65.10952" lon="21.0415">
        <ele>85.84942</ele>
        <time>2020-08-28T08:35:09.737Z</time>
      </trkpt>
      <trkpt lat="65.10651" lon="21.04824">
        <ele>85.88151</ele>
        <time>2020-08-28T08:36:22.815Z</time>
      </trkpt>
      <trkpt lat="65.10585" lon="21.04936">
        <ele>86.67947</ele>
        <time>2020-08-28T08:36:40.620Z</time>
      </trkpt>
      <trkpt lat="65.10483" lon="21.05012">
        <ele>87.697757</ele>
        <time>2020-08-28T08:37:04.782Z</time>
      </trkpt>
      <trkpt lat="65.10232" lon="21.05172">
        <ele>89.263036</ele>
        <time>2020-08-28T08:37:56.899Z</time>
      </trkpt>
      <trkpt lat="65.10139" lon="21.05266">
        <ele>88.806082</ele>
        <time>2020-08-28T08:38:13.312Z</time>
      </trkpt>
      <trkpt lat="65.10115" lon="21.05311">
        <ele>88.409989</ele>
        <time>2020-08-28T08:38:17.942Z</time>
      </trkpt>
      <trkpt lat="65.09941" lon="21.05769">
        <ele>84.746436</ele>
        <time>2020-08-28T08:38:55.401Z</time>
      </trkpt>
      <trkpt lat="65.09739" lon="21.06319">
        <ele>84.167243</ele>
        <time>2020-08-28T08:39:47.388Z</time>
      </trkpt>
      <trkpt lat="65.09707" lon="21.06428">
        <ele>84.45202</ele>
        <time>2020-08-28T08:39:59.635Z</time>
      </trkpt>
      <trkpt lat="65.09688" lon="21.06565">
        <ele>85.616452</ele>
        <time>2020-08-28T08:40:14.163Z</time>
      </trkpt>
      <trkpt lat="65.09641" lon="21.07259">
        <ele>93.239397</ele>
        <time>2020-08-28T08:41:34.250Z</time>
      </trkpt>
      <trkpt lat="65.09624" lon="21.07415">
        <ele>94.107624</ele>
        <time>2020-08-28T08:41:49.633Z</time>
      </trkpt>
      <trkpt lat="65.09604" lon="21.07523">
        <ele>94.425959</ele>
        <time>2020-08-28T08:41:59.650Z</time>
      </trkpt>
      <trkpt lat="65.09553" lon="21.07747">
        <ele>94.8781</ele>
        <time>2020-08-28T08:42:18.503Z</time>
      </trkpt>
      <trkpt lat="65.0928" lon="21.08851">
        <ele>92.763703</ele>
        <time>2020-08-28T08:43:48.062Z</time>
      </trkpt>
      <trkpt lat="65.09239" lon="21.0897">
        <ele>93.006475</ele>
        <time>2020-08-28T08:43:59.744Z</time>
      </trkpt>
      <trkpt lat="65.08727" lon="21.09983">
        <ele>94.837982</ele>
        <time>2020-08-28T08:46:08.669Z</time>
      </trkpt>
      <trkpt lat="65.07502" lon="21.12038">
        <ele>72.091881</ele>
        <time>2020-08-28T08:49:47.391Z</time>
      </trkpt>
      <trkpt lat="65.0683" lon="21.13165">
        <ele>67.525879</ele>
        <time>2020-08-28T08:52:03.055Z</time>
      </trkpt>
      <trkpt lat="65.06732" lon="21.1329">
        <ele>67.435987</ele>
        <time>2020-08-28T08:52:22.231Z</time>
      </trkpt>
      <trkpt lat="65.06677" lon="21.1334">
        <ele>67.459398</ele>
        <time>2020-08-28T08:52:33.045Z</time>
      </trkpt>
      <trkpt lat="65.05611" lon="21.14117">
        <ele>74.954611</ele>
        <time>2020-08-28T08:56:16.941Z</time>
      </trkpt>
      <trkpt lat="65.05549" lon="21.14158">
        <ele>75.204114</ele>
        <time>2020-08-28T08:56:29.763Z</time>
      </trkpt>
      <trkpt lat="65.05451" lon="21.14205">
        <ele>75.206202</ele>
        <time>2020-08-28T08:56:47.872Z</time>
      </trkpt>
      <trkpt lat="65.05374" lon="21.14224">
        <ele>74.50278</ele>
        <time>2020-08-28T08:57:00.304Z</time>
      </trkpt>
      <trkpt lat="65.04434" lon="21.14344">
        <ele>60.34515</ele>
        <time>2020-08-28T08:59:17.789Z</time>
      </trkpt>
      <trkpt lat="65.04353" lon="21.14342">
        <ele>59.473674</ele>
        <time>2020-08-28T08:59:30.473Z</time>
      </trkpt>
      <trkpt lat="65.04146" lon="21.14237">
        <ele>57.711594</ele>
        <time>2020-08-28T09:00:04.027Z</time>
      </trkpt>
      <trkpt lat="65.04088" lon="21.14229">
        <ele>57.252368</ele>
        <time>2020-08-28T09:00:13.191Z</time>
      </trkpt>
      <trkpt lat="65.04003" lon="21.14241">
        <ele>56.808867</ele>
        <time>2020-08-28T09:00:26.759Z</time>
      </trkpt>
      <trkpt lat="65.03948" lon="21.14279">
        <ele>56.639527</ele>
        <time>2020-08-28T09:00:36.346Z</time>
      </trkpt>
      <trkpt lat="65.03888" lon="21.1435">
        <ele>56.443971</ele>
        <time>2020-08-28T09:00:47.995Z</time>
      </trkpt>
      <trkpt lat="65.03785" lon="21.14499">
        <ele>57.442346</ele>
        <time>2020-08-28T09:01:12.076Z</time>
      </trkpt>
      <trkpt lat="65.03742" lon="21.146">
        <ele>58.004758</ele>
        <time>2020-08-28T09:01:25.525Z</time>
      </trkpt>
      <trkpt lat="65.03584" lon="21.15034">
        <ele>61.34779</ele>
        <time>2020-08-28T09:02:21.580Z</time>
      </trkpt>
      <trkpt lat="65.03498" lon="21.15229">
        <ele>62.184844</ele>
        <time>2020-08-28T09:02:44.543Z</time>
      </trkpt>
      <trkpt lat="65.03377" lon="21.15462">
        <ele>61.995176</ele>
        <time>2020-08-28T09:03:11.024Z</time>
      </trkpt>
      <trkpt lat="65.03338" lon="21.15513">
        <ele>61.965062</ele>
        <time>2020-08-28T09:03:18.847Z</time>
      </trkpt>
      <trkpt lat="65.03304" lon="21.15545">
        <ele>62.027732</ele>
        <time>2020-08-28T09:03:25.486Z</time>
      </trkpt>
      <trkpt lat="65.03271" lon="21.15562">
        <ele>62.084495</ele>
        <time>2020-08-28T09:03:31.607Z</time>
      </trkpt>
      <trkpt lat="65.03227" lon="21.15556">
        <ele>62.158819</ele>
        <time>2020-08-28T09:03:39.789Z</time>
      </trkpt>
      <trkpt lat="65.03165" lon="21.15521">
        <ele>62.277053</ele>
        <time>2020-08-28T09:03:51.865Z</time>
      </trkpt>
      <trkpt lat="65.03118" lon="21.15478">
        <ele>62.404751</ele>
        <time>2020-08-28T09:04:01.203Z</time>
      </trkpt>
      <trkpt lat="65.03065" lon="21.15413">
        <ele>62.55945</ele>
        <time>2020-08-28T09:04:12.340Z</time>
      </trkpt>
      <trkpt lat="65.02987" lon="21.15294">
        <ele>62.878472</ele>
        <time>2020-08-28T09:04:29.686Z</time>
      </trkpt>
      <trkpt lat="65.02948" lon="21.15272">
        <ele>63.078412</ele>
        <time>2020-08-28T09:04:37.346Z</time>
      </trkpt>
      <trkpt lat="65.02492" lon="21.15301">
        <ele>65.145352</ele>
        <time>2020-08-28T09:06:06.630Z</time>
      </trkpt>
      <trkpt lat="65.01777" lon="21.15363">
        <ele>62.135795</ele>
        <time>2020-08-28T09:08:05.122Z</time>
      </trkpt>
      <trkpt lat="65.01744" lon="21.15361">
        <ele>62.016985</ele>
        <time>2020-08-28T09:08:10.665Z</time>
      </trkpt>
      <trkpt lat="65.01636" lon="21.15345">
        <ele>61.69192</ele>
        <time>2020-08-28T09:08:28.959Z</time>
      </trkpt>
      <trkpt lat="65.01072" lon="21.15096">
        <ele>60.774961</ele>
        <time>2020-08-28T09:10:08.932Z</time>
      </trkpt>
      <trkpt lat="65.00783" lon="21.14832">
        <ele>59.975726</ele>
        <time>2020-08-28T09:11:01.991Z</time>
      </trkpt>
      <trkpt lat="65.00556" lon="21.14704">
        <ele>58.538864</ele>
        <time>2020-08-28T09:11:40.327Z</time>
      </trkpt>
      <trkpt lat="65.00272" lon="21.1462">
        <ele>54.243223</ele>
        <time>2020-08-28T09:12:21.385Z</time>
      </trkpt>
      <trkpt lat="65.00227" lon="21.14615">
        <ele>53.696113</ele>
        <time>2020-08-28T09:12:28.171Z</time>
      </trkpt>
      <trkpt lat="65.00192" lon="21.14634">
        <ele>53.255319</ele>
        <time>2020-08-28T09:12:33.897Z</time>
      </trkpt>
      <trkpt lat="64.99958" lon="21.15014">
        <ele>53.886258</ele>
        <time>2020-08-28T09:13:27.913Z</time>
      </trkpt>
      <trkpt lat="64.998" lon="21.15251">
        <ele>54.143409</ele>
        <time>2020-08-28T09:14:03.067Z</time>
      </trkpt>
      <trkpt lat="64.99731" lon="21.15374">
        <ele>54.034844</ele>
        <time>2020-08-28T09:14:17.544Z</time>
      </trkpt>
      <trkpt lat="64.99566" lon="21.15821">
        <ele>51.909326</ele>
        <time>2020-08-28T09:14:56.641Z</time>
      </trkpt>
      <trkpt lat="64.99507" lon="21.15947">
        <ele>51.259156</ele>
        <time>2020-08-28T09:15:09.180Z</time>
      </trkpt>
      <trkpt lat="64.99428" lon="21.1608">
        <ele>50.593124</ele>
        <time>2020-08-28T09:15:24.955Z</time>
      </trkpt>
      <trkpt lat="64.99385" lon="21.16154">
        <ele>50.244923</ele>
        <time>2020-08-28T09:15:33.667Z</time>
      </trkpt>
      <trkpt lat="64.99356" lon="21.16192">
        <ele>50.029366</ele>
        <time>2020-08-28T09:15:39.036Z</time>
      </trkpt>
      <trkpt lat="64.98919" lon="21.16515">
        <ele>46.193344</ele>
        <time>2020-08-28T09:16:51.316Z</time>
      </trkpt>
      <trkpt lat="64.98878" lon="21.16567">
        <ele>45.792117</ele>
        <time>2020-08-28T09:16:58.739Z</time>
      </trkpt>
      <trkpt lat="64.98779" lon="21.1675">
        <ele>44.455019</ele>
        <time>2020-08-28T09:17:18.214Z</time>
      </trkpt>
      <trkpt lat="64.98551" lon="21.17145">
        <ele>40.905678</ele>
        <time>2020-08-28T09:18:00.407Z</time>
      </trkpt>
      <trkpt lat="64.98525" lon="21.17187">
        <ele>40.813617</ele>
        <time>2020-08-28T09:18:05.293Z</time>
      </trkpt>
      <trkpt lat="64.98497" lon="21.17214">
        <ele>40.739551</ele>
        <time>2020-08-28T09:18:10.049Z</time>
      </trkpt>
      <trkpt lat="64.97792" lon="21.17745">
        <ele>38.744103</ele>
        <time>2020-08-28T09:20:18.913Z</time>
      </trkpt>
      <trkpt lat="64.97541" lon="21.17902">
        <ele>35.94602</ele>
        <time>2020-08-28T09:20:58.428Z</time>
      </trkpt>
      <trkpt lat="64.97512" lon="21.17919">
        <ele>35.456633</ele>
        <time>2020-08-28T09:21:02.685Z</time>
      </trkpt>
      <trkpt lat="64.9748" lon="21.17922">
        <ele>34.721063</ele>
        <time>2020-08-28T09:21:07.313Z</time>
      </trkpt>
      <trkpt lat="64.96871" lon="21.17911">
        <ele>21.762295</ele>
        <time>2020-08-28T09:22:31.137Z</time>
      </trkpt>
      <trkpt lat="64.965" lon="21.17811">
        <ele>19.814356</ele>
        <time>2020-08-28T09:23:34.521Z</time>
      </trkpt>
      <trkpt lat="64.96247" lon="21.17735">
        <ele>19.538184</ele>
        <time>2020-08-28T09:24:19.656Z</time>
      </trkpt>
      <trkpt lat="64.96154" lon="21.17713">
        <ele>19.392337</ele>
        <time>2020-08-28T09:24:35.642Z</time>
      </trkpt>
      <trkpt lat="64.96142" lon="21.17771">
        <ele>19.350453</ele>
        <time>2020-08-28T09:24:40.206Z</time>
      </trkpt>
      <trkpt lat="64.96001" lon="21.18419">
        <ele>19.354136</ele>
        <time>2020-08-28T09:25:34.973Z</time>
      </trkpt>
      <trkpt lat="64.95976" lon="21.18564">
        <ele>19.44582</ele>
        <time>2020-08-28T09:25:47.478Z</time>
      </trkpt>
      <trkpt lat="64.95973" lon="21.18587">
        <ele>19.459548</ele>
        <time>2020-08-28T09:25:49.441Z</time>
      </trkpt>
      <trkpt lat="64.9597" lon="21.18627">
        <ele>19.488155</ele>
        <time>2020-08-28T09:25:52.682Z</time>
      </trkpt>
      <trkpt lat="64.95966" lon="21.18729">
        <ele>19.598675</ele>
        <time>2020-08-28T09:26:00.871Z</time>
      </trkpt>
      <trkpt lat="64.95966" lon="21.18756">
        <ele>19.627182</ele>
        <time>2020-08-28T09:26:03.087Z</time>
      </trkpt>
      <trkpt lat="64.95928" lon="21.18792">
        <ele>19.731404</ele>
        <time>2020-08-28T09:26:11.133Z</time>
      </trkpt>
      <trkpt lat="64.95893" lon="21.18916">
        <ele>19.89243</ele>
        <time>2020-08-28T09:26:23.404Z</time>
      </trkpt>
      <trkpt lat="64.95888" lon="21.18931">
        <ele>19.912233</ele>
        <time>2020-08-28T09:26:24.879Z</time>
      </trkpt>
      <trkpt lat="64.9588" lon="21.18966">
        <ele>19.926959</ele>
        <time>2020-08-28T09:26:28.104Z</time>
      </trkpt>
      <trkpt lat="64.95776" lon="21.19375">
        <ele>19.455605</ele>
        <time>2020-08-28T09:27:04.990Z</time>
      </trkpt>
      <trkpt lat="64.95706" lon="21.19264">
        <ele>18.572221</ele>
        <time>2020-08-28T09:27:19.043Z</time>
      </trkpt>
      <trkpt lat="64.95648" lon="21.19178">
        <ele>17.807293</ele>
        <time>2020-08-28T09:27:29.512Z</time>
      </trkpt>
      <trkpt lat="64.95615" lon="21.19302">
        <ele>16.163531</ele>
        <time>2020-08-28T09:27:38.391Z</time>
      </trkpt>
      <trkpt lat="64.95614" lon="21.1931">
        <ele>16.067917</ele>
        <time>2020-08-28T09:27:38.867Z</time>
      </trkpt>
      <trkpt lat="64.95602" lon="21.19362">
        <ele>15.407036</ele>
        <time>2020-08-28T09:27:42.351Z</time>
      </trkpt>
      <trkpt lat="64.95598" lon="21.19381">
        <ele>15.158118</ele>
        <time>2020-08-28T09:27:43.639Z</time>
      </trkpt>
      <trkpt lat="64.95596" lon="21.19388">
        <ele>15.075965</ele>
        <time>2020-08-28T09:27:44.061Z</time>
      </trkpt>
      <trkpt lat="64.95557" lon="21.1953">
        <ele>13.165859</ele>
        <time>2020-08-28T09:27:54.022Z</time>
      </trkpt>
      <trkpt lat="64.95547" lon="21.19572">
        <ele>12.726691</ele>
        <time>2020-08-28T09:27:56.889Z</time>
      </trkpt>
      <trkpt lat="64.9554" lon="21.196">
        <ele>12.436848</ele>
        <time>2020-08-28T09:27:58.722Z</time>
      </trkpt>
      <trkpt lat="64.95535" lon="21.1962">
        <ele>12.231943</ele>
        <time>2020-08-28T09:28:00.082Z</time>
      </trkpt>
      <trkpt lat="64.95524" lon="21.1965">
        <ele>11.882855</ele>
        <time>2020-08-28T09:28:02.526Z</time>
      </trkpt>
      <trkpt lat="64.95491" lon="21.19688">
        <ele>11.119367</ele>
        <time>2020-08-28T09:28:07.829Z</time>
      </trkpt>
      <trkpt lat="64.95479" lon="21.197">
        <ele>10.848107</ele>
        <time>2020-08-28T09:28:09.723Z</time>
      </trkpt>
      <trkpt lat="64.95456" lon="21.19716">
        <ele>10.369037</ele>
        <time>2020-08-28T09:28:13.247Z</time>
      </trkpt>
      <trkpt lat="64.95442" lon="21.1973">
        <ele>10.038437</ele>
        <time>2020-08-28T09:28:15.627Z</time>
      </trkpt>
      <trkpt lat="64.95435" lon="21.19736">
        <ele>9.882465</ele>
        <time>2020-08-28T09:28:16.812Z</time>
      </trkpt>
      <trkpt lat="64.95428" lon="21.19749">
        <ele>9.696718</ele>
        <time>2020-08-28T09:28:18.236Z</time>
      </trkpt>
      <trkpt lat="64.95407" lon="21.19791">
        <ele>9.292049</ele>
        <time>2020-08-28T09:28:22.690Z</time>
      </trkpt>
      <trkpt lat="64.95399" lon="21.19815">
        <ele>9.209585</ele>
        <time>2020-08-28T09:28:24.884Z</time>
      </trkpt>
      <trkpt lat="64.95385" lon="21.19887">
        <ele>8.98981</ele>
        <time>2020-08-28T09:28:30.520Z</time>
      </trkpt>
      <trkpt lat="64.95376" lon="21.1993">
        <ele>8.856375</ele>
        <time>2020-08-28T09:28:33.851Z</time>
      </trkpt>
      <trkpt lat="64.95373" lon="21.19942">
        <ele>8.819085</ele>
        <time>2020-08-28T09:28:34.873Z</time>
      </trkpt>
      <trkpt lat="64.95359" lon="21.20006">
        <ele>8.619695</ele>
        <time>2020-08-28T09:28:40.064Z</time>
      </trkpt>
      <trkpt lat="64.95338" lon="21.20082">
        <ele>8.367358</ele>
        <time>2020-08-28T09:28:46.791Z</time>
      </trkpt>
      <trkpt lat="64.9532" lon="21.20109">
        <ele>8.231424</ele>
        <time>2020-08-28T09:28:50.420Z</time>
      </trkpt>
      <trkpt lat="64.95299" lon="21.20146">
        <ele>8.151818</ele>
        <time>2020-08-28T09:28:55.178Z</time>
      </trkpt>
      <trkpt lat="64.95285" lon="21.20176">
        <ele>8.11756</ele>
        <time>2020-08-28T09:28:58.437Z</time>
      </trkpt>
      <trkpt lat="64.95267" lon="21.20218">
        <ele>8.070069</ele>
        <time>2020-08-28T09:29:02.978Z</time>
      </trkpt>
      <trkpt lat="64.95222" lon="21.20102">
        <ele>7.944356</ele>
        <time>2020-08-28T09:29:14.879Z</time>
      </trkpt>
      <trkpt lat="64.95175" lon="21.19991">
        <ele>7.918997</ele>
        <time>2020-08-28T09:29:27.239Z</time>
      </trkpt>
      <trkpt lat="64.95166" lon="21.19972">
        <ele>7.960453</ele>
        <time>2020-08-28T09:29:29.497Z</time>
      </trkpt>
      <trkpt lat="64.95158" lon="21.1991">
        <ele>8.061278</ele>
        <time>2020-08-28T09:29:34.848Z</time>
      </trkpt>
      <trkpt lat="64.95152" lon="21.19856">
        <ele>8.146412</ele>
        <time>2020-08-28T09:29:39.479Z</time>
      </trkpt>
      <trkpt lat="64.95145" lon="21.19796">
        <ele>8.242831</ele>
        <time>2020-08-28T09:29:44.809Z</time>
      </trkpt>
      <trkpt lat="64.95091" lon="21.19786">
        <ele>8.438305</ele>
        <time>2020-08-28T09:29:55.658Z</time>
      </trkpt>
      <trkpt lat="64.95079" lon="21.19786">
        <ele>8.48128</ele>
        <time>2020-08-28T09:29:58.084Z</time>
      </trkpt>
      <trkpt lat="64.95054" lon="21.19784">
        <ele>8.60232</ele>
        <time>2020-08-28T09:30:03.160Z</time>
      </trkpt>
      <trkpt lat="64.95035" lon="21.19796">
        <ele>8.708858</ele>
        <time>2020-08-28T09:30:07.206Z</time>
      </trkpt>
      <trkpt lat="64.95016" lon="21.19812">
        <ele>8.818061</ele>
        <time>2020-08-28T09:30:11.417Z</time>
      </trkpt>
      <trkpt lat="64.95005" lon="21.19821">
        <ele>8.877424</ele>
        <time>2020-08-28T09:30:13.707Z</time>
      </trkpt>
      <trkpt lat="64.94974" lon="21.19852">
        <ele>9.058395</ele>
        <time>2020-08-28T09:30:20.657Z</time>
      </trkpt>
      <trkpt lat="64.94966" lon="21.19859">
        <ele>9.10382</ele>
        <time>2020-08-28T09:30:22.387Z</time>
      </trkpt>
      <trkpt lat="64.94932" lon="21.19892">
        <ele>9.300894</ele>
        <time>2020-08-28T09:30:29.844Z</time>
      </trkpt>
      <trkpt lat="64.94905" lon="21.19919">
        <ele>9.459048</ele>
        <time>2020-08-28T09:30:35.747Z</time>
      </trkpt>
      <trkpt lat="64.94872" lon="21.19951">
        <ele>9.484469</ele>
        <time>2020-08-28T09:30:42.659Z</time>
      </trkpt>
      <trkpt lat="64.94854" lon="21.19968">
        <ele>9.492953</ele>
        <time>2020-08-28T09:30:46.329Z</time>
      </trkpt>
      <trkpt lat="64.94768" lon="21.20056">
        <ele>9.533352</ele>
        <time>2020-08-28T09:31:03.260Z</time>
      </trkpt>
      <trkpt lat="64.94757" lon="21.20056">
        <ele>9.538408</ele>
        <time>2020-08-28T09:31:05.286Z</time>
      </trkpt>
      <trkpt lat="64.94736" lon="21.20084">
        <ele>9.538654</ele>
        <time>2020-08-28T09:31:09.546Z</time>
      </trkpt>
      <trkpt lat="64.94676" lon="21.20148">
        <ele>9.25943</ele>
        <time>2020-08-28T09:31:20.977Z</time>
      </trkpt>
      <trkpt lat="64.94652" lon="21.20171">
        <ele>9.149847</ele>
        <time>2020-08-28T09:31:25.391Z</time>
      </trkpt>
      <trkpt lat="64.94521" lon="21.20293">
        <ele>8.706676</ele>
        <time>2020-08-28T09:31:49.483Z</time>
      </trkpt>
      <trkpt lat="64.9443" lon="21.20377">
        <ele>8.565586</ele>
        <time>2020-08-28T09:32:07.417Z</time>
      </trkpt>
      <trkpt lat="64.94396" lon="21.20408">
        <ele>8.571474</ele>
        <time>2020-08-28T09:32:14.496Z</time>
      </trkpt>
      <trkpt lat="64.94362" lon="21.20442">
        <ele>8.753666</ele>
        <time>2020-08-28T09:32:21.719Z</time>
      </trkpt>
      <trkpt lat="64.94322" lon="21.2048">
        <ele>8.969137</ele>
        <time>2020-08-28T09:32:30.548Z</time>
      </trkpt>
      <trkpt lat="64.94247" lon="21.20553">
        <ele>9.371732</ele>
        <time>2020-08-28T09:32:47.276Z</time>
      </trkpt>
      <trkpt lat="64.94218" lon="21.20592">
        <ele>9.514879</ele>
        <time>2020-08-28T09:32:54.190Z</time>
      </trkpt>
      <trkpt lat="64.94187" lon="21.20643">
        <ele>9.665755</ele>
        <time>2020-08-28T09:33:01.932Z</time>
      </trkpt>
      <trkpt lat="64.94144" lon="21.20727">
        <ele>9.8856</ele>
        <time>2020-08-28T09:33:12.887Z</time>
      </trkpt>
      <trkpt lat="64.93545" lon="21.21874">
        <ele>11.848515</ele>
        <time>2020-08-28T09:35:41.611Z</time>
      </trkpt>
      <trkpt lat="64.93385" lon="21.22178">
        <ele>13.269675</ele>
        <time>2020-08-28T09:36:25.047Z</time>
      </trkpt>
      <trkpt lat="64.93287" lon="21.22365">
        <ele>14.189594</ele>
        <time>2020-08-28T09:36:51.154Z</time>
      </trkpt>
      <trkpt lat="64.93259" lon="21.22417">
        <ele>14.449067</ele>
        <time>2020-08-28T09:36:58.615Z</time>
      </trkpt>
      <trkpt lat="64.93238" lon="21.2244">
        <ele>14.717293</ele>
        <time>2020-08-28T09:37:03.501Z</time>
      </trkpt>
      <trkpt lat="64.93207" lon="21.22452">
        <ele>15.121016</ele>
        <time>2020-08-28T09:37:10.491Z</time>
      </trkpt>
      <trkpt lat="64.9319" lon="21.22444">
        <ele>15.329475</ele>
        <time>2020-08-28T09:37:14.155Z</time>
      </trkpt>
      <trkpt lat="64.92837" lon="21.2218">
        <ele>19.895803</ele>
        <time>2020-08-28T09:38:40.201Z</time>
      </trkpt>
      <trkpt lat="64.92811" lon="21.22146">
        <ele>20.103258</ele>
        <time>2020-08-28T09:38:46.399Z</time>
      </trkpt>
      <trkpt lat="64.92624" lon="21.21841">
        <ele>20.261315</ele>
        <time>2020-08-28T09:39:27.854Z</time>
      </trkpt>
      <trkpt lat="64.9258" lon="21.21781">
        <ele>20.005484</ele>
        <time>2020-08-28T09:39:36.513Z</time>
      </trkpt>
      <trkpt lat="64.92543" lon="21.21748">
        <ele>19.703167</ele>
        <time>2020-08-28T09:39:43.267Z</time>
      </trkpt>
      <trkpt lat="64.925" lon="21.21727">
        <ele>19.369712</ele>
        <time>2020-08-28T09:39:50.591Z</time>
      </trkpt>
      <trkpt lat="64.9245" lon="21.21724">
        <ele>18.989323</ele>
        <time>2020-08-28T09:39:58.757Z</time>
      </trkpt>
      <trkpt lat="64.92422" lon="21.21727">
        <ele>18.709101</ele>
        <time>2020-08-28T09:40:03.310Z</time>
      </trkpt>
      <trkpt lat="64.9238" lon="21.21747">
        <ele>18.068149</ele>
        <time>2020-08-28T09:40:10.092Z</time>
      </trkpt>
      <trkpt lat="64.92077" lon="21.21999">
        <ele>13.104898</ele>
        <time>2020-08-28T09:40:58.979Z</time>
      </trkpt>
      <trkpt lat="64.91906" lon="21.22137">
        <ele>11.584586</ele>
        <time>2020-08-28T09:41:28.117Z</time>
      </trkpt>
      <trkpt lat="64.919" lon="21.22134">
        <ele>11.634007</ele>
        <time>2020-08-28T09:41:30.081Z</time>
      </trkpt>
      <trkpt lat="64.91893" lon="21.22124">
        <ele>11.698138</ele>
        <time>2020-08-28T09:41:32.552Z</time>
      </trkpt>
      <trkpt lat="64.91862" lon="21.21955">
        <ele>12.304791</ele>
        <time>2020-08-28T09:41:57.497Z</time>
      </trkpt>
      <trkpt lat="64.91841" lon="21.2192">
        <ele>12.502729</ele>
        <time>2020-08-28T09:42:06.171Z</time>
      </trkpt>
      <trkpt lat="64.91822" lon="21.21901">
        <ele>12.660312</ele>
        <time>2020-08-28T09:42:13.163Z</time>
      </trkpt>
      <trkpt lat="64.91706" lon="21.21853">
        <ele>14.050827</ele>
        <time>2020-08-28T09:42:55.186Z</time>
      </trkpt>
      <trkpt lat="64.91581" lon="21.21693">
        <ele>15.334266</ele>
        <time>2020-08-28T09:43:41.547Z</time>
      </trkpt>
      <trkpt lat="64.91436" lon="21.21515">
        <ele>15.889098</ele>
        <time>2020-08-28T09:44:29.592Z</time>
      </trkpt>
      <trkpt lat="64.91355" lon="21.21413">
        <ele>16.582914</ele>
        <time>2020-08-28T09:44:58.997Z</time>
      </trkpt>
      <trkpt lat="64.91297" lon="21.21346">
        <ele>17.12933</ele>
        <time>2020-08-28T09:45:20.986Z</time>
      </trkpt>
      <trkpt lat="64.91219" lon="21.21238">
        <ele>18.26269</ele>
        <time>2020-08-28T09:45:52.558Z</time>
      </trkpt>
      <trkpt lat="64.91173" lon="21.21152">
        <ele>18.989369</ele>
        <time>2020-08-28T09:46:12.058Z</time>
      </trkpt>
      <trkpt lat="64.91111" lon="21.21018">
        <ele>19.478573</ele>
        <time>2020-08-28T09:46:38.939Z</time>
      </trkpt>
      <trkpt lat="64.91087" lon="21.20979">
        <ele>19.593991</ele>
        <time>2020-08-28T09:46:47.848Z</time>
      </trkpt>
      <trkpt lat="64.91052" lon="21.20929">
        <ele>19.757083</ele>
        <time>2020-08-28T09:47:00.304Z</time>
      </trkpt>
      <trkpt lat="64.90984" lon="21.20864">
        <ele>19.914591</ele>
        <time>2020-08-28T09:47:22.288Z</time>
      </trkpt>
      <trkpt lat="64.90506" lon="21.20556">
        <ele>19.408631</ele>
        <time>2020-08-28T09:49:48.397Z</time>
      </trkpt>
      <trkpt lat="64.90467" lon="21.20522">
        <ele>19.114997</ele>
        <time>2020-08-28T09:50:00.297Z</time>
      </trkpt>
      <trkpt lat="64.90386" lon="21.20422">
        <ele>18.257283</ele>
        <time>2020-08-28T09:50:25.056Z</time>
      </trkpt>
      <trkpt lat="64.90342" lon="21.20336">
        <ele>17.716871</ele>
        <time>2020-08-28T09:50:40.201Z</time>
      </trkpt>
      <trkpt lat="64.89954" lon="21.1939">
        <ele>9.996635</ele>
        <time>2020-08-28T09:53:06.230Z</time>
      </trkpt>
      <trkpt lat="64.89743" lon="21.18978">
        <ele>11.177282</ele>
        <time>2020-08-28T09:54:30.454Z</time>
      </trkpt>
      <trkpt lat="64.89379" lon="21.18117">
        <ele>21.843609</ele>
        <time>2020-08-28T09:57:42.077Z</time>
      </trkpt>
      <trkpt lat="64.89339" lon="21.18036">
        <ele>22.831926</ele>
        <time>2020-08-28T09:58:01.185Z</time>
      </trkpt>
      <trkpt lat="64.89272" lon="21.17955">
        <ele>23.45204</ele>
        <time>2020-08-28T09:58:26.470Z</time>
      </trkpt>
      <trkpt lat="64.89002" lon="21.17786">
        <ele>21.068665</ele>
        <time>2020-08-28T09:59:41.807Z</time>
      </trkpt>
      <trkpt lat="64.88957" lon="21.17747">
        <ele>20.491321</ele>
        <time>2020-08-28T09:59:54.285Z</time>
      </trkpt>
      <trkpt lat="64.88914" lon="21.17697">
        <ele>19.926859</ele>
        <time>2020-08-28T10:00:06.925Z</time>
      </trkpt>
      <trkpt lat="64.88882" lon="21.17624">
        <ele>19.403961</ele>
        <time>2020-08-28T10:00:18.744Z</time>
      </trkpt>
      <trkpt lat="64.88852" lon="21.1754">
        <ele>18.862042</ele>
        <time>2020-08-28T10:00:31.070Z</time>
      </trkpt>
      <trkpt lat="64.88705" lon="21.17006">
        <ele>17.04986</ele>
        <time>2020-08-28T10:01:45.461Z</time>
      </trkpt>
      <trkpt lat="64.88696" lon="21.16936">
        <ele>17.113093</ele>
        <time>2020-08-28T10:01:54.707Z</time>
      </trkpt>
      <trkpt lat="64.8869" lon="21.16839">
        <ele>17.198208</ele>
        <time>2020-08-28T10:02:07.516Z</time>
      </trkpt>
      <trkpt lat="64.8868" lon="21.16273">
        <ele>19.503302</ele>
        <time>2020-08-28T10:03:28.513Z</time>
      </trkpt>
      <trkpt lat="64.88673" lon="21.16186">
        <ele>19.862968</ele>
        <time>2020-08-28T10:03:41.180Z</time>
      </trkpt>
      <trkpt lat="64.88648" lon="21.16004">
        <ele>20.645306</ele>
        <time>2020-08-28T10:04:08.122Z</time>
      </trkpt>
      <trkpt lat="64.88623" lon="21.15889">
        <ele>21.176081</ele>
        <time>2020-08-28T10:04:25.737Z</time>
      </trkpt>
      <trkpt lat="64.88594" lon="21.15779">
        <ele>21.181003</ele>
        <time>2020-08-28T10:04:42.891Z</time>
      </trkpt>
      <trkpt lat="64.88296" lon="21.14867">
        <ele>20.80918</ele>
        <time>2020-08-28T10:07:06.016Z</time>
      </trkpt>
      <trkpt lat="64.88253" lon="21.14698">
        <ele>20.903259</ele>
        <time>2020-08-28T10:07:30.727Z</time>
      </trkpt>
      <trkpt lat="64.88231" lon="21.14572">
        <ele>20.968184</ele>
        <time>2020-08-28T10:07:48.167Z</time>
      </trkpt>
      <trkpt lat="64.88211" lon="21.14376">
        <ele>21.395266</ele>
        <time>2020-08-28T10:08:14.803Z</time>
      </trkpt>
      <trkpt lat="64.88208" lon="21.14283">
        <ele>21.711695</ele>
        <time>2020-08-28T10:08:27.576Z</time>
      </trkpt>
      <trkpt lat="64.8821" lon="21.13915">
        <ele>22.960206</ele>
        <time>2020-08-28T10:09:19.127Z</time>
      </trkpt>
      <trkpt lat="64.88205" lon="21.13827">
        <ele>23.266489</ele>
        <time>2020-08-28T10:09:31.592Z</time>
      </trkpt>
      <trkpt lat="64.88178" lon="21.13642">
        <ele>23.889161</ele>
        <time>2020-08-28T10:09:58.331Z</time>
      </trkpt>
      <trkpt lat="64.8779" lon="21.11999">
        <ele>22.863996</ele>
        <time>2020-08-28T10:13:52.960Z</time>
      </trkpt>
      <trkpt lat="64.87675" lon="21.1159">
        <ele>21.580199</ele>
        <time>2020-08-28T10:14:50.100Z</time>
      </trkpt>
      <trkpt lat="64.87638" lon="21.11442">
        <ele>21.101241</ele>
        <time>2020-08-28T10:15:10.617Z</time>
      </trkpt>
      <trkpt lat="64.87624" lon="21.11354">
        <ele>21.055165</ele>
        <time>2020-08-28T10:15:22.244Z</time>
      </trkpt>
      <trkpt lat="64.87615" lon="21.1117">
        <ele>20.964624</ele>
        <time>2020-08-28T10:15:45.612Z</time>
      </trkpt>
      <trkpt lat="64.87616" lon="21.11069">
        <ele>20.914846</ele>
        <time>2020-08-28T10:15:58.555Z</time>
      </trkpt>
      <trkpt lat="64.87619" lon="21.10788">
        <ele>20.716907</ele>
        <time>2020-08-28T10:16:33.802Z</time>
      </trkpt>
      <trkpt lat="64.8762" lon="21.10549">
        <ele>20.464109</ele>
        <time>2020-08-28T10:17:03.070Z</time>
      </trkpt>
      <trkpt lat="64.87615" lon="21.10381">
        <ele>20.143268</ele>
        <time>2020-08-28T10:17:23.210Z</time>
      </trkpt>
      <trkpt lat="64.87603" lon="21.10233">
        <ele>19.857125</ele>
        <time>2020-08-28T10:17:41.333Z</time>
      </trkpt>
      <trkpt lat="64.8759" lon="21.10087">
        <ele>19.708413</ele>
        <time>2020-08-28T10:17:59.512Z</time>
      </trkpt>
      <trkpt lat="64.8756" lon="21.09796">
        <ele>19.503707</ele>
        <time>2020-08-28T10:18:36.998Z</time>
      </trkpt>
      <trkpt lat="64.87545" lon="21.09514">
        <ele>19.127733</ele>
        <time>2020-08-28T10:19:12.740Z</time>
      </trkpt>
      <trkpt lat="64.87539" lon="21.09338">
        <ele>18.791441</ele>
        <time>2020-08-28T10:19:33.762Z</time>
      </trkpt>
      <trkpt lat="64.87536" lon="21.09203">
        <ele>18.033872</ele>
        <time>2020-08-28T10:19:49.157Z</time>
      </trkpt>
      <trkpt lat="64.87529" lon="21.09105">
        <ele>17.482752</ele>
        <time>2020-08-28T10:20:00.179Z</time>
      </trkpt>
      <trkpt lat="64.87521" lon="21.09069">
        <ele>17.260701</ele>
        <time>2020-08-28T10:20:04.659Z</time>
      </trkpt>
      <trkpt lat="64.87507" lon="21.0902">
        <ele>16.9218</ele>
        <time>2020-08-28T10:20:11.316Z</time>
      </trkpt>
      <trkpt lat="64.87543" lon="21.08941">
        <ele>16.218155</ele>
        <time>2020-08-28T10:20:18.821Z</time>
      </trkpt>
      <trkpt lat="64.87543" lon="21.08915">
        <ele>16.044995</ele>
        <time>2020-08-28T10:20:20.441Z</time>
      </trkpt>
      <trkpt lat="64.87535" lon="21.08851">
        <ele>15.598605</ele>
        <time>2020-08-28T10:20:24.805Z</time>
      </trkpt>
      <trkpt lat="64.8751" lon="21.08792">
        <ele>15.040577</ele>
        <time>2020-08-28T10:20:30.183Z</time>
      </trkpt>
      <trkpt lat="64.87377" lon="21.08465">
        <ele>12.402201</ele>
        <time>2020-08-28T10:20:59.987Z</time>
      </trkpt>
      <trkpt lat="64.87363" lon="21.0841">
        <ele>12.070548</ele>
        <time>2020-08-28T10:21:04.145Z</time>
      </trkpt>
      <trkpt lat="64.87349" lon="21.08339">
        <ele>11.66205</ele>
        <time>2020-08-28T10:21:09.320Z</time>
      </trkpt>
      <trkpt lat="64.87341" lon="21.08296">
        <ele>11.473813</ele>
        <time>2020-08-28T10:21:12.346Z</time>
      </trkpt>
      <trkpt lat="64.87355" lon="21.07916">
        <ele>10.42015</ele>
        <time>2020-08-28T10:21:38.582Z</time>
      </trkpt>
      <trkpt lat="64.87358" lon="21.07824">
        <ele>10.319754</ele>
        <time>2020-08-28T10:21:45.263Z</time>
      </trkpt>
      <trkpt lat="64.87319" lon="21.07739">
        <ele>10.247593</ele>
        <time>2020-08-28T10:21:54.416Z</time>
      </trkpt>
      <trkpt lat="64.87305" lon="21.07702">
        <ele>10.219117</ele>
        <time>2020-08-28T10:21:58.047Z</time>
      </trkpt>
      <trkpt lat="64.87298" lon="21.07654">
        <ele>10.189805</ele>
        <time>2020-08-28T10:22:01.823Z</time>
      </trkpt>
      <trkpt lat="64.87296" lon="21.07609">
        <ele>10.163577</ele>
        <time>2020-08-28T10:22:05.247Z</time>
      </trkpt>
      <trkpt lat="64.87294" lon="21.07495">
        <ele>10.180868</ele>
        <time>2020-08-28T10:22:14.043Z</time>
      </trkpt>
      <trkpt lat="64.87294" lon="21.07471">
        <ele>10.231165</ele>
        <time>2020-08-28T10:22:15.995Z</time>
      </trkpt>
      <trkpt lat="64.87294" lon="21.07411">
        <ele>10.354458</ele>
        <time>2020-08-28T10:22:20.831Z</time>
      </trkpt>
      <trkpt lat="64.87301" lon="21.07357">
        <ele>10.469501</ele>
        <time>2020-08-28T10:22:25.358Z</time>
      </trkpt>
      <trkpt lat="64.87305" lon="21.0734">
        <ele>10.508312</ele>
        <time>2020-08-28T10:22:26.887Z</time>
      </trkpt>
      <trkpt lat="64.87314" lon="21.07297">
        <ele>10.607908</ele>
        <time>2020-08-28T10:22:30.892Z</time>
      </trkpt>
      <trkpt lat="64.87318" lon="21.0728">
        <ele>10.647147</ele>
        <time>2020-08-28T10:22:32.530Z</time>
      </trkpt>
      <trkpt lat="64.87329" lon="21.07247">
        <ele>10.731619</ele>
        <time>2020-08-28T10:22:36.004Z</time>
      </trkpt>
      <trkpt lat="64.87355" lon="21.07173">
        <ele>10.928284</ele>
        <time>2020-08-28T10:22:44.166Z</time>
      </trkpt>
      <trkpt lat="64.87365" lon="21.07148">
        <ele>11.008571</ele>
        <time>2020-08-28T10:22:47.093Z</time>
      </trkpt>
      <trkpt lat="64.87386" lon="21.07067">
        <ele>11.348326</ele>
        <time>2020-08-28T10:22:55.395Z</time>
      </trkpt>
      <trkpt lat="64.87394" lon="21.07043">
        <ele>11.456401</ele>
        <time>2020-08-28T10:22:58.074Z</time>
      </trkpt>
      <trkpt lat="64.87394" lon="21.06962">
        <ele>11.746641</ele>
        <time>2020-08-28T10:23:05.355Z</time>
      </trkpt>
      <trkpt lat="64.87397" lon="21.06848">
        <ele>12.154289</ele>
        <time>2020-08-28T10:23:15.432Z</time>
      </trkpt>
      <trkpt lat="64.87396" lon="21.06668">
        <ele>12.668581</ele>
        <time>2020-08-28T10:23:30.998Z</time>
      </trkpt>
      <trkpt lat="64.87392" lon="21.0662">
        <ele>12.765987</ele>
        <time>2020-08-28T10:23:35.082Z</time>
      </trkpt>
      <trkpt lat="64.87382" lon="21.0655">
        <ele>12.918227</ele>
        <time>2020-08-28T10:23:41.277Z</time>
      </trkpt>
      <trkpt lat="64.87345" lon="21.06428">
        <ele>13.223478</ele>
        <time>2020-08-28T10:23:53.446Z</time>
      </trkpt>
      <trkpt lat="64.87331" lon="21.06391">
        <ele>13.322659</ele>
        <time>2020-08-28T10:23:57.279Z</time>
      </trkpt>
      <trkpt lat="64.87287" lon="21.06275">
        <ele>13.424409</ele>
        <time>2020-08-28T10:24:09.306Z</time>
      </trkpt>
      <trkpt lat="64.87266" lon="21.06222">
        <ele>13.458231</ele>
        <time>2020-08-28T10:24:14.761Z</time>
      </trkpt>
      <trkpt lat="64.87242" lon="21.06157">
        <ele>13.499279</ele>
        <time>2020-08-28T10:24:21.380Z</time>
      </trkpt>
      <trkpt lat="64.87239" lon="21.06151">
        <ele>13.503056</ele>
        <time>2020-08-28T10:24:21.999Z</time>
      </trkpt>
      <trkpt lat="64.87227" lon="21.06119">
        <ele>13.523641</ele>
        <time>2020-08-28T10:24:25.384Z</time>
      </trkpt>
      <trkpt lat="64.87187" lon="21.06008">
        <ele>13.698736</ele>
        <time>2020-08-28T10:24:36.559Z</time>
      </trkpt>
      <trkpt lat="64.87169" lon="21.0594">
        <ele>13.858857</ele>
        <time>2020-08-28T10:24:42.913Z</time>
      </trkpt>
      <trkpt lat="64.8716" lon="21.05891">
        <ele>13.964308</ele>
        <time>2020-08-28T10:24:47.181Z</time>
      </trkpt>
      <trkpt lat="64.87159" lon="21.05884">
        <ele>13.979159</ele>
        <time>2020-08-28T10:24:47.774Z</time>
      </trkpt>
      <trkpt lat="64.87149" lon="21.05824">
        <ele>14.108482</ele>
        <time>2020-08-28T10:24:53.170Z</time>
      </trkpt>
      <trkpt lat="64.8713" lon="21.05702">
        <ele>14.366263</ele>
        <time>2020-08-28T10:25:04.186Z</time>
      </trkpt>
      <trkpt lat="64.87129" lon="21.05694">
        <ele>14.382232</ele>
        <time>2020-08-28T10:25:04.886Z</time>
      </trkpt>
      <trkpt lat="64.87098" lon="21.05432">
        <ele>15.684382</ele>
        <time>2020-08-28T10:25:29.499Z</time>
      </trkpt>
      <trkpt lat="64.87081" lon="21.05241">
        <ele>16.603735</ele>
        <time>2020-08-28T10:25:48.115Z</time>
      </trkpt>
      <trkpt lat="64.87069" lon="21.05101">
        <ele>17.156021</ele>
        <time>2020-08-28T10:26:01.434Z</time>
      </trkpt>
      <trkpt lat="64.87065" lon="21.05051">
        <ele>17.351689</ele>
        <time>2020-08-28T10:26:06.040Z</time>
      </trkpt>
      <trkpt lat="64.87048" lon="21.04926">
        <ele>17.856936</ele>
        <time>2020-08-28T10:26:17.323Z</time>
      </trkpt>
      <trkpt lat="64.87027" lon="21.0485">
        <ele>18.055063</ele>
        <time>2020-08-28T10:26:24.693Z</time>
      </trkpt>
      <trkpt lat="64.87001" lon="21.04766">
        <ele>17.857593</ele>
        <time>2020-08-28T10:26:32.730Z</time>
      </trkpt>
      <trkpt lat="64.86876" lon="21.04556">
        <ele>17.040708</ele>
        <time>2020-08-28T10:26:57.164Z</time>
      </trkpt>
      <trkpt lat="64.86841" lon="21.04472">
        <ele>16.592053</ele>
        <time>2020-08-28T10:27:04.788Z</time>
      </trkpt>
      <trkpt lat="64.86803" lon="21.04304">
        <ele>15.8575</ele>
        <time>2020-08-28T10:27:17.342Z</time>
      </trkpt>
      <trkpt lat="64.86738" lon="21.03968">
        <ele>14.904367</ele>
        <time>2020-08-28T10:27:42.425Z</time>
      </trkpt>
      <trkpt lat="64.867" lon="21.03772">
        <ele>14.740825</ele>
        <time>2020-08-28T10:27:58.660Z</time>
      </trkpt>
      <trkpt lat="64.86674" lon="21.03622">
        <ele>14.85459</ele>
        <time>2020-08-28T10:28:11.527Z</time>
      </trkpt>
      <trkpt lat="64.86664" lon="21.03546">
        <ele>14.910689</ele>
        <time>2020-08-28T10:28:18.047Z</time>
      </trkpt>
      <trkpt lat="64.86612" lon="21.02935">
        <ele>15.443209</ele>
        <time>2020-08-28T10:29:07.134Z</time>
      </trkpt>
      <trkpt lat="64.86615" lon="21.02825">
        <ele>15.508105</ele>
        <time>2020-08-28T10:29:15.383Z</time>
      </trkpt>
      <trkpt lat="64.86624" lon="21.02673">
        <ele>15.597798</ele>
        <time>2020-08-28T10:29:27.194Z</time>
      </trkpt>
      <trkpt lat="64.86633" lon="21.02612">
        <ele>15.720227</ele>
        <time>2020-08-28T10:29:32.382Z</time>
      </trkpt>
      <trkpt lat="64.86649" lon="21.0255">
        <ele>15.930641</ele>
        <time>2020-08-28T10:29:38.286Z</time>
      </trkpt>
      <trkpt lat="64.86678" lon="21.02456">
        <ele>16.266103</ele>
        <time>2020-08-28T10:29:47.914Z</time>
      </trkpt>
      <trkpt lat="64.86699" lon="21.02375">
        <ele>16.542518</ele>
        <time>2020-08-28T10:29:56.319Z</time>
      </trkpt>
      <trkpt lat="64.86703" lon="21.02358">
        <ele>16.600735</ele>
        <time>2020-08-28T10:29:58.032Z</time>
      </trkpt>
      <trkpt lat="64.86704" lon="21.02351">
        <ele>16.623224</ele>
        <time>2020-08-28T10:29:58.734Z</time>
      </trkpt>
      <trkpt lat="64.86706" lon="21.0234">
        <ele>16.656695</ele>
        <time>2020-08-28T10:29:59.848Z</time>
      </trkpt>
      <trkpt lat="64.86716" lon="21.0228">
        <ele>16.843026</ele>
        <time>2020-08-28T10:30:05.641Z</time>
      </trkpt>
      <trkpt lat="64.86724" lon="21.02241">
        <ele>16.92986</ele>
        <time>2020-08-28T10:30:09.647Z</time>
      </trkpt>
      <trkpt lat="64.86724" lon="21.02224">
        <ele>16.963335</ele>
        <time>2020-08-28T10:30:11.179Z</time>
      </trkpt>
      <trkpt lat="64.86745" lon="21.02144">
        <ele>17.151121</ele>
        <time>2020-08-28T10:30:19.316Z</time>
      </trkpt>
      <trkpt lat="64.86746" lon="21.02123">
        <ele>17.191794</ele>
        <time>2020-08-28T10:30:21.010Z</time>
      </trkpt>
      <trkpt lat="64.86743" lon="21.02115">
        <ele>17.211809</ele>
        <time>2020-08-28T10:30:21.977Z</time>
      </trkpt>
      <trkpt lat="64.86746" lon="21.02105">
        <ele>17.237836</ele>
        <time>2020-08-28T10:30:22.986Z</time>
      </trkpt>
      <trkpt lat="64.86749" lon="21.02099">
        <ele>17.255137</ele>
        <time>2020-08-28T10:30:23.707Z</time>
      </trkpt>
      <trkpt lat="64.86761" lon="21.02095">
        <ele>17.310572</ele>
        <time>2020-08-28T10:30:26.064Z</time>
      </trkpt>
      <trkpt lat="64.86771" lon="21.02077">
        <ele>17.37036</ele>
        <time>2020-08-28T10:30:28.471Z</time>
      </trkpt>
      <trkpt lat="64.86786" lon="21.02022">
        <ele>17.497963</ele>
        <time>2020-08-28T10:30:33.471Z</time>
      </trkpt>
      <trkpt lat="64.86793" lon="21.01951">
        <ele>17.643497</ele>
        <time>2020-08-28T10:30:39.162Z</time>
      </trkpt>
      <trkpt lat="64.86792" lon="21.01938">
        <ele>17.669559</ele>
        <time>2020-08-28T10:30:40.120Z</time>
      </trkpt>
      <trkpt lat="64.86794" lon="21.01926">
        <ele>17.678356</ele>
        <time>2020-08-28T10:30:41.075Z</time>
      </trkpt>
      <trkpt lat="64.86797" lon="21.01915">
        <ele>17.672748</ele>
        <time>2020-08-28T10:30:42.071Z</time>
      </trkpt>
      <trkpt lat="64.86799" lon="21.01912">
        <ele>17.669996</ele>
        <time>2020-08-28T10:30:42.456Z</time>
      </trkpt>
      <trkpt lat="64.86804" lon="21.01885">
        <ele>17.656873</ele>
        <time>2020-08-28T10:30:44.636Z</time>
      </trkpt>
      <trkpt lat="64.86801" lon="21.01858">
        <ele>17.644354</ele>
        <time>2020-08-28T10:30:46.631Z</time>
      </trkpt>
      <trkpt lat="64.86789" lon="21.01812">
        <ele>17.619886</ele>
        <time>2020-08-28T10:30:50.761Z</time>
      </trkpt>
      <trkpt lat="64.86747" lon="21.01708">
        <ele>17.555652</ele>
        <time>2020-08-28T10:31:01.157Z</time>
      </trkpt>
      <trkpt lat="64.86741" lon="21.01674">
        <ele>17.538662</ele>
        <time>2020-08-28T10:31:03.930Z</time>
      </trkpt>
      <trkpt lat="64.86737" lon="21.01603">
        <ele>17.506316</ele>
        <time>2020-08-28T10:31:09.172Z</time>
      </trkpt>
      <trkpt lat="64.8675" lon="21.01593">
        <ele>17.491848</ele>
        <time>2020-08-28T10:31:11.510Z</time>
      </trkpt>
      <trkpt lat="64.86751" lon="21.01586">
        <ele>17.494971</ele>
        <time>2020-08-28T10:31:12.188Z</time>
      </trkpt>
      <trkpt lat="64.8676" lon="21.01561">
        <ele>17.527464</ele>
        <time>2020-08-28T10:31:14.553Z</time>
      </trkpt>
      <trkpt lat="64.86775" lon="21.01526">
        <ele>17.579102</ele>
        <time>2020-08-28T10:31:18.503Z</time>
      </trkpt>
      <trkpt lat="64.86784" lon="21.01513">
        <ele>17.605168</ele>
        <time>2020-08-28T10:31:20.496Z</time>
      </trkpt>
      <trkpt lat="64.86787" lon="21.01509">
        <ele>17.612481</ele>
        <time>2020-08-28T10:31:21.012Z</time>
      </trkpt>
      <trkpt lat="64.8681" lon="21.01472">
        <ele>17.680593</ele>
        <time>2020-08-28T10:31:26.326Z</time>
      </trkpt>
      <trkpt lat="64.86809" lon="21.01457">
        <ele>17.696702</ele>
        <time>2020-08-28T10:31:27.544Z</time>
      </trkpt>
      <trkpt lat="64.86808" lon="21.01442">
        <ele>17.71169</ele>
        <time>2020-08-28T10:31:28.796Z</time>
      </trkpt>
      <trkpt lat="64.868" lon="21.01392">
        <ele>17.766785</ele>
        <time>2020-08-28T10:31:33.348Z</time>
      </trkpt>
      <trkpt lat="64.86776" lon="21.01337">
        <ele>17.848303</ele>
        <time>2020-08-28T10:31:39.972Z</time>
      </trkpt>
      <trkpt lat="64.86766" lon="21.0132">
        <ele>17.879316</ele>
        <time>2020-08-28T10:31:42.424Z</time>
      </trkpt>
      <trkpt lat="64.86757" lon="21.01307">
        <ele>17.903658</ele>
        <time>2020-08-28T10:31:44.380Z</time>
      </trkpt>
      <trkpt lat="64.86745" lon="21.01288">
        <ele>17.973334</ele>
        <time>2020-08-28T10:31:47.223Z</time>
      </trkpt>
      <trkpt lat="64.86707" lon="21.01237">
        <ele>18.395394</ele>
        <time>2020-08-28T10:31:56.070Z</time>
      </trkpt>
      <trkpt lat="64.86677" lon="21.01207">
        <ele>18.702385</ele>
        <time>2020-08-28T10:32:02.834Z</time>
      </trkpt>
      <trkpt lat="64.86641" lon="21.01173">
        <ele>19.063984</ele>
        <time>2020-08-28T10:32:10.804Z</time>
      </trkpt>
      <trkpt lat="64.86614" lon="21.01151">
        <ele>19.33661</ele>
        <time>2020-08-28T10:32:16.919Z</time>
      </trkpt>
      <trkpt lat="64.86609" lon="21.01147">
        <ele>19.389272</ele>
        <time>2020-08-28T10:32:18.111Z</time>
      </trkpt>
      <trkpt lat="64.86602" lon="21.01138">
        <ele>19.463239</ele>
        <time>2020-08-28T10:32:19.911Z</time>
      </trkpt>
      <trkpt lat="64.86599" lon="21.0113">
        <ele>19.510067</ele>
        <time>2020-08-28T10:32:21.075Z</time>
      </trkpt>
      <trkpt lat="64.86592" lon="21.01111">
        <ele>19.609269</ele>
        <time>2020-08-28T10:32:23.653Z</time>
      </trkpt>
      <trkpt lat="64.86573" lon="21.01039">
        <ele>20.838477</ele>
        <time>2020-08-28T10:32:32.855Z</time>
      </trkpt>
      <trkpt lat="64.86559" lon="21.01007">
        <ele>21.552406</ele>
        <time>2020-08-28T10:32:38.168Z</time>
      </trkpt>
      <trkpt lat="64.86501" lon="21.00946">
        <ele>23.852306</ele>
        <time>2020-08-28T10:32:57.428Z</time>
      </trkpt>
      <trkpt lat="64.86482" lon="21.00933">
        <ele>24.556412</ele>
        <time>2020-08-28T10:33:04.473Z</time>
      </trkpt>
      <trkpt lat="64.86435" lon="21.00908">
        <ele>26.299425</ele>
        <time>2020-08-28T10:33:21.005Z</time>
      </trkpt>
      <trkpt lat="64.86379" lon="21.00875">
        <ele>28.435226</ele>
        <time>2020-08-28T10:33:41.361Z</time>
      </trkpt>
      <trkpt lat="64.86364" lon="21.00861">
        <ele>29.031436</ele>
        <time>2020-08-28T10:33:46.194Z</time>
      </trkpt>
      <trkpt lat="64.86361" lon="21.00856">
        <ele>29.159779</ele>
        <time>2020-08-28T10:33:48.114Z</time>
      </trkpt>
      <trkpt lat="64.8634" lon="21.00823">
        <ele>30.086464</ele>
        <time>2020-08-28T10:33:56.063Z</time>
      </trkpt>
      <trkpt lat="64.86306" lon="21.00776">
        <ele>31.521879</ele>
        <time>2020-08-28T10:34:07.793Z</time>
      </trkpt>
      <trkpt lat="64.863" lon="21.00768">
        <ele>31.798826</ele>
        <time>2020-08-28T10:34:10.452Z</time>
      </trkpt>
      <trkpt lat="64.86267" lon="21.00731">
        <ele>32.537093</ele>
        <time>2020-08-28T10:34:18.814Z</time>
      </trkpt>
      <trkpt lat="64.86237" lon="21.00716">
        <ele>31.989921</ele>
        <time>2020-08-28T10:34:24.083Z</time>
      </trkpt>
      <trkpt lat="64.86148" lon="21.00704">
        <ele>30.37217</ele>
        <time>2020-08-28T10:34:37.272Z</time>
      </trkpt>
      <trkpt lat="64.86137" lon="21.00707">
        <ele>30.170554</ele>
        <time>2020-08-28T10:34:38.788Z</time>
      </trkpt>
      <trkpt lat="64.86121" lon="21.00711">
        <ele>29.883206</ele>
        <time>2020-08-28T10:34:40.848Z</time>
      </trkpt>
      <trkpt lat="64.86102" lon="21.00718">
        <ele>29.540351</ele>
        <time>2020-08-28T10:34:43.413Z</time>
      </trkpt>
      <trkpt lat="64.8601" lon="21.00804">
        <ele>25.35192</ele>
        <time>2020-08-28T10:34:56.244Z</time>
      </trkpt>
      <trkpt lat="64.85955" lon="21.00872">
        <ele>22.700591</ele>
        <time>2020-08-28T10:35:04.221Z</time>
      </trkpt>
      <trkpt lat="64.85941" lon="21.00878">
        <ele>22.098162</ele>
        <time>2020-08-28T10:35:06.079Z</time>
      </trkpt>
      <trkpt lat="64.85896" lon="21.0087">
        <ele>20.732272</ele>
        <time>2020-08-28T10:35:12.169Z</time>
      </trkpt>
      <trkpt lat="64.8587" lon="21.00838">
        <ele>19.919172</ele>
        <time>2020-08-28T10:35:16.207Z</time>
      </trkpt>
      <trkpt lat="64.85604" lon="21.00352">
        <ele>12.575558</ele>
        <time>2020-08-28T10:36:05.479Z</time>
      </trkpt>
      <trkpt lat="64.85579" lon="21.00298">
        <ele>12.192898</ele>
        <time>2020-08-28T10:36:10.909Z</time>
      </trkpt>
      <trkpt lat="64.85573" lon="21.00283">
        <ele>12.093185</ele>
        <time>2020-08-28T10:36:12.332Z</time>
      </trkpt>
      <trkpt lat="64.85539" lon="21.00161">
        <ele>11.402796</ele>
        <time>2020-08-28T10:36:22.595Z</time>
      </trkpt>
      <trkpt lat="64.8552" lon="21.00008">
        <ele>11.216595</ele>
        <time>2020-08-28T10:36:34.718Z</time>
      </trkpt>
      <trkpt lat="64.85493" lon="20.99888">
        <ele>11.467116</ele>
        <time>2020-08-28T10:36:46.175Z</time>
      </trkpt>
      <trkpt lat="64.85457" lon="20.9983">
        <ele>11.654249</ele>
        <time>2020-08-28T10:36:55.099Z</time>
      </trkpt>
      <trkpt lat="64.85265" lon="20.99622">
        <ele>13.496905</ele>
        <time>2020-08-28T10:37:41.293Z</time>
      </trkpt>
      <trkpt lat="64.8521" lon="20.99481">
        <ele>14.089881</ele>
        <time>2020-08-28T10:37:59.096Z</time>
      </trkpt>
      <trkpt lat="64.85186" lon="20.99339">
        <ele>14.540138</ele>
        <time>2020-08-28T10:38:12.601Z</time>
      </trkpt>
      <trkpt lat="64.85182" lon="20.99292">
        <ele>14.682254</ele>
        <time>2020-08-28T10:38:16.689Z</time>
      </trkpt>
      <trkpt lat="64.85181" lon="20.99287">
        <ele>14.697233</ele>
        <time>2020-08-28T10:38:17.178Z</time>
      </trkpt>
      <trkpt lat="64.85152" lon="20.99179">
        <ele>14.692978</ele>
        <time>2020-08-28T10:38:27.487Z</time>
      </trkpt>
      <trkpt lat="64.85094" lon="20.9909">
        <ele>14.37321</ele>
        <time>2020-08-28T10:38:39.877Z</time>
      </trkpt>
      <trkpt lat="64.85077" lon="20.99054">
        <ele>14.267449</ele>
        <time>2020-08-28T10:38:43.783Z</time>
      </trkpt>
      <trkpt lat="64.85028" lon="20.98893">
        <ele>13.67321</ele>
        <time>2020-08-28T10:38:57.290Z</time>
      </trkpt>
      <trkpt lat="64.84985" lon="20.98739">
        <ele>12.768142</ele>
        <time>2020-08-28T10:39:09.593Z</time>
      </trkpt>
      <trkpt lat="64.84964" lon="20.98646">
        <ele>12.251819</ele>
        <time>2020-08-28T10:39:16.600Z</time>
      </trkpt>
      <trkpt lat="64.84892" lon="20.98214">
        <ele>10.844947</ele>
        <time>2020-08-28T10:39:49.333Z</time>
      </trkpt>
      <trkpt lat="64.84881" lon="20.98178">
        <ele>10.858903</ele>
        <time>2020-08-28T10:39:53.046Z</time>
      </trkpt>
      <trkpt lat="64.84873" lon="20.98158">
        <ele>10.958204</ele>
        <time>2020-08-28T10:39:55.245Z</time>
      </trkpt>
      <trkpt lat="64.84869" lon="20.9815">
        <ele>11.004792</ele>
        <time>2020-08-28T10:39:56.258Z</time>
      </trkpt>
      <trkpt lat="64.84863" lon="20.98137">
        <ele>11.076641</ele>
        <time>2020-08-28T10:39:57.863Z</time>
      </trkpt>
      <trkpt lat="64.84855" lon="20.98123">
        <ele>11.163396</ele>
        <time>2020-08-28T10:40:00.082Z</time>
      </trkpt>
      <trkpt lat="64.84835" lon="20.98094">
        <ele>11.363904</ele>
        <time>2020-08-28T10:40:04.742Z</time>
      </trkpt>
      <trkpt lat="64.84813" lon="20.98077">
        <ele>11.566638</ele>
        <time>2020-08-28T10:40:09.860Z</time>
      </trkpt>
      <trkpt lat="64.84648" lon="20.98029">
        <ele>13.370967</ele>
        <time>2020-08-28T10:40:48.228Z</time>
      </trkpt>
      <trkpt lat="64.84595" lon="20.98025">
        <ele>14.088368</ele>
        <time>2020-08-28T10:41:00.501Z</time>
      </trkpt>
      <trkpt lat="64.8454" lon="20.98069">
        <ele>14.843355</ele>
        <time>2020-08-28T10:41:13.612Z</time>
      </trkpt>
      <trkpt lat="64.84428" lon="20.9819">
        <ele>16.080124</ele>
        <time>2020-08-28T10:41:40.680Z</time>
      </trkpt>
      <trkpt lat="64.84387" lon="20.98201">
        <ele>16.498998</ele>
        <time>2020-08-28T10:41:49.476Z</time>
      </trkpt>
      <trkpt lat="64.84353" lon="20.98179">
        <ele>16.693441</ele>
        <time>2020-08-28T10:41:56.769Z</time>
      </trkpt>
      <trkpt lat="64.84347" lon="20.98177">
        <ele>16.721701</ele>
        <time>2020-08-28T10:41:58.074Z</time>
      </trkpt>
      <trkpt lat="64.84328" lon="20.9817">
        <ele>16.806541</ele>
        <time>2020-08-28T10:42:02.000Z</time>
      </trkpt>
      <trkpt lat="64.84296" lon="20.98176">
        <ele>16.948916</ele>
        <time>2020-08-28T10:42:08.508Z</time>
      </trkpt>
      <trkpt lat="64.84265" lon="20.98194">
        <ele>17.091569</ele>
        <time>2020-08-28T10:42:14.955Z</time>
      </trkpt>
      <trkpt lat="64.8425" lon="20.98201">
        <ele>17.157221</ele>
        <time>2020-08-28T10:42:17.912Z</time>
      </trkpt>
      <trkpt lat="64.8423" lon="20.98215">
        <ele>17.250729</ele>
        <time>2020-08-28T10:42:22.019Z</time>
      </trkpt>
      <trkpt lat="64.84218" lon="20.98228">
        <ele>17.307613</ele>
        <time>2020-08-28T10:42:24.495Z</time>
      </trkpt>
      <trkpt lat="64.842" lon="20.98255">
        <ele>17.362465</ele>
        <time>2020-08-28T10:42:28.474Z</time>
      </trkpt>
      <trkpt lat="64.84123" lon="20.98386">
        <ele>17.306417</ele>
        <time>2020-08-28T10:42:45.906Z</time>
      </trkpt>
      <trkpt lat="64.84117" lon="20.98402">
        <ele>17.301039</ele>
        <time>2020-08-28T10:42:47.578Z</time>
      </trkpt>
      <trkpt lat="64.84108" lon="20.98474">
        <ele>17.282415</ele>
        <time>2020-08-28T10:42:53.360Z</time>
      </trkpt>
      <trkpt lat="64.84102" lon="20.98561">
        <ele>17.253385</ele>
        <time>2020-08-28T10:43:00.332Z</time>
      </trkpt>
      <trkpt lat="64.84029" lon="20.98534">
        <ele>16.93027</ele>
        <time>2020-08-28T10:43:13.483Z</time>
      </trkpt>
      <trkpt lat="64.83956" lon="20.98505">
        <ele>16.609572</ele>
        <time>2020-08-28T10:43:26.040Z</time>
      </trkpt>
      <trkpt lat="64.83918" lon="20.98493">
        <ele>16.369317</ele>
        <time>2020-08-28T10:43:32.569Z</time>
      </trkpt>
      <trkpt lat="64.83839" lon="20.98465">
        <ele>15.264303</ele>
        <time>2020-08-28T10:43:45.736Z</time>
      </trkpt>
      <trkpt lat="64.83814" lon="20.98454">
        <ele>14.912669</ele>
        <time>2020-08-28T10:43:49.600Z</time>
      </trkpt>
      <trkpt lat="64.83781" lon="20.9844">
        <ele>14.441241</ele>
        <time>2020-08-28T10:43:54.593Z</time>
      </trkpt>
      <trkpt lat="64.83781" lon="20.98431">
        <ele>14.388553</ele>
        <time>2020-08-28T10:43:55.202Z</time>
      </trkpt>
      <trkpt lat="64.83774" lon="20.98429">
        <ele>14.286791</ele>
        <time>2020-08-28T10:43:56.330Z</time>
      </trkpt>
      <trkpt lat="64.83749" lon="20.98421">
        <ele>13.863456</ele>
        <time>2020-08-28T10:43:59.889Z</time>
      </trkpt>
      <trkpt lat="64.83703" lon="20.98402">
        <ele>12.193223</ele>
        <time>2020-08-28T10:44:06.475Z</time>
      </trkpt>
      <trkpt lat="64.83674" lon="20.98383">
        <ele>11.127337</ele>
        <time>2020-08-28T10:44:10.461Z</time>
      </trkpt>
      <trkpt lat="64.83667" lon="20.98382">
        <ele>10.889238</ele>
        <time>2020-08-28T10:44:11.341Z</time>
      </trkpt>
      <trkpt lat="64.83662" lon="20.98381">
        <ele>10.70098</ele>
        <time>2020-08-28T10:44:11.985Z</time>
      </trkpt>
      <trkpt lat="64.83632" lon="20.98391">
        <ele>9.651189</ele>
        <time>2020-08-28T10:44:15.987Z</time>
      </trkpt>
      <trkpt lat="64.83625" lon="20.98394">
        <ele>9.38451</ele>
        <time>2020-08-28T10:44:16.889Z</time>
      </trkpt>
      <trkpt lat="64.8359" lon="20.98428">
        <ele>8.036538</ele>
        <time>2020-08-28T10:44:21.920Z</time>
      </trkpt>
      <trkpt lat="64.83566" lon="20.98452">
        <ele>7.281733</ele>
        <time>2020-08-28T10:44:25.557Z</time>
      </trkpt>
      <trkpt lat="64.83561" lon="20.98461">
        <ele>7.138462</ele>
        <time>2020-08-28T10:44:26.309Z</time>
      </trkpt>
      <trkpt lat="64.83556" lon="20.98467">
        <ele>7.010246</ele>
        <time>2020-08-28T10:44:27.054Z</time>
      </trkpt>
      <trkpt lat="64.83538" lon="20.98496">
        <ele>6.522617</ele>
        <time>2020-08-28T10:44:30.044Z</time>
      </trkpt>
      <trkpt lat="64.83528" lon="20.98508">
        <ele>6.250672</ele>
        <time>2020-08-28T10:44:31.532Z</time>
      </trkpt>
      <trkpt lat="64.83507" lon="20.98533">
        <ele>5.714691</ele>
        <time>2020-08-28T10:44:34.893Z</time>
      </trkpt>
      <trkpt lat="64.83499" lon="20.98542">
        <ele>5.519232</ele>
        <time>2020-08-28T10:44:36.004Z</time>
      </trkpt>
      <trkpt lat="64.83467" lon="20.98587">
        <ele>4.645979</ele>
        <time>2020-08-28T10:44:41.577Z</time>
      </trkpt>
      <trkpt lat="64.83447" lon="20.9862">
        <ele>4.091128</ele>
        <time>2020-08-28T10:44:45.309Z</time>
      </trkpt>
      <trkpt lat="64.83418" lon="20.9866">
        <ele>3.548419</ele>
        <time>2020-08-28T10:44:51.019Z</time>
      </trkpt>
      <trkpt lat="64.83397" lon="20.98691">
        <ele>3.846669</ele>
        <time>2020-08-28T10:44:55.965Z</time>
      </trkpt>
      <trkpt lat="64.83315" lon="20.98798">
        <ele>4.958605</ele>
        <time>2020-08-28T10:45:17.891Z</time>
      </trkpt>
      <trkpt lat="64.83275" lon="20.98849">
        <ele>5.504885</ele>
        <time>2020-08-28T10:45:29.210Z</time>
      </trkpt>
      <trkpt lat="64.8327" lon="20.9885">
        <ele>5.563707</ele>
        <time>2020-08-28T10:45:30.479Z</time>
      </trkpt>
      <trkpt lat="64.83265" lon="20.98844">
        <ele>5.631274</ele>
        <time>2020-08-28T10:45:31.824Z</time>
      </trkpt>
      <trkpt lat="64.83262" lon="20.98849">
        <ele>5.705905</ele>
        <time>2020-08-28T10:45:32.905Z</time>
      </trkpt>
      <trkpt lat="64.8324" lon="20.98756">
        <ele>6.497087</ele>
        <time>2020-08-28T10:45:44.272Z</time>
      </trkpt>
      <trkpt lat="64.83234" lon="20.98726">
        <ele>6.743347</ele>
        <time>2020-08-28T10:45:47.744Z</time>
      </trkpt>
      <trkpt lat="64.83227" lon="20.9866">
        <ele>7.245753</ele>
        <time>2020-08-28T10:45:54.887Z</time>
      </trkpt>
      <trkpt lat="64.83221" lon="20.98664">
        <ele>7.347621</ele>
        <time>2020-08-28T10:45:56.271Z</time>
      </trkpt>
      <trkpt lat="64.83207" lon="20.98681">
        <ele>7.632696</ele>
        <time>2020-08-28T10:46:00.229Z</time>
      </trkpt>
      <trkpt lat="64.83188" lon="20.98706">
        <ele>8.009025</ele>
        <time>2020-08-28T10:46:05.178Z</time>
      </trkpt>
      <trkpt lat="64.83176" lon="20.98722">
        <ele>8.253986</ele>
        <time>2020-08-28T10:46:08.487Z</time>
      </trkpt>
      <trkpt lat="64.83141" lon="20.98769">
        <ele>8.822745</ele>
        <time>2020-08-28T10:46:17.333Z</time>
      </trkpt>
      <trkpt lat="64.83116" lon="20.98799">
        <ele>8.991798</ele>
        <time>2020-08-28T10:46:23.273Z</time>
      </trkpt>
      <trkpt lat="64.83098" lon="20.98812">
        <ele>9.10682</ele>
        <time>2020-08-28T10:46:27.131Z</time>
      </trkpt>
      <trkpt lat="64.8309" lon="20.98816">
        <ele>9.155305</ele>
        <time>2020-08-28T10:46:28.720Z</time>
      </trkpt>
      <trkpt lat="64.8308" lon="20.98822">
        <ele>9.219049</ele>
        <time>2020-08-28T10:46:30.908Z</time>
      </trkpt>
      <trkpt lat="64.83038" lon="20.98843">
        <ele>9.47403</ele>
        <time>2020-08-28T10:46:38.988Z</time>
      </trkpt>
      <trkpt lat="64.82982" lon="20.98845">
        <ele>9.812596</ele>
        <time>2020-08-28T10:46:49.091Z</time>
      </trkpt>
      <trkpt lat="64.82966" lon="20.98842">
        <ele>9.90285</ele>
        <time>2020-08-28T10:46:52.000Z</time>
      </trkpt>
      <trkpt lat="64.82897" lon="20.98833">
        <ele>10.273766</ele>
        <time>2020-08-28T10:47:04.901Z</time>
      </trkpt>
      <trkpt lat="64.82856" lon="20.98828">
        <ele>10.492792</ele>
        <time>2020-08-28T10:47:12.911Z</time>
      </trkpt>
      <trkpt lat="64.82819" lon="20.98821">
        <ele>10.689519</ele>
        <time>2020-08-28T10:47:20.356Z</time>
      </trkpt>
      <trkpt lat="64.82785" lon="20.98811">
        <ele>11.101681</ele>
        <time>2020-08-28T10:47:27.525Z</time>
      </trkpt>
      <trkpt lat="64.82761" lon="20.98796">
        <ele>11.65079</ele>
        <time>2020-08-28T10:47:32.973Z</time>
      </trkpt>
      <trkpt lat="64.82707" lon="20.98738">
        <ele>12.9775</ele>
        <time>2020-08-28T10:47:47.111Z</time>
      </trkpt>
      <trkpt lat="64.82646" lon="20.98615">
        <ele>14.755848</ele>
        <time>2020-08-28T10:48:08.807Z</time>
      </trkpt>
      <trkpt lat="64.8263" lon="20.98555">
        <ele>16.258155</ele>
        <time>2020-08-28T10:48:17.489Z</time>
      </trkpt>
      <trkpt lat="64.82602" lon="20.98453">
        <ele>18.927382</ele>
        <time>2020-08-28T10:48:34.233Z</time>
      </trkpt>
      <trkpt lat="64.82592" lon="20.9842">
        <ele>19.806618</ele>
        <time>2020-08-28T10:48:40.212Z</time>
      </trkpt>
      <trkpt lat="64.82583" lon="20.98388">
        <ele>20.650826</ele>
        <time>2020-08-28T10:48:46.185Z</time>
      </trkpt>
      <trkpt lat="64.82561" lon="20.98325">
        <ele>22.407005</ele>
        <time>2020-08-28T10:48:58.904Z</time>
      </trkpt>
      <trkpt lat="64.82531" lon="20.98254">
        <ele>24.851139</ele>
        <time>2020-08-28T10:49:15.703Z</time>
      </trkpt>
      <trkpt lat="64.82502" lon="20.98192">
        <ele>27.660616</ele>
        <time>2020-08-28T10:49:31.458Z</time>
      </trkpt>
      <trkpt lat="64.82393" lon="20.97985">
        <ele>37.658698</ele>
        <time>2020-08-28T10:50:30.188Z</time>
      </trkpt>
      <trkpt lat="64.82289" lon="20.97887">
        <ele>45.056184</ele>
        <time>2020-08-28T10:51:14.229Z</time>
      </trkpt>
      <trkpt lat="64.82152" lon="20.97717">
        <ele>53.701716</ele>
        <time>2020-08-28T10:52:11.600Z</time>
      </trkpt>
      <trkpt lat="64.82106" lon="20.97655">
        <ele>56.364473</ele>
        <time>2020-08-28T10:52:28.615Z</time>
      </trkpt>
      <trkpt lat="64.82093" lon="20.97628">
        <ele>57.237618</ele>
        <time>2020-08-28T10:52:33.861Z</time>
      </trkpt>
      <trkpt lat="64.82025" lon="20.97521">
        <ele>58.929449</ele>
        <time>2020-08-28T10:52:55.891Z</time>
      </trkpt>
      <trkpt lat="64.81986" lon="20.97497">
        <ele>59.557752</ele>
        <time>2020-08-28T10:53:05.122Z</time>
      </trkpt>
      <trkpt lat="64.81945" lon="20.97489">
        <ele>60.205488</ele>
        <time>2020-08-28T10:53:13.095Z</time>
      </trkpt>
      <trkpt lat="64.81911" lon="20.97472">
        <ele>60.596598</ele>
        <time>2020-08-28T10:53:19.071Z</time>
      </trkpt>
      <trkpt lat="64.81875" lon="20.97435">
        <ele>60.192439</ele>
        <time>2020-08-28T10:53:25.624Z</time>
      </trkpt>
      <trkpt lat="64.81807" lon="20.97344">
        <ele>59.397798</ele>
        <time>2020-08-28T10:53:37.567Z</time>
      </trkpt>
      <trkpt lat="64.81665" lon="20.97206">
        <ele>57.310703</ele>
        <time>2020-08-28T10:53:59.771Z</time>
      </trkpt>
      <trkpt lat="64.81565" lon="20.97041">
        <ele>55.80737</ele>
        <time>2020-08-28T10:54:17.896Z</time>
      </trkpt>
      <trkpt lat="64.81528" lon="20.97003">
        <ele>55.594153</ele>
        <time>2020-08-28T10:54:24.162Z</time>
      </trkpt>
      <trkpt lat="64.81412" lon="20.96941">
        <ele>55.245454</ele>
        <time>2020-08-28T10:54:45.151Z</time>
      </trkpt>
      <trkpt lat="64.8134" lon="20.96889">
        <ele>55.997085</ele>
        <time>2020-08-28T10:55:00.759Z</time>
      </trkpt>
      <trkpt lat="64.81096" lon="20.96682">
        <ele>59.241013</ele>
        <time>2020-08-28T10:55:59.172Z</time>
      </trkpt>
      <trkpt lat="64.81043" lon="20.96619">
        <ele>59.650248</ele>
        <time>2020-08-28T10:56:11.582Z</time>
      </trkpt>
      <trkpt lat="64.80977" lon="20.96521">
        <ele>60.133623</ele>
        <time>2020-08-28T10:56:26.868Z</time>
      </trkpt>
      <trkpt lat="64.80911" lon="20.96399">
        <ele>60.497721</ele>
        <time>2020-08-28T10:56:42.293Z</time>
      </trkpt>
      <trkpt lat="64.80846" lon="20.96244">
        <ele>60.67149</ele>
        <time>2020-08-28T10:56:59.125Z</time>
      </trkpt>
      <trkpt lat="64.80734" lon="20.95872">
        <ele>61.120081</ele>
        <time>2020-08-28T10:57:35.665Z</time>
      </trkpt>
      <trkpt lat="64.80705" lon="20.95811">
        <ele>61.19943</ele>
        <time>2020-08-28T10:57:42.920Z</time>
      </trkpt>
      <trkpt lat="64.80676" lon="20.95761">
        <ele>60.919173</ele>
        <time>2020-08-28T10:57:49.303Z</time>
      </trkpt>
      <trkpt lat="64.80638" lon="20.95729">
        <ele>60.605136</ele>
        <time>2020-08-28T10:57:56.167Z</time>
      </trkpt>
      <trkpt lat="64.80521" lon="20.95708">
        <ele>59.315412</ele>
        <time>2020-08-28T10:58:14.150Z</time>
      </trkpt>
      <trkpt lat="64.80486" lon="20.95686">
        <ele>58.193434</ele>
        <time>2020-08-28T10:58:19.133Z</time>
      </trkpt>
      <trkpt lat="64.80457" lon="20.95653">
        <ele>57.217805</ele>
        <time>2020-08-28T10:58:23.307Z</time>
      </trkpt>
      <trkpt lat="64.80426" lon="20.9559">
        <ele>55.941804</ele>
        <time>2020-08-28T10:58:28.659Z</time>
      </trkpt>
      <trkpt lat="64.80321" lon="20.95311">
        <ele>49.727254</ele>
        <time>2020-08-28T10:58:48.327Z</time>
      </trkpt>
      <trkpt lat="64.80299" lon="20.95274">
        <ele>48.556954</ele>
        <time>2020-08-28T10:58:51.624Z</time>
      </trkpt>
      <trkpt lat="64.80204" lon="20.95153">
        <ele>44.581806</ele>
        <time>2020-08-28T10:59:05.167Z</time>
      </trkpt>
      <trkpt lat="64.80139" lon="20.95012">
        <ele>41.823325</ele>
        <time>2020-08-28T10:59:16.992Z</time>
      </trkpt>
      <trkpt lat="64.80116" lon="20.94958">
        <ele>40.82915</ele>
        <time>2020-08-28T10:59:21.477Z</time>
      </trkpt>
      <trkpt lat="64.80081" lon="20.94896">
        <ele>40.019825</ele>
        <time>2020-08-28T10:59:27.814Z</time>
      </trkpt>
      <trkpt lat="64.79958" lon="20.94791">
        <ele>37.61588</ele>
        <time>2020-08-28T10:59:46.976Z</time>
      </trkpt>
      <trkpt lat="64.79788" lon="20.94607">
        <ele>32.394022</ele>
        <time>2020-08-28T11:00:12.214Z</time>
      </trkpt>
      <trkpt lat="64.79662" lon="20.94497">
        <ele>26.735035</ele>
        <time>2020-08-28T11:00:28.828Z</time>
      </trkpt>
      <trkpt lat="64.79654" lon="20.9449">
        <ele>26.398711</ele>
        <time>2020-08-28T11:00:29.731Z</time>
      </trkpt>
      <trkpt lat="64.79586" lon="20.94424">
        <ele>23.987474</ele>
        <time>2020-08-28T11:00:39.027Z</time>
      </trkpt>
      <trkpt lat="64.79524" lon="20.94343">
        <ele>22.287803</ele>
        <time>2020-08-28T11:00:48.271Z</time>
      </trkpt>
      <trkpt lat="64.79318" lon="20.93985">
        <ele>19.504053</ele>
        <time>2020-08-28T11:01:29.973Z</time>
      </trkpt>
      <trkpt lat="64.79242" lon="20.93886">
        <ele>19.352935</ele>
        <time>2020-08-28T11:01:44.898Z</time>
      </trkpt>
      <trkpt lat="64.79088" lon="20.93738">
        <ele>19.339015</ele>
        <time>2020-08-28T11:02:14.666Z</time>
      </trkpt>
      <trkpt lat="64.79035" lon="20.93663">
        <ele>19.44511</ele>
        <time>2020-08-28T11:02:25.922Z</time>
      </trkpt>
      <trkpt lat="64.78993" lon="20.93582">
        <ele>19.641951</ele>
        <time>2020-08-28T11:02:36.093Z</time>
      </trkpt>
      <trkpt lat="64.78912" lon="20.93363">
        <ele>20.660463</ele>
        <time>2020-08-28T11:03:01.231Z</time>
      </trkpt>
      <trkpt lat="64.78896" lon="20.93329">
        <ele>20.840393</ele>
        <time>2020-08-28T11:03:05.875Z</time>
      </trkpt>
      <trkpt lat="64.78875" lon="20.93289">
        <ele>21.163804</ele>
        <time>2020-08-28T11:03:11.882Z</time>
      </trkpt>
      <trkpt lat="64.78826" lon="20.93231">
        <ele>22.246382</ele>
        <time>2020-08-28T11:03:24.190Z</time>
      </trkpt>
      <trkpt lat="64.78763" lon="20.93191">
        <ele>23.554318</ele>
        <time>2020-08-28T11:03:40.081Z</time>
      </trkpt>
      <trkpt lat="64.78657" lon="20.93154">
        <ele>26.409347</ele>
        <time>2020-08-28T11:04:08.324Z</time>
      </trkpt>
      <trkpt lat="64.78602" lon="20.93115">
        <ele>28.268246</ele>
        <time>2020-08-28T11:04:24.507Z</time>
      </trkpt>
      <trkpt lat="64.78563" lon="20.93067">
        <ele>29.704853</ele>
        <time>2020-08-28T11:04:37.501Z</time>
      </trkpt>
      <trkpt lat="64.78456" lon="20.92886">
        <ele>35.033414</ele>
        <time>2020-08-28T11:05:18.566Z</time>
      </trkpt>
      <trkpt lat="64.78374" lon="20.92693">
        <ele>39.935545</ele>
        <time>2020-08-28T11:05:55.708Z</time>
      </trkpt>
      <trkpt lat="64.78333" lon="20.9261">
        <ele>42.227467</ele>
        <time>2020-08-28T11:06:12.807Z</time>
      </trkpt>
      <trkpt lat="64.7827" lon="20.92541">
        <ele>45.136996</ele>
        <time>2020-08-28T11:06:34.175Z</time>
      </trkpt>
      <trkpt lat="64.78238" lon="20.92528">
        <ele>46.470244</ele>
        <time>2020-08-28T11:06:44.443Z</time>
      </trkpt>
      <trkpt lat="64.78141" lon="20.92533">
        <ele>50.186512</ele>
        <time>2020-08-28T11:07:13.560Z</time>
      </trkpt>
      <trkpt lat="64.78091" lon="20.92515">
        <ele>52.153118</ele>
        <time>2020-08-28T11:07:28.767Z</time>
      </trkpt>
      <trkpt lat="64.78031" lon="20.92457">
        <ele>54.380401</ele>
        <time>2020-08-28T11:07:48.060Z</time>
      </trkpt>
      <trkpt lat="64.77951" lon="20.92334">
        <ele>57.550861</ele>
        <time>2020-08-28T11:08:15.266Z</time>
      </trkpt>
      <trkpt lat="64.77913" lon="20.92288">
        <ele>58.823675</ele>
        <time>2020-08-28T11:08:26.707Z</time>
      </trkpt>
      <trkpt lat="64.77874" lon="20.92269">
        <ele>59.725221</ele>
        <time>2020-08-28T11:08:37.163Z</time>
      </trkpt>
      <trkpt lat="64.77848" lon="20.92274">
        <ele>60.33139</ele>
        <time>2020-08-28T11:08:44.034Z</time>
      </trkpt>
      <trkpt lat="64.77693" lon="20.92388">
        <ele>63.411353</ele>
        <time>2020-08-28T11:09:23.163Z</time>
      </trkpt>
      <trkpt lat="64.77634" lon="20.92396">
        <ele>64.171672</ele>
        <time>2020-08-28T11:09:36.055Z</time>
      </trkpt>
      <trkpt lat="64.77617" lon="20.92389">
        <ele>64.401152</ele>
        <time>2020-08-28T11:09:39.906Z</time>
      </trkpt>
      <trkpt lat="64.7758" lon="20.92373">
        <ele>64.886327</ele>
        <time>2020-08-28T11:09:47.530Z</time>
      </trkpt>
      <trkpt lat="64.77528" lon="20.92325">
        <ele>64.701915</ele>
        <time>2020-08-28T11:09:58.174Z</time>
      </trkpt>
      <trkpt lat="64.77349" lon="20.92013">
        <ele>62.174963</ele>
        <time>2020-08-28T11:10:32.952Z</time>
      </trkpt>
      <trkpt lat="64.77246" lon="20.91862">
        <ele>58.57997</ele>
        <time>2020-08-28T11:10:48.931Z</time>
      </trkpt>
      <trkpt lat="64.77183" lon="20.91789">
        <ele>54.917352</ele>
        <time>2020-08-28T11:10:57.279Z</time>
      </trkpt>
      <trkpt lat="64.77129" lon="20.91729">
        <ele>51.747752</ele>
        <time>2020-08-28T11:11:04.397Z</time>
      </trkpt>
      <trkpt lat="64.77101" lon="20.91698">
        <ele>49.990371</ele>
        <time>2020-08-28T11:11:07.918Z</time>
      </trkpt>
      <trkpt lat="64.77068" lon="20.91643">
        <ele>47.482316</ele>
        <time>2020-08-28T11:11:12.620Z</time>
      </trkpt>
      <trkpt lat="64.77032" lon="20.91525">
        <ele>43.632624</ele>
        <time>2020-08-28T11:11:19.776Z</time>
      </trkpt>
      <trkpt lat="64.76987" lon="20.91277">
        <ele>37.057626</ele>
        <time>2020-08-28T11:11:33.450Z</time>
      </trkpt>
      <trkpt lat="64.76964" lon="20.9119">
        <ele>34.785989</ele>
        <time>2020-08-28T11:11:38.757Z</time>
      </trkpt>
      <trkpt lat="64.76952" lon="20.9115">
        <ele>33.703364</ele>
        <time>2020-08-28T11:11:41.321Z</time>
      </trkpt>
      <trkpt lat="64.76928" lon="20.91075">
        <ele>31.64333</ele>
        <time>2020-08-28T11:11:46.203Z</time>
      </trkpt>
      <trkpt lat="64.7692" lon="20.91048">
        <ele>30.929224</ele>
        <time>2020-08-28T11:11:47.852Z</time>
      </trkpt>
      <trkpt lat="64.76924" lon="20.91041">
        <ele>30.671125</ele>
        <time>2020-08-28T11:11:48.521Z</time>
      </trkpt>
      <trkpt lat="64.76898" lon="20.90931">
        <ele>28.341944</ele>
        <time>2020-08-28T11:11:55.076Z</time>
      </trkpt>
      <trkpt lat="64.76864" lon="20.90835">
        <ele>26.068794</ele>
        <time>2020-08-28T11:12:01.595Z</time>
      </trkpt>
      <trkpt lat="64.76843" lon="20.90775">
        <ele>24.651227</ele>
        <time>2020-08-28T11:12:05.692Z</time>
      </trkpt>
      <trkpt lat="64.76764" lon="20.90608">
        <ele>21.212422</ele>
        <time>2020-08-28T11:12:19.556Z</time>
      </trkpt>
      <trkpt lat="64.76748" lon="20.90582">
        <ele>20.726046</ele>
        <time>2020-08-28T11:12:22.114Z</time>
      </trkpt>
      <trkpt lat="64.76709" lon="20.9055">
        <ele>19.676612</ele>
        <time>2020-08-28T11:12:27.824Z</time>
      </trkpt>
      <trkpt lat="64.76649" lon="20.90531">
        <ele>18.28607</ele>
        <time>2020-08-28T11:12:36.566Z</time>
      </trkpt>
      <trkpt lat="64.76636" lon="20.90534">
        <ele>18.225605</ele>
        <time>2020-08-28T11:12:38.592Z</time>
      </trkpt>
      <trkpt lat="64.76628" lon="20.90539">
        <ele>18.192262</ele>
        <time>2020-08-28T11:12:39.786Z</time>
      </trkpt>
      <trkpt lat="64.76559" lon="20.90565">
        <ele>17.883578</ele>
        <time>2020-08-28T11:12:51.136Z</time>
      </trkpt>
      <trkpt lat="64.76503" lon="20.90591">
        <ele>17.63377</ele>
        <time>2020-08-28T11:13:01.278Z</time>
      </trkpt>
      <trkpt lat="64.76487" lon="20.90605">
        <ele>17.557969</ele>
        <time>2020-08-28T11:13:04.417Z</time>
      </trkpt>
      <trkpt lat="64.76452" lon="20.90648">
        <ele>17.69408</ele>
        <time>2020-08-28T11:13:12.376Z</time>
      </trkpt>
      <trkpt lat="64.76438" lon="20.90664">
        <ele>17.779168</ele>
        <time>2020-08-28T11:13:15.413Z</time>
      </trkpt>
      <trkpt lat="64.76442" lon="20.90684">
        <ele>17.829299</ele>
        <time>2020-08-28T11:13:17.235Z</time>
      </trkpt>
      <trkpt lat="64.76448" lon="20.9072">
        <ele>17.922518</ele>
        <time>2020-08-28T11:13:20.466Z</time>
      </trkpt>
      <trkpt lat="64.7645" lon="20.90759">
        <ele>18.017342</ele>
        <time>2020-08-28T11:13:23.945Z</time>
      </trkpt>
      <trkpt lat="64.76438" lon="20.90843">
        <ele>18.230069</ele>
        <time>2020-08-28T11:13:31.582Z</time>
      </trkpt>
      <trkpt lat="64.76432" lon="20.90858">
        <ele>18.280435</ele>
        <time>2020-08-28T11:13:33.346Z</time>
      </trkpt>
      <trkpt lat="64.76412" lon="20.90903">
        <ele>18.434239</ele>
        <time>2020-08-28T11:13:38.809Z</time>
      </trkpt>
      <trkpt lat="64.76337" lon="20.91091">
        <ele>18.559881</ele>
        <time>2020-08-28T11:13:59.696Z</time>
      </trkpt>
      <trkpt lat="64.76319" lon="20.91127">
        <ele>18.56709</ele>
        <time>2020-08-28T11:14:03.816Z</time>
      </trkpt>
      <trkpt lat="64.76301" lon="20.91155">
        <ele>18.573658</ele>
        <time>2020-08-28T11:14:07.349Z</time>
      </trkpt>
      <trkpt lat="64.762" lon="20.91326">
        <ele>18.345333</ele>
        <time>2020-08-28T11:14:27.867Z</time>
      </trkpt>
      <trkpt lat="64.76174" lon="20.91376">
        <ele>18.246582</ele>
        <time>2020-08-28T11:14:33.550Z</time>
      </trkpt>
      <trkpt lat="64.76153" lon="20.91411">
        <ele>18.172322</ele>
        <time>2020-08-28T11:14:37.972Z</time>
      </trkpt>
      <trkpt lat="64.76133" lon="20.91449">
        <ele>18.095967</ele>
        <time>2020-08-28T11:14:42.483Z</time>
      </trkpt>
      <trkpt lat="64.76124" lon="20.91465">
        <ele>18.061748</ele>
        <time>2020-08-28T11:14:44.743Z</time>
      </trkpt>
      <trkpt lat="64.76097" lon="20.91528">
        <ele>18.143173</ele>
        <time>2020-08-28T11:14:51.650Z</time>
      </trkpt>
      <trkpt lat="64.76084" lon="20.91576">
        <ele>18.198576</ele>
        <time>2020-08-28T11:14:56.120Z</time>
      </trkpt>
      <trkpt lat="64.76051" lon="20.91739">
        <ele>18.371424</ele>
        <time>2020-08-28T11:15:10.779Z</time>
      </trkpt>
      <trkpt lat="64.76041" lon="20.91786">
        <ele>18.421683</ele>
        <time>2020-08-28T11:15:15.151Z</time>
      </trkpt>
      <trkpt lat="64.75915" lon="20.92377">
        <ele>18.595858</ele>
        <time>2020-08-28T11:16:06.050Z</time>
      </trkpt>
      <trkpt lat="64.75909" lon="20.92442">
        <ele>18.580509</ele>
        <time>2020-08-28T11:16:10.953Z</time>
      </trkpt>
      <trkpt lat="64.75915" lon="20.92589">
        <ele>18.546377</ele>
        <time>2020-08-28T11:16:21.956Z</time>
      </trkpt>
      <trkpt lat="64.75915" lon="20.92612">
        <ele>18.547273</ele>
        <time>2020-08-28T11:16:23.505Z</time>
      </trkpt>
      <trkpt lat="64.75911" lon="20.92728">
        <ele>18.59516</ele>
        <time>2020-08-28T11:16:32.359Z</time>
      </trkpt>
      <trkpt lat="64.75895" lon="20.92775">
        <ele>18.619447</ele>
        <time>2020-08-28T11:16:36.751Z</time>
      </trkpt>
      <trkpt lat="64.75887" lon="20.928">
        <ele>18.632578</ele>
        <time>2020-08-28T11:16:39.340Z</time>
      </trkpt>
      <trkpt lat="64.75865" lon="20.92831">
        <ele>18.657077</ele>
        <time>2020-08-28T11:16:43.873Z</time>
      </trkpt>
      <trkpt lat="64.75835" lon="20.9288">
        <ele>18.692559</ele>
        <time>2020-08-28T11:16:50.575Z</time>
      </trkpt>
      <trkpt lat="64.75829" lon="20.92899">
        <ele>18.701945</ele>
        <time>2020-08-28T11:16:52.437Z</time>
      </trkpt>
      <trkpt lat="64.75808" lon="20.92903">
        <ele>18.791662</ele>
        <time>2020-08-28T11:16:56.337Z</time>
      </trkpt>
      <trkpt lat="64.75786" lon="20.92909">
        <ele>19.071937</ele>
        <time>2020-08-28T11:17:00.782Z</time>
      </trkpt>
      <trkpt lat="64.75768" lon="20.92916">
        <ele>19.299974</ele>
        <time>2020-08-28T11:17:04.473Z</time>
      </trkpt>
      <trkpt lat="64.75716" lon="20.93078">
        <ele>20.369651</ele>
        <time>2020-08-28T11:17:23.501Z</time>
      </trkpt>
      <trkpt lat="64.75589" lon="20.93679">
        <ele>24.846714</ele>
        <time>2020-08-28T11:18:32.588Z</time>
      </trkpt>
      <trkpt lat="64.75583" lon="20.93716">
        <ele>24.965547</ele>
        <time>2020-08-28T11:18:36.314Z</time>
      </trkpt>
      <trkpt lat="64.75546" lon="20.93954">
        <ele>25.647083</ele>
        <time>2020-08-28T11:18:55.929Z</time>
      </trkpt>
      <trkpt lat="64.7553" lon="20.94265">
        <ele>24.002855</ele>
        <time>2020-08-28T11:19:15.894Z</time>
      </trkpt>
      <trkpt lat="64.75504" lon="20.94497">
        <ele>22.584539</ele>
        <time>2020-08-28T11:19:30.807Z</time>
      </trkpt>
      <trkpt lat="64.75489" lon="20.9458">
        <ele>22.004899</ele>
        <time>2020-08-28T11:19:36.544Z</time>
      </trkpt>
      <trkpt lat="64.75485" lon="20.94597">
        <ele>21.884114</ele>
        <time>2020-08-28T11:19:37.654Z</time>
      </trkpt>
      <trkpt lat="64.75482" lon="20.94633">
        <ele>21.651277</ele>
        <time>2020-08-28T11:19:40.024Z</time>
      </trkpt>
      <trkpt lat="64.75479" lon="20.9466">
        <ele>21.475477</ele>
        <time>2020-08-28T11:19:41.831Z</time>
      </trkpt>
      <trkpt lat="64.75462" lon="20.94804">
        <ele>20.587353</ele>
        <time>2020-08-28T11:19:51.370Z</time>
      </trkpt>
      <trkpt lat="64.75452" lon="20.94905">
        <ele>20.088045</ele>
        <time>2020-08-28T11:19:58.034Z</time>
      </trkpt>
      <trkpt lat="64.75427" lon="20.95176">
        <ele>18.743865</ele>
        <time>2020-08-28T11:20:16.262Z</time>
      </trkpt>
      <trkpt lat="64.75408" lon="20.9538">
        <ele>17.807615</ele>
        <time>2020-08-28T11:20:30.221Z</time>
      </trkpt>
      <trkpt lat="64.7539" lon="20.95538">
        <ele>17.076291</ele>
        <time>2020-08-28T11:20:40.829Z</time>
      </trkpt>
      <trkpt lat="64.75377" lon="20.95684">
        <ele>16.300011</ele>
        <time>2020-08-28T11:20:50.493Z</time>
      </trkpt>
      <trkpt lat="64.75362" lon="20.95824">
        <ele>15.49822</ele>
        <time>2020-08-28T11:20:59.722Z</time>
      </trkpt>
      <trkpt lat="64.75349" lon="20.9595">
        <ele>14.786742</ele>
        <time>2020-08-28T11:21:08.020Z</time>
      </trkpt>
      <trkpt lat="64.75352" lon="20.95974">
        <ele>14.645857</ele>
        <time>2020-08-28T11:21:09.537Z</time>
      </trkpt>
      <trkpt lat="64.75353" lon="20.95979">
        <ele>14.611627</ele>
        <time>2020-08-28T11:21:09.895Z</time>
      </trkpt>
      <trkpt lat="64.75352" lon="20.95988">
        <ele>14.555013</ele>
        <time>2020-08-28T11:21:10.554Z</time>
      </trkpt>
      <trkpt lat="64.75351" lon="20.96004">
        <ele>14.476204</ele>
        <time>2020-08-28T11:21:11.656Z</time>
      </trkpt>
      <trkpt lat="64.75352" lon="20.96025">
        <ele>14.375884</ele>
        <time>2020-08-28T11:21:13.071Z</time>
      </trkpt>
      <trkpt lat="64.75352" lon="20.96035">
        <ele>14.331301</ele>
        <time>2020-08-28T11:21:13.660Z</time>
      </trkpt>
      <trkpt lat="64.75349" lon="20.9604">
        <ele>14.28803</ele>
        <time>2020-08-28T11:21:14.161Z</time>
      </trkpt>
      <trkpt lat="64.75334" lon="20.96094">
        <ele>13.981865</ele>
        <time>2020-08-28T11:21:18.291Z</time>
      </trkpt>
      <trkpt lat="64.75331" lon="20.9612">
        <ele>13.85019</ele>
        <time>2020-08-28T11:21:19.952Z</time>
      </trkpt>
      <trkpt lat="64.75329" lon="20.96139">
        <ele>13.758234</ele>
        <time>2020-08-28T11:21:21.142Z</time>
      </trkpt>
      <trkpt lat="64.75326" lon="20.96179">
        <ele>13.56271</ele>
        <time>2020-08-28T11:21:24.054Z</time>
      </trkpt>
      <trkpt lat="64.75325" lon="20.96196">
        <ele>13.481168</ele>
        <time>2020-08-28T11:21:25.088Z</time>
      </trkpt>
      <trkpt lat="64.75324" lon="20.96204">
        <ele>13.442944</ele>
        <time>2020-08-28T11:21:25.580Z</time>
      </trkpt>
      <trkpt lat="64.75324" lon="20.96243">
        <ele>13.260736</ele>
        <time>2020-08-28T11:21:28.139Z</time>
      </trkpt>
      <trkpt lat="64.7533" lon="20.96272">
        <ele>13.109792</ele>
        <time>2020-08-28T11:21:30.288Z</time>
      </trkpt>
      <trkpt lat="64.75333" lon="20.96282">
        <ele>13.049397</ele>
        <time>2020-08-28T11:21:31.049Z</time>
      </trkpt>
      <trkpt lat="64.75331" lon="20.9629">
        <ele>13.007268</ele>
        <time>2020-08-28T11:21:31.589Z</time>
      </trkpt>
      <trkpt lat="64.75331" lon="20.96318">
        <ele>12.872464</ele>
        <time>2020-08-28T11:21:33.558Z</time>
      </trkpt>
      <trkpt lat="64.7533" lon="20.9633">
        <ele>12.818996</ele>
        <time>2020-08-28T11:21:34.380Z</time>
      </trkpt>
      <trkpt lat="64.75329" lon="20.96351">
        <ele>12.718327</ele>
        <time>2020-08-28T11:21:35.811Z</time>
      </trkpt>
      <trkpt lat="64.75328" lon="20.96377">
        <ele>12.589865</ele>
        <time>2020-08-28T11:21:37.462Z</time>
      </trkpt>
      <trkpt lat="64.75305" lon="20.96728">
        <ele>12.232461</ele>
        <time>2020-08-28T11:22:03.092Z</time>
      </trkpt>
      <trkpt lat="64.75295" lon="20.96855">
        <ele>12.383626</ele>
        <time>2020-08-28T11:22:13.681Z</time>
      </trkpt>
      <trkpt lat="64.75287" lon="20.9696">
        <ele>12.868351</ele>
        <time>2020-08-28T11:22:22.935Z</time>
      </trkpt>
      <trkpt lat="64.75277" lon="20.97238">
        <ele>14.079532</ele>
        <time>2020-08-28T11:22:49.994Z</time>
      </trkpt>
      <trkpt lat="64.75285" lon="20.97334">
        <ele>14.052753</ele>
        <time>2020-08-28T11:22:58.495Z</time>
      </trkpt>
      <trkpt lat="64.75292" lon="20.97352">
        <ele>14.045917</ele>
        <time>2020-08-28T11:23:00.721Z</time>
      </trkpt>
      <trkpt lat="64.75293" lon="20.97377">
        <ele>14.038852</ele>
        <time>2020-08-28T11:23:02.703Z</time>
      </trkpt>
      <trkpt lat="64.75289" lon="20.97422">
        <ele>14.026198</ele>
        <time>2020-08-28T11:23:06.191Z</time>
      </trkpt>
      <trkpt lat="64.75283" lon="20.97463">
        <ele>14.01423</ele>
        <time>2020-08-28T11:23:09.427Z</time>
      </trkpt>
      <trkpt lat="64.75277" lon="20.97524">
        <ele>13.99704</ele>
        <time>2020-08-28T11:23:13.931Z</time>
      </trkpt>
      <trkpt lat="64.75253" lon="20.97512">
        <ele>13.981418</ele>
        <time>2020-08-28T11:23:17.787Z</time>
      </trkpt>
      <trkpt lat="64.75238" lon="20.97502">
        <ele>13.971077</ele>
        <time>2020-08-28T11:23:20.426Z</time>
      </trkpt>
      <trkpt lat="64.75222" lon="20.97449">
        <ele>13.589808</ele>
        <time>2020-08-28T11:23:24.668Z</time>
      </trkpt>
      <trkpt lat="64.75216" lon="20.97381">
        <ele>13.050087</ele>
        <time>2020-08-28T11:23:29.108Z</time>
      </trkpt>
      <trkpt lat="64.75209" lon="20.97357">
        <ele>12.817851</ele>
        <time>2020-08-28T11:23:30.994Z</time>
      </trkpt>
      <trkpt lat="64.75196" lon="20.97347">
        <ele>12.570087</ele>
        <time>2020-08-28T11:23:32.935Z</time>
      </trkpt>
      <trkpt lat="64.7513" lon="20.97298">
        <ele>11.304721</ele>
        <time>2020-08-28T11:23:42.976Z</time>
      </trkpt>
      <trkpt lat="64.75118" lon="20.97298">
        <ele>11.100483</ele>
        <time>2020-08-28T11:23:44.623Z</time>
      </trkpt>
      <trkpt lat="64.75102" lon="20.97303">
        <ele>10.80705</ele>
        <time>2020-08-28T11:23:47.055Z</time>
      </trkpt>
      <trkpt lat="64.75102" lon="20.97294">
        <ele>10.734138</ele>
        <time>2020-08-28T11:23:47.700Z</time>
      </trkpt>
      <trkpt lat="64.75096" lon="20.97295">
        <ele>10.669144</ele>
        <time>2020-08-28T11:23:48.575Z</time>
      </trkpt>
      <trkpt lat="64.75094" lon="20.97252">
        <ele>10.55977</ele>
        <time>2020-08-28T11:23:51.536Z</time>
      </trkpt>
      <trkpt lat="64.75077" lon="20.97254">
        <ele>10.460488</ele>
        <time>2020-08-28T11:23:54.238Z</time>
      </trkpt>
      <trkpt lat="64.75043" lon="20.97265">
        <ele>10.260898</ele>
        <time>2020-08-28T11:23:59.792Z</time>
      </trkpt>
      <trkpt lat="64.75016" lon="20.97274">
        <ele>10.098922</ele>
        <time>2020-08-28T11:24:04.547Z</time>
      </trkpt>
      <trkpt lat="64.7501" lon="20.97276">
        <ele>10.063928</ele>
        <time>2020-08-28T11:24:05.628Z</time>
      </trkpt>
      <trkpt lat="64.74907" lon="20.97308">
        <ele>9.682825</ele>
        <time>2020-08-28T11:24:25.001Z</time>
      </trkpt>
      <trkpt lat="64.74875" lon="20.97318">
        <ele>9.738114</ele>
        <time>2020-08-28T11:24:31.277Z</time>
      </trkpt>
      <trkpt lat="64.74844" lon="20.97327">
        <ele>9.791345</ele>
        <time>2020-08-28T11:24:37.410Z</time>
      </trkpt>
      <trkpt lat="64.74819" lon="20.97332">
        <ele>9.83312</ele>
        <time>2020-08-28T11:24:42.155Z</time>
      </trkpt>
      <trkpt lat="64.74824" lon="20.97365">
        <ele>9.858235</ele>
        <time>2020-08-28T11:24:45.012Z</time>
      </trkpt>
      <trkpt lat="64.74831" lon="20.97519">
        <ele>9.944315</ele>
        <time>2020-08-28T11:24:57.636Z</time>
      </trkpt>
      <trkpt lat="64.74842" lon="20.97571">
        <ele>9.95283</ele>
        <time>2020-08-28T11:25:02.243Z</time>
      </trkpt>
      <trkpt lat="64.74844" lon="20.97589">
        <ele>9.955582</ele>
        <time>2020-08-28T11:25:03.713Z</time>
      </trkpt>
      <trkpt lat="64.74846" lon="20.9763">
        <ele>9.961641</ele>
        <time>2020-08-28T11:25:06.962Z</time>
      </trkpt>
      <trkpt lat="64.74853" lon="20.97761">
        <ele>9.981269</ele>
        <time>2020-08-28T11:25:17.492Z</time>
      </trkpt>
      <trkpt lat="64.74813" lon="20.97745">
        <ele>9.995347</ele>
        <time>2020-08-28T11:25:25.026Z</time>
      </trkpt>
      <trkpt lat="64.74685" lon="20.97697">
        <ele>10.000012</ele>
        <time>2020-08-28T11:26:03.424Z</time>
      </trkpt>
      <trkpt lat="64.7468" lon="20.97695">
        <ele>10.000012</ele>
        <time>2020-08-28T11:26:04.423Z</time>
      </trkpt>
      <trkpt lat="64.74638" lon="20.97678">
        <ele>10.000012</ele>
        <time>2020-08-28T11:26:12.233Z</time>
      </trkpt>
      <trkpt lat="64.74595" lon="20.97661">
        <ele>10.000012</ele>
        <time>2020-08-28T11:26:20.457Z</time>
      </trkpt>
      <trkpt lat="64.74593" lon="20.97687">
        <ele>10.000012</ele>
        <time>2020-08-28T11:26:22.625Z</time>
      </trkpt>
      <trkpt lat="64.74592" lon="20.97707">
        <ele>10.000012</ele>
        <time>2020-08-28T11:26:24.226Z</time>
      </trkpt>
      <trkpt lat="64.74586" lon="20.97777">
        <ele>10.000012</ele>
        <time>2020-08-28T11:26:29.824Z</time>
      </trkpt>
      <trkpt lat="64.74583" lon="20.97824">
        <ele>10.000012</ele>
        <time>2020-08-28T11:26:33.584Z</time>
      </trkpt>
      <trkpt lat="64.74533" lon="20.97805">
        <ele>10.000012</ele>
        <time>2020-08-28T11:26:42.967Z</time>
      </trkpt>
      <trkpt lat="64.74529" lon="20.97885">
        <ele>10.00036</ele>
        <time>2020-08-28T11:26:49.359Z</time>
      </trkpt>
      <trkpt lat="64.74504" lon="20.98243">
        <ele>10.018293</ele>
        <time>2020-08-28T11:27:18.259Z</time>
      </trkpt>
      <trkpt lat="64.74499" lon="20.98262">
        <ele>10.019404</ele>
        <time>2020-08-28T11:27:20.054Z</time>
      </trkpt>
      <trkpt lat="64.74498" lon="20.98276">
        <ele>10.020116</ele>
        <time>2020-08-28T11:27:21.198Z</time>
      </trkpt>
      <trkpt lat="64.74496" lon="20.98329">
        <ele>10.028044</ele>
        <time>2020-08-28T11:27:25.435Z</time>
      </trkpt>
      <trkpt lat="64.74498" lon="20.98383">
        <ele>10.038089</ele>
        <time>2020-08-28T11:27:29.695Z</time>
      </trkpt>
      <trkpt lat="64.74508" lon="20.9844">
        <ele>10.049784</ele>
        <time>2020-08-28T11:27:34.663Z</time>
      </trkpt>
      <trkpt lat="64.74515" lon="20.98474">
        <ele>10.056978</ele>
        <time>2020-08-28T11:27:37.725Z</time>
      </trkpt>
      <trkpt lat="64.74518" lon="20.98497">
        <ele>10.061453</ele>
        <time>2020-08-28T11:27:39.634Z</time>
      </trkpt>
      <trkpt lat="64.74522" lon="20.98681">
        <ele>10.095907</ele>
        <time>2020-08-28T11:27:54.219Z</time>
      </trkpt>
      <trkpt lat="64.74527" lon="20.98745">
        <ele>10.105426</ele>
        <time>2020-08-28T11:27:59.412Z</time>
      </trkpt>
      <trkpt lat="64.74552" lon="20.98888">
        <ele>10.124559</ele>
        <time>2020-08-28T11:28:11.631Z</time>
      </trkpt>
      <trkpt lat="64.74568" lon="20.98979">
        <ele>10.136756</ele>
        <time>2020-08-28T11:28:19.478Z</time>
      </trkpt>
      <trkpt lat="64.74569" lon="20.98989">
        <ele>10.138016</ele>
        <time>2020-08-28T11:28:20.304Z</time>
      </trkpt>
      <trkpt lat="64.7458" lon="20.99091">
        <ele>10.151057</ele>
        <time>2020-08-28T11:28:28.857Z</time>
      </trkpt>
      <trkpt lat="64.74584" lon="20.99184">
        <ele>10.217319</ele>
        <time>2020-08-28T11:28:36.502Z</time>
      </trkpt>
      <trkpt lat="64.74584" lon="20.99214">
        <ele>10.240543</ele>
        <time>2020-08-28T11:28:38.936Z</time>
      </trkpt>
      <trkpt lat="64.74579" lon="20.99314">
        <ele>10.31822</ele>
        <time>2020-08-28T11:28:47.135Z</time>
      </trkpt>
      <trkpt lat="64.74578" lon="20.99365">
        <ele>10.357937</ele>
        <time>2020-08-28T11:28:51.380Z</time>
      </trkpt>
      <trkpt lat="64.74576" lon="20.99491">
        <ele>10.455974</ele>
        <time>2020-08-28T11:29:01.767Z</time>
      </trkpt>
      <trkpt lat="64.74572" lon="20.99555">
        <ele>10.483806</ele>
        <time>2020-08-28T11:29:07.055Z</time>
      </trkpt>
      <trkpt lat="64.74569" lon="20.99613">
        <ele>10.492396</ele>
        <time>2020-08-28T11:29:11.843Z</time>
      </trkpt>
      <trkpt lat="64.74571" lon="20.99711">
        <ele>10.506862</ele>
        <time>2020-08-28T11:29:19.776Z</time>
      </trkpt>
      <trkpt lat="64.74569" lon="20.99835">
        <ele>10.52506</ele>
        <time>2020-08-28T11:29:29.541Z</time>
      </trkpt>
      <trkpt lat="64.7456" lon="20.9998">
        <ele>10.520835</ele>
        <time>2020-08-28T11:29:41.015Z</time>
      </trkpt>
      <trkpt lat="64.74541" lon="21.00101">
        <ele>10.458174</ele>
        <time>2020-08-28T11:29:51.069Z</time>
      </trkpt>
      <trkpt lat="64.74514" lon="21.00199">
        <ele>10.401844</ele>
        <time>2020-08-28T11:30:00.077Z</time>
      </trkpt>
      <trkpt lat="64.74396" lon="21.005">
        <ele>10.387575</ele>
        <time>2020-08-28T11:30:31.900Z</time>
      </trkpt>
      <trkpt lat="64.74315" lon="21.00715">
        <ele>10.564996</ele>
        <time>2020-08-28T11:30:55.978Z</time>
      </trkpt>
      <trkpt lat="64.74256" lon="21.00872">
        <ele>10.788155</ele>
        <time>2020-08-28T11:31:13.330Z</time>
      </trkpt>
      <trkpt lat="64.7423" lon="21.00944">
        <ele>10.850702</ele>
        <time>2020-08-28T11:31:21.087Z</time>
      </trkpt>
      <trkpt lat="64.7421" lon="21.00997">
        <ele>10.788746</ele>
        <time>2020-08-28T11:31:26.764Z</time>
      </trkpt>
      <trkpt lat="64.7419" lon="21.01049">
        <ele>10.728244</ele>
        <time>2020-08-28T11:31:32.190Z</time>
      </trkpt>
      <trkpt lat="64.74176" lon="21.01086">
        <ele>10.685291</ele>
        <time>2020-08-28T11:31:36.135Z</time>
      </trkpt>
      <trkpt lat="64.74168" lon="21.01107">
        <ele>10.66167</ele>
        <time>2020-08-28T11:31:38.071Z</time>
      </trkpt>
      <trkpt lat="64.74155" lon="21.01161">
        <ele>10.607792</ele>
        <time>2020-08-28T11:31:42.788Z</time>
      </trkpt>
      <trkpt lat="64.74109" lon="21.01289">
        <ele>10.432204</ele>
        <time>2020-08-28T11:31:55.240Z</time>
      </trkpt>
      <trkpt lat="64.74082" lon="21.01363">
        <ele>10.286745</ele>
        <time>2020-08-28T11:32:02.448Z</time>
      </trkpt>
      <trkpt lat="64.74052" lon="21.01432">
        <ele>10.138999</ele>
        <time>2020-08-28T11:32:09.753Z</time>
      </trkpt>
      <trkpt lat="64.74039" lon="21.01474">
        <ele>10.061662</ele>
        <time>2020-08-28T11:32:13.594Z</time>
      </trkpt>
      <trkpt lat="64.73999" lon="21.01604">
        <ele>9.863984</ele>
        <time>2020-08-28T11:32:25.901Z</time>
      </trkpt>
      <trkpt lat="64.73962" lon="21.01738">
        <ele>9.832623</ele>
        <time>2020-08-28T11:32:38.297Z</time>
      </trkpt>
      <trkpt lat="64.7395" lon="21.01781">
        <ele>9.822428</ele>
        <time>2020-08-28T11:32:42.331Z</time>
      </trkpt>
      <trkpt lat="64.73805" lon="21.02289">
        <ele>10.082037</ele>
        <time>2020-08-28T11:33:31.710Z</time>
      </trkpt>
      <trkpt lat="64.73754" lon="21.0245">
        <ele>10.386709</ele>
        <time>2020-08-28T11:33:48.848Z</time>
      </trkpt>
      <trkpt lat="64.73738" lon="21.02493">
        <ele>10.473717</ele>
        <time>2020-08-28T11:33:53.743Z</time>
      </trkpt>
      <trkpt lat="64.73728" lon="21.02519">
        <ele>10.524633</ele>
        <time>2020-08-28T11:33:56.638Z</time>
      </trkpt>
      <trkpt lat="64.73681" lon="21.02645">
        <ele>10.760393</ele>
        <time>2020-08-28T11:34:10.862Z</time>
      </trkpt>
      <trkpt lat="64.73188" lon="21.0371">
        <ele>12.790612</ele>
        <time>2020-08-28T11:36:21.179Z</time>
      </trkpt>
      <trkpt lat="64.73097" lon="21.03923">
        <ele>13.748631</ele>
        <time>2020-08-28T11:36:48.703Z</time>
      </trkpt>
      <trkpt lat="64.73058" lon="21.04039">
        <ele>14.281455</ele>
        <time>2020-08-28T11:37:02.434Z</time>
      </trkpt>
      <trkpt lat="64.73016" lon="21.04188">
        <ele>14.336681</ele>
        <time>2020-08-28T11:37:18.324Z</time>
      </trkpt>
      <trkpt lat="64.72709" lon="21.05342">
        <ele>13.202143</ele>
        <time>2020-08-28T11:39:02.344Z</time>
      </trkpt>
      <trkpt lat="64.72634" lon="21.05597">
        <ele>12.336185</ele>
        <time>2020-08-28T11:39:23.848Z</time>
      </trkpt>
      <trkpt lat="64.72591" lon="21.05762">
        <ele>11.646232</ele>
        <time>2020-08-28T11:39:37.366Z</time>
      </trkpt>
      <trkpt lat="64.72584" lon="21.05805">
        <ele>11.484077</ele>
        <time>2020-08-28T11:39:40.616Z</time>
      </trkpt>
      <trkpt lat="64.72544" lon="21.05935">
        <ele>11.071324</ele>
        <time>2020-08-28T11:39:52.323Z</time>
      </trkpt>
      <trkpt lat="64.72488" lon="21.06137">
        <ele>10.579967</ele>
        <time>2020-08-28T11:40:10.260Z</time>
      </trkpt>
      <trkpt lat="64.72433" lon="21.06343">
        <ele>10.229819</ele>
        <time>2020-08-28T11:40:28.708Z</time>
      </trkpt>
      <trkpt lat="64.72359" lon="21.06576">
        <ele>9.896644</ele>
        <time>2020-08-28T11:40:50.655Z</time>
      </trkpt>
      <trkpt lat="64.72331" lon="21.06643">
        <ele>9.797512</ele>
        <time>2020-08-28T11:40:57.797Z</time>
      </trkpt>
      <trkpt lat="64.72318" lon="21.06712">
        <ele>9.718153</ele>
        <time>2020-08-28T11:41:03.559Z</time>
      </trkpt>
      <trkpt lat="64.72316" lon="21.06724">
        <ele>9.704701</ele>
        <time>2020-08-28T11:41:04.503Z</time>
      </trkpt>
      <trkpt lat="64.72305" lon="21.06749">
        <ele>9.666544</ele>
        <time>2020-08-28T11:41:07.273Z</time>
      </trkpt>
      <trkpt lat="64.72283" lon="21.06783">
        <ele>9.603161</ele>
        <time>2020-08-28T11:41:11.856Z</time>
      </trkpt>
      <trkpt lat="64.72188" lon="21.06999">
        <ele>9.341707</ele>
        <time>2020-08-28T11:41:35.747Z</time>
      </trkpt>
      <trkpt lat="64.71968" lon="21.07539">
        <ele>8.757101</ele>
        <time>2020-08-28T11:42:33.681Z</time>
      </trkpt>
      <trkpt lat="64.71874" lon="21.07783">
        <ele>8.202327</ele>
        <time>2020-08-28T11:42:58.013Z</time>
      </trkpt>
      <trkpt lat="64.71304" lon="21.09153">
        <ele>4.255677</ele>
        <time>2020-08-28T11:45:18.773Z</time>
      </trkpt>
      <trkpt lat="64.71281" lon="21.09222">
        <ele>4.093151</ele>
        <time>2020-08-28T11:45:25.346Z</time>
      </trkpt>
      <trkpt lat="64.71198" lon="21.09426">
        <ele>3.712745</ele>
        <time>2020-08-28T11:45:46.832Z</time>
      </trkpt>
      <trkpt lat="64.71081" lon="21.09691">
        <ele>3.339134</ele>
        <time>2020-08-28T11:46:15.936Z</time>
      </trkpt>
      <trkpt lat="64.7102" lon="21.09855">
        <ele>3.165805</ele>
        <time>2020-08-28T11:46:32.661Z</time>
      </trkpt>
      <trkpt lat="64.70959" lon="21.10001">
        <ele>3.08234</ele>
        <time>2020-08-28T11:46:48.589Z</time>
      </trkpt>
      <trkpt lat="64.70913" lon="21.10107">
        <ele>3.039841</ele>
        <time>2020-08-28T11:47:00.491Z</time>
      </trkpt>
      <trkpt lat="64.7086" lon="21.10252">
        <ele>2.980939</ele>
        <time>2020-08-28T11:47:15.653Z</time>
      </trkpt>
      <trkpt lat="64.70854" lon="21.10271">
        <ele>2.972532</ele>
        <time>2020-08-28T11:47:17.545Z</time>
      </trkpt>
      <trkpt lat="64.7081" lon="21.10453">
        <ele>2.899215</ele>
        <time>2020-08-28T11:47:33.988Z</time>
      </trkpt>
      <trkpt lat="64.70785" lon="21.10632">
        <ele>2.764497</ele>
        <time>2020-08-28T11:47:48.481Z</time>
      </trkpt>
      <trkpt lat="64.70776" lon="21.10699">
        <ele>2.676785</ele>
        <time>2020-08-28T11:47:53.719Z</time>
      </trkpt>
      <trkpt lat="64.70773" lon="21.10769">
        <ele>2.587579</ele>
        <time>2020-08-28T11:47:59.024Z</time>
      </trkpt>
      <trkpt lat="64.70774" lon="21.1099">
        <ele>2.319422</ele>
        <time>2020-08-28T11:48:15.792Z</time>
      </trkpt>
      <trkpt lat="64.70774" lon="21.11043">
        <ele>2.296626</ele>
        <time>2020-08-28T11:48:19.750Z</time>
      </trkpt>
      <trkpt lat="64.70773" lon="21.11095">
        <ele>2.273864</ele>
        <time>2020-08-28T11:48:23.720Z</time>
      </trkpt>
      <trkpt lat="64.70772" lon="21.11145">
        <ele>2.252262</ele>
        <time>2020-08-28T11:48:27.546Z</time>
      </trkpt>
      <trkpt lat="64.70771" lon="21.11185">
        <ele>2.234845</ele>
        <time>2020-08-28T11:48:30.645Z</time>
      </trkpt>
      <trkpt lat="64.70768" lon="21.11225">
        <ele>2.216955</ele>
        <time>2020-08-28T11:48:33.843Z</time>
      </trkpt>
      <trkpt lat="64.70751" lon="21.1143">
        <ele>2.207788</ele>
        <time>2020-08-28T11:48:50.460Z</time>
      </trkpt>
      <trkpt lat="64.70723" lon="21.11665">
        <ele>2.615569</ele>
        <time>2020-08-28T11:49:11.035Z</time>
      </trkpt>
      <trkpt lat="64.70708" lon="21.11783">
        <ele>2.821312</ele>
        <time>2020-08-28T11:49:21.839Z</time>
      </trkpt>
      <trkpt lat="64.70689" lon="21.11946">
        <ele>3.40861</ele>
        <time>2020-08-28T11:49:37.039Z</time>
      </trkpt>
      <trkpt lat="64.70683" lon="21.12">
        <ele>3.610661</ele>
        <time>2020-08-28T11:49:42.089Z</time>
      </trkpt>
      <trkpt lat="64.70674" lon="21.11997">
        <ele>3.689303</ele>
        <time>2020-08-28T11:49:44.115Z</time>
      </trkpt>
      <trkpt lat="64.70663" lon="21.11995">
        <ele>3.775927</ele>
        <time>2020-08-28T11:49:46.322Z</time>
      </trkpt>
      <trkpt lat="64.7065" lon="21.11999">
        <ele>3.895002</ele>
        <time>2020-08-28T11:49:49.176Z</time>
      </trkpt>
      <trkpt lat="64.70604" lon="21.12047">
        <ele>4.323266</ele>
        <time>2020-08-28T11:49:59.664Z</time>
      </trkpt>
      <trkpt lat="64.7035" lon="21.12383">
        <ele>6.686367</ele>
        <time>2020-08-28T11:51:00.739Z</time>
      </trkpt>
      <trkpt lat="64.69919" lon="21.12965">
        <ele>6.844119</ele>
        <time>2020-08-28T11:52:29.792Z</time>
      </trkpt>
      <trkpt lat="64.69779" lon="21.13126">
        <ele>6.052799</ele>
        <time>2020-08-28T11:52:54.351Z</time>
      </trkpt>
      <trkpt lat="64.69704" lon="21.13195">
        <ele>5.662418</ele>
        <time>2020-08-28T11:53:07.355Z</time>
      </trkpt>
      <trkpt lat="64.69623" lon="21.13249">
        <ele>5.48023</ele>
        <time>2020-08-28T11:53:21.906Z</time>
      </trkpt>
      <trkpt lat="64.6921" lon="21.13485">
        <ele>7.838476</ele>
        <time>2020-08-28T11:54:46.372Z</time>
      </trkpt>
      <trkpt lat="64.69102" lon="21.13566">
        <ele>8.422598</ele>
        <time>2020-08-28T11:55:08.423Z</time>
      </trkpt>
      <trkpt lat="64.68909" lon="21.13759">
        <ele>8.971488</ele>
        <time>2020-08-28T11:55:47.913Z</time>
      </trkpt>
      <trkpt lat="64.68668" lon="21.14099">
        <ele>8.698094</ele>
        <time>2020-08-28T11:56:37.697Z</time>
      </trkpt>
      <trkpt lat="64.68147" lon="21.14833">
        <ele>3.068515</ele>
        <time>2020-08-28T11:58:12.025Z</time>
      </trkpt>
      <trkpt lat="64.68001" lon="21.15038">
        <ele>1.822553</ele>
        <time>2020-08-28T11:58:38.952Z</time>
      </trkpt>
      <trkpt lat="64.67953" lon="21.15134">
        <ele>1.663397</ele>
        <time>2020-08-28T11:58:49.589Z</time>
      </trkpt>
      <trkpt lat="64.67909" lon="21.15292">
        <ele>1.462933</ele>
        <time>2020-08-28T11:59:03.777Z</time>
      </trkpt>
      <trkpt lat="64.67884" lon="21.15536">
        <ele>2.41498</ele>
        <time>2020-08-28T11:59:25.125Z</time>
      </trkpt>
      <trkpt lat="64.67864" lon="21.1579">
        <ele>3.648837</ele>
        <time>2020-08-28T11:59:49.892Z</time>
      </trkpt>
      <trkpt lat="64.67857" lon="21.15878">
        <ele>4.243845</ele>
        <time>2020-08-28T11:59:58.866Z</time>
      </trkpt>
      <trkpt lat="64.67845" lon="21.15972">
        <ele>4.892713</ele>
        <time>2020-08-28T12:00:08.696Z</time>
      </trkpt>
      <trkpt lat="64.67805" lon="21.1615">
        <ele>6.105731</ele>
        <time>2020-08-28T12:00:28.365Z</time>
      </trkpt>
      <trkpt lat="64.6776" lon="21.16278">
        <ele>6.847765</ele>
        <time>2020-08-28T12:00:43.628Z</time>
      </trkpt>
      <trkpt lat="64.67647" lon="21.16495">
        <ele>8.346844</ele>
        <time>2020-08-28T12:01:13.201Z</time>
      </trkpt>
      <trkpt lat="64.67575" lon="21.1663">
        <ele>9.259567</ele>
        <time>2020-08-28T12:01:32.615Z</time>
      </trkpt>
      <trkpt lat="64.67514" lon="21.1673">
        <ele>10.003844</ele>
        <time>2020-08-28T12:01:49.171Z</time>
      </trkpt>
      <trkpt lat="64.67449" lon="21.16853">
        <ele>10.860258</ele>
        <time>2020-08-28T12:02:08.421Z</time>
      </trkpt>
      <trkpt lat="64.6741" lon="21.16924">
        <ele>11.356741</ele>
        <time>2020-08-28T12:02:18.049Z</time>
      </trkpt>
      <trkpt lat="64.67385" lon="21.16972">
        <ele>10.678949</ele>
        <time>2020-08-28T12:02:23.487Z</time>
      </trkpt>
      <trkpt lat="64.67352" lon="21.17033">
        <ele>9.776656</ele>
        <time>2020-08-28T12:02:29.651Z</time>
      </trkpt>
      <trkpt lat="64.67307" lon="21.16926">
        <ele>8.386291</ele>
        <time>2020-08-28T12:02:38.272Z</time>
      </trkpt>
      <trkpt lat="64.67251" lon="21.16811">
        <ele>6.430853</ele>
        <time>2020-08-28T12:02:47.672Z</time>
      </trkpt>
      <trkpt lat="64.67205" lon="21.16723">
        <ele>4.5004</ele>
        <time>2020-08-28T12:02:55.149Z</time>
      </trkpt>
      <trkpt lat="64.67183" lon="21.16682">
        <ele>3.581876</ele>
        <time>2020-08-28T12:02:58.787Z</time>
      </trkpt>
      <trkpt lat="64.67171" lon="21.16665">
        <ele>3.137266</ele>
        <time>2020-08-28T12:03:00.631Z</time>
      </trkpt>
      <trkpt lat="64.67162" lon="21.1665">
        <ele>2.76353</ele>
        <time>2020-08-28T12:03:02.164Z</time>
      </trkpt>
      <trkpt lat="64.67143" lon="21.16633">
        <ele>2.114284</ele>
        <time>2020-08-28T12:03:04.934Z</time>
      </trkpt>
      <trkpt lat="64.67124" lon="21.16616">
        <ele>1.602482</ele>
        <time>2020-08-28T12:03:07.824Z</time>
      </trkpt>
      <trkpt lat="64.67113" lon="21.16608">
        <ele>1.528614</ele>
        <time>2020-08-28T12:03:09.440Z</time>
      </trkpt>
      <trkpt lat="64.67101" lon="21.16599">
        <ele>1.445299</ele>
        <time>2020-08-28T12:03:11.292Z</time>
      </trkpt>
      <trkpt lat="64.6708" lon="21.16588">
        <ele>1.30001</ele>
        <time>2020-08-28T12:03:14.551Z</time>
      </trkpt>
      <trkpt lat="64.67052" lon="21.16584">
        <ele>1.115585</ele>
        <time>2020-08-28T12:03:18.824Z</time>
      </trkpt>
      <trkpt lat="64.67031" lon="21.16587">
        <ele>0.973174</ele>
        <time>2020-08-28T12:03:22.498Z</time>
      </trkpt>
      <trkpt lat="64.66988" lon="21.16607">
        <ele>0.680161</ele>
        <time>2020-08-28T12:03:30.694Z</time>
      </trkpt>
      <trkpt lat="64.66957" lon="21.16636">
        <ele>0.463993</ele>
        <time>2020-08-28T12:03:36.756Z</time>
      </trkpt>
      <trkpt lat="64.6693" lon="21.1667">
        <ele>0.579485</ele>
        <time>2020-08-28T12:03:42.512Z</time>
      </trkpt>
      <trkpt lat="64.66896" lon="21.16716">
        <ele>0.760257</ele>
        <time>2020-08-28T12:03:49.671Z</time>
      </trkpt>
      <trkpt lat="64.6688" lon="21.16737">
        <ele>0.848578</ele>
        <time>2020-08-28T12:03:53.274Z</time>
      </trkpt>
      <trkpt lat="64.66843" lon="21.16788">
        <ele>1.047405</ele>
        <time>2020-08-28T12:04:01.249Z</time>
      </trkpt>
      <trkpt lat="64.66818" lon="21.16821">
        <ele>1.176734</ele>
        <time>2020-08-28T12:04:06.792Z</time>
      </trkpt>
      <trkpt lat="64.66766" lon="21.16894">
        <ele>2.088166</ele>
        <time>2020-08-28T12:04:20.012Z</time>
      </trkpt>
      <trkpt lat="64.66751" lon="21.16912">
        <ele>2.424938</ele>
        <time>2020-08-28T12:04:23.804Z</time>
      </trkpt>
      <trkpt lat="64.66709" lon="21.1697">
        <ele>3.445455</ele>
        <time>2020-08-28T12:04:35.501Z</time>
      </trkpt>
      <trkpt lat="64.66644" lon="21.17058">
        <ele>5.001945</ele>
        <time>2020-08-28T12:04:55.372Z</time>
      </trkpt>
      <trkpt lat="64.6658" lon="21.17118">
        <ele>7.328476</ele>
        <time>2020-08-28T12:05:15.096Z</time>
      </trkpt>
      <trkpt lat="64.66532" lon="21.17137">
        <ele>9.018547</ele>
        <time>2020-08-28T12:05:29.965Z</time>
      </trkpt>
      <trkpt lat="64.6646" lon="21.17122">
        <ele>11.395708</ele>
        <time>2020-08-28T12:05:50.909Z</time>
      </trkpt>
      <trkpt lat="64.66387" lon="21.17061">
        <ele>13.416379</ele>
        <time>2020-08-28T12:06:11.943Z</time>
      </trkpt>
      <trkpt lat="64.66376" lon="21.17045">
        <ele>13.754877</ele>
        <time>2020-08-28T12:06:15.479Z</time>
      </trkpt>
      <trkpt lat="64.66362" lon="21.17024">
        <ele>14.198919</ele>
        <time>2020-08-28T12:06:19.751Z</time>
      </trkpt>
      <trkpt lat="64.66301" lon="21.16935">
        <ele>15.97896</ele>
        <time>2020-08-28T12:06:37.281Z</time>
      </trkpt>
      <trkpt lat="64.66294" lon="21.16924">
        <ele>16.107113</ele>
        <time>2020-08-28T12:06:39.168Z</time>
      </trkpt>
      <trkpt lat="64.66274" lon="21.16895">
        <ele>16.477268</ele>
        <time>2020-08-28T12:06:44.776Z</time>
      </trkpt>
      <trkpt lat="64.66242" lon="21.16842">
        <ele>17.093093</ele>
        <time>2020-08-28T12:06:53.828Z</time>
      </trkpt>
      <trkpt lat="64.66168" lon="21.16679">
        <ele>18.692743</ele>
        <time>2020-08-28T12:07:16.273Z</time>
      </trkpt>
      <trkpt lat="64.65909" lon="21.1602">
        <ele>25.153703</ele>
        <time>2020-08-28T12:08:44.959Z</time>
      </trkpt>
      <trkpt lat="64.6587" lon="21.1592">
        <ele>26.291483</ele>
        <time>2020-08-28T12:08:59.663Z</time>
      </trkpt>
      <trkpt lat="64.65832" lon="21.1582">
        <ele>27.407933</ele>
        <time>2020-08-28T12:09:13.731Z</time>
      </trkpt>
      <trkpt lat="64.65827" lon="21.15806">
        <ele>27.565892</ele>
        <time>2020-08-28T12:09:15.692Z</time>
      </trkpt>
      <trkpt lat="64.65782" lon="21.1569">
        <ele>28.452099</ele>
        <time>2020-08-28T12:09:31.378Z</time>
      </trkpt>
      <trkpt lat="64.6574" lon="21.15558">
        <ele>28.997013</ele>
        <time>2020-08-28T12:09:45.941Z</time>
      </trkpt>
      <trkpt lat="64.65712" lon="21.1543">
        <ele>29.472165</ele>
        <time>2020-08-28T12:09:57.312Z</time>
      </trkpt>
      <trkpt lat="64.65701" lon="21.15384">
        <ele>29.567132</ele>
        <time>2020-08-28T12:10:01.374Z</time>
      </trkpt>
      <trkpt lat="64.65679" lon="21.15276">
        <ele>29.562778</ele>
        <time>2020-08-28T12:10:10.454Z</time>
      </trkpt>
      <trkpt lat="64.65658" lon="21.15191">
        <ele>29.559172</ele>
        <time>2020-08-28T12:10:17.905Z</time>
      </trkpt>
      <trkpt lat="64.65626" lon="21.15064">
        <ele>29.553822</ele>
        <time>2020-08-28T12:10:28.867Z</time>
      </trkpt>
      <trkpt lat="64.65555" lon="21.14875">
        <ele>29.607151</ele>
        <time>2020-08-28T12:10:48.330Z</time>
      </trkpt>
      <trkpt lat="64.65527" lon="21.14823">
        <ele>29.628</ele>
        <time>2020-08-28T12:10:54.834Z</time>
      </trkpt>
      <trkpt lat="64.65461" lon="21.14735">
        <ele>29.683267</ele>
        <time>2020-08-28T12:11:08.554Z</time>
      </trkpt>
      <trkpt lat="64.65408" lon="21.14695">
        <ele>29.739604</ele>
        <time>2020-08-28T12:11:18.657Z</time>
      </trkpt>
      <trkpt lat="64.65344" lon="21.14674">
        <ele>29.805278</ele>
        <time>2020-08-28T12:11:30.442Z</time>
      </trkpt>
      <trkpt lat="64.65277" lon="21.14675">
        <ele>29.878983</ele>
        <time>2020-08-28T12:11:42.592Z</time>
      </trkpt>
      <trkpt lat="64.65239" lon="21.14687">
        <ele>29.925083</ele>
        <time>2020-08-28T12:11:49.596Z</time>
      </trkpt>
      <trkpt lat="64.65208" lon="21.14701">
        <ele>29.963103</ele>
        <time>2020-08-28T12:11:55.377Z</time>
      </trkpt>
      <trkpt lat="64.6518" lon="21.14712">
        <ele>29.996506</ele>
        <time>2020-08-28T12:12:00.474Z</time>
      </trkpt>
      <trkpt lat="64.65141" lon="21.14724">
        <ele>30.043901</ele>
        <time>2020-08-28T12:12:07.713Z</time>
      </trkpt>
      <trkpt lat="64.65086" lon="21.14722">
        <ele>30.230712</ele>
        <time>2020-08-28T12:12:17.694Z</time>
      </trkpt>
      <trkpt lat="64.65085" lon="21.14793">
        <ele>30.347174</ele>
        <time>2020-08-28T12:12:23.278Z</time>
      </trkpt>
      <trkpt lat="64.65082" lon="21.14834">
        <ele>30.416496</ele>
        <time>2020-08-28T12:12:26.614Z</time>
      </trkpt>
      <trkpt lat="64.65071" lon="21.14872">
        <ele>30.49042</ele>
        <time>2020-08-28T12:12:30.213Z</time>
      </trkpt>
      <trkpt lat="64.64985" lon="21.15121">
        <ele>31.619986</ele>
        <time>2020-08-28T12:12:57.805Z</time>
      </trkpt>
      <trkpt lat="64.64928" lon="21.15291">
        <ele>32.759335</ele>
        <time>2020-08-28T12:13:18.349Z</time>
      </trkpt>
      <trkpt lat="64.64714" lon="21.15886">
        <ele>39.215197</ele>
        <time>2020-08-28T12:14:40.424Z</time>
      </trkpt>
      <trkpt lat="64.64664" lon="21.15996">
        <ele>40.135473</ele>
        <time>2020-08-28T12:14:55.393Z</time>
      </trkpt>
      <trkpt lat="64.64672" lon="21.16046">
        <ele>40.236318</ele>
        <time>2020-08-28T12:15:00.649Z</time>
      </trkpt>
      <trkpt lat="64.64663" lon="21.16074">
        <ele>40.303415</ele>
        <time>2020-08-28T12:15:03.169Z</time>
      </trkpt>
      <trkpt lat="64.64629" lon="21.16202">
        <ele>40.588177</ele>
        <time>2020-08-28T12:15:15.604Z</time>
      </trkpt>
      <trkpt lat="64.64612" lon="21.16257">
        <ele>40.716621</ele>
        <time>2020-08-28T12:15:20.951Z</time>
      </trkpt>
      <trkpt lat="64.64603" lon="21.16289">
        <ele>40.789571</ele>
        <time>2020-08-28T12:15:23.505Z</time>
      </trkpt>
      <trkpt lat="64.64417" lon="21.16853">
        <ele>39.625936</ele>
        <time>2020-08-28T12:16:14.629Z</time>
      </trkpt>
      <trkpt lat="64.64276" lon="21.17159">
        <ele>38.451348</ele>
        <time>2020-08-28T12:16:45.985Z</time>
      </trkpt>
      <trkpt lat="64.64248" lon="21.17239">
        <ele>38.151408</ele>
        <time>2020-08-28T12:16:52.903Z</time>
      </trkpt>
      <trkpt lat="64.64191" lon="21.17433">
        <ele>37.035144</ele>
        <time>2020-08-28T12:17:08.583Z</time>
      </trkpt>
      <trkpt lat="64.64157" lon="21.17549">
        <ele>36.357291</ele>
        <time>2020-08-28T12:17:17.604Z</time>
      </trkpt>
      <trkpt lat="64.6411" lon="21.17679">
        <ele>35.54007</ele>
        <time>2020-08-28T12:17:28.557Z</time>
      </trkpt>
      <trkpt lat="64.64085" lon="21.17724">
        <ele>35.190966</ele>
        <time>2020-08-28T12:17:33.298Z</time>
      </trkpt>
      <trkpt lat="64.64058" lon="21.17759">
        <ele>34.844404</ele>
        <time>2020-08-28T12:17:38.034Z</time>
      </trkpt>
      <trkpt lat="64.64051" lon="21.17767">
        <ele>34.762493</ele>
        <time>2020-08-28T12:17:39.138Z</time>
      </trkpt>
      <trkpt lat="64.63925" lon="21.17903">
        <ele>33.836599</ele>
        <time>2020-08-28T12:18:01.000Z</time>
      </trkpt>
      <trkpt lat="64.63894" lon="21.17957">
        <ele>33.712528</ele>
        <time>2020-08-28T12:18:07.743Z</time>
      </trkpt>
      <trkpt lat="64.63854" lon="21.18077">
        <ele>33.5252</ele>
        <time>2020-08-28T12:18:19.725Z</time>
      </trkpt>
      <trkpt lat="64.63777" lon="21.18389">
        <ele>34.484483</ele>
        <time>2020-08-28T12:18:50.419Z</time>
      </trkpt>
      <trkpt lat="64.63745" lon="21.18488">
        <ele>34.704626</ele>
        <time>2020-08-28T12:19:01.449Z</time>
      </trkpt>
      <trkpt lat="64.63717" lon="21.18546">
        <ele>34.797227</ele>
        <time>2020-08-28T12:19:09.103Z</time>
      </trkpt>
      <trkpt lat="64.63581" lon="21.18747">
        <ele>34.574215</ele>
        <time>2020-08-28T12:19:37.520Z</time>
      </trkpt>
      <trkpt lat="64.63545" lon="21.18779">
        <ele>34.165073</ele>
        <time>2020-08-28T12:19:43.481Z</time>
      </trkpt>
      <trkpt lat="64.6354" lon="21.18783">
        <ele>34.109669</ele>
        <time>2020-08-28T12:19:44.106Z</time>
      </trkpt>
      <trkpt lat="64.63495" lon="21.18806">
        <ele>33.628131</ele>
        <time>2020-08-28T12:19:50.947Z</time>
      </trkpt>
      <trkpt lat="64.63239" lon="21.18801">
        <ele>30.375829</ele>
        <time>2020-08-28T12:20:28.858Z</time>
      </trkpt>
      <trkpt lat="64.63199" lon="21.18822">
        <ele>30.038415</ele>
        <time>2020-08-28T12:20:35.466Z</time>
      </trkpt>
      <trkpt lat="64.63162" lon="21.18853">
        <ele>29.717977</ele>
        <time>2020-08-28T12:20:41.835Z</time>
      </trkpt>
      <trkpt lat="64.63129" lon="21.18897">
        <ele>29.403236</ele>
        <time>2020-08-28T12:20:48.204Z</time>
      </trkpt>
      <trkpt lat="64.62985" lon="21.19143">
        <ele>27.90839</ele>
        <time>2020-08-28T12:21:16.791Z</time>
      </trkpt>
      <trkpt lat="64.62978" lon="21.19147">
        <ele>27.852927</ele>
        <time>2020-08-28T12:21:17.744Z</time>
      </trkpt>
      <trkpt lat="64.62968" lon="21.19141">
        <ele>27.7675</ele>
        <time>2020-08-28T12:21:19.288Z</time>
      </trkpt>
      <trkpt lat="64.62954" lon="21.19124">
        <ele>27.596367</ele>
        <time>2020-08-28T12:21:21.755Z</time>
      </trkpt>
      <trkpt lat="64.62927" lon="21.19209">
        <ele>26.890282</ele>
        <time>2020-08-28T12:21:28.454Z</time>
      </trkpt>
      <trkpt lat="64.62918" lon="21.19235">
        <ele>26.665646</ele>
        <time>2020-08-28T12:21:30.599Z</time>
      </trkpt>
      <trkpt lat="64.62903" lon="21.19274">
        <ele>26.321307</ele>
        <time>2020-08-28T12:21:33.820Z</time>
      </trkpt>
      <trkpt lat="64.62783" lon="21.19493">
        <ele>23.966051</ele>
        <time>2020-08-28T12:21:55.841Z</time>
      </trkpt>
      <trkpt lat="64.62751" lon="21.19548">
        <ele>23.377407</ele>
        <time>2020-08-28T12:22:01.656Z</time>
      </trkpt>
      <trkpt lat="64.62738" lon="21.1957">
        <ele>23.142658</ele>
        <time>2020-08-28T12:22:03.968Z</time>
      </trkpt>
      <trkpt lat="64.62708" lon="21.19619">
        <ele>22.589373</ele>
        <time>2020-08-28T12:22:09.471Z</time>
      </trkpt>
      <trkpt lat="64.62596" lon="21.1981">
        <ele>20.920281</ele>
        <time>2020-08-28T12:22:30.585Z</time>
      </trkpt>
      <trkpt lat="64.62478" lon="21.20014">
        <ele>19.152853</ele>
        <time>2020-08-28T12:22:53.402Z</time>
      </trkpt>
      <trkpt lat="64.62444" lon="21.20056">
        <ele>18.667695</ele>
        <time>2020-08-28T12:22:59.085Z</time>
      </trkpt>
      <trkpt lat="64.62406" lon="21.20091">
        <ele>18.145601</ele>
        <time>2020-08-28T12:23:05.094Z</time>
      </trkpt>
      <trkpt lat="64.62363" lon="21.20121">
        <ele>17.427573</ele>
        <time>2020-08-28T12:23:11.598Z</time>
      </trkpt>
      <trkpt lat="64.6228" lon="21.20179">
        <ele>15.719506</ele>
        <time>2020-08-28T12:23:24.106Z</time>
      </trkpt>
      <trkpt lat="64.62218" lon="21.20194">
        <ele>14.487962</ele>
        <time>2020-08-28T12:23:32.760Z</time>
      </trkpt>
      <trkpt lat="64.62128" lon="21.20163">
        <ele>12.133798</ele>
        <time>2020-08-28T12:23:45.041Z</time>
      </trkpt>
      <trkpt lat="64.62115" lon="21.20155">
        <ele>11.761862</ele>
        <time>2020-08-28T12:23:46.954Z</time>
      </trkpt>
      <trkpt lat="64.62104" lon="21.20148">
        <ele>11.462156</ele>
        <time>2020-08-28T12:23:48.336Z</time>
      </trkpt>
      <trkpt lat="64.6201" lon="21.20094">
        <ele>9.709315</ele>
        <time>2020-08-28T12:24:01.159Z</time>
      </trkpt>
      <trkpt lat="64.61993" lon="21.20083">
        <ele>9.85566</ele>
        <time>2020-08-28T12:24:03.588Z</time>
      </trkpt>
      <trkpt lat="64.61968" lon="21.2007">
        <ele>10.073262</ele>
        <time>2020-08-28T12:24:08.033Z</time>
      </trkpt>
      <trkpt lat="64.61944" lon="21.20056">
        <ele>10.272505</ele>
        <time>2020-08-28T12:24:13.090Z</time>
      </trkpt>
      <trkpt lat="64.6192" lon="21.20043">
        <ele>10.48362</ele>
        <time>2020-08-28T12:24:19.162Z</time>
      </trkpt>
      <trkpt lat="64.61897" lon="21.20029">
        <ele>10.677043</ele>
        <time>2020-08-28T12:24:25.517Z</time>
      </trkpt>
      <trkpt lat="64.61876" lon="21.20017">
        <ele>10.861349</ele>
        <time>2020-08-28T12:24:31.735Z</time>
      </trkpt>
      <trkpt lat="64.61855" lon="21.20005">
        <ele>11.11216</ele>
        <time>2020-08-28T12:24:37.620Z</time>
      </trkpt>
      <trkpt lat="64.61837" lon="21.19996">
        <ele>11.682441</ele>
        <time>2020-08-28T12:24:43.332Z</time>
      </trkpt>
      <trkpt lat="64.6177" lon="21.19971">
        <ele>13.771564</ele>
        <time>2020-08-28T12:25:04.689Z</time>
      </trkpt>
      <trkpt lat="64.61752" lon="21.19958">
        <ele>14.357575</ele>
        <time>2020-08-28T12:25:10.536Z</time>
      </trkpt>
      <trkpt lat="64.6171" lon="21.19944">
        <ele>15.684851</ele>
        <time>2020-08-28T12:25:22.734Z</time>
      </trkpt>
      <trkpt lat="64.61708" lon="21.19974">
        <ele>16.097609</ele>
        <time>2020-08-28T12:25:26.226Z</time>
      </trkpt>
      <trkpt lat="64.61704" lon="21.20033">
        <ele>16.400768</ele>
        <time>2020-08-28T12:25:31.648Z</time>
      </trkpt>
      <trkpt lat="64.61696" lon="21.20091">
        <ele>15.93265</ele>
        <time>2020-08-28T12:25:36.265Z</time>
      </trkpt>
      <trkpt lat="64.61673" lon="21.20158">
        <ele>15.267419</ele>
        <time>2020-08-28T12:25:41.668Z</time>
      </trkpt>
      <trkpt lat="64.61617" lon="21.20328">
        <ele>13.603138</ele>
        <time>2020-08-28T12:25:53.701Z</time>
      </trkpt>
      <trkpt lat="64.61579" lon="21.20416">
        <ele>12.663425</ele>
        <time>2020-08-28T12:26:00.657Z</time>
      </trkpt>
      <trkpt lat="64.61562" lon="21.20457">
        <ele>12.238151</ele>
        <time>2020-08-28T12:26:03.962Z</time>
      </trkpt>
      <trkpt lat="64.61558" lon="21.20468">
        <ele>12.115555</ele>
        <time>2020-08-28T12:26:05.060Z</time>
      </trkpt>
      <trkpt lat="64.61532" lon="21.20539">
        <ele>11.418032</ele>
        <time>2020-08-28T12:26:10.852Z</time>
      </trkpt>
      <trkpt lat="64.61479" lon="21.20733">
        <ele>10.072324</ele>
        <time>2020-08-28T12:26:26.237Z</time>
      </trkpt>
      <trkpt lat="64.6146" lon="21.2079">
        <ele>9.957686</ele>
        <time>2020-08-28T12:26:31.898Z</time>
      </trkpt>
      <trkpt lat="64.61443" lon="21.20832">
        <ele>9.866443</ele>
        <time>2020-08-28T12:26:36.216Z</time>
      </trkpt>
      <trkpt lat="64.61366" lon="21.21042">
        <ele>9.353697</ele>
        <time>2020-08-28T12:26:56.339Z</time>
      </trkpt>
      <trkpt lat="64.61355" lon="21.21076">
        <ele>9.224442</ele>
        <time>2020-08-28T12:26:59.430Z</time>
      </trkpt>
      <trkpt lat="64.61346" lon="21.21103">
        <ele>9.127146</ele>
        <time>2020-08-28T12:27:01.679Z</time>
      </trkpt>
      <trkpt lat="64.61302" lon="21.21218">
        <ele>8.667991</ele>
        <time>2020-08-28T12:27:12.322Z</time>
      </trkpt>
      <trkpt lat="64.61222" lon="21.21393">
        <ele>7.80535</ele>
        <time>2020-08-28T12:27:29.532Z</time>
      </trkpt>
      <trkpt lat="64.61204" lon="21.21421">
        <ele>7.609629</ele>
        <time>2020-08-28T12:27:32.976Z</time>
      </trkpt>
      <trkpt lat="64.61117" lon="21.21486">
        <ele>6.796264</ele>
        <time>2020-08-28T12:27:47.164Z</time>
      </trkpt>
      <trkpt lat="64.6106" lon="21.21545">
        <ele>6.364904</ele>
        <time>2020-08-28T12:27:56.923Z</time>
      </trkpt>
      <trkpt lat="64.61029" lon="21.21596">
        <ele>6.124731</ele>
        <time>2020-08-28T12:28:02.989Z</time>
      </trkpt>
      <trkpt lat="64.61022" lon="21.21608">
        <ele>6.066277</ele>
        <time>2020-08-28T12:28:04.424Z</time>
      </trkpt>
      <trkpt lat="64.60981" lon="21.21684">
        <ele>5.73564</ele>
        <time>2020-08-28T12:28:12.929Z</time>
      </trkpt>
      <trkpt lat="64.60836" lon="21.21863">
        <ele>5.313354</ele>
        <time>2020-08-28T12:28:40.759Z</time>
      </trkpt>
      <trkpt lat="64.60816" lon="21.21911">
        <ele>5.267922</ele>
        <time>2020-08-28T12:28:45.925Z</time>
      </trkpt>
      <trkpt lat="64.60799" lon="21.21967">
        <ele>5.282477</ele>
        <time>2020-08-28T12:28:51.286Z</time>
      </trkpt>
      <trkpt lat="64.6078" lon="21.22032">
        <ele>5.497655</ele>
        <time>2020-08-28T12:28:57.741Z</time>
      </trkpt>
      <trkpt lat="64.60737" lon="21.2227">
        <ele>6.205016</ele>
        <time>2020-08-28T12:29:20.026Z</time>
      </trkpt>
      <trkpt lat="64.60732" lon="21.22291">
        <ele>6.27162</ele>
        <time>2020-08-28T12:29:22.214Z</time>
      </trkpt>
      <trkpt lat="64.60716" lon="21.22355">
        <ele>6.519539</ele>
        <time>2020-08-28T12:29:28.830Z</time>
      </trkpt>
      <trkpt lat="64.60686" lon="21.22464">
        <ele>7.052323</ele>
        <time>2020-08-28T12:29:40.502Z</time>
      </trkpt>
      <trkpt lat="64.60667" lon="21.22514">
        <ele>7.332626</ele>
        <time>2020-08-28T12:29:46.765Z</time>
      </trkpt>
      <trkpt lat="64.6056" lon="21.22727">
        <ele>8.574484</ele>
        <time>2020-08-28T12:30:16.318Z</time>
      </trkpt>
      <trkpt lat="64.60536" lon="21.22746">
        <ele>8.774499</ele>
        <time>2020-08-28T12:30:21.584Z</time>
      </trkpt>
      <trkpt lat="64.60409" lon="21.22772">
        <ele>9.781393</ele>
        <time>2020-08-28T12:30:46.556Z</time>
      </trkpt>
      <trkpt lat="64.60391" lon="21.2278">
        <ele>9.935705</ele>
        <time>2020-08-28T12:30:50.061Z</time>
      </trkpt>
      <trkpt lat="64.60358" lon="21.2279">
        <ele>10.214767</ele>
        <time>2020-08-28T12:30:56.515Z</time>
      </trkpt>
      <trkpt lat="64.60241" lon="21.22806">
        <ele>11.614934</ele>
        <time>2020-08-28T12:31:20.772Z</time>
      </trkpt>
      <trkpt lat="64.60098" lon="21.22812">
        <ele>15.627414</ele>
        <time>2020-08-28T12:31:58.165Z</time>
      </trkpt>
      <trkpt lat="64.60056" lon="21.2281">
        <ele>17.918474</ele>
        <time>2020-08-28T12:32:12.802Z</time>
      </trkpt>
      <trkpt lat="64.59989" lon="21.22781">
        <ele>22.568264</ele>
        <time>2020-08-28T12:32:39.409Z</time>
      </trkpt>
      <trkpt lat="64.59953" lon="21.22783">
        <ele>25.050251</ele>
        <time>2020-08-28T12:32:55.003Z</time>
      </trkpt>
      <trkpt lat="64.59878" lon="21.22798">
        <ele>30.40135</ele>
        <time>2020-08-28T12:33:28.550Z</time>
      </trkpt>
      <trkpt lat="64.59802" lon="21.22828">
        <ele>36.352702</ele>
        <time>2020-08-28T12:34:03.138Z</time>
      </trkpt>
      <trkpt lat="64.59765" lon="21.22859">
        <ele>39.338747</ele>
        <time>2020-08-28T12:34:19.844Z</time>
      </trkpt>
      <trkpt lat="64.59722" lon="21.22922">
        <ele>42.919437</ele>
        <time>2020-08-28T12:34:39.744Z</time>
      </trkpt>
      <trkpt lat="64.59518" lon="21.23345">
        <ele>57.424238</ele>
        <time>2020-08-28T12:36:13.085Z</time>
      </trkpt>
      <trkpt lat="64.59503" lon="21.23388">
        <ele>58.636975</ele>
        <time>2020-08-28T12:36:21.146Z</time>
      </trkpt>
      <trkpt lat="64.59495" lon="21.23435">
        <ele>59.76615</ele>
        <time>2020-08-28T12:36:28.673Z</time>
      </trkpt>
      <trkpt lat="64.59506" lon="21.23694">
        <ele>65.558193</ele>
        <time>2020-08-28T12:37:07.530Z</time>
      </trkpt>
      <trkpt lat="64.59497" lon="21.23869">
        <ele>69.512795</ele>
        <time>2020-08-28T12:37:34.006Z</time>
      </trkpt>
      <trkpt lat="64.59501" lon="21.23958">
        <ele>71.341408</ele>
        <time>2020-08-28T12:37:46.991Z</time>
      </trkpt>
      <trkpt lat="64.59498" lon="21.2402">
        <ele>72.490289</ele>
        <time>2020-08-28T12:37:55.879Z</time>
      </trkpt>
      <trkpt lat="64.59485" lon="21.24072">
        <ele>73.588041</ele>
        <time>2020-08-28T12:38:04.186Z</time>
      </trkpt>
      <trkpt lat="64.59461" lon="21.24129">
        <ele>75.087679</ele>
        <time>2020-08-28T12:38:15.261Z</time>
      </trkpt>
      <trkpt lat="64.59389" lon="21.24264">
        <ele>78.909345</ele>
        <time>2020-08-28T12:38:42.792Z</time>
      </trkpt>
      <trkpt lat="64.59367" lon="21.2428">
        <ele>79.736977</ele>
        <time>2020-08-28T12:38:49.414Z</time>
      </trkpt>
      <trkpt lat="64.59339" lon="21.24279">
        <ele>80.730762</ele>
        <time>2020-08-28T12:38:57.486Z</time>
      </trkpt>
      <trkpt lat="64.59211" lon="21.242">
        <ele>85.291104</ele>
        <time>2020-08-28T12:39:36.411Z</time>
      </trkpt>
      <trkpt lat="64.59186" lon="21.24192">
        <ele>85.96575</ele>
        <time>2020-08-28T12:39:43.421Z</time>
      </trkpt>
      <trkpt lat="64.59171" lon="21.24225">
        <ele>86.544391</ele>
        <time>2020-08-28T12:39:49.414Z</time>
      </trkpt>
      <trkpt lat="64.59134" lon="21.2441">
        <ele>88.950686</ele>
        <time>2020-08-28T12:40:12.529Z</time>
      </trkpt>
      <trkpt lat="64.59128" lon="21.24438">
        <ele>89.315248</ele>
        <time>2020-08-28T12:40:15.927Z</time>
      </trkpt>
      <trkpt lat="64.59098" lon="21.24601">
        <ele>89.864577</ele>
        <time>2020-08-28T12:40:32.987Z</time>
      </trkpt>
      <trkpt lat="64.59023" lon="21.24842">
        <ele>90.068834</ele>
        <time>2020-08-28T12:40:54.906Z</time>
      </trkpt>
      <trkpt lat="64.58967" lon="21.24992">
        <ele>88.777584</ele>
        <time>2020-08-28T12:41:07.565Z</time>
      </trkpt>
      <trkpt lat="64.58798" lon="21.25327">
        <ele>84.957827</ele>
        <time>2020-08-28T12:41:38.798Z</time>
      </trkpt>
      <trkpt lat="64.587" lon="21.25491">
        <ele>83.3443</ele>
        <time>2020-08-28T12:41:56.894Z</time>
      </trkpt>
      <trkpt lat="64.58678" lon="21.25536">
        <ele>83.025079</ele>
        <time>2020-08-28T12:42:01.560Z</time>
      </trkpt>
      <trkpt lat="64.58646" lon="21.25626">
        <ele>82.485938</ele>
        <time>2020-08-28T12:42:09.502Z</time>
      </trkpt>
      <trkpt lat="64.58638" lon="21.25676">
        <ele>82.223547</ele>
        <time>2020-08-28T12:42:13.112Z</time>
      </trkpt>
      <trkpt lat="64.58624" lon="21.25826">
        <ele>81.057645</ele>
        <time>2020-08-28T12:42:23.326Z</time>
      </trkpt>
      <trkpt lat="64.58621" lon="21.25922">
        <ele>80.329258</ele>
        <time>2020-08-28T12:42:29.367Z</time>
      </trkpt>
      <trkpt lat="64.5861" lon="21.26007">
        <ele>79.662967</ele>
        <time>2020-08-28T12:42:34.670Z</time>
      </trkpt>
      <trkpt lat="64.5859" lon="21.26089">
        <ele>78.79543</ele>
        <time>2020-08-28T12:42:40.193Z</time>
      </trkpt>
      <trkpt lat="64.58503" lon="21.26368">
        <ele>73.60305</ele>
        <time>2020-08-28T12:42:59.145Z</time>
      </trkpt>
      <trkpt lat="64.5836" lon="21.26773">
        <ele>65.673212</ele>
        <time>2020-08-28T12:43:27.635Z</time>
      </trkpt>
      <trkpt lat="64.58344" lon="21.26846">
        <ele>64.955177</ele>
        <time>2020-08-28T12:43:32.453Z</time>
      </trkpt>
      <trkpt lat="64.58318" lon="21.27009">
        <ele>63.436828</ele>
        <time>2020-08-28T12:43:43.157Z</time>
      </trkpt>
      <trkpt lat="64.58301" lon="21.2715">
        <ele>62.310046</ele>
        <time>2020-08-28T12:43:52.950Z</time>
      </trkpt>
      <trkpt lat="64.58301" lon="21.27292">
        <ele>61.704927</ele>
        <time>2020-08-28T12:44:02.975Z</time>
      </trkpt>
      <trkpt lat="64.58297" lon="21.27341">
        <ele>61.496128</ele>
        <time>2020-08-28T12:44:06.318Z</time>
      </trkpt>
      <trkpt lat="64.58246" lon="21.27596">
        <ele>59.771606</ele>
        <time>2020-08-28T12:44:24.676Z</time>
      </trkpt>
      <trkpt lat="64.58245" lon="21.27609">
        <ele>59.637143</ele>
        <time>2020-08-28T12:44:25.464Z</time>
      </trkpt>
      <trkpt lat="64.5824" lon="21.2769">
        <ele>58.789216</ele>
        <time>2020-08-28T12:44:30.500Z</time>
      </trkpt>
      <trkpt lat="64.58229" lon="21.27966">
        <ele>55.677865</ele>
        <time>2020-08-28T12:44:46.262Z</time>
      </trkpt>
      <trkpt lat="64.58215" lon="21.28215">
        <ele>51.437232</ele>
        <time>2020-08-28T12:44:59.843Z</time>
      </trkpt>
      <trkpt lat="64.58208" lon="21.28334">
        <ele>49.414394</ele>
        <time>2020-08-28T12:45:06.234Z</time>
      </trkpt>
      <trkpt lat="64.58202" lon="21.28414">
        <ele>48.121624</ele>
        <time>2020-08-28T12:45:10.540Z</time>
      </trkpt>
      <trkpt lat="64.58175" lon="21.28586">
        <ele>45.182784</ele>
        <time>2020-08-28T12:45:20.452Z</time>
      </trkpt>
      <trkpt lat="64.58177" lon="21.28611">
        <ele>44.774999</ele>
        <time>2020-08-28T12:45:21.867Z</time>
      </trkpt>
      <trkpt lat="64.58193" lon="21.28647">
        <ele>43.97915</ele>
        <time>2020-08-28T12:45:24.652Z</time>
      </trkpt>
      <trkpt lat="64.5823" lon="21.28694">
        <ele>42.438377</ele>
        <time>2020-08-28T12:45:30.381Z</time>
      </trkpt>
      <trkpt lat="64.58283" lon="21.28749">
        <ele>40.656378</ele>
        <time>2020-08-28T12:45:38.226Z</time>
      </trkpt>
      <trkpt lat="64.58352" lon="21.28822">
        <ele>38.325511</ele>
        <time>2020-08-28T12:45:48.357Z</time>
      </trkpt>
      <trkpt lat="64.58392" lon="21.28882">
        <ele>36.71603</ele>
        <time>2020-08-28T12:45:54.457Z</time>
      </trkpt>
      <trkpt lat="64.5841" lon="21.28922">
        <ele>35.423335</ele>
        <time>2020-08-28T12:45:57.607Z</time>
      </trkpt>
      <trkpt lat="64.58422" lon="21.29019">
        <ele>33.186834</ele>
        <time>2020-08-28T12:46:02.955Z</time>
      </trkpt>
      <trkpt lat="64.58421" lon="21.29086">
        <ele>31.70327</ele>
        <time>2020-08-28T12:46:06.401Z</time>
      </trkpt>
      <trkpt lat="64.58413" lon="21.29144">
        <ele>30.364621</ele>
        <time>2020-08-28T12:46:09.444Z</time>
      </trkpt>
      <trkpt lat="64.58338" lon="21.29426">
        <ele>22.904489</ele>
        <time>2020-08-28T12:46:26.144Z</time>
      </trkpt>
      <trkpt lat="64.58316" lon="21.29591">
        <ele>19.009791</ele>
        <time>2020-08-28T12:46:35.100Z</time>
      </trkpt>
      <trkpt lat="64.58297" lon="21.30013">
        <ele>14.937263</ele>
        <time>2020-08-28T12:47:00.117Z</time>
      </trkpt>
      <trkpt lat="64.58275" lon="21.30282">
        <ele>16.758895</ele>
        <time>2020-08-28T12:47:27.695Z</time>
      </trkpt>
      <trkpt lat="64.58265" lon="21.30388">
        <ele>17.649744</ele>
        <time>2020-08-28T12:47:40.876Z</time>
      </trkpt>
      <trkpt lat="64.5825" lon="21.30487">
        <ele>18.414874</ele>
        <time>2020-08-28T12:47:53.590Z</time>
      </trkpt>
      <trkpt lat="64.58235" lon="21.30545">
        <ele>18.830273</ele>
        <time>2020-08-28T12:48:01.850Z</time>
      </trkpt>
      <trkpt lat="64.57968" lon="21.31435">
        <ele>24.097499</ele>
        <time>2020-08-28T12:49:41.645Z</time>
      </trkpt>
      <trkpt lat="64.57911" lon="21.3156">
        <ele>22.917758</ele>
        <time>2020-08-28T12:49:53.096Z</time>
      </trkpt>
      <trkpt lat="64.57889" lon="21.31624">
        <ele>22.043663</ele>
        <time>2020-08-28T12:49:57.948Z</time>
      </trkpt>
      <trkpt lat="64.57878" lon="21.31677">
        <ele>21.422627</ele>
        <time>2020-08-28T12:50:01.312Z</time>
      </trkpt>
      <trkpt lat="64.57869" lon="21.31721">
        <ele>20.899721</ele>
        <time>2020-08-28T12:50:04.052Z</time>
      </trkpt>
      <trkpt lat="64.57838" lon="21.31987">
        <ele>16.99369</ele>
        <time>2020-08-28T12:50:19.110Z</time>
      </trkpt>
      <trkpt lat="64.57833" lon="21.32067">
        <ele>15.664922</ele>
        <time>2020-08-28T12:50:23.459Z</time>
      </trkpt>
      <trkpt lat="64.57836" lon="21.3217">
        <ele>13.969225</ele>
        <time>2020-08-28T12:50:29.078Z</time>
      </trkpt>
      <trkpt lat="64.57853" lon="21.32421">
        <ele>10.590281</ele>
        <time>2020-08-28T12:50:43.014Z</time>
      </trkpt>
      <trkpt lat="64.57908" lon="21.3277">
        <ele>7.428406</ele>
        <time>2020-08-28T12:51:05.327Z</time>
      </trkpt>
      <trkpt lat="64.57909" lon="21.32844">
        <ele>7.247142</ele>
        <time>2020-08-28T12:51:10.628Z</time>
      </trkpt>
      <trkpt lat="64.57896" lon="21.32925">
        <ele>7.036999</ele>
        <time>2020-08-28T12:51:17.212Z</time>
      </trkpt>
      <trkpt lat="64.57805" lon="21.33228">
        <ele>7.555146</ele>
        <time>2020-08-28T12:51:49.841Z</time>
      </trkpt>
      <trkpt lat="64.57646" lon="21.33758">
        <ele>9.356866</ele>
        <time>2020-08-28T12:52:45.443Z</time>
      </trkpt>
      <trkpt lat="64.57455" lon="21.34409">
        <ele>10.242864</ele>
        <time>2020-08-28T12:53:48.396Z</time>
      </trkpt>
      <trkpt lat="64.57439" lon="21.34474">
        <ele>10.253599</ele>
        <time>2020-08-28T12:53:54.300Z</time>
      </trkpt>
      <trkpt lat="64.57432" lon="21.34527">
        <ele>10.261403</ele>
        <time>2020-08-28T12:53:58.573Z</time>
      </trkpt>
      <trkpt lat="64.5741" lon="21.34859">
        <ele>10.311571</ele>
        <time>2020-08-28T12:54:24.345Z</time>
      </trkpt>
      <trkpt lat="64.57398" lon="21.34968">
        <ele>10.332362</ele>
        <time>2020-08-28T12:54:32.928Z</time>
      </trkpt>
      <trkpt lat="64.57363" lon="21.35256">
        <ele>10.398362</ele>
        <time>2020-08-28T12:54:56.028Z</time>
      </trkpt>
      <trkpt lat="64.57352" lon="21.35339">
        <ele>10.43225</ele>
        <time>2020-08-28T12:55:02.828Z</time>
      </trkpt>
      <trkpt lat="64.57339" lon="21.35444">
        <ele>10.474587</ele>
        <time>2020-08-28T12:55:11.339Z</time>
      </trkpt>
      <trkpt lat="64.57319" lon="21.35538">
        <ele>10.515502</ele>
        <time>2020-08-28T12:55:19.531Z</time>
      </trkpt>
      <trkpt lat="64.57283" lon="21.35657">
        <ele>10.53177</ele>
        <time>2020-08-28T12:55:30.861Z</time>
      </trkpt>
      <trkpt lat="64.57206" lon="21.3597">
        <ele>10.479065</ele>
        <time>2020-08-28T12:55:58.312Z</time>
      </trkpt>
      <trkpt lat="64.57117" lon="21.36216">
        <ele>10.293402</ele>
        <time>2020-08-28T12:56:22.297Z</time>
      </trkpt>
      <trkpt lat="64.57021" lon="21.36424">
        <ele>10.167772</ele>
        <time>2020-08-28T12:56:45.138Z</time>
      </trkpt>
      <trkpt lat="64.56986" lon="21.36478">
        <ele>10.132945</ele>
        <time>2020-08-28T12:56:52.532Z</time>
      </trkpt>
      <trkpt lat="64.56895" lon="21.36568">
        <ele>10.159826</ele>
        <time>2020-08-28T12:57:10.289Z</time>
      </trkpt>
      <trkpt lat="64.56856" lon="21.3659">
        <ele>10.199605</ele>
        <time>2020-08-28T12:57:17.575Z</time>
      </trkpt>
      <trkpt lat="64.56757" lon="21.3662">
        <ele>10.324847</ele>
        <time>2020-08-28T12:57:36.072Z</time>
      </trkpt>
      <trkpt lat="64.56703" lon="21.36679">
        <ele>10.46007</ele>
        <time>2020-08-28T12:57:47.108Z</time>
      </trkpt>
      <trkpt lat="64.56617" lon="21.36734">
        <ele>10.665274</ele>
        <time>2020-08-28T12:58:03.822Z</time>
      </trkpt>
      <trkpt lat="64.56538" lon="21.36806">
        <ele>10.51048</ele>
        <time>2020-08-28T12:58:19.079Z</time>
      </trkpt>
      <trkpt lat="64.56473" lon="21.3688">
        <ele>10.331912</ele>
        <time>2020-08-28T12:58:31.256Z</time>
      </trkpt>
      <trkpt lat="64.56452" lon="21.36891">
        <ele>10.279494</ele>
        <time>2020-08-28T12:58:34.698Z</time>
      </trkpt>
      <trkpt lat="64.56435" lon="21.36889">
        <ele>10.213131</ele>
        <time>2020-08-28T12:58:37.517Z</time>
      </trkpt>
      <trkpt lat="64.56414" lon="21.3687">
        <ele>10.033492</ele>
        <time>2020-08-28T12:58:41.121Z</time>
      </trkpt>
      <trkpt lat="64.5611" lon="21.36413">
        <ele>7.582903</ele>
        <time>2020-08-28T12:59:38.322Z</time>
      </trkpt>
      <trkpt lat="64.55852" lon="21.35976">
        <ele>9.142053</ele>
        <time>2020-08-28T13:00:41.756Z</time>
      </trkpt>
      <trkpt lat="64.55831" lon="21.35916">
        <ele>9.323137</ele>
        <time>2020-08-28T13:00:48.418Z</time>
      </trkpt>
      <trkpt lat="64.55822" lon="21.35815">
        <ele>9.542335</ele>
        <time>2020-08-28T13:00:57.299Z</time>
      </trkpt>
      <trkpt lat="64.55815" lon="21.3529">
        <ele>10.638997</ele>
        <time>2020-08-28T13:01:40.119Z</time>
      </trkpt>
      <trkpt lat="64.55808" lon="21.35169">
        <ele>10.889764</ele>
        <time>2020-08-28T13:01:50.304Z</time>
      </trkpt>
      <trkpt lat="64.55793" lon="21.35082">
        <ele>11.351771</ele>
        <time>2020-08-28T13:01:58.645Z</time>
      </trkpt>
      <trkpt lat="64.55782" lon="21.35033">
        <ele>11.728315</ele>
        <time>2020-08-28T13:02:03.732Z</time>
      </trkpt>
      <trkpt lat="64.55756" lon="21.34914">
        <ele>12.625023</ele>
        <time>2020-08-28T13:02:16.681Z</time>
      </trkpt>
      <trkpt lat="64.55749" lon="21.34856">
        <ele>13.026913</ele>
        <time>2020-08-28T13:02:22.791Z</time>
      </trkpt>
      <trkpt lat="64.5575" lon="21.34801">
        <ele>13.393315</ele>
        <time>2020-08-28T13:02:28.479Z</time>
      </trkpt>
      <trkpt lat="64.55764" lon="21.34663">
        <ele>14.584537</ele>
        <time>2020-08-28T13:02:44.063Z</time>
      </trkpt>
      <trkpt lat="64.55758" lon="21.34601">
        <ele>15.191897</ele>
        <time>2020-08-28T13:02:51.192Z</time>
      </trkpt>
      <trkpt lat="64.55737" lon="21.34541">
        <ele>15.923412</ele>
        <time>2020-08-28T13:02:59.715Z</time>
      </trkpt>
      <trkpt lat="64.5571" lon="21.34492">
        <ele>16.679192</ele>
        <time>2020-08-28T13:03:08.470Z</time>
      </trkpt>
      <trkpt lat="64.55536" lon="21.34227">
        <ele>20.515905</ele>
        <time>2020-08-28T13:03:57.757Z</time>
      </trkpt>
      <trkpt lat="64.55511" lon="21.34153">
        <ele>21.121829</ele>
        <time>2020-08-28T13:04:06.547Z</time>
      </trkpt>
      <trkpt lat="64.55489" lon="21.34067">
        <ele>21.668974</ele>
        <time>2020-08-28T13:04:15.845Z</time>
      </trkpt>
      <trkpt lat="64.55458" lon="21.33987">
        <ele>22.262662</ele>
        <time>2020-08-28T13:04:25.905Z</time>
      </trkpt>
      <trkpt lat="64.55387" lon="21.33892">
        <ele>23.292399</ele>
        <time>2020-08-28T13:04:43.710Z</time>
      </trkpt>
      <trkpt lat="64.55356" lon="21.33876">
        <ele>23.638789</ele>
        <time>2020-08-28T13:04:50.599Z</time>
      </trkpt>
      <trkpt lat="64.55202" lon="21.33844">
        <ele>25.16257</ele>
        <time>2020-08-28T13:05:23.907Z</time>
      </trkpt>
      <trkpt lat="64.55181" lon="21.33824">
        <ele>25.143865</ele>
        <time>2020-08-28T13:05:28.508Z</time>
      </trkpt>
      <trkpt lat="64.5515" lon="21.33782">
        <ele>25.114564</ele>
        <time>2020-08-28T13:05:35.264Z</time>
      </trkpt>
      <trkpt lat="64.55024" lon="21.33608">
        <ele>24.642729</ele>
        <time>2020-08-28T13:05:58.964Z</time>
      </trkpt>
      <trkpt lat="64.54992" lon="21.33581">
        <ele>24.334165</ele>
        <time>2020-08-28T13:06:04.223Z</time>
      </trkpt>
      <trkpt lat="64.54965" lon="21.33568">
        <ele>24.089439</ele>
        <time>2020-08-28T13:06:08.377Z</time>
      </trkpt>
      <trkpt lat="64.54769" lon="21.33554">
        <ele>22.412195</ele>
        <time>2020-08-28T13:06:39.103Z</time>
      </trkpt>
      <trkpt lat="64.54589" lon="21.33451">
        <ele>21.173048</ele>
        <time>2020-08-28T13:07:09.054Z</time>
      </trkpt>
      <trkpt lat="64.54579" lon="21.33444">
        <ele>21.110893</ele>
        <time>2020-08-28T13:07:10.743Z</time>
      </trkpt>
      <trkpt lat="64.54562" lon="21.33434">
        <ele>21.006234</ele>
        <time>2020-08-28T13:07:13.621Z</time>
      </trkpt>
      <trkpt lat="64.54451" lon="21.3343">
        <ele>20.474404</ele>
        <time>2020-08-28T13:07:31.917Z</time>
      </trkpt>
      <trkpt lat="64.54369" lon="21.33414">
        <ele>20.109982</ele>
        <time>2020-08-28T13:07:45.719Z</time>
      </trkpt>
      <trkpt lat="64.54305" lon="21.33439">
        <ele>19.768113</ele>
        <time>2020-08-28T13:07:56.579Z</time>
      </trkpt>
      <trkpt lat="64.5428" lon="21.33446">
        <ele>19.633741</ele>
        <time>2020-08-28T13:08:00.655Z</time>
      </trkpt>
      <trkpt lat="64.54251" lon="21.33442">
        <ele>19.475464</ele>
        <time>2020-08-28T13:08:05.408Z</time>
      </trkpt>
      <trkpt lat="64.54234" lon="21.33432">
        <ele>19.382102</ele>
        <time>2020-08-28T13:08:08.213Z</time>
      </trkpt>
      <trkpt lat="64.5423" lon="21.33426">
        <ele>19.352995</ele>
        <time>2020-08-28T13:08:09.080Z</time>
      </trkpt>
      <trkpt lat="64.54216" lon="21.33418">
        <ele>19.27815</ele>
        <time>2020-08-28T13:08:11.294Z</time>
      </trkpt>
      <trkpt lat="64.54189" lon="21.33407">
        <ele>19.129172</ele>
        <time>2020-08-28T13:08:15.714Z</time>
      </trkpt>
      <trkpt lat="64.54165" lon="21.33416">
        <ele>18.963041</ele>
        <time>2020-08-28T13:08:19.647Z</time>
      </trkpt>
      <trkpt lat="64.54143" lon="21.33427">
        <ele>18.786565</ele>
        <time>2020-08-28T13:08:23.292Z</time>
      </trkpt>
      <trkpt lat="64.5414" lon="21.33429">
        <ele>18.760631</ele>
        <time>2020-08-28T13:08:23.825Z</time>
      </trkpt>
      <trkpt lat="64.54081" lon="21.33468">
        <ele>18.294211</ele>
        <time>2020-08-28T13:08:33.403Z</time>
      </trkpt>
      <trkpt lat="64.54013" lon="21.33509">
        <ele>17.754109</ele>
        <time>2020-08-28T13:08:44.575Z</time>
      </trkpt>
      <trkpt lat="64.53855" lon="21.33558">
        <ele>16.768273</ele>
        <time>2020-08-28T13:09:10.368Z</time>
      </trkpt>
      <trkpt lat="64.53832" lon="21.33563">
        <ele>16.626945</ele>
        <time>2020-08-28T13:09:14.206Z</time>
      </trkpt>
      <trkpt lat="64.53793" lon="21.3362">
        <ele>16.403897</ele>
        <time>2020-08-28T13:09:21.843Z</time>
      </trkpt>
      <trkpt lat="64.53714" lon="21.33805">
        <ele>15.874333</ele>
        <time>2020-08-28T13:09:40.412Z</time>
      </trkpt>
      <trkpt lat="64.53697" lon="21.33868">
        <ele>15.720267</ele>
        <time>2020-08-28T13:09:45.820Z</time>
      </trkpt>
      <trkpt lat="64.53688" lon="21.33918">
        <ele>15.606033</ele>
        <time>2020-08-28T13:09:49.677Z</time>
      </trkpt>
      <trkpt lat="64.53654" lon="21.34198">
        <ele>14.991715</ele>
        <time>2020-08-28T13:10:10.308Z</time>
      </trkpt>
      <trkpt lat="64.53634" lon="21.34305">
        <ele>14.777557</ele>
        <time>2020-08-28T13:10:18.535Z</time>
      </trkpt>
      <trkpt lat="64.53611" lon="21.34373">
        <ele>14.645102</ele>
        <time>2020-08-28T13:10:24.658Z</time>
      </trkpt>
      <trkpt lat="64.53585" lon="21.34434">
        <ele>14.512973</ele>
        <time>2020-08-28T13:10:30.832Z</time>
      </trkpt>
      <trkpt lat="64.53521" lon="21.34563">
        <ele>14.215598</ele>
        <time>2020-08-28T13:10:45.270Z</time>
      </trkpt>
      <trkpt lat="64.53432" lon="21.34718">
        <ele>14.082177</ele>
        <time>2020-08-28T13:11:04.629Z</time>
      </trkpt>
      <trkpt lat="64.53304" lon="21.34916">
        <ele>14.001489</ele>
        <time>2020-08-28T13:11:31.994Z</time>
      </trkpt>
      <trkpt lat="64.53222" lon="21.35064">
        <ele>14.000012</ele>
        <time>2020-08-28T13:11:50.602Z</time>
      </trkpt>
      <trkpt lat="64.53045" lon="21.35284">
        <ele>14.000012</ele>
        <time>2020-08-28T13:12:26.358Z</time>
      </trkpt>
      <trkpt lat="64.52899" lon="21.35618">
        <ele>14.003778</ele>
        <time>2020-08-28T13:13:02.946Z</time>
      </trkpt>
      <trkpt lat="64.52873" lon="21.35655">
        <ele>14.005732</ele>
        <time>2020-08-28T13:13:08.326Z</time>
      </trkpt>
      <trkpt lat="64.52845" lon="21.35675">
        <ele>14.007662</ele>
        <time>2020-08-28T13:13:13.632Z</time>
      </trkpt>
      <trkpt lat="64.5277" lon="21.35696">
        <ele>14.023428</ele>
        <time>2020-08-28T13:13:27.022Z</time>
      </trkpt>
      <trkpt lat="64.52639" lon="21.35819">
        <ele>14.15241</ele>
        <time>2020-08-28T13:13:52.608Z</time>
      </trkpt>
      <trkpt lat="64.52608" lon="21.35863">
        <ele>14.200234</ele>
        <time>2020-08-28T13:13:59.383Z</time>
      </trkpt>
      <trkpt lat="64.52594" lon="21.359">
        <ele>14.245205</ele>
        <time>2020-08-28T13:14:03.237Z</time>
      </trkpt>
      <trkpt lat="64.52585" lon="21.35957">
        <ele>14.301983</ele>
        <time>2020-08-28T13:14:08.101Z</time>
      </trkpt>
      <trkpt lat="64.5258" lon="21.36081">
        <ele>14.417847</ele>
        <time>2020-08-28T13:14:18.087Z</time>
      </trkpt>
      <trkpt lat="64.52573" lon="21.36132">
        <ele>14.466871</ele>
        <time>2020-08-28T13:14:22.326Z</time>
      </trkpt>
      <trkpt lat="64.52561" lon="21.36177">
        <ele>14.515494</ele>
        <time>2020-08-28T13:14:26.548Z</time>
      </trkpt>
      <trkpt lat="64.52542" lon="21.36221">
        <ele>14.569567</ele>
        <time>2020-08-28T13:14:31.610Z</time>
      </trkpt>
      <trkpt lat="64.52424" lon="21.36366">
        <ele>14.729357</ele>
        <time>2020-08-28T13:14:56.191Z</time>
      </trkpt>
      <trkpt lat="64.5203" lon="21.36755">
        <ele>14.724032</ele>
        <time>2020-08-28T13:16:12.363Z</time>
      </trkpt>
      <trkpt lat="64.52002" lon="21.36808">
        <ele>14.742049</ele>
        <time>2020-08-28T13:16:18.760Z</time>
      </trkpt>
      <trkpt lat="64.51907" lon="21.37043">
        <ele>14.807105</ele>
        <time>2020-08-28T13:16:43.900Z</time>
      </trkpt>
      <trkpt lat="64.51881" lon="21.37119">
        <ele>14.818349</ele>
        <time>2020-08-28T13:16:51.440Z</time>
      </trkpt>
      <trkpt lat="64.51825" lon="21.37335">
        <ele>14.847724</ele>
        <time>2020-08-28T13:17:10.875Z</time>
      </trkpt>
      <trkpt lat="64.51788" lon="21.37418">
        <ele>14.780512</ele>
        <time>2020-08-28T13:17:19.878Z</time>
      </trkpt>
      <trkpt lat="64.5144" lon="21.379">
        <ele>14.135411</ele>
        <time>2020-08-28T13:18:29.855Z</time>
      </trkpt>
      <trkpt lat="64.51397" lon="21.3797">
        <ele>14.0648</ele>
        <time>2020-08-28T13:18:39.166Z</time>
      </trkpt>
      <trkpt lat="64.51211" lon="21.38319">
        <ele>13.984259</ele>
        <time>2020-08-28T13:19:21.629Z</time>
      </trkpt>
      <trkpt lat="64.51173" lon="21.38376">
        <ele>13.95604</ele>
        <time>2020-08-28T13:19:29.565Z</time>
      </trkpt>
      <trkpt lat="64.51116" lon="21.38437">
        <ele>13.91664</ele>
        <time>2020-08-28T13:19:40.617Z</time>
      </trkpt>
      <trkpt lat="64.5107" lon="21.38502">
        <ele>13.882297</ele>
        <time>2020-08-28T13:19:50.009Z</time>
      </trkpt>
      <trkpt lat="64.50994" lon="21.38636">
        <ele>13.792399</ele>
        <time>2020-08-28T13:20:06.875Z</time>
      </trkpt>
      <trkpt lat="64.50958" lon="21.38681">
        <ele>13.754361</ele>
        <time>2020-08-28T13:20:14.005Z</time>
      </trkpt>
      <trkpt lat="64.50815" lon="21.38784">
        <ele>13.741255</ele>
        <time>2020-08-28T13:20:40.731Z</time>
      </trkpt>
      <trkpt lat="64.50702" lon="21.38941">
        <ele>13.868975</ele>
        <time>2020-08-28T13:21:04.509Z</time>
      </trkpt>
      <trkpt lat="64.50649" lon="21.38949">
        <ele>13.966661</ele>
        <time>2020-08-28T13:21:14.227Z</time>
      </trkpt>
      <trkpt lat="64.50625" lon="21.38938">
        <ele>14.01259</ele>
        <time>2020-08-28T13:21:18.817Z</time>
      </trkpt>
      <trkpt lat="64.5057" lon="21.38936">
        <ele>14.139135</ele>
        <time>2020-08-28T13:21:29.049Z</time>
      </trkpt>
      <trkpt lat="64.50424" lon="21.38994">
        <ele>14.673591</ele>
        <time>2020-08-28T13:21:57.075Z</time>
      </trkpt>
      <trkpt lat="64.50387" lon="21.39024">
        <ele>14.886181</ele>
        <time>2020-08-28T13:22:04.734Z</time>
      </trkpt>
      <trkpt lat="64.50323" lon="21.39112">
        <ele>15.395537</ele>
        <time>2020-08-28T13:22:19.374Z</time>
      </trkpt>
      <trkpt lat="64.5026" lon="21.39291">
        <ele>16.106657</ele>
        <time>2020-08-28T13:22:39.972Z</time>
      </trkpt>
      <trkpt lat="64.50234" lon="21.39353">
        <ele>16.410162</ele>
        <time>2020-08-28T13:22:47.603Z</time>
      </trkpt>
      <trkpt lat="64.50207" lon="21.39399">
        <ele>16.685423</ele>
        <time>2020-08-28T13:22:54.518Z</time>
      </trkpt>
      <trkpt lat="64.50098" lon="21.39579">
        <ele>17.697799</ele>
        <time>2020-08-28T13:23:21.796Z</time>
      </trkpt>
      <trkpt lat="64.50063" lon="21.39627">
        <ele>17.949968</ele>
        <time>2020-08-28T13:23:29.795Z</time>
      </trkpt>
      <trkpt lat="64.50026" lon="21.39676">
        <ele>18.2179</ele>
        <time>2020-08-28T13:23:38.230Z</time>
      </trkpt>
      <trkpt lat="64.49973" lon="21.39704">
        <ele>18.556568</ele>
        <time>2020-08-28T13:23:48.853Z</time>
      </trkpt>
      <trkpt lat="64.4972" lon="21.39684">
        <ele>19.544945</ele>
        <time>2020-08-28T13:24:37.121Z</time>
      </trkpt>
      <trkpt lat="64.49534" lon="21.39673">
        <ele>20.095277</ele>
        <time>2020-08-28T13:25:11.963Z</time>
      </trkpt>
      <trkpt lat="64.49302" lon="21.3966">
        <ele>20.547332</ele>
        <time>2020-08-28T13:25:55.425Z</time>
      </trkpt>
      <trkpt lat="64.48988" lon="21.39643">
        <ele>20.336628</ele>
        <time>2020-08-28T13:26:50.190Z</time>
      </trkpt>
      <trkpt lat="64.4856" lon="21.39619">
        <ele>20.023029</ele>
        <time>2020-08-28T13:28:05.661Z</time>
      </trkpt>
      <trkpt lat="64.48532" lon="21.39608">
        <ele>20.007353</ele>
        <time>2020-08-28T13:28:10.795Z</time>
      </trkpt>
      <trkpt lat="64.48507" lon="21.39583">
        <ele>20.006246</ele>
        <time>2020-08-28T13:28:15.605Z</time>
      </trkpt>
      <trkpt lat="64.48337" lon="21.39247">
        <ele>20.000012</ele>
        <time>2020-08-28T13:28:55.320Z</time>
      </trkpt>
      <trkpt lat="64.48312" lon="21.39212">
        <ele>20.000012</ele>
        <time>2020-08-28T13:29:00.560Z</time>
      </trkpt>
      <trkpt lat="64.48286" lon="21.39188">
        <ele>20.000012</ele>
        <time>2020-08-28T13:29:05.619Z</time>
      </trkpt>
      <trkpt lat="64.48234" lon="21.39145">
        <ele>19.997945</ele>
        <time>2020-08-28T13:29:15.345Z</time>
      </trkpt>
      <trkpt lat="64.48182" lon="21.39084">
        <ele>19.956513</ele>
        <time>2020-08-28T13:29:25.748Z</time>
      </trkpt>
      <trkpt lat="64.48145" lon="21.39066">
        <ele>19.929839</ele>
        <time>2020-08-28T13:29:32.418Z</time>
      </trkpt>
      <trkpt lat="64.48021" lon="21.39045">
        <ele>19.797721</ele>
        <time>2020-08-28T13:29:54.249Z</time>
      </trkpt>
      <trkpt lat="64.47935" lon="21.3907">
        <ele>19.650555</ele>
        <time>2020-08-28T13:30:09.119Z</time>
      </trkpt>
      <trkpt lat="64.47709" lon="21.39199">
        <ele>19.137645</ele>
        <time>2020-08-28T13:30:49.083Z</time>
      </trkpt>
      <trkpt lat="64.47686" lon="21.39212">
        <ele>19.119245</ele>
        <time>2020-08-28T13:30:53.199Z</time>
      </trkpt>
      <trkpt lat="64.47641" lon="21.39237">
        <ele>19.083077</ele>
        <time>2020-08-28T13:31:01.309Z</time>
      </trkpt>
      <trkpt lat="64.47405" lon="21.39365">
        <ele>19.000012</ele>
        <time>2020-08-28T13:31:44.391Z</time>
      </trkpt>
      <trkpt lat="64.47274" lon="21.39391">
        <ele>19.026105</ele>
        <time>2020-08-28T13:32:07.814Z</time>
      </trkpt>
      <trkpt lat="64.47237" lon="21.39386">
        <ele>19.03738</ele>
        <time>2020-08-28T13:32:14.560Z</time>
      </trkpt>
      <trkpt lat="64.47141" lon="21.39362">
        <ele>19.102988</ele>
        <time>2020-08-28T13:32:31.886Z</time>
      </trkpt>
      <trkpt lat="64.47113" lon="21.39355">
        <ele>19.136251</ele>
        <time>2020-08-28T13:32:36.966Z</time>
      </trkpt>
      <trkpt lat="64.47075" lon="21.39343">
        <ele>19.182557</ele>
        <time>2020-08-28T13:32:44.075Z</time>
      </trkpt>
      <trkpt lat="64.47028" lon="21.39309">
        <ele>19.241237</ele>
        <time>2020-08-28T13:32:53.150Z</time>
      </trkpt>
      <trkpt lat="64.46845" lon="21.39177">
        <ele>19.631281</ele>
        <time>2020-08-28T13:33:28.895Z</time>
      </trkpt>
      <trkpt lat="64.46741" lon="21.39108">
        <ele>19.483283</ele>
        <time>2020-08-28T13:33:48.227Z</time>
      </trkpt>
      <trkpt lat="64.46709" lon="21.39086">
        <ele>19.423756</ele>
        <time>2020-08-28T13:33:54.077Z</time>
      </trkpt>
      <trkpt lat="64.46593" lon="21.39015">
        <ele>18.88781</ele>
        <time>2020-08-28T13:34:13.371Z</time>
      </trkpt>
      <trkpt lat="64.46574" lon="21.38998">
        <ele>18.757678</ele>
        <time>2020-08-28T13:34:16.544Z</time>
      </trkpt>
      <trkpt lat="64.46569" lon="21.39035">
        <ele>18.648878</ele>
        <time>2020-08-28T13:34:19.199Z</time>
      </trkpt>
      <trkpt lat="64.46566" lon="21.39101">
        <ele>18.4666</ele>
        <time>2020-08-28T13:34:23.709Z</time>
      </trkpt>
      <trkpt lat="64.46565" lon="21.39137">
        <ele>18.36883</ele>
        <time>2020-08-28T13:34:26.213Z</time>
      </trkpt>
      <trkpt lat="64.46565" lon="21.39181">
        <ele>18.246425</ele>
        <time>2020-08-28T13:34:29.305Z</time>
      </trkpt>
      <trkpt lat="64.46563" lon="21.39231">
        <ele>18.217356</ele>
        <time>2020-08-28T13:34:33.047Z</time>
      </trkpt>
      <trkpt lat="64.46563" lon="21.39261">
        <ele>18.245518</ele>
        <time>2020-08-28T13:34:35.188Z</time>
      </trkpt>
      <trkpt lat="64.46561" lon="21.39319">
        <ele>18.300355</ele>
        <time>2020-08-28T13:34:39.688Z</time>
      </trkpt>
      <trkpt lat="64.46562" lon="21.39342">
        <ele>18.321637</ele>
        <time>2020-08-28T13:34:41.350Z</time>
      </trkpt>
      <trkpt lat="64.46562" lon="21.39342">
        <ele>18.321637</ele>
        <time>2020-08-28T13:34:41.353Z</time>
      </trkpt>
      <trkpt lat="64.46562" lon="21.39342">
        <ele>18.321637</ele>
        <time>2020-08-28T13:34:41.377Z</time>
      </trkpt>
      <trkpt lat="64.46561" lon="21.39319">
        <ele>18.342919</ele>
        <time>2020-08-28T13:34:43.232Z</time>
      </trkpt>
      <trkpt lat="64.46563" lon="21.39261">
        <ele>18.397756</ele>
        <time>2020-08-28T13:34:47.775Z</time>
      </trkpt>
      <trkpt lat="64.46563" lon="21.39231">
        <ele>18.425917</ele>
        <time>2020-08-28T13:34:50.314Z</time>
      </trkpt>
      <trkpt lat="64.46565" lon="21.39181">
        <ele>18.473275</ele>
        <time>2020-08-28T13:34:54.386Z</time>
      </trkpt>
      <trkpt lat="64.46565" lon="21.39137">
        <ele>18.515192</ele>
        <time>2020-08-28T13:34:58.315Z</time>
      </trkpt>
      <trkpt lat="64.46566" lon="21.39101">
        <ele>18.548672</ele>
        <time>2020-08-28T13:35:01.336Z</time>
      </trkpt>
      <trkpt lat="64.46569" lon="21.39035">
        <ele>18.656282</ele>
        <time>2020-08-28T13:35:07.222Z</time>
      </trkpt>
      <trkpt lat="64.46574" lon="21.38998">
        <ele>18.752398</ele>
        <time>2020-08-28T13:35:10.706Z</time>
      </trkpt>
      <trkpt lat="64.46568" lon="21.38975">
        <ele>18.818208</ele>
        <time>2020-08-28T13:35:13.189Z</time>
      </trkpt>
      <trkpt lat="64.46529" lon="21.38856">
        <ele>19.181275</ele>
        <time>2020-08-28T13:35:26.325Z</time>
      </trkpt>
      <trkpt lat="64.46508" lon="21.38792">
        <ele>19.377285</ele>
        <time>2020-08-28T13:35:33.157Z</time>
      </trkpt>
      <trkpt lat="64.46488" lon="21.38736">
        <ele>19.55331</ele>
        <time>2020-08-28T13:35:38.940Z</time>
      </trkpt>
      <trkpt lat="64.46423" lon="21.38522">
        <ele>19.565769</ele>
        <time>2020-08-28T13:35:58.780Z</time>
      </trkpt>
      <trkpt lat="64.4642" lon="21.38508">
        <ele>19.563757</ele>
        <time>2020-08-28T13:35:59.939Z</time>
      </trkpt>
      <trkpt lat="64.46398" lon="21.38404">
        <ele>19.549329</ele>
        <time>2020-08-28T13:36:08.529Z</time>
      </trkpt>
      <trkpt lat="64.46315" lon="21.38016">
        <ele>19.731643</ele>
        <time>2020-08-28T13:36:42.168Z</time>
      </trkpt>
      <trkpt lat="64.46247" lon="21.37759">
        <ele>20.420127</ele>
        <time>2020-08-28T13:37:07.571Z</time>
      </trkpt>
      <trkpt lat="64.46099" lon="21.37253">
        <ele>22.056154</ele>
        <time>2020-08-28T13:38:01.085Z</time>
      </trkpt>
      <trkpt lat="64.46079" lon="21.37186">
        <ele>22.049356</ele>
        <time>2020-08-28T13:38:07.641Z</time>
      </trkpt>
      <trkpt lat="64.46056" lon="21.37112">
        <ele>22.041619</ele>
        <time>2020-08-28T13:38:14.864Z</time>
      </trkpt>
      <trkpt lat="64.4604" lon="21.37076">
        <ele>22.03722</ele>
        <time>2020-08-28T13:38:18.855Z</time>
      </trkpt>
      <trkpt lat="64.45835" lon="21.36742">
        <ele>20.659238</ele>
        <time>2020-08-28T13:38:59.627Z</time>
      </trkpt>
      <trkpt lat="64.45781" lon="21.36653">
        <ele>19.598352</ele>
        <time>2020-08-28T13:39:09.437Z</time>
      </trkpt>
      <trkpt lat="64.45757" lon="21.36612">
        <ele>19.12185</ele>
        <time>2020-08-28T13:39:13.740Z</time>
      </trkpt>
      <trkpt lat="64.45737" lon="21.36557">
        <ele>18.620088</ele>
        <time>2020-08-28T13:39:18.202Z</time>
      </trkpt>
      <trkpt lat="64.45718" lon="21.36493">
        <ele>18.084404</ele>
        <time>2020-08-28T13:39:22.883Z</time>
      </trkpt>
      <trkpt lat="64.45649" lon="21.36081">
        <ele>13.96219</ele>
        <time>2020-08-28T13:39:49.134Z</time>
      </trkpt>
      <trkpt lat="64.45588" lon="21.35867">
        <ele>12.442881</ele>
        <time>2020-08-28T13:40:05.316Z</time>
      </trkpt>
      <trkpt lat="64.45561" lon="21.35802">
        <ele>11.90342</ele>
        <time>2020-08-28T13:40:11.383Z</time>
      </trkpt>
      <trkpt lat="64.45513" lon="21.3575">
        <ele>11.48692</ele>
        <time>2020-08-28T13:40:19.816Z</time>
      </trkpt>
      <trkpt lat="64.45339" lon="21.35681">
        <ele>11.518487</ele>
        <time>2020-08-28T13:40:51.341Z</time>
      </trkpt>
      <trkpt lat="64.45017" lon="21.35363">
        <ele>14.581998</ele>
        <time>2020-08-28T13:42:05.726Z</time>
      </trkpt>
      <trkpt lat="64.44998" lon="21.35354">
        <ele>14.509243</ele>
        <time>2020-08-28T13:42:09.488Z</time>
      </trkpt>
      <trkpt lat="64.4497" lon="21.35348">
        <ele>14.401393</ele>
        <time>2020-08-28T13:42:14.372Z</time>
      </trkpt>
      <trkpt lat="64.44679" lon="21.35489">
        <ele>12.489236</ele>
        <time>2020-08-28T13:43:00.895Z</time>
      </trkpt>
      <trkpt lat="64.4458" lon="21.35495">
        <ele>12.217358</ele>
        <time>2020-08-28T13:43:17.281Z</time>
      </trkpt>
      <trkpt lat="64.44416" lon="21.35483">
        <ele>12.359014</ele>
        <time>2020-08-28T13:43:47.498Z</time>
      </trkpt>
      <trkpt lat="64.4431" lon="21.35473">
        <ele>12.854901</ele>
        <time>2020-08-28T13:44:08.460Z</time>
      </trkpt>
      <trkpt lat="64.43682" lon="21.35406">
        <ele>18.071795</ele>
        <time>2020-08-28T13:46:18.304Z</time>
      </trkpt>
      <trkpt lat="64.42211" lon="21.35286">
        <ele>23.214714</ele>
        <time>2020-08-28T13:50:58.030Z</time>
      </trkpt>
      <trkpt lat="64.41768" lon="21.35179">
        <ele>20.124907</ele>
        <time>2020-08-28T13:52:08.216Z</time>
      </trkpt>
      <trkpt lat="64.41084" lon="21.35016">
        <ele>17.510302</ele>
        <time>2020-08-28T13:54:05.083Z</time>
      </trkpt>
      <trkpt lat="64.41002" lon="21.34965">
        <ele>16.124705</ele>
        <time>2020-08-28T13:54:17.111Z</time>
      </trkpt>
      <trkpt lat="64.40777" lon="21.34765">
        <ele>13.301707</ele>
        <time>2020-08-28T13:54:52.015Z</time>
      </trkpt>
      <trkpt lat="64.40208" lon="21.34279">
        <ele>22.023817</ele>
        <time>2020-08-28T13:57:15.846Z</time>
      </trkpt>
      <trkpt lat="64.39364" lon="21.32976">
        <ele>12.014299</ele>
        <time>2020-08-28T13:59:49.678Z</time>
      </trkpt>
      <trkpt lat="64.38879" lon="21.31791">
        <ele>20.864717</ele>
        <time>2020-08-28T14:02:30.735Z</time>
      </trkpt>
      <trkpt lat="64.38828" lon="21.31702">
        <ele>20.558965</ele>
        <time>2020-08-28T14:02:40.644Z</time>
      </trkpt>
      <trkpt lat="64.38533" lon="21.31208">
        <ele>9.766686</ele>
        <time>2020-08-28T14:03:27.719Z</time>
      </trkpt>
      <trkpt lat="64.38516" lon="21.3118">
        <ele>9.555806</ele>
        <time>2020-08-28T14:03:30.636Z</time>
      </trkpt>
      <trkpt lat="64.38321" lon="21.30831">
        <ele>8.276133</ele>
        <time>2020-08-28T14:04:12.826Z</time>
      </trkpt>
      <trkpt lat="64.38198" lon="21.30726">
        <ele>8.920967</ele>
        <time>2020-08-28T14:04:38.785Z</time>
      </trkpt>
      <trkpt lat="64.38162" lon="21.30651">
        <ele>9.371188</ele>
        <time>2020-08-28T14:04:49.373Z</time>
      </trkpt>
      <trkpt lat="64.38142" lon="21.30517">
        <ele>9.936616</ele>
        <time>2020-08-28T14:05:02.294Z</time>
      </trkpt>
      <trkpt lat="64.38135" lon="21.30426">
        <ele>10.262989</ele>
        <time>2020-08-28T14:05:10.776Z</time>
      </trkpt>
      <trkpt lat="64.38133" lon="21.30407">
        <ele>10.329537</ele>
        <time>2020-08-28T14:05:12.821Z</time>
      </trkpt>
      <trkpt lat="64.38093" lon="21.30423">
        <ele>10.656042</ele>
        <time>2020-08-28T14:05:21.401Z</time>
      </trkpt>
      <trkpt lat="64.38001" lon="21.30438">
        <ele>11.385169</ele>
        <time>2020-08-28T14:05:39.798Z</time>
      </trkpt>
      <trkpt lat="64.37911" lon="21.30434">
        <ele>11.201305</ele>
        <time>2020-08-28T14:05:56.408Z</time>
      </trkpt>
      <trkpt lat="64.37439" lon="21.30331">
        <ele>9.588407</ele>
        <time>2020-08-28T14:07:15.225Z</time>
      </trkpt>
      <trkpt lat="64.3731" lon="21.30299">
        <ele>9.097017</ele>
        <time>2020-08-28T14:07:36.329Z</time>
      </trkpt>
      <trkpt lat="64.37227" lon="21.30275">
        <ele>9.709135</ele>
        <time>2020-08-28T14:07:51.569Z</time>
      </trkpt>
      <trkpt lat="64.37232" lon="21.30253">
        <ele>9.858418</ele>
        <time>2020-08-28T14:07:53.827Z</time>
      </trkpt>
      <trkpt lat="64.3724" lon="21.30216">
        <ele>10.102522</ele>
        <time>2020-08-28T14:07:57.505Z</time>
      </trkpt>
      <trkpt lat="64.3725" lon="21.30169">
        <ele>10.420172</ele>
        <time>2020-08-28T14:08:02.615Z</time>
      </trkpt>
      <trkpt lat="64.37274" lon="21.30047">
        <ele>11.228617</ele>
        <time>2020-08-28T14:08:16.571Z</time>
      </trkpt>
      <trkpt lat="64.37333" lon="21.29779">
        <ele>15.516851</ele>
        <time>2020-08-28T14:08:53.267Z</time>
      </trkpt>
      <trkpt lat="64.37363" lon="21.29563">
        <ele>19.353721</ele>
        <time>2020-08-28T14:09:24.829Z</time>
      </trkpt>
      <trkpt lat="64.37402" lon="21.28986">
        <ele>29.481528</ele>
        <time>2020-08-28T14:10:47.118Z</time>
      </trkpt>
      <trkpt lat="64.37528" lon="21.27541">
        <ele>39.426273</ele>
        <time>2020-08-28T14:13:09.307Z</time>
      </trkpt>
      <trkpt lat="64.37556" lon="21.27139">
        <ele>40.010703</ele>
        <time>2020-08-28T14:13:41.777Z</time>
      </trkpt>
      <trkpt lat="64.37575" lon="21.26803">
        <ele>39.879945</ele>
        <time>2020-08-28T14:14:07.479Z</time>
      </trkpt>
      <trkpt lat="64.37643" lon="21.24833">
        <ele>38.565352</ele>
        <time>2020-08-28T14:16:35.533Z</time>
      </trkpt>
      <trkpt lat="64.37657" lon="21.24512">
        <ele>39.101291</ele>
        <time>2020-08-28T14:17:01.497Z</time>
      </trkpt>
      <trkpt lat="64.37681" lon="21.24131">
        <ele>41.296594</ele>
        <time>2020-08-28T14:17:37.056Z</time>
      </trkpt>
      <trkpt lat="64.37778" lon="21.22957">
        <ele>53.505024</ele>
        <time>2020-08-28T14:19:51.344Z</time>
      </trkpt>
      <trkpt lat="64.37837" lon="21.22208">
        <ele>60.694816</ele>
        <time>2020-08-28T14:21:14.055Z</time>
      </trkpt>
      <trkpt lat="64.37866" lon="21.21888">
        <ele>61.965362</ele>
        <time>2020-08-28T14:21:43.016Z</time>
      </trkpt>
      <trkpt lat="64.37906" lon="21.21652">
        <ele>62.228906</ele>
        <time>2020-08-28T14:22:02.694Z</time>
      </trkpt>
      <trkpt lat="64.37934" lon="21.2154">
        <ele>62.244449</ele>
        <time>2020-08-28T14:22:12.543Z</time>
      </trkpt>
      <trkpt lat="64.38116" lon="21.20918">
        <ele>61.964602</ele>
        <time>2020-08-28T14:23:09.602Z</time>
      </trkpt>
      <trkpt lat="64.38208" lon="21.20577">
        <ele>61.683794</ele>
        <time>2020-08-28T14:23:39.921Z</time>
      </trkpt>
      <trkpt lat="64.38438" lon="21.19602">
        <ele>60.566528</ele>
        <time>2020-08-28T14:25:02.573Z</time>
      </trkpt>
      <trkpt lat="64.38494" lon="21.19327">
        <ele>59.917384</ele>
        <time>2020-08-28T14:25:24.268Z</time>
      </trkpt>
      <trkpt lat="64.38525" lon="21.19112">
        <ele>58.971749</ele>
        <time>2020-08-28T14:25:39.702Z</time>
      </trkpt>
      <trkpt lat="64.38545" lon="21.189">
        <ele>58.003731</ele>
        <time>2020-08-28T14:25:53.926Z</time>
      </trkpt>
      <trkpt lat="64.38564" lon="21.18625">
        <ele>56.081948</ele>
        <time>2020-08-28T14:26:11.639Z</time>
      </trkpt>
      <trkpt lat="64.38591" lon="21.1806">
        <ele>51.679911</ele>
        <time>2020-08-28T14:26:46.898Z</time>
      </trkpt>
      <trkpt lat="64.38592" lon="21.17933">
        <ele>50.399265</ele>
        <time>2020-08-28T14:26:54.592Z</time>
      </trkpt>
      <trkpt lat="64.38585" lon="21.178">
        <ele>49.052694</ele>
        <time>2020-08-28T14:27:02.576Z</time>
      </trkpt>
      <trkpt lat="64.38566" lon="21.17524">
        <ele>46.206056</ele>
        <time>2020-08-28T14:27:18.972Z</time>
      </trkpt>
      <trkpt lat="64.38554" lon="21.17428">
        <ele>45.176509</ele>
        <time>2020-08-28T14:27:24.831Z</time>
      </trkpt>
      <trkpt lat="64.3853" lon="21.17331">
        <ele>44.015325</ele>
        <time>2020-08-28T14:27:31.472Z</time>
      </trkpt>
      <trkpt lat="64.38428" lon="21.1699">
        <ele>40.935223</ele>
        <time>2020-08-28T14:27:57.049Z</time>
      </trkpt>
      <trkpt lat="64.38103" lon="21.1595">
        <ele>37.917898</ele>
        <time>2020-08-28T14:29:28.305Z</time>
      </trkpt>
      <trkpt lat="64.37899" lon="21.15432">
        <ele>39.44603</ele>
        <time>2020-08-28T14:30:28.735Z</time>
      </trkpt>
      <trkpt lat="64.37839" lon="21.153">
        <ele>39.818825</ele>
        <time>2020-08-28T14:30:44.457Z</time>
      </trkpt>
      <trkpt lat="64.3777" lon="21.15146">
        <ele>39.923268</ele>
        <time>2020-08-28T14:31:01.899Z</time>
      </trkpt>
      <trkpt lat="64.37745" lon="21.15085">
        <ele>39.962447</ele>
        <time>2020-08-28T14:31:08.333Z</time>
      </trkpt>
      <trkpt lat="64.37669" lon="21.14919">
        <ele>39.999281</ele>
        <time>2020-08-28T14:31:27.028Z</time>
      </trkpt>
      <trkpt lat="64.37635" lon="21.14826">
        <ele>39.999637</ele>
        <time>2020-08-28T14:31:36.452Z</time>
      </trkpt>
      <trkpt lat="64.37613" lon="21.14747">
        <ele>39.999909</ele>
        <time>2020-08-28T14:31:43.686Z</time>
      </trkpt>
      <trkpt lat="64.37602" lon="21.14659">
        <ele>39.989649</ele>
        <time>2020-08-28T14:31:50.769Z</time>
      </trkpt>
      <trkpt lat="64.37602" lon="21.145">
        <ele>39.96058</ele>
        <time>2020-08-28T14:32:02.964Z</time>
      </trkpt>
      <trkpt lat="64.37616" lon="21.14388">
        <ele>39.93897</ele>
        <time>2020-08-28T14:32:11.976Z</time>
      </trkpt>
      <trkpt lat="64.37645" lon="21.14237">
        <ele>39.766591</ele>
        <time>2020-08-28T14:32:24.413Z</time>
      </trkpt>
      <trkpt lat="64.37665" lon="21.14098">
        <ele>39.487006</ele>
        <time>2020-08-28T14:32:35.121Z</time>
      </trkpt>
      <trkpt lat="64.37667" lon="21.14004">
        <ele>39.307</ele>
        <time>2020-08-28T14:32:41.842Z</time>
      </trkpt>
      <trkpt lat="64.37659" lon="21.13734">
        <ele>38.454942</ele>
        <time>2020-08-28T14:33:00.352Z</time>
      </trkpt>
      <trkpt lat="64.37665" lon="21.13552">
        <ele>37.758286</ele>
        <time>2020-08-28T14:33:12.663Z</time>
      </trkpt>
      <trkpt lat="64.37672" lon="21.13431">
        <ele>37.510277</ele>
        <time>2020-08-28T14:33:20.922Z</time>
      </trkpt>
      <trkpt lat="64.37696" lon="21.13214">
        <ele>37.396996</ele>
        <time>2020-08-28T14:33:37.316Z</time>
      </trkpt>
      <trkpt lat="64.37716" lon="21.13106">
        <ele>37.337138</ele>
        <time>2020-08-28T14:33:47.087Z</time>
      </trkpt>
      <trkpt lat="64.37738" lon="21.13006">
        <ele>38.018709</ele>
        <time>2020-08-28T14:33:57.070Z</time>
      </trkpt>
      <trkpt lat="64.38019" lon="21.1203">
        <ele>45.957471</ele>
        <time>2020-08-28T14:35:54.920Z</time>
      </trkpt>
      <trkpt lat="64.38083" lon="21.11783">
        <ele>47.254262</ele>
        <time>2020-08-28T14:36:22.354Z</time>
      </trkpt>
      <trkpt lat="64.38158" lon="21.11411">
        <ele>47.65222</ele>
        <time>2020-08-28T14:36:54.831Z</time>
      </trkpt>
      <trkpt lat="64.38177" lon="21.1126">
        <ele>47.631508</ele>
        <time>2020-08-28T14:37:05.600Z</time>
      </trkpt>
      <trkpt lat="64.38203" lon="21.10937">
        <ele>47.614932</ele>
        <time>2020-08-28T14:37:30.361Z</time>
      </trkpt>
      <trkpt lat="64.38209" lon="21.10816">
        <ele>48.28522</ele>
        <time>2020-08-28T14:37:41.223Z</time>
      </trkpt>
      <trkpt lat="64.38223" lon="21.10358">
        <ele>52.12046</ele>
        <time>2020-08-28T14:38:30.704Z</time>
      </trkpt>
      <trkpt lat="64.38232" lon="21.09706">
        <ele>57.55106</ele>
        <time>2020-08-28T14:39:41.783Z</time>
      </trkpt>
      <trkpt lat="64.38188" lon="21.09693">
        <ele>57.433399</ele>
        <time>2020-08-28T14:39:49.577Z</time>
      </trkpt>
      <trkpt lat="64.37449" lon="21.08874">
        <ele>40.586628</ele>
        <time>2020-08-28T14:41:42.782Z</time>
      </trkpt>
      <trkpt lat="64.37065" lon="21.08574">
        <ele>40.305386</ele>
        <time>2020-08-28T14:42:56.330Z</time>
      </trkpt>
      <trkpt lat="64.37011" lon="21.08543">
        <ele>41.141768</ele>
        <time>2020-08-28T14:43:08.271Z</time>
      </trkpt>
      <trkpt lat="64.37401" lon="21.06619">
        <ele>56.861822</ele>
        <time>2020-08-28T14:46:48.223Z</time>
      </trkpt>
      <trkpt lat="64.37306" lon="21.05382">
        <ele>55.860426</ele>
        <time>2020-08-28T14:48:21.890Z</time>
      </trkpt>
      <trkpt lat="64.37306" lon="21.05126">
        <ele>53.996297</ele>
        <time>2020-08-28T14:48:37.035Z</time>
      </trkpt>
      <trkpt lat="64.37319" lon="21.04441">
        <ele>44.770399</ele>
        <time>2020-08-28T14:49:15.701Z</time>
      </trkpt>
      <trkpt lat="64.3733" lon="21.04361">
        <ele>43.688896</ele>
        <time>2020-08-28T14:49:20.569Z</time>
      </trkpt>
      <trkpt lat="64.37382" lon="21.04251">
        <ele>42.137666</ele>
        <time>2020-08-28T14:49:30.235Z</time>
      </trkpt>
      <trkpt lat="64.37422" lon="21.04083">
        <ele>40.730168</ele>
        <time>2020-08-28T14:49:42.141Z</time>
      </trkpt>
      <trkpt lat="64.37634" lon="21.03654">
        <ele>38.086826</ele>
        <time>2020-08-28T14:50:26.037Z</time>
      </trkpt>
      <trkpt lat="64.37734" lon="21.03393">
        <ele>38.063845</ele>
        <time>2020-08-28T14:50:54.088Z</time>
      </trkpt>
      <trkpt lat="64.37734" lon="21.03393">
        <ele>38.063845</ele>
        <time>2020-08-28T14:50:54.201Z</time>
      </trkpt>
      <trkpt lat="64.38236" lon="21.03583">
        <ele>39.718181</ele>
        <time>2020-08-28T14:52:30.318Z</time>
      </trkpt>
      <trkpt lat="64.38284" lon="21.03614">
        <ele>39.795317</ele>
        <time>2020-08-28T14:52:39.418Z</time>
      </trkpt>
      <trkpt lat="64.38353" lon="21.03968">
        <ele>39.962313</ele>
        <time>2020-08-28T14:53:09.803Z</time>
      </trkpt>
      <trkpt lat="64.384" lon="21.04034">
        <ele>39.975854</ele>
        <time>2020-08-28T14:53:19.785Z</time>
      </trkpt>
      <trkpt lat="64.38452" lon="21.04047">
        <ele>39.988488</ele>
        <time>2020-08-28T14:53:29.068Z</time>
      </trkpt>
      <trkpt lat="64.38502" lon="21.04025">
        <ele>40.000012</ele>
        <time>2020-08-28T14:53:38.100Z</time>
      </trkpt>
      <trkpt lat="64.38664" lon="21.03804">
        <ele>40.000012</ele>
        <time>2020-08-28T14:54:11.712Z</time>
      </trkpt>
      <trkpt lat="64.39031" lon="21.03053">
        <ele>39.956507</ele>
        <time>2020-08-28T14:55:39.065Z</time>
      </trkpt>
      <trkpt lat="64.39069" lon="21.02899">
        <ele>39.911046</ele>
        <time>2020-08-28T14:55:52.658Z</time>
      </trkpt>
      <trkpt lat="64.39121" lon="21.02616">
        <ele>39.796072</ele>
        <time>2020-08-28T14:56:15.868Z</time>
      </trkpt>
      <trkpt lat="64.39155" lon="21.02382">
        <ele>39.754185</ele>
        <time>2020-08-28T14:56:34.633Z</time>
      </trkpt>
      <trkpt lat="64.39174" lon="21.0232">
        <ele>39.742603</ele>
        <time>2020-08-28T14:56:40.454Z</time>
      </trkpt>
      <trkpt lat="64.39355" lon="21.02077">
        <ele>39.803705</ele>
        <time>2020-08-28T14:57:18.235Z</time>
      </trkpt>
      <trkpt lat="64.39504" lon="21.01896">
        <ele>39.914191</ele>
        <time>2020-08-28T14:57:48.753Z</time>
      </trkpt>
      <trkpt lat="64.39596" lon="21.01843">
        <ele>39.957988</ele>
        <time>2020-08-28T14:58:05.764Z</time>
      </trkpt>
      <trkpt lat="64.39713" lon="21.01886">
        <ele>40.000012</ele>
        <time>2020-08-28T14:58:26.933Z</time>
      </trkpt>
      <trkpt lat="64.3979" lon="21.01964">
        <ele>40.000012</ele>
        <time>2020-08-28T14:58:41.909Z</time>
      </trkpt>
      <trkpt lat="64.39829" lon="21.02037">
        <ele>40.000012</ele>
        <time>2020-08-28T14:58:50.925Z</time>
      </trkpt>
      <trkpt lat="64.39853" lon="21.02128">
        <ele>40.000012</ele>
        <time>2020-08-28T14:58:59.138Z</time>
      </trkpt>
      <trkpt lat="64.39878" lon="21.0216">
        <ele>40.000012</ele>
        <time>2020-08-28T14:59:04.178Z</time>
      </trkpt>
      <trkpt lat="64.39908" lon="21.02176">
        <ele>40.000012</ele>
        <time>2020-08-28T14:59:09.768Z</time>
      </trkpt>
      <trkpt lat="64.39938" lon="21.02156">
        <ele>40.000012</ele>
        <time>2020-08-28T14:59:15.277Z</time>
      </trkpt>
      <trkpt lat="64.40064" lon="21.01968">
        <ele>40.000012</ele>
        <time>2020-08-28T14:59:42.023Z</time>
      </trkpt>
      <trkpt lat="64.40079" lon="21.01966">
        <ele>40.000012</ele>
        <time>2020-08-28T14:59:44.777Z</time>
      </trkpt>
      <trkpt lat="64.40085" lon="21.01879">
        <ele>40.000012</ele>
        <time>2020-08-28T14:59:51.538Z</time>
      </trkpt>
      <trkpt lat="64.40107" lon="21.0177">
        <ele>40.000012</ele>
        <time>2020-08-28T15:00:00.824Z</time>
      </trkpt>
      <trkpt lat="64.40132" lon="21.017">
        <ele>40.000012</ele>
        <time>2020-08-28T15:00:07.791Z</time>
      </trkpt>
      <trkpt lat="64.40221" lon="21.01499">
        <ele>40.000012</ele>
        <time>2020-08-28T15:00:30.099Z</time>
      </trkpt>
      <trkpt lat="64.40252" lon="21.01387">
        <ele>40.000012</ele>
        <time>2020-08-28T15:00:40.287Z</time>
      </trkpt>
      <trkpt lat="64.4027" lon="21.01281">
        <ele>40.000012</ele>
        <time>2020-08-28T15:00:49.065Z</time>
      </trkpt>
      <trkpt lat="64.40287" lon="21.01084">
        <ele>40.000012</ele>
        <time>2020-08-28T15:01:04.572Z</time>
      </trkpt>
      <trkpt lat="64.40303" lon="21.00851">
        <ele>40.003427</ele>
        <time>2020-08-28T15:01:22.757Z</time>
      </trkpt>
      <trkpt lat="64.40234" lon="21.00798">
        <ele>40.006248</ele>
        <time>2020-08-28T15:01:35.792Z</time>
      </trkpt>
      <trkpt lat="64.40177" lon="21.0072">
        <ele>40.083565</ele>
        <time>2020-08-28T15:01:47.571Z</time>
      </trkpt>
      <trkpt lat="64.40111" lon="21.00645">
        <ele>40.203927</ele>
        <time>2020-08-28T15:02:01.011Z</time>
      </trkpt>
      <trkpt lat="64.40006" lon="21.00393">
        <ele>40.708899</ele>
        <time>2020-08-28T15:02:29.561Z</time>
      </trkpt>
      <trkpt lat="64.39971" lon="21.00347">
        <ele>40.886957</ele>
        <time>2020-08-28T15:02:37.415Z</time>
      </trkpt>
      <trkpt lat="64.39908" lon="21.00317">
        <ele>41.205189</ele>
        <time>2020-08-28T15:02:50.138Z</time>
      </trkpt>
      <trkpt lat="64.39874" lon="21.00314">
        <ele>41.415102</ele>
        <time>2020-08-28T15:02:56.761Z</time>
      </trkpt>
      <trkpt lat="64.39826" lon="21.00339">
        <ele>41.724924</ele>
        <time>2020-08-28T15:03:06.580Z</time>
      </trkpt>
      <trkpt lat="64.39766" lon="21.00329">
        <ele>42.104039</ele>
        <time>2020-08-28T15:03:18.551Z</time>
      </trkpt>
      <trkpt lat="64.39561" lon="21.00185">
        <ele>43.577949</ele>
        <time>2020-08-28T15:04:01.320Z</time>
      </trkpt>
      <trkpt lat="64.39516" lon="21.00171">
        <ele>43.993127</ele>
        <time>2020-08-28T15:04:10.776Z</time>
      </trkpt>
      <trkpt lat="64.39439" lon="21.00156">
        <ele>44.698699</ele>
        <time>2020-08-28T15:04:36.123Z</time>
      </trkpt>
      <trkpt lat="64.39387" lon="21.00149">
        <ele>45.172655</ele>
        <time>2020-08-28T15:04:53.286Z</time>
      </trkpt>
      <trkpt lat="64.39371" lon="21.0015">
        <ele>45.306136</ele>
        <time>2020-08-28T15:04:58.507Z</time>
      </trkpt>
      <trkpt lat="64.39355" lon="21.00159">
        <ele>45.449999</ele>
        <time>2020-08-28T15:05:03.892Z</time>
      </trkpt>
      <trkpt lat="64.39322" lon="21.00186">
        <ele>45.744979</ele>
        <time>2020-08-28T15:05:15.149Z</time>
      </trkpt>
      <trkpt lat="64.39288" lon="21.00197">
        <ele>46.04091</ele>
        <time>2020-08-28T15:05:26.372Z</time>
      </trkpt>
      <trkpt lat="64.39214" lon="21.00177">
        <ele>46.666896</ele>
        <time>2020-08-28T15:05:50.453Z</time>
      </trkpt>
      <trkpt lat="64.39141" lon="21.00191">
        <ele>47.162643</ele>
        <time>2020-08-28T15:06:13.877Z</time>
      </trkpt>
      <trkpt lat="64.39123" lon="21.00184">
        <ele>47.284545</ele>
        <time>2020-08-28T15:06:19.641Z</time>
      </trkpt>
      <trkpt lat="64.39071" lon="21.00115">
        <ele>47.691615</ele>
        <time>2020-08-28T15:06:38.902Z</time>
      </trkpt>
      <trkpt lat="64.39056" lon="21.00106">
        <ele>47.79592</ele>
        <time>2020-08-28T15:06:43.813Z</time>
      </trkpt>
      <trkpt lat="64.3894" lon="21.00117">
        <ele>48.046345</ele>
        <time>2020-08-28T15:07:19.796Z</time>
      </trkpt>
      <trkpt lat="64.38911" lon="21.00129">
        <ele>48.100953</ele>
        <time>2020-08-28T15:07:28.556Z</time>
      </trkpt>
      <trkpt lat="64.38835" lon="21.00225">
        <ele>47.972208</ele>
        <time>2020-08-28T15:07:53.732Z</time>
      </trkpt>
      <trkpt lat="64.38792" lon="21.003">
        <ele>47.727207</ele>
        <time>2020-08-28T15:08:08.964Z</time>
      </trkpt>
      <trkpt lat="64.3875" lon="21.00477">
        <ele>47.335333</ele>
        <time>2020-08-28T15:08:33.452Z</time>
      </trkpt>
      <trkpt lat="64.38706" lon="21.00584">
        <ele>47.105017</ele>
        <time>2020-08-28T15:08:51.334Z</time>
      </trkpt>
      <trkpt lat="64.38657" lon="21.00641">
        <ele>46.906016</ele>
        <time>2020-08-28T15:09:07.065Z</time>
      </trkpt>
      <trkpt lat="64.38621" lon="21.00664">
        <ele>46.773915</ele>
        <time>2020-08-28T15:09:17.704Z</time>
      </trkpt>
      <trkpt lat="64.38538" lon="21.00778">
        <ele>47.046537</ele>
        <time>2020-08-28T15:09:47.095Z</time>
      </trkpt>
      <trkpt lat="64.38465" lon="21.0082">
        <ele>47.362365</ele>
        <time>2020-08-28T15:10:10.723Z</time>
      </trkpt>
      <trkpt lat="64.38447" lon="21.00791">
        <ele>47.456181</ele>
        <time>2020-08-28T15:10:17.881Z</time>
      </trkpt>
      <trkpt lat="64.38426" lon="21.007">
        <ele>47.821152</ele>
        <time>2020-08-28T15:10:32.409Z</time>
      </trkpt>
      <trkpt lat="64.38332" lon="21.00518">
        <ele>48.858596</ele>
        <time>2020-08-28T15:11:12.656Z</time>
      </trkpt>
      <trkpt lat="64.38289" lon="21.00367">
        <ele>49.252184</ele>
        <time>2020-08-28T15:11:37.624Z</time>
      </trkpt>
      <trkpt lat="64.38148" lon="21.00197">
        <ele>49.630213</ele>
        <time>2020-08-28T15:12:26.140Z</time>
      </trkpt>
      <trkpt lat="64.38022" lon="21.0006">
        <ele>49.217835</ele>
        <time>2020-08-28T15:13:05.833Z</time>
      </trkpt>
      <trkpt lat="64.3799" lon="21.00013">
        <ele>48.885942</ele>
        <time>2020-08-28T15:13:16.350Z</time>
      </trkpt>
      <trkpt lat="64.37952" lon="20.99931">
        <ele>48.434859</ele>
        <time>2020-08-28T15:13:30.541Z</time>
      </trkpt>
      <trkpt lat="64.37915" lon="20.99814">
        <ele>47.886096</ele>
        <time>2020-08-28T15:13:47.601Z</time>
      </trkpt>
      <trkpt lat="64.37893" lon="20.99777">
        <ele>47.643399</ele>
        <time>2020-08-28T15:13:54.975Z</time>
      </trkpt>
      <trkpt lat="64.3784" lon="20.99735">
        <ele>46.932055</ele>
        <time>2020-08-28T15:14:09.866Z</time>
      </trkpt>
      <trkpt lat="64.37805" lon="20.99724">
        <ele>46.485128</ele>
        <time>2020-08-28T15:14:19.142Z</time>
      </trkpt>
      <trkpt lat="64.37703" lon="20.99745">
        <ele>45.256</ele>
        <time>2020-08-28T15:14:46.109Z</time>
      </trkpt>
      <trkpt lat="64.37566" lon="20.99795">
        <ele>44.218285</ele>
        <time>2020-08-28T15:15:23.764Z</time>
      </trkpt>
      <trkpt lat="64.37518" lon="20.99792">
        <ele>44.286548</ele>
        <time>2020-08-28T15:15:38.329Z</time>
      </trkpt>
      <trkpt lat="64.37449" lon="20.99762">
        <ele>45.171885</ele>
        <time>2020-08-28T15:16:01.030Z</time>
      </trkpt>
      <trkpt lat="64.37431" lon="20.99747">
        <ele>45.411532</ele>
        <time>2020-08-28T15:16:07.552Z</time>
      </trkpt>
      <trkpt lat="64.37413" lon="20.99708">
        <ele>45.72859</ele>
        <time>2020-08-28T15:16:16.425Z</time>
      </trkpt>
      <trkpt lat="64.37378" lon="20.99565">
        <ele>47.147274</ele>
        <time>2020-08-28T15:16:43.048Z</time>
      </trkpt>
      <trkpt lat="64.37312" lon="20.9949">
        <ele>49.481542</ele>
        <time>2020-08-28T15:17:12.196Z</time>
      </trkpt>
      <trkpt lat="64.37267" lon="20.99394">
        <ele>51.44892</ele>
        <time>2020-08-28T15:17:37.678Z</time>
      </trkpt>
      <trkpt lat="64.37243" lon="20.99384">
        <ele>52.233525</ele>
        <time>2020-08-28T15:17:47.664Z</time>
      </trkpt>
      <trkpt lat="64.37174" lon="20.99392">
        <ele>54.59721</ele>
        <time>2020-08-28T15:18:16.191Z</time>
      </trkpt>
      <trkpt lat="64.37141" lon="20.99358">
        <ele>55.825135</ele>
        <time>2020-08-28T15:18:30.925Z</time>
      </trkpt>
      <trkpt lat="64.37007" lon="20.9906">
        <ele>61.560897</ele>
        <time>2020-08-28T15:19:44.946Z</time>
      </trkpt>
      <trkpt lat="64.36996" lon="20.99023">
        <ele>62.1207</ele>
        <time>2020-08-28T15:19:52.420Z</time>
      </trkpt>
      <trkpt lat="64.3698" lon="20.98957">
        <ele>63.075464</ele>
        <time>2020-08-28T15:20:04.821Z</time>
      </trkpt>
      <trkpt lat="64.36949" lon="20.98842">
        <ele>64.556293</ele>
        <time>2020-08-28T15:20:26.536Z</time>
      </trkpt>
      <trkpt lat="64.3689" lon="20.98726">
        <ele>66.429852</ele>
        <time>2020-08-28T15:20:55.229Z</time>
      </trkpt>
      <trkpt lat="64.36864" lon="20.98656">
        <ele>67.405806</ele>
        <time>2020-08-28T15:21:10.037Z</time>
      </trkpt>
      <trkpt lat="64.36844" lon="20.98584">
        <ele>68.456998</ele>
        <time>2020-08-28T15:21:23.988Z</time>
      </trkpt>
      <trkpt lat="64.36784" lon="20.98306">
        <ele>72.69563</ele>
        <time>2020-08-28T15:22:18.048Z</time>
      </trkpt>
      <trkpt lat="64.36765" lon="20.9828">
        <ele>73.411302</ele>
        <time>2020-08-28T15:22:27.439Z</time>
      </trkpt>
      <trkpt lat="64.36742" lon="20.98264">
        <ele>74.091982</ele>
        <time>2020-08-28T15:22:37.203Z</time>
      </trkpt>
      <trkpt lat="64.36626" lon="20.98249">
        <ele>77.420299</ele>
        <time>2020-08-28T15:23:23.223Z</time>
      </trkpt>
      <trkpt lat="64.36604" lon="20.98232">
        <ele>78.087607</ele>
        <time>2020-08-28T15:23:31.919Z</time>
      </trkpt>
      <trkpt lat="64.36586" lon="20.98214">
        <ele>78.616502</ele>
        <time>2020-08-28T15:23:38.999Z</time>
      </trkpt>
      <trkpt lat="64.36551" lon="20.98146">
        <ele>79.054038</ele>
        <time>2020-08-28T15:23:55.129Z</time>
      </trkpt>
      <trkpt lat="64.36523" lon="20.98129">
        <ele>79.336104</ele>
        <time>2020-08-28T15:24:05.080Z</time>
      </trkpt>
      <trkpt lat="64.36495" lon="20.98125">
        <ele>79.60269</ele>
        <time>2020-08-28T15:24:14.160Z</time>
      </trkpt>
      <trkpt lat="64.36448" lon="20.98094">
        <ele>80.069769</ele>
        <time>2020-08-28T15:24:29.373Z</time>
      </trkpt>
      <trkpt lat="64.36421" lon="20.98054">
        <ele>80.299734</ele>
        <time>2020-08-28T15:24:38.894Z</time>
      </trkpt>
      <trkpt lat="64.36369" lon="20.9795">
        <ele>80.066383</ele>
        <time>2020-08-28T15:24:58.731Z</time>
      </trkpt>
      <trkpt lat="64.36343" lon="20.97928">
        <ele>79.971972</ele>
        <time>2020-08-28T15:25:06.590Z</time>
      </trkpt>
      <trkpt lat="64.36308" lon="20.97923">
        <ele>79.850914</ele>
        <time>2020-08-28T15:25:16.641Z</time>
      </trkpt>
      <trkpt lat="64.36232" lon="20.97931">
        <ele>79.517964</ele>
        <time>2020-08-28T15:25:37.994Z</time>
      </trkpt>
      <trkpt lat="64.36198" lon="20.97922">
        <ele>79.32373</ele>
        <time>2020-08-28T15:25:47.628Z</time>
      </trkpt>
      <trkpt lat="64.36159" lon="20.97896">
        <ele>79.096646</ele>
        <time>2020-08-28T15:25:58.844Z</time>
      </trkpt>
      <trkpt lat="64.36041" lon="20.97725">
        <ele>78.477549</ele>
        <time>2020-08-28T15:26:38.335Z</time>
      </trkpt>
      <trkpt lat="64.36016" lon="20.97678">
        <ele>78.376952</ele>
        <time>2020-08-28T15:26:47.520Z</time>
      </trkpt>
      <trkpt lat="64.35989" lon="20.97649">
        <ele>78.282842</ele>
        <time>2020-08-28T15:26:56.193Z</time>
      </trkpt>
      <trkpt lat="64.35848" lon="20.97594">
        <ele>77.780666</ele>
        <time>2020-08-28T15:27:38.260Z</time>
      </trkpt>
      <trkpt lat="64.35818" lon="20.97591">
        <ele>77.669271</ele>
        <time>2020-08-28T15:27:47.011Z</time>
      </trkpt>
      <trkpt lat="64.35783" lon="20.97609">
        <ele>77.538956</ele>
        <time>2020-08-28T15:27:56.977Z</time>
      </trkpt>
      <trkpt lat="64.35765" lon="20.97631">
        <ele>77.464084</ele>
        <time>2020-08-28T15:28:02.584Z</time>
      </trkpt>
      <trkpt lat="64.35728" lon="20.97728">
        <ele>76.358395</ele>
        <time>2020-08-28T15:28:17.762Z</time>
      </trkpt>
      <trkpt lat="64.35694" lon="20.97759">
        <ele>75.634552</ele>
        <time>2020-08-28T15:28:27.123Z</time>
      </trkpt>
      <trkpt lat="64.35678" lon="20.97762">
        <ele>75.311293</ele>
        <time>2020-08-28T15:28:31.225Z</time>
      </trkpt>
      <trkpt lat="64.35592" lon="20.97726">
        <ele>73.135852</ele>
        <time>2020-08-28T15:28:52.456Z</time>
      </trkpt>
      <trkpt lat="64.3553" lon="20.97721">
        <ele>70.237056</ele>
        <time>2020-08-28T15:29:06.553Z</time>
      </trkpt>
      <trkpt lat="64.35433" lon="20.97732">
        <ele>65.674391</ele>
        <time>2020-08-28T15:29:27.702Z</time>
      </trkpt>
      <trkpt lat="64.35387" lon="20.97724">
        <ele>62.60535</ele>
        <time>2020-08-28T15:29:37.442Z</time>
      </trkpt>
      <trkpt lat="64.353" lon="20.97696">
        <ele>56.462699</ele>
        <time>2020-08-28T15:29:55.883Z</time>
      </trkpt>
      <trkpt lat="64.35208" lon="20.97648">
        <ele>50.222003</ele>
        <time>2020-08-28T15:30:15.132Z</time>
      </trkpt>
      <trkpt lat="64.35162" lon="20.97644">
        <ele>47.386125</ele>
        <time>2020-08-28T15:30:24.650Z</time>
      </trkpt>
      <trkpt lat="64.35122" lon="20.97653">
        <ele>44.859586</ele>
        <time>2020-08-28T15:30:33.284Z</time>
      </trkpt>
      <trkpt lat="64.35078" lon="20.97731">
        <ele>41.572084</ele>
        <time>2020-08-28T15:30:45.463Z</time>
      </trkpt>
      <trkpt lat="64.35023" lon="20.97802">
        <ele>39.960617</ele>
        <time>2020-08-28T15:30:59.997Z</time>
      </trkpt>
      <trkpt lat="64.34967" lon="20.97852">
        <ele>38.427398</ele>
        <time>2020-08-28T15:31:15.129Z</time>
      </trkpt>
      <trkpt lat="64.34924" lon="20.97906">
        <ele>37.180504</ele>
        <time>2020-08-28T15:31:28.384Z</time>
      </trkpt>
      <trkpt lat="64.34885" lon="20.97992">
        <ele>36.881808</ele>
        <time>2020-08-28T15:31:37.004Z</time>
      </trkpt>
      <trkpt lat="64.3486" lon="20.98048">
        <ele>36.736742</ele>
        <time>2020-08-28T15:31:42.788Z</time>
      </trkpt>
      <trkpt lat="64.34827" lon="20.98082">
        <ele>36.584809</ele>
        <time>2020-08-28T15:31:48.995Z</time>
      </trkpt>
      <trkpt lat="64.34789" lon="20.98091">
        <ele>36.426167</ele>
        <time>2020-08-28T15:31:55.673Z</time>
      </trkpt>
      <trkpt lat="64.34748" lon="20.98128">
        <ele>36.393606</ele>
        <time>2020-08-28T15:32:03.558Z</time>
      </trkpt>
      <trkpt lat="64.34636" lon="20.98246">
        <ele>36.640277</ele>
        <time>2020-08-28T15:32:26.247Z</time>
      </trkpt>
      <trkpt lat="64.34601" lon="20.98312">
        <ele>36.749207</ele>
        <time>2020-08-28T15:32:34.867Z</time>
      </trkpt>
      <trkpt lat="64.34552" lon="20.98423">
        <ele>36.983705</ele>
        <time>2020-08-28T15:32:47.876Z</time>
      </trkpt>
      <trkpt lat="64.34522" lon="20.98507">
        <ele>37.144563</ele>
        <time>2020-08-28T15:32:56.838Z</time>
      </trkpt>
      <trkpt lat="64.34455" lon="20.98845">
        <ele>37.541345</ele>
        <time>2020-08-28T15:33:27.034Z</time>
      </trkpt>
      <trkpt lat="64.34288" lon="20.99723">
        <ele>37.993752</ele>
        <time>2020-08-28T15:34:42.806Z</time>
      </trkpt>
      <trkpt lat="64.34239" lon="20.9989">
        <ele>37.255734</ele>
        <time>2020-08-28T15:34:57.706Z</time>
      </trkpt>
      <trkpt lat="64.33911" lon="21.00692">
        <ele>31.238292</ele>
        <time>2020-08-28T15:36:09.870Z</time>
      </trkpt>
      <trkpt lat="64.33869" lon="21.00763">
        <ele>29.329234</ele>
        <time>2020-08-28T15:36:16.528Z</time>
      </trkpt>
      <trkpt lat="64.33815" lon="21.00824">
        <ele>27.098825</ele>
        <time>2020-08-28T15:36:24.052Z</time>
      </trkpt>
      <trkpt lat="64.33759" lon="21.00867">
        <ele>24.919085</ele>
        <time>2020-08-28T15:36:31.247Z</time>
      </trkpt>
      <trkpt lat="64.33691" lon="21.00886">
        <ele>22.790378</ele>
        <time>2020-08-28T15:36:39.828Z</time>
      </trkpt>
      <trkpt lat="64.33653" lon="21.00884">
        <ele>21.593442</ele>
        <time>2020-08-28T15:36:44.849Z</time>
      </trkpt>
      <trkpt lat="64.33629" lon="21.00886">
        <ele>20.833955</ele>
        <time>2020-08-28T15:36:48.140Z</time>
      </trkpt>
      <trkpt lat="64.3358" lon="21.00887">
        <ele>19.331023</ele>
        <time>2020-08-28T15:36:54.971Z</time>
      </trkpt>
      <trkpt lat="64.33524" lon="21.00891">
        <ele>18.729162</ele>
        <time>2020-08-28T15:37:03.200Z</time>
      </trkpt>
      <trkpt lat="64.33167" lon="21.00902">
        <ele>15.7297</ele>
        <time>2020-08-28T15:38:00.393Z</time>
      </trkpt>
      <trkpt lat="64.33099" lon="21.00937">
        <ele>15.257204</ele>
        <time>2020-08-28T15:38:11.475Z</time>
      </trkpt>
      <trkpt lat="64.33034" lon="21.00996">
        <ele>14.889219</ele>
        <time>2020-08-28T15:38:22.747Z</time>
      </trkpt>
      <trkpt lat="64.32952" lon="21.0111">
        <ele>14.930696</ele>
        <time>2020-08-28T15:38:39.270Z</time>
      </trkpt>
      <trkpt lat="64.32705" lon="21.01478">
        <ele>16.488822</ele>
        <time>2020-08-28T15:39:37.641Z</time>
      </trkpt>
      <trkpt lat="64.32429" lon="21.01891">
        <ele>19.156725</ele>
        <time>2020-08-28T15:40:45.552Z</time>
      </trkpt>
      <trkpt lat="64.3237" lon="21.01958">
        <ele>19.379287</ele>
        <time>2020-08-28T15:40:58.462Z</time>
      </trkpt>
      <trkpt lat="64.32124" lon="21.02152">
        <ele>19.806285</ele>
        <time>2020-08-28T15:41:45.694Z</time>
      </trkpt>
      <trkpt lat="64.31978" lon="21.02267">
        <ele>19.509426</ele>
        <time>2020-08-28T15:42:12.350Z</time>
      </trkpt>
      <trkpt lat="64.31948" lon="21.02282">
        <ele>19.437965</ele>
        <time>2020-08-28T15:42:17.508Z</time>
      </trkpt>
      <trkpt lat="64.31915" lon="21.02292">
        <ele>19.287456</ele>
        <time>2020-08-28T15:42:23.134Z</time>
      </trkpt>
      <trkpt lat="64.30228" lon="21.02838">
        <ele>8.745502</ele>
        <time>2020-08-28T15:46:58.740Z</time>
      </trkpt>
      <trkpt lat="64.30155" lon="21.02868">
        <ele>8.448385</ele>
        <time>2020-08-28T15:47:11.437Z</time>
      </trkpt>
      <trkpt lat="64.30088" lon="21.02909">
        <ele>8.591839</ele>
        <time>2020-08-28T15:47:23.754Z</time>
      </trkpt>
      <trkpt lat="64.29978" lon="21.03004">
        <ele>8.886145</ele>
        <time>2020-08-28T15:47:46.246Z</time>
      </trkpt>
      <trkpt lat="64.29963" lon="21.0302">
        <ele>8.997756</ele>
        <time>2020-08-28T15:47:49.566Z</time>
      </trkpt>
      <trkpt lat="64.29814" lon="21.0315">
        <ele>10.06041</ele>
        <time>2020-08-28T15:48:21.826Z</time>
      </trkpt>
      <trkpt lat="64.29775" lon="21.03168">
        <ele>10.15349</ele>
        <time>2020-08-28T15:48:29.747Z</time>
      </trkpt>
      <trkpt lat="64.2918" lon="21.03289">
        <ele>11.735033</ele>
        <time>2020-08-28T15:50:19.663Z</time>
      </trkpt>
      <trkpt lat="64.28885" lon="21.03337">
        <ele>13.868056</ele>
        <time>2020-08-28T15:51:19.472Z</time>
      </trkpt>
      <trkpt lat="64.28824" lon="21.0336">
        <ele>14.645188</ele>
        <time>2020-08-28T15:51:33.391Z</time>
      </trkpt>
      <trkpt lat="64.28713" lon="21.03422">
        <ele>15.974064</ele>
        <time>2020-08-28T15:51:58.943Z</time>
      </trkpt>
      <trkpt lat="64.28545" lon="21.03521">
        <ele>17.317369</ele>
        <time>2020-08-28T15:52:34.253Z</time>
      </trkpt>
      <trkpt lat="64.28405" lon="21.03607">
        <ele>17.676035</ele>
        <time>2020-08-28T15:53:00.850Z</time>
      </trkpt>
      <trkpt lat="64.28346" lon="21.03655">
        <ele>17.388461</ele>
        <time>2020-08-28T15:53:11.581Z</time>
      </trkpt>
      <trkpt lat="64.28307" lon="21.03704">
        <ele>17.104686</ele>
        <time>2020-08-28T15:53:19.002Z</time>
      </trkpt>
      <trkpt lat="64.28285" lon="21.03748">
        <ele>16.920771</ele>
        <time>2020-08-28T15:53:23.668Z</time>
      </trkpt>
      <trkpt lat="64.28221" lon="21.03914">
        <ele>15.958776</ele>
        <time>2020-08-28T15:53:38.329Z</time>
      </trkpt>
      <trkpt lat="64.28141" lon="21.0401">
        <ele>14.618854</ele>
        <time>2020-08-28T15:53:51.537Z</time>
      </trkpt>
      <trkpt lat="64.28122" lon="21.04025">
        <ele>14.32207</ele>
        <time>2020-08-28T15:53:54.388Z</time>
      </trkpt>
      <trkpt lat="64.28079" lon="21.0407">
        <ele>13.626873</ele>
        <time>2020-08-28T15:54:01.237Z</time>
      </trkpt>
      <trkpt lat="64.28043" lon="21.04108">
        <ele>13.054148</ele>
        <time>2020-08-28T15:54:06.979Z</time>
      </trkpt>
      <trkpt lat="64.27965" lon="21.04201">
        <ele>11.780401</ele>
        <time>2020-08-28T15:54:19.994Z</time>
      </trkpt>
      <trkpt lat="64.2795" lon="21.04222">
        <ele>11.530328</ele>
        <time>2020-08-28T15:54:22.603Z</time>
      </trkpt>
      <trkpt lat="64.27902" lon="21.04112">
        <ele>10.964</ele>
        <time>2020-08-28T15:54:33.176Z</time>
      </trkpt>
      <trkpt lat="64.27869" lon="21.04039">
        <ele>10.673945</ele>
        <time>2020-08-28T15:54:40.484Z</time>
      </trkpt>
      <trkpt lat="64.27855" lon="21.0401">
        <ele>10.554255</ele>
        <time>2020-08-28T15:54:43.584Z</time>
      </trkpt>
      <trkpt lat="64.27839" lon="21.03973">
        <ele>10.41104</ele>
        <time>2020-08-28T15:54:47.293Z</time>
      </trkpt>
      <trkpt lat="64.27774" lon="21.04115">
        <ele>10.517729</ele>
        <time>2020-08-28T15:55:02.761Z</time>
      </trkpt>
      <trkpt lat="64.2774" lon="21.04168">
        <ele>10.837141</ele>
        <time>2020-08-28T15:55:10.160Z</time>
      </trkpt>
      <trkpt lat="64.27624" lon="21.04337">
        <ele>12.573176</ele>
        <time>2020-08-28T15:55:41.460Z</time>
      </trkpt>
      <trkpt lat="64.27486" lon="21.04534">
        <ele>15.760201</ele>
        <time>2020-08-28T15:56:24.052Z</time>
      </trkpt>
      <trkpt lat="64.27404" lon="21.04642">
        <ele>16.548732</ele>
        <time>2020-08-28T15:56:44.771Z</time>
      </trkpt>
      <trkpt lat="64.27328" lon="21.04703">
        <ele>16.740981</ele>
        <time>2020-08-28T15:56:57.539Z</time>
      </trkpt>
      <trkpt lat="64.27297" lon="21.04728">
        <ele>16.345187</ele>
        <time>2020-08-28T15:57:02.393Z</time>
      </trkpt>
      <trkpt lat="64.27275" lon="21.04765">
        <ele>16.015334</ele>
        <time>2020-08-28T15:57:06.520Z</time>
      </trkpt>
      <trkpt lat="64.2727" lon="21.04773">
        <ele>15.950936</ele>
        <time>2020-08-28T15:57:07.262Z</time>
      </trkpt>
      <trkpt lat="64.2724" lon="21.04854">
        <ele>15.393584</ele>
        <time>2020-08-28T15:57:14.284Z</time>
      </trkpt>
      <trkpt lat="64.27234" lon="21.0487">
        <ele>15.28665</ele>
        <time>2020-08-28T15:57:15.576Z</time>
      </trkpt>
      <trkpt lat="64.27232" lon="21.04877">
        <ele>15.247787</ele>
        <time>2020-08-28T15:57:16.067Z</time>
      </trkpt>
      <trkpt lat="64.27203" lon="21.04982">
        <ele>14.815359</ele>
        <time>2020-08-28T15:57:24.658Z</time>
      </trkpt>
      <trkpt lat="64.2717" lon="21.04945">
        <ele>14.716969</ele>
        <time>2020-08-28T15:57:30.662Z</time>
      </trkpt>
      <trkpt lat="64.27149" lon="21.0493">
        <ele>14.655786</ele>
        <time>2020-08-28T15:57:34.621Z</time>
      </trkpt>
      <trkpt lat="64.27106" lon="21.04941">
        <ele>14.539822</ele>
        <time>2020-08-28T15:57:42.458Z</time>
      </trkpt>
      <trkpt lat="64.27067" lon="21.04983">
        <ele>14.423078</ele>
        <time>2020-08-28T15:57:51.070Z</time>
      </trkpt>
      <trkpt lat="64.27055" lon="21.04997">
        <ele>14.411563</ele>
        <time>2020-08-28T15:57:53.788Z</time>
      </trkpt>
      <trkpt lat="64.27038" lon="21.05019">
        <ele>14.62934</ele>
        <time>2020-08-28T15:57:57.748Z</time>
      </trkpt>
      <trkpt lat="64.27022" lon="21.0503">
        <ele>14.815873</ele>
        <time>2020-08-28T15:58:01.241Z</time>
      </trkpt>
      <trkpt lat="64.26994" lon="21.0505">
        <ele>15.15234</ele>
        <time>2020-08-28T15:58:07.498Z</time>
      </trkpt>
      <trkpt lat="64.26948" lon="21.05062">
        <ele>15.667488</ele>
        <time>2020-08-28T15:58:17.838Z</time>
      </trkpt>
      <trkpt lat="64.26921" lon="21.05042">
        <ele>15.989398</ele>
        <time>2020-08-28T15:58:24.607Z</time>
      </trkpt>
      <trkpt lat="64.2689" lon="21.04999">
        <ele>16.400645</ele>
        <time>2020-08-28T15:58:33.284Z</time>
      </trkpt>
      <trkpt lat="64.26851" lon="21.04971">
        <ele>16.961808</ele>
        <time>2020-08-28T15:58:42.929Z</time>
      </trkpt>
      <trkpt lat="64.2682" lon="21.04956">
        <ele>17.393786</ele>
        <time>2020-08-28T15:58:50.309Z</time>
      </trkpt>
      <trkpt lat="64.26801" lon="21.0495">
        <ele>17.664294</ele>
        <time>2020-08-28T15:58:54.955Z</time>
      </trkpt>
      <trkpt lat="64.26767" lon="21.04957">
        <ele>18.140188</ele>
        <time>2020-08-28T15:59:02.865Z</time>
      </trkpt>
      <trkpt lat="64.26722" lon="21.04991">
        <ele>18.786805</ele>
        <time>2020-08-28T15:59:13.343Z</time>
      </trkpt>
      <trkpt lat="64.26659" lon="21.04998">
        <ele>19.259849</ele>
        <time>2020-08-28T15:59:26.970Z</time>
      </trkpt>
      <trkpt lat="64.26608" lon="21.05019">
        <ele>19.600525</ele>
        <time>2020-08-28T15:59:37.247Z</time>
      </trkpt>
      <trkpt lat="64.26583" lon="21.0501">
        <ele>19.763577</ele>
        <time>2020-08-28T15:59:42.172Z</time>
      </trkpt>
      <trkpt lat="64.2657" lon="21.04998">
        <ele>19.856082</ele>
        <time>2020-08-28T15:59:44.944Z</time>
      </trkpt>
      <trkpt lat="64.26522" lon="21.04905">
        <ele>20.757658</ele>
        <time>2020-08-28T15:59:57.343Z</time>
      </trkpt>
      <trkpt lat="64.2645" lon="21.04847">
        <ele>22.535196</ele>
        <time>2020-08-28T16:00:16.061Z</time>
      </trkpt>
      <trkpt lat="64.26435" lon="21.0477">
        <ele>23.39776</ele>
        <time>2020-08-28T16:00:26.617Z</time>
      </trkpt>
      <trkpt lat="64.26424" lon="21.04677">
        <ele>24.433605</ele>
        <time>2020-08-28T16:00:39.291Z</time>
      </trkpt>
      <trkpt lat="64.26424" lon="21.04661">
        <ele>24.741572</ele>
        <time>2020-08-28T16:00:41.828Z</time>
      </trkpt>
      <trkpt lat="64.26374" lon="21.04665">
        <ele>26.853833</ele>
        <time>2020-08-28T16:00:57.913Z</time>
      </trkpt>
      <trkpt lat="64.26255" lon="21.04674">
        <ele>31.913608</ele>
        <time>2020-08-28T16:01:37.733Z</time>
      </trkpt>
      <trkpt lat="64.26086" lon="21.0465">
        <ele>34.548106</ele>
        <time>2020-08-28T16:02:17.716Z</time>
      </trkpt>
      <trkpt lat="64.25807" lon="21.04597">
        <ele>29.705663</ele>
        <time>2020-08-28T16:02:56.415Z</time>
      </trkpt>
      <trkpt lat="64.25732" lon="21.04583">
        <ele>28.384099</ele>
        <time>2020-08-28T16:03:07.253Z</time>
      </trkpt>
      <trkpt lat="64.25679" lon="21.04567">
        <ele>28.403633</ele>
        <time>2020-08-28T16:03:16.116Z</time>
      </trkpt>
      <trkpt lat="64.25636" lon="21.04551">
        <ele>28.739854</ele>
        <time>2020-08-28T16:03:24.668Z</time>
      </trkpt>
      <trkpt lat="64.2558" lon="21.04523">
        <ele>29.181732</ele>
        <time>2020-08-28T16:03:37.293Z</time>
      </trkpt>
      <trkpt lat="64.25523" lon="21.04491">
        <ele>29.848533</ele>
        <time>2020-08-28T16:03:51.297Z</time>
      </trkpt>
      <trkpt lat="64.25478" lon="21.04452">
        <ele>30.790095</ele>
        <time>2020-08-28T16:04:03.337Z</time>
      </trkpt>
      <trkpt lat="64.25333" lon="21.04311">
        <ele>33.745592</ele>
        <time>2020-08-28T16:04:41.167Z</time>
      </trkpt>
      <trkpt lat="64.25026" lon="21.03939">
        <ele>38.699524</ele>
        <time>2020-08-28T16:06:00.387Z</time>
      </trkpt>
      <trkpt lat="64.2455" lon="21.03395">
        <ele>38.910613</ele>
        <time>2020-08-28T16:07:33.865Z</time>
      </trkpt>
      <trkpt lat="64.24131" lon="21.02923">
        <ele>38.229998</ele>
        <time>2020-08-28T16:08:56.737Z</time>
      </trkpt>
      <trkpt lat="64.24096" lon="21.02883">
        <ele>38.068363</ele>
        <time>2020-08-28T16:09:02.676Z</time>
      </trkpt>
      <trkpt lat="64.23963" lon="21.02723">
        <ele>36.959379</ele>
        <time>2020-08-28T16:09:25.260Z</time>
      </trkpt>
      <trkpt lat="64.23543" lon="21.02086">
        <ele>37.903967</ele>
        <time>2020-08-28T16:11:00.489Z</time>
      </trkpt>
      <trkpt lat="64.23491" lon="21.02008">
        <ele>37.994006</ele>
        <time>2020-08-28T16:11:11.762Z</time>
      </trkpt>
      <trkpt lat="64.23444" lon="21.01941">
        <ele>37.662837</ele>
        <time>2020-08-28T16:11:21.353Z</time>
      </trkpt>
      <trkpt lat="64.23395" lon="21.01876">
        <ele>37.153148</ele>
        <time>2020-08-28T16:11:30.677Z</time>
      </trkpt>
      <trkpt lat="64.23299" lon="21.0178">
        <ele>35.877046</ele>
        <time>2020-08-28T16:11:46.078Z</time>
      </trkpt>
      <trkpt lat="64.23254" lon="21.01745">
        <ele>34.656639</ele>
        <time>2020-08-28T16:11:52.786Z</time>
      </trkpt>
      <trkpt lat="64.23263" lon="21.01668">
        <ele>33.76461</ele>
        <time>2020-08-28T16:11:57.529Z</time>
      </trkpt>
      <trkpt lat="64.23265" lon="21.01615">
        <ele>33.178278</ele>
        <time>2020-08-28T16:12:00.550Z</time>
      </trkpt>
      <trkpt lat="64.23265" lon="21.01513">
        <ele>32.041157</ele>
        <time>2020-08-28T16:12:06.415Z</time>
      </trkpt>
      <trkpt lat="64.23236" lon="21.00622">
        <ele>19.584936</ele>
        <time>2020-08-28T16:12:56.463Z</time>
      </trkpt>
      <trkpt lat="64.23235" lon="21.00576">
        <ele>19.461832</ele>
        <time>2020-08-28T16:12:59.498Z</time>
      </trkpt>
      <trkpt lat="64.23219" lon="21.00101">
        <ele>18.90579</ele>
        <time>2020-08-28T16:13:37.674Z</time>
      </trkpt>
      <trkpt lat="64.23211" lon="20.99816">
        <ele>19.437397</ele>
        <time>2020-08-28T16:14:02.454Z</time>
      </trkpt>
      <trkpt lat="64.23211" lon="20.99782">
        <ele>19.480843</ele>
        <time>2020-08-28T16:14:05.410Z</time>
      </trkpt>
      <trkpt lat="64.2321" lon="20.99752">
        <ele>19.517743</ele>
        <time>2020-08-28T16:14:07.808Z</time>
      </trkpt>
      <trkpt lat="64.2321" lon="20.9972">
        <ele>19.558419</ele>
        <time>2020-08-28T16:14:10.476Z</time>
      </trkpt>
      <trkpt lat="64.2321" lon="20.99674">
        <ele>19.616601</ele>
        <time>2020-08-28T16:14:14.276Z</time>
      </trkpt>
      <trkpt lat="64.23218" lon="20.99295">
        <ele>19.969298</ele>
        <time>2020-08-28T16:14:44.361Z</time>
      </trkpt>
      <trkpt lat="64.23218" lon="20.99273">
        <ele>19.976503</ele>
        <time>2020-08-28T16:14:46.119Z</time>
      </trkpt>
      <trkpt lat="64.23219" lon="20.99261">
        <ele>19.98011</ele>
        <time>2020-08-28T16:14:46.995Z</time>
      </trkpt>
      <trkpt lat="64.23231" lon="20.98844">
        <ele>20.214267</ele>
        <time>2020-08-28T16:15:19.858Z</time>
      </trkpt>
      <trkpt lat="64.23232" lon="20.98822">
        <ele>20.233924</ele>
        <time>2020-08-28T16:15:21.598Z</time>
      </trkpt>
      <trkpt lat="64.23279" lon="20.97125">
        <ele>22.193433</ele>
        <time>2020-08-28T16:17:39.057Z</time>
      </trkpt>
      <trkpt lat="64.23277" lon="20.96985">
        <ele>22.564998</ele>
        <time>2020-08-28T16:17:51.604Z</time>
      </trkpt>
      <trkpt lat="64.23267" lon="20.96836">
        <ele>23.516564</ele>
        <time>2020-08-28T16:18:06.059Z</time>
      </trkpt>
      <trkpt lat="64.23216" lon="20.96317">
        <ele>27.601013</ele>
        <time>2020-08-28T16:19:01.731Z</time>
      </trkpt>
      <trkpt lat="64.23099" lon="20.9512">
        <ele>36.5022</ele>
        <time>2020-08-28T16:21:06.435Z</time>
      </trkpt>
      <trkpt lat="64.23078" lon="20.94973">
        <ele>37.379448</ele>
        <time>2020-08-28T16:21:20.723Z</time>
      </trkpt>
      <trkpt lat="64.23043" lon="20.94837">
        <ele>37.629013</ele>
        <time>2020-08-28T16:21:34.361Z</time>
      </trkpt>
      <trkpt lat="64.22769" lon="20.94142">
        <ele>38.407534</ele>
        <time>2020-08-28T16:22:46.168Z</time>
      </trkpt>
      <trkpt lat="64.2272" lon="20.93982">
        <ele>39.019543</ele>
        <time>2020-08-28T16:23:04.651Z</time>
      </trkpt>
      <trkpt lat="64.22386" lon="20.9213">
        <ele>57.405022</ele>
        <time>2020-08-28T16:26:41.166Z</time>
      </trkpt>
      <trkpt lat="64.22341" lon="20.91906">
        <ele>58.533196</ele>
        <time>2020-08-28T16:27:04.358Z</time>
      </trkpt>
      <trkpt lat="64.22292" lon="20.91718">
        <ele>59.295742</ele>
        <time>2020-08-28T16:27:22.783Z</time>
      </trkpt>
      <trkpt lat="64.22151" lon="20.91256">
        <ele>59.190671</ele>
        <time>2020-08-28T16:28:06.095Z</time>
      </trkpt>
      <trkpt lat="64.22084" lon="20.91056">
        <ele>58.97002</ele>
        <time>2020-08-28T16:28:24.741Z</time>
      </trkpt>
      <trkpt lat="64.21925" lon="20.90579">
        <ele>58.285453</ele>
        <time>2020-08-28T16:29:08.815Z</time>
      </trkpt>
      <trkpt lat="64.21531" lon="20.89375">
        <ele>58.428402</ele>
        <time>2020-08-28T16:31:06.727Z</time>
      </trkpt>
      <trkpt lat="64.20843" lon="20.87509">
        <ele>63.614257</ele>
        <time>2020-08-28T16:34:33.090Z</time>
      </trkpt>
      <trkpt lat="64.20645" lon="20.86972">
        <ele>65.784357</ele>
        <time>2020-08-28T16:35:37.413Z</time>
      </trkpt>
      <trkpt lat="64.20608" lon="20.86874">
        <ele>65.988725</ele>
        <time>2020-08-28T16:35:46.720Z</time>
      </trkpt>
      <trkpt lat="64.20581" lon="20.86808">
        <ele>65.38097</ele>
        <time>2020-08-28T16:35:52.751Z</time>
      </trkpt>
      <trkpt lat="64.20073" lon="20.85432">
        <ele>53.659302</ele>
        <time>2020-08-28T16:37:47.286Z</time>
      </trkpt>
      <trkpt lat="64.19978" lon="20.85185">
        <ele>52.767644</ele>
        <time>2020-08-28T16:38:11.484Z</time>
      </trkpt>
      <trkpt lat="64.19891" lon="20.84983">
        <ele>52.575753</ele>
        <time>2020-08-28T16:38:33.871Z</time>
      </trkpt>
      <trkpt lat="64.1978" lon="20.84722">
        <ele>51.988548</ele>
        <time>2020-08-28T16:39:00.915Z</time>
      </trkpt>
      <trkpt lat="64.19679" lon="20.84497">
        <ele>50.223679</ele>
        <time>2020-08-28T16:39:22.323Z</time>
      </trkpt>
      <trkpt lat="64.1964" lon="20.84418">
        <ele>49.504618</ele>
        <time>2020-08-28T16:39:29.642Z</time>
      </trkpt>
      <trkpt lat="64.19627" lon="20.84391">
        <ele>49.110697</ele>
        <time>2020-08-28T16:39:32.148Z</time>
      </trkpt>
      <trkpt lat="64.19574" lon="20.84269">
        <ele>47.440441</ele>
        <time>2020-08-28T16:39:42.495Z</time>
      </trkpt>
      <trkpt lat="64.19462" lon="20.84487">
        <ele>44.567315</ele>
        <time>2020-08-28T16:40:02.746Z</time>
      </trkpt>
      <trkpt lat="64.19369" lon="20.84689">
        <ele>42.642625</ele>
        <time>2020-08-28T16:40:21.845Z</time>
      </trkpt>
      <trkpt lat="64.19346" lon="20.84736">
        <ele>42.506091</ele>
        <time>2020-08-28T16:40:26.820Z</time>
      </trkpt>
      <trkpt lat="64.19269" lon="20.84902">
        <ele>42.038698</ele>
        <time>2020-08-28T16:40:44.695Z</time>
      </trkpt>
      <trkpt lat="64.19212" lon="20.85028">
        <ele>42.138546</ele>
        <time>2020-08-28T16:40:59.039Z</time>
      </trkpt>
      <trkpt lat="64.19147" lon="20.85164">
        <ele>42.557087</ele>
        <time>2020-08-28T16:41:15.829Z</time>
      </trkpt>
      <trkpt lat="64.19083" lon="20.85301">
        <ele>43.399927</ele>
        <time>2020-08-28T16:41:34.186Z</time>
      </trkpt>
      <trkpt lat="64.18989" lon="20.85507">
        <ele>45.266628</ele>
        <time>2020-08-28T16:42:04.147Z</time>
      </trkpt>
      <trkpt lat="64.18917" lon="20.8566">
        <ele>46.645884</ele>
        <time>2020-08-28T16:42:27.233Z</time>
      </trkpt>
      <trkpt lat="64.18912" lon="20.85651">
        <ele>46.737026</ele>
        <time>2020-08-28T16:42:28.655Z</time>
      </trkpt>
      <trkpt lat="64.18874" lon="20.85733">
        <ele>47.474804</ele>
        <time>2020-08-28T16:42:40.654Z</time>
      </trkpt>
      <trkpt lat="64.18814" lon="20.85855">
        <ele>48.203506</ele>
        <time>2020-08-28T16:42:57.600Z</time>
      </trkpt>
      <trkpt lat="64.18807" lon="20.85868">
        <ele>48.257048</ele>
        <time>2020-08-28T16:42:59.201Z</time>
      </trkpt>
      <trkpt lat="64.1871" lon="20.86076">
        <ele>49.169704</ele>
        <time>2020-08-28T16:43:25.449Z</time>
      </trkpt>
      <trkpt lat="64.18647" lon="20.86217">
        <ele>50.246469</ele>
        <time>2020-08-28T16:43:45.853Z</time>
      </trkpt>
      <trkpt lat="64.18652" lon="20.86231">
        <ele>50.34371</ele>
        <time>2020-08-28T16:43:47.774Z</time>
      </trkpt>
      <trkpt lat="64.1866" lon="20.86246">
        <ele>50.463396</ele>
        <time>2020-08-28T16:43:50.270Z</time>
      </trkpt>
      <trkpt lat="64.18663" lon="20.86258">
        <ele>50.539132</ele>
        <time>2020-08-28T16:43:51.742Z</time>
      </trkpt>
      <trkpt lat="64.18661" lon="20.86284">
        <ele>50.682194</ele>
        <time>2020-08-28T16:43:54.415Z</time>
      </trkpt>
      <trkpt lat="64.18652" lon="20.86307">
        <ele>50.839411</ele>
        <time>2020-08-28T16:43:57.441Z</time>
      </trkpt>
      <trkpt lat="64.18638" lon="20.86345">
        <ele>51.107867</ele>
        <time>2020-08-28T16:44:02.529Z</time>
      </trkpt>
      <trkpt lat="64.18583" lon="20.86466">
        <ele>50.853139</ele>
        <time>2020-08-28T16:44:19.027Z</time>
      </trkpt>
      <trkpt lat="64.1857" lon="20.86515">
        <ele>50.721791</ele>
        <time>2020-08-28T16:44:24.155Z</time>
      </trkpt>
      <trkpt lat="64.18536" lon="20.86756">
        <ele>49.549149</ele>
        <time>2020-08-28T16:44:40.676Z</time>
      </trkpt>
      <trkpt lat="64.1848" lon="20.86958">
        <ele>46.281157</ele>
        <time>2020-08-28T16:44:54.574Z</time>
      </trkpt>
      <trkpt lat="64.18465" lon="20.87094">
        <ele>44.585421</ele>
        <time>2020-08-28T16:45:02.920Z</time>
      </trkpt>
      <trkpt lat="64.18441" lon="20.87244">
        <ele>44.073548</ele>
        <time>2020-08-28T16:45:13.280Z</time>
      </trkpt>
      <trkpt lat="64.18415" lon="20.87548">
        <ele>43.63492</ele>
        <time>2020-08-28T16:45:40.400Z</time>
      </trkpt>
      <trkpt lat="64.18393" lon="20.87724">
        <ele>44.375914</ele>
        <time>2020-08-28T16:45:59.555Z</time>
      </trkpt>
      <trkpt lat="64.18349" lon="20.87953">
        <ele>44.682541</ele>
        <time>2020-08-28T16:46:21.954Z</time>
      </trkpt>
      <trkpt lat="64.18222" lon="20.88394">
        <ele>42.50535</ele>
        <time>2020-08-28T16:46:58.375Z</time>
      </trkpt>
      <trkpt lat="64.18193" lon="20.88538">
        <ele>41.636835</ele>
        <time>2020-08-28T16:47:09.139Z</time>
      </trkpt>
      <trkpt lat="64.1812" lon="20.89144">
        <ele>38.902138</ele>
        <time>2020-08-28T16:47:53.964Z</time>
      </trkpt>
      <trkpt lat="64.18107" lon="20.89223">
        <ele>38.522222</ele>
        <time>2020-08-28T16:47:59.898Z</time>
      </trkpt>
      <trkpt lat="64.1806" lon="20.89437">
        <ele>37.214294</ele>
        <time>2020-08-28T16:48:16.465Z</time>
      </trkpt>
      <trkpt lat="64.18006" lon="20.89629">
        <ele>35.585649</ele>
        <time>2020-08-28T16:48:31.646Z</time>
      </trkpt>
      <trkpt lat="64.17927" lon="20.89845">
        <ele>33.372881</ele>
        <time>2020-08-28T16:48:49.901Z</time>
      </trkpt>
      <trkpt lat="64.17858" lon="20.89985">
        <ele>31.624714</ele>
        <time>2020-08-28T16:49:03.623Z</time>
      </trkpt>
      <trkpt lat="64.17742" lon="20.90282">
        <ele>28.581791</ele>
        <time>2020-08-28T16:49:29.674Z</time>
      </trkpt>
      <trkpt lat="64.17728" lon="20.90328">
        <ele>28.240914</ele>
        <time>2020-08-28T16:49:33.500Z</time>
      </trkpt>
      <trkpt lat="64.17722" lon="20.90349">
        <ele>28.138567</ele>
        <time>2020-08-28T16:49:35.220Z</time>
      </trkpt>
      <trkpt lat="64.17649" lon="20.90587">
        <ele>26.975849</ele>
        <time>2020-08-28T16:49:55.851Z</time>
      </trkpt>
      <trkpt lat="64.17544" lon="20.90861">
        <ele>26.204788</ele>
        <time>2020-08-28T16:50:24.221Z</time>
      </trkpt>
      <trkpt lat="64.17458" lon="20.90985">
        <ele>25.548705</ele>
        <time>2020-08-28T16:50:41.748Z</time>
      </trkpt>
      <trkpt lat="64.17349" lon="20.91122">
        <ele>24.392074</ele>
        <time>2020-08-28T16:51:01.778Z</time>
      </trkpt>
      <trkpt lat="64.17304" lon="20.91199">
        <ele>23.644038</ele>
        <time>2020-08-28T16:51:10.564Z</time>
      </trkpt>
      <trkpt lat="64.17262" lon="20.91245">
        <ele>23.008904</ele>
        <time>2020-08-28T16:51:17.692Z</time>
      </trkpt>
      <trkpt lat="64.17228" lon="20.91318">
        <ele>22.364265</ele>
        <time>2020-08-28T16:51:24.909Z</time>
      </trkpt>
      <trkpt lat="64.171" lon="20.91506">
        <ele>20.612566</ele>
        <time>2020-08-28T16:51:48.826Z</time>
      </trkpt>
      <trkpt lat="64.1706" lon="20.91629">
        <ele>19.895287</ele>
        <time>2020-08-28T16:51:59.799Z</time>
      </trkpt>
      <trkpt lat="64.16845" lon="20.92436">
        <ele>17.862337</ele>
        <time>2020-08-28T16:53:10.600Z</time>
      </trkpt>
      <trkpt lat="64.16837" lon="20.92439">
        <ele>17.846163</ele>
        <time>2020-08-28T16:53:12.028Z</time>
      </trkpt>
      <trkpt lat="64.16821" lon="20.92513">
        <ele>17.775219</ele>
        <time>2020-08-28T16:53:18.169Z</time>
      </trkpt>
      <trkpt lat="64.16808" lon="20.9256">
        <ele>17.72726</ele>
        <time>2020-08-28T16:53:22.430Z</time>
      </trkpt>
      <trkpt lat="64.16803" lon="20.92581">
        <ele>17.706727</ele>
        <time>2020-08-28T16:53:24.221Z</time>
      </trkpt>
      <trkpt lat="64.16798" lon="20.92597">
        <ele>17.690313</ele>
        <time>2020-08-28T16:53:25.700Z</time>
      </trkpt>
      <trkpt lat="64.16795" lon="20.92608">
        <ele>17.678916</ele>
        <time>2020-08-28T16:53:26.734Z</time>
      </trkpt>
      <trkpt lat="64.16774" lon="20.92683">
        <ele>17.653369</ele>
        <time>2020-08-28T16:53:33.857Z</time>
      </trkpt>
      <trkpt lat="64.16706" lon="20.92865">
        <ele>18.361559</ele>
        <time>2020-08-28T16:53:54.478Z</time>
      </trkpt>
      <trkpt lat="64.166" lon="20.93083">
        <ele>19.541386</ele>
        <time>2020-08-28T16:54:24.492Z</time>
      </trkpt>
      <trkpt lat="64.16589" lon="20.93064">
        <ele>19.671562</ele>
        <time>2020-08-28T16:54:28.970Z</time>
      </trkpt>
      <trkpt lat="64.16494" lon="20.92947">
        <ele>20.715928</ele>
        <time>2020-08-28T16:55:04.335Z</time>
      </trkpt>
      <trkpt lat="64.16363" lon="20.92812">
        <ele>22.123187</ele>
        <time>2020-08-28T16:55:51.322Z</time>
      </trkpt>
      <trkpt lat="64.16261" lon="20.92694">
        <ele>23.019435</ele>
        <time>2020-08-28T16:56:29.116Z</time>
      </trkpt>
      <trkpt lat="64.16217" lon="20.92612">
        <ele>23.43291</ele>
        <time>2020-08-28T16:56:47.303Z</time>
      </trkpt>
      <trkpt lat="64.16119" lon="20.92373">
        <ele>23.31623</ele>
        <time>2020-08-28T16:57:29.985Z</time>
      </trkpt>
      <trkpt lat="64.15955" lon="20.92002">
        <ele>21.544501</ele>
        <time>2020-08-28T16:58:32.577Z</time>
      </trkpt>
      <trkpt lat="64.15938" lon="20.91974">
        <ele>21.356394</ele>
        <time>2020-08-28T16:58:38.247Z</time>
      </trkpt>
      <trkpt lat="64.15894" lon="20.91932">
        <ele>21.067699</ele>
        <time>2020-08-28T16:58:51.287Z</time>
      </trkpt>
      <trkpt lat="64.15744" lon="20.91836">
        <ele>20.252286</ele>
        <time>2020-08-28T16:59:35.552Z</time>
      </trkpt>
      <trkpt lat="64.15643" lon="20.91775">
        <ele>20.12472</ele>
        <time>2020-08-28T17:00:06.229Z</time>
      </trkpt>
      <trkpt lat="64.15567" lon="20.91727">
        <ele>20.174729</ele>
        <time>2020-08-28T17:00:29.647Z</time>
      </trkpt>
      <trkpt lat="64.15538" lon="20.91705">
        <ele>20.284289</ele>
        <time>2020-08-28T17:00:38.975Z</time>
      </trkpt>
      <trkpt lat="64.15476" lon="20.91637">
        <ele>20.529972</ele>
        <time>2020-08-28T17:01:00.139Z</time>
      </trkpt>
      <trkpt lat="64.15253" lon="20.91341">
        <ele>22.556975</ele>
        <time>2020-08-28T17:02:23.291Z</time>
      </trkpt>
      <trkpt lat="64.15196" lon="20.91297">
        <ele>23.394685</ele>
        <time>2020-08-28T17:02:43.671Z</time>
      </trkpt>
      <trkpt lat="64.1507" lon="20.91149">
        <ele>25.428583</ele>
        <time>2020-08-28T17:03:33.462Z</time>
      </trkpt>
      <trkpt lat="64.14948" lon="20.91043">
        <ele>27.362755</ele>
        <time>2020-08-28T17:04:18.406Z</time>
      </trkpt>
      <trkpt lat="64.1487" lon="20.90962">
        <ele>28.042144</ele>
        <time>2020-08-28T17:04:46.632Z</time>
      </trkpt>
      <trkpt lat="64.14752" lon="20.90746">
        <ele>28.933</ele>
        <time>2020-08-28T17:05:33.943Z</time>
      </trkpt>
      <trkpt lat="64.14479" lon="20.90343">
        <ele>29.465145</ele>
        <time>2020-08-28T17:07:11.579Z</time>
      </trkpt>
      <trkpt lat="64.14369" lon="20.90271">
        <ele>29.506737</ele>
        <time>2020-08-28T17:07:45.797Z</time>
      </trkpt>
      <trkpt lat="64.14154" lon="20.90157">
        <ele>29.711861</ele>
        <time>2020-08-28T17:08:51.880Z</time>
      </trkpt>
      <trkpt lat="64.13971" lon="20.90031">
        <ele>30.874519</ele>
        <time>2020-08-28T17:09:51.743Z</time>
      </trkpt>
      <trkpt lat="64.13922" lon="20.90018">
        <ele>31.701838</ele>
        <time>2020-08-28T17:10:08.765Z</time>
      </trkpt>
      <trkpt lat="64.13897" lon="20.90007">
        <ele>32.125643</ele>
        <time>2020-08-28T17:10:17.372Z</time>
      </trkpt>
      <trkpt lat="64.1389" lon="20.90011">
        <ele>32.255108</ele>
        <time>2020-08-28T17:10:20.358Z</time>
      </trkpt>
      <trkpt lat="64.13856" lon="20.90032">
        <ele>32.847715</ele>
        <time>2020-08-28T17:10:32.920Z</time>
      </trkpt>
      <trkpt lat="64.1379" lon="20.90047">
        <ele>33.983666</ele>
        <time>2020-08-28T17:10:56.924Z</time>
      </trkpt>
      <trkpt lat="64.13763" lon="20.90063">
        <ele>34.514267</ele>
        <time>2020-08-28T17:11:07.620Z</time>
      </trkpt>
      <trkpt lat="64.13525" lon="20.90295">
        <ele>38.491371</ele>
        <time>2020-08-28T17:12:39.029Z</time>
      </trkpt>
      <trkpt lat="64.13443" lon="20.90394">
        <ele>38.9115</ele>
        <time>2020-08-28T17:13:07.170Z</time>
      </trkpt>
      <trkpt lat="64.1334" lon="20.90439">
        <ele>38.015548</ele>
        <time>2020-08-28T17:13:35.771Z</time>
      </trkpt>
      <trkpt lat="64.13245" lon="20.90539">
        <ele>36.46978</ele>
        <time>2020-08-28T17:14:02.806Z</time>
      </trkpt>
      <trkpt lat="64.13186" lon="20.90583">
        <ele>35.282929</ele>
        <time>2020-08-28T17:14:18.320Z</time>
      </trkpt>
      <trkpt lat="64.13081" lon="20.90698">
        <ele>33.218993</ele>
        <time>2020-08-28T17:14:47.485Z</time>
      </trkpt>
      <trkpt lat="64.12992" lon="20.90737">
        <ele>31.730413</ele>
        <time>2020-08-28T17:15:11.057Z</time>
      </trkpt>
      <trkpt lat="64.12971" lon="20.90731">
        <ele>31.385568</ele>
        <time>2020-08-28T17:15:16.686Z</time>
      </trkpt>
      <trkpt lat="64.1292" lon="20.90693">
        <ele>30.985878</ele>
        <time>2020-08-28T17:15:31.217Z</time>
      </trkpt>
      <trkpt lat="64.129" lon="20.90692">
        <ele>30.863569</ele>
        <time>2020-08-28T17:15:37.010Z</time>
      </trkpt>
      <trkpt lat="64.12815" lon="20.90739">
        <ele>30.351192</ele>
        <time>2020-08-28T17:16:01.875Z</time>
      </trkpt>
      <trkpt lat="64.12685" lon="20.90789">
        <ele>29.826036</ele>
        <time>2020-08-28T17:16:40.276Z</time>
      </trkpt>
      <trkpt lat="64.12602" lon="20.90852">
        <ele>29.381839</ele>
        <time>2020-08-28T17:17:04.992Z</time>
      </trkpt>
      <trkpt lat="64.12566" lon="20.90879">
        <ele>28.826258</ele>
        <time>2020-08-28T17:17:15.299Z</time>
      </trkpt>
      <trkpt lat="64.12531" lon="20.90896">
        <ele>28.296753</ele>
        <time>2020-08-28T17:17:25.025Z</time>
      </trkpt>
      <trkpt lat="64.1251" lon="20.909">
        <ele>27.981551</ele>
        <time>2020-08-28T17:17:30.361Z</time>
      </trkpt>
      <trkpt lat="64.12493" lon="20.90896">
        <ele>27.733825</ele>
        <time>2020-08-28T17:17:34.809Z</time>
      </trkpt>
      <trkpt lat="64.12487" lon="20.90891">
        <ele>27.632955</ele>
        <time>2020-08-28T17:17:36.508Z</time>
      </trkpt>
      <trkpt lat="64.12475" lon="20.90882">
        <ele>27.448428</ele>
        <time>2020-08-28T17:17:39.587Z</time>
      </trkpt>
      <trkpt lat="64.12426" lon="20.90814">
        <ele>26.406319</ele>
        <time>2020-08-28T17:17:53.986Z</time>
      </trkpt>
      <trkpt lat="64.12397" lon="20.90795">
        <ele>25.646053</ele>
        <time>2020-08-28T17:18:01.501Z</time>
      </trkpt>
      <trkpt lat="64.12384" lon="20.90796">
        <ele>25.33047</ele>
        <time>2020-08-28T17:18:04.490Z</time>
      </trkpt>
      <trkpt lat="64.12362" lon="20.90799">
        <ele>24.785083</ele>
        <time>2020-08-28T17:18:09.932Z</time>
      </trkpt>
      <trkpt lat="64.12287" lon="20.90841">
        <ele>22.874769</ele>
        <time>2020-08-28T17:18:28.647Z</time>
      </trkpt>
      <trkpt lat="64.1227" lon="20.90853">
        <ele>22.430223</ele>
        <time>2020-08-28T17:18:32.962Z</time>
      </trkpt>
      <trkpt lat="64.12237" lon="20.9088">
        <ele>21.652564</ele>
        <time>2020-08-28T17:18:41.657Z</time>
      </trkpt>
      <trkpt lat="64.12219" lon="20.90898">
        <ele>21.236036</ele>
        <time>2020-08-28T17:18:46.467Z</time>
      </trkpt>
      <trkpt lat="64.12211" lon="20.909">
        <ele>21.05168</ele>
        <time>2020-08-28T17:18:48.502Z</time>
      </trkpt>
      <trkpt lat="64.12198" lon="20.90905">
        <ele>20.760083</ele>
        <time>2020-08-28T17:18:51.930Z</time>
      </trkpt>
      <trkpt lat="64.12187" lon="20.90907">
        <ele>20.529954</ele>
        <time>2020-08-28T17:18:54.582Z</time>
      </trkpt>
      <trkpt lat="64.12164" lon="20.90904">
        <ele>20.035993</ele>
        <time>2020-08-28T17:19:00.201Z</time>
      </trkpt>
      <trkpt lat="64.12125" lon="20.90872">
        <ele>19.113676</ele>
        <time>2020-08-28T17:19:10.831Z</time>
      </trkpt>
      <trkpt lat="64.12104" lon="20.90838">
        <ele>18.557429</ele>
        <time>2020-08-28T17:19:17.284Z</time>
      </trkpt>
      <trkpt lat="64.1207" lon="20.90792">
        <ele>18.283741</ele>
        <time>2020-08-28T17:19:23.031Z</time>
      </trkpt>
      <trkpt lat="64.1204" lon="20.90761">
        <ele>18.078677</ele>
        <time>2020-08-28T17:19:27.942Z</time>
      </trkpt>
      <trkpt lat="64.12014" lon="20.90743">
        <ele>17.907894</ele>
        <time>2020-08-28T17:19:32.481Z</time>
      </trkpt>
      <trkpt lat="64.11991" lon="20.90736">
        <ele>17.762652</ele>
        <time>2020-08-28T17:19:36.315Z</time>
      </trkpt>
      <trkpt lat="64.11981" lon="20.9073">
        <ele>17.69966</ele>
        <time>2020-08-28T17:19:38.058Z</time>
      </trkpt>
      <trkpt lat="64.11961" lon="20.90712">
        <ele>17.562913</ele>
        <time>2020-08-28T17:19:41.838Z</time>
      </trkpt>
      <trkpt lat="64.11947" lon="20.90688">
        <ele>17.455031</ele>
        <time>2020-08-28T17:19:45.380Z</time>
      </trkpt>
      <trkpt lat="64.11937" lon="20.9067">
        <ele>17.427834</ele>
        <time>2020-08-28T17:19:47.613Z</time>
      </trkpt>
      <trkpt lat="64.11927" lon="20.90653">
        <ele>17.571094</ele>
        <time>2020-08-28T17:19:50.306Z</time>
      </trkpt>
      <trkpt lat="64.11917" lon="20.90636">
        <ele>17.710717</ele>
        <time>2020-08-28T17:19:52.800Z</time>
      </trkpt>
      <trkpt lat="64.11908" lon="20.90618">
        <ele>17.849682</ele>
        <time>2020-08-28T17:19:55.030Z</time>
      </trkpt>
      <trkpt lat="64.1189" lon="20.90584">
        <ele>18.116712</ele>
        <time>2020-08-28T17:20:00.193Z</time>
      </trkpt>
      <trkpt lat="64.11851" lon="20.9051">
        <ele>18.694771</ele>
        <time>2020-08-28T17:20:10.708Z</time>
      </trkpt>
      <trkpt lat="64.11843" lon="20.90488">
        <ele>18.838379</ele>
        <time>2020-08-28T17:20:13.774Z</time>
      </trkpt>
      <trkpt lat="64.11821" lon="20.90432">
        <ele>19.214698</ele>
        <time>2020-08-28T17:20:21.031Z</time>
      </trkpt>
      <trkpt lat="64.11808" lon="20.90391">
        <ele>19.470447</ele>
        <time>2020-08-28T17:20:25.914Z</time>
      </trkpt>
      <trkpt lat="64.11806" lon="20.9038">
        <ele>19.554316</ele>
        <time>2020-08-28T17:20:27.196Z</time>
      </trkpt>
      <trkpt lat="64.11795" lon="20.9033">
        <ele>19.955319</ele>
        <time>2020-08-28T17:20:33.237Z</time>
      </trkpt>
      <trkpt lat="64.11784" lon="20.90275">
        <ele>20.388578</ele>
        <time>2020-08-28T17:20:40.369Z</time>
      </trkpt>
      <trkpt lat="64.11773" lon="20.90204">
        <ele>20.924795</ele>
        <time>2020-08-28T17:20:48.640Z</time>
      </trkpt>
      <trkpt lat="64.11767" lon="20.90163">
        <ele>21.232265</ele>
        <time>2020-08-28T17:20:52.797Z</time>
      </trkpt>
      <trkpt lat="64.1176" lon="20.90105">
        <ele>21.658104</ele>
        <time>2020-08-28T17:20:58.379Z</time>
      </trkpt>
      <trkpt lat="64.11759" lon="20.90098">
        <ele>21.711764</ele>
        <time>2020-08-28T17:20:59.098Z</time>
      </trkpt>
      <trkpt lat="64.11754" lon="20.90041">
        <ele>22.129839</ele>
        <time>2020-08-28T17:21:04.758Z</time>
      </trkpt>
      <trkpt lat="64.11749" lon="20.90006">
        <ele>22.387672</ele>
        <time>2020-08-28T17:21:07.852Z</time>
      </trkpt>
      <trkpt lat="64.11746" lon="20.89995">
        <ele>22.401915</ele>
        <time>2020-08-28T17:21:09.420Z</time>
      </trkpt>
      <trkpt lat="64.11744" lon="20.89986">
        <ele>22.412424</ele>
        <time>2020-08-28T17:21:10.540Z</time>
      </trkpt>
      <trkpt lat="64.11733" lon="20.89967">
        <ele>22.44439</ele>
        <time>2020-08-28T17:21:12.821Z</time>
      </trkpt>
      <trkpt lat="64.11724" lon="20.89956">
        <ele>22.470183</ele>
        <time>2020-08-28T17:21:15.079Z</time>
      </trkpt>
      <trkpt lat="64.11714" lon="20.89954">
        <ele>22.492899</ele>
        <time>2020-08-28T17:21:18.471Z</time>
      </trkpt>
      <trkpt lat="64.11673" lon="20.89955">
        <ele>22.593768</ele>
        <time>2020-08-28T17:21:31.965Z</time>
      </trkpt>
      <trkpt lat="64.11664" lon="20.89955">
        <ele>22.614953</ele>
        <time>2020-08-28T17:21:34.366Z</time>
      </trkpt>
      <trkpt lat="64.11651" lon="20.89947">
        <ele>22.646141</ele>
        <time>2020-08-28T17:21:38.279Z</time>
      </trkpt>
      <trkpt lat="64.11598" lon="20.89851">
        <ele>22.809426</ele>
        <time>2020-08-28T17:21:58.152Z</time>
      </trkpt>
      <trkpt lat="64.11574" lon="20.8983">
        <ele>22.680275</ele>
        <time>2020-08-28T17:22:05.002Z</time>
      </trkpt>
      <trkpt lat="64.11547" lon="20.89831">
        <ele>22.510572</ele>
        <time>2020-08-28T17:22:12.144Z</time>
      </trkpt>
      <trkpt lat="64.11531" lon="20.89831">
        <ele>22.406542</ele>
        <time>2020-08-28T17:22:16.332Z</time>
      </trkpt>
      <trkpt lat="64.11509" lon="20.89822">
        <ele>22.257069</ele>
        <time>2020-08-28T17:22:22.748Z</time>
      </trkpt>
      <trkpt lat="64.1146" lon="20.89801">
        <ele>21.934231</ele>
        <time>2020-08-28T17:22:36.768Z</time>
      </trkpt>
      <trkpt lat="64.11446" lon="20.898">
        <ele>21.840606</ele>
        <time>2020-08-28T17:22:40.910Z</time>
      </trkpt>
      <trkpt lat="64.11431" lon="20.89803">
        <ele>21.743266</ele>
        <time>2020-08-28T17:22:45.179Z</time>
      </trkpt>
      <trkpt lat="64.11403" lon="20.89826">
        <ele>21.56502</ele>
        <time>2020-08-28T17:22:53.429Z</time>
      </trkpt>
      <trkpt lat="64.11384" lon="20.89839">
        <ele>21.452434</ele>
        <time>2020-08-28T17:22:59.032Z</time>
      </trkpt>
      <trkpt lat="64.11316" lon="20.89834">
        <ele>21.063382</ele>
        <time>2020-08-28T17:23:18.414Z</time>
      </trkpt>
      <trkpt lat="64.11302" lon="20.89837">
        <ele>20.980974</ele>
        <time>2020-08-28T17:23:22.531Z</time>
      </trkpt>
      <trkpt lat="64.11284" lon="20.89844">
        <ele>20.880967</ele>
        <time>2020-08-28T17:23:27.488Z</time>
      </trkpt>
      <trkpt lat="64.11198" lon="20.89873">
        <ele>20.278803</ele>
        <time>2020-08-28T17:23:51.691Z</time>
      </trkpt>
      <trkpt lat="64.11041" lon="20.89919">
        <ele>19.1536</ele>
        <time>2020-08-28T17:24:34.843Z</time>
      </trkpt>
      <trkpt lat="64.11012" lon="20.89936">
        <ele>19.125779</ele>
        <time>2020-08-28T17:24:43.593Z</time>
      </trkpt>
      <trkpt lat="64.10975" lon="20.89965">
        <ele>19.090565</ele>
        <time>2020-08-28T17:24:54.854Z</time>
      </trkpt>
      <trkpt lat="64.10941" lon="20.89976">
        <ele>19.058657</ele>
        <time>2020-08-28T17:25:05.209Z</time>
      </trkpt>
      <trkpt lat="64.10928" lon="20.89965">
        <ele>19.045927</ele>
        <time>2020-08-28T17:25:09.412Z</time>
      </trkpt>
      <trkpt lat="64.10917" lon="20.89949">
        <ele>19.034145</ele>
        <time>2020-08-28T17:25:13.385Z</time>
      </trkpt>
      <trkpt lat="64.10908" lon="20.89912">
        <ele>19.017111</ele>
        <time>2020-08-28T17:25:19.011Z</time>
      </trkpt>
      <trkpt lat="64.10899" lon="20.89775">
        <ele>19.230556</ele>
        <time>2020-08-28T17:25:37.898Z</time>
      </trkpt>
      <trkpt lat="64.10891" lon="20.89735">
        <ele>19.317969</ele>
        <time>2020-08-28T17:25:44.089Z</time>
      </trkpt>
      <trkpt lat="64.10872" lon="20.89696">
        <ele>19.430096</ele>
        <time>2020-08-28T17:25:52.042Z</time>
      </trkpt>
      <trkpt lat="64.10805" lon="20.89628">
        <ele>19.756588</ele>
        <time>2020-08-28T17:26:14.957Z</time>
      </trkpt>
      <trkpt lat="64.1076" lon="20.89558">
        <ele>19.947629</ele>
        <time>2020-08-28T17:26:31.938Z</time>
      </trkpt>
      <trkpt lat="64.10675" lon="20.89452">
        <ele>20.258946</ele>
        <time>2020-08-28T17:27:01.660Z</time>
      </trkpt>
      <trkpt lat="64.10656" lon="20.89434">
        <ele>20.325821</ele>
        <time>2020-08-28T17:27:08.010Z</time>
      </trkpt>
      <trkpt lat="64.10591" lon="20.89406">
        <ele>20.557682</ele>
        <time>2020-08-28T17:27:28.089Z</time>
      </trkpt>
      <trkpt lat="64.10559" lon="20.89376">
        <ele>20.681617</ele>
        <time>2020-08-28T17:27:38.353Z</time>
      </trkpt>
      <trkpt lat="64.10536" lon="20.89311">
        <ele>20.812876</ele>
        <time>2020-08-28T17:27:49.481Z</time>
      </trkpt>
      <trkpt lat="64.10494" lon="20.89236">
        <ele>21.008847</ele>
        <time>2020-08-28T17:28:06.446Z</time>
      </trkpt>
      <trkpt lat="64.10472" lon="20.89212">
        <ele>21.232467</ele>
        <time>2020-08-28T17:28:14.202Z</time>
      </trkpt>
      <trkpt lat="64.10443" lon="20.89197">
        <ele>21.587171</ele>
        <time>2020-08-28T17:28:23.631Z</time>
      </trkpt>
      <trkpt lat="64.10334" lon="20.89119">
        <ele>22.987681</ele>
        <time>2020-08-28T17:29:02.629Z</time>
      </trkpt>
      <trkpt lat="64.10311" lon="20.89076">
        <ele>23.33697</ele>
        <time>2020-08-28T17:29:13.080Z</time>
      </trkpt>
      <trkpt lat="64.10265" lon="20.88945">
        <ele>24.131125</ele>
        <time>2020-08-28T17:29:38.933Z</time>
      </trkpt>
      <trkpt lat="64.1021" lon="20.88844">
        <ele>24.889038</ele>
        <time>2020-08-28T17:30:02.061Z</time>
      </trkpt>
      <trkpt lat="64.10184" lon="20.8877">
        <ele>25.037898</ele>
        <time>2020-08-28T17:30:14.750Z</time>
      </trkpt>
      <trkpt lat="64.10162" lon="20.88728">
        <ele>24.756813</ele>
        <time>2020-08-28T17:30:23.248Z</time>
      </trkpt>
      <trkpt lat="64.101" lon="20.88635">
        <ele>24.038749</ele>
        <time>2020-08-28T17:30:43.168Z</time>
      </trkpt>
      <trkpt lat="64.10021" lon="20.88557">
        <ele>23.073364</ele>
        <time>2020-08-28T17:31:05.310Z</time>
      </trkpt>
      <trkpt lat="64.10004" lon="20.88537">
        <ele>22.79151</ele>
        <time>2020-08-28T17:31:09.987Z</time>
      </trkpt>
      <trkpt lat="64.09956" lon="20.8848">
        <ele>21.984519</ele>
        <time>2020-08-28T17:31:23.878Z</time>
      </trkpt>
      <trkpt lat="64.09927" lon="20.88436">
        <ele>21.453259</ele>
        <time>2020-08-28T17:31:33.102Z</time>
      </trkpt>
      <trkpt lat="64.09915" lon="20.88425">
        <ele>21.26534</ele>
        <time>2020-08-28T17:31:36.320Z</time>
      </trkpt>
      <trkpt lat="64.09902" lon="20.88413">
        <ele>21.048674</ele>
        <time>2020-08-28T17:31:40.172Z</time>
      </trkpt>
      <trkpt lat="64.09876" lon="20.88402">
        <ele>20.709011</ele>
        <time>2020-08-28T17:31:47.189Z</time>
      </trkpt>
      <trkpt lat="64.09859" lon="20.88396">
        <ele>20.639698</ele>
        <time>2020-08-28T17:31:51.965Z</time>
      </trkpt>
      <trkpt lat="64.09845" lon="20.88392">
        <ele>20.584656</ele>
        <time>2020-08-28T17:31:55.775Z</time>
      </trkpt>
      <trkpt lat="64.09826" lon="20.88392">
        <ele>20.507227</ele>
        <time>2020-08-28T17:32:01.197Z</time>
      </trkpt>
      <trkpt lat="64.09794" lon="20.88407">
        <ele>20.377223</ele>
        <time>2020-08-28T17:32:10.444Z</time>
      </trkpt>
      <trkpt lat="64.09773" lon="20.88419">
        <ele>20.288244</ele>
        <time>2020-08-28T17:32:16.838Z</time>
      </trkpt>
      <trkpt lat="64.09739" lon="20.88437">
        <ele>20.149123</ele>
        <time>2020-08-28T17:32:27.013Z</time>
      </trkpt>
      <trkpt lat="64.09718" lon="20.88446">
        <ele>20.060124</ele>
        <time>2020-08-28T17:32:33.528Z</time>
      </trkpt>
      <trkpt lat="64.09653" lon="20.8845">
        <ele>20.003503</ele>
        <time>2020-08-28T17:32:52.758Z</time>
      </trkpt>
      <trkpt lat="64.09618" lon="20.88467">
        <ele>20.00252</ele>
        <time>2020-08-28T17:33:03.552Z</time>
      </trkpt>
      <trkpt lat="64.09599" lon="20.8848">
        <ele>20.002003</ele>
        <time>2020-08-28T17:33:09.220Z</time>
      </trkpt>
      <trkpt lat="64.09587" lon="20.88491">
        <ele>20.001638</ele>
        <time>2020-08-28T17:33:13.241Z</time>
      </trkpt>
      <trkpt lat="64.09552" lon="20.88522">
        <ele>20.000616</ele>
        <time>2020-08-28T17:33:24.446Z</time>
      </trkpt>
      <trkpt lat="64.09535" lon="20.88525">
        <ele>20.00017</ele>
        <time>2020-08-28T17:33:29.348Z</time>
      </trkpt>
      <trkpt lat="64.09522" lon="20.88517">
        <ele>20.000012</ele>
        <time>2020-08-28T17:33:33.505Z</time>
      </trkpt>
      <trkpt lat="64.09509" lon="20.885">
        <ele>20.000012</ele>
        <time>2020-08-28T17:33:37.922Z</time>
      </trkpt>
      <trkpt lat="64.09472" lon="20.88397">
        <ele>20.000012</ele>
        <time>2020-08-28T17:33:55.235Z</time>
      </trkpt>
      <trkpt lat="64.09417" lon="20.88299">
        <ele>20.000012</ele>
        <time>2020-08-28T17:34:16.048Z</time>
      </trkpt>
      <trkpt lat="64.09409" lon="20.88275">
        <ele>20.000012</ele>
        <time>2020-08-28T17:34:19.810Z</time>
      </trkpt>
      <trkpt lat="64.09391" lon="20.88216">
        <ele>20.000012</ele>
        <time>2020-08-28T17:34:29.164Z</time>
      </trkpt>
      <trkpt lat="64.09376" lon="20.88186">
        <ele>20.000012</ele>
        <time>2020-08-28T17:34:35.143Z</time>
      </trkpt>
      <trkpt lat="64.09362" lon="20.88169">
        <ele>20.000012</ele>
        <time>2020-08-28T17:34:39.806Z</time>
      </trkpt>
      <trkpt lat="64.09298" lon="20.88134">
        <ele>20.000012</ele>
        <time>2020-08-28T17:34:59.519Z</time>
      </trkpt>
      <trkpt lat="64.09245" lon="20.88056">
        <ele>19.999504</ele>
        <time>2020-08-28T17:35:18.276Z</time>
      </trkpt>
      <trkpt lat="64.09212" lon="20.87978">
        <ele>19.969576</ele>
        <time>2020-08-28T17:35:32.259Z</time>
      </trkpt>
      <trkpt lat="64.0918" lon="20.87892">
        <ele>19.93836</ele>
        <time>2020-08-28T17:35:46.842Z</time>
      </trkpt>
      <trkpt lat="64.09147" lon="20.87795">
        <ele>19.903956</ele>
        <time>2020-08-28T17:36:02.829Z</time>
      </trkpt>
      <trkpt lat="64.09082" lon="20.8762">
        <ele>19.713969</ele>
        <time>2020-08-28T17:36:32.042Z</time>
      </trkpt>
      <trkpt lat="64.09059" lon="20.87564">
        <ele>19.633747</ele>
        <time>2020-08-28T17:36:41.718Z</time>
      </trkpt>
      <trkpt lat="64.09034" lon="20.87522">
        <ele>19.55931</ele>
        <time>2020-08-28T17:36:47.250Z</time>
      </trkpt>
      <trkpt lat="64.09012" lon="20.87497">
        <ele>19.500142</ele>
        <time>2020-08-28T17:36:51.606Z</time>
      </trkpt>
      <trkpt lat="64.08994" lon="20.87482">
        <ele>19.45465</ele>
        <time>2020-08-28T17:36:57.069Z</time>
      </trkpt>
      <trkpt lat="64.08936" lon="20.87458">
        <ele>19.320378</ele>
        <time>2020-08-28T17:37:14.193Z</time>
      </trkpt>
      <trkpt lat="64.08894" lon="20.87454">
        <ele>19.226453</ele>
        <time>2020-08-28T17:37:26.218Z</time>
      </trkpt>
      <trkpt lat="64.08869" lon="20.87457">
        <ele>19.168731</ele>
        <time>2020-08-28T17:37:33.640Z</time>
      </trkpt>
      <trkpt lat="64.08821" lon="20.87454">
        <ele>19.061263</ele>
        <time>2020-08-28T17:37:47.569Z</time>
      </trkpt>
      <trkpt lat="64.08697" lon="20.87406">
        <ele>19.001371</ele>
        <time>2020-08-28T17:38:25.012Z</time>
      </trkpt>
      <trkpt lat="64.08636" lon="20.87392">
        <ele>18.976635</ele>
        <time>2020-08-28T17:38:43.113Z</time>
      </trkpt>
      <trkpt lat="64.08534" lon="20.87389">
        <ele>18.815836</ele>
        <time>2020-08-28T17:39:13.200Z</time>
      </trkpt>
      <trkpt lat="64.08463" lon="20.87367">
        <ele>18.704552</ele>
        <time>2020-08-28T17:39:33.776Z</time>
      </trkpt>
      <trkpt lat="64.0845" lon="20.8736">
        <ele>18.676573</ele>
        <time>2020-08-28T17:39:37.882Z</time>
      </trkpt>
      <trkpt lat="64.0843" lon="20.87343">
        <ele>18.628649</ele>
        <time>2020-08-28T17:39:44.015Z</time>
      </trkpt>
      <trkpt lat="64.0834" lon="20.87241">
        <ele>18.403323</ele>
        <time>2020-08-28T17:40:13.091Z</time>
      </trkpt>
      <trkpt lat="64.08276" lon="20.87182">
        <ele>18.282551</ele>
        <time>2020-08-28T17:40:33.145Z</time>
      </trkpt>
      <trkpt lat="64.08204" lon="20.87069">
        <ele>18.237705</ele>
        <time>2020-08-28T17:40:58.940Z</time>
      </trkpt>
      <trkpt lat="64.08137" lon="20.8694">
        <ele>18.204266</ele>
        <time>2020-08-28T17:41:25.119Z</time>
      </trkpt>
      <trkpt lat="64.08109" lon="20.86906">
        <ele>18.213306</ele>
        <time>2020-08-28T17:41:34.453Z</time>
      </trkpt>
      <trkpt lat="64.07991" lon="20.86813">
        <ele>18.249323</ele>
        <time>2020-08-28T17:42:11.647Z</time>
      </trkpt>
      <trkpt lat="64.07946" lon="20.86782">
        <ele>18.298207</ele>
        <time>2020-08-28T17:42:25.799Z</time>
      </trkpt>
      <trkpt lat="64.07876" lon="20.86725">
        <ele>18.387542</ele>
        <time>2020-08-28T17:42:48.185Z</time>
      </trkpt>
      <trkpt lat="64.07834" lon="20.86692">
        <ele>18.441365</ele>
        <time>2020-08-28T17:43:01.636Z</time>
      </trkpt>
      <trkpt lat="64.07826" lon="20.86683">
        <ele>18.452616</ele>
        <time>2020-08-28T17:43:04.413Z</time>
      </trkpt>
      <trkpt lat="64.0781" lon="20.86677">
        <ele>18.465971</ele>
        <time>2020-08-28T17:43:09.180Z</time>
      </trkpt>
      <trkpt lat="64.07747" lon="20.86643">
        <ele>18.329338</ele>
        <time>2020-08-28T17:43:28.757Z</time>
      </trkpt>
      <trkpt lat="64.07338" lon="20.8655">
        <ele>17.55212</ele>
        <time>2020-08-28T17:45:27.596Z</time>
      </trkpt>
      <trkpt lat="64.07272" lon="20.86526">
        <ele>17.487128</ele>
        <time>2020-08-28T17:45:47.283Z</time>
      </trkpt>
      <trkpt lat="64.07247" lon="20.8651">
        <ele>17.594564</ele>
        <time>2020-08-28T17:45:55.058Z</time>
      </trkpt>
      <trkpt lat="64.07227" lon="20.86489">
        <ele>17.68989</ele>
        <time>2020-08-28T17:46:02.050Z</time>
      </trkpt>
      <trkpt lat="64.07112" lon="20.86369">
        <ele>18.213658</ele>
        <time>2020-08-28T17:46:41.617Z</time>
      </trkpt>
      <trkpt lat="64.0707" lon="20.86313">
        <ele>18.440574</ele>
        <time>2020-08-28T17:46:57.163Z</time>
      </trkpt>
      <trkpt lat="64.07042" lon="20.86271">
        <ele>18.597864</ele>
        <time>2020-08-28T17:47:07.789Z</time>
      </trkpt>
      <trkpt lat="64.07032" lon="20.86256">
        <ele>18.65401</ele>
        <time>2020-08-28T17:47:11.582Z</time>
      </trkpt>
      <trkpt lat="64.07016" lon="20.86231">
        <ele>18.74424</ele>
        <time>2020-08-28T17:47:17.611Z</time>
      </trkpt>
      <trkpt lat="64.07005" lon="20.86213">
        <ele>18.806534</ele>
        <time>2020-08-28T17:47:21.785Z</time>
      </trkpt>
      <trkpt lat="64.06938" lon="20.86107">
        <ele>19.057889</ele>
        <time>2020-08-28T17:47:46.745Z</time>
      </trkpt>
      <trkpt lat="64.06823" lon="20.85965">
        <ele>19.070363</ele>
        <time>2020-08-28T17:48:25.554Z</time>
      </trkpt>
      <trkpt lat="64.06743" lon="20.85854">
        <ele>18.941056</ele>
        <time>2020-08-28T17:48:52.887Z</time>
      </trkpt>
      <trkpt lat="64.06704" lon="20.85818">
        <ele>18.863874</ele>
        <time>2020-08-28T17:49:05.195Z</time>
      </trkpt>
      <trkpt lat="64.06611" lon="20.85758">
        <ele>18.706286</ele>
        <time>2020-08-28T17:49:33.008Z</time>
      </trkpt>
      <trkpt lat="64.06575" lon="20.85827">
        <ele>18.647194</ele>
        <time>2020-08-28T17:49:40.962Z</time>
      </trkpt>
      <trkpt lat="64.06533" lon="20.859">
        <ele>18.579806</ele>
        <time>2020-08-28T17:49:50.315Z</time>
      </trkpt>
      <trkpt lat="64.06484" lon="20.85943">
        <ele>18.523557</ele>
        <time>2020-08-28T17:49:59.665Z</time>
      </trkpt>
      <trkpt lat="64.06469" lon="20.85952">
        <ele>18.550306</ele>
        <time>2020-08-28T17:50:02.499Z</time>
      </trkpt>
      <trkpt lat="64.06447" lon="20.8596">
        <ele>18.586954</ele>
        <time>2020-08-28T17:50:06.458Z</time>
      </trkpt>
      <trkpt lat="64.06415" lon="20.85973">
        <ele>18.642402</ele>
        <time>2020-08-28T17:50:12.521Z</time>
      </trkpt>
      <trkpt lat="64.064" lon="20.85975">
        <ele>18.66718</ele>
        <time>2020-08-28T17:50:15.254Z</time>
      </trkpt>
      <trkpt lat="64.06384" lon="20.85979">
        <ele>18.694935</ele>
        <time>2020-08-28T17:50:18.309Z</time>
      </trkpt>
      <trkpt lat="64.06376" lon="20.8598">
        <ele>18.707906</ele>
        <time>2020-08-28T17:50:19.755Z</time>
      </trkpt>
      <trkpt lat="64.06373" lon="20.85992">
        <ele>18.717426</ele>
        <time>2020-08-28T17:50:20.801Z</time>
      </trkpt>
      <trkpt lat="64.06362" lon="20.85982">
        <ele>18.738143</ele>
        <time>2020-08-28T17:50:23.169Z</time>
      </trkpt>
      <trkpt lat="64.06251" lon="20.85872">
        <ele>18.891983</ele>
        <time>2020-08-28T17:50:46.536Z</time>
      </trkpt>
      <trkpt lat="64.06182" lon="20.85787">
        <ele>18.970897</ele>
        <time>2020-08-28T17:51:01.256Z</time>
      </trkpt>
      <trkpt lat="64.06167" lon="20.85769">
        <ele>18.987104</ele>
        <time>2020-08-28T17:51:04.270Z</time>
      </trkpt>
      <trkpt lat="64.06135" lon="20.85726">
        <ele>19.000012</ele>
        <time>2020-08-28T17:51:11.155Z</time>
      </trkpt>
      <trkpt lat="64.06077" lon="20.85646">
        <ele>19.000012</ele>
        <time>2020-08-28T17:51:23.737Z</time>
      </trkpt>
      <trkpt lat="64.06061" lon="20.85619">
        <ele>19.000012</ele>
        <time>2020-08-28T17:51:27.559Z</time>
      </trkpt>
      <trkpt lat="64.06045" lon="20.85591">
        <ele>19.000012</ele>
        <time>2020-08-28T17:51:31.287Z</time>
      </trkpt>
      <trkpt lat="64.06002" lon="20.85523">
        <ele>19.002738</ele>
        <time>2020-08-28T17:51:40.904Z</time>
      </trkpt>
      <trkpt lat="64.05966" lon="20.85493">
        <ele>19.027424</ele>
        <time>2020-08-28T17:51:48.050Z</time>
      </trkpt>
      <trkpt lat="64.05953" lon="20.85486">
        <ele>19.035851</ele>
        <time>2020-08-28T17:51:50.501Z</time>
      </trkpt>
      <trkpt lat="64.05954" lon="20.85477">
        <ele>19.038518</ele>
        <time>2020-08-28T17:51:51.275Z</time>
      </trkpt>
      <trkpt lat="64.05933" lon="20.85465">
        <ele>19.052086</ele>
        <time>2020-08-28T17:51:55.056Z</time>
      </trkpt>
      <trkpt lat="64.05905" lon="20.85448">
        <ele>19.070554</ele>
        <time>2020-08-28T17:52:00.190Z</time>
      </trkpt>
      <trkpt lat="64.05853" lon="20.85418">
        <ele>19.10533</ele>
        <time>2020-08-28T17:52:10.059Z</time>
      </trkpt>
      <trkpt lat="64.05838" lon="20.85411">
        <ele>19.114999</ele>
        <time>2020-08-28T17:52:12.821Z</time>
      </trkpt>
      <trkpt lat="64.05807" lon="20.854">
        <ele>19.120188</ele>
        <time>2020-08-28T17:52:18.634Z</time>
      </trkpt>
      <trkpt lat="64.05791" lon="20.85403">
        <ele>19.122763</ele>
        <time>2020-08-28T17:52:21.594Z</time>
      </trkpt>
      <trkpt lat="64.05774" lon="20.85417">
        <ele>19.125575</ele>
        <time>2020-08-28T17:52:24.820Z</time>
      </trkpt>
      <trkpt lat="64.05765" lon="20.85433">
        <ele>19.127458</ele>
        <time>2020-08-28T17:52:26.943Z</time>
      </trkpt>
      <trkpt lat="64.05752" lon="20.85452">
        <ele>19.12983</ele>
        <time>2020-08-28T17:52:29.683Z</time>
      </trkpt>
      <trkpt lat="64.05732" lon="20.85481">
        <ele>19.133616</ele>
        <time>2020-08-28T17:52:33.918Z</time>
      </trkpt>
      <trkpt lat="64.05726" lon="20.85492">
        <ele>19.134918</ele>
        <time>2020-08-28T17:52:35.424Z</time>
      </trkpt>
      <trkpt lat="64.05711" lon="20.85505">
        <ele>19.137498</ele>
        <time>2020-08-28T17:52:38.306Z</time>
      </trkpt>
      <trkpt lat="64.05698" lon="20.85514">
        <ele>19.139607</ele>
        <time>2020-08-28T17:52:40.635Z</time>
      </trkpt>
      <trkpt lat="64.05673" lon="20.85517">
        <ele>19.143531</ele>
        <time>2020-08-28T17:52:45.036Z</time>
      </trkpt>
      <trkpt lat="64.05666" lon="20.85517">
        <ele>19.119429</ele>
        <time>2020-08-28T17:52:46.289Z</time>
      </trkpt>
      <trkpt lat="64.05656" lon="20.85512">
        <ele>19.06739</ele>
        <time>2020-08-28T17:52:48.100Z</time>
      </trkpt>
      <trkpt lat="64.05647" lon="20.85507">
        <ele>19.017131</ele>
        <time>2020-08-28T17:52:49.790Z</time>
      </trkpt>
      <trkpt lat="64.05628" lon="20.85489">
        <ele>18.914211</ele>
        <time>2020-08-28T17:52:53.108Z</time>
      </trkpt>
      <trkpt lat="64.0557" lon="20.85411">
        <ele>18.56448</ele>
        <time>2020-08-28T17:53:04.421Z</time>
      </trkpt>
      <trkpt lat="64.05557" lon="20.85397">
        <ele>18.493376</ele>
        <time>2020-08-28T17:53:06.710Z</time>
      </trkpt>
      <trkpt lat="64.05521" lon="20.85382">
        <ele>18.303197</ele>
        <time>2020-08-28T17:53:12.556Z</time>
      </trkpt>
      <trkpt lat="64.05508" lon="20.85382">
        <ele>18.233588</ele>
        <time>2020-08-28T17:53:14.653Z</time>
      </trkpt>
      <trkpt lat="64.055" lon="20.85381">
        <ele>18.167764</ele>
        <time>2020-08-28T17:53:15.731Z</time>
      </trkpt>
      <trkpt lat="64.05459" lon="20.85394">
        <ele>17.658904</ele>
        <time>2020-08-28T17:53:22.159Z</time>
      </trkpt>
      <trkpt lat="64.05397" lon="20.85441">
        <ele>16.869106</ele>
        <time>2020-08-28T17:53:31.856Z</time>
      </trkpt>
      <trkpt lat="64.05364" lon="20.85464">
        <ele>16.439732</ele>
        <time>2020-08-28T17:53:37.065Z</time>
      </trkpt>
      <trkpt lat="64.05316" lon="20.85482">
        <ele>15.913383</ele>
        <time>2020-08-28T17:53:44.283Z</time>
      </trkpt>
      <trkpt lat="64.05289" lon="20.85478">
        <ele>15.687499</ele>
        <time>2020-08-28T17:53:48.530Z</time>
      </trkpt>
      <trkpt lat="64.05267" lon="20.85471">
        <ele>15.514104</ele>
        <time>2020-08-28T17:53:51.790Z</time>
      </trkpt>
      <trkpt lat="64.05257" lon="20.85468">
        <ele>15.42495</ele>
        <time>2020-08-28T17:53:53.486Z</time>
      </trkpt>
      <trkpt lat="64.05196" lon="20.85427">
        <ele>14.911716</ele>
        <time>2020-08-28T17:54:03.508Z</time>
      </trkpt>
      <trkpt lat="64.0517" lon="20.8539">
        <ele>14.666055</ele>
        <time>2020-08-28T17:54:08.573Z</time>
      </trkpt>
      <trkpt lat="64.05128" lon="20.85303">
        <ele>14.493133</ele>
        <time>2020-08-28T17:54:18.507Z</time>
      </trkpt>
      <trkpt lat="64.05103" lon="20.8524">
        <ele>14.431146</ele>
        <time>2020-08-28T17:54:25.341Z</time>
      </trkpt>
      <trkpt lat="64.05048" lon="20.85126">
        <ele>14.308475</ele>
        <time>2020-08-28T17:54:38.328Z</time>
      </trkpt>
      <trkpt lat="64.05039" lon="20.85106">
        <ele>14.287033</ele>
        <time>2020-08-28T17:54:40.439Z</time>
      </trkpt>
      <trkpt lat="64.05008" lon="20.85057">
        <ele>14.035279</ele>
        <time>2020-08-28T17:54:46.813Z</time>
      </trkpt>
      <trkpt lat="64.04984" lon="20.8503">
        <ele>13.798907</ele>
        <time>2020-08-28T17:54:51.262Z</time>
      </trkpt>
      <trkpt lat="64.0498" lon="20.85026">
        <ele>13.758463</ele>
        <time>2020-08-28T17:54:51.931Z</time>
      </trkpt>
      <trkpt lat="64.0494" lon="20.85014">
        <ele>13.409148</ele>
        <time>2020-08-28T17:54:58.185Z</time>
      </trkpt>
      <trkpt lat="64.04921" lon="20.85015">
        <ele>13.234803</ele>
        <time>2020-08-28T17:55:01.252Z</time>
      </trkpt>
      <trkpt lat="64.04899" lon="20.85022">
        <ele>13.046313</ele>
        <time>2020-08-28T17:55:04.441Z</time>
      </trkpt>
      <trkpt lat="64.04872" lon="20.85039">
        <ele>12.79405</ele>
        <time>2020-08-28T17:55:08.753Z</time>
      </trkpt>
      <trkpt lat="64.04847" lon="20.85056">
        <ele>12.549959</ele>
        <time>2020-08-28T17:55:12.564Z</time>
      </trkpt>
      <trkpt lat="64.04776" lon="20.85138">
        <ele>11.739452</ele>
        <time>2020-08-28T17:55:24.438Z</time>
      </trkpt>
      <trkpt lat="64.04741" lon="20.85182">
        <ele>11.327706</ele>
        <time>2020-08-28T17:55:30.698Z</time>
      </trkpt>
      <trkpt lat="64.04708" lon="20.85229">
        <ele>10.92779</ele>
        <time>2020-08-28T17:55:36.873Z</time>
      </trkpt>
      <trkpt lat="64.04702" lon="20.85221">
        <ele>10.863377</ele>
        <time>2020-08-28T17:55:37.973Z</time>
      </trkpt>
      <trkpt lat="64.04609" lon="20.85091">
        <ele>10.936733</ele>
        <time>2020-08-28T17:55:57.700Z</time>
      </trkpt>
      <trkpt lat="64.0459" lon="20.8508">
        <ele>10.953173</ele>
        <time>2020-08-28T17:56:01.551Z</time>
      </trkpt>
      <trkpt lat="64.04536" lon="20.85077">
        <ele>11.020128</ele>
        <time>2020-08-28T17:56:12.541Z</time>
      </trkpt>
      <trkpt lat="64.04503" lon="20.85098">
        <ele>11.494553</ele>
        <time>2020-08-28T17:56:20.007Z</time>
      </trkpt>
      <trkpt lat="64.04484" lon="20.85099">
        <ele>11.742527</ele>
        <time>2020-08-28T17:56:24.045Z</time>
      </trkpt>
      <trkpt lat="64.0446" lon="20.85066">
        <ele>12.125884</ele>
        <time>2020-08-28T17:56:30.633Z</time>
      </trkpt>
      <trkpt lat="64.04434" lon="20.84979">
        <ele>12.762714</ele>
        <time>2020-08-28T17:56:41.616Z</time>
      </trkpt>
      <trkpt lat="64.04414" lon="20.84937">
        <ele>13.132171</ele>
        <time>2020-08-28T17:56:48.153Z</time>
      </trkpt>
      <trkpt lat="64.04386" lon="20.84888">
        <ele>13.618587</ele>
        <time>2020-08-28T17:56:56.796Z</time>
      </trkpt>
      <trkpt lat="64.04388" lon="20.84836">
        <ele>13.923502</ele>
        <time>2020-08-28T17:57:02.101Z</time>
      </trkpt>
      <trkpt lat="64.04383" lon="20.84835">
        <ele>13.995578</ele>
        <time>2020-08-28T17:57:03.544Z</time>
      </trkpt>
      <trkpt lat="64.04271" lon="20.84795">
        <ele>15.528062</ele>
        <time>2020-08-28T17:57:29.468Z</time>
      </trkpt>
      <trkpt lat="64.04083" lon="20.84686">
        <ele>16.46545</ele>
        <time>2020-08-28T17:58:06.573Z</time>
      </trkpt>
      <trkpt lat="64.03903" lon="20.84534">
        <ele>15.950305</ele>
        <time>2020-08-28T17:58:38.359Z</time>
      </trkpt>
      <trkpt lat="64.03713" lon="20.84352">
        <ele>15.538135</ele>
        <time>2020-08-28T17:59:14.160Z</time>
      </trkpt>
      <trkpt lat="64.03657" lon="20.8431">
        <ele>15.460436</ele>
        <time>2020-08-28T17:59:24.664Z</time>
      </trkpt>
      <trkpt lat="64.03546" lon="20.84246">
        <ele>15.328152</ele>
        <time>2020-08-28T17:59:44.480Z</time>
      </trkpt>
      <trkpt lat="64.03425" lon="20.842">
        <ele>15.286373</ele>
        <time>2020-08-28T18:00:05.727Z</time>
      </trkpt>
      <trkpt lat="64.03356" lon="20.84185">
        <ele>15.506788</ele>
        <time>2020-08-28T18:00:18.612Z</time>
      </trkpt>
      <trkpt lat="64.03319" lon="20.8418">
        <ele>15.793144</ele>
        <time>2020-08-28T18:00:25.992Z</time>
      </trkpt>
      <trkpt lat="64.03262" lon="20.84174">
        <ele>16.227528</ele>
        <time>2020-08-28T18:00:37.768Z</time>
      </trkpt>
      <trkpt lat="64.03213" lon="20.84172">
        <ele>16.603526</ele>
        <time>2020-08-28T18:00:48.235Z</time>
      </trkpt>
      <trkpt lat="64.0315" lon="20.84168">
        <ele>17.124146</ele>
        <time>2020-08-28T18:01:01.920Z</time>
      </trkpt>
      <trkpt lat="64.03105" lon="20.84168">
        <ele>17.493891</ele>
        <time>2020-08-28T18:01:11.227Z</time>
      </trkpt>
      <trkpt lat="64.02841" lon="20.84158">
        <ele>19.220931</ele>
        <time>2020-08-28T18:02:02.844Z</time>
      </trkpt>
      <trkpt lat="64.02693" lon="20.84149">
        <ele>20.384448</ele>
        <time>2020-08-28T18:02:32.203Z</time>
      </trkpt>
      <trkpt lat="64.0261" lon="20.84141">
        <ele>21.665924</ele>
        <time>2020-08-28T18:02:51.095Z</time>
      </trkpt>
      <trkpt lat="64.02499" lon="20.84109">
        <ele>23.748483</ele>
        <time>2020-08-28T18:03:18.795Z</time>
      </trkpt>
      <trkpt lat="64.02401" lon="20.84068">
        <ele>24.824114</ele>
        <time>2020-08-28T18:03:42.747Z</time>
      </trkpt>
      <trkpt lat="64.02292" lon="20.84003">
        <ele>25.480687</ele>
        <time>2020-08-28T18:04:03.706Z</time>
      </trkpt>
      <trkpt lat="64.02263" lon="20.83981">
        <ele>25.152526</ele>
        <time>2020-08-28T18:04:08.469Z</time>
      </trkpt>
      <trkpt lat="64.02234" lon="20.83959">
        <ele>24.81514</ele>
        <time>2020-08-28T18:04:13.125Z</time>
      </trkpt>
      <trkpt lat="64.02133" lon="20.83867">
        <ele>23.637682</ele>
        <time>2020-08-28T18:04:28.915Z</time>
      </trkpt>
      <trkpt lat="64.02081" lon="20.83804">
        <ele>23.081755</ele>
        <time>2020-08-28T18:04:37.590Z</time>
      </trkpt>
      <trkpt lat="64.02047" lon="20.83761">
        <ele>22.709875</ele>
        <time>2020-08-28T18:04:43.671Z</time>
      </trkpt>
      <trkpt lat="64.02017" lon="20.83727">
        <ele>22.393948</ele>
        <time>2020-08-28T18:04:48.962Z</time>
      </trkpt>
      <trkpt lat="64.01933" lon="20.83601">
        <ele>22.385794</ele>
        <time>2020-08-28T18:05:06.464Z</time>
      </trkpt>
      <trkpt lat="64.0187" lon="20.83491">
        <ele>22.804159</ele>
        <time>2020-08-28T18:05:22.671Z</time>
      </trkpt>
      <trkpt lat="64.01818" lon="20.8339">
        <ele>23.251764</ele>
        <time>2020-08-28T18:05:37.308Z</time>
      </trkpt>
      <trkpt lat="64.01762" lon="20.83266">
        <ele>23.868585</ele>
        <time>2020-08-28T18:05:54.044Z</time>
      </trkpt>
      <trkpt lat="64.01675" lon="20.83025">
        <ele>23.904021</ele>
        <time>2020-08-28T18:06:20.219Z</time>
      </trkpt>
      <trkpt lat="64.01391" lon="20.82154">
        <ele>19.644419</ele>
        <time>2020-08-28T18:07:33.424Z</time>
      </trkpt>
      <trkpt lat="64.01358" lon="20.8205">
        <ele>18.891716</ele>
        <time>2020-08-28T18:07:41.846Z</time>
      </trkpt>
      <trkpt lat="64.01312" lon="20.81915">
        <ele>17.881332</ele>
        <time>2020-08-28T18:07:53.004Z</time>
      </trkpt>
      <trkpt lat="64.01261" lon="20.81766">
        <ele>16.901295</ele>
        <time>2020-08-28T18:08:05.330Z</time>
      </trkpt>
      <trkpt lat="64.01213" lon="20.81637">
        <ele>16.172306</ele>
        <time>2020-08-28T18:08:16.672Z</time>
      </trkpt>
      <trkpt lat="64.01154" lon="20.81488">
        <ele>15.449289</ele>
        <time>2020-08-28T18:08:30.732Z</time>
      </trkpt>
      <trkpt lat="64.01101" lon="20.81353">
        <ele>15.257322</ele>
        <time>2020-08-28T18:08:44.249Z</time>
      </trkpt>
      <trkpt lat="64.00957" lon="20.81022">
        <ele>15.081559</ele>
        <time>2020-08-28T18:09:20.691Z</time>
      </trkpt>
      <trkpt lat="64.00756" lon="20.80621">
        <ele>15.481021</ele>
        <time>2020-08-28T18:10:09.305Z</time>
      </trkpt>
      <trkpt lat="64.00466" lon="20.80054">
        <ele>16.925377</ele>
        <time>2020-08-28T18:11:22.257Z</time>
      </trkpt>
      <trkpt lat="64.0025" lon="20.79632">
        <ele>18.197802</ele>
        <time>2020-08-28T18:12:17.289Z</time>
      </trkpt>
      <trkpt lat="64.0015" lon="20.79431">
        <ele>18.785558</ele>
        <time>2020-08-28T18:12:43.266Z</time>
      </trkpt>
      <trkpt lat="63.99983" lon="20.79038">
        <ele>19.724714</ele>
        <time>2020-08-28T18:13:29.058Z</time>
      </trkpt>
      <trkpt lat="63.99968" lon="20.78999">
        <ele>19.775142</ele>
        <time>2020-08-28T18:13:33.169Z</time>
      </trkpt>
      <trkpt lat="63.9994" lon="20.78927">
        <ele>19.830192</ele>
        <time>2020-08-28T18:13:41.040Z</time>
      </trkpt>
      <trkpt lat="63.99878" lon="20.78763">
        <ele>19.951792</ele>
        <time>2020-08-28T18:13:58.214Z</time>
      </trkpt>
      <trkpt lat="63.99761" lon="20.78404">
        <ele>19.999214</ele>
        <time>2020-08-28T18:14:33.228Z</time>
      </trkpt>
      <trkpt lat="63.99673" lon="20.78094">
        <ele>20.000012</ele>
        <time>2020-08-28T18:15:02.225Z</time>
      </trkpt>
      <trkpt lat="63.99609" lon="20.7783">
        <ele>19.994381</ele>
        <time>2020-08-28T18:15:25.830Z</time>
      </trkpt>
      <trkpt lat="63.99585" lon="20.77722">
        <ele>19.99142</ele>
        <time>2020-08-28T18:15:35.333Z</time>
      </trkpt>
      <trkpt lat="63.99595" lon="20.77712">
        <ele>19.990817</ele>
        <time>2020-08-28T18:15:38.539Z</time>
      </trkpt>
      <trkpt lat="63.99614" lon="20.77681">
        <ele>19.980304</ele>
        <time>2020-08-28T18:15:45.424Z</time>
      </trkpt>
      <trkpt lat="63.99619" lon="20.77659">
        <ele>19.968268</ele>
        <time>2020-08-28T18:15:48.666Z</time>
      </trkpt>
      <trkpt lat="63.99623" lon="20.77599">
        <ele>19.938698</ele>
        <time>2020-08-28T18:15:56.599Z</time>
      </trkpt>
      <trkpt lat="63.99618" lon="20.7748">
        <ele>19.881022</ele>
        <time>2020-08-28T18:16:12.022Z</time>
      </trkpt>
      <trkpt lat="63.99621" lon="20.77424">
        <ele>19.853696</ele>
        <time>2020-08-28T18:16:19.298Z</time>
      </trkpt>
      <trkpt lat="63.99623" lon="20.77375">
        <ele>19.830068</ele>
        <time>2020-08-28T18:16:25.573Z</time>
      </trkpt>
      <trkpt lat="63.99625" lon="20.77329">
        <ele>19.807912</ele>
        <time>2020-08-28T18:16:31.451Z</time>
      </trkpt>
      <trkpt lat="63.99618" lon="20.77258">
        <ele>19.747873</ele>
        <time>2020-08-28T18:16:40.853Z</time>
      </trkpt>
      <trkpt lat="63.99569" lon="20.76984">
        <ele>19.423769</ele>
        <time>2020-08-28T18:17:18.365Z</time>
      </trkpt>
      <trkpt lat="63.99536" lon="20.76771">
        <ele>19.243896</ele>
        <time>2020-08-28T18:17:47.089Z</time>
      </trkpt>
      <trkpt lat="63.99526" lon="20.76699">
        <ele>19.194321</ele>
        <time>2020-08-28T18:17:56.863Z</time>
      </trkpt>
      <trkpt lat="63.9952" lon="20.76655">
        <ele>19.164443</ele>
        <time>2020-08-28T18:18:02.780Z</time>
      </trkpt>
      <trkpt lat="63.99508" lon="20.76519">
        <ele>19.076298</ele>
        <time>2020-08-28T18:18:20.756Z</time>
      </trkpt>
      <trkpt lat="63.99504" lon="20.76418">
        <ele>19.135944</ele>
        <time>2020-08-28T18:18:33.861Z</time>
      </trkpt>
      <trkpt lat="63.995" lon="20.7609">
        <ele>19.37412</ele>
        <time>2020-08-28T18:19:17.477Z</time>
      </trkpt>
      <trkpt lat="63.99489" lon="20.75925">
        <ele>19.830853</ele>
        <time>2020-08-28T18:19:40.426Z</time>
      </trkpt>
      <trkpt lat="63.9949" lon="20.75806">
        <ele>20.154484</ele>
        <time>2020-08-28T18:19:57.047Z</time>
      </trkpt>
      <trkpt lat="63.99465" lon="20.7552">
        <ele>21.559142</ele>
        <time>2020-08-28T18:20:39.120Z</time>
      </trkpt>
      <trkpt lat="63.99465" lon="20.75348">
        <ele>22.584344</ele>
        <time>2020-08-28T18:21:05.452Z</time>
      </trkpt>
      <trkpt lat="63.99456" lon="20.75233">
        <ele>23.38359</ele>
        <time>2020-08-28T18:21:23.653Z</time>
      </trkpt>
      <trkpt lat="63.99449" lon="20.75177">
        <ele>23.824613</ele>
        <time>2020-08-28T18:21:32.612Z</time>
      </trkpt>
      <trkpt lat="63.99445" lon="20.75157">
        <ele>23.981978</ele>
        <time>2020-08-28T18:21:36.065Z</time>
      </trkpt>
      <trkpt lat="63.99416" lon="20.75048">
        <ele>24.938064</ele>
        <time>2020-08-28T18:21:55.842Z</time>
      </trkpt>
      <trkpt lat="63.99385" lon="20.74982">
        <ele>25.662622</ele>
        <time>2020-08-28T18:22:10.818Z</time>
      </trkpt>
      <trkpt lat="63.99329" lon="20.74832">
        <ele>26.598031</ele>
        <time>2020-08-28T18:22:40.874Z</time>
      </trkpt>
      <trkpt lat="63.99248" lon="20.74668">
        <ele>27.592249</ele>
        <time>2020-08-28T18:23:15.465Z</time>
      </trkpt>
      <trkpt lat="63.99179" lon="20.74505">
        <ele>27.162377</ele>
        <time>2020-08-28T18:23:44.281Z</time>
      </trkpt>
      <trkpt lat="63.99103" lon="20.74384">
        <ele>26.707436</ele>
        <time>2020-08-28T18:24:09.500Z</time>
      </trkpt>
      <trkpt lat="63.99039" lon="20.74358">
        <ele>26.249114</ele>
        <time>2020-08-28T18:24:27.020Z</time>
      </trkpt>
      <trkpt lat="63.9898" lon="20.74264">
        <ele>25.740237</ele>
        <time>2020-08-28T18:24:46.950Z</time>
      </trkpt>
      <trkpt lat="63.9894" lon="20.74153">
        <ele>25.757616</ele>
        <time>2020-08-28T18:25:05.477Z</time>
      </trkpt>
      <trkpt lat="63.98867" lon="20.74061">
        <ele>26.450066</ele>
        <time>2020-08-28T18:25:32.285Z</time>
      </trkpt>
      <trkpt lat="63.9881" lon="20.74009">
        <ele>26.951474</ele>
        <time>2020-08-28T18:25:53.060Z</time>
      </trkpt>
      <trkpt lat="63.98795" lon="20.73977">
        <ele>27.240712</ele>
        <time>2020-08-28T18:26:00.593Z</time>
      </trkpt>
      <trkpt lat="63.98767" lon="20.73875">
        <ele>28.055992</ele>
        <time>2020-08-28T18:26:19.219Z</time>
      </trkpt>
      <trkpt lat="63.98689" lon="20.73761">
        <ele>29.493833</ele>
        <time>2020-08-28T18:26:51.670Z</time>
      </trkpt>
      <trkpt lat="63.98644" lon="20.7366">
        <ele>29.936745</ele>
        <time>2020-08-28T18:27:12.655Z</time>
      </trkpt>
      <trkpt lat="63.98628" lon="20.73579">
        <ele>30.066829</ele>
        <time>2020-08-28T18:27:24.896Z</time>
      </trkpt>
      <trkpt lat="63.98617" lon="20.73422">
        <ele>30.300853</ele>
        <time>2020-08-28T18:27:45.737Z</time>
      </trkpt>
      <trkpt lat="63.98585" lon="20.73338">
        <ele>30.260733</ele>
        <time>2020-08-28T18:27:59.682Z</time>
      </trkpt>
      <trkpt lat="63.98549" lon="20.73268">
        <ele>29.982556</ele>
        <time>2020-08-28T18:28:12.854Z</time>
      </trkpt>
      <trkpt lat="63.98474" lon="20.73168">
        <ele>29.473532</ele>
        <time>2020-08-28T18:28:36.832Z</time>
      </trkpt>
      <trkpt lat="63.98412" lon="20.73111">
        <ele>29.376291</ele>
        <time>2020-08-28T18:28:55.706Z</time>
      </trkpt>
      <trkpt lat="63.98385" lon="20.73072">
        <ele>29.408956</ele>
        <time>2020-08-28T18:29:04.998Z</time>
      </trkpt>
      <trkpt lat="63.98378" lon="20.73003">
        <ele>29.440441</ele>
        <time>2020-08-28T18:29:14.154Z</time>
      </trkpt>
      <trkpt lat="63.98375" lon="20.72838">
        <ele>29.514427</ele>
        <time>2020-08-28T18:29:36.505Z</time>
      </trkpt>
      <trkpt lat="63.98384" lon="20.72768">
        <ele>30.123497</ele>
        <time>2020-08-28T18:29:47.420Z</time>
      </trkpt>
      <trkpt lat="63.98432" lon="20.72546">
        <ele>32.27092</ele>
        <time>2020-08-28T18:30:27.146Z</time>
      </trkpt>
      <trkpt lat="63.98441" lon="20.72489">
        <ele>32.792579</ele>
        <time>2020-08-28T18:30:37.046Z</time>
      </trkpt>
      <trkpt lat="63.98444" lon="20.72453">
        <ele>33.122081</ele>
        <time>2020-08-28T18:30:43.598Z</time>
      </trkpt>
      <trkpt lat="63.98434" lon="20.72324">
        <ele>34.570288</ele>
        <time>2020-08-28T18:31:05.763Z</time>
      </trkpt>
      <trkpt lat="63.98382" lon="20.72051">
        <ele>37.713681</ele>
        <time>2020-08-28T18:31:55.538Z</time>
      </trkpt>
      <trkpt lat="63.98322" lon="20.7188">
        <ele>38.82712</ele>
        <time>2020-08-28T18:32:27.970Z</time>
      </trkpt>
      <trkpt lat="63.98245" lon="20.7174">
        <ele>39.730442</ele>
        <time>2020-08-28T18:32:59.170Z</time>
      </trkpt>
      <trkpt lat="63.98228" lon="20.71685">
        <ele>39.782098</ele>
        <time>2020-08-28T18:33:08.186Z</time>
      </trkpt>
      <trkpt lat="63.9822" lon="20.71646">
        <ele>39.814293</ele>
        <time>2020-08-28T18:33:13.769Z</time>
      </trkpt>
      <trkpt lat="63.98188" lon="20.7129">
        <ele>40.000012</ele>
        <time>2020-08-28T18:34:01.348Z</time>
      </trkpt>
      <trkpt lat="63.98177" lon="20.7123">
        <ele>40.000012</ele>
        <time>2020-08-28T18:34:09.808Z</time>
      </trkpt>
      <trkpt lat="63.98157" lon="20.71195">
        <ele>40.000012</ele>
        <time>2020-08-28T18:34:17.429Z</time>
      </trkpt>
      <trkpt lat="63.981" lon="20.7114">
        <ele>40.000012</ele>
        <time>2020-08-28T18:34:35.750Z</time>
      </trkpt>
      <trkpt lat="63.9805" lon="20.7104">
        <ele>39.987916</ele>
        <time>2020-08-28T18:34:55.453Z</time>
      </trkpt>
      <trkpt lat="63.9802" lon="20.71022">
        <ele>39.980926</ele>
        <time>2020-08-28T18:35:04.887Z</time>
      </trkpt>
      <trkpt lat="63.97997" lon="20.70992">
        <ele>39.975128</ele>
        <time>2020-08-28T18:35:12.703Z</time>
      </trkpt>
      <trkpt lat="63.97971" lon="20.70878">
        <ele>39.962668</ele>
        <time>2020-08-28T18:35:29.492Z</time>
      </trkpt>
      <trkpt lat="63.97961" lon="20.70852">
        <ele>39.941456</ele>
        <time>2020-08-28T18:35:33.943Z</time>
      </trkpt>
      <trkpt lat="63.9795" lon="20.70829">
        <ele>39.880724</ele>
        <time>2020-08-28T18:35:38.295Z</time>
      </trkpt>
      <trkpt lat="63.97888" lon="20.70758">
        <ele>39.593002</ele>
        <time>2020-08-28T18:35:58.678Z</time>
      </trkpt>
      <trkpt lat="63.97843" lon="20.70631">
        <ele>39.297859</ele>
        <time>2020-08-28T18:36:18.955Z</time>
      </trkpt>
      <trkpt lat="63.97787" lon="20.70554">
        <ele>38.604264</ele>
        <time>2020-08-28T18:36:36.564Z</time>
      </trkpt>
      <trkpt lat="63.97724" lon="20.70404">
        <ele>37.37107</ele>
        <time>2020-08-28T18:37:00.511Z</time>
      </trkpt>
      <trkpt lat="63.97682" lon="20.70356">
        <ele>36.759615</ele>
        <time>2020-08-28T18:37:12.463Z</time>
      </trkpt>
      <trkpt lat="63.9764" lon="20.7034">
        <ele>36.340181</ele>
        <time>2020-08-28T18:37:23.622Z</time>
      </trkpt>
      <trkpt lat="63.97617" lon="20.70315">
        <ele>36.093824</ele>
        <time>2020-08-28T18:37:30.303Z</time>
      </trkpt>
      <trkpt lat="63.97579" lon="20.70251">
        <ele>35.638921</ele>
        <time>2020-08-28T18:37:42.853Z</time>
      </trkpt>
      <trkpt lat="63.9753" lon="20.70147">
        <ele>35.142765</ele>
        <time>2020-08-28T18:38:01.901Z</time>
      </trkpt>
      <trkpt lat="63.97498" lon="20.70063">
        <ele>35.801594</ele>
        <time>2020-08-28T18:38:17.070Z</time>
      </trkpt>
      <trkpt lat="63.97497" lon="20.70017">
        <ele>36.080252</ele>
        <time>2020-08-28T18:38:23.853Z</time>
      </trkpt>
      <trkpt lat="63.97505" lon="20.69879">
        <ele>36.916204</ele>
        <time>2020-08-28T18:38:45.544Z</time>
      </trkpt>
      <trkpt lat="63.975" lon="20.69835">
        <ele>37.184365</ele>
        <time>2020-08-28T18:38:52.824Z</time>
      </trkpt>
      <trkpt lat="63.97494" lon="20.69806">
        <ele>37.37658</ele>
        <time>2020-08-28T18:38:58.128Z</time>
      </trkpt>
      <trkpt lat="63.97445" lon="20.69705">
        <ele>38.987022</ele>
        <time>2020-08-28T18:39:23.681Z</time>
      </trkpt>
      <trkpt lat="63.97428" lon="20.69651">
        <ele>39.742171</ele>
        <time>2020-08-28T18:39:35.026Z</time>
      </trkpt>
      <trkpt lat="63.97413" lon="20.6949">
        <ele>41.624918</ele>
        <time>2020-08-28T18:40:02.893Z</time>
      </trkpt>
      <trkpt lat="63.97374" lon="20.69384">
        <ele>42.825222</ele>
        <time>2020-08-28T18:40:25.394Z</time>
      </trkpt>
      <trkpt lat="63.97364" lon="20.69338">
        <ele>43.192796</ele>
        <time>2020-08-28T18:40:33.539Z</time>
      </trkpt>
      <trkpt lat="63.97279" lon="20.68802">
        <ele>46.778383</ele>
        <time>2020-08-28T18:41:58.199Z</time>
      </trkpt>
      <trkpt lat="63.9726" lon="20.68766">
        <ele>47.089023</ele>
        <time>2020-08-28T18:42:06.487Z</time>
      </trkpt>
      <trkpt lat="63.97227" lon="20.68748">
        <ele>47.489604</ele>
        <time>2020-08-28T18:42:17.976Z</time>
      </trkpt>
      <trkpt lat="63.97193" lon="20.6871">
        <ele>47.85586</ele>
        <time>2020-08-28T18:42:30.646Z</time>
      </trkpt>
      <trkpt lat="63.97155" lon="20.68605">
        <ele>48.438797</ele>
        <time>2020-08-28T18:42:50.561Z</time>
      </trkpt>
      <trkpt lat="63.97141" lon="20.6859">
        <ele>48.589317</ele>
        <time>2020-08-28T18:42:55.659Z</time>
      </trkpt>
      <trkpt lat="63.97091" lon="20.68578">
        <ele>49.07281</ele>
        <time>2020-08-28T18:43:11.666Z</time>
      </trkpt>
      <trkpt lat="63.97065" lon="20.68553">
        <ele>49.160501</ele>
        <time>2020-08-28T18:43:20.769Z</time>
      </trkpt>
      <trkpt lat="63.9692" lon="20.68368">
        <ele>49.303477</ele>
        <time>2020-08-28T18:44:10.282Z</time>
      </trkpt>
      <trkpt lat="63.96899" lon="20.68316">
        <ele>49.188198</ele>
        <time>2020-08-28T18:44:19.229Z</time>
      </trkpt>
      <trkpt lat="63.96878" lon="20.68156">
        <ele>48.916719</ele>
        <time>2020-08-28T18:44:40.201Z</time>
      </trkpt>
      <trkpt lat="63.96834" lon="20.68081">
        <ele>48.711822</ele>
        <time>2020-08-28T18:44:55.892Z</time>
      </trkpt>
      <trkpt lat="63.96791" lon="20.67955">
        <ele>48.45532</ele>
        <time>2020-08-28T18:45:15.607Z</time>
      </trkpt>
      <trkpt lat="63.96751" lon="20.67868">
        <ele>48.251426</ele>
        <time>2020-08-28T18:45:31.381Z</time>
      </trkpt>
      <trkpt lat="63.96738" lon="20.67803">
        <ele>48.135327</ele>
        <time>2020-08-28T18:45:40.428Z</time>
      </trkpt>
      <trkpt lat="63.96731" lon="20.67592">
        <ele>48.074189</ele>
        <time>2020-08-28T18:46:07.544Z</time>
      </trkpt>
      <trkpt lat="63.96723" lon="20.67558">
        <ele>48.093565</ele>
        <time>2020-08-28T18:46:12.454Z</time>
      </trkpt>
      <trkpt lat="63.96675" lon="20.67442">
        <ele>48.176312</ele>
        <time>2020-08-28T18:46:33.927Z</time>
      </trkpt>
      <trkpt lat="63.9666" lon="20.67387">
        <ele>48.209783</ele>
        <time>2020-08-28T18:46:42.789Z</time>
      </trkpt>
      <trkpt lat="63.96657" lon="20.67358">
        <ele>48.252459</ele>
        <time>2020-08-28T18:46:46.833Z</time>
      </trkpt>
      <trkpt lat="63.96663" lon="20.67191">
        <ele>48.658288</ele>
        <time>2020-08-28T18:47:10.057Z</time>
      </trkpt>
      <trkpt lat="63.96642" lon="20.67067">
        <ele>48.979587</ele>
        <time>2020-08-28T18:47:28.640Z</time>
      </trkpt>
      <trkpt lat="63.96578" lon="20.66754">
        <ele>49.60223</ele>
        <time>2020-08-28T18:48:16.071Z</time>
      </trkpt>
      <trkpt lat="63.96516" lon="20.66549">
        <ele>49.863206</ele>
        <time>2020-08-28T18:48:49.087Z</time>
      </trkpt>
      <trkpt lat="63.96492" lon="20.66404">
        <ele>49.880952</ele>
        <time>2020-08-28T18:49:09.197Z</time>
      </trkpt>
      <trkpt lat="63.96457" lon="20.66278">
        <ele>49.898222</ele>
        <time>2020-08-28T18:49:28.752Z</time>
      </trkpt>
      <trkpt lat="63.96449" lon="20.6626">
        <ele>49.900843</ele>
        <time>2020-08-28T18:49:31.970Z</time>
      </trkpt>
      <trkpt lat="63.96405" lon="20.66237">
        <ele>49.910163</ele>
        <time>2020-08-28T18:49:45.310Z</time>
      </trkpt>
      <trkpt lat="63.96384" lon="20.66213">
        <ele>49.915042</ele>
        <time>2020-08-28T18:49:52.337Z</time>
      </trkpt>
      <trkpt lat="63.96372" lon="20.66181">
        <ele>49.919011</ele>
        <time>2020-08-28T18:49:58.042Z</time>
      </trkpt>
      <trkpt lat="63.96359" lon="20.66049">
        <ele>49.931302</ele>
        <time>2020-08-28T18:50:15.736Z</time>
      </trkpt>
      <trkpt lat="63.9635" lon="20.66025">
        <ele>49.934132</ele>
        <time>2020-08-28T18:50:19.821Z</time>
      </trkpt>
      <trkpt lat="63.96288" lon="20.65922">
        <ele>49.958657</ele>
        <time>2020-08-28T18:50:42.778Z</time>
      </trkpt>
      <trkpt lat="63.9624" lon="20.65881">
        <ele>49.976489</ele>
        <time>2020-08-28T18:50:58.057Z</time>
      </trkpt>
      <trkpt lat="63.96218" lon="20.65845">
        <ele>49.985865</ele>
        <time>2020-08-28T18:51:06.099Z</time>
      </trkpt>
      <trkpt lat="63.96196" lon="20.65704">
        <ele>50.000012</ele>
        <time>2020-08-28T18:51:25.855Z</time>
      </trkpt>
      <trkpt lat="63.96186" lon="20.65683">
        <ele>50.000012</ele>
        <time>2020-08-28T18:51:29.886Z</time>
      </trkpt>
      <trkpt lat="63.96101" lon="20.65615">
        <ele>50.000012</ele>
        <time>2020-08-28T18:51:56.506Z</time>
      </trkpt>
      <trkpt lat="63.96003" lon="20.65619">
        <ele>50.000012</ele>
        <time>2020-08-28T18:52:25.718Z</time>
      </trkpt>
      <trkpt lat="63.95971" lon="20.65592">
        <ele>50.000012</ele>
        <time>2020-08-28T18:52:35.864Z</time>
      </trkpt>
      <trkpt lat="63.95867" lon="20.65437">
        <ele>50.000012</ele>
        <time>2020-08-28T18:53:12.771Z</time>
      </trkpt>
      <trkpt lat="63.95819" lon="20.65308">
        <ele>50.000012</ele>
        <time>2020-08-28T18:53:34.844Z</time>
      </trkpt>
      <trkpt lat="63.95783" lon="20.65232">
        <ele>50.000012</ele>
        <time>2020-08-28T18:53:49.403Z</time>
      </trkpt>
      <trkpt lat="63.95776" lon="20.65201">
        <ele>50.000012</ele>
        <time>2020-08-28T18:53:54.078Z</time>
      </trkpt>
      <trkpt lat="63.95761" lon="20.65084">
        <ele>50.000012</ele>
        <time>2020-08-28T18:54:09.990Z</time>
      </trkpt>
      <trkpt lat="63.95742" lon="20.64999">
        <ele>50.000012</ele>
        <time>2020-08-28T18:54:22.370Z</time>
      </trkpt>
      <trkpt lat="63.95742" lon="20.64907">
        <ele>50.000012</ele>
        <time>2020-08-28T18:54:34.457Z</time>
      </trkpt>
      <trkpt lat="63.95752" lon="20.64698">
        <ele>50.000012</ele>
        <time>2020-08-28T18:55:01.965Z</time>
      </trkpt>
      <trkpt lat="63.95731" lon="20.64399">
        <ele>50.000012</ele>
        <time>2020-08-28T18:55:41.428Z</time>
      </trkpt>
      <trkpt lat="63.95728" lon="20.64251">
        <ele>50.000012</ele>
        <time>2020-08-28T18:56:00.884Z</time>
      </trkpt>
      <trkpt lat="63.95701" lon="20.63924">
        <ele>50.000012</ele>
        <time>2020-08-28T18:56:44.276Z</time>
      </trkpt>
      <trkpt lat="63.95689" lon="20.63872">
        <ele>50.000012</ele>
        <time>2020-08-28T18:56:52.008Z</time>
      </trkpt>
      <trkpt lat="63.95654" lon="20.6379">
        <ele>50.000012</ele>
        <time>2020-08-28T18:57:06.920Z</time>
      </trkpt>
      <trkpt lat="63.95622" lon="20.63667">
        <ele>50.000012</ele>
        <time>2020-08-28T18:57:25.587Z</time>
      </trkpt>
      <trkpt lat="63.95594" lon="20.63596">
        <ele>50.000012</ele>
        <time>2020-08-28T18:57:38.109Z</time>
      </trkpt>
      <trkpt lat="63.95571" lon="20.63512">
        <ele>50.000012</ele>
        <time>2020-08-28T18:57:50.981Z</time>
      </trkpt>
      <trkpt lat="63.95539" lon="20.63249">
        <ele>50.000012</ele>
        <time>2020-08-28T18:58:26.551Z</time>
      </trkpt>
      <trkpt lat="63.95538" lon="20.63216">
        <ele>50.000012</ele>
        <time>2020-08-28T18:58:30.984Z</time>
      </trkpt>
      <trkpt lat="63.95542" lon="20.63118">
        <ele>50.000012</ele>
        <time>2020-08-28T18:58:43.743Z</time>
      </trkpt>
      <trkpt lat="63.95535" lon="20.63011">
        <ele>50.000012</ele>
        <time>2020-08-28T18:58:57.949Z</time>
      </trkpt>
      <trkpt lat="63.95505" lon="20.62913">
        <ele>50.000012</ele>
        <time>2020-08-28T18:59:13.628Z</time>
      </trkpt>
      <trkpt lat="63.95488" lon="20.62838">
        <ele>50.000012</ele>
        <time>2020-08-28T18:59:24.578Z</time>
      </trkpt>
      <trkpt lat="63.95485" lon="20.628">
        <ele>50.000012</ele>
        <time>2020-08-28T18:59:29.691Z</time>
      </trkpt>
      <trkpt lat="63.95485" lon="20.62618">
        <ele>50.000012</ele>
        <time>2020-08-28T18:59:53.468Z</time>
      </trkpt>
      <trkpt lat="63.95484" lon="20.62554">
        <ele>50.000012</ele>
        <time>2020-08-28T19:00:01.867Z</time>
      </trkpt>
      <trkpt lat="63.95474" lon="20.62475">
        <ele>50.000012</ele>
        <time>2020-08-28T19:00:12.558Z</time>
      </trkpt>
      <trkpt lat="63.95395" lon="20.62266">
        <ele>50.000012</ele>
        <time>2020-08-28T19:00:48.677Z</time>
      </trkpt>
      <trkpt lat="63.95353" lon="20.62192">
        <ele>50.000012</ele>
        <time>2020-08-28T19:01:04.436Z</time>
      </trkpt>
      <trkpt lat="63.95337" lon="20.62175">
        <ele>50.004805</ele>
        <time>2020-08-28T19:01:09.580Z</time>
      </trkpt>
      <trkpt lat="63.95272" lon="20.62145">
        <ele>50.040167</ele>
        <time>2020-08-28T19:01:29.391Z</time>
      </trkpt>
      <trkpt lat="63.95241" lon="20.62088">
        <ele>50.061048</ele>
        <time>2020-08-28T19:01:41.098Z</time>
      </trkpt>
      <trkpt lat="63.95209" lon="20.6189">
        <ele>50.199098</ele>
        <time>2020-08-28T19:02:09.067Z</time>
      </trkpt>
      <trkpt lat="63.95202" lon="20.61753">
        <ele>50.421916</ele>
        <time>2020-08-28T19:02:27.533Z</time>
      </trkpt>
      <trkpt lat="63.95183" lon="20.61588">
        <ele>50.69887</ele>
        <time>2020-08-28T19:02:50.938Z</time>
      </trkpt>
      <trkpt lat="63.95179" lon="20.6139">
        <ele>51.186811</ele>
        <time>2020-08-28T19:03:18.708Z</time>
      </trkpt>
      <trkpt lat="63.95168" lon="20.61348">
        <ele>51.318413</ele>
        <time>2020-08-28T19:03:25.697Z</time>
      </trkpt>
      <trkpt lat="63.95062" lon="20.61178">
        <ele>51.831036</ele>
        <time>2020-08-28T19:04:06.734Z</time>
      </trkpt>
      <trkpt lat="63.95033" lon="20.61066">
        <ele>51.804861</ele>
        <time>2020-08-28T19:04:24.084Z</time>
      </trkpt>
      <trkpt lat="63.94967" lon="20.60951">
        <ele>51.738042</ele>
        <time>2020-08-28T19:04:47.844Z</time>
      </trkpt>
      <trkpt lat="63.94914" lon="20.6079">
        <ele>50.689024</ele>
        <time>2020-08-28T19:05:11.668Z</time>
      </trkpt>
      <trkpt lat="63.94865" lon="20.60704">
        <ele>49.955095</ele>
        <time>2020-08-28T19:05:27.848Z</time>
      </trkpt>
      <trkpt lat="63.94803" lon="20.60498">
        <ele>48.356836</ele>
        <time>2020-08-28T19:05:56.195Z</time>
      </trkpt>
      <trkpt lat="63.94765" lon="20.60394">
        <ele>47.43671</ele>
        <time>2020-08-28T19:06:11.616Z</time>
      </trkpt>
      <trkpt lat="63.94743" lon="20.60349">
        <ele>46.97962</ele>
        <time>2020-08-28T19:06:19.306Z</time>
      </trkpt>
      <trkpt lat="63.94565" lon="20.60082">
        <ele>44.337092</ele>
        <time>2020-08-28T19:07:16.306Z</time>
      </trkpt>
      <trkpt lat="63.94507" lon="20.60017">
        <ele>43.610156</ele>
        <time>2020-08-28T19:07:33.752Z</time>
      </trkpt>
      <trkpt lat="63.94495" lon="20.59993">
        <ele>43.430083</ele>
        <time>2020-08-28T19:07:38.061Z</time>
      </trkpt>
      <trkpt lat="63.94478" lon="20.59896">
        <ele>42.913247</ele>
        <time>2020-08-28T19:07:50.422Z</time>
      </trkpt>
      <trkpt lat="63.94477" lon="20.59751">
        <ele>41.942148</ele>
        <time>2020-08-28T19:08:07.471Z</time>
      </trkpt>
      <trkpt lat="63.94462" lon="20.59593">
        <ele>40.63465</ele>
        <time>2020-08-28T19:08:26.192Z</time>
      </trkpt>
      <trkpt lat="63.94462" lon="20.59411">
        <ele>39.087096</ele>
        <time>2020-08-28T19:08:45.810Z</time>
      </trkpt>
      <trkpt lat="63.94448" lon="20.59271">
        <ele>37.132665</ele>
        <time>2020-08-28T19:09:00.983Z</time>
      </trkpt>
      <trkpt lat="63.94443" lon="20.59234">
        <ele>36.621384</ele>
        <time>2020-08-28T19:09:04.718Z</time>
      </trkpt>
      <trkpt lat="63.94441" lon="20.59169">
        <ele>35.737081</ele>
        <time>2020-08-28T19:09:11.543Z</time>
      </trkpt>
      <trkpt lat="63.9444" lon="20.59141">
        <ele>35.350697</ele>
        <time>2020-08-28T19:09:14.447Z</time>
      </trkpt>
      <trkpt lat="63.94448" lon="20.59024">
        <ele>33.759115</ele>
        <time>2020-08-28T19:09:26.926Z</time>
      </trkpt>
      <trkpt lat="63.94447" lon="20.58997">
        <ele>33.550951</ele>
        <time>2020-08-28T19:09:29.647Z</time>
      </trkpt>
      <trkpt lat="63.94442" lon="20.58972">
        <ele>33.355328</ele>
        <time>2020-08-28T19:09:31.347Z</time>
      </trkpt>
      <trkpt lat="63.94437" lon="20.58952">
        <ele>33.181707</ele>
        <time>2020-08-28T19:09:32.948Z</time>
      </trkpt>
      <trkpt lat="63.94432" lon="20.58935">
        <ele>33.04063</ele>
        <time>2020-08-28T19:09:34.088Z</time>
      </trkpt>
      <trkpt lat="63.94404" lon="20.58874">
        <ele>32.408249</ele>
        <time>2020-08-28T19:09:39.610Z</time>
      </trkpt>
      <trkpt lat="63.94372" lon="20.58848">
        <ele>31.851543</ele>
        <time>2020-08-28T19:09:44.864Z</time>
      </trkpt>
      <trkpt lat="63.94311" lon="20.58821">
        <ele>30.839383</ele>
        <time>2020-08-28T19:09:55.399Z</time>
      </trkpt>
      <trkpt lat="63.94283" lon="20.58785">
        <ele>31.138676</ele>
        <time>2020-08-28T19:10:01.595Z</time>
      </trkpt>
      <trkpt lat="63.9427" lon="20.58754">
        <ele>31.362632</ele>
        <time>2020-08-28T19:10:05.658Z</time>
      </trkpt>
      <trkpt lat="63.94236" lon="20.58642">
        <ele>32.045792</ele>
        <time>2020-08-28T19:10:18.883Z</time>
      </trkpt>
      <trkpt lat="63.94183" lon="20.58526">
        <ele>32.910854</ele>
        <time>2020-08-28T19:10:36.945Z</time>
      </trkpt>
      <trkpt lat="63.9417" lon="20.58386">
        <ele>34.178631</ele>
        <time>2020-08-28T19:10:53.222Z</time>
      </trkpt>
      <trkpt lat="63.94164" lon="20.58346">
        <ele>34.55571</ele>
        <time>2020-08-28T19:10:58.051Z</time>
      </trkpt>
      <trkpt lat="63.94154" lon="20.58316">
        <ele>34.897054</ele>
        <time>2020-08-28T19:11:02.461Z</time>
      </trkpt>
      <trkpt lat="63.94106" lon="20.58215">
        <ele>36.207699</ele>
        <time>2020-08-28T19:11:18.955Z</time>
      </trkpt>
      <trkpt lat="63.93999" lon="20.58038">
        <ele>37.325262</ele>
        <time>2020-08-28T19:11:48.613Z</time>
      </trkpt>
      <trkpt lat="63.93948" lon="20.57928">
        <ele>37.665166</ele>
        <time>2020-08-28T19:12:01.369Z</time>
      </trkpt>
      <trkpt lat="63.9394" lon="20.57888">
        <ele>37.448817</ele>
        <time>2020-08-28T19:12:04.623Z</time>
      </trkpt>
      <trkpt lat="63.93915" lon="20.57678">
        <ele>36.369349</ele>
        <time>2020-08-28T19:12:19.952Z</time>
      </trkpt>
      <trkpt lat="63.93902" lon="20.57629">
        <ele>36.082762</ele>
        <time>2020-08-28T19:12:23.856Z</time>
      </trkpt>
      <trkpt lat="63.93883" lon="20.57598">
        <ele>35.819026</ele>
        <time>2020-08-28T19:12:27.293Z</time>
      </trkpt>
      <trkpt lat="63.93767" lon="20.57503">
        <ele>33.75502</ele>
        <time>2020-08-28T19:12:45.641Z</time>
      </trkpt>
      <trkpt lat="63.93742" lon="20.57497">
        <ele>33.322772</ele>
        <time>2020-08-28T19:12:49.431Z</time>
      </trkpt>
      <trkpt lat="63.93723" lon="20.57497">
        <ele>32.996258</ele>
        <time>2020-08-28T19:12:52.359Z</time>
      </trkpt>
      <trkpt lat="63.93553" lon="20.57533">
        <ele>30.897576</ele>
        <time>2020-08-28T19:13:19.619Z</time>
      </trkpt>
      <trkpt lat="63.93302" lon="20.575">
        <ele>28.290948</ele>
        <time>2020-08-28T19:14:00.716Z</time>
      </trkpt>
      <trkpt lat="63.93265" lon="20.57512">
        <ele>27.789454</ele>
        <time>2020-08-28T19:14:06.525Z</time>
      </trkpt>
      <trkpt lat="63.93178" lon="20.57573">
        <ele>26.557487</ele>
        <time>2020-08-28T19:14:20.567Z</time>
      </trkpt>
      <trkpt lat="63.93164" lon="20.57571">
        <ele>26.370025</ele>
        <time>2020-08-28T19:14:22.635Z</time>
      </trkpt>
      <trkpt lat="63.93085" lon="20.57514">
        <ele>25.161425</ele>
        <time>2020-08-28T19:14:35.376Z</time>
      </trkpt>
      <trkpt lat="63.93019" lon="20.57543">
        <ele>24.202743</ele>
        <time>2020-08-28T19:14:45.664Z</time>
      </trkpt>
      <trkpt lat="63.92993" lon="20.57535">
        <ele>23.820464</ele>
        <time>2020-08-28T19:14:49.858Z</time>
      </trkpt>
      <trkpt lat="63.92911" lon="20.57472">
        <ele>22.978835</ele>
        <time>2020-08-28T19:15:03.733Z</time>
      </trkpt>
      <trkpt lat="63.9286" lon="20.57394">
        <ele>22.378594</ele>
        <time>2020-08-28T19:15:13.836Z</time>
      </trkpt>
      <trkpt lat="63.92846" lon="20.57385">
        <ele>22.24045</ele>
        <time>2020-08-28T19:15:16.202Z</time>
      </trkpt>
      <trkpt lat="63.92836" lon="20.57384">
        <ele>22.14479</ele>
        <time>2020-08-28T19:15:17.810Z</time>
      </trkpt>
      <trkpt lat="63.9283" lon="20.57383">
        <ele>22.086217</ele>
        <time>2020-08-28T19:15:18.827Z</time>
      </trkpt>
      <trkpt lat="63.92819" lon="20.57387">
        <ele>22.014704</ele>
        <time>2020-08-28T19:15:20.748Z</time>
      </trkpt>
      <trkpt lat="63.92776" lon="20.57412">
        <ele>21.750573</ele>
        <time>2020-08-28T19:15:28.278Z</time>
      </trkpt>
      <trkpt lat="63.92759" lon="20.57414">
        <ele>21.653647</ele>
        <time>2020-08-28T19:15:31.049Z</time>
      </trkpt>
      <trkpt lat="63.92704" lon="20.57394">
        <ele>21.320836</ele>
        <time>2020-08-28T19:15:40.706Z</time>
      </trkpt>
      <trkpt lat="63.92659" lon="20.57404">
        <ele>21.058138</ele>
        <time>2020-08-28T19:15:48.419Z</time>
      </trkpt>
      <trkpt lat="63.92648" lon="20.57418">
        <ele>20.998213</ele>
        <time>2020-08-28T19:15:50.626Z</time>
      </trkpt>
      <trkpt lat="63.9261" lon="20.57498">
        <ele>20.837137</ele>
        <time>2020-08-28T19:15:59.873Z</time>
      </trkpt>
      <trkpt lat="63.92549" lon="20.57681">
        <ele>20.525031</ele>
        <time>2020-08-28T19:16:17.752Z</time>
      </trkpt>
      <trkpt lat="63.92536" lon="20.57704">
        <ele>20.473839</ele>
        <time>2020-08-28T19:16:20.766Z</time>
      </trkpt>
      <trkpt lat="63.92529" lon="20.57711">
        <ele>20.451642</ele>
        <time>2020-08-28T19:16:22.164Z</time>
      </trkpt>
      <trkpt lat="63.92516" lon="20.57715">
        <ele>20.423887</ele>
        <time>2020-08-28T19:16:24.325Z</time>
      </trkpt>
      <trkpt lat="63.92387" lon="20.57683">
        <ele>20.134523</ele>
        <time>2020-08-28T19:16:47.512Z</time>
      </trkpt>
      <trkpt lat="63.92248" lon="20.57714">
        <ele>19.975584</ele>
        <time>2020-08-28T19:17:12.943Z</time>
      </trkpt>
      <trkpt lat="63.92212" lon="20.57719">
        <ele>19.9471</ele>
        <time>2020-08-28T19:17:19.702Z</time>
      </trkpt>
      <trkpt lat="63.92161" lon="20.57731">
        <ele>19.89287</ele>
        <time>2020-08-28T19:17:29.276Z</time>
      </trkpt>
      <trkpt lat="63.9214" lon="20.57732">
        <ele>19.85385</ele>
        <time>2020-08-28T19:17:33.168Z</time>
      </trkpt>
      <trkpt lat="63.92134" lon="20.57732">
        <ele>19.843719</ele>
        <time>2020-08-28T19:17:34.179Z</time>
      </trkpt>
      <trkpt lat="63.92111" lon="20.57724">
        <ele>19.79955</ele>
        <time>2020-08-28T19:17:38.604Z</time>
      </trkpt>
      <trkpt lat="63.92006" lon="20.57647">
        <ele>19.591624</ele>
        <time>2020-08-28T19:17:58.306Z</time>
      </trkpt>
      <trkpt lat="63.91974" lon="20.57611">
        <ele>19.38807</ele>
        <time>2020-08-28T19:18:04.436Z</time>
      </trkpt>
      <trkpt lat="63.91956" lon="20.5759">
        <ele>19.256638</ele>
        <time>2020-08-28T19:18:07.804Z</time>
      </trkpt>
      <trkpt lat="63.91873" lon="20.5749">
        <ele>18.64395</ele>
        <time>2020-08-28T19:18:23.513Z</time>
      </trkpt>
      <trkpt lat="63.91816" lon="20.57454">
        <ele>18.265735</ele>
        <time>2020-08-28T19:18:33.291Z</time>
      </trkpt>
      <trkpt lat="63.91702" lon="20.57438">
        <ele>17.571254</ele>
        <time>2020-08-28T19:18:52.604Z</time>
      </trkpt>
      <trkpt lat="63.91574" lon="20.57479">
        <ele>16.920847</ele>
        <time>2020-08-28T19:19:15.040Z</time>
      </trkpt>
      <trkpt lat="63.91391" lon="20.57398">
        <ele>16.250995</ele>
        <time>2020-08-28T19:19:47.583Z</time>
      </trkpt>
      <trkpt lat="63.91378" lon="20.57384">
        <ele>16.211441</ele>
        <time>2020-08-28T19:19:50.204Z</time>
      </trkpt>
      <trkpt lat="63.91374" lon="20.57376">
        <ele>16.196352</ele>
        <time>2020-08-28T19:19:51.159Z</time>
      </trkpt>
      <trkpt lat="63.91322" lon="20.57251">
        <ele>16.084543</ele>
        <time>2020-08-28T19:20:04.765Z</time>
      </trkpt>
      <trkpt lat="63.91234" lon="20.57108">
        <ele>16.910671</ele>
        <time>2020-08-28T19:20:25.784Z</time>
      </trkpt>
      <trkpt lat="63.91214" lon="20.5708">
        <ele>17.088986</ele>
        <time>2020-08-28T19:20:30.881Z</time>
      </trkpt>
      <trkpt lat="63.91175" lon="20.57055">
        <ele>17.419873</ele>
        <time>2020-08-28T19:20:40.644Z</time>
      </trkpt>
      <trkpt lat="63.91138" lon="20.57016">
        <ele>18.280989</ele>
        <time>2020-08-28T19:20:51.187Z</time>
      </trkpt>
      <trkpt lat="63.91092" lon="20.56953">
        <ele>19.420854</ele>
        <time>2020-08-28T19:21:06.968Z</time>
      </trkpt>
      <trkpt lat="63.91032" lon="20.56887">
        <ele>20.848169</ele>
        <time>2020-08-28T19:21:23.461Z</time>
      </trkpt>
      <trkpt lat="63.90959" lon="20.56794">
        <ele>20.978555</ele>
        <time>2020-08-28T19:21:40.423Z</time>
      </trkpt>
      <trkpt lat="63.90963" lon="20.56772">
        <ele>20.93775</ele>
        <time>2020-08-28T19:21:41.936Z</time>
      </trkpt>
      <trkpt lat="63.90967" lon="20.56749">
        <ele>20.897583</ele>
        <time>2020-08-28T19:21:44.058Z</time>
      </trkpt>
      <trkpt lat="63.90976" lon="20.56623">
        <ele>20.685769</ele>
        <time>2020-08-28T19:21:52.841Z</time>
      </trkpt>
      <trkpt lat="63.90979" lon="20.56573">
        <ele>20.601535</ele>
        <time>2020-08-28T19:21:56.194Z</time>
      </trkpt>
      <trkpt lat="63.90992" lon="20.56334">
        <ele>19.712447</ele>
        <time>2020-08-28T19:22:11.099Z</time>
      </trkpt>
      <trkpt lat="63.90988" lon="20.56293">
        <ele>19.544418</ele>
        <time>2020-08-28T19:22:13.890Z</time>
      </trkpt>
      <trkpt lat="63.90986" lon="20.56271">
        <ele>19.454724</ele>
        <time>2020-08-28T19:22:15.805Z</time>
      </trkpt>
      <trkpt lat="63.90977" lon="20.56182">
        <ele>19.090863</ele>
        <time>2020-08-28T19:22:23.027Z</time>
      </trkpt>
      <trkpt lat="63.90975" lon="20.56142">
        <ele>18.926858</ele>
        <time>2020-08-28T19:22:26.231Z</time>
      </trkpt>
      <trkpt lat="63.90973" lon="20.56113">
        <ele>18.984625</ele>
        <time>2020-08-28T19:22:29.162Z</time>
      </trkpt>
      <trkpt lat="63.90956" lon="20.56025">
        <ele>19.293832</ele>
        <time>2020-08-28T19:22:37.727Z</time>
      </trkpt>
      <trkpt lat="63.90939" lon="20.55977">
        <ele>19.492241</ele>
        <time>2020-08-28T19:22:43.314Z</time>
      </trkpt>
      <trkpt lat="63.90922" lon="20.55954">
        <ele>19.638258</ele>
        <time>2020-08-28T19:22:47.537Z</time>
      </trkpt>
      <trkpt lat="63.90888" lon="20.55937">
        <ele>19.892099</ele>
        <time>2020-08-28T19:22:54.856Z</time>
      </trkpt>
      <trkpt lat="63.90843" lon="20.55919">
        <ele>20.228085</ele>
        <time>2020-08-28T19:23:04.316Z</time>
      </trkpt>
      <trkpt lat="63.90827" lon="20.55911">
        <ele>20.231629</ele>
        <time>2020-08-28T19:23:07.373Z</time>
      </trkpt>
      <trkpt lat="63.90757" lon="20.55864">
        <ele>20.247348</ele>
        <time>2020-08-28T19:23:20.819Z</time>
      </trkpt>
      <trkpt lat="63.90695" lon="20.55821">
        <ele>20.261317</ele>
        <time>2020-08-28T19:23:32.138Z</time>
      </trkpt>
      <trkpt lat="63.90679" lon="20.55812">
        <ele>20.264954</ele>
        <time>2020-08-28T19:23:34.947Z</time>
      </trkpt>
      <trkpt lat="63.90634" lon="20.55799">
        <ele>19.863983</ele>
        <time>2020-08-28T19:23:42.273Z</time>
      </trkpt>
      <trkpt lat="63.90585" lon="20.55798">
        <ele>19.324174</ele>
        <time>2020-08-28T19:23:49.893Z</time>
      </trkpt>
      <trkpt lat="63.90527" lon="20.55799">
        <ele>18.686329</ele>
        <time>2020-08-28T19:23:58.555Z</time>
      </trkpt>
      <trkpt lat="63.90508" lon="20.55801">
        <ele>18.47794</ele>
        <time>2020-08-28T19:24:01.270Z</time>
      </trkpt>
      <trkpt lat="63.90487" lon="20.55799">
        <ele>18.231288</ele>
        <time>2020-08-28T19:24:04.374Z</time>
      </trkpt>
      <trkpt lat="63.90449" lon="20.55797">
        <ele>17.645455</ele>
        <time>2020-08-28T19:24:09.936Z</time>
      </trkpt>
      <trkpt lat="63.9043" lon="20.55789">
        <ele>17.341689</ele>
        <time>2020-08-28T19:24:12.730Z</time>
      </trkpt>
      <trkpt lat="63.90415" lon="20.5578">
        <ele>17.116753</ele>
        <time>2020-08-28T19:24:14.957Z</time>
      </trkpt>
      <trkpt lat="63.90389" lon="20.55762">
        <ele>16.69198</ele>
        <time>2020-08-28T19:24:18.976Z</time>
      </trkpt>
      <trkpt lat="63.90376" lon="20.55753">
        <ele>16.48577</ele>
        <time>2020-08-28T19:24:20.975Z</time>
      </trkpt>
      <trkpt lat="63.90367" lon="20.55747">
        <ele>16.344557</ele>
        <time>2020-08-28T19:24:22.286Z</time>
      </trkpt>
      <trkpt lat="63.9031" lon="20.55734">
        <ele>15.470376</ele>
        <time>2020-08-28T19:24:30.961Z</time>
      </trkpt>
      <trkpt lat="63.90296" lon="20.55736">
        <ele>15.279169</ele>
        <time>2020-08-28T19:24:32.886Z</time>
      </trkpt>
      <trkpt lat="63.90249" lon="20.55749">
        <ele>14.620153</ele>
        <time>2020-08-28T19:24:39.935Z</time>
      </trkpt>
      <trkpt lat="63.90231" lon="20.55753">
        <ele>14.364028</ele>
        <time>2020-08-28T19:24:42.752Z</time>
      </trkpt>
      <trkpt lat="63.90209" lon="20.55758">
        <ele>14.061365</ele>
        <time>2020-08-28T19:24:45.958Z</time>
      </trkpt>
      <trkpt lat="63.90193" lon="20.55762">
        <ele>13.824758</ele>
        <time>2020-08-28T19:24:48.574Z</time>
      </trkpt>
      <trkpt lat="63.90193" lon="20.5575">
        <ele>13.747561</ele>
        <time>2020-08-28T19:24:49.296Z</time>
      </trkpt>
      <trkpt lat="63.90184" lon="20.55734">
        <ele>13.598756</ele>
        <time>2020-08-28T19:24:50.903Z</time>
      </trkpt>
      <trkpt lat="63.90181" lon="20.55699">
        <ele>13.381185</ele>
        <time>2020-08-28T19:24:53.305Z</time>
      </trkpt>
      <trkpt lat="63.9018" lon="20.55611">
        <ele>12.846474</ele>
        <time>2020-08-28T19:24:59.093Z</time>
      </trkpt>
      <trkpt lat="63.90176" lon="20.5561">
        <ele>12.789041</ele>
        <time>2020-08-28T19:24:59.668Z</time>
      </trkpt>
      <trkpt lat="63.90175" lon="20.55537">
        <ele>12.359985</ele>
        <time>2020-08-28T19:25:04.492Z</time>
      </trkpt>
      <trkpt lat="63.90174" lon="20.55455">
        <ele>11.878068</ele>
        <time>2020-08-28T19:25:09.780Z</time>
      </trkpt>
      <trkpt lat="63.90174" lon="20.55424">
        <ele>11.694355</ele>
        <time>2020-08-28T19:25:11.682Z</time>
      </trkpt>
      <trkpt lat="63.90173" lon="20.554">
        <ele>11.552032</ele>
        <time>2020-08-28T19:25:13.283Z</time>
      </trkpt>
      <trkpt lat="63.90161" lon="20.55324">
        <ele>11.079607</ele>
        <time>2020-08-28T19:25:18.612Z</time>
      </trkpt>
      <trkpt lat="63.90137" lon="20.55245">
        <ele>10.598628</ele>
        <time>2020-08-28T19:25:25.206Z</time>
      </trkpt>
      <trkpt lat="63.90124" lon="20.55214">
        <ele>10.537992</ele>
        <time>2020-08-28T19:25:28.222Z</time>
      </trkpt>
      <trkpt lat="63.90107" lon="20.55179">
        <ele>10.465419</ele>
        <time>2020-08-28T19:25:32.023Z</time>
      </trkpt>
      <trkpt lat="63.90093" lon="20.55148">
        <ele>10.403452</ele>
        <time>2020-08-28T19:25:35.217Z</time>
      </trkpt>
      <trkpt lat="63.90081" lon="20.55122">
        <ele>10.349703</ele>
        <time>2020-08-28T19:25:38.174Z</time>
      </trkpt>
      <trkpt lat="63.90065" lon="20.55085">
        <ele>10.277183</ele>
        <time>2020-08-28T19:25:42.197Z</time>
      </trkpt>
      <trkpt lat="63.90057" lon="20.55103">
        <ele>10.240786</ele>
        <time>2020-08-28T19:25:44.228Z</time>
      </trkpt>
      <trkpt lat="63.90043" lon="20.55115">
        <ele>10.193441</ele>
        <time>2020-08-28T19:25:46.853Z</time>
      </trkpt>
      <trkpt lat="63.90026" lon="20.55113">
        <ele>10.139284</ele>
        <time>2020-08-28T19:25:49.890Z</time>
      </trkpt>
      <trkpt lat="63.89977" lon="20.55102">
        <ele>10.056923</ele>
        <time>2020-08-28T19:25:58.616Z</time>
      </trkpt>
      <trkpt lat="63.89952" lon="20.5509">
        <ele>10.062594</ele>
        <time>2020-08-28T19:26:03.198Z</time>
      </trkpt>
      <trkpt lat="63.89883" lon="20.5503">
        <ele>10.079217</ele>
        <time>2020-08-28T19:26:16.542Z</time>
      </trkpt>
      <trkpt lat="63.89779" lon="20.54871">
        <ele>10.182167</ele>
        <time>2020-08-28T19:26:38.811Z</time>
      </trkpt>
      <trkpt lat="63.89776" lon="20.54863">
        <ele>10.188055</ele>
        <time>2020-08-28T19:26:39.552Z</time>
      </trkpt>
      <trkpt lat="63.89761" lon="20.54817">
        <ele>10.222369</ele>
        <time>2020-08-28T19:26:44.111Z</time>
      </trkpt>
      <trkpt lat="63.89751" lon="20.54783">
        <ele>10.246779</ele>
        <time>2020-08-28T19:26:47.328Z</time>
      </trkpt>
      <trkpt lat="63.89692" lon="20.54576">
        <ele>10.729412</ele>
        <time>2020-08-28T19:27:08.012Z</time>
      </trkpt>
      <trkpt lat="63.89658" lon="20.54444">
        <ele>11.349739</ele>
        <time>2020-08-28T19:27:21.688Z</time>
      </trkpt>
      <trkpt lat="63.89652" lon="20.54417">
        <ele>11.471931</ele>
        <time>2020-08-28T19:27:24.720Z</time>
      </trkpt>
      <trkpt lat="63.89637" lon="20.54339">
        <ele>11.817001</ele>
        <time>2020-08-28T19:27:33.008Z</time>
      </trkpt>
      <trkpt lat="63.89603" lon="20.54362">
        <ele>12.1703</ele>
        <time>2020-08-28T19:27:40.755Z</time>
      </trkpt>
      <trkpt lat="63.89548" lon="20.54384">
        <ele>12.810281</ele>
        <time>2020-08-28T19:27:53.353Z</time>
      </trkpt>
      <trkpt lat="63.89532" lon="20.54385">
        <ele>12.998118</ele>
        <time>2020-08-28T19:27:57.193Z</time>
      </trkpt>
      <trkpt lat="63.89509" lon="20.5438">
        <ele>13.256507</ele>
        <time>2020-08-28T19:28:02.197Z</time>
      </trkpt>
      <trkpt lat="63.89404" lon="20.54329">
        <ele>14.052428</ele>
        <time>2020-08-28T19:28:24.131Z</time>
      </trkpt>
      <trkpt lat="63.89168" lon="20.54137">
        <ele>13.640783</ele>
        <time>2020-08-28T19:29:07.215Z</time>
      </trkpt>
      <trkpt lat="63.89155" lon="20.54128">
        <ele>13.582637</ele>
        <time>2020-08-28T19:29:09.283Z</time>
      </trkpt>
      <trkpt lat="63.89088" lon="20.54079">
        <ele>13.243523</ele>
        <time>2020-08-28T19:29:20.551Z</time>
      </trkpt>
      <trkpt lat="63.88919" lon="20.53958">
        <ele>12.07707</ele>
        <time>2020-08-28T19:29:48.978Z</time>
      </trkpt>
      <trkpt lat="63.88744" lon="20.53892">
        <ele>11.343423</ele>
        <time>2020-08-28T19:30:18.607Z</time>
      </trkpt>
      <trkpt lat="63.88576" lon="20.5375">
        <ele>10.88331</ele>
        <time>2020-08-28T19:30:49.587Z</time>
      </trkpt>
      <trkpt lat="63.88529" lon="20.53732">
        <ele>10.744075</ele>
        <time>2020-08-28T19:30:57.709Z</time>
      </trkpt>
      <trkpt lat="63.88518" lon="20.53729">
        <ele>10.712244</ele>
        <time>2020-08-28T19:30:59.543Z</time>
      </trkpt>
      <trkpt lat="63.88489" lon="20.53723">
        <ele>10.627536</ele>
        <time>2020-08-28T19:31:04.457Z</time>
      </trkpt>
      <trkpt lat="63.8846" lon="20.53717">
        <ele>10.542699</ele>
        <time>2020-08-28T19:31:09.535Z</time>
      </trkpt>
      <trkpt lat="63.88455" lon="20.53705">
        <ele>10.522569</ele>
        <time>2020-08-28T19:31:10.603Z</time>
      </trkpt>
      <trkpt lat="63.8845" lon="20.53686">
        <ele>10.495441</ele>
        <time>2020-08-28T19:31:12.273Z</time>
      </trkpt>
      <trkpt lat="63.88447" lon="20.53669">
        <ele>10.469941</ele>
        <time>2020-08-28T19:31:13.843Z</time>
      </trkpt>
      <trkpt lat="63.88425" lon="20.53698">
        <ele>10.397584</ele>
        <time>2020-08-28T19:31:17.977Z</time>
      </trkpt>
      <trkpt lat="63.88369" lon="20.53727">
        <ele>10.284681</ele>
        <time>2020-08-28T19:31:27.746Z</time>
      </trkpt>
      <trkpt lat="63.88221" lon="20.53716">
        <ele>10.045338</ele>
        <time>2020-08-28T19:31:53.575Z</time>
      </trkpt>
      <trkpt lat="63.88164" lon="20.53738">
        <ele>10.041651</ele>
        <time>2020-08-28T19:32:03.719Z</time>
      </trkpt>
      <trkpt lat="63.88123" lon="20.53781">
        <ele>10.038706</ele>
        <time>2020-08-28T19:32:11.876Z</time>
      </trkpt>
      <trkpt lat="63.88084" lon="20.53857">
        <ele>10.035403</ele>
        <time>2020-08-28T19:32:21.114Z</time>
      </trkpt>
      <trkpt lat="63.88034" lon="20.53935">
        <ele>10.085593</ele>
        <time>2020-08-28T19:32:32.109Z</time>
      </trkpt>
      <trkpt lat="63.87994" lon="20.53967">
        <ele>10.122362</ele>
        <time>2020-08-28T19:32:39.692Z</time>
      </trkpt>
      <trkpt lat="63.87963" lon="20.53977">
        <ele>10.150401</ele>
        <time>2020-08-28T19:32:45.498Z</time>
      </trkpt>
      <trkpt lat="63.87676" lon="20.53967">
        <ele>10.478505</ele>
        <time>2020-08-28T19:33:38.118Z</time>
      </trkpt>
      <trkpt lat="63.8751" lon="20.53988">
        <ele>10.391868</ele>
        <time>2020-08-28T19:34:07.200Z</time>
      </trkpt>
      <trkpt lat="63.87499" lon="20.5399">
        <ele>10.376578</ele>
        <time>2020-08-28T19:34:09.090Z</time>
      </trkpt>
      <trkpt lat="63.87417" lon="20.54">
        <ele>10.264492</ele>
        <time>2020-08-28T19:34:23.343Z</time>
      </trkpt>
      <trkpt lat="63.86849" lon="20.54077">
        <ele>10.106481</ele>
        <time>2020-08-28T19:36:04.204Z</time>
      </trkpt>
      <trkpt lat="63.86763" lon="20.54105">
        <ele>10.210824</ele>
        <time>2020-08-28T19:36:20.004Z</time>
      </trkpt>
      <trkpt lat="63.8661" lon="20.54191">
        <ele>10.489777</ele>
        <time>2020-08-28T19:36:49.221Z</time>
      </trkpt>
      <trkpt lat="63.86594" lon="20.542">
        <ele>10.529374</ele>
        <time>2020-08-28T19:36:52.255Z</time>
      </trkpt>
      <trkpt lat="63.86498" lon="20.54255">
        <ele>10.772044</ele>
        <time>2020-08-28T19:37:10.703Z</time>
      </trkpt>
      <trkpt lat="63.86288" lon="20.54381">
        <ele>11.068499</ele>
        <time>2020-08-28T19:37:50.861Z</time>
      </trkpt>
      <trkpt lat="63.86277" lon="20.54386">
        <ele>11.047846</ele>
        <time>2020-08-28T19:37:52.775Z</time>
      </trkpt>
      <trkpt lat="63.86264" lon="20.54392">
        <ele>11.023196</ele>
        <time>2020-08-28T19:37:55.142Z</time>
      </trkpt>
      <trkpt lat="63.86241" lon="20.54395">
        <ele>10.980084</ele>
        <time>2020-08-28T19:37:59.108Z</time>
      </trkpt>
      <trkpt lat="63.86202" lon="20.54392">
        <ele>10.907399</ele>
        <time>2020-08-28T19:38:05.841Z</time>
      </trkpt>
      <trkpt lat="63.86103" lon="20.5437">
        <ele>10.661535</ele>
        <time>2020-08-28T19:38:22.732Z</time>
      </trkpt>
      <trkpt lat="63.86035" lon="20.54354">
        <ele>10.402963</ele>
        <time>2020-08-28T19:38:34.021Z</time>
      </trkpt>
      <trkpt lat="63.85944" lon="20.54336">
        <ele>10.076664</ele>
        <time>2020-08-28T19:38:49.165Z</time>
      </trkpt>
      <trkpt lat="63.85874" lon="20.5432">
        <ele>9.933951</ele>
        <time>2020-08-28T19:39:01.223Z</time>
      </trkpt>
      <trkpt lat="63.85801" lon="20.54277">
        <ele>9.780305</ele>
        <time>2020-08-28T19:39:14.350Z</time>
      </trkpt>
      <trkpt lat="63.85689" lon="20.54158">
        <ele>9.671828</ele>
        <time>2020-08-28T19:39:36.166Z</time>
      </trkpt>
      <trkpt lat="63.85603" lon="20.54034">
        <ele>9.597392</ele>
        <time>2020-08-28T19:39:54.088Z</time>
      </trkpt>
      <trkpt lat="63.85496" lon="20.53876">
        <ele>9.44112</ele>
        <time>2020-08-28T19:40:16.568Z</time>
      </trkpt>
      <trkpt lat="63.85398" lon="20.53734">
        <ele>9.266069</ele>
        <time>2020-08-28T19:40:36.577Z</time>
      </trkpt>
      <trkpt lat="63.85326" lon="20.53628">
        <ele>9.128913</ele>
        <time>2020-08-28T19:40:51.404Z</time>
      </trkpt>
      <trkpt lat="63.853" lon="20.53589">
        <ele>9.103318</ele>
        <time>2020-08-28T19:40:57.005Z</time>
      </trkpt>
      <trkpt lat="63.85137" lon="20.53347">
        <ele>9.020974</ele>
        <time>2020-08-28T19:41:31.465Z</time>
      </trkpt>
      <trkpt lat="63.85102" lon="20.53281">
        <ele>9.017998</ele>
        <time>2020-08-28T19:41:39.616Z</time>
      </trkpt>
      <trkpt lat="63.84838" lon="20.52692">
        <ele>9.109687</ele>
        <time>2020-08-28T19:42:45.661Z</time>
      </trkpt>
      <trkpt lat="63.84742" lon="20.52473">
        <ele>9.577875</ele>
        <time>2020-08-28T19:43:11.082Z</time>
      </trkpt>
      <trkpt lat="63.84738" lon="20.52466">
        <ele>9.609823</ele>
        <time>2020-08-28T19:43:11.929Z</time>
      </trkpt>
      <trkpt lat="63.84637" lon="20.52237">
        <ele>10.763063</ele>
        <time>2020-08-28T19:43:41.348Z</time>
      </trkpt>
      <trkpt lat="63.8456" lon="20.52063">
        <ele>12.232733</ele>
        <time>2020-08-28T19:44:05.780Z</time>
      </trkpt>
      <trkpt lat="63.84518" lon="20.51944">
        <ele>13.072077</ele>
        <time>2020-08-28T19:44:21.043Z</time>
      </trkpt>
      <trkpt lat="63.84497" lon="20.5186">
        <ele>13.430774</ele>
        <time>2020-08-28T19:44:30.639Z</time>
      </trkpt>
      <trkpt lat="63.84447" lon="20.51573">
        <ele>14.41658</ele>
        <time>2020-08-28T19:44:57.793Z</time>
      </trkpt>
      <trkpt lat="63.84405" lon="20.51364">
        <ele>14.123994</ele>
        <time>2020-08-28T19:45:15.050Z</time>
      </trkpt>
      <trkpt lat="63.84099" lon="20.50195">
        <ele>10.060027</ele>
        <time>2020-08-28T19:46:51.362Z</time>
      </trkpt>
      <trkpt lat="63.84051" lon="20.5001">
        <ele>8.766971</ele>
        <time>2020-08-28T19:47:05.607Z</time>
      </trkpt>
      <trkpt lat="63.84" lon="20.49811">
        <ele>7.320825</ele>
        <time>2020-08-28T19:47:20.330Z</time>
      </trkpt>
      <trkpt lat="63.83898" lon="20.49424">
        <ele>4.490275</ele>
        <time>2020-08-28T19:47:49.219Z</time>
      </trkpt>
      <trkpt lat="63.83874" lon="20.49315">
        <ele>4.175538</ele>
        <time>2020-08-28T19:47:57.861Z</time>
      </trkpt>
      <trkpt lat="63.83858" lon="20.49223">
        <ele>3.922698</ele>
        <time>2020-08-28T19:48:05.150Z</time>
      </trkpt>
      <trkpt lat="63.83839" lon="20.49043">
        <ele>3.671483</ele>
        <time>2020-08-28T19:48:20.018Z</time>
      </trkpt>
      <trkpt lat="63.83823" lon="20.48863">
        <ele>3.837045</ele>
        <time>2020-08-28T19:48:35.309Z</time>
      </trkpt>
      <trkpt lat="63.83819" lon="20.48833">
        <ele>3.866064</ele>
        <time>2020-08-28T19:48:38.017Z</time>
      </trkpt>
      <trkpt lat="63.83768" lon="20.48544">
        <ele>3.98519</ele>
        <time>2020-08-28T19:49:02.950Z</time>
      </trkpt>
      <trkpt lat="63.83759" lon="20.48494">
        <ele>3.98623</ele>
        <time>2020-08-28T19:49:06.992Z</time>
      </trkpt>
      <trkpt lat="63.83742" lon="20.48407">
        <ele>3.988085</ele>
        <time>2020-08-28T19:49:14.214Z</time>
      </trkpt>
      <trkpt lat="63.83732" lon="20.4835">
        <ele>3.989261</ele>
        <time>2020-08-28T19:49:18.928Z</time>
      </trkpt>
      <trkpt lat="63.83711" lon="20.48228">
        <ele>4.508931</ele>
        <time>2020-08-28T19:49:29.643Z</time>
      </trkpt>
      <trkpt lat="63.83696" lon="20.4814">
        <ele>4.930446</ele>
        <time>2020-08-28T19:49:38.064Z</time>
      </trkpt>
      <trkpt lat="63.83687" lon="20.48097">
        <ele>5.139906</ele>
        <time>2020-08-28T19:49:42.607Z</time>
      </trkpt>
      <trkpt lat="63.83681" lon="20.4807">
        <ele>5.278246</ele>
        <time>2020-08-28T19:49:45.568Z</time>
      </trkpt>
      <trkpt lat="63.83675" lon="20.4805">
        <ele>5.38412</ele>
        <time>2020-08-28T19:49:48.027Z</time>
      </trkpt>
      <trkpt lat="63.83664" lon="20.47995">
        <ele>5.654802</ele>
        <time>2020-08-28T19:49:54.142Z</time>
      </trkpt>
      <trkpt lat="63.83639" lon="20.47868">
        <ele>7.029289</ele>
        <time>2020-08-28T19:50:09.480Z</time>
      </trkpt>
      <trkpt lat="63.83613" lon="20.47756">
        <ele>8.502501</ele>
        <time>2020-08-28T19:50:24.744Z</time>
      </trkpt>
      <trkpt lat="63.83572" lon="20.47611">
        <ele>10.493936</ele>
        <time>2020-08-28T19:50:45.383Z</time>
      </trkpt>
      <trkpt lat="63.83559" lon="20.47564">
        <ele>11.00432</ele>
        <time>2020-08-28T19:50:52.065Z</time>
      </trkpt>
      <trkpt lat="63.83533" lon="20.47479">
        <ele>11.91193</ele>
        <time>2020-08-28T19:51:03.924Z</time>
      </trkpt>
      <trkpt lat="63.83445" lon="20.47214">
        <ele>14.381591</ele>
        <time>2020-08-28T19:51:37.574Z</time>
      </trkpt>
      <trkpt lat="63.83436" lon="20.47191">
        <ele>14.474793</ele>
        <time>2020-08-28T19:51:40.196Z</time>
      </trkpt>
      <trkpt lat="63.83335" lon="20.46904">
        <ele>15.561721</ele>
        <time>2020-08-28T19:52:11.261Z</time>
      </trkpt>
      <trkpt lat="63.83249" lon="20.46688">
        <ele>16.255619</ele>
        <time>2020-08-28T19:52:36.159Z</time>
      </trkpt>
      <trkpt lat="63.83103" lon="20.46354">
        <ele>18.213008</ele>
        <time>2020-08-28T19:53:19.290Z</time>
      </trkpt>
      <trkpt lat="63.82944" lon="20.46104">
        <ele>21.274916</ele>
        <time>2020-08-28T19:54:02.494Z</time>
      </trkpt>
      <trkpt lat="63.82837" lon="20.45969">
        <ele>24.784476</ele>
        <time>2020-08-28T19:54:35.348Z</time>
      </trkpt>
      <trkpt lat="63.82771" lon="20.45906">
        <ele>27.25063</ele>
        <time>2020-08-28T19:54:57.407Z</time>
      </trkpt>
      <trkpt lat="63.82749" lon="20.45884">
        <ele>28.213135</ele>
        <time>2020-08-28T19:55:05.085Z</time>
      </trkpt>
      <trkpt lat="63.82749" lon="20.45884">
        <ele>28.213135</ele>
        <time>2020-08-28T19:55:05.131Z</time>
      </trkpt>
      <trkpt lat="63.82737" lon="20.45872">
        <ele>28.75194</ele>
        <time>2020-08-28T19:55:09.024Z</time>
      </trkpt>
      <trkpt lat="63.82583" lon="20.45714">
        <ele>34.838801</ele>
        <time>2020-08-28T19:56:01.899Z</time>
      </trkpt>
      <trkpt lat="63.82525" lon="20.45652">
        <ele>36.54649</ele>
        <time>2020-08-28T19:56:18.630Z</time>
      </trkpt>
      <trkpt lat="63.82354" lon="20.45453">
        <ele>39.439039</ele>
        <time>2020-08-28T19:57:00.179Z</time>
      </trkpt>
      <trkpt lat="63.82334" lon="20.45424">
        <ele>39.687546</ele>
        <time>2020-08-28T19:57:04.908Z</time>
      </trkpt>
      <trkpt lat="63.82157" lon="20.4517">
        <ele>40.437908</ele>
        <time>2020-08-28T19:57:44.884Z</time>
      </trkpt>
      <trkpt lat="63.82035" lon="20.4494">
        <ele>39.374109</ele>
        <time>2020-08-28T19:58:11.064Z</time>
      </trkpt>
      <trkpt lat="63.81965" lon="20.44781">
        <ele>36.380243</ele>
        <time>2020-08-28T19:58:24.622Z</time>
      </trkpt>
      <trkpt lat="63.81839" lon="20.44445">
        <ele>28.807775</ele>
        <time>2020-08-28T19:58:48.595Z</time>
      </trkpt>
      <trkpt lat="63.81758" lon="20.44145">
        <ele>22.652802</ele>
        <time>2020-08-28T19:59:07.984Z</time>
      </trkpt>
      <trkpt lat="63.81721" lon="20.43974">
        <ele>19.740588</ele>
        <time>2020-08-28T19:59:19.020Z</time>
      </trkpt>
      <trkpt lat="63.81694" lon="20.43831">
        <ele>18.149632</ele>
        <time>2020-08-28T19:59:28.461Z</time>
      </trkpt>
      <trkpt lat="63.81637" lon="20.43427">
        <ele>14.815849</ele>
        <time>2020-08-28T19:59:55.679Z</time>
      </trkpt>
      <trkpt lat="63.81629" lon="20.43352">
        <ele>14.321908</ele>
        <time>2020-08-28T20:00:00.670Z</time>
      </trkpt>
      <trkpt lat="63.81622" lon="20.43294">
        <ele>13.935156</ele>
        <time>2020-08-28T20:00:04.579Z</time>
      </trkpt>
      <trkpt lat="63.81605" lon="20.4311">
        <ele>12.83367</ele>
        <time>2020-08-28T20:00:16.966Z</time>
      </trkpt>
      <trkpt lat="63.81589" lon="20.42769">
        <ele>11.436366</ele>
        <time>2020-08-28T20:00:40.555Z</time>
      </trkpt>
      <trkpt lat="63.81584" lon="20.42637">
        <ele>11.496766</ele>
        <time>2020-08-28T20:00:50.714Z</time>
      </trkpt>
      <trkpt lat="63.81584" lon="20.42503">
        <ele>11.638889</ele>
        <time>2020-08-28T20:01:02.117Z</time>
      </trkpt>
      <trkpt lat="63.81584" lon="20.42348">
        <ele>11.802919</ele>
        <time>2020-08-28T20:01:15.545Z</time>
      </trkpt>
      <trkpt lat="63.81583" lon="20.42238">
        <ele>11.876927</ele>
        <time>2020-08-28T20:01:25.411Z</time>
      </trkpt>
      <trkpt lat="63.8154" lon="20.42221">
        <ele>11.943779</ele>
        <time>2020-08-28T20:01:33.847Z</time>
      </trkpt>
      <trkpt lat="63.81434" lon="20.42182">
        <ele>11.957419</ele>
        <time>2020-08-28T20:01:52.374Z</time>
      </trkpt>
      <trkpt lat="63.8141" lon="20.42171">
        <ele>11.803875</ele>
        <time>2020-08-28T20:01:56.275Z</time>
      </trkpt>
      <trkpt lat="63.81376" lon="20.42166">
        <ele>11.589079</ele>
        <time>2020-08-28T20:02:01.741Z</time>
      </trkpt>
      <trkpt lat="63.81347" lon="20.42173">
        <ele>11.40258</ele>
        <time>2020-08-28T20:02:06.438Z</time>
      </trkpt>
      <trkpt lat="63.81263" lon="20.42224">
        <ele>10.878382</ele>
        <time>2020-08-28T20:02:20.293Z</time>
      </trkpt>
      <trkpt lat="63.81217" lon="20.42232">
        <ele>10.67157</ele>
        <time>2020-08-28T20:02:27.796Z</time>
      </trkpt>
      <trkpt lat="63.81196" lon="20.42225">
        <ele>10.57878</ele>
        <time>2020-08-28T20:02:31.162Z</time>
      </trkpt>
      <trkpt lat="63.81187" lon="20.42219">
        <ele>10.534236</ele>
        <time>2020-08-28T20:02:32.830Z</time>
      </trkpt>
      <trkpt lat="63.81147" lon="20.42183">
        <ele>10.342863</ele>
        <time>2020-08-28T20:02:39.980Z</time>
      </trkpt>
      <trkpt lat="63.81101" lon="20.42097">
        <ele>10.123138</ele>
        <time>2020-08-28T20:02:50.248Z</time>
      </trkpt>
      <trkpt lat="63.81077" lon="20.42034">
        <ele>10.096008</ele>
        <time>2020-08-28T20:02:56.590Z</time>
      </trkpt>
      <trkpt lat="63.81061" lon="20.41964">
        <ele>10.070232</ele>
        <time>2020-08-28T20:03:02.789Z</time>
      </trkpt>
      <trkpt lat="63.81055" lon="20.41914">
        <ele>10.053474</ele>
        <time>2020-08-28T20:03:06.823Z</time>
      </trkpt>
      <trkpt lat="63.81052" lon="20.41875">
        <ele>10.040297</ele>
        <time>2020-08-28T20:03:09.994Z</time>
      </trkpt>
      <trkpt lat="63.81051" lon="20.41733">
        <ele>9.992229</ele>
        <time>2020-08-28T20:03:21.139Z</time>
      </trkpt>
      <trkpt lat="63.81057" lon="20.4144">
        <ele>9.868258</ele>
        <time>2020-08-28T20:03:44.176Z</time>
      </trkpt>
      <trkpt lat="63.81014" lon="20.41003">
        <ele>9.177055</ele>
        <time>2020-08-28T20:04:17.551Z</time>
      </trkpt>
      <trkpt lat="63.81009" lon="20.40938">
        <ele>9.037892</ele>
        <time>2020-08-28T20:04:22.400Z</time>
      </trkpt>
      <trkpt lat="63.81009" lon="20.40917">
        <ele>8.972089</ele>
        <time>2020-08-28T20:04:23.727Z</time>
      </trkpt>
      <trkpt lat="63.81014" lon="20.40846">
        <ele>8.73737</ele>
        <time>2020-08-28T20:04:28.872Z</time>
      </trkpt>
      <trkpt lat="63.81034" lon="20.40748">
        <ele>8.388939</ele>
        <time>2020-08-28T20:04:36.337Z</time>
      </trkpt>
      <trkpt lat="63.81055" lon="20.40693">
        <ele>8.154153</ele>
        <time>2020-08-28T20:04:41.342Z</time>
      </trkpt>
      <trkpt lat="63.81116" lon="20.40573">
        <ele>7.711652</ele>
        <time>2020-08-28T20:04:54.279Z</time>
      </trkpt>
      <trkpt lat="63.81175" lon="20.40478">
        <ele>7.594163</ele>
        <time>2020-08-28T20:05:06.529Z</time>
      </trkpt>
      <trkpt lat="63.81201" lon="20.40434">
        <ele>7.542939</ele>
        <time>2020-08-28T20:05:11.968Z</time>
      </trkpt>
      <trkpt lat="63.8122" lon="20.40397">
        <ele>7.502755</ele>
        <time>2020-08-28T20:05:16.403Z</time>
      </trkpt>
      <trkpt lat="63.81227" lon="20.40376">
        <ele>7.483001</ele>
        <time>2020-08-28T20:05:18.677Z</time>
      </trkpt>
      <trkpt lat="63.81238" lon="20.40315">
        <ele>7.864264</ele>
        <time>2020-08-28T20:05:24.221Z</time>
      </trkpt>
      <trkpt lat="63.81239" lon="20.40262">
        <ele>8.428618</ele>
        <time>2020-08-28T20:05:28.966Z</time>
      </trkpt>
      <trkpt lat="63.81238" lon="20.40233">
        <ele>8.739923</ele>
        <time>2020-08-28T20:05:31.902Z</time>
      </trkpt>
      <trkpt lat="63.81227" lon="20.40112">
        <ele>10.05546</ele>
        <time>2020-08-28T20:05:45.494Z</time>
      </trkpt>
      <trkpt lat="63.81211" lon="20.3994">
        <ele>12.02567</ele>
        <time>2020-08-28T20:06:08.531Z</time>
      </trkpt>
      <trkpt lat="63.81183" lon="20.39695">
        <ele>16.693364</ele>
        <time>2020-08-28T20:06:45.184Z</time>
      </trkpt>
      <trkpt lat="63.81131" lon="20.39288">
        <ele>23.117023</ele>
        <time>2020-08-28T20:07:41.027Z</time>
      </trkpt>
      <trkpt lat="63.81124" lon="20.3924">
        <ele>23.797169</ele>
        <time>2020-08-28T20:07:46.374Z</time>
      </trkpt>
      <trkpt lat="63.81118" lon="20.39181">
        <ele>24.608422</ele>
        <time>2020-08-28T20:07:52.506Z</time>
      </trkpt>
      <trkpt lat="63.81117" lon="20.39104">
        <ele>25.072816</ele>
        <time>2020-08-28T20:08:00.175Z</time>
      </trkpt>
      <trkpt lat="63.8112" lon="20.39064">
        <ele>25.241571</ele>
        <time>2020-08-28T20:08:04.259Z</time>
      </trkpt>
      <trkpt lat="63.81125" lon="20.39038">
        <ele>25.355567</ele>
        <time>2020-08-28T20:08:06.718Z</time>
      </trkpt>
      <trkpt lat="63.81142" lon="20.38987">
        <ele>25.622268</ele>
        <time>2020-08-28T20:08:12.770Z</time>
      </trkpt>
      <trkpt lat="63.81148" lon="20.38976">
        <ele>25.694913</ele>
        <time>2020-08-28T20:08:14.238Z</time>
      </trkpt>
      <trkpt lat="63.81119" lon="20.38863">
        <ele>26.235301</ele>
        <time>2020-08-28T20:08:26.145Z</time>
      </trkpt>
      <trkpt lat="63.81038" lon="20.38496">
        <ele>27.052941</ele>
        <time>2020-08-28T20:09:02.309Z</time>
      </trkpt>
      <trkpt lat="63.8102" lon="20.38392">
        <ele>27.116245</ele>
        <time>2020-08-28T20:09:11.720Z</time>
      </trkpt>
      <trkpt lat="63.81002" lon="20.38272">
        <ele>27.026547</ele>
        <time>2020-08-28T20:09:22.150Z</time>
      </trkpt>
      <trkpt lat="63.80997" lon="20.38238">
        <ele>27.001617</ele>
        <time>2020-08-28T20:09:25.017Z</time>
      </trkpt>
      <trkpt lat="63.80983" lon="20.38138">
        <ele>26.927468</ele>
        <time>2020-08-28T20:09:33.381Z</time>
      </trkpt>
      <trkpt lat="63.80952" lon="20.37932">
        <ele>26.497585</ele>
        <time>2020-08-28T20:09:49.862Z</time>
      </trkpt>
      <trkpt lat="63.80933" lon="20.37767">
        <ele>26.012337</ele>
        <time>2020-08-28T20:10:02.288Z</time>
      </trkpt>
      <trkpt lat="63.80924" lon="20.37675">
        <ele>25.742399</ele>
        <time>2020-08-28T20:10:09.269Z</time>
      </trkpt>
      <trkpt lat="63.80908" lon="20.37527">
        <ele>25.503352</ele>
        <time>2020-08-28T20:10:20.691Z</time>
      </trkpt>
      <trkpt lat="63.80856" lon="20.37108">
        <ele>25.315611</ele>
        <time>2020-08-28T20:10:55.642Z</time>
      </trkpt>
      <trkpt lat="63.80841" lon="20.37033">
        <ele>25.412155</ele>
        <time>2020-08-28T20:11:02.818Z</time>
      </trkpt>
      <trkpt lat="63.80812" lon="20.36947">
        <ele>25.54033</ele>
        <time>2020-08-28T20:11:12.346Z</time>
      </trkpt>
      <trkpt lat="63.80812" lon="20.36937">
        <ele>25.553079</ele>
        <time>2020-08-28T20:11:13.561Z</time>
      </trkpt>
      <trkpt lat="63.80806" lon="20.36932">
        <ele>25.567759</ele>
        <time>2020-08-28T20:11:14.608Z</time>
      </trkpt>
      <trkpt lat="63.80789" lon="20.36898">
        <ele>25.686935</ele>
        <time>2020-08-28T20:11:19.163Z</time>
      </trkpt>
      <trkpt lat="63.80777" lon="20.36908">
        <ele>25.788526</ele>
        <time>2020-08-28T20:11:22.004Z</time>
      </trkpt>
      <trkpt lat="63.80754" lon="20.36941">
        <ele>26.002855</ele>
        <time>2020-08-28T20:11:27.590Z</time>
      </trkpt>
      <trkpt lat="63.80742" lon="20.3691">
        <ele>26.14912</ele>
        <time>2020-08-28T20:11:31.647Z</time>
      </trkpt>
      <trkpt lat="63.80678" lon="20.36783">
        <ele>26.825927</ele>
        <time>2020-08-28T20:11:49.695Z</time>
      </trkpt>
      <trkpt lat="63.80646" lon="20.36746">
        <ele>27.064268</ele>
        <time>2020-08-28T20:11:57.304Z</time>
      </trkpt>
      <trkpt lat="63.80631" lon="20.36723">
        <ele>27.118941</ele>
        <time>2020-08-28T20:12:01.191Z</time>
      </trkpt>
      <trkpt lat="63.80611" lon="20.36696">
        <ele>27.193135</ele>
        <time>2020-08-28T20:12:06.270Z</time>
      </trkpt>
      <trkpt lat="63.80591" lon="20.36701">
        <ele>27.253382</ele>
        <time>2020-08-28T20:12:10.430Z</time>
      </trkpt>
      <trkpt lat="63.80576" lon="20.36693">
        <ele>27.302627</ele>
        <time>2020-08-28T20:12:13.765Z</time>
      </trkpt>
      <trkpt lat="63.80555" lon="20.36662">
        <ele>27.380904</ele>
        <time>2020-08-28T20:12:18.865Z</time>
      </trkpt>
      <trkpt lat="63.80442" lon="20.36575">
        <ele>27.288049</ele>
        <time>2020-08-28T20:12:39.468Z</time>
      </trkpt>
      <trkpt lat="63.80332" lon="20.36555">
        <ele>26.632424</ele>
        <time>2020-08-28T20:12:58.047Z</time>
      </trkpt>
      <trkpt lat="63.80292" lon="20.36554">
        <ele>26.585136</ele>
        <time>2020-08-28T20:13:04.747Z</time>
      </trkpt>
      <trkpt lat="63.80293" lon="20.36518">
        <ele>26.630095</ele>
        <time>2020-08-28T20:13:07.469Z</time>
      </trkpt>
      <trkpt lat="63.80292" lon="20.36481">
        <ele>26.677756</ele>
        <time>2020-08-28T20:13:10.519Z</time>
      </trkpt>
      <trkpt lat="63.80278" lon="20.3648">
        <ele>26.717956</ele>
        <time>2020-08-28T20:13:12.903Z</time>
      </trkpt>
      <trkpt lat="63.80278" lon="20.36446">
        <ele>26.760119</ele>
        <time>2020-08-28T20:13:15.948Z</time>
      </trkpt>
      <trkpt lat="63.80272" lon="20.36364">
        <ele>26.865679</ele>
        <time>2020-08-28T20:13:23.245Z</time>
      </trkpt>
      <trkpt lat="63.80239" lon="20.3616">
        <ele>27.413745</ele>
        <time>2020-08-28T20:13:44.184Z</time>
      </trkpt>
      <trkpt lat="63.80223" lon="20.36131">
        <ele>27.633909</ele>
        <time>2020-08-28T20:13:48.843Z</time>
      </trkpt>
      <trkpt lat="63.80135" lon="20.36093">
        <ele>28.591009</ele>
        <time>2020-08-28T20:14:08.253Z</time>
      </trkpt>
      <trkpt lat="63.80116" lon="20.36072">
        <ele>28.813373</ele>
        <time>2020-08-28T20:14:12.871Z</time>
      </trkpt>
      <trkpt lat="63.80105" lon="20.36038">
        <ele>29.063842</ele>
        <time>2020-08-28T20:14:17.263Z</time>
      </trkpt>
      <trkpt lat="63.80084" lon="20.35903">
        <ele>30.221561</ele>
        <time>2020-08-28T20:14:31.816Z</time>
      </trkpt>
      <trkpt lat="63.80082" lon="20.35889">
        <ele>30.338498</ele>
        <time>2020-08-28T20:14:33.419Z</time>
      </trkpt>
      <trkpt lat="63.80082" lon="20.35883">
        <ele>30.381355</ele>
        <time>2020-08-28T20:14:33.956Z</time>
      </trkpt>
      <trkpt lat="63.80082" lon="20.3577">
        <ele>31.299944</ele>
        <time>2020-08-28T20:14:46.174Z</time>
      </trkpt>
      <trkpt lat="63.80082" lon="20.35554">
        <ele>33.394116</ele>
        <time>2020-08-28T20:15:11.523Z</time>
      </trkpt>
      <trkpt lat="63.80082" lon="20.35351">
        <ele>35.738895</ele>
        <time>2020-08-28T20:15:36.178Z</time>
      </trkpt>
      <trkpt lat="63.80082" lon="20.35318">
        <ele>36.124671</ele>
        <time>2020-08-28T20:15:40.391Z</time>
      </trkpt>
      <trkpt lat="63.80081" lon="20.3525">
        <ele>36.914763</ele>
        <time>2020-08-28T20:15:48.384Z</time>
      </trkpt>
      <trkpt lat="63.80081" lon="20.35245">
        <ele>36.971366</ele>
        <time>2020-08-28T20:15:49.267Z</time>
      </trkpt>
      <trkpt lat="63.80081" lon="20.35175">
        <ele>37.533733</ele>
        <time>2020-08-28T20:15:57.254Z</time>
      </trkpt>
      <trkpt lat="63.80081" lon="20.35007">
        <ele>38.882126</ele>
        <time>2020-08-28T20:16:15.972Z</time>
      </trkpt>
      <trkpt lat="63.80081" lon="20.35">
        <ele>38.94327</ele>
        <time>2020-08-28T20:16:17.059Z</time>
      </trkpt>
      <trkpt lat="63.80081" lon="20.34893">
        <ele>39.798488</ele>
        <time>2020-08-28T20:16:27.886Z</time>
      </trkpt>
      <trkpt lat="63.80081" lon="20.34804">
        <ele>40.289031</ele>
        <time>2020-08-28T20:16:36.306Z</time>
      </trkpt>
      <trkpt lat="63.80081" lon="20.34666">
        <ele>40.453431</ele>
        <time>2020-08-28T20:16:48.571Z</time>
      </trkpt>
      <trkpt lat="63.80085" lon="20.3466">
        <ele>40.465456</ele>
        <time>2020-08-28T20:16:49.463Z</time>
      </trkpt>
      <trkpt lat="63.80104" lon="20.34655">
        <ele>40.517499</ele>
        <time>2020-08-28T20:16:53.130Z</time>
      </trkpt>
      <trkpt lat="63.80115" lon="20.34636">
        <ele>40.555037</ele>
        <time>2020-08-28T20:16:55.809Z</time>
      </trkpt>
      <trkpt lat="63.80122" lon="20.34555">
        <ele>40.653324</ele>
        <time>2020-08-28T20:17:02.445Z</time>
      </trkpt>
      <trkpt lat="63.80126" lon="20.34544">
        <ele>40.671299</ele>
        <time>2020-08-28T20:17:03.687Z</time>
      </trkpt>
      <trkpt lat="63.8013" lon="20.34536">
        <ele>40.685826</ele>
        <time>2020-08-28T20:17:04.672Z</time>
      </trkpt>
      <trkpt lat="63.80129" lon="20.34522">
        <ele>40.70368</ele>
        <time>2020-08-28T20:17:05.890Z</time>
      </trkpt>
      <trkpt lat="63.80133" lon="20.34454">
        <ele>40.68347</ele>
        <time>2020-08-28T20:17:11.777Z</time>
      </trkpt>
      <trkpt lat="63.80163" lon="20.34307">
        <ele>40.491486</ele>
        <time>2020-08-28T20:17:25.272Z</time>
      </trkpt>
      <trkpt lat="63.80166" lon="20.34292">
        <ele>40.472539</ele>
        <time>2020-08-28T20:17:26.558Z</time>
      </trkpt>
      <trkpt lat="63.80169" lon="20.3427">
        <ele>40.443996</ele>
        <time>2020-08-28T20:17:28.535Z</time>
      </trkpt>
      <trkpt lat="63.80181" lon="20.34133">
        <ele>40.277835</ele>
        <time>2020-08-28T20:17:40.293Z</time>
      </trkpt>
      <trkpt lat="63.80183" lon="20.341">
        <ele>40.244376</ele>
        <time>2020-08-28T20:17:43.044Z</time>
      </trkpt>
      <trkpt lat="63.80184" lon="20.34076">
        <ele>40.230642</ele>
        <time>2020-08-28T20:17:45.085Z</time>
      </trkpt>
      <trkpt lat="63.80186" lon="20.3399">
        <ele>40.18007</ele>
        <time>2020-08-28T20:17:52.421Z</time>
      </trkpt>
      <trkpt lat="63.80182" lon="20.33955">
        <ele>40.158724</ele>
        <time>2020-08-28T20:17:55.470Z</time>
      </trkpt>
      <trkpt lat="63.80149" lon="20.33754">
        <ele>40.034173</ele>
        <time>2020-08-28T20:18:13.935Z</time>
      </trkpt>
      <trkpt lat="63.80143" lon="20.33716">
        <ele>40.01003</ele>
        <time>2020-08-28T20:18:17.535Z</time>
      </trkpt>
      <trkpt lat="63.80132" lon="20.33669">
        <ele>39.977387</ele>
        <time>2020-08-28T20:18:22.090Z</time>
      </trkpt>
      <trkpt lat="63.80126" lon="20.33654">
        <ele>39.964031</ele>
        <time>2020-08-28T20:18:23.954Z</time>
      </trkpt>
      <trkpt lat="63.80116" lon="20.33635">
        <ele>39.945275</ele>
        <time>2020-08-28T20:18:26.579Z</time>
      </trkpt>
      <trkpt lat="63.80102" lon="20.33616">
        <ele>39.922141</ele>
        <time>2020-08-28T20:18:29.803Z</time>
      </trkpt>
      <trkpt lat="63.80053" lon="20.3355">
        <ele>39.841835</ele>
        <time>2020-08-28T20:18:40.844Z</time>
      </trkpt>
      <trkpt lat="63.80023" lon="20.33445">
        <ele>39.763432</ele>
        <time>2020-08-28T20:18:51.468Z</time>
      </trkpt>
      <trkpt lat="63.80014" lon="20.33421">
        <ele>39.704249</ele>
        <time>2020-08-28T20:18:54.085Z</time>
      </trkpt>
      <trkpt lat="63.79997" lon="20.33398">
        <ele>39.587942</ele>
        <time>2020-08-28T20:18:57.938Z</time>
      </trkpt>
      <trkpt lat="63.79974" lon="20.33362">
        <ele>39.430106</ele>
        <time>2020-08-28T20:19:03.124Z</time>
      </trkpt>
      <trkpt lat="63.79925" lon="20.33277">
        <ele>39.073818</ele>
        <time>2020-08-28T20:19:14.618Z</time>
      </trkpt>
      <trkpt lat="63.79904" lon="20.33223">
        <ele>38.894622</ele>
        <time>2020-08-28T20:19:20.107Z</time>
      </trkpt>
      <trkpt lat="63.79896" lon="20.33188">
        <ele>38.794268</ele>
        <time>2020-08-28T20:19:23.202Z</time>
      </trkpt>
      <trkpt lat="63.7989" lon="20.33116">
        <ele>38.460056</ele>
        <time>2020-08-28T20:19:28.783Z</time>
      </trkpt>
      <trkpt lat="63.79891" lon="20.33007">
        <ele>37.824467</ele>
        <time>2020-08-28T20:19:37.046Z</time>
      </trkpt>
      <trkpt lat="63.79894" lon="20.32957">
        <ele>37.530021</ele>
        <time>2020-08-28T20:19:40.853Z</time>
      </trkpt>
      <trkpt lat="63.79889" lon="20.32912">
        <ele>37.265729</ele>
        <time>2020-08-28T20:19:44.219Z</time>
      </trkpt>
      <trkpt lat="63.79882" lon="20.3273">
        <ele>36.143752</ele>
        <time>2020-08-28T20:19:57.660Z</time>
      </trkpt>
      <trkpt lat="63.79881" lon="20.32702">
        <ele>35.921681</ele>
        <time>2020-08-28T20:19:59.632Z</time>
      </trkpt>
      <trkpt lat="63.79874" lon="20.32605">
        <ele>35.15201</ele>
        <time>2020-08-28T20:20:06.624Z</time>
      </trkpt>
      <trkpt lat="63.79871" lon="20.32567">
        <ele>34.849826</ele>
        <time>2020-08-28T20:20:09.440Z</time>
      </trkpt>
      <trkpt lat="63.79869" lon="20.32537">
        <ele>34.608169</ele>
        <time>2020-08-28T20:20:11.594Z</time>
      </trkpt>
      <trkpt lat="63.79868" lon="20.32527">
        <ele>34.533218</ele>
        <time>2020-08-28T20:20:12.294Z</time>
      </trkpt>
      <trkpt lat="63.79862" lon="20.3245">
        <ele>33.915298</ele>
        <time>2020-08-28T20:20:17.959Z</time>
      </trkpt>
      <trkpt lat="63.79859" lon="20.32438">
        <ele>33.805665</ele>
        <time>2020-08-28T20:20:18.988Z</time>
      </trkpt>
      <trkpt lat="63.79857" lon="20.3243">
        <ele>33.729946</ele>
        <time>2020-08-28T20:20:19.656Z</time>
      </trkpt>
      <trkpt lat="63.79857" lon="20.32372">
        <ele>33.273135</ele>
        <time>2020-08-28T20:20:23.266Z</time>
      </trkpt>
      <trkpt lat="63.79857" lon="20.32304">
        <ele>32.62066</ele>
        <time>2020-08-28T20:20:29.107Z</time>
      </trkpt>
      <trkpt lat="63.79856" lon="20.32292">
        <ele>32.492434</ele>
        <time>2020-08-28T20:20:30.180Z</time>
      </trkpt>
      <trkpt lat="63.79855" lon="20.32283">
        <ele>32.401298</ele>
        <time>2020-08-28T20:20:30.776Z</time>
      </trkpt>
      <trkpt lat="63.79851" lon="20.32275">
        <ele>32.287572</ele>
        <time>2020-08-28T20:20:31.516Z</time>
      </trkpt>
      <trkpt lat="63.79844" lon="20.3226">
        <ele>32.061036</ele>
        <time>2020-08-28T20:20:32.980Z</time>
      </trkpt>
      <trkpt lat="63.79846" lon="20.32253">
        <ele>31.976187</ele>
        <time>2020-08-28T20:20:33.529Z</time>
      </trkpt>
      <trkpt lat="63.7985" lon="20.32251">
        <ele>31.878723</ele>
        <time>2020-08-28T20:20:34.156Z</time>
      </trkpt>
      <trkpt lat="63.79857" lon="20.32248">
        <ele>31.721536</ele>
        <time>2020-08-28T20:20:35.090Z</time>
      </trkpt>
      <trkpt lat="63.79858" lon="20.32238">
        <ele>31.621524</ele>
        <time>2020-08-28T20:20:35.707Z</time>
      </trkpt>
      <trkpt lat="63.79857" lon="20.32156">
        <ele>30.782099</ele>
        <time>2020-08-28T20:20:40.773Z</time>
      </trkpt>
      <trkpt lat="63.79856" lon="20.32076">
        <ele>29.967969</ele>
        <time>2020-08-28T20:20:45.593Z</time>
      </trkpt>
      <trkpt lat="63.79856" lon="20.3197">
        <ele>28.855809</ele>
        <time>2020-08-28T20:20:51.875Z</time>
      </trkpt>
      <trkpt lat="63.79857" lon="20.31905">
        <ele>27.99088</ele>
        <time>2020-08-28T20:20:55.712Z</time>
      </trkpt>
      <trkpt lat="63.79857" lon="20.31854">
        <ele>27.309413</ele>
        <time>2020-08-28T20:20:58.744Z</time>
      </trkpt>
      <trkpt lat="63.79858" lon="20.31777">
        <ele>26.279807</ele>
        <time>2020-08-28T20:21:03.301Z</time>
      </trkpt>
      <trkpt lat="63.79858" lon="20.31697">
        <ele>25.212863</ele>
        <time>2020-08-28T20:21:08.004Z</time>
      </trkpt>
      <trkpt lat="63.79859" lon="20.31677">
        <ele>24.945406</ele>
        <time>2020-08-28T20:21:09.132Z</time>
      </trkpt>
      <trkpt lat="63.79861" lon="20.31658">
        <ele>24.688207</ele>
        <time>2020-08-28T20:21:10.216Z</time>
      </trkpt>
      <trkpt lat="63.79861" lon="20.31641">
        <ele>24.45475</ele>
        <time>2020-08-28T20:21:11.200Z</time>
      </trkpt>
      <trkpt lat="63.79862" lon="20.31555">
        <ele>23.360771</ele>
        <time>2020-08-28T20:21:16.023Z</time>
      </trkpt>
      <trkpt lat="63.79882" lon="20.31486">
        <ele>22.436053</ele>
        <time>2020-08-28T20:21:20.812Z</time>
      </trkpt>
      <trkpt lat="63.79885" lon="20.31473">
        <ele>22.276328</ele>
        <time>2020-08-28T20:21:21.681Z</time>
      </trkpt>
      <trkpt lat="63.79892" lon="20.31454">
        <ele>21.997796</ele>
        <time>2020-08-28T20:21:23.127Z</time>
      </trkpt>
      <trkpt lat="63.79889" lon="20.31449">
        <ele>21.899251</ele>
        <time>2020-08-28T20:21:23.608Z</time>
      </trkpt>
      <trkpt lat="63.79879" lon="20.31431">
        <ele>21.571955</ele>
        <time>2020-08-28T20:21:25.390Z</time>
      </trkpt>
      <trkpt lat="63.79874" lon="20.31403">
        <ele>21.234864</ele>
        <time>2020-08-28T20:21:27.361Z</time>
      </trkpt>
      <trkpt lat="63.79874" lon="20.31391">
        <ele>21.09885</ele>
        <time>2020-08-28T20:21:28.101Z</time>
      </trkpt>
      <trkpt lat="63.79874" lon="20.31362">
        <ele>20.780999</ele>
        <time>2020-08-28T20:21:29.783Z</time>
      </trkpt>
      <trkpt lat="63.79872" lon="20.31354">
        <ele>20.684316</ele>
        <time>2020-08-28T20:21:30.256Z</time>
      </trkpt>
      <trkpt lat="63.79871" lon="20.31346">
        <ele>20.58495</ele>
        <time>2020-08-28T20:21:30.928Z</time>
      </trkpt>
      <trkpt lat="63.79868" lon="20.31336">
        <ele>20.446337</ele>
        <time>2020-08-28T20:21:31.687Z</time>
      </trkpt>
      <trkpt lat="63.79863" lon="20.31328">
        <ele>20.30401</ele>
        <time>2020-08-28T20:21:32.545Z</time>
      </trkpt>
      <trkpt lat="63.79866" lon="20.31312">
        <ele>20.115111</ele>
        <time>2020-08-28T20:21:33.556Z</time>
      </trkpt>
      <trkpt lat="63.79869" lon="20.31289">
        <ele>19.847012</ele>
        <time>2020-08-28T20:21:35.086Z</time>
      </trkpt>
      <trkpt lat="63.7987" lon="20.31283">
        <ele>19.777325</ele>
        <time>2020-08-28T20:21:35.443Z</time>
      </trkpt>
      <trkpt lat="63.79872" lon="20.31271">
        <ele>19.628687</ele>
        <time>2020-08-28T20:21:36.389Z</time>
      </trkpt>
      <trkpt lat="63.79948" lon="20.31219">
        <ele>18.031264</ele>
        <time>2020-08-28T20:21:47.625Z</time>
      </trkpt>
      <trkpt lat="63.79953" lon="20.31219">
        <ele>17.936624</ele>
        <time>2020-08-28T20:21:48.317Z</time>
      </trkpt>
      <trkpt lat="63.79953" lon="20.31178">
        <ele>17.620555</ele>
        <time>2020-08-28T20:21:50.713Z</time>
      </trkpt>
      <trkpt lat="63.79946" lon="20.31178">
        <ele>17.488456</ele>
        <time>2020-08-28T20:21:52.263Z</time>
      </trkpt>
      <trkpt lat="63.79946" lon="20.31122">
        <ele>17.044711</ele>
        <time>2020-08-28T20:21:55.983Z</time>
      </trkpt>
      <trkpt lat="63.7995" lon="20.31103">
        <ele>16.88023</ele>
        <time>2020-08-28T20:21:57.523Z</time>
      </trkpt>
      <trkpt lat="63.79969" lon="20.31084">
        <ele>16.50525</ele>
        <time>2020-08-28T20:22:00.714Z</time>
      </trkpt>
      <trkpt lat="63.79982" lon="20.3108">
        <ele>16.261888</ele>
        <time>2020-08-28T20:22:02.945Z</time>
      </trkpt>
      <trkpt lat="63.79985" lon="20.31046">
        <ele>15.987074</ele>
        <time>2020-08-28T20:22:05.288Z</time>
      </trkpt>
      <trkpt lat="63.79985" lon="20.30973">
        <ele>15.561846</ele>
        <time>2020-08-28T20:22:10.290Z</time>
      </trkpt>
      <trkpt lat="63.79986" lon="20.30965">
        <ele>15.519201</ele>
        <time>2020-08-28T20:22:10.793Z</time>
      </trkpt>
      <trkpt lat="63.79987" lon="20.30957">
        <ele>15.475729</ele>
        <time>2020-08-28T20:22:11.300Z</time>
      </trkpt>
      <trkpt lat="63.7999" lon="20.30764">
        <ele>14.515406</ele>
        <time>2020-08-28T20:22:24.085Z</time>
      </trkpt>
      <trkpt lat="63.79996" lon="20.30724">
        <ele>14.307349</ele>
        <time>2020-08-28T20:22:26.827Z</time>
      </trkpt>
      <trkpt lat="63.80005" lon="20.30696">
        <ele>14.13494</ele>
        <time>2020-08-28T20:22:29.197Z</time>
      </trkpt>
      <trkpt lat="63.80009" lon="20.30687">
        <ele>14.064849</ele>
        <time>2020-08-28T20:22:30.162Z</time>
      </trkpt>
      <trkpt lat="63.80017" lon="20.30702">
        <ele>13.944566</ele>
        <time>2020-08-28T20:22:32.267Z</time>
      </trkpt>
      <trkpt lat="63.80033" lon="20.30726">
        <ele>13.761756</ele>
        <time>2020-08-28T20:22:35.202Z</time>
      </trkpt>
      <trkpt lat="63.80044" lon="20.30741">
        <ele>13.71559</ele>
        <time>2020-08-28T20:22:37.382Z</time>
      </trkpt>
      <trkpt lat="63.80062" lon="20.30768">
        <ele>13.633652</ele>
        <time>2020-08-28T20:22:41.260Z</time>
      </trkpt>
      <trkpt lat="63.80068" lon="20.30774">
        <ele>13.610637</ele>
        <time>2020-08-28T20:22:42.281Z</time>
      </trkpt>
      <trkpt lat="63.80077" lon="20.30732">
        <ele>13.532359</ele>
        <time>2020-08-28T20:22:46.094Z</time>
      </trkpt>
      <trkpt lat="63.80084" lon="20.30705">
        <ele>13.481644</ele>
        <time>2020-08-28T20:22:48.424Z</time>
      </trkpt>
      <trkpt lat="63.80086" lon="20.30695">
        <ele>13.462949</ele>
        <time>2020-08-28T20:22:49.291Z</time>
      </trkpt>
      <trkpt lat="63.80103" lon="20.30672">
        <ele>13.387391</ele>
        <time>2020-08-28T20:22:52.813Z</time>
      </trkpt>
      <trkpt lat="63.8012" lon="20.30678">
        <ele>13.323323</ele>
        <time>2020-08-28T20:22:55.744Z</time>
      </trkpt>
      <trkpt lat="63.80125" lon="20.30684">
        <ele>13.301396</ele>
        <time>2020-08-28T20:22:56.770Z</time>
      </trkpt>
      <trkpt lat="63.8013" lon="20.30689">
        <ele>13.28104</ele>
        <time>2020-08-28T20:22:57.603Z</time>
      </trkpt>
      <trkpt lat="63.80135" lon="20.30696">
        <ele>13.257828</ele>
        <time>2020-08-28T20:22:58.603Z</time>
      </trkpt>
      <trkpt lat="63.80145" lon="20.30704">
        <ele>13.219088</ele>
        <time>2020-08-28T20:23:00.493Z</time>
      </trkpt>
      <trkpt lat="63.8015" lon="20.30707">
        <ele>13.199952</ele>
        <time>2020-08-28T20:23:01.464Z</time>
      </trkpt>
      <trkpt lat="63.80166" lon="20.30709">
        <ele>13.138811</ele>
        <time>2020-08-28T20:23:04.041Z</time>
      </trkpt>
      <trkpt lat="63.80187" lon="20.30692">
        <ele>12.906098</ele>
        <time>2020-08-28T20:23:07.764Z</time>
      </trkpt>
      <trkpt lat="63.80193" lon="20.30684">
        <ele>12.804202</ele>
        <time>2020-08-28T20:23:08.770Z</time>
      </trkpt>
      <trkpt lat="63.80195" lon="20.30676">
        <ele>12.739559</ele>
        <time>2020-08-28T20:23:09.347Z</time>
      </trkpt>
      <trkpt lat="63.80197" lon="20.30643">
        <ele>12.50794</ele>
        <time>2020-08-28T20:23:11.622Z</time>
      </trkpt>
      <trkpt lat="63.8019" lon="20.30611">
        <ele>12.267956</ele>
        <time>2020-08-28T20:23:14.033Z</time>
      </trkpt>
      <trkpt lat="63.80186" lon="20.30603">
        <ele>12.18569</ele>
        <time>2020-08-28T20:23:14.765Z</time>
      </trkpt>
      <trkpt lat="63.80181" lon="20.30594">
        <ele>12.08859</ele>
        <time>2020-08-28T20:23:15.674Z</time>
      </trkpt>
      <trkpt lat="63.80173" lon="20.30578">
        <ele>11.91159</ele>
        <time>2020-08-28T20:23:17.440Z</time>
      </trkpt>
      <trkpt lat="63.80165" lon="20.30562">
        <ele>11.74763</ele>
        <time>2020-08-28T20:23:19.033Z</time>
      </trkpt>
      <trkpt lat="63.8016" lon="20.30552">
        <ele>11.651616</ele>
        <time>2020-08-28T20:23:19.889Z</time>
      </trkpt>
      <trkpt lat="63.80152" lon="20.30527">
        <ele>11.433206</ele>
        <time>2020-08-28T20:23:21.926Z</time>
      </trkpt>
      <trkpt lat="63.80147" lon="20.30471">
        <ele>11.03952</ele>
        <time>2020-08-28T20:23:25.525Z</time>
      </trkpt>
      <trkpt lat="63.80144" lon="20.30416">
        <ele>10.664643</ele>
        <time>2020-08-28T20:23:28.960Z</time>
      </trkpt>
      <trkpt lat="63.80144" lon="20.30406">
        <ele>10.589791</ele>
        <time>2020-08-28T20:23:29.632Z</time>
      </trkpt>
      <trkpt lat="63.80142" lon="20.30359">
        <ele>10.248477</ele>
        <time>2020-08-28T20:23:32.441Z</time>
      </trkpt>
      <trkpt lat="63.8012" lon="20.29622">
        <ele>3.017499</ele>
        <time>2020-08-28T20:24:17.288Z</time>
      </trkpt>
      <trkpt lat="63.80108" lon="20.29279">
        <ele>1.517954</ele>
        <time>2020-08-28T20:24:41.116Z</time>
      </trkpt>
      <trkpt lat="63.80108" lon="20.29253">
        <ele>1.437326</ele>
        <time>2020-08-28T20:24:43.075Z</time>
      </trkpt>
      <trkpt lat="63.80105" lon="20.29205">
        <ele>1.284791</ele>
        <time>2020-08-28T20:24:46.767Z</time>
      </trkpt>
      <trkpt lat="63.80093" lon="20.29064">
        <ele>1.076218</ele>
        <time>2020-08-28T20:24:57.871Z</time>
      </trkpt>
      <trkpt lat="63.80081" lon="20.28986">
        <ele>1.056535</ele>
        <time>2020-08-28T20:25:04.394Z</time>
      </trkpt>
      <trkpt lat="63.80075" lon="20.28957">
        <ele>1.049245</ele>
        <time>2020-08-28T20:25:06.810Z</time>
      </trkpt>
      <trkpt lat="63.80073" lon="20.28942">
        <ele>1.045362</ele>
        <time>2020-08-28T20:25:08.115Z</time>
      </trkpt>
      <trkpt lat="63.80069" lon="20.28926">
        <ele>1.041056</ele>
        <time>2020-08-28T20:25:09.554Z</time>
      </trkpt>
      <trkpt lat="63.80066" lon="20.28912">
        <ele>1.03742</ele>
        <time>2020-08-28T20:25:10.773Z</time>
      </trkpt>
      <trkpt lat="63.80052" lon="20.28858">
        <ele>1.022547</ele>
        <time>2020-08-28T20:25:15.744Z</time>
      </trkpt>
      <trkpt lat="63.80039" lon="20.28812">
        <ele>1.009786</ele>
        <time>2020-08-28T20:25:20.021Z</time>
      </trkpt>
      <trkpt lat="63.80022" lon="20.28758">
        <ele>1.001717</ele>
        <time>2020-08-28T20:25:25.285Z</time>
      </trkpt>
      <trkpt lat="63.79982" lon="20.28627">
        <ele>1.012368</ele>
        <time>2020-08-28T20:25:37.821Z</time>
      </trkpt>
      <trkpt lat="63.79939" lon="20.28487">
        <ele>1.023756</ele>
        <time>2020-08-28T20:25:51.253Z</time>
      </trkpt>
      <trkpt lat="63.79937" lon="20.28478">
        <ele>1.024468</ele>
        <time>2020-08-28T20:25:52.107Z</time>
      </trkpt>
      <trkpt lat="63.79935" lon="20.28461">
        <ele>1.025621</ele>
        <time>2020-08-28T20:25:53.468Z</time>
      </trkpt>
      <trkpt lat="63.79932" lon="20.28408">
        <ele>1.032301</ele>
        <time>2020-08-28T20:25:57.708Z</time>
      </trkpt>
      <trkpt lat="63.79934" lon="20.28385">
        <ele>1.03646</ele>
        <time>2020-08-28T20:25:59.551Z</time>
      </trkpt>
      <trkpt lat="63.79936" lon="20.28369">
        <ele>1.039502</ele>
        <time>2020-08-28T20:26:00.905Z</time>
      </trkpt>
      <trkpt lat="63.79945" lon="20.28325">
        <ele>1.048131</ele>
        <time>2020-08-28T20:26:04.747Z</time>
      </trkpt>
      <trkpt lat="63.79979" lon="20.28227">
        <ele>1.070311</ele>
        <time>2020-08-28T20:26:14.575Z</time>
      </trkpt>
      <trkpt lat="63.79982" lon="20.28203">
        <ele>1.074698</ele>
        <time>2020-08-28T20:26:16.512Z</time>
      </trkpt>
      <trkpt lat="63.79983" lon="20.2819">
        <ele>1.077051</ele>
        <time>2020-08-28T20:26:17.580Z</time>
      </trkpt>
      <trkpt lat="63.80015" lon="20.28167">
        <ele>1.090637</ele>
        <time>2020-08-28T20:26:23.596Z</time>
      </trkpt>
      <trkpt lat="63.80031" lon="20.28148">
        <ele>1.097868</ele>
        <time>2020-08-28T20:26:26.806Z</time>
      </trkpt>
      <trkpt lat="63.80129" lon="20.28036">
        <ele>1.175347</ele>
        <time>2020-08-28T20:26:46.672Z</time>
      </trkpt>
      <trkpt lat="63.80223" lon="20.27929">
        <ele>1.30026</ele>
        <time>2020-08-28T20:27:05.835Z</time>
      </trkpt>
      <trkpt lat="63.80254" lon="20.279">
        <ele>1.378348</ele>
        <time>2020-08-28T20:27:12.014Z</time>
      </trkpt>
      <trkpt lat="63.80294" lon="20.27862">
        <ele>1.478549</ele>
        <time>2020-08-28T20:27:19.992Z</time>
      </trkpt>
      <trkpt lat="63.80343" lon="20.27801">
        <ele>1.610168</ele>
        <time>2020-08-28T20:27:30.566Z</time>
      </trkpt>
      <trkpt lat="63.80451" lon="20.27659">
        <ele>2.042296</ele>
        <time>2020-08-28T20:27:54.343Z</time>
      </trkpt>
      <trkpt lat="63.80474" lon="20.27632">
        <ele>2.133925</ele>
        <time>2020-08-28T20:27:59.189Z</time>
      </trkpt>
      <trkpt lat="63.80596" lon="20.27482">
        <ele>2.592498</ele>
        <time>2020-08-28T20:28:25.735Z</time>
      </trkpt>
      <trkpt lat="63.80614" lon="20.27453">
        <ele>2.659221</ele>
        <time>2020-08-28T20:28:29.753Z</time>
      </trkpt>
      <trkpt lat="63.80666" lon="20.27385">
        <ele>2.847897</ele>
        <time>2020-08-28T20:28:41.015Z</time>
      </trkpt>
      <trkpt lat="63.80756" lon="20.27274">
        <ele>2.927825</ele>
        <time>2020-08-28T20:28:59.795Z</time>
      </trkpt>
      <trkpt lat="63.80851" lon="20.27153">
        <ele>2.940439</ele>
        <time>2020-08-28T20:29:19.065Z</time>
      </trkpt>
      <trkpt lat="63.80906" lon="20.27084">
        <ele>2.841767</ele>
        <time>2020-08-28T20:29:29.939Z</time>
      </trkpt>
      <trkpt lat="63.8103" lon="20.26943">
        <ele>2.634683</ele>
        <time>2020-08-28T20:29:53.825Z</time>
      </trkpt>
      <trkpt lat="63.81036" lon="20.26938">
        <ele>2.62608</ele>
        <time>2020-08-28T20:29:54.863Z</time>
      </trkpt>
      <trkpt lat="63.81043" lon="20.26938">
        <ele>2.61627</ele>
        <time>2020-08-28T20:29:56.137Z</time>
      </trkpt>
      <trkpt lat="63.81046" lon="20.26935">
        <ele>2.611254</ele>
        <time>2020-08-28T20:29:56.785Z</time>
      </trkpt>
      <trkpt lat="63.81054" lon="20.26926">
        <ele>2.599355</ele>
        <time>2020-08-28T20:29:58.320Z</time>
      </trkpt>
      <trkpt lat="63.81062" lon="20.26914">
        <ele>2.586332</ele>
        <time>2020-08-28T20:30:00.017Z</time>
      </trkpt>
      <trkpt lat="63.81067" lon="20.26908">
        <ele>2.578744</ele>
        <time>2020-08-28T20:30:00.945Z</time>
      </trkpt>
      <trkpt lat="63.81069" lon="20.26899">
        <ele>2.572749</ele>
        <time>2020-08-28T20:30:01.732Z</time>
      </trkpt>
      <trkpt lat="63.81081" lon="20.26885">
        <ele>2.55535</ele>
        <time>2020-08-28T20:30:03.980Z</time>
      </trkpt>
      <trkpt lat="63.81172" lon="20.26796">
        <ele>2.460682</ele>
        <time>2020-08-28T20:30:21.499Z</time>
      </trkpt>
      <trkpt lat="63.81227" lon="20.26742">
        <ele>2.472622</ele>
        <time>2020-08-28T20:30:32.351Z</time>
      </trkpt>
      <trkpt lat="63.81298" lon="20.2667">
        <ele>2.487911</ele>
        <time>2020-08-28T20:30:46.721Z</time>
      </trkpt>
      <trkpt lat="63.81336" lon="20.26625">
        <ele>2.556975</ele>
        <time>2020-08-28T20:30:54.930Z</time>
      </trkpt>
      <trkpt lat="63.81411" lon="20.26514">
        <ele>2.775006</ele>
        <time>2020-08-28T20:31:12.222Z</time>
      </trkpt>
      <trkpt lat="63.81423" lon="20.26496">
        <ele>2.809362</ele>
        <time>2020-08-28T20:31:15.001Z</time>
      </trkpt>
      <trkpt lat="63.81446" lon="20.26462">
        <ele>2.875645</ele>
        <time>2020-08-28T20:31:20.353Z</time>
      </trkpt>
      <trkpt lat="63.81516" lon="20.26316">
        <ele>3.305964</ele>
        <time>2020-08-28T20:31:39.334Z</time>
      </trkpt>
      <trkpt lat="63.8152" lon="20.26307">
        <ele>3.335336</ele>
        <time>2020-08-28T20:31:40.478Z</time>
      </trkpt>
      <trkpt lat="63.81595" lon="20.26143">
        <ele>3.87468</ele>
        <time>2020-08-28T20:32:01.718Z</time>
      </trkpt>
      <trkpt lat="63.81629" lon="20.26064">
        <ele>4.173661</ele>
        <time>2020-08-28T20:32:11.629Z</time>
      </trkpt>
      <trkpt lat="63.81677" lon="20.25955">
        <ele>4.594278</ele>
        <time>2020-08-28T20:32:25.661Z</time>
      </trkpt>
      <trkpt lat="63.81711" lon="20.25922">
        <ele>4.821791</ele>
        <time>2020-08-28T20:32:33.327Z</time>
      </trkpt>
      <trkpt lat="63.81706" lon="20.25899">
        <ele>4.893441</ele>
        <time>2020-08-28T20:32:35.749Z</time>
      </trkpt>
      <trkpt lat="63.81696" lon="20.25859">
        <ele>5.034415</ele>
        <time>2020-08-28T20:32:39.968Z</time>
      </trkpt>
      <trkpt lat="63.81687" lon="20.25781">
        <ele>5.31471</ele>
        <time>2020-08-28T20:32:47.479Z</time>
      </trkpt>
      <trkpt lat="63.8168" lon="20.25754">
        <ele>5.423057</ele>
        <time>2020-08-28T20:32:50.419Z</time>
      </trkpt>
      <trkpt lat="63.81635" lon="20.25583">
        <ele>6.119478</ele>
        <time>2020-08-28T20:33:08.904Z</time>
      </trkpt>
      <trkpt lat="63.8159" lon="20.25421">
        <ele>6.834755</ele>
        <time>2020-08-28T20:33:27.029Z</time>
      </trkpt>
      <trkpt lat="63.81561" lon="20.25315">
        <ele>7.31872</ele>
        <time>2020-08-28T20:33:38.878Z</time>
      </trkpt>
      <trkpt lat="63.81562" lon="20.25299">
        <ele>7.381495</ele>
        <time>2020-08-28T20:33:40.460Z</time>
      </trkpt>
      <trkpt lat="63.81564" lon="20.25288">
        <ele>7.430413</ele>
        <time>2020-08-28T20:33:41.652Z</time>
      </trkpt>
      <trkpt lat="63.81572" lon="20.25265">
        <ele>7.543036</ele>
        <time>2020-08-28T20:33:44.318Z</time>
      </trkpt>
      <trkpt lat="63.81578" lon="20.2525">
        <ele>7.620744</ele>
        <time>2020-08-28T20:33:46.199Z</time>
      </trkpt>
      <trkpt lat="63.81578" lon="20.25237">
        <ele>7.673401</ele>
        <time>2020-08-28T20:33:47.532Z</time>
      </trkpt>
      <trkpt lat="63.81566" lon="20.25188">
        <ele>7.889671</ele>
        <time>2020-08-28T20:33:52.634Z</time>
      </trkpt>
      <trkpt lat="63.81561" lon="20.2517">
        <ele>7.971613</ele>
        <time>2020-08-28T20:33:54.678Z</time>
      </trkpt>
      <trkpt lat="63.81554" lon="20.25155">
        <ele>8.065211</ele>
        <time>2020-08-28T20:33:56.785Z</time>
      </trkpt>
      <trkpt lat="63.81548" lon="20.25139">
        <ele>8.161792</ele>
        <time>2020-08-28T20:33:58.786Z</time>
      </trkpt>
      <trkpt lat="63.81535" lon="20.25066">
        <ele>8.497367</ele>
        <time>2020-08-28T20:34:06.028Z</time>
      </trkpt>
      <trkpt lat="63.81536" lon="20.25004">
        <ele>8.763601</ele>
        <time>2020-08-28T20:34:11.860Z</time>
      </trkpt>
      <trkpt lat="63.81538" lon="20.24939">
        <ele>9.045959</ele>
        <time>2020-08-28T20:34:18.082Z</time>
      </trkpt>
      <trkpt lat="63.8154" lon="20.24872">
        <ele>9.334956</ele>
        <time>2020-08-28T20:34:24.587Z</time>
      </trkpt>
      <trkpt lat="63.81549" lon="20.24859">
        <ele>9.43811</ele>
        <time>2020-08-28T20:34:26.990Z</time>
      </trkpt>
      <trkpt lat="63.81561" lon="20.24811">
        <ele>9.676541</ele>
        <time>2020-08-28T20:34:32.407Z</time>
      </trkpt>
      <trkpt lat="63.81562" lon="20.24702">
        <ele>10.331928</ele>
        <time>2020-08-28T20:34:43.190Z</time>
      </trkpt>
      <trkpt lat="63.81569" lon="20.24671">
        <ele>10.553857</ele>
        <time>2020-08-28T20:34:46.816Z</time>
      </trkpt>
      <trkpt lat="63.81572" lon="20.24643">
        <ele>10.730481</ele>
        <time>2020-08-28T20:34:49.633Z</time>
      </trkpt>
      <trkpt lat="63.8157" lon="20.24613">
        <ele>10.914602</ele>
        <time>2020-08-28T20:34:52.499Z</time>
      </trkpt>
      <trkpt lat="63.8156" lon="20.24606">
        <ele>11.059692</ele>
        <time>2020-08-28T20:34:54.952Z</time>
      </trkpt>
      <trkpt lat="63.81555" lon="20.2458">
        <ele>11.235787</ele>
        <time>2020-08-28T20:34:57.712Z</time>
      </trkpt>
      <trkpt lat="63.8156" lon="20.24517">
        <ele>11.630847</ele>
        <time>2020-08-28T20:35:04.053Z</time>
      </trkpt>
      <trkpt lat="63.81581" lon="20.24427">
        <ele>12.264339</ele>
        <time>2020-08-28T20:35:14.538Z</time>
      </trkpt>
      <trkpt lat="63.81611" lon="20.24343">
        <ele>12.98894</ele>
        <time>2020-08-28T20:35:25.933Z</time>
      </trkpt>
      <trkpt lat="63.81653" lon="20.24259">
        <ele>13.838273</ele>
        <time>2020-08-28T20:35:38.704Z</time>
      </trkpt>
      <trkpt lat="63.81661" lon="20.24247">
        <ele>13.984026</ele>
        <time>2020-08-28T20:35:41.039Z</time>
      </trkpt>
      <trkpt lat="63.81676" lon="20.24225">
        <ele>14.242531</ele>
        <time>2020-08-28T20:35:44.698Z</time>
      </trkpt>
      <trkpt lat="63.81687" lon="20.24207">
        <ele>14.459034</ele>
        <time>2020-08-28T20:35:47.841Z</time>
      </trkpt>
      <trkpt lat="63.817" lon="20.24191">
        <ele>14.670787</ele>
        <time>2020-08-28T20:35:50.995Z</time>
      </trkpt>
      <trkpt lat="63.81745" lon="20.24134">
        <ele>15.291597</ele>
        <time>2020-08-28T20:36:02.239Z</time>
      </trkpt>
      <trkpt lat="63.81776" lon="20.24105">
        <ele>15.63225</ele>
        <time>2020-08-28T20:36:09.632Z</time>
      </trkpt>
      <trkpt lat="63.81808" lon="20.24076">
        <ele>15.978235</ele>
        <time>2020-08-28T20:36:17.035Z</time>
      </trkpt>
      <trkpt lat="63.81806" lon="20.24059">
        <ele>16.056688</ele>
        <time>2020-08-28T20:36:18.593Z</time>
      </trkpt>
      <trkpt lat="63.81803" lon="20.24044">
        <ele>16.127994</ele>
        <time>2020-08-28T20:36:20.061Z</time>
      </trkpt>
      <trkpt lat="63.81809" lon="20.24033">
        <ele>16.200118</ele>
        <time>2020-08-28T20:36:21.555Z</time>
      </trkpt>
      <trkpt lat="63.8181" lon="20.24011">
        <ele>16.301273</ele>
        <time>2020-08-28T20:36:23.596Z</time>
      </trkpt>
      <trkpt lat="63.81809" lon="20.23999">
        <ele>16.355529</ele>
        <time>2020-08-28T20:36:24.709Z</time>
      </trkpt>
      <trkpt lat="63.81818" lon="20.23991">
        <ele>16.4466</ele>
        <time>2020-08-28T20:36:26.467Z</time>
      </trkpt>
      <trkpt lat="63.81824" lon="20.23985">
        <ele>16.51395</ele>
        <time>2020-08-28T20:36:27.785Z</time>
      </trkpt>
      <trkpt lat="63.81826" lon="20.23982">
        <ele>16.535921</ele>
        <time>2020-08-28T20:36:28.208Z</time>
      </trkpt>
      <trkpt lat="63.81822" lon="20.2397">
        <ele>16.596495</ele>
        <time>2020-08-28T20:36:29.540Z</time>
      </trkpt>
      <trkpt lat="63.81758" lon="20.23486">
        <ele>18.012775</ele>
        <time>2020-08-28T20:37:14.116Z</time>
      </trkpt>
      <trkpt lat="63.81762" lon="20.23469">
        <ele>18.037675</ele>
        <time>2020-08-28T20:37:15.793Z</time>
      </trkpt>
      <trkpt lat="63.81786" lon="20.23425">
        <ele>18.126145</ele>
        <time>2020-08-28T20:37:21.682Z</time>
      </trkpt>
      <trkpt lat="63.81784" lon="20.23419">
        <ele>18.135962</ele>
        <time>2020-08-28T20:37:22.346Z</time>
      </trkpt>
      <trkpt lat="63.8177" lon="20.23379">
        <ele>18.20177</ele>
        <time>2020-08-28T20:37:26.799Z</time>
      </trkpt>
      <trkpt lat="63.81759" lon="20.23344">
        <ele>18.257016</ele>
        <time>2020-08-28T20:37:30.533Z</time>
      </trkpt>
      <trkpt lat="63.81741" lon="20.23278">
        <ele>18.357386</ele>
        <time>2020-08-28T20:37:37.075Z</time>
      </trkpt>
      <trkpt lat="63.81733" lon="20.23227">
        <ele>18.425631</ele>
        <time>2020-08-28T20:37:41.446Z</time>
      </trkpt>
      <trkpt lat="63.81721" lon="20.23132">
        <ele>18.264727</ele>
        <time>2020-08-28T20:37:49.286Z</time>
      </trkpt>
      <trkpt lat="63.81709" lon="20.23041">
        <ele>17.988625</ele>
        <time>2020-08-28T20:37:56.719Z</time>
      </trkpt>
      <trkpt lat="63.81703" lon="20.22978">
        <ele>17.800894</ele>
        <time>2020-08-28T20:38:01.479Z</time>
      </trkpt>
      <trkpt lat="63.81689" lon="20.22846">
        <ele>17.406548</ele>
        <time>2020-08-28T20:38:11.240Z</time>
      </trkpt>
      <trkpt lat="63.81686" lon="20.22816">
        <ele>17.317602</ele>
        <time>2020-08-28T20:38:13.384Z</time>
      </trkpt>
      <trkpt lat="63.81677" lon="20.22708">
        <ele>16.790444</ele>
        <time>2020-08-28T20:38:21.176Z</time>
      </trkpt>
      <trkpt lat="63.81674" lon="20.22659">
        <ele>16.545768</ele>
        <time>2020-08-28T20:38:24.599Z</time>
      </trkpt>
      <trkpt lat="63.81664" lon="20.22577">
        <ele>16.11583</ele>
        <time>2020-08-28T20:38:30.659Z</time>
      </trkpt>
      <trkpt lat="63.81664" lon="20.22562">
        <ele>16.04157</ele>
        <time>2020-08-28T20:38:31.678Z</time>
      </trkpt>
      <trkpt lat="63.81663" lon="20.2253">
        <ele>15.881387</ele>
        <time>2020-08-28T20:38:33.934Z</time>
      </trkpt>
      <trkpt lat="63.81652" lon="20.22448">
        <ele>15.449114</ele>
        <time>2020-08-28T20:38:39.979Z</time>
      </trkpt>
      <trkpt lat="63.81648" lon="20.2243">
        <ele>15.352644</ele>
        <time>2020-08-28T20:38:41.336Z</time>
      </trkpt>
      <trkpt lat="63.81643" lon="20.2241">
        <ele>15.235247</ele>
        <time>2020-08-28T20:38:42.983Z</time>
      </trkpt>
      <trkpt lat="63.81632" lon="20.22344">
        <ele>14.901008</ele>
        <time>2020-08-28T20:38:47.991Z</time>
      </trkpt>
      <trkpt lat="63.81602" lon="20.22179">
        <ele>14.059873</ele>
        <time>2020-08-28T20:39:00.565Z</time>
      </trkpt>
      <trkpt lat="63.81593" lon="20.22131">
        <ele>13.811784</ele>
        <time>2020-08-28T20:39:04.330Z</time>
      </trkpt>
      <trkpt lat="63.81589" lon="20.22119">
        <ele>13.741612</ele>
        <time>2020-08-28T20:39:05.422Z</time>
      </trkpt>
      <trkpt lat="63.81583" lon="20.22107">
        <ele>13.658236</ele>
        <time>2020-08-28T20:39:06.655Z</time>
      </trkpt>
      <trkpt lat="63.81579" lon="20.22097">
        <ele>13.592445</ele>
        <time>2020-08-28T20:39:07.661Z</time>
      </trkpt>
      <trkpt lat="63.81573" lon="20.22081">
        <ele>13.492592</ele>
        <time>2020-08-28T20:39:09.196Z</time>
      </trkpt>
      <trkpt lat="63.81562" lon="20.22048">
        <ele>13.302254</ele>
        <time>2020-08-28T20:39:12.138Z</time>
      </trkpt>
      <trkpt lat="63.81548" lon="20.22016">
        <ele>13.140434</ele>
        <time>2020-08-28T20:39:15.337Z</time>
      </trkpt>
      <trkpt lat="63.81527" lon="20.21966">
        <ele>12.887383</ele>
        <time>2020-08-28T20:39:20.347Z</time>
      </trkpt>
      <trkpt lat="63.81392" lon="20.21596">
        <ele>11.353267</ele>
        <time>2020-08-28T20:39:55.719Z</time>
      </trkpt>
      <trkpt lat="63.81386" lon="20.2158">
        <ele>11.301084</ele>
        <time>2020-08-28T20:39:57.268Z</time>
      </trkpt>
      <trkpt lat="63.8138" lon="20.21564">
        <ele>11.24929</ele>
        <time>2020-08-28T20:39:58.803Z</time>
      </trkpt>
      <trkpt lat="63.81357" lon="20.215">
        <ele>11.038875</ele>
        <time>2020-08-28T20:40:05.111Z</time>
      </trkpt>
      <trkpt lat="63.81322" lon="20.21405">
        <ele>10.812134</ele>
        <time>2020-08-28T20:40:14.759Z</time>
      </trkpt>
      <trkpt lat="63.8127" lon="20.21262">
        <ele>10.868501</ele>
        <time>2020-08-28T20:40:29.620Z</time>
      </trkpt>
      <trkpt lat="63.81267" lon="20.21218">
        <ele>10.882075</ele>
        <time>2020-08-28T20:40:33.377Z</time>
      </trkpt>
      <trkpt lat="63.81238" lon="20.21068">
        <ele>10.980658</ele>
        <time>2020-08-28T20:40:47.554Z</time>
      </trkpt>
      <trkpt lat="63.81203" lon="20.2096">
        <ele>11.423682</ele>
        <time>2020-08-28T20:40:59.627Z</time>
      </trkpt>
      <trkpt lat="63.81111" lon="20.20821">
        <ele>12.251996</ele>
        <time>2020-08-28T20:41:23.364Z</time>
      </trkpt>
      <trkpt lat="63.81101" lon="20.20791">
        <ele>12.413184</ele>
        <time>2020-08-28T20:41:26.999Z</time>
      </trkpt>
      <trkpt lat="63.81081" lon="20.20713">
        <ele>12.811465</ele>
        <time>2020-08-28T20:41:35.824Z</time>
      </trkpt>
      <trkpt lat="63.81064" lon="20.20629">
        <ele>13.218908</ele>
        <time>2020-08-28T20:41:44.809Z</time>
      </trkpt>
      <trkpt lat="63.8105" lon="20.20496">
        <ele>13.82607</ele>
        <time>2020-08-28T20:41:57.913Z</time>
      </trkpt>
      <trkpt lat="63.81042" lon="20.2049">
        <ele>13.91159</ele>
        <time>2020-08-28T20:41:59.777Z</time>
      </trkpt>
      <trkpt lat="63.81033" lon="20.20493">
        <ele>13.996617</ele>
        <time>2020-08-28T20:42:01.773Z</time>
      </trkpt>
      <trkpt lat="63.81016" lon="20.20499">
        <ele>14.139451</ele>
        <time>2020-08-28T20:42:05.470Z</time>
      </trkpt>
      <trkpt lat="63.81008" lon="20.20502">
        <ele>14.187305</ele>
        <time>2020-08-28T20:42:07.163Z</time>
      </trkpt>
      <trkpt lat="63.8099" lon="20.20503">
        <ele>14.30315</ele>
        <time>2020-08-28T20:42:11.108Z</time>
      </trkpt>
      <trkpt lat="63.80973" lon="20.2049">
        <ele>14.41368</ele>
        <time>2020-08-28T20:42:14.735Z</time>
      </trkpt>
      <trkpt lat="63.80897" lon="20.20369">
        <ele>14.989299</ele>
        <time>2020-08-28T20:42:33.736Z</time>
      </trkpt>
      <trkpt lat="63.80878" lon="20.20339">
        <ele>15.133173</ele>
        <time>2020-08-28T20:42:38.343Z</time>
      </trkpt>
      <trkpt lat="63.80847" lon="20.20285">
        <ele>15.307286</ele>
        <time>2020-08-28T20:42:46.101Z</time>
      </trkpt>
      <trkpt lat="63.80838" lon="20.20278">
        <ele>15.344751</ele>
        <time>2020-08-28T20:42:48.058Z</time>
      </trkpt>
      <trkpt lat="63.80831" lon="20.20285">
        <ele>15.373992</ele>
        <time>2020-08-28T20:42:49.619Z</time>
      </trkpt>
      <trkpt lat="63.80758" lon="20.20175">
        <ele>15.701539</ele>
        <time>2020-08-28T20:43:06.156Z</time>
      </trkpt>
      <trkpt lat="63.80748" lon="20.20162">
        <ele>15.745827</ele>
        <time>2020-08-28T20:43:08.362Z</time>
      </trkpt>
      <trkpt lat="63.80737" lon="20.20153">
        <ele>15.787559</ele>
        <time>2020-08-28T20:43:10.464Z</time>
      </trkpt>
      <trkpt lat="63.80726" lon="20.20146">
        <ele>15.829668</ele>
        <time>2020-08-28T20:43:12.586Z</time>
      </trkpt>
      <trkpt lat="63.80682" lon="20.20128">
        <ele>15.993523</ele>
        <time>2020-08-28T20:43:21.144Z</time>
      </trkpt>
      <trkpt lat="63.80636" lon="20.20111">
        <ele>16.161923</ele>
        <time>2020-08-28T20:43:29.983Z</time>
      </trkpt>
      <trkpt lat="63.80572" lon="20.20083">
        <ele>16.397994</ele>
        <time>2020-08-28T20:43:42.332Z</time>
      </trkpt>
      <trkpt lat="63.80542" lon="20.20068">
        <ele>16.508637</ele>
        <time>2020-08-28T20:43:48.136Z</time>
      </trkpt>
      <trkpt lat="63.80501" lon="20.20059">
        <ele>16.737015</ele>
        <time>2020-08-28T20:43:56.077Z</time>
      </trkpt>
      <trkpt lat="63.80453" lon="20.2006">
        <ele>17.011316</ele>
        <time>2020-08-28T20:44:05.434Z</time>
      </trkpt>
      <trkpt lat="63.80411" lon="20.20076">
        <ele>17.258114</ele>
        <time>2020-08-28T20:44:13.918Z</time>
      </trkpt>
      <trkpt lat="63.80178" lon="20.20164">
        <ele>19.072884</ele>
        <time>2020-08-28T20:45:02.284Z</time>
      </trkpt>
      <trkpt lat="63.8013" lon="20.20183">
        <ele>19.36375</ele>
        <time>2020-08-28T20:45:12.253Z</time>
      </trkpt>
      <trkpt lat="63.8011" lon="20.2019">
        <ele>19.481635</ele>
        <time>2020-08-28T20:45:16.203Z</time>
      </trkpt>
      <trkpt lat="63.80031" lon="20.20219">
        <ele>19.960323</ele>
        <time>2020-08-28T20:45:31.943Z</time>
      </trkpt>
      <trkpt lat="63.79972" lon="20.20263">
        <ele>20.159417</ele>
        <time>2020-08-28T20:45:43.564Z</time>
      </trkpt>
      <trkpt lat="63.79846" lon="20.20396">
        <ele>20.313852</ele>
        <time>2020-08-28T20:46:08.310Z</time>
      </trkpt>
      <trkpt lat="63.79708" lon="20.2049">
        <ele>21.226373</ele>
        <time>2020-08-28T20:46:35.619Z</time>
      </trkpt>
      <trkpt lat="63.79654" lon="20.20526">
        <ele>21.782909</ele>
        <time>2020-08-28T20:46:48.239Z</time>
      </trkpt>
      <trkpt lat="63.79628" lon="20.20537">
        <ele>22.305268</ele>
        <time>2020-08-28T20:46:54.462Z</time>
      </trkpt>
      <trkpt lat="63.79606" lon="20.20546">
        <ele>22.733277</ele>
        <time>2020-08-28T20:46:59.764Z</time>
      </trkpt>
      <trkpt lat="63.79563" lon="20.20555">
        <ele>23.590844</ele>
        <time>2020-08-28T20:47:10.619Z</time>
      </trkpt>
      <trkpt lat="63.79512" lon="20.2055">
        <ele>24.575933</ele>
        <time>2020-08-28T20:47:23.590Z</time>
      </trkpt>
      <trkpt lat="63.79321" lon="20.20533">
        <ele>28.187011</ele>
        <time>2020-08-28T20:48:10.156Z</time>
      </trkpt>
      <trkpt lat="63.79277" lon="20.20512">
        <ele>28.515528</ele>
        <time>2020-08-28T20:48:19.350Z</time>
      </trkpt>
      <trkpt lat="63.79257" lon="20.20497">
        <ele>28.60208</ele>
        <time>2020-08-28T20:48:23.682Z</time>
      </trkpt>
      <trkpt lat="63.79236" lon="20.20479">
        <ele>28.697339</ele>
        <time>2020-08-28T20:48:28.227Z</time>
      </trkpt>
      <trkpt lat="63.79098" lon="20.2031">
        <ele>28.804345</ele>
        <time>2020-08-28T20:48:55.853Z</time>
      </trkpt>
      <trkpt lat="63.79057" lon="20.20283">
        <ele>28.56999</ele>
        <time>2020-08-28T20:49:02.538Z</time>
      </trkpt>
      <trkpt lat="63.79027" lon="20.20276">
        <ele>28.398574</ele>
        <time>2020-08-28T20:49:07.453Z</time>
      </trkpt>
      <trkpt lat="63.79017" lon="20.20276">
        <ele>28.343759</ele>
        <time>2020-08-28T20:49:08.981Z</time>
      </trkpt>
      <trkpt lat="63.78999" lon="20.20279">
        <ele>28.243958</ele>
        <time>2020-08-28T20:49:11.760Z</time>
      </trkpt>
      <trkpt lat="63.7896" lon="20.20297">
        <ele>27.972224</ele>
        <time>2020-08-28T20:49:18.070Z</time>
      </trkpt>
      <trkpt lat="63.78933" lon="20.2032">
        <ele>27.722761</ele>
        <time>2020-08-28T20:49:22.580Z</time>
      </trkpt>
      <trkpt lat="63.7891" lon="20.20332">
        <ele>27.518357</ele>
        <time>2020-08-28T20:49:26.314Z</time>
      </trkpt>
      <trkpt lat="63.78879" lon="20.20364">
        <ele>27.227206</ele>
        <time>2020-08-28T20:49:31.610Z</time>
      </trkpt>
      <trkpt lat="63.78874" lon="20.20374">
        <ele>27.171841</ele>
        <time>2020-08-28T20:49:32.589Z</time>
      </trkpt>
      <trkpt lat="63.78868" lon="20.20332">
        <ele>27.006047</ele>
        <time>2020-08-28T20:49:35.638Z</time>
      </trkpt>
      <trkpt lat="63.78854" lon="20.20277">
        <ele>26.758525</ele>
        <time>2020-08-28T20:49:40.245Z</time>
      </trkpt>
      <trkpt lat="63.78826" lon="20.20224">
        <ele>26.46402</ele>
        <time>2020-08-28T20:49:46.050Z</time>
      </trkpt>
      <trkpt lat="63.78784" lon="20.202">
        <ele>26.161001</ele>
        <time>2020-08-28T20:49:52.908Z</time>
      </trkpt>
      <trkpt lat="63.7873" lon="20.20208">
        <ele>25.776653</ele>
        <time>2020-08-28T20:50:01.604Z</time>
      </trkpt>
      <trkpt lat="63.78678" lon="20.20229">
        <ele>25.40076</ele>
        <time>2020-08-28T20:50:10.079Z</time>
      </trkpt>
      <trkpt lat="63.7861" lon="20.20256">
        <ele>24.913573</ele>
        <time>2020-08-28T20:50:21.107Z</time>
      </trkpt>
      <trkpt lat="63.7852" lon="20.20291">
        <ele>24.270453</ele>
        <time>2020-08-28T20:50:35.774Z</time>
      </trkpt>
      <trkpt lat="63.78434" lon="20.20322">
        <ele>23.79295</ele>
        <time>2020-08-28T20:50:49.914Z</time>
      </trkpt>
      <trkpt lat="63.78352" lon="20.20347">
        <ele>23.428804</ele>
        <time>2020-08-28T20:51:03.652Z</time>
      </trkpt>
      <trkpt lat="63.78275" lon="20.20373">
        <ele>23.12925</ele>
        <time>2020-08-28T20:51:16.766Z</time>
      </trkpt>
      <trkpt lat="63.78266" lon="20.20375">
        <ele>23.101032</ele>
        <time>2020-08-28T20:51:18.333Z</time>
      </trkpt>
      <trkpt lat="63.78252" lon="20.20378">
        <ele>23.058216</ele>
        <time>2020-08-28T20:51:20.732Z</time>
      </trkpt>
      <trkpt lat="63.78099" lon="20.20386">
        <ele>22.6237</ele>
        <time>2020-08-28T20:51:46.763Z</time>
      </trkpt>
      <trkpt lat="63.77782" lon="20.2035">
        <ele>21.957725</ele>
        <time>2020-08-28T20:52:41.438Z</time>
      </trkpt>
      <trkpt lat="63.77695" lon="20.20339">
        <ele>21.720449</ele>
        <time>2020-08-28T20:52:56.296Z</time>
      </trkpt>
      <trkpt lat="63.77647" lon="20.20334">
        <ele>21.58264</ele>
        <time>2020-08-28T20:53:04.543Z</time>
      </trkpt>
      <trkpt lat="63.77597" lon="20.20329">
        <ele>21.44146</ele>
        <time>2020-08-28T20:53:13.002Z</time>
      </trkpt>
      <trkpt lat="63.77493" lon="20.20323">
        <ele>21.238685</ele>
        <time>2020-08-28T20:53:30.793Z</time>
      </trkpt>
      <trkpt lat="63.77456" lon="20.20327">
        <ele>21.170959</ele>
        <time>2020-08-28T20:53:37.115Z</time>
      </trkpt>
      <trkpt lat="63.77448" lon="20.20327">
        <ele>21.154829</ele>
        <time>2020-08-28T20:53:38.632Z</time>
      </trkpt>
      <trkpt lat="63.773" lon="20.20342">
        <ele>21.033045</ele>
        <time>2020-08-28T20:54:04.630Z</time>
      </trkpt>
      <trkpt lat="63.77243" lon="20.20356">
        <ele>21.007231</ele>
        <time>2020-08-28T20:54:14.865Z</time>
      </trkpt>
      <trkpt lat="63.77152" lon="20.2038">
        <ele>21.000358</ele>
        <time>2020-08-28T20:54:31.227Z</time>
      </trkpt>
      <trkpt lat="63.77047" lon="20.2042">
        <ele>21.000012</ele>
        <time>2020-08-28T20:54:50.170Z</time>
      </trkpt>
      <trkpt lat="63.76972" lon="20.20453">
        <ele>21.000012</ele>
        <time>2020-08-28T20:55:03.900Z</time>
      </trkpt>
      <trkpt lat="63.76934" lon="20.2047">
        <ele>21.000012</ele>
        <time>2020-08-28T20:55:10.753Z</time>
      </trkpt>
      <trkpt lat="63.76863" lon="20.20511">
        <ele>21.000012</ele>
        <time>2020-08-28T20:55:23.829Z</time>
      </trkpt>
      <trkpt lat="63.76663" lon="20.2064">
        <ele>21.000012</ele>
        <time>2020-08-28T20:56:00.888Z</time>
      </trkpt>
      <trkpt lat="63.76466" lon="20.20771">
        <ele>20.950596</ele>
        <time>2020-08-28T20:56:37.581Z</time>
      </trkpt>
      <trkpt lat="63.76451" lon="20.2078">
        <ele>20.938914</ele>
        <time>2020-08-28T20:56:40.358Z</time>
      </trkpt>
      <trkpt lat="63.76432" lon="20.20791">
        <ele>20.924717</ele>
        <time>2020-08-28T20:56:43.726Z</time>
      </trkpt>
      <trkpt lat="63.76366" lon="20.20833">
        <ele>20.87352</ele>
        <time>2020-08-28T20:56:55.827Z</time>
      </trkpt>
      <trkpt lat="63.76273" lon="20.20868">
        <ele>20.659151</ele>
        <time>2020-08-28T20:57:12.029Z</time>
      </trkpt>
      <trkpt lat="63.76207" lon="20.20901">
        <ele>20.492699</ele>
        <time>2020-08-28T20:57:23.503Z</time>
      </trkpt>
      <trkpt lat="63.76193" lon="20.20913">
        <ele>20.456241</ele>
        <time>2020-08-28T20:57:25.986Z</time>
      </trkpt>
      <trkpt lat="63.7615" lon="20.20948">
        <ele>20.35452</ele>
        <time>2020-08-28T20:57:33.790Z</time>
      </trkpt>
      <trkpt lat="63.76105" lon="20.20993">
        <ele>20.248874</ele>
        <time>2020-08-28T20:57:42.296Z</time>
      </trkpt>
      <trkpt lat="63.76087" lon="20.20939">
        <ele>20.18577</ele>
        <time>2020-08-28T20:57:47.406Z</time>
      </trkpt>
      <trkpt lat="63.76079" lon="20.2092">
        <ele>20.161005</ele>
        <time>2020-08-28T20:57:49.407Z</time>
      </trkpt>
      <trkpt lat="63.7607" lon="20.20906">
        <ele>20.138786</ele>
        <time>2020-08-28T20:57:51.197Z</time>
      </trkpt>
      <trkpt lat="63.76026" lon="20.20879">
        <ele>20.041841</ele>
        <time>2020-08-28T20:57:59.282Z</time>
      </trkpt>
      <trkpt lat="63.75965" lon="20.20854">
        <ele>20.027518</ele>
        <time>2020-08-28T20:58:10.162Z</time>
      </trkpt>
      <trkpt lat="63.75729" lon="20.20756">
        <ele>20.054595</ele>
        <time>2020-08-28T20:58:52.973Z</time>
      </trkpt>
      <trkpt lat="63.75581" lon="20.20691">
        <ele>20.354342</ele>
        <time>2020-08-28T20:59:20.409Z</time>
      </trkpt>
      <trkpt lat="63.75542" lon="20.20675">
        <ele>20.470297</ele>
        <time>2020-08-28T20:59:27.891Z</time>
      </trkpt>
      <trkpt lat="63.75507" lon="20.20658">
        <ele>20.57699</ele>
        <time>2020-08-28T20:59:34.891Z</time>
      </trkpt>
      <trkpt lat="63.75501" lon="20.20654">
        <ele>20.593806</ele>
        <time>2020-08-28T20:59:36.129Z</time>
      </trkpt>
      <trkpt lat="63.75296" lon="20.20526">
        <ele>22.093157</ele>
        <time>2020-08-28T21:00:18.959Z</time>
      </trkpt>
      <trkpt lat="63.75175" lon="20.20447">
        <ele>23.024256</ele>
        <time>2020-08-28T21:00:44.340Z</time>
      </trkpt>
      <trkpt lat="63.75133" lon="20.20413">
        <ele>23.39668</ele>
        <time>2020-08-28T21:00:53.523Z</time>
      </trkpt>
      <trkpt lat="63.75089" lon="20.20362">
        <ele>23.867639</ele>
        <time>2020-08-28T21:01:03.781Z</time>
      </trkpt>
      <trkpt lat="63.75065" lon="20.20324">
        <ele>24.152168</ele>
        <time>2020-08-28T21:01:09.968Z</time>
      </trkpt>
      <trkpt lat="63.74998" lon="20.20225">
        <ele>24.911092</ele>
        <time>2020-08-28T21:01:26.648Z</time>
      </trkpt>
      <trkpt lat="63.74982" lon="20.20201">
        <ele>25.121601</ele>
        <time>2020-08-28T21:01:30.796Z</time>
      </trkpt>
      <trkpt lat="63.74899" lon="20.20098">
        <ele>26.183583</ele>
        <time>2020-08-28T21:01:51.182Z</time>
      </trkpt>
      <trkpt lat="63.74631" lon="20.19887">
        <ele>29.669771</ele>
        <time>2020-08-28T21:02:52.763Z</time>
      </trkpt>
      <trkpt lat="63.74523" lon="20.19748">
        <ele>31.409379</ele>
        <time>2020-08-28T21:03:20.462Z</time>
      </trkpt>
      <trkpt lat="63.74506" lon="20.19735">
        <ele>31.663689</ele>
        <time>2020-08-28T21:03:24.628Z</time>
      </trkpt>
      <trkpt lat="63.74468" lon="20.19719">
        <ele>32.360046</ele>
        <time>2020-08-28T21:03:33.622Z</time>
      </trkpt>
      <trkpt lat="63.74418" lon="20.19711">
        <ele>33.266496</ele>
        <time>2020-08-28T21:03:45.197Z</time>
      </trkpt>
      <trkpt lat="63.74335" lon="20.19707">
        <ele>34.776488</ele>
        <time>2020-08-28T21:04:05.220Z</time>
      </trkpt>
      <trkpt lat="63.74318" lon="20.19699">
        <ele>35.123984</ele>
        <time>2020-08-28T21:04:09.654Z</time>
      </trkpt>
      <trkpt lat="63.74273" lon="20.1966">
        <ele>36.180529</ele>
        <time>2020-08-28T21:04:21.352Z</time>
      </trkpt>
      <trkpt lat="63.74217" lon="20.19598">
        <ele>37.550225</ele>
        <time>2020-08-28T21:04:36.922Z</time>
      </trkpt>
      <trkpt lat="63.74197" lon="20.19576">
        <ele>38.044949</ele>
        <time>2020-08-28T21:04:42.599Z</time>
      </trkpt>
      <trkpt lat="63.74128" lon="20.19501">
        <ele>39.793536</ele>
        <time>2020-08-28T21:05:01.534Z</time>
      </trkpt>
      <trkpt lat="63.74086" lon="20.19442">
        <ele>40.99802</ele>
        <time>2020-08-28T21:05:14.708Z</time>
      </trkpt>
      <trkpt lat="63.74024" lon="20.19334">
        <ele>42.8756</ele>
        <time>2020-08-28T21:05:34.674Z</time>
      </trkpt>
      <trkpt lat="63.74002" lon="20.19291">
        <ele>43.553441</ele>
        <time>2020-08-28T21:05:42.270Z</time>
      </trkpt>
      <trkpt lat="63.73979" lon="20.19232">
        <ele>44.291786</ele>
        <time>2020-08-28T21:05:50.943Z</time>
      </trkpt>
      <trkpt lat="63.7392" lon="20.19025">
        <ele>46.649073</ele>
        <time>2020-08-28T21:06:18.220Z</time>
      </trkpt>
      <trkpt lat="63.73888" lon="20.18934">
        <ele>47.559726</ele>
        <time>2020-08-28T21:06:30.026Z</time>
      </trkpt>
      <trkpt lat="63.73831" lon="20.18824">
        <ele>48.665279</ele>
        <time>2020-08-28T21:06:46.625Z</time>
      </trkpt>
      <trkpt lat="63.73757" lon="20.18728">
        <ele>49.933633</ele>
        <time>2020-08-28T21:07:05.666Z</time>
      </trkpt>
      <trkpt lat="63.73723" lon="20.18683">
        <ele>50.568566</ele>
        <time>2020-08-28T21:07:14.567Z</time>
      </trkpt>
      <trkpt lat="63.73657" lon="20.18596">
        <ele>51.790347</ele>
        <time>2020-08-28T21:07:31.949Z</time>
      </trkpt>
      <trkpt lat="63.73603" lon="20.18498">
        <ele>52.939676</ele>
        <time>2020-08-28T21:07:48.168Z</time>
      </trkpt>
      <trkpt lat="63.73519" lon="20.18309">
        <ele>55.168355</ele>
        <time>2020-08-28T21:08:17.133Z</time>
      </trkpt>
      <trkpt lat="63.73503" lon="20.18285">
        <ele>55.538097</ele>
        <time>2020-08-28T21:08:21.784Z</time>
      </trkpt>
      <trkpt lat="63.73478" lon="20.18257">
        <ele>56.060609</ele>
        <time>2020-08-28T21:08:28.326Z</time>
      </trkpt>
      <trkpt lat="63.73467" lon="20.18246">
        <ele>56.200983</ele>
        <time>2020-08-28T21:08:31.171Z</time>
      </trkpt>
      <trkpt lat="63.73313" lon="20.18133">
        <ele>58.117388</ele>
        <time>2020-08-28T21:09:06.644Z</time>
      </trkpt>
      <trkpt lat="63.7322" lon="20.18053">
        <ele>57.900346</ele>
        <time>2020-08-28T21:09:24.542Z</time>
      </trkpt>
      <trkpt lat="63.73219" lon="20.18052">
        <ele>57.894869</ele>
        <time>2020-08-28T21:09:24.862Z</time>
      </trkpt>
      <trkpt lat="63.73027" lon="20.17949">
        <ele>56.121331</ele>
        <time>2020-08-28T21:09:55.409Z</time>
      </trkpt>
      <trkpt lat="63.72819" lon="20.17863">
        <ele>52.569011</ele>
        <time>2020-08-28T21:10:25.461Z</time>
      </trkpt>
      <trkpt lat="63.72698" lon="20.17801">
        <ele>50.307624</ele>
        <time>2020-08-28T21:10:43.471Z</time>
      </trkpt>
      <trkpt lat="63.72623" lon="20.17762">
        <ele>48.927223</ele>
        <time>2020-08-28T21:10:54.373Z</time>
      </trkpt>
      <trkpt lat="63.72609" lon="20.17755">
        <ele>48.66317</ele>
        <time>2020-08-28T21:10:56.409Z</time>
      </trkpt>
      <trkpt lat="63.72579" lon="20.17727">
        <ele>47.969873</ele>
        <time>2020-08-28T21:11:01.056Z</time>
      </trkpt>
      <trkpt lat="63.72545" lon="20.17675">
        <ele>47.113775</ele>
        <time>2020-08-28T21:11:06.688Z</time>
      </trkpt>
      <trkpt lat="63.72357" lon="20.17245">
        <ele>41.709673</ele>
        <time>2020-08-28T21:11:44.137Z</time>
      </trkpt>
      <trkpt lat="63.72293" lon="20.17144">
        <ele>40.645441</ele>
        <time>2020-08-28T21:11:55.724Z</time>
      </trkpt>
      <trkpt lat="63.72245" lon="20.17089">
        <ele>40.021958</ele>
        <time>2020-08-28T21:12:03.939Z</time>
      </trkpt>
      <trkpt lat="63.72202" lon="20.17048">
        <ele>39.478999</ele>
        <time>2020-08-28T21:12:11.242Z</time>
      </trkpt>
      <trkpt lat="63.72155" lon="20.17012">
        <ele>39.030843</ele>
        <time>2020-08-28T21:12:19.148Z</time>
      </trkpt>
      <trkpt lat="63.72099" lon="20.16981">
        <ele>38.614076</ele>
        <time>2020-08-28T21:12:28.369Z</time>
      </trkpt>
      <trkpt lat="63.72048" lon="20.16951">
        <ele>38.237155</ele>
        <time>2020-08-28T21:12:36.943Z</time>
      </trkpt>
      <trkpt lat="63.72031" lon="20.16939">
        <ele>38.105722</ele>
        <time>2020-08-28T21:12:39.863Z</time>
      </trkpt>
      <trkpt lat="63.72023" lon="20.16933">
        <ele>38.048601</ele>
        <time>2020-08-28T21:12:41.219Z</time>
      </trkpt>
      <trkpt lat="63.72005" lon="20.16916">
        <ele>37.912222</ele>
        <time>2020-08-28T21:12:44.413Z</time>
      </trkpt>
      <trkpt lat="63.71869" lon="20.16783">
        <ele>37.019667</ele>
        <time>2020-08-28T21:13:08.346Z</time>
      </trkpt>
      <trkpt lat="63.71841" lon="20.16766">
        <ele>36.844372</ele>
        <time>2020-08-28T21:13:13.080Z</time>
      </trkpt>
      <trkpt lat="63.71819" lon="20.16774">
        <ele>36.702271</ele>
        <time>2020-08-28T21:13:16.840Z</time>
      </trkpt>
      <trkpt lat="63.71709" lon="20.16882">
        <ele>35.962736</ele>
        <time>2020-08-28T21:13:36.216Z</time>
      </trkpt>
      <trkpt lat="63.71686" lon="20.16895">
        <ele>35.817655</ele>
        <time>2020-08-28T21:13:39.997Z</time>
      </trkpt>
      <trkpt lat="63.71651" lon="20.16898">
        <ele>35.586701</ele>
        <time>2020-08-28T21:13:45.603Z</time>
      </trkpt>
      <trkpt lat="63.71578" lon="20.16878">
        <ele>35.07908</ele>
        <time>2020-08-28T21:13:57.524Z</time>
      </trkpt>
      <trkpt lat="63.71548" lon="20.16849">
        <ele>34.861132</ele>
        <time>2020-08-28T21:14:02.646Z</time>
      </trkpt>
      <trkpt lat="63.7148" lon="20.16725">
        <ele>34.261703</ele>
        <time>2020-08-28T21:14:16.811Z</time>
      </trkpt>
      <trkpt lat="63.71455" lon="20.16701">
        <ele>34.078268</ele>
        <time>2020-08-28T21:14:21.160Z</time>
      </trkpt>
      <trkpt lat="63.71375" lon="20.16676">
        <ele>33.527148</ele>
        <time>2020-08-28T21:14:34.259Z</time>
      </trkpt>
      <trkpt lat="63.7133" lon="20.16649">
        <ele>33.21804</ele>
        <time>2020-08-28T21:14:41.761Z</time>
      </trkpt>
      <trkpt lat="63.71285" lon="20.16599">
        <ele>32.905246</ele>
        <time>2020-08-28T21:14:49.838Z</time>
      </trkpt>
      <trkpt lat="63.70915" lon="20.16156">
        <ele>30.44751</ele>
        <time>2020-08-28T21:15:57.639Z</time>
      </trkpt>
      <trkpt lat="63.70825" lon="20.16047">
        <ele>30.102435</ele>
        <time>2020-08-28T21:16:15.169Z</time>
      </trkpt>
      <trkpt lat="63.70747" lon="20.15938">
        <ele>29.992659</ele>
        <time>2020-08-28T21:16:31.373Z</time>
      </trkpt>
      <trkpt lat="63.70741" lon="20.15925">
        <ele>29.9831</ele>
        <time>2020-08-28T21:16:32.794Z</time>
      </trkpt>
      <trkpt lat="63.70716" lon="20.15867">
        <ele>29.940066</ele>
        <time>2020-08-28T21:16:39.172Z</time>
      </trkpt>
      <trkpt lat="63.70608" lon="20.15626">
        <ele>29.925328</ele>
        <time>2020-08-28T21:17:06.150Z</time>
      </trkpt>
      <trkpt lat="63.70581" lon="20.1557">
        <ele>29.926202</ele>
        <time>2020-08-28T21:17:12.737Z</time>
      </trkpt>
      <trkpt lat="63.70565" lon="20.15538">
        <ele>29.93546</ele>
        <time>2020-08-28T21:17:16.615Z</time>
      </trkpt>
      <trkpt lat="63.70537" lon="20.15479">
        <ele>29.952181</ele>
        <time>2020-08-28T21:17:23.579Z</time>
      </trkpt>
      <trkpt lat="63.7052" lon="20.1545">
        <ele>29.96133</ele>
        <time>2020-08-28T21:17:27.376Z</time>
      </trkpt>
      <trkpt lat="63.70518" lon="20.15447">
        <ele>29.962374</ele>
        <time>2020-08-28T21:17:27.820Z</time>
      </trkpt>
      <trkpt lat="63.70495" lon="20.1541">
        <ele>29.974286</ele>
        <time>2020-08-28T21:17:32.779Z</time>
      </trkpt>
      <trkpt lat="63.70415" lon="20.15342">
        <ele>30.02806</ele>
        <time>2020-08-28T21:17:48.217Z</time>
      </trkpt>
      <trkpt lat="63.70355" lon="20.15221">
        <ele>30.114396</ele>
        <time>2020-08-28T21:18:02.585Z</time>
      </trkpt>
      <trkpt lat="63.70255" lon="20.15094">
        <ele>30.429402</ele>
        <time>2020-08-28T21:18:23.850Z</time>
      </trkpt>
      <trkpt lat="63.70214" lon="20.15065">
        <ele>30.673979</ele>
        <time>2020-08-28T21:18:31.990Z</time>
      </trkpt>
      <trkpt lat="63.70195" lon="20.15051">
        <ele>30.79065</ele>
        <time>2020-08-28T21:18:36.003Z</time>
      </trkpt>
      <trkpt lat="63.70125" lon="20.14968">
        <ele>31.246414</ele>
        <time>2020-08-28T21:18:52.271Z</time>
      </trkpt>
      <trkpt lat="63.7009" lon="20.14961">
        <ele>31.470889</ele>
        <time>2020-08-28T21:18:59.685Z</time>
      </trkpt>
      <trkpt lat="63.70025" lon="20.14977">
        <ele>31.886498</ele>
        <time>2020-08-28T21:19:12.932Z</time>
      </trkpt>
      <trkpt lat="63.7002" lon="20.14974">
        <ele>31.920087</ele>
        <time>2020-08-28T21:19:14.154Z</time>
      </trkpt>
      <trkpt lat="63.6999" lon="20.14957">
        <ele>32.116936</ele>
        <time>2020-08-28T21:19:20.075Z</time>
      </trkpt>
      <trkpt lat="63.6998" lon="20.14951">
        <ele>32.187347</ele>
        <time>2020-08-28T21:19:22.331Z</time>
      </trkpt>
      <trkpt lat="63.69926" lon="20.14895">
        <ele>32.274084</ele>
        <time>2020-08-28T21:19:33.181Z</time>
      </trkpt>
      <trkpt lat="63.69863" lon="20.14806">
        <ele>32.025106</ele>
        <time>2020-08-28T21:19:46.154Z</time>
      </trkpt>
      <trkpt lat="63.69716" lon="20.14564">
        <ele>31.033787</ele>
        <time>2020-08-28T21:20:14.944Z</time>
      </trkpt>
      <trkpt lat="63.69688" lon="20.14487">
        <ele>30.724025</ele>
        <time>2020-08-28T21:20:22.123Z</time>
      </trkpt>
      <trkpt lat="63.69622" lon="20.14225">
        <ele>30.241769</ele>
        <time>2020-08-28T21:20:44.430Z</time>
      </trkpt>
      <trkpt lat="63.69601" lon="20.14183">
        <ele>30.164417</ele>
        <time>2020-08-28T21:20:49.411Z</time>
      </trkpt>
      <trkpt lat="63.69566" lon="20.14146">
        <ele>30.060344</ele>
        <time>2020-08-28T21:20:56.168Z</time>
      </trkpt>
      <trkpt lat="63.69393" lon="20.14009">
        <ele>30.001065</ele>
        <time>2020-08-28T21:21:28.793Z</time>
      </trkpt>
      <trkpt lat="63.69308" lon="20.13926">
        <ele>30.000012</ele>
        <time>2020-08-28T21:21:45.208Z</time>
      </trkpt>
      <trkpt lat="63.69279" lon="20.13918">
        <ele>30.000012</ele>
        <time>2020-08-28T21:21:50.371Z</time>
      </trkpt>
      <trkpt lat="63.69218" lon="20.13934">
        <ele>30.000012</ele>
        <time>2020-08-28T21:22:01.326Z</time>
      </trkpt>
      <trkpt lat="63.69056" lon="20.13875">
        <ele>30.000012</ele>
        <time>2020-08-28T21:22:30.665Z</time>
      </trkpt>
      <trkpt lat="63.68904" lon="20.13861">
        <ele>30.000012</ele>
        <time>2020-08-28T21:22:57.837Z</time>
      </trkpt>
      <trkpt lat="63.68882" lon="20.13842">
        <ele>30.000012</ele>
        <time>2020-08-28T21:23:01.956Z</time>
      </trkpt>
      <trkpt lat="63.68821" lon="20.13756">
        <ele>29.997253</ele>
        <time>2020-08-28T21:23:14.775Z</time>
      </trkpt>
      <trkpt lat="63.68785" lon="20.13722">
        <ele>29.995058</ele>
        <time>2020-08-28T21:23:21.776Z</time>
      </trkpt>
      <trkpt lat="63.68736" lon="20.13698">
        <ele>29.992258</ele>
        <time>2020-08-28T21:23:30.696Z</time>
      </trkpt>
      <trkpt lat="63.68692" lon="20.13695">
        <ele>29.98242</ele>
        <time>2020-08-28T21:23:38.590Z</time>
      </trkpt>
      <trkpt lat="63.68652" lon="20.13705">
        <ele>29.889053</ele>
        <time>2020-08-28T21:23:45.669Z</time>
      </trkpt>
      <trkpt lat="63.68593" lon="20.13691">
        <ele>29.750738</ele>
        <time>2020-08-28T21:23:56.032Z</time>
      </trkpt>
      <trkpt lat="63.68554" lon="20.13668">
        <ele>29.65714</ele>
        <time>2020-08-28T21:24:02.911Z</time>
      </trkpt>
      <trkpt lat="63.68482" lon="20.13595">
        <ele>29.264545</ele>
        <time>2020-08-28T21:24:16.028Z</time>
      </trkpt>
      <trkpt lat="63.68448" lon="20.1358">
        <ele>29.010204</ele>
        <time>2020-08-28T21:24:21.555Z</time>
      </trkpt>
      <trkpt lat="63.68415" lon="20.13593">
        <ele>28.770356</ele>
        <time>2020-08-28T21:24:26.731Z</time>
      </trkpt>
      <trkpt lat="63.6838" lon="20.13625">
        <ele>28.49626</ele>
        <time>2020-08-28T21:24:32.615Z</time>
      </trkpt>
      <trkpt lat="63.6833" lon="20.1363">
        <ele>28.125826</ele>
        <time>2020-08-28T21:24:40.596Z</time>
      </trkpt>
      <trkpt lat="63.68309" lon="20.13621">
        <ele>27.973804</ele>
        <time>2020-08-28T21:24:43.778Z</time>
      </trkpt>
      <trkpt lat="63.68119" lon="20.1346">
        <ele>26.783837</ele>
        <time>2020-08-28T21:25:16.515Z</time>
      </trkpt>
      <trkpt lat="63.68093" lon="20.13434">
        <ele>26.710692</ele>
        <time>2020-08-28T21:25:21.508Z</time>
      </trkpt>
      <trkpt lat="63.68062" lon="20.13379">
        <ele>26.608933</ele>
        <time>2020-08-28T21:25:28.570Z</time>
      </trkpt>
      <trkpt lat="63.68024" lon="20.13293">
        <ele>26.460134</ele>
        <time>2020-08-28T21:25:38.250Z</time>
      </trkpt>
      <trkpt lat="63.68005" lon="20.13224">
        <ele>26.304922</ele>
        <time>2020-08-28T21:25:44.595Z</time>
      </trkpt>
      <trkpt lat="63.67978" lon="20.13171">
        <ele>26.153082</ele>
        <time>2020-08-28T21:25:50.698Z</time>
      </trkpt>
      <trkpt lat="63.67947" lon="20.13149">
        <ele>26.009966</ele>
        <time>2020-08-28T21:25:56.275Z</time>
      </trkpt>
      <trkpt lat="63.6785" lon="20.13144">
        <ele>25.36455</ele>
        <time>2020-08-28T21:26:11.787Z</time>
      </trkpt>
      <trkpt lat="63.67744" lon="20.13068">
        <ele>23.924724</ele>
        <time>2020-08-28T21:26:28.306Z</time>
      </trkpt>
      <trkpt lat="63.6765" lon="20.13056">
        <ele>22.793316</ele>
        <time>2020-08-28T21:26:42.171Z</time>
      </trkpt>
      <trkpt lat="63.67622" lon="20.13022">
        <ele>22.43443</ele>
        <time>2020-08-28T21:26:46.900Z</time>
      </trkpt>
      <trkpt lat="63.67587" lon="20.12963">
        <ele>21.949785</ele>
        <time>2020-08-28T21:26:53.463Z</time>
      </trkpt>
      <trkpt lat="63.67511" lon="20.12886">
        <ele>21.18578</ele>
        <time>2020-08-28T21:27:06.812Z</time>
      </trkpt>
      <trkpt lat="63.67494" lon="20.12881">
        <ele>21.088663</ele>
        <time>2020-08-28T21:27:09.733Z</time>
      </trkpt>
      <trkpt lat="63.67486" lon="20.12851">
        <ele>21.005835</ele>
        <time>2020-08-28T21:27:12.312Z</time>
      </trkpt>
      <trkpt lat="63.67445" lon="20.12697">
        <ele>20.572306</ele>
        <time>2020-08-28T21:27:25.566Z</time>
      </trkpt>
      <trkpt lat="63.67415" lon="20.12587">
        <ele>20.144348</ele>
        <time>2020-08-28T21:27:35.050Z</time>
      </trkpt>
      <trkpt lat="63.67394" lon="20.12465">
        <ele>19.50192</ele>
        <time>2020-08-28T21:27:44.488Z</time>
      </trkpt>
      <trkpt lat="63.67366" lon="20.12312">
        <ele>18.689949</ele>
        <time>2020-08-28T21:27:55.557Z</time>
      </trkpt>
      <trkpt lat="63.6735" lon="20.12117">
        <ele>17.121005</ele>
        <time>2020-08-28T21:28:08.054Z</time>
      </trkpt>
      <trkpt lat="63.67357" lon="20.12063">
        <ele>16.599462</ele>
        <time>2020-08-28T21:28:11.504Z</time>
      </trkpt>
      <trkpt lat="63.67354" lon="20.11942">
        <ele>15.464994</ele>
        <time>2020-08-28T21:28:18.978Z</time>
      </trkpt>
      <trkpt lat="63.67367" lon="20.11719">
        <ele>13.727309</ele>
        <time>2020-08-28T21:28:32.635Z</time>
      </trkpt>
      <trkpt lat="63.6737" lon="20.11662">
        <ele>13.345892</ele>
        <time>2020-08-28T21:28:36.205Z</time>
      </trkpt>
      <trkpt lat="63.67381" lon="20.11486">
        <ele>12.178003</ele>
        <time>2020-08-28T21:28:48.048Z</time>
      </trkpt>
      <trkpt lat="63.67388" lon="20.11364">
        <ele>12.660936</ele>
        <time>2020-08-28T21:28:57.969Z</time>
      </trkpt>
      <trkpt lat="63.67393" lon="20.11295">
        <ele>13.284701</ele>
        <time>2020-08-28T21:29:04.541Z</time>
      </trkpt>
      <trkpt lat="63.67403" lon="20.11215">
        <ele>14.026974</ele>
        <time>2020-08-28T21:29:13.478Z</time>
      </trkpt>
      <trkpt lat="63.67441" lon="20.11057">
        <ele>15.743885</ele>
        <time>2020-08-28T21:29:36.239Z</time>
      </trkpt>
      <trkpt lat="63.67526" lon="20.10744">
        <ele>22.944258</ele>
        <time>2020-08-28T21:30:30.199Z</time>
      </trkpt>
      <trkpt lat="63.67548" lon="20.10599">
        <ele>24.974311</ele>
        <time>2020-08-28T21:30:50.840Z</time>
      </trkpt>
      <trkpt lat="63.67553" lon="20.10523">
        <ele>25.893603</ele>
        <time>2020-08-28T21:31:00.275Z</time>
      </trkpt>
      <trkpt lat="63.6755" lon="20.10436">
        <ele>26.920454</ele>
        <time>2020-08-28T21:31:10.019Z</time>
      </trkpt>
      <trkpt lat="63.67534" lon="20.10354">
        <ele>27.977801</ele>
        <time>2020-08-28T21:31:19.145Z</time>
      </trkpt>
      <trkpt lat="63.6746" lon="20.10057">
        <ele>29.162576</ele>
        <time>2020-08-28T21:31:49.270Z</time>
      </trkpt>
      <trkpt lat="63.67448" lon="20.09984">
        <ele>29.373833</ele>
        <time>2020-08-28T21:31:55.589Z</time>
      </trkpt>
      <trkpt lat="63.67442" lon="20.09865">
        <ele>29.518532</ele>
        <time>2020-08-28T21:32:05.444Z</time>
      </trkpt>
      <trkpt lat="63.67446" lon="20.09811">
        <ele>29.574324</ele>
        <time>2020-08-28T21:32:10.032Z</time>
      </trkpt>
      <trkpt lat="63.6748" lon="20.09707">
        <ele>29.703368</ele>
        <time>2020-08-28T21:32:20.670Z</time>
      </trkpt>
      <trkpt lat="63.67494" lon="20.09638">
        <ele>29.779124</ele>
        <time>2020-08-28T21:32:26.886Z</time>
      </trkpt>
      <trkpt lat="63.67512" lon="20.09388">
        <ele>29.91419</ele>
        <time>2020-08-28T21:32:47.397Z</time>
      </trkpt>
      <trkpt lat="63.67524" lon="20.09309">
        <ele>29.951199</ele>
        <time>2020-08-28T21:32:54.037Z</time>
      </trkpt>
      <trkpt lat="63.67536" lon="20.09263">
        <ele>29.975033</ele>
        <time>2020-08-28T21:32:58.288Z</time>
      </trkpt>
      <trkpt lat="63.67552" lon="20.09214">
        <ele>29.998952</ele>
        <time>2020-08-28T21:33:03.105Z</time>
      </trkpt>
      <trkpt lat="63.67574" lon="20.09136">
        <ele>29.980765</ele>
        <time>2020-08-28T21:33:10.441Z</time>
      </trkpt>
      <trkpt lat="63.67596" lon="20.09074">
        <ele>29.965364</ele>
        <time>2020-08-28T21:33:16.629Z</time>
      </trkpt>
      <trkpt lat="63.67602" lon="20.09028">
        <ele>29.955878</ele>
        <time>2020-08-28T21:33:20.440Z</time>
      </trkpt>
      <trkpt lat="63.67592" lon="20.08908">
        <ele>29.932003</ele>
        <time>2020-08-28T21:33:30.049Z</time>
      </trkpt>
      <trkpt lat="63.67575" lon="20.08789">
        <ele>29.911971</ele>
        <time>2020-08-28T21:33:39.900Z</time>
      </trkpt>
      <trkpt lat="63.67574" lon="20.08744">
        <ele>29.906178</ele>
        <time>2020-08-28T21:33:43.457Z</time>
      </trkpt>
      <trkpt lat="63.67582" lon="20.08705">
        <ele>29.900582</ele>
        <time>2020-08-28T21:33:46.896Z</time>
      </trkpt>
      <trkpt lat="63.67596" lon="20.08674">
        <ele>29.894925</ele>
        <time>2020-08-28T21:33:50.396Z</time>
      </trkpt>
      <trkpt lat="63.67644" lon="20.08604">
        <ele>29.878245</ele>
        <time>2020-08-28T21:34:00.661Z</time>
      </trkpt>
      <trkpt lat="63.6769" lon="20.08491">
        <ele>29.625108</ele>
        <time>2020-08-28T21:34:12.547Z</time>
      </trkpt>
      <trkpt lat="63.67697" lon="20.08453">
        <ele>29.490626</ele>
        <time>2020-08-28T21:34:15.729Z</time>
      </trkpt>
      <trkpt lat="63.67699" lon="20.08406">
        <ele>29.337431</ele>
        <time>2020-08-28T21:34:19.332Z</time>
      </trkpt>
      <trkpt lat="63.6769" lon="20.08239">
        <ele>28.795408</ele>
        <time>2020-08-28T21:34:31.375Z</time>
      </trkpt>
      <trkpt lat="63.67693" lon="20.08172">
        <ele>28.578057</ele>
        <time>2020-08-28T21:34:35.699Z</time>
      </trkpt>
      <trkpt lat="63.67702" lon="20.08102">
        <ele>27.786216</ele>
        <time>2020-08-28T21:34:40.346Z</time>
      </trkpt>
      <trkpt lat="63.67718" lon="20.08021">
        <ele>26.758949</ele>
        <time>2020-08-28T21:34:45.763Z</time>
      </trkpt>
      <trkpt lat="63.67722" lon="20.07965">
        <ele>26.103098</ele>
        <time>2020-08-28T21:34:49.252Z</time>
      </trkpt>
      <trkpt lat="63.67724" lon="20.0794">
        <ele>25.816635</ele>
        <time>2020-08-28T21:34:50.671Z</time>
      </trkpt>
      <trkpt lat="63.67726" lon="20.07852">
        <ele>24.796621</ele>
        <time>2020-08-28T21:34:55.867Z</time>
      </trkpt>
      <trkpt lat="63.67729" lon="20.07793">
        <ele>24.109255</ele>
        <time>2020-08-28T21:34:59.362Z</time>
      </trkpt>
      <trkpt lat="63.67762" lon="20.07535">
        <ele>20.204225</ele>
        <time>2020-08-28T21:35:14.639Z</time>
      </trkpt>
      <trkpt lat="63.67763" lon="20.07502">
        <ele>19.71345</ele>
        <time>2020-08-28T21:35:16.585Z</time>
      </trkpt>
      <trkpt lat="63.67762" lon="20.07452">
        <ele>18.97474</ele>
        <time>2020-08-28T21:35:19.513Z</time>
      </trkpt>
      <trkpt lat="63.67737" lon="20.07248">
        <ele>16.111943</ele>
        <time>2020-08-28T21:35:31.816Z</time>
      </trkpt>
      <trkpt lat="63.67737" lon="20.07151">
        <ele>14.859179</ele>
        <time>2020-08-28T21:35:37.440Z</time>
      </trkpt>
      <trkpt lat="63.67743" lon="20.07013">
        <ele>13.070237</ele>
        <time>2020-08-28T21:35:45.730Z</time>
      </trkpt>
      <trkpt lat="63.67746" lon="20.06992">
        <ele>12.784459</ele>
        <time>2020-08-28T21:35:46.997Z</time>
      </trkpt>
      <trkpt lat="63.67748" lon="20.06975">
        <ele>12.589344</ele>
        <time>2020-08-28T21:35:48.016Z</time>
      </trkpt>
      <trkpt lat="63.67837" lon="20.06484">
        <ele>8.602912</ele>
        <time>2020-08-28T21:36:21.826Z</time>
      </trkpt>
      <trkpt lat="63.67905" lon="20.06247">
        <ele>7.414977</ele>
        <time>2020-08-28T21:36:41.900Z</time>
      </trkpt>
      <trkpt lat="63.67922" lon="20.0619">
        <ele>7.405496</ele>
        <time>2020-08-28T21:36:47.148Z</time>
      </trkpt>
      <trkpt lat="63.67937" lon="20.06131">
        <ele>7.396115</ele>
        <time>2020-08-28T21:36:52.485Z</time>
      </trkpt>
      <trkpt lat="63.67947" lon="20.06094">
        <ele>7.390107</ele>
        <time>2020-08-28T21:36:55.965Z</time>
      </trkpt>
      <trkpt lat="63.67982" lon="20.05968">
        <ele>7.369738</ele>
        <time>2020-08-28T21:37:07.939Z</time>
      </trkpt>
      <trkpt lat="63.67997" lon="20.05876">
        <ele>7.401426</ele>
        <time>2020-08-28T21:37:16.097Z</time>
      </trkpt>
      <trkpt lat="63.68028" lon="20.0552">
        <ele>7.901425</ele>
        <time>2020-08-28T21:37:46.493Z</time>
      </trkpt>
      <trkpt lat="63.68034" lon="20.05458">
        <ele>8.009068</ele>
        <time>2020-08-28T21:37:51.787Z</time>
      </trkpt>
      <trkpt lat="63.68043" lon="20.05368">
        <ele>8.172777</ele>
        <time>2020-08-28T21:37:59.486Z</time>
      </trkpt>
      <trkpt lat="63.68088" lon="20.05042">
        <ele>8.813395</ele>
        <time>2020-08-28T21:38:28.680Z</time>
      </trkpt>
      <trkpt lat="63.68095" lon="20.04989">
        <ele>8.938269</ele>
        <time>2020-08-28T21:38:33.539Z</time>
      </trkpt>
      <trkpt lat="63.68134" lon="20.04712">
        <ele>9.575499</ele>
        <time>2020-08-28T21:38:58.789Z</time>
      </trkpt>
      <trkpt lat="63.68143" lon="20.04644">
        <ele>9.677824</ele>
        <time>2020-08-28T21:39:04.899Z</time>
      </trkpt>
      <trkpt lat="63.68165" lon="20.0434">
        <ele>10.123798</ele>
        <time>2020-08-28T21:39:30.489Z</time>
      </trkpt>
      <trkpt lat="63.68166" lon="20.04192">
        <ele>10.088508</ele>
        <time>2020-08-28T21:39:42.272Z</time>
      </trkpt>
      <trkpt lat="63.68154" lon="20.03912">
        <ele>9.982627</ele>
        <time>2020-08-28T21:40:04.017Z</time>
      </trkpt>
      <trkpt lat="63.6815" lon="20.03714">
        <ele>9.783141</ele>
        <time>2020-08-28T21:40:19.096Z</time>
      </trkpt>
      <trkpt lat="63.68147" lon="20.03584">
        <ele>9.652774</ele>
        <time>2020-08-28T21:40:28.977Z</time>
      </trkpt>
      <trkpt lat="63.68134" lon="20.03441">
        <ele>9.592191</ele>
        <time>2020-08-28T21:40:40.235Z</time>
      </trkpt>
      <trkpt lat="63.68088" lon="20.03301">
        <ele>9.596299</ele>
        <time>2020-08-28T21:40:53.843Z</time>
      </trkpt>
      <trkpt lat="63.67995" lon="20.03078">
        <ele>9.760848</ele>
        <time>2020-08-28T21:41:18.660Z</time>
      </trkpt>
      <trkpt lat="63.67966" lon="20.02997">
        <ele>9.866904</ele>
        <time>2020-08-28T21:41:27.187Z</time>
      </trkpt>
      <trkpt lat="63.67962" lon="20.02985">
        <ele>9.881402</ele>
        <time>2020-08-28T21:41:28.327Z</time>
      </trkpt>
      <trkpt lat="63.67951" lon="20.02937">
        <ele>9.937128</ele>
        <time>2020-08-28T21:41:32.882Z</time>
      </trkpt>
      <trkpt lat="63.67949" lon="20.02925">
        <ele>9.95008</ele>
        <time>2020-08-28T21:41:33.952Z</time>
      </trkpt>
      <trkpt lat="63.67944" lon="20.02885">
        <ele>9.992035</ele>
        <time>2020-08-28T21:41:37.390Z</time>
      </trkpt>
      <trkpt lat="63.67937" lon="20.02682">
        <ele>10.664809</ele>
        <time>2020-08-28T21:41:54.952Z</time>
      </trkpt>
      <trkpt lat="63.67937" lon="20.02673">
        <ele>10.69792</ele>
        <time>2020-08-28T21:41:55.734Z</time>
      </trkpt>
      <trkpt lat="63.67931" lon="20.02459">
        <ele>11.463378</ele>
        <time>2020-08-28T21:42:15.724Z</time>
      </trkpt>
      <trkpt lat="63.67938" lon="20.02372">
        <ele>11.918724</ele>
        <time>2020-08-28T21:42:24.847Z</time>
      </trkpt>
      <trkpt lat="63.67962" lon="20.02277">
        <ele>12.483976</ele>
        <time>2020-08-28T21:42:35.956Z</time>
      </trkpt>
      <trkpt lat="63.6799" lon="20.02211">
        <ele>12.949016</ele>
        <time>2020-08-28T21:42:44.738Z</time>
      </trkpt>
      <trkpt lat="63.68028" lon="20.02126">
        <ele>13.534081</ele>
        <time>2020-08-28T21:42:55.824Z</time>
      </trkpt>
      <trkpt lat="63.68065" lon="20.02037">
        <ele>13.257798</ele>
        <time>2020-08-28T21:43:05.877Z</time>
      </trkpt>
      <trkpt lat="63.68089" lon="20.01946">
        <ele>13.015429</ele>
        <time>2020-08-28T21:43:13.860Z</time>
      </trkpt>
      <trkpt lat="63.68098" lon="20.01875">
        <ele>12.847458</ele>
        <time>2020-08-28T21:43:18.888Z</time>
      </trkpt>
      <trkpt lat="63.68095" lon="20.01785">
        <ele>12.641545</ele>
        <time>2020-08-28T21:43:24.701Z</time>
      </trkpt>
      <trkpt lat="63.68065" lon="20.01629">
        <ele>11.783265</ele>
        <time>2020-08-28T21:43:35.713Z</time>
      </trkpt>
      <trkpt lat="63.6806" lon="20.01539">
        <ele>11.310085</ele>
        <time>2020-08-28T21:43:41.794Z</time>
      </trkpt>
      <trkpt lat="63.68059" lon="20.01526">
        <ele>11.241222</ele>
        <time>2020-08-28T21:43:42.617Z</time>
      </trkpt>
      <trkpt lat="63.68051" lon="20.01219">
        <ele>10.299533</ele>
        <time>2020-08-28T21:44:04.676Z</time>
      </trkpt>
      <trkpt lat="63.68049" lon="20.01031">
        <ele>10.063824</ele>
        <time>2020-08-28T21:44:19.467Z</time>
      </trkpt>
      <trkpt lat="63.68053" lon="20.00803">
        <ele>9.997369</ele>
        <time>2020-08-28T21:44:37.624Z</time>
      </trkpt>
      <trkpt lat="63.68015" lon="20.00811">
        <ele>9.9961</ele>
        <time>2020-08-28T21:44:44.381Z</time>
      </trkpt>
      <trkpt lat="63.67964" lon="20.00844">
        <ele>9.994311</ele>
        <time>2020-08-28T21:44:53.886Z</time>
      </trkpt>
      <trkpt lat="63.67929" lon="20.00853">
        <ele>9.934413</ele>
        <time>2020-08-28T21:45:00.189Z</time>
      </trkpt>
      <trkpt lat="63.67925" lon="20.00851">
        <ele>9.924408</ele>
        <time>2020-08-28T21:45:00.939Z</time>
      </trkpt>
      <trkpt lat="63.67894" lon="20.00834">
        <ele>9.849621</ele>
        <time>2020-08-28T21:45:06.506Z</time>
      </trkpt>
      <trkpt lat="63.6786" lon="20.00794">
        <ele>9.757015</ele>
        <time>2020-08-28T21:45:13.187Z</time>
      </trkpt>
      <trkpt lat="63.6785" lon="20.00783">
        <ele>9.732231</ele>
        <time>2020-08-28T21:45:14.945Z</time>
      </trkpt>
      <trkpt lat="63.6782" lon="20.00713">
        <ele>9.629186</ele>
        <time>2020-08-28T21:45:22.142Z</time>
      </trkpt>
      <trkpt lat="63.678" lon="20.00634">
        <ele>9.510419</ele>
        <time>2020-08-28T21:45:28.854Z</time>
      </trkpt>
      <trkpt lat="63.67756" lon="20.00467">
        <ele>9.175365</ele>
        <time>2020-08-28T21:45:43.105Z</time>
      </trkpt>
      <trkpt lat="63.67745" lon="20.00429">
        <ele>9.095943</ele>
        <time>2020-08-28T21:45:46.554Z</time>
      </trkpt>
      <trkpt lat="63.67732" lon="20.00386">
        <ele>9.00634</ele>
        <time>2020-08-28T21:45:50.555Z</time>
      </trkpt>
      <trkpt lat="63.6769" lon="20.00235">
        <ele>8.923452</ele>
        <time>2020-08-28T21:46:04.172Z</time>
      </trkpt>
      <trkpt lat="63.67668" lon="20.00213">
        <ele>8.956654</ele>
        <time>2020-08-28T21:46:08.408Z</time>
      </trkpt>
      <trkpt lat="63.67533" lon="20.00127">
        <ele>9.15696</ele>
        <time>2020-08-28T21:46:34.988Z</time>
      </trkpt>
      <trkpt lat="63.67497" lon="20.00083">
        <ele>9.21678</ele>
        <time>2020-08-28T21:46:42.459Z</time>
      </trkpt>
      <trkpt lat="63.67433" lon="19.99909">
        <ele>9.365521</ele>
        <time>2020-08-28T21:47:00.626Z</time>
      </trkpt>
      <trkpt lat="63.67382" lon="20.00032">
        <ele>9.419509</ele>
        <time>2020-08-28T21:47:13.972Z</time>
      </trkpt>
      <trkpt lat="63.67364" lon="20.0007">
        <ele>9.434037</ele>
        <time>2020-08-28T21:47:18.503Z</time>
      </trkpt>
      <trkpt lat="63.67321" lon="20.00134">
        <ele>9.464005</ele>
        <time>2020-08-28T21:47:27.857Z</time>
      </trkpt>
      <trkpt lat="63.67269" lon="20.00193">
        <ele>9.509014</ele>
        <time>2020-08-28T21:47:38.335Z</time>
      </trkpt>
      <trkpt lat="63.67238" lon="20.00228">
        <ele>9.552588</ele>
        <time>2020-08-28T21:47:44.746Z</time>
      </trkpt>
      <trkpt lat="63.67209" lon="20.00261">
        <ele>9.593808</ele>
        <time>2020-08-28T21:47:50.819Z</time>
      </trkpt>
      <trkpt lat="63.67175" lon="20.00276">
        <ele>9.637037</ele>
        <time>2020-08-28T21:47:57.149Z</time>
      </trkpt>
      <trkpt lat="63.67143" lon="20.0027">
        <ele>9.677935</ele>
        <time>2020-08-28T21:48:03.114Z</time>
      </trkpt>
      <trkpt lat="63.67112" lon="20.00241">
        <ele>9.706342</ele>
        <time>2020-08-28T21:48:09.082Z</time>
      </trkpt>
      <trkpt lat="63.67101" lon="20.0023">
        <ele>9.689451</ele>
        <time>2020-08-28T21:48:11.344Z</time>
      </trkpt>
      <trkpt lat="63.67028" lon="20.00154">
        <ele>9.583349</ele>
        <time>2020-08-28T21:48:25.192Z</time>
      </trkpt>
      <trkpt lat="63.66852" lon="19.99967">
        <ele>9.345622</ele>
        <time>2020-08-28T21:48:59.026Z</time>
      </trkpt>
      <trkpt lat="63.66775" lon="19.99885">
        <ele>9.224752</ele>
        <time>2020-08-28T21:49:13.998Z</time>
      </trkpt>
      <trkpt lat="63.66751" lon="19.99856">
        <ele>9.155824</ele>
        <time>2020-08-28T21:49:18.752Z</time>
      </trkpt>
      <trkpt lat="63.66729" lon="19.99845">
        <ele>9.097608</ele>
        <time>2020-08-28T21:49:22.766Z</time>
      </trkpt>
      <trkpt lat="63.66699" lon="19.99842">
        <ele>9.020557</ele>
        <time>2020-08-28T21:49:28.074Z</time>
      </trkpt>
      <trkpt lat="63.66605" lon="19.99872">
        <ele>8.703492</ele>
        <time>2020-08-28T21:49:43.833Z</time>
      </trkpt>
      <trkpt lat="63.66547" lon="19.99831">
        <ele>8.185672</ele>
        <time>2020-08-28T21:49:53.547Z</time>
      </trkpt>
      <trkpt lat="63.66501" lon="19.99797">
        <ele>7.773634</ele>
        <time>2020-08-28T21:50:01.165Z</time>
      </trkpt>
      <trkpt lat="63.66476" lon="19.99776">
        <ele>7.545539</ele>
        <time>2020-08-28T21:50:05.266Z</time>
      </trkpt>
      <trkpt lat="63.66374" lon="19.9969">
        <ele>6.315196</ele>
        <time>2020-08-28T21:50:21.819Z</time>
      </trkpt>
      <trkpt lat="63.66361" lon="19.99677">
        <ele>6.138973</ele>
        <time>2020-08-28T21:50:24.009Z</time>
      </trkpt>
      <trkpt lat="63.66357" lon="19.99674">
        <ele>6.090681</ele>
        <time>2020-08-28T21:50:24.541Z</time>
      </trkpt>
      <trkpt lat="63.66274" lon="19.99593">
        <ele>4.994027</ele>
        <time>2020-08-28T21:50:38.153Z</time>
      </trkpt>
      <trkpt lat="63.66242" lon="19.99571">
        <ele>4.655218</ele>
        <time>2020-08-28T21:50:43.275Z</time>
      </trkpt>
      <trkpt lat="63.66205" lon="19.99566">
        <ele>4.287457</ele>
        <time>2020-08-28T21:50:48.829Z</time>
      </trkpt>
      <trkpt lat="63.6591" lon="19.9956">
        <ele>1.956272</ele>
        <time>2020-08-28T21:51:35.554Z</time>
      </trkpt>
      <trkpt lat="63.65842" lon="19.99573">
        <ele>2.072383</ele>
        <time>2020-08-28T21:51:47.657Z</time>
      </trkpt>
      <trkpt lat="63.65763" lon="19.99544">
        <ele>2.205989</ele>
        <time>2020-08-28T21:52:02.772Z</time>
      </trkpt>
      <trkpt lat="63.65727" lon="19.9951">
        <ele>2.446587</ele>
        <time>2020-08-28T21:52:10.790Z</time>
      </trkpt>
      <trkpt lat="63.6566" lon="19.99353">
        <ele>3.468054</ele>
        <time>2020-08-28T21:52:31.448Z</time>
      </trkpt>
      <trkpt lat="63.65577" lon="19.99247">
        <ele>4.562344</ele>
        <time>2020-08-28T21:52:52.216Z</time>
      </trkpt>
      <trkpt lat="63.65531" lon="19.99172">
        <ele>5.336415</ele>
        <time>2020-08-28T21:53:05.121Z</time>
      </trkpt>
      <trkpt lat="63.65469" lon="19.99045">
        <ele>6.468196</ele>
        <time>2020-08-28T21:53:23.772Z</time>
      </trkpt>
      <trkpt lat="63.65446" lon="19.99012">
        <ele>6.766533</ele>
        <time>2020-08-28T21:53:29.789Z</time>
      </trkpt>
      <trkpt lat="63.6542" lon="19.98974">
        <ele>7.069452</ele>
        <time>2020-08-28T21:53:36.318Z</time>
      </trkpt>
      <trkpt lat="63.65393" lon="19.98937">
        <ele>7.385627</ele>
        <time>2020-08-28T21:53:43.023Z</time>
      </trkpt>
      <trkpt lat="63.65364" lon="19.98921">
        <ele>7.678686</ele>
        <time>2020-08-28T21:53:49.188Z</time>
      </trkpt>
      <trkpt lat="63.65352" lon="19.98914">
        <ele>7.805304</ele>
        <time>2020-08-28T21:53:51.831Z</time>
      </trkpt>
      <trkpt lat="63.65295" lon="19.98911">
        <ele>8.363257</ele>
        <time>2020-08-28T21:54:03.343Z</time>
      </trkpt>
      <trkpt lat="63.65283" lon="19.98912">
        <ele>8.47091</ele>
        <time>2020-08-28T21:54:05.772Z</time>
      </trkpt>
      <trkpt lat="63.65165" lon="19.98927">
        <ele>9.511156</ele>
        <time>2020-08-28T21:54:29.416Z</time>
      </trkpt>
      <trkpt lat="63.65137" lon="19.98915">
        <ele>9.764334</ele>
        <time>2020-08-28T21:54:35.444Z</time>
      </trkpt>
      <trkpt lat="63.65096" lon="19.98858">
        <ele>10.490728</ele>
        <time>2020-08-28T21:54:46.138Z</time>
      </trkpt>
      <trkpt lat="63.65064" lon="19.98765">
        <ele>11.481713</ele>
        <time>2020-08-28T21:54:58.301Z</time>
      </trkpt>
      <trkpt lat="63.65041" lon="19.98729">
        <ele>12.012582</ele>
        <time>2020-08-28T21:55:05.095Z</time>
      </trkpt>
      <trkpt lat="63.6502" lon="19.98713">
        <ele>12.442342</ele>
        <time>2020-08-28T21:55:10.696Z</time>
      </trkpt>
      <trkpt lat="63.64941" lon="19.98721">
        <ele>14.103805</ele>
        <time>2020-08-28T21:55:30.522Z</time>
      </trkpt>
      <trkpt lat="63.64913" lon="19.98707">
        <ele>14.817735</ele>
        <time>2020-08-28T21:55:38.614Z</time>
      </trkpt>
      <trkpt lat="63.64881" lon="19.98676">
        <ele>15.690799</ele>
        <time>2020-08-28T21:55:48.207Z</time>
      </trkpt>
      <trkpt lat="63.64811" lon="19.98548">
        <ele>17.861642</ele>
        <time>2020-08-28T21:56:10.931Z</time>
      </trkpt>
      <trkpt lat="63.64806" lon="19.9853">
        <ele>17.980317</ele>
        <time>2020-08-28T21:56:13.747Z</time>
      </trkpt>
      <trkpt lat="63.64791" lon="19.98483">
        <ele>18.293642</ele>
        <time>2020-08-28T21:56:19.358Z</time>
      </trkpt>
      <trkpt lat="63.64754" lon="19.98315">
        <ele>19.316892</ele>
        <time>2020-08-28T21:56:38.269Z</time>
      </trkpt>
      <trkpt lat="63.64739" lon="19.98276">
        <ele>19.591255</ele>
        <time>2020-08-28T21:56:42.509Z</time>
      </trkpt>
      <trkpt lat="63.64663" lon="19.98168">
        <ele>20.018715</ele>
        <time>2020-08-28T21:56:59.246Z</time>
      </trkpt>
      <trkpt lat="63.6463" lon="19.98118">
        <ele>20.023985</ele>
        <time>2020-08-28T21:57:06.082Z</time>
      </trkpt>
      <trkpt lat="63.64611" lon="19.98073">
        <ele>20.02774</ele>
        <time>2020-08-28T21:57:10.960Z</time>
      </trkpt>
      <trkpt lat="63.6457" lon="19.97975">
        <ele>20.034748</ele>
        <time>2020-08-28T21:57:21.430Z</time>
      </trkpt>
      <trkpt lat="63.64552" lon="19.97901">
        <ele>20.027387</ele>
        <time>2020-08-28T21:57:28.010Z</time>
      </trkpt>
      <trkpt lat="63.64539" lon="19.97817">
        <ele>20.01962</ele>
        <time>2020-08-28T21:57:35.017Z</time>
      </trkpt>
      <trkpt lat="63.64465" lon="19.97629">
        <ele>20.000012</ele>
        <time>2020-08-28T21:57:54.927Z</time>
      </trkpt>
      <trkpt lat="63.64431" lon="19.97515">
        <ele>20.000012</ele>
        <time>2020-08-28T21:58:05.739Z</time>
      </trkpt>
      <trkpt lat="63.64415" lon="19.97485">
        <ele>20.000012</ele>
        <time>2020-08-28T21:58:09.440Z</time>
      </trkpt>
      <trkpt lat="63.64317" lon="19.97367">
        <ele>20.000012</ele>
        <time>2020-08-28T21:58:29.404Z</time>
      </trkpt>
      <trkpt lat="63.64293" lon="19.97325">
        <ele>20.000012</ele>
        <time>2020-08-28T21:58:34.768Z</time>
      </trkpt>
      <trkpt lat="63.64274" lon="19.9727">
        <ele>20.000012</ele>
        <time>2020-08-28T21:58:40.297Z</time>
      </trkpt>
      <trkpt lat="63.64262" lon="19.97221">
        <ele>20.000012</ele>
        <time>2020-08-28T21:58:44.711Z</time>
      </trkpt>
      <trkpt lat="63.64253" lon="19.97053">
        <ele>20.000012</ele>
        <time>2020-08-28T21:58:58.170Z</time>
      </trkpt>
      <trkpt lat="63.64224" lon="19.96914">
        <ele>20.000012</ele>
        <time>2020-08-28T21:59:10.299Z</time>
      </trkpt>
      <trkpt lat="63.64167" lon="19.96725">
        <ele>20.000012</ele>
        <time>2020-08-28T21:59:28.409Z</time>
      </trkpt>
      <trkpt lat="63.6413" lon="19.96583">
        <ele>20.000012</ele>
        <time>2020-08-28T21:59:41.513Z</time>
      </trkpt>
      <trkpt lat="63.64119" lon="19.96503">
        <ele>20.000012</ele>
        <time>2020-08-28T21:59:48.128Z</time>
      </trkpt>
      <trkpt lat="63.64115" lon="19.96393">
        <ele>20.000012</ele>
        <time>2020-08-28T21:59:56.833Z</time>
      </trkpt>
      <trkpt lat="63.64113" lon="19.96219">
        <ele>20.000012</ele>
        <time>2020-08-28T22:00:10.686Z</time>
      </trkpt>
      <trkpt lat="63.64133" lon="19.9603">
        <ele>20.000012</ele>
        <time>2020-08-28T22:00:26.039Z</time>
      </trkpt>
      <trkpt lat="63.64134" lon="19.95867">
        <ele>20.0243</ele>
        <time>2020-08-28T22:00:38.934Z</time>
      </trkpt>
      <trkpt lat="63.64119" lon="19.95796">
        <ele>20.051618</ele>
        <time>2020-08-28T22:00:45.186Z</time>
      </trkpt>
      <trkpt lat="63.64094" lon="19.95721">
        <ele>20.083631</ele>
        <time>2020-08-28T22:00:52.548Z</time>
      </trkpt>
      <trkpt lat="63.64044" lon="19.9563">
        <ele>20.134107</ele>
        <time>2020-08-28T22:01:04.343Z</time>
      </trkpt>
      <trkpt lat="63.64013" lon="19.95554">
        <ele>20.481502</ele>
        <time>2020-08-28T22:01:12.806Z</time>
      </trkpt>
      <trkpt lat="63.64001" lon="19.95496">
        <ele>20.738774</ele>
        <time>2020-08-28T22:01:18.198Z</time>
      </trkpt>
      <trkpt lat="63.63994" lon="19.95432">
        <ele>21.002308</ele>
        <time>2020-08-28T22:01:23.983Z</time>
      </trkpt>
      <trkpt lat="63.63992" lon="19.95355">
        <ele>21.309399</ele>
        <time>2020-08-28T22:01:31.137Z</time>
      </trkpt>
      <trkpt lat="63.63996" lon="19.95296">
        <ele>21.548028</ele>
        <time>2020-08-28T22:01:37.088Z</time>
      </trkpt>
      <trkpt lat="63.64003" lon="19.95256">
        <ele>21.719833</ele>
        <time>2020-08-28T22:01:41.622Z</time>
      </trkpt>
      <trkpt lat="63.64026" lon="19.9518">
        <ele>22.60236</ele>
        <time>2020-08-28T22:01:51.703Z</time>
      </trkpt>
      <trkpt lat="63.64057" lon="19.95108">
        <ele>23.645179</ele>
        <time>2020-08-28T22:02:03.163Z</time>
      </trkpt>
      <trkpt lat="63.6408" lon="19.95057">
        <ele>24.389806</ele>
        <time>2020-08-28T22:02:11.460Z</time>
      </trkpt>
      <trkpt lat="63.64115" lon="19.94974">
        <ele>25.582195</ele>
        <time>2020-08-28T22:02:24.942Z</time>
      </trkpt>
      <trkpt lat="63.64136" lon="19.94896">
        <ele>26.272002</ele>
        <time>2020-08-28T22:02:35.528Z</time>
      </trkpt>
      <trkpt lat="63.64153" lon="19.94716">
        <ele>27.324558</ele>
        <time>2020-08-28T22:02:55.051Z</time>
      </trkpt>
      <trkpt lat="63.64174" lon="19.94561">
        <ele>28.248707</ele>
        <time>2020-08-28T22:03:08.772Z</time>
      </trkpt>
      <trkpt lat="63.64177" lon="19.94422">
        <ele>27.673712</ele>
        <time>2020-08-28T22:03:19.054Z</time>
      </trkpt>
      <trkpt lat="63.64164" lon="19.94245">
        <ele>26.891891</ele>
        <time>2020-08-28T22:03:31.071Z</time>
      </trkpt>
      <trkpt lat="63.64139" lon="19.94123">
        <ele>26.106724</ele>
        <time>2020-08-28T22:03:39.682Z</time>
      </trkpt>
      <trkpt lat="63.64069" lon="19.93939">
        <ele>23.946766</ele>
        <time>2020-08-28T22:03:54.938Z</time>
      </trkpt>
      <trkpt lat="63.64056" lon="19.93875">
        <ele>23.312787</ele>
        <time>2020-08-28T22:03:59.360Z</time>
      </trkpt>
      <trkpt lat="63.64045" lon="19.9366">
        <ele>20.894255</ele>
        <time>2020-08-28T22:04:12.596Z</time>
      </trkpt>
      <trkpt lat="63.64029" lon="19.93518">
        <ele>19.146571</ele>
        <time>2020-08-28T22:04:21.310Z</time>
      </trkpt>
      <trkpt lat="63.64009" lon="19.93438">
        <ele>18.067241</ele>
        <time>2020-08-28T22:04:26.629Z</time>
      </trkpt>
      <trkpt lat="63.63992" lon="19.93395">
        <ele>17.3771</ele>
        <time>2020-08-28T22:04:29.980Z</time>
      </trkpt>
      <trkpt lat="63.63951" lon="19.93323">
        <ele>15.999094</ele>
        <time>2020-08-28T22:04:36.961Z</time>
      </trkpt>
      <trkpt lat="63.63945" lon="19.93305">
        <ele>15.736968</ele>
        <time>2020-08-28T22:04:38.201Z</time>
      </trkpt>
      <trkpt lat="63.63941" lon="19.93292">
        <ele>15.554023</ele>
        <time>2020-08-28T22:04:39.069Z</time>
      </trkpt>
      <trkpt lat="63.63937" lon="19.93217">
        <ele>14.658114</ele>
        <time>2020-08-28T22:04:43.632Z</time>
      </trkpt>
      <trkpt lat="63.63953" lon="19.93009">
        <ele>12.835496</ele>
        <time>2020-08-28T22:04:56.860Z</time>
      </trkpt>
      <trkpt lat="63.6396" lon="19.92856">
        <ele>12.093991</ele>
        <time>2020-08-28T22:05:07.367Z</time>
      </trkpt>
      <trkpt lat="63.63961" lon="19.9282">
        <ele>11.918744</ele>
        <time>2020-08-28T22:05:10.076Z</time>
      </trkpt>
      <trkpt lat="63.63962" lon="19.92727">
        <ele>11.469885</ele>
        <time>2020-08-28T22:05:16.986Z</time>
      </trkpt>
      <trkpt lat="63.63959" lon="19.92702">
        <ele>11.34561</ele>
        <time>2020-08-28T22:05:18.842Z</time>
      </trkpt>
      <trkpt lat="63.63957" lon="19.92687">
        <ele>11.318242</ele>
        <time>2020-08-28T22:05:20.012Z</time>
      </trkpt>
      <trkpt lat="63.63947" lon="19.9263">
        <ele>11.208881</ele>
        <time>2020-08-28T22:05:24.519Z</time>
      </trkpt>
      <trkpt lat="63.63942" lon="19.92596">
        <ele>11.14467</ele>
        <time>2020-08-28T22:05:27.227Z</time>
      </trkpt>
      <trkpt lat="63.63933" lon="19.92535">
        <ele>11.030225</ele>
        <time>2020-08-28T22:05:32.020Z</time>
      </trkpt>
      <trkpt lat="63.63933" lon="19.92483">
        <ele>10.936915</ele>
        <time>2020-08-28T22:05:35.975Z</time>
      </trkpt>
      <trkpt lat="63.63938" lon="19.92424">
        <ele>10.828943</ele>
        <time>2020-08-28T22:05:40.541Z</time>
      </trkpt>
      <trkpt lat="63.63922" lon="19.92406">
        <ele>10.757937</ele>
        <time>2020-08-28T22:05:43.444Z</time>
      </trkpt>
      <trkpt lat="63.63871" lon="19.92344">
        <ele>10.501702</ele>
        <time>2020-08-28T22:05:53.049Z</time>
      </trkpt>
      <trkpt lat="63.63745" lon="19.92126">
        <ele>9.723414</ele>
        <time>2020-08-28T22:06:19.041Z</time>
      </trkpt>
      <trkpt lat="63.6368" lon="19.92067">
        <ele>9.500526</ele>
        <time>2020-08-28T22:06:30.906Z</time>
      </trkpt>
      <trkpt lat="63.63614" lon="19.92048">
        <ele>9.291688</ele>
        <time>2020-08-28T22:06:42.207Z</time>
      </trkpt>
      <trkpt lat="63.63591" lon="19.9205">
        <ele>9.220375</ele>
        <time>2020-08-28T22:06:46.100Z</time>
      </trkpt>
      <trkpt lat="63.63548" lon="19.92063">
        <ele>9.143529</ele>
        <time>2020-08-28T22:06:53.709Z</time>
      </trkpt>
      <trkpt lat="63.63138" lon="19.92334">
        <ele>8.726828</ele>
        <time>2020-08-28T22:08:08.915Z</time>
      </trkpt>
      <trkpt lat="63.63118" lon="19.92337">
        <ele>8.697244</ele>
        <time>2020-08-28T22:08:12.362Z</time>
      </trkpt>
      <trkpt lat="63.63099" lon="19.9234">
        <ele>8.668516</ele>
        <time>2020-08-28T22:08:15.654Z</time>
      </trkpt>
      <trkpt lat="63.6305" lon="19.92334">
        <ele>8.593047</ele>
        <time>2020-08-28T22:08:24.201Z</time>
      </trkpt>
      <trkpt lat="63.6302" lon="19.92319">
        <ele>8.53026</ele>
        <time>2020-08-28T22:08:29.279Z</time>
      </trkpt>
      <trkpt lat="63.62772" lon="19.92121">
        <ele>8.005916</ele>
        <time>2020-08-28T22:09:14.904Z</time>
      </trkpt>
      <trkpt lat="63.62761" lon="19.92113">
        <ele>7.984205</ele>
        <time>2020-08-28T22:09:16.946Z</time>
      </trkpt>
      <trkpt lat="63.62722" lon="19.92077">
        <ele>7.907961</ele>
        <time>2020-08-28T22:09:24.116Z</time>
      </trkpt>
      <trkpt lat="63.62658" lon="19.91991">
        <ele>7.50253</ele>
        <time>2020-08-28T22:09:36.832Z</time>
      </trkpt>
      <trkpt lat="63.62631" lon="19.91942">
        <ele>7.297212</ele>
        <time>2020-08-28T22:09:42.477Z</time>
      </trkpt>
      <trkpt lat="63.62593" lon="19.91841">
        <ele>6.944516</ele>
        <time>2020-08-28T22:09:51.919Z</time>
      </trkpt>
      <trkpt lat="63.62569" lon="19.91772">
        <ele>6.616073</ele>
        <time>2020-08-28T22:09:57.933Z</time>
      </trkpt>
      <trkpt lat="63.62537" lon="19.91653">
        <ele>5.885212</ele>
        <time>2020-08-28T22:10:07.471Z</time>
      </trkpt>
      <trkpt lat="63.62451" lon="19.91341">
        <ele>3.999947</ele>
        <time>2020-08-28T22:10:31.815Z</time>
      </trkpt>
      <trkpt lat="63.62417" lon="19.91214">
        <ele>3.255231</ele>
        <time>2020-08-28T22:10:41.802Z</time>
      </trkpt>
      <trkpt lat="63.62402" lon="19.91158">
        <ele>2.925064</ele>
        <time>2020-08-28T22:10:46.267Z</time>
      </trkpt>
      <trkpt lat="63.62385" lon="19.91091">
        <ele>2.627922</ele>
        <time>2020-08-28T22:10:51.647Z</time>
      </trkpt>
      <trkpt lat="63.62363" lon="19.91008">
        <ele>2.477768</ele>
        <time>2020-08-28T22:10:58.645Z</time>
      </trkpt>
      <trkpt lat="63.62326" lon="19.9087">
        <ele>2.226735</ele>
        <time>2020-08-28T22:11:10.763Z</time>
      </trkpt>
      <trkpt lat="63.62328" lon="19.90864">
        <ele>2.215099</ele>
        <time>2020-08-28T22:11:11.400Z</time>
      </trkpt>
      <trkpt lat="63.62329" lon="19.90853">
        <ele>2.197829</ele>
        <time>2020-08-28T22:11:12.266Z</time>
      </trkpt>
      <trkpt lat="63.62328" lon="19.90844">
        <ele>2.183349</ele>
        <time>2020-08-28T22:11:13.023Z</time>
      </trkpt>
      <trkpt lat="63.62326" lon="19.90835">
        <ele>2.16751</ele>
        <time>2020-08-28T22:11:13.819Z</time>
      </trkpt>
      <trkpt lat="63.62317" lon="19.90827">
        <ele>2.135733</ele>
        <time>2020-08-28T22:11:15.405Z</time>
      </trkpt>
      <trkpt lat="63.62314" lon="19.90828">
        <ele>2.121967</ele>
        <time>2020-08-28T22:11:16.101Z</time>
      </trkpt>
      <trkpt lat="63.62309" lon="19.9081">
        <ele>2.090974</ele>
        <time>2020-08-28T22:11:17.787Z</time>
      </trkpt>
      <trkpt lat="63.62293" lon="19.90729">
        <ele>2.140455</ele>
        <time>2020-08-28T22:11:25.081Z</time>
      </trkpt>
      <trkpt lat="63.62283" lon="19.90384">
        <ele>2.752015</ele>
        <time>2020-08-28T22:11:54.712Z</time>
      </trkpt>
      <trkpt lat="63.62281" lon="19.90335">
        <ele>2.890204</ele>
        <time>2020-08-28T22:11:59.046Z</time>
      </trkpt>
      <trkpt lat="63.62278" lon="19.902">
        <ele>3.279012</ele>
        <time>2020-08-28T22:12:10.987Z</time>
      </trkpt>
      <trkpt lat="63.62274" lon="19.90069">
        <ele>3.655731</ele>
        <time>2020-08-28T22:12:22.757Z</time>
      </trkpt>
      <trkpt lat="63.62271" lon="19.90002">
        <ele>3.849603</ele>
        <time>2020-08-28T22:12:28.792Z</time>
      </trkpt>
      <trkpt lat="63.62271" lon="19.89986">
        <ele>3.893005</ele>
        <time>2020-08-28T22:12:30.204Z</time>
      </trkpt>
      <trkpt lat="63.62267" lon="19.89763">
        <ele>4.409997</ele>
        <time>2020-08-28T22:12:49.826Z</time>
      </trkpt>
      <trkpt lat="63.62268" lon="19.89736">
        <ele>4.472075</ele>
        <time>2020-08-28T22:12:52.276Z</time>
      </trkpt>
      <trkpt lat="63.62261" lon="19.89716">
        <ele>4.530738</ele>
        <time>2020-08-28T22:12:54.420Z</time>
      </trkpt>
      <trkpt lat="63.62248" lon="19.89683">
        <ele>4.632237</ele>
        <time>2020-08-28T22:12:58.222Z</time>
      </trkpt>
      <trkpt lat="63.62214" lon="19.89599">
        <ele>4.873393</ele>
        <time>2020-08-28T22:13:07.669Z</time>
      </trkpt>
      <trkpt lat="63.62106" lon="19.89341">
        <ele>5.393058</ele>
        <time>2020-08-28T22:13:37.282Z</time>
      </trkpt>
      <trkpt lat="63.61969" lon="19.89015">
        <ele>6.590997</ele>
        <time>2020-08-28T22:14:16.626Z</time>
      </trkpt>
      <trkpt lat="63.61922" lon="19.88929">
        <ele>7.107477</ele>
        <time>2020-08-28T22:14:29.103Z</time>
      </trkpt>
      <trkpt lat="63.61838" lon="19.88789">
        <ele>8.002313</ele>
        <time>2020-08-28T22:14:50.790Z</time>
      </trkpt>
      <trkpt lat="63.61817" lon="19.88755">
        <ele>8.189705</ele>
        <time>2020-08-28T22:14:56.163Z</time>
      </trkpt>
      <trkpt lat="63.61666" lon="19.88489">
        <ele>9.32809</ele>
        <time>2020-08-28T22:15:34.370Z</time>
      </trkpt>
      <trkpt lat="63.61395" lon="19.87871">
        <ele>9.821229</ele>
        <time>2020-08-28T22:16:44.678Z</time>
      </trkpt>
      <trkpt lat="63.61135" lon="19.87407">
        <ele>9.527581</ele>
        <time>2020-08-28T22:17:42.846Z</time>
      </trkpt>
      <trkpt lat="63.61061" lon="19.87244">
        <ele>9.240706</ele>
        <time>2020-08-28T22:18:00.454Z</time>
      </trkpt>
      <trkpt lat="63.60905" lon="19.86858">
        <ele>8.408186</ele>
        <time>2020-08-28T22:18:39.208Z</time>
      </trkpt>
      <trkpt lat="63.60748" lon="19.86493">
        <ele>7.639135</ele>
        <time>2020-08-28T22:19:17.324Z</time>
      </trkpt>
      <trkpt lat="63.60555" lon="19.86048">
        <ele>6.772078</ele>
        <time>2020-08-28T22:20:04.634Z</time>
      </trkpt>
      <trkpt lat="63.60464" lon="19.85843">
        <ele>5.926572</ele>
        <time>2020-08-28T22:20:25.566Z</time>
      </trkpt>
      <trkpt lat="63.60413" lon="19.85751">
        <ele>5.419275</ele>
        <time>2020-08-28T22:20:35.807Z</time>
      </trkpt>
      <trkpt lat="63.60353" lon="19.85682">
        <ele>4.752311</ele>
        <time>2020-08-28T22:20:46.098Z</time>
      </trkpt>
      <trkpt lat="63.60305" lon="19.85654">
        <ele>4.217651</ele>
        <time>2020-08-28T22:20:53.552Z</time>
      </trkpt>
      <trkpt lat="63.60177" lon="19.8562">
        <ele>3.042445</ele>
        <time>2020-08-28T22:21:13.337Z</time>
      </trkpt>
      <trkpt lat="63.60129" lon="19.85593">
        <ele>2.748785</ele>
        <time>2020-08-28T22:21:21.301Z</time>
      </trkpt>
      <trkpt lat="63.60103" lon="19.85568">
        <ele>2.582456</ele>
        <time>2020-08-28T22:21:25.896Z</time>
      </trkpt>
      <trkpt lat="63.59943" lon="19.8534">
        <ele>2.644301</ele>
        <time>2020-08-28T22:21:59.893Z</time>
      </trkpt>
      <trkpt lat="63.59663" lon="19.84853">
        <ele>5.377217</ele>
        <time>2020-08-28T22:23:13.593Z</time>
      </trkpt>
      <trkpt lat="63.59605" lon="19.8479">
        <ele>5.788076</ele>
        <time>2020-08-28T22:23:26.184Z</time>
      </trkpt>
      <trkpt lat="63.59483" lon="19.84694">
        <ele>5.950681</ele>
        <time>2020-08-28T22:23:49.777Z</time>
      </trkpt>
      <trkpt lat="63.59463" lon="19.84679">
        <ele>5.976906</ele>
        <time>2020-08-28T22:23:53.355Z</time>
      </trkpt>
      <trkpt lat="63.59217" lon="19.84491">
        <ele>6.176765</ele>
        <time>2020-08-28T22:24:39.108Z</time>
      </trkpt>
      <trkpt lat="63.58893" lon="19.84244">
        <ele>8.506403</ele>
        <time>2020-08-28T22:25:49.175Z</time>
      </trkpt>
      <trkpt lat="63.58868" lon="19.84225">
        <ele>8.667227</ele>
        <time>2020-08-28T22:25:54.412Z</time>
      </trkpt>
      <trkpt lat="63.58697" lon="19.84116">
        <ele>9.469175</ele>
        <time>2020-08-28T22:26:28.802Z</time>
      </trkpt>
      <trkpt lat="63.58553" lon="19.84058">
        <ele>9.539783</ele>
        <time>2020-08-28T22:26:54.960Z</time>
      </trkpt>
      <trkpt lat="63.58504" lon="19.84014">
        <ele>9.351758</ele>
        <time>2020-08-28T22:27:03.887Z</time>
      </trkpt>
      <trkpt lat="63.58275" lon="19.83699">
        <ele>8.046555</ele>
        <time>2020-08-28T22:27:48.002Z</time>
      </trkpt>
      <trkpt lat="63.58272" lon="19.83695">
        <ele>8.024954</ele>
        <time>2020-08-28T22:27:48.542Z</time>
      </trkpt>
      <trkpt lat="63.58251" lon="19.83666">
        <ele>7.837163</ele>
        <time>2020-08-28T22:27:52.586Z</time>
      </trkpt>
      <trkpt lat="63.58088" lon="19.83471">
        <ele>6.530364</ele>
        <time>2020-08-28T22:28:21.663Z</time>
      </trkpt>
      <trkpt lat="63.57971" lon="19.8334">
        <ele>5.915075</ele>
        <time>2020-08-28T22:28:43.142Z</time>
      </trkpt>
      <trkpt lat="63.57908" lon="19.83269">
        <ele>6.088676</ele>
        <time>2020-08-28T22:28:55.783Z</time>
      </trkpt>
      <trkpt lat="63.57906" lon="19.83267">
        <ele>6.101528</ele>
        <time>2020-08-28T22:28:56.360Z</time>
      </trkpt>
      <trkpt lat="63.57694" lon="19.83032">
        <ele>7.673417</ele>
        <time>2020-08-28T22:29:44.460Z</time>
      </trkpt>
      <trkpt lat="63.57643" lon="19.83011">
        <ele>8.094187</ele>
        <time>2020-08-28T22:29:55.175Z</time>
      </trkpt>
      <trkpt lat="63.57505" lon="19.83025">
        <ele>9.203407</ele>
        <time>2020-08-28T22:30:23.613Z</time>
      </trkpt>
      <trkpt lat="63.57458" lon="19.83011">
        <ele>9.581921</ele>
        <time>2020-08-28T22:30:32.937Z</time>
      </trkpt>
      <trkpt lat="63.57255" lon="19.82886">
        <ele>11.170181</ele>
        <time>2020-08-28T22:31:15.014Z</time>
      </trkpt>
      <trkpt lat="63.57234" lon="19.82864">
        <ele>11.414625</ele>
        <time>2020-08-28T22:31:20.119Z</time>
      </trkpt>
      <trkpt lat="63.57155" lon="19.82757">
        <ele>12.388693</ele>
        <time>2020-08-28T22:31:40.953Z</time>
      </trkpt>
      <trkpt lat="63.56966" lon="19.82502">
        <ele>13.550411</ele>
        <time>2020-08-28T22:32:24.977Z</time>
      </trkpt>
      <trkpt lat="63.56939" lon="19.82463">
        <ele>13.159697</ele>
        <time>2020-08-28T22:32:29.810Z</time>
      </trkpt>
      <trkpt lat="63.56904" lon="19.82415">
        <ele>12.537006</ele>
        <time>2020-08-28T22:32:35.710Z</time>
      </trkpt>
      <trkpt lat="63.56881" lon="19.82376">
        <ele>12.093653</ele>
        <time>2020-08-28T22:32:39.737Z</time>
      </trkpt>
      <trkpt lat="63.56842" lon="19.82288">
        <ele>11.241823</ele>
        <time>2020-08-28T22:32:47.446Z</time>
      </trkpt>
      <trkpt lat="63.56783" lon="19.8209">
        <ele>10.60049</ele>
        <time>2020-08-28T22:33:03.183Z</time>
      </trkpt>
      <trkpt lat="63.56681" lon="19.81677">
        <ele>11.018701</ele>
        <time>2020-08-28T22:33:45.269Z</time>
      </trkpt>
      <trkpt lat="63.56676" lon="19.81651">
        <ele>11.099342</ele>
        <time>2020-08-28T22:33:48.026Z</time>
      </trkpt>
      <trkpt lat="63.56665" lon="19.81585">
        <ele>11.299951</ele>
        <time>2020-08-28T22:33:54.368Z</time>
      </trkpt>
      <trkpt lat="63.56652" lon="19.8151">
        <ele>11.462378</ele>
        <time>2020-08-28T22:34:01.243Z</time>
      </trkpt>
      <trkpt lat="63.56649" lon="19.81486">
        <ele>11.441062</ele>
        <time>2020-08-28T22:34:03.527Z</time>
      </trkpt>
      <trkpt lat="63.56638" lon="19.81393">
        <ele>11.360964</ele>
        <time>2020-08-28T22:34:11.179Z</time>
      </trkpt>
      <trkpt lat="63.56632" lon="19.81278">
        <ele>11.264885</ele>
        <time>2020-08-28T22:34:20.048Z</time>
      </trkpt>
      <trkpt lat="63.56632" lon="19.81213">
        <ele>11.210598</ele>
        <time>2020-08-28T22:34:24.755Z</time>
      </trkpt>
      <trkpt lat="63.56631" lon="19.81121">
        <ele>11.119506</ele>
        <time>2020-08-28T22:34:31.238Z</time>
      </trkpt>
      <trkpt lat="63.56637" lon="19.80605">
        <ele>9.944768</ele>
        <time>2020-08-28T22:35:08.700Z</time>
      </trkpt>
      <trkpt lat="63.56642" lon="19.80252">
        <ele>9.650947</ele>
        <time>2020-08-28T22:35:36.843Z</time>
      </trkpt>
      <trkpt lat="63.56639" lon="19.80119">
        <ele>9.557366</ele>
        <time>2020-08-28T22:35:47.360Z</time>
      </trkpt>
      <trkpt lat="63.56619" lon="19.79982">
        <ele>9.456547</ele>
        <time>2020-08-28T22:35:58.332Z</time>
      </trkpt>
      <trkpt lat="63.56579" lon="19.79791">
        <ele>9.219944</ele>
        <time>2020-08-28T22:36:14.052Z</time>
      </trkpt>
      <trkpt lat="63.56572" lon="19.79624">
        <ele>9.004068</ele>
        <time>2020-08-28T22:36:26.692Z</time>
      </trkpt>
      <trkpt lat="63.56578" lon="19.79414">
        <ele>9.001256</ele>
        <time>2020-08-28T22:36:43.185Z</time>
      </trkpt>
      <trkpt lat="63.56574" lon="19.79289">
        <ele>9.102681</ele>
        <time>2020-08-28T22:36:53.519Z</time>
      </trkpt>
      <trkpt lat="63.56557" lon="19.7914">
        <ele>9.229743</ele>
        <time>2020-08-28T22:37:06.665Z</time>
      </trkpt>
      <trkpt lat="63.56516" lon="19.78952">
        <ele>9.525004</ele>
        <time>2020-08-28T22:37:24.516Z</time>
      </trkpt>
      <trkpt lat="63.56499" lon="19.788">
        <ele>9.747113</ele>
        <time>2020-08-28T22:37:37.703Z</time>
      </trkpt>
      <trkpt lat="63.56469" lon="19.78462">
        <ele>9.945845</ele>
        <time>2020-08-28T22:38:05.547Z</time>
      </trkpt>
      <trkpt lat="63.56464" lon="19.7841">
        <ele>9.971754</ele>
        <time>2020-08-28T22:38:09.811Z</time>
      </trkpt>
      <trkpt lat="63.56404" lon="19.777">
        <ele>10.030924</ele>
        <time>2020-08-28T22:39:07.237Z</time>
      </trkpt>
      <trkpt lat="63.5633" lon="19.76824">
        <ele>10.510609</ele>
        <time>2020-08-28T22:40:19.271Z</time>
      </trkpt>
      <trkpt lat="63.56301" lon="19.762">
        <ele>12.777102</ele>
        <time>2020-08-28T22:41:15.995Z</time>
      </trkpt>
      <trkpt lat="63.56304" lon="19.75674">
        <ele>15.80561</ele>
        <time>2020-08-28T22:42:08.487Z</time>
      </trkpt>
      <trkpt lat="63.56294" lon="19.75487">
        <ele>16.868501</ele>
        <time>2020-08-28T22:42:27.363Z</time>
      </trkpt>
      <trkpt lat="63.56256" lon="19.75326">
        <ele>17.763432</ele>
        <time>2020-08-28T22:42:45.100Z</time>
      </trkpt>
      <trkpt lat="63.56188" lon="19.75128">
        <ele>18.358579</ele>
        <time>2020-08-28T22:43:07.561Z</time>
      </trkpt>
      <trkpt lat="63.56147" lon="19.74951">
        <ele>18.236118</ele>
        <time>2020-08-28T22:43:23.000Z</time>
      </trkpt>
      <trkpt lat="63.56113" lon="19.7462">
        <ele>16.546593</ele>
        <time>2020-08-28T22:43:46.044Z</time>
      </trkpt>
      <trkpt lat="63.56106" lon="19.74464">
        <ele>15.506145</ele>
        <time>2020-08-28T22:43:55.922Z</time>
      </trkpt>
      <trkpt lat="63.56106" lon="19.74332">
        <ele>14.371726</ele>
        <time>2020-08-28T22:44:04.083Z</time>
      </trkpt>
      <trkpt lat="63.56106" lon="19.74174">
        <ele>12.999529</ele>
        <time>2020-08-28T22:44:14.007Z</time>
      </trkpt>
      <trkpt lat="63.56097" lon="19.74036">
        <ele>11.92471</ele>
        <time>2020-08-28T22:44:22.866Z</time>
      </trkpt>
      <trkpt lat="63.56078" lon="19.73846">
        <ele>11.100265</ele>
        <time>2020-08-28T22:44:36.053Z</time>
      </trkpt>
      <trkpt lat="63.56062" lon="19.73579">
        <ele>10.277384</ele>
        <time>2020-08-28T22:44:56.044Z</time>
      </trkpt>
      <trkpt lat="63.56061" lon="19.73429">
        <ele>10.181399</ele>
        <time>2020-08-28T22:45:07.689Z</time>
      </trkpt>
      <trkpt lat="63.5606" lon="19.73414">
        <ele>10.171393</ele>
        <time>2020-08-28T22:45:08.922Z</time>
      </trkpt>
      <trkpt lat="63.56068" lon="19.73183">
        <ele>10.099137</ele>
        <time>2020-08-28T22:45:27.356Z</time>
      </trkpt>
      <trkpt lat="63.56189" lon="19.71193">
        <ele>10.641302</ele>
        <time>2020-08-28T22:48:09.296Z</time>
      </trkpt>
      <trkpt lat="63.56201" lon="19.71063">
        <ele>10.582596</ele>
        <time>2020-08-28T22:48:19.658Z</time>
      </trkpt>
      <trkpt lat="63.56239" lon="19.70841">
        <ele>10.425391</ele>
        <time>2020-08-28T22:48:37.978Z</time>
      </trkpt>
      <trkpt lat="63.5631" lon="19.70406">
        <ele>9.266947</ele>
        <time>2020-08-28T22:49:12.314Z</time>
      </trkpt>
      <trkpt lat="63.56324" lon="19.70316">
        <ele>8.795562</ele>
        <time>2020-08-28T22:49:18.835Z</time>
      </trkpt>
      <trkpt lat="63.5633" lon="19.70265">
        <ele>8.534252</ele>
        <time>2020-08-28T22:49:22.384Z</time>
      </trkpt>
      <trkpt lat="63.5633" lon="19.70193">
        <ele>8.180862</ele>
        <time>2020-08-28T22:49:27.161Z</time>
      </trkpt>
      <trkpt lat="63.56325" lon="19.70012">
        <ele>7.237747</ele>
        <time>2020-08-28T22:49:38.965Z</time>
      </trkpt>
      <trkpt lat="63.56322" lon="19.69957">
        <ele>6.935472</ele>
        <time>2020-08-28T22:49:42.605Z</time>
      </trkpt>
      <trkpt lat="63.5631" lon="19.69851">
        <ele>6.337784</ele>
        <time>2020-08-28T22:49:49.803Z</time>
      </trkpt>
      <trkpt lat="63.56296" lon="19.69817">
        <ele>6.088073</ele>
        <time>2020-08-28T22:49:52.928Z</time>
      </trkpt>
      <trkpt lat="63.56287" lon="19.69805">
        <ele>5.96276</ele>
        <time>2020-08-28T22:49:54.423Z</time>
      </trkpt>
      <trkpt lat="63.56201" lon="19.69774">
        <ele>5.739633</ele>
        <time>2020-08-28T22:50:08.765Z</time>
      </trkpt>
      <trkpt lat="63.56183" lon="19.6976">
        <ele>5.809506</ele>
        <time>2020-08-28T22:50:12.375Z</time>
      </trkpt>
      <trkpt lat="63.56163" lon="19.69743">
        <ele>5.886444</ele>
        <time>2020-08-28T22:50:16.388Z</time>
      </trkpt>
      <trkpt lat="63.56151" lon="19.69695">
        <ele>5.975667</ele>
        <time>2020-08-28T22:50:21.064Z</time>
      </trkpt>
      <trkpt lat="63.56145" lon="19.69644">
        <ele>6.061539</ele>
        <time>2020-08-28T22:50:26.004Z</time>
      </trkpt>
      <trkpt lat="63.56145" lon="19.69597">
        <ele>6.137932</ele>
        <time>2020-08-28T22:50:30.279Z</time>
      </trkpt>
      <trkpt lat="63.56145" lon="19.69576">
        <ele>6.172155</ele>
        <time>2020-08-28T22:50:32.472Z</time>
      </trkpt>
      <trkpt lat="63.56159" lon="19.69211">
        <ele>8.450499</ele>
        <time>2020-08-28T22:51:09.704Z</time>
      </trkpt>
      <trkpt lat="63.56167" lon="19.69114">
        <ele>9.030242</ele>
        <time>2020-08-28T22:51:19.584Z</time>
      </trkpt>
      <trkpt lat="63.56191" lon="19.68948">
        <ele>9.929916</ele>
        <time>2020-08-28T22:51:36.577Z</time>
      </trkpt>
      <trkpt lat="63.56235" lon="19.68665">
        <ele>11.340516</ele>
        <time>2020-08-28T22:52:04.653Z</time>
      </trkpt>
      <trkpt lat="63.56254" lon="19.6858">
        <ele>11.710417</ele>
        <time>2020-08-28T22:52:13.109Z</time>
      </trkpt>
      <trkpt lat="63.56275" lon="19.68512">
        <ele>12.035678</ele>
        <time>2020-08-28T22:52:20.585Z</time>
      </trkpt>
      <trkpt lat="63.56762" lon="19.67056">
        <ele>19.31405</ele>
        <time>2020-08-28T22:55:09.529Z</time>
      </trkpt>
      <trkpt lat="63.56805" lon="19.66928">
        <ele>19.561394</ele>
        <time>2020-08-28T22:55:22.902Z</time>
      </trkpt>
      <trkpt lat="63.56829" lon="19.66854">
        <ele>19.703199</ele>
        <time>2020-08-28T22:55:30.296Z</time>
      </trkpt>
      <trkpt lat="63.56872" lon="19.66765">
        <ele>19.81806</ele>
        <time>2020-08-28T22:55:40.700Z</time>
      </trkpt>
      <trkpt lat="63.5695" lon="19.66691">
        <ele>19.876504</ele>
        <time>2020-08-28T22:55:55.698Z</time>
      </trkpt>
      <trkpt lat="63.57211" lon="19.66518">
        <ele>20.286207</ele>
        <time>2020-08-28T22:56:46.006Z</time>
      </trkpt>
      <trkpt lat="63.57249" lon="19.66493">
        <ele>20.334234</ele>
        <time>2020-08-28T22:56:53.463Z</time>
      </trkpt>
      <trkpt lat="63.57566" lon="19.66283">
        <ele>20.498068</ele>
        <time>2020-08-28T22:57:52.861Z</time>
      </trkpt>
      <trkpt lat="63.57623" lon="19.66246">
        <ele>20.405328</ele>
        <time>2020-08-28T22:58:03.020Z</time>
      </trkpt>
      <trkpt lat="63.57679" lon="19.66218">
        <ele>20.314523</ele>
        <time>2020-08-28T22:58:12.949Z</time>
      </trkpt>
      <trkpt lat="63.57729" lon="19.66232">
        <ele>20.241058</ele>
        <time>2020-08-28T22:58:21.581Z</time>
      </trkpt>
      <trkpt lat="63.57802" lon="19.66227">
        <ele>20.142899</ele>
        <time>2020-08-28T22:58:34.158Z</time>
      </trkpt>
      <trkpt lat="63.57839" lon="19.66212">
        <ele>20.091326</ele>
        <time>2020-08-28T22:58:40.855Z</time>
      </trkpt>
      <trkpt lat="63.57893" lon="19.6619">
        <ele>20.059163</ele>
        <time>2020-08-28T22:58:50.547Z</time>
      </trkpt>
      <trkpt lat="63.57983" lon="19.66129">
        <ele>20.253062</ele>
        <time>2020-08-28T22:59:07.510Z</time>
      </trkpt>
      <trkpt lat="63.58068" lon="19.66087">
        <ele>20.529221</ele>
        <time>2020-08-28T22:59:24.025Z</time>
      </trkpt>
      <trkpt lat="63.5816" lon="19.66064">
        <ele>21.388109</ele>
        <time>2020-08-28T22:59:42.375Z</time>
      </trkpt>
      <trkpt lat="63.58274" lon="19.66068">
        <ele>22.794566</ele>
        <time>2020-08-28T23:00:07.974Z</time>
      </trkpt>
      <trkpt lat="63.58316" lon="19.66073">
        <ele>23.538213</ele>
        <time>2020-08-28T23:00:17.863Z</time>
      </trkpt>
      <trkpt lat="63.58395" lon="19.6604">
        <ele>24.970759</ele>
        <time>2020-08-28T23:00:37.474Z</time>
      </trkpt>
      <trkpt lat="63.58628" lon="19.65898">
        <ele>28.960025</ele>
        <time>2020-08-28T23:01:34.132Z</time>
      </trkpt>
      <trkpt lat="63.58635" lon="19.65893">
        <ele>29.04471</ele>
        <time>2020-08-28T23:01:35.715Z</time>
      </trkpt>
      <trkpt lat="63.58622" lon="19.65796">
        <ele>29.544857</ele>
        <time>2020-08-28T23:01:45.215Z</time>
      </trkpt>
      <trkpt lat="63.58584" lon="19.65532">
        <ele>30.803133</ele>
        <time>2020-08-28T23:02:10.337Z</time>
      </trkpt>
      <trkpt lat="63.58563" lon="19.65386">
        <ele>31.367533</ele>
        <time>2020-08-28T23:02:24.129Z</time>
      </trkpt>
      <trkpt lat="63.58524" lon="19.65031">
        <ele>32.921683</ele>
        <time>2020-08-28T23:02:58.039Z</time>
      </trkpt>
      <trkpt lat="63.58495" lon="19.64726">
        <ele>34.668716</ele>
        <time>2020-08-28T23:03:28.044Z</time>
      </trkpt>
      <trkpt lat="63.58467" lon="19.6423">
        <ele>38.978362</ele>
        <time>2020-08-28T23:04:20.878Z</time>
      </trkpt>
      <trkpt lat="63.58461" lon="19.6402">
        <ele>41.237038</ele>
        <time>2020-08-28T23:04:45.769Z</time>
      </trkpt>
      <trkpt lat="63.58457" lon="19.63589">
        <ele>47.474258</ele>
        <time>2020-08-28T23:05:40.721Z</time>
      </trkpt>
      <trkpt lat="63.58462" lon="19.63296">
        <ele>51.685763</ele>
        <time>2020-08-28T23:06:17.735Z</time>
      </trkpt>
      <trkpt lat="63.58482" lon="19.62889">
        <ele>57.019519</ele>
        <time>2020-08-28T23:07:07.636Z</time>
      </trkpt>
      <trkpt lat="63.58491" lon="19.6275">
        <ele>58.441281</ele>
        <time>2020-08-28T23:07:23.697Z</time>
      </trkpt>
      <trkpt lat="63.58502" lon="19.6257">
        <ele>59.87185</ele>
        <time>2020-08-28T23:07:43.401Z</time>
      </trkpt>
      <trkpt lat="63.58515" lon="19.62257">
        <ele>60.942229</ele>
        <time>2020-08-28T23:08:12.673Z</time>
      </trkpt>
      <trkpt lat="63.58518" lon="19.62107">
        <ele>60.860481</ele>
        <time>2020-08-28T23:08:24.082Z</time>
      </trkpt>
      <trkpt lat="63.58521" lon="19.61954">
        <ele>60.042179</ele>
        <time>2020-08-28T23:08:34.151Z</time>
      </trkpt>
      <trkpt lat="63.58522" lon="19.61815">
        <ele>58.411569</ele>
        <time>2020-08-28T23:08:42.495Z</time>
      </trkpt>
      <trkpt lat="63.58523" lon="19.6172">
        <ele>57.29904</ele>
        <time>2020-08-28T23:08:48.015Z</time>
      </trkpt>
      <trkpt lat="63.58523" lon="19.61679">
        <ele>56.816703</ele>
        <time>2020-08-28T23:08:50.390Z</time>
      </trkpt>
      <trkpt lat="63.58522" lon="19.6154">
        <ele>55.197594</ele>
        <time>2020-08-28T23:08:58.414Z</time>
      </trkpt>
      <trkpt lat="63.58516" lon="19.61273">
        <ele>52.092092</ele>
        <time>2020-08-28T23:09:14.365Z</time>
      </trkpt>
      <trkpt lat="63.58514" lon="19.6121">
        <ele>51.373836</ele>
        <time>2020-08-28T23:09:18.390Z</time>
      </trkpt>
      <trkpt lat="63.58523" lon="19.61117">
        <ele>51.056952</ele>
        <time>2020-08-28T23:09:25.212Z</time>
      </trkpt>
      <trkpt lat="63.58527" lon="19.60999">
        <ele>50.660105</ele>
        <time>2020-08-28T23:09:34.042Z</time>
      </trkpt>
      <trkpt lat="63.58528" lon="19.6096">
        <ele>50.532033</ele>
        <time>2020-08-28T23:09:36.971Z</time>
      </trkpt>
      <trkpt lat="63.58523" lon="19.60883">
        <ele>50.271517</ele>
        <time>2020-08-28T23:09:43.097Z</time>
      </trkpt>
      <trkpt lat="63.5851" lon="19.60801">
        <ele>50.030106</ele>
        <time>2020-08-28T23:09:50.305Z</time>
      </trkpt>
      <trkpt lat="63.58494" lon="19.60767">
        <ele>50.026341</ele>
        <time>2020-08-28T23:09:54.336Z</time>
      </trkpt>
      <trkpt lat="63.5848" lon="19.60548">
        <ele>50.00929</ele>
        <time>2020-08-28T23:10:11.884Z</time>
      </trkpt>
      <trkpt lat="63.58458" lon="19.60173">
        <ele>50.015614</ele>
        <time>2020-08-28T23:10:42.042Z</time>
      </trkpt>
      <trkpt lat="63.58425" lon="19.59564">
        <ele>50.069842</ele>
        <time>2020-08-28T23:11:30.857Z</time>
      </trkpt>
      <trkpt lat="63.58412" lon="19.59191">
        <ele>50.016766</ele>
        <time>2020-08-28T23:12:00.491Z</time>
      </trkpt>
      <trkpt lat="63.58408" lon="19.58676">
        <ele>49.981911</ele>
        <time>2020-08-28T23:12:41.275Z</time>
      </trkpt>
      <trkpt lat="63.58419" lon="19.5815">
        <ele>49.822571</ele>
        <time>2020-08-28T23:13:22.780Z</time>
      </trkpt>
      <trkpt lat="63.58431" lon="19.57852">
        <ele>49.544538</ele>
        <time>2020-08-28T23:13:45.824Z</time>
      </trkpt>
      <trkpt lat="63.58451" lon="19.57401">
        <ele>48.888412</ele>
        <time>2020-08-28T23:14:19.757Z</time>
      </trkpt>
      <trkpt lat="63.58454" lon="19.57325">
        <ele>48.766369</ele>
        <time>2020-08-28T23:14:25.415Z</time>
      </trkpt>
      <trkpt lat="63.58467" lon="19.56947">
        <ele>48.108356</ele>
        <time>2020-08-28T23:14:53.783Z</time>
      </trkpt>
      <trkpt lat="63.58473" lon="19.56487">
        <ele>47.084537</ele>
        <time>2020-08-28T23:15:28.038Z</time>
      </trkpt>
      <trkpt lat="63.58465" lon="19.55759">
        <ele>44.196253</ele>
        <time>2020-08-28T23:16:18.319Z</time>
      </trkpt>
      <trkpt lat="63.58455" lon="19.55511">
        <ele>43.33761</ele>
        <time>2020-08-28T23:16:35.852Z</time>
      </trkpt>
      <trkpt lat="63.58427" lon="19.54985">
        <ele>42.311703</ele>
        <time>2020-08-28T23:17:15.306Z</time>
      </trkpt>
      <trkpt lat="63.58375" lon="19.54357">
        <ele>41.516105</ele>
        <time>2020-08-28T23:18:04.450Z</time>
      </trkpt>
      <trkpt lat="63.58357" lon="19.54183">
        <ele>40.913644</ele>
        <time>2020-08-28T23:18:17.083Z</time>
      </trkpt>
      <trkpt lat="63.58352" lon="19.54128">
        <ele>40.723003</ele>
        <time>2020-08-28T23:18:21.034Z</time>
      </trkpt>
      <trkpt lat="63.58348" lon="19.54029">
        <ele>40.385462</ele>
        <time>2020-08-28T23:18:27.936Z</time>
      </trkpt>
      <trkpt lat="63.58346" lon="19.5393">
        <ele>39.929028</ele>
        <time>2020-08-28T23:18:34.738Z</time>
      </trkpt>
      <trkpt lat="63.58347" lon="19.53847">
        <ele>39.497846</ele>
        <time>2020-08-28T23:18:40.303Z</time>
      </trkpt>
      <trkpt lat="63.58359" lon="19.53564">
        <ele>38.013386</ele>
        <time>2020-08-28T23:18:59.479Z</time>
      </trkpt>
      <trkpt lat="63.58359" lon="19.53537">
        <ele>37.87007</ele>
        <time>2020-08-28T23:19:01.295Z</time>
      </trkpt>
      <trkpt lat="63.58332" lon="19.53526">
        <ele>37.547581</ele>
        <time>2020-08-28T23:19:05.568Z</time>
      </trkpt>
      <trkpt lat="63.58308" lon="19.53521">
        <ele>37.272508</ele>
        <time>2020-08-28T23:19:09.155Z</time>
      </trkpt>
      <trkpt lat="63.58254" lon="19.53516">
        <ele>36.632602</ele>
        <time>2020-08-28T23:19:17.471Z</time>
      </trkpt>
      <trkpt lat="63.5824" lon="19.53516">
        <ele>36.465141</ele>
        <time>2020-08-28T23:19:19.653Z</time>
      </trkpt>
      <trkpt lat="63.58225" lon="19.53516">
        <ele>36.289479</ele>
        <time>2020-08-28T23:19:21.931Z</time>
      </trkpt>
      <trkpt lat="63.58193" lon="19.53513">
        <ele>35.896688</ele>
        <time>2020-08-28T23:19:26.757Z</time>
      </trkpt>
      <trkpt lat="63.58166" lon="19.53503">
        <ele>35.542673</ele>
        <time>2020-08-28T23:19:30.830Z</time>
      </trkpt>
      <trkpt lat="63.58125" lon="19.5348">
        <ele>34.98455</ele>
        <time>2020-08-28T23:19:37.197Z</time>
      </trkpt>
      <trkpt lat="63.58082" lon="19.53428">
        <ele>34.348089</ele>
        <time>2020-08-28T23:19:44.462Z</time>
      </trkpt>
      <trkpt lat="63.5805" lon="19.53375">
        <ele>33.823648</ele>
        <time>2020-08-28T23:19:50.428Z</time>
      </trkpt>
      <trkpt lat="63.58021" lon="19.5332">
        <ele>33.274955</ele>
        <time>2020-08-28T23:19:56.061Z</time>
      </trkpt>
      <trkpt lat="63.57949" lon="19.53163">
        <ele>31.776077</ele>
        <time>2020-08-28T23:20:10.824Z</time>
      </trkpt>
      <trkpt lat="63.57897" lon="19.53048">
        <ele>30.66721</ele>
        <time>2020-08-28T23:20:21.515Z</time>
      </trkpt>
      <trkpt lat="63.57775" lon="19.52771">
        <ele>27.864602</ele>
        <time>2020-08-28T23:20:46.810Z</time>
      </trkpt>
      <trkpt lat="63.57727" lon="19.5269">
        <ele>26.774904</ele>
        <time>2020-08-28T23:20:55.523Z</time>
      </trkpt>
      <trkpt lat="63.57677" lon="19.52628">
        <ele>25.744821</ele>
        <time>2020-08-28T23:21:03.684Z</time>
      </trkpt>
      <trkpt lat="63.57639" lon="19.52619">
        <ele>25.068665</ele>
        <time>2020-08-28T23:21:09.026Z</time>
      </trkpt>
      <trkpt lat="63.57522" lon="19.52632">
        <ele>22.8158</ele>
        <time>2020-08-28T23:21:25.599Z</time>
      </trkpt>
      <trkpt lat="63.57479" lon="19.52612">
        <ele>21.963391</ele>
        <time>2020-08-28T23:21:31.863Z</time>
      </trkpt>
      <trkpt lat="63.57399" lon="19.5252">
        <ele>20.206704</ele>
        <time>2020-08-28T23:21:44.542Z</time>
      </trkpt>
      <trkpt lat="63.57342" lon="19.52479">
        <ele>19.022782</ele>
        <time>2020-08-28T23:21:53.074Z</time>
      </trkpt>
      <trkpt lat="63.5729" lon="19.52459">
        <ele>17.994464</ele>
        <time>2020-08-28T23:22:00.529Z</time>
      </trkpt>
      <trkpt lat="63.57267" lon="19.52448">
        <ele>17.499065</ele>
        <time>2020-08-28T23:22:03.947Z</time>
      </trkpt>
      <trkpt lat="63.57108" lon="19.52395">
        <ele>14.124509</ele>
        <time>2020-08-28T23:22:26.363Z</time>
      </trkpt>
      <trkpt lat="63.57085" lon="19.5238">
        <ele>13.693453</ele>
        <time>2020-08-28T23:22:29.659Z</time>
      </trkpt>
      <trkpt lat="63.57064" lon="19.52358">
        <ele>13.266493</ele>
        <time>2020-08-28T23:22:32.898Z</time>
      </trkpt>
      <trkpt lat="63.57049" lon="19.52335">
        <ele>12.928386</ele>
        <time>2020-08-28T23:22:35.533Z</time>
      </trkpt>
      <trkpt lat="63.57038" lon="19.5229">
        <ele>12.507478</ele>
        <time>2020-08-28T23:22:38.756Z</time>
      </trkpt>
      <trkpt lat="63.57022" lon="19.52175">
        <ele>11.528623</ele>
        <time>2020-08-28T23:22:46.434Z</time>
      </trkpt>
      <trkpt lat="63.57011" lon="19.52054">
        <ele>10.639625</ele>
        <time>2020-08-28T23:22:54.370Z</time>
      </trkpt>
      <trkpt lat="63.57003" lon="19.52053">
        <ele>10.551553</ele>
        <time>2020-08-28T23:22:55.700Z</time>
      </trkpt>
      <trkpt lat="63.56971" lon="19.51711">
        <ele>8.902272</ele>
        <time>2020-08-28T23:23:21.136Z</time>
      </trkpt>
      <trkpt lat="63.56967" lon="19.51667">
        <ele>8.744188</ele>
        <time>2020-08-28T23:23:24.453Z</time>
      </trkpt>
      <trkpt lat="63.56948" lon="19.51482">
        <ele>8.093282</ele>
        <time>2020-08-28T23:23:38.405Z</time>
      </trkpt>
      <trkpt lat="63.56914" lon="19.51111">
        <ele>7.193545</ele>
        <time>2020-08-28T23:24:06.925Z</time>
      </trkpt>
      <trkpt lat="63.56873" lon="19.50677">
        <ele>7.184176</ele>
        <time>2020-08-28T23:24:43.738Z</time>
      </trkpt>
      <trkpt lat="63.56877" lon="19.50655">
        <ele>7.211198</ele>
        <time>2020-08-28T23:24:45.886Z</time>
      </trkpt>
      <trkpt lat="63.56876" lon="19.50608">
        <ele>7.264033</ele>
        <time>2020-08-28T23:24:49.913Z</time>
      </trkpt>
      <trkpt lat="63.5688" lon="19.50558">
        <ele>7.323414</ele>
        <time>2020-08-28T23:24:54.501Z</time>
      </trkpt>
      <trkpt lat="63.56889" lon="19.50522">
        <ele>7.381467</ele>
        <time>2020-08-28T23:24:58.052Z</time>
      </trkpt>
      <trkpt lat="63.56913" lon="19.50435">
        <ele>7.710308</ele>
        <time>2020-08-28T23:25:07.411Z</time>
      </trkpt>
      <trkpt lat="63.56936" lon="19.50368">
        <ele>7.979683</ele>
        <time>2020-08-28T23:25:15.161Z</time>
      </trkpt>
      <trkpt lat="63.56974" lon="19.50236">
        <ele>8.485007</ele>
        <time>2020-08-28T23:25:29.457Z</time>
      </trkpt>
      <trkpt lat="63.56983" lon="19.50183">
        <ele>8.653399</ele>
        <time>2020-08-28T23:25:34.397Z</time>
      </trkpt>
      <trkpt lat="63.56984" lon="19.50131">
        <ele>8.648094</ele>
        <time>2020-08-28T23:25:39.031Z</time>
      </trkpt>
      <trkpt lat="63.56985" lon="19.49973">
        <ele>8.632144</ele>
        <time>2020-08-28T23:25:52.058Z</time>
      </trkpt>
      <trkpt lat="63.56985" lon="19.49956">
        <ele>8.630363</ele>
        <time>2020-08-28T23:25:53.404Z</time>
      </trkpt>
      <trkpt lat="63.56989" lon="19.49906">
        <ele>8.625243</ele>
        <time>2020-08-28T23:25:57.262Z</time>
      </trkpt>
      <trkpt lat="63.56993" lon="19.4988">
        <ele>8.622447</ele>
        <time>2020-08-28T23:25:59.314Z</time>
      </trkpt>
      <trkpt lat="63.56985" lon="19.49873">
        <ele>8.620421</ele>
        <time>2020-08-28T23:26:00.734Z</time>
      </trkpt>
      <trkpt lat="63.56968" lon="19.49845">
        <ele>8.615592</ele>
        <time>2020-08-28T23:26:04.302Z</time>
      </trkpt>
      <trkpt lat="63.56965" lon="19.49836">
        <ele>8.614497</ele>
        <time>2020-08-28T23:26:05.067Z</time>
      </trkpt>
      <trkpt lat="63.5696" lon="19.49809">
        <ele>8.570176</ele>
        <time>2020-08-28T23:26:07.086Z</time>
      </trkpt>
      <trkpt lat="63.56945" lon="19.49736">
        <ele>8.288404</ele>
        <time>2020-08-28T23:26:12.795Z</time>
      </trkpt>
      <trkpt lat="63.56927" lon="19.49671">
        <ele>8.021478</ele>
        <time>2020-08-28T23:26:18.150Z</time>
      </trkpt>
      <trkpt lat="63.56909" lon="19.496">
        <ele>7.73158</ele>
        <time>2020-08-28T23:26:23.936Z</time>
      </trkpt>
      <trkpt lat="63.56888" lon="19.49547">
        <ele>7.487617</ele>
        <time>2020-08-28T23:26:28.816Z</time>
      </trkpt>
      <trkpt lat="63.56834" lon="19.49407">
        <ele>6.955673</ele>
        <time>2020-08-28T23:26:41.892Z</time>
      </trkpt>
      <trkpt lat="63.56914" lon="19.4924">
        <ele>6.373447</ele>
        <time>2020-08-28T23:27:00.041Z</time>
      </trkpt>
      <trkpt lat="63.56978" lon="19.49085">
        <ele>5.945689</ele>
        <time>2020-08-28T23:27:16.042Z</time>
      </trkpt>
      <trkpt lat="63.56988" lon="19.49062">
        <ele>5.888303</ele>
        <time>2020-08-28T23:27:18.338Z</time>
      </trkpt>
      <trkpt lat="63.56992" lon="19.4903">
        <ele>5.824943</ele>
        <time>2020-08-28T23:27:20.830Z</time>
      </trkpt>
      <trkpt lat="63.57006" lon="19.4897">
        <ele>5.696925</ele>
        <time>2020-08-28T23:27:25.874Z</time>
      </trkpt>
      <trkpt lat="63.57053" lon="19.48855">
        <ele>5.352117</ele>
        <time>2020-08-28T23:27:37.322Z</time>
      </trkpt>
      <trkpt lat="63.5708" lon="19.48776">
        <ele>5.044334</ele>
        <time>2020-08-28T23:27:44.481Z</time>
      </trkpt>
      <trkpt lat="63.57163" lon="19.48428">
        <ele>3.781226</ele>
        <time>2020-08-28T23:28:12.412Z</time>
      </trkpt>
      <trkpt lat="63.5724" lon="19.48103">
        <ele>2.614118</ele>
        <time>2020-08-28T23:28:38.481Z</time>
      </trkpt>
      <trkpt lat="63.57267" lon="19.47991">
        <ele>2.312113</ele>
        <time>2020-08-28T23:28:47.526Z</time>
      </trkpt>
      <trkpt lat="63.57286" lon="19.47868">
        <ele>2.000506</ele>
        <time>2020-08-28T23:28:57.229Z</time>
      </trkpt>
      <trkpt lat="63.57301" lon="19.47708">
        <ele>2.115112</ele>
        <time>2020-08-28T23:29:10.015Z</time>
      </trkpt>
      <trkpt lat="63.57304" lon="19.47675">
        <ele>2.187129</ele>
        <time>2020-08-28T23:29:12.814Z</time>
      </trkpt>
      <trkpt lat="63.57355" lon="19.47133">
        <ele>4.014443</ele>
        <time>2020-08-28T23:30:03.423Z</time>
      </trkpt>
      <trkpt lat="63.57371" lon="19.47129">
        <ele>4.170366</ele>
        <time>2020-08-28T23:30:07.039Z</time>
      </trkpt>
      <trkpt lat="63.5742" lon="19.46625">
        <ele>7.138595</ele>
        <time>2020-08-28T23:30:57.992Z</time>
      </trkpt>
      <trkpt lat="63.57439" lon="19.46518">
        <ele>7.693554</ele>
        <time>2020-08-28T23:31:09.343Z</time>
      </trkpt>
      <trkpt lat="63.57469" lon="19.46456">
        <ele>8.139349</ele>
        <time>2020-08-28T23:31:18.193Z</time>
      </trkpt>
      <trkpt lat="63.57506" lon="19.46418">
        <ele>8.582074</ele>
        <time>2020-08-28T23:31:26.735Z</time>
      </trkpt>
      <trkpt lat="63.57544" lon="19.46399">
        <ele>8.943569</ele>
        <time>2020-08-28T23:31:34.792Z</time>
      </trkpt>
      <trkpt lat="63.57688" lon="19.46327">
        <ele>9.499207</ele>
        <time>2020-08-28T23:32:02.773Z</time>
      </trkpt>
      <trkpt lat="63.57707" lon="19.46318">
        <ele>9.572208</ele>
        <time>2020-08-28T23:32:06.180Z</time>
      </trkpt>
      <trkpt lat="63.57725" lon="19.46309">
        <ele>9.614617</ele>
        <time>2020-08-28T23:32:09.743Z</time>
      </trkpt>
      <trkpt lat="63.57727" lon="19.46316">
        <ele>9.620999</ele>
        <time>2020-08-28T23:32:10.367Z</time>
      </trkpt>
      <trkpt lat="63.57729" lon="19.46322">
        <ele>9.627225</ele>
        <time>2020-08-28T23:32:11.007Z</time>
      </trkpt>
      <trkpt lat="63.57733" lon="19.46328">
        <ele>9.636188</ele>
        <time>2020-08-28T23:32:11.870Z</time>
      </trkpt>
      <trkpt lat="63.57738" lon="19.46328">
        <ele>9.644217</ele>
        <time>2020-08-28T23:32:12.683Z</time>
      </trkpt>
      <trkpt lat="63.57747" lon="19.46318">
        <ele>9.663206</ele>
        <time>2020-08-28T23:32:14.674Z</time>
      </trkpt>
      <trkpt lat="63.57765" lon="19.46289">
        <ele>9.701417</ele>
        <time>2020-08-28T23:32:18.500Z</time>
      </trkpt>
      <trkpt lat="63.5781" lon="19.46254">
        <ele>9.786713</ele>
        <time>2020-08-28T23:32:27.250Z</time>
      </trkpt>
      <trkpt lat="63.57827" lon="19.46255">
        <ele>9.817763</ele>
        <time>2020-08-28T23:32:30.438Z</time>
      </trkpt>
      <trkpt lat="63.57841" lon="19.46251">
        <ele>9.843437</ele>
        <time>2020-08-28T23:32:33.031Z</time>
      </trkpt>
      <trkpt lat="63.57846" lon="19.46248">
        <ele>9.851317</ele>
        <time>2020-08-28T23:32:33.868Z</time>
      </trkpt>
      <trkpt lat="63.57847" lon="19.46241">
        <ele>9.857282</ele>
        <time>2020-08-28T23:32:34.502Z</time>
      </trkpt>
      <trkpt lat="63.57848" lon="19.46231">
        <ele>9.865014</ele>
        <time>2020-08-28T23:32:35.298Z</time>
      </trkpt>
      <trkpt lat="63.57846" lon="19.4622">
        <ele>9.874039</ele>
        <time>2020-08-28T23:32:36.227Z</time>
      </trkpt>
      <trkpt lat="63.57864" lon="19.46197">
        <ele>9.916599</ele>
        <time>2020-08-28T23:32:39.949Z</time>
      </trkpt>
      <trkpt lat="63.57893" lon="19.46134">
        <ele>10.184644</ele>
        <time>2020-08-28T23:32:47.526Z</time>
      </trkpt>
      <trkpt lat="63.57988" lon="19.45809">
        <ele>11.680455</ele>
        <time>2020-08-28T23:33:22.575Z</time>
      </trkpt>
      <trkpt lat="63.58007" lon="19.45761">
        <ele>12.153652</ele>
        <time>2020-08-28T23:33:29.004Z</time>
      </trkpt>
      <trkpt lat="63.58016" lon="19.45734">
        <ele>12.416415</ele>
        <time>2020-08-28T23:33:32.678Z</time>
      </trkpt>
      <trkpt lat="63.58044" lon="19.45685">
        <ele>12.998451</ele>
        <time>2020-08-28T23:33:41.001Z</time>
      </trkpt>
      <trkpt lat="63.58092" lon="19.45606">
        <ele>13.994866</ele>
        <time>2020-08-28T23:33:55.742Z</time>
      </trkpt>
      <trkpt lat="63.58184" lon="19.45492">
        <ele>16.096538</ele>
        <time>2020-08-28T23:34:22.404Z</time>
      </trkpt>
      <trkpt lat="63.58323" lon="19.45277">
        <ele>18.392308</ele>
        <time>2020-08-28T23:35:01.700Z</time>
      </trkpt>
      <trkpt lat="63.58357" lon="19.45233">
        <ele>18.680925</ele>
        <time>2020-08-28T23:35:09.530Z</time>
      </trkpt>
      <trkpt lat="63.58393" lon="19.45197">
        <ele>18.96863</ele>
        <time>2020-08-28T23:35:16.819Z</time>
      </trkpt>
      <trkpt lat="63.5837" lon="19.44868">
        <ele>16.474374</ele>
        <time>2020-08-28T23:35:38.623Z</time>
      </trkpt>
      <trkpt lat="63.58355" lon="19.44792">
        <ele>15.763668</ele>
        <time>2020-08-28T23:35:43.322Z</time>
      </trkpt>
      <trkpt lat="63.58313" lon="19.44697">
        <ele>14.098053</ele>
        <time>2020-08-28T23:35:50.993Z</time>
      </trkpt>
      <trkpt lat="63.58266" lon="19.44627">
        <ele>12.417889</ele>
        <time>2020-08-28T23:35:58.357Z</time>
      </trkpt>
      <trkpt lat="63.58258" lon="19.44608">
        <ele>12.066181</ele>
        <time>2020-08-28T23:35:59.947Z</time>
      </trkpt>
      <trkpt lat="63.58217" lon="19.44513">
        <ele>10.333529</ele>
        <time>2020-08-28T23:36:07.775Z</time>
      </trkpt>
      <trkpt lat="63.58195" lon="19.44464">
        <ele>9.965595</ele>
        <time>2020-08-28T23:36:12.129Z</time>
      </trkpt>
      <trkpt lat="63.58173" lon="19.44412">
        <ele>9.637206</ele>
        <time>2020-08-28T23:36:16.830Z</time>
      </trkpt>
      <trkpt lat="63.58118" lon="19.44291">
        <ele>8.863332</ele>
        <time>2020-08-28T23:36:29.473Z</time>
      </trkpt>
      <trkpt lat="63.58016" lon="19.4407">
        <ele>8.113073</ele>
        <time>2020-08-28T23:36:53.779Z</time>
      </trkpt>
      <trkpt lat="63.57901" lon="19.43807">
        <ele>7.447121</ele>
        <time>2020-08-28T23:37:21.237Z</time>
      </trkpt>
      <trkpt lat="63.5777" lon="19.43516">
        <ele>6.522346</ele>
        <time>2020-08-28T23:37:51.356Z</time>
      </trkpt>
      <trkpt lat="63.57727" lon="19.43446">
        <ele>6.247735</ele>
        <time>2020-08-28T23:38:00.048Z</time>
      </trkpt>
      <trkpt lat="63.57369" lon="19.43031">
        <ele>4.615869</ele>
        <time>2020-08-28T23:39:07.137Z</time>
      </trkpt>
      <trkpt lat="63.57324" lon="19.4297">
        <ele>4.739043</ele>
        <time>2020-08-28T23:39:16.501Z</time>
      </trkpt>
      <trkpt lat="63.57289" lon="19.42915">
        <ele>4.838738</ele>
        <time>2020-08-28T23:39:24.291Z</time>
      </trkpt>
      <trkpt lat="63.5719" lon="19.42698">
        <ele>5.440046</ele>
        <time>2020-08-28T23:39:51.639Z</time>
      </trkpt>
      <trkpt lat="63.57134" lon="19.42624">
        <ele>5.903272</ele>
        <time>2020-08-28T23:40:04.961Z</time>
      </trkpt>
      <trkpt lat="63.57105" lon="19.42598">
        <ele>6.127296</ele>
        <time>2020-08-28T23:40:11.396Z</time>
      </trkpt>
      <trkpt lat="63.57077" lon="19.42576">
        <ele>6.323868</ele>
        <time>2020-08-28T23:40:17.305Z</time>
      </trkpt>
      <trkpt lat="63.56975" lon="19.42516">
        <ele>6.800387</ele>
        <time>2020-08-28T23:40:38.387Z</time>
      </trkpt>
      <trkpt lat="63.56907" lon="19.42445">
        <ele>7.113313</ele>
        <time>2020-08-28T23:40:52.338Z</time>
      </trkpt>
      <trkpt lat="63.56693" lon="19.42102">
        <ele>6.8771</ele>
        <time>2020-08-28T23:41:38.488Z</time>
      </trkpt>
      <trkpt lat="63.56625" lon="19.41957">
        <ele>6.671359</ele>
        <time>2020-08-28T23:41:54.313Z</time>
      </trkpt>
      <trkpt lat="63.56534" lon="19.41734">
        <ele>6.116444</ele>
        <time>2020-08-28T23:42:16.732Z</time>
      </trkpt>
      <trkpt lat="63.56384" lon="19.41408">
        <ele>5.336361</ele>
        <time>2020-08-28T23:42:51.792Z</time>
      </trkpt>
      <trkpt lat="63.56336" lon="19.41292">
        <ele>5.157941</ele>
        <time>2020-08-28T23:43:03.830Z</time>
      </trkpt>
      <trkpt lat="63.5631" lon="19.41247">
        <ele>5.083789</ele>
        <time>2020-08-28T23:43:09.490Z</time>
      </trkpt>
      <trkpt lat="63.56197" lon="19.41131">
        <ele>4.778363</ele>
        <time>2020-08-28T23:43:30.911Z</time>
      </trkpt>
      <trkpt lat="63.56163" lon="19.41083">
        <ele>4.657376</ele>
        <time>2020-08-28T23:43:37.743Z</time>
      </trkpt>
      <trkpt lat="63.56006" lon="19.40788">
        <ele>4.146111</ele>
        <time>2020-08-28T23:44:12.379Z</time>
      </trkpt>
      <trkpt lat="63.55931" lon="19.40625">
        <ele>4.118706</ele>
        <time>2020-08-28T23:44:30.707Z</time>
      </trkpt>
      <trkpt lat="63.55929" lon="19.40621">
        <ele>4.13214</ele>
        <time>2020-08-28T23:44:31.120Z</time>
      </trkpt>
      <trkpt lat="63.55871" lon="19.40478">
        <ele>4.622335</ele>
        <time>2020-08-28T23:44:47.659Z</time>
      </trkpt>
      <trkpt lat="63.55826" lon="19.40367">
        <ele>5.001672</ele>
        <time>2020-08-28T23:45:01.514Z</time>
      </trkpt>
      <trkpt lat="63.55792" lon="19.40285">
        <ele>5.68912</ele>
        <time>2020-08-28T23:45:12.474Z</time>
      </trkpt>
      <trkpt lat="63.55687" lon="19.40046">
        <ele>7.722494</ele>
        <time>2020-08-28T23:45:46.561Z</time>
      </trkpt>
      <trkpt lat="63.55587" lon="19.3986">
        <ele>9.071217</ele>
        <time>2020-08-28T23:46:14.408Z</time>
      </trkpt>
      <trkpt lat="63.55578" lon="19.39846">
        <ele>9.192606</ele>
        <time>2020-08-28T23:46:16.889Z</time>
      </trkpt>
      <trkpt lat="63.5552" lon="19.39776">
        <ele>9.12557</ele>
        <time>2020-08-28T23:46:29.582Z</time>
      </trkpt>
      <trkpt lat="63.55512" lon="19.39768">
        <ele>9.067215</ele>
        <time>2020-08-28T23:46:31.241Z</time>
      </trkpt>
      <trkpt lat="63.55429" lon="19.3968">
        <ele>8.488258</ele>
        <time>2020-08-28T23:46:45.732Z</time>
      </trkpt>
      <trkpt lat="63.55396" lon="19.39643">
        <ele>8.238563</ele>
        <time>2020-08-28T23:46:50.928Z</time>
      </trkpt>
      <trkpt lat="63.55274" lon="19.39501">
        <ele>6.031933</ele>
        <time>2020-08-28T23:47:10.515Z</time>
      </trkpt>
      <trkpt lat="63.55226" lon="19.39448">
        <ele>5.401954</ele>
        <time>2020-08-28T23:47:18.463Z</time>
      </trkpt>
      <trkpt lat="63.55183" lon="19.39399">
        <ele>5.473585</ele>
        <time>2020-08-28T23:47:26.292Z</time>
      </trkpt>
      <trkpt lat="63.55129" lon="19.393">
        <ele>5.577334</ele>
        <time>2020-08-28T23:47:39.591Z</time>
      </trkpt>
      <trkpt lat="63.54998" lon="19.39018">
        <ele>7.426116</ele>
        <time>2020-08-28T23:48:20.074Z</time>
      </trkpt>
      <trkpt lat="63.54952" lon="19.38918">
        <ele>8.185323</ele>
        <time>2020-08-28T23:48:34.175Z</time>
      </trkpt>
      <trkpt lat="63.54926" lon="19.3886">
        <ele>8.478065</ele>
        <time>2020-08-28T23:48:42.063Z</time>
      </trkpt>
      <trkpt lat="63.54923" lon="19.38794">
        <ele>8.71375</ele>
        <time>2020-08-28T23:48:48.289Z</time>
      </trkpt>
      <trkpt lat="63.54901" lon="19.38668">
        <ele>9.193441</ele>
        <time>2020-08-28T23:49:00.528Z</time>
      </trkpt>
      <trkpt lat="63.54815" lon="19.37884">
        <ele>10.000829</ele>
        <time>2020-08-28T23:50:06.053Z</time>
      </trkpt>
      <trkpt lat="63.54791" lon="19.37738">
        <ele>10.092796</ele>
        <time>2020-08-28T23:50:19.363Z</time>
      </trkpt>
      <trkpt lat="63.54769" lon="19.37651">
        <ele>10.127746</ele>
        <time>2020-08-28T23:50:27.654Z</time>
      </trkpt>
      <trkpt lat="63.54764" lon="19.37627">
        <ele>10.137107</ele>
        <time>2020-08-28T23:50:30.012Z</time>
      </trkpt>
      <trkpt lat="63.54738" lon="19.37547">
        <ele>10.171811</ele>
        <time>2020-08-28T23:50:37.952Z</time>
      </trkpt>
      <trkpt lat="63.54703" lon="19.37472">
        <ele>10.196574</ele>
        <time>2020-08-28T23:50:46.305Z</time>
      </trkpt>
      <trkpt lat="63.5467" lon="19.37413">
        <ele>9.885733</ele>
        <time>2020-08-28T23:50:53.377Z</time>
      </trkpt>
      <trkpt lat="63.54587" lon="19.3731">
        <ele>9.203547</ele>
        <time>2020-08-28T23:51:08.096Z</time>
      </trkpt>
      <trkpt lat="63.54539" lon="19.37252">
        <ele>8.841873</ele>
        <time>2020-08-28T23:51:16.680Z</time>
      </trkpt>
      <trkpt lat="63.54482" lon="19.37198">
        <ele>8.552902</ele>
        <time>2020-08-28T23:51:26.697Z</time>
      </trkpt>
      <trkpt lat="63.54378" lon="19.3712">
        <ele>8.065883</ele>
        <time>2020-08-28T23:51:45.139Z</time>
      </trkpt>
      <trkpt lat="63.54247" lon="19.37037">
        <ele>7.985833</ele>
        <time>2020-08-28T23:52:09.453Z</time>
      </trkpt>
      <trkpt lat="63.54009" lon="19.36876">
        <ele>7.724744</ele>
        <time>2020-08-28T23:52:53.238Z</time>
      </trkpt>
      <trkpt lat="63.53826" lon="19.36759">
        <ele>7.356648</ele>
        <time>2020-08-28T23:53:25.512Z</time>
      </trkpt>
      <trkpt lat="63.53727" lon="19.36696">
        <ele>7.375784</ele>
        <time>2020-08-28T23:53:43.868Z</time>
      </trkpt>
      <trkpt lat="63.53631" lon="19.36631">
        <ele>7.736081</ele>
        <time>2020-08-28T23:54:02.897Z</time>
      </trkpt>
      <trkpt lat="63.53528" lon="19.36588">
        <ele>8.321067</ele>
        <time>2020-08-28T23:54:23.867Z</time>
      </trkpt>
      <trkpt lat="63.53457" lon="19.36578">
        <ele>8.754078</ele>
        <time>2020-08-28T23:54:38.221Z</time>
      </trkpt>
      <trkpt lat="63.53292" lon="19.36582">
        <ele>9.568384</ele>
        <time>2020-08-28T23:55:10.800Z</time>
      </trkpt>
      <trkpt lat="63.53203" lon="19.36599">
        <ele>9.705067</ele>
        <time>2020-08-28T23:55:27.125Z</time>
      </trkpt>
      <trkpt lat="63.53033" lon="19.36571">
        <ele>9.510622</ele>
        <time>2020-08-28T23:55:56.220Z</time>
      </trkpt>
      <trkpt lat="63.52977" lon="19.36545">
        <ele>9.396047</ele>
        <time>2020-08-28T23:56:05.991Z</time>
      </trkpt>
      <trkpt lat="63.52621" lon="19.36177">
        <ele>9.710755</ele>
        <time>2020-08-28T23:57:16.943Z</time>
      </trkpt>
      <trkpt lat="63.52577" lon="19.36142">
        <ele>9.855862</ele>
        <time>2020-08-28T23:57:25.801Z</time>
      </trkpt>
      <trkpt lat="63.52419" lon="19.36067">
        <ele>10.282304</ele>
        <time>2020-08-28T23:57:56.358Z</time>
      </trkpt>
      <trkpt lat="63.521" lon="19.36021">
        <ele>10.577289</ele>
        <time>2020-08-28T23:58:54.323Z</time>
      </trkpt>
      <trkpt lat="63.52036" lon="19.36003">
        <ele>10.434691</ele>
        <time>2020-08-28T23:59:05.399Z</time>
      </trkpt>
      <trkpt lat="63.51995" lon="19.35978">
        <ele>10.340759</ele>
        <time>2020-08-28T23:59:12.595Z</time>
      </trkpt>
      <trkpt lat="63.51805" lon="19.3577">
        <ele>9.758439</ele>
        <time>2020-08-28T23:59:48.308Z</time>
      </trkpt>
      <trkpt lat="63.51764" lon="19.35717">
        <ele>9.717001</ele>
        <time>2020-08-28T23:59:56.556Z</time>
      </trkpt>
      <trkpt lat="63.51745" lon="19.35676">
        <ele>9.728193</ele>
        <time>2020-08-29T00:00:01.314Z</time>
      </trkpt>
      <trkpt lat="63.5167" lon="19.35413">
        <ele>9.794722</ele>
        <time>2020-08-29T00:00:26.760Z</time>
      </trkpt>
      <trkpt lat="63.51642" lon="19.35283">
        <ele>9.857536</ele>
        <time>2020-08-29T00:00:38.578Z</time>
      </trkpt>
      <trkpt lat="63.51581" lon="19.34901">
        <ele>9.977282</ele>
        <time>2020-08-29T00:01:11.159Z</time>
      </trkpt>
      <trkpt lat="63.51553" lon="19.34808">
        <ele>9.99081</ele>
        <time>2020-08-29T00:01:20.103Z</time>
      </trkpt>
      <trkpt lat="63.51538" lon="19.34772">
        <ele>9.996849</ele>
        <time>2020-08-29T00:01:24.086Z</time>
      </trkpt>
      <trkpt lat="63.51472" lon="19.34677">
        <ele>10.0194</ele>
        <time>2020-08-29T00:01:38.060Z</time>
      </trkpt>
      <trkpt lat="63.5139" lon="19.34545">
        <ele>10.049448</ele>
        <time>2020-08-29T00:01:56.054Z</time>
      </trkpt>
      <trkpt lat="63.51286" lon="19.34396">
        <ele>10.05209</ele>
        <time>2020-08-29T00:02:18.141Z</time>
      </trkpt>
      <trkpt lat="63.51145" lon="19.34138">
        <ele>10.169271</ele>
        <time>2020-08-29T00:02:50.575Z</time>
      </trkpt>
      <trkpt lat="63.51002" lon="19.33856">
        <ele>10.778389</ele>
        <time>2020-08-29T00:03:25.991Z</time>
      </trkpt>
      <trkpt lat="63.50893" lon="19.33647">
        <ele>11.974093</ele>
        <time>2020-08-29T00:03:55.628Z</time>
      </trkpt>
      <trkpt lat="63.50842" lon="19.3351">
        <ele>12.932674</ele>
        <time>2020-08-29T00:04:13.471Z</time>
      </trkpt>
      <trkpt lat="63.50762" lon="19.33235">
        <ele>14.390105</ele>
        <time>2020-08-29T00:04:46.031Z</time>
      </trkpt>
      <trkpt lat="63.50734" lon="19.33171">
        <ele>14.772047</ele>
        <time>2020-08-29T00:04:53.980Z</time>
      </trkpt>
      <trkpt lat="63.50711" lon="19.33134">
        <ele>14.934397</ele>
        <time>2020-08-29T00:04:59.222Z</time>
      </trkpt>
      <trkpt lat="63.50683" lon="19.33098">
        <ele>14.683035</ele>
        <time>2020-08-29T00:05:04.637Z</time>
      </trkpt>
      <trkpt lat="63.50643" lon="19.33067">
        <ele>14.356085</ele>
        <time>2020-08-29T00:05:11.482Z</time>
      </trkpt>
      <trkpt lat="63.50602" lon="19.33052">
        <ele>14.026746</ele>
        <time>2020-08-29T00:05:18.000Z</time>
      </trkpt>
      <trkpt lat="63.50546" lon="19.33038">
        <ele>13.590573</ele>
        <time>2020-08-29T00:05:26.233Z</time>
      </trkpt>
      <trkpt lat="63.50379" lon="19.32995">
        <ele>11.425219</ele>
        <time>2020-08-29T00:05:51.376Z</time>
      </trkpt>
      <trkpt lat="63.50334" lon="19.32984">
        <ele>10.950688</ele>
        <time>2020-08-29T00:05:58.472Z</time>
      </trkpt>
      <trkpt lat="63.50314" lon="19.32979">
        <ele>10.759257</ele>
        <time>2020-08-29T00:06:01.627Z</time>
      </trkpt>
      <trkpt lat="63.5026" lon="19.32948">
        <ele>10.220327</ele>
        <time>2020-08-29T00:06:10.383Z</time>
      </trkpt>
      <trkpt lat="63.50222" lon="19.32899">
        <ele>9.805921</ele>
        <time>2020-08-29T00:06:17.109Z</time>
      </trkpt>
      <trkpt lat="63.50197" lon="19.32853">
        <ele>9.501749</ele>
        <time>2020-08-29T00:06:22.239Z</time>
      </trkpt>
      <trkpt lat="63.50194" lon="19.32847">
        <ele>9.471345</ele>
        <time>2020-08-29T00:06:22.859Z</time>
      </trkpt>
      <trkpt lat="63.50183" lon="19.32823">
        <ele>9.357232</ele>
        <time>2020-08-29T00:06:25.127Z</time>
      </trkpt>
      <trkpt lat="63.5017" lon="19.32797">
        <ele>9.222041</ele>
        <time>2020-08-29T00:06:28.022Z</time>
      </trkpt>
      <trkpt lat="63.50163" lon="19.32783">
        <ele>9.153008</ele>
        <time>2020-08-29T00:06:29.463Z</time>
      </trkpt>
      <trkpt lat="63.50161" lon="19.32779">
        <ele>9.131409</ele>
        <time>2020-08-29T00:06:29.823Z</time>
      </trkpt>
      <trkpt lat="63.50005" lon="19.32462">
        <ele>8.039607</ele>
        <time>2020-08-29T00:07:03.732Z</time>
      </trkpt>
      <trkpt lat="63.5" lon="19.32453">
        <ele>8.030585</ele>
        <time>2020-08-29T00:07:04.829Z</time>
      </trkpt>
      <trkpt lat="63.49978" lon="19.32407">
        <ele>7.987826</ele>
        <time>2020-08-29T00:07:10.371Z</time>
      </trkpt>
      <trkpt lat="63.49959" lon="19.32369">
        <ele>7.952183</ele>
        <time>2020-08-29T00:07:15.103Z</time>
      </trkpt>
      <trkpt lat="63.49944" lon="19.32341">
        <ele>7.925163</ele>
        <time>2020-08-29T00:07:18.727Z</time>
      </trkpt>
      <trkpt lat="63.49921" lon="19.32291">
        <ele>8.065387</ele>
        <time>2020-08-29T00:07:25.069Z</time>
      </trkpt>
      <trkpt lat="63.4988" lon="19.32203">
        <ele>8.583928</ele>
        <time>2020-08-29T00:07:36.698Z</time>
      </trkpt>
      <trkpt lat="63.49809" lon="19.32091">
        <ele>9.375918</ele>
        <time>2020-08-29T00:07:55.340Z</time>
      </trkpt>
      <trkpt lat="63.49774" lon="19.32053">
        <ele>9.696506</ele>
        <time>2020-08-29T00:08:03.764Z</time>
      </trkpt>
      <trkpt lat="63.49716" lon="19.32021">
        <ele>10.119529</ele>
        <time>2020-08-29T00:08:16.002Z</time>
      </trkpt>
      <trkpt lat="63.4968" lon="19.32011">
        <ele>10.380457</ele>
        <time>2020-08-29T00:08:23.268Z</time>
      </trkpt>
      <trkpt lat="63.49647" lon="19.32003">
        <ele>10.616932</ele>
        <time>2020-08-29T00:08:29.750Z</time>
      </trkpt>
      <trkpt lat="63.49606" lon="19.31991">
        <ele>10.908589</ele>
        <time>2020-08-29T00:08:37.638Z</time>
      </trkpt>
      <trkpt lat="63.49554" lon="19.31969">
        <ele>11.271121</ele>
        <time>2020-08-29T00:08:47.475Z</time>
      </trkpt>
      <trkpt lat="63.49542" lon="19.31963">
        <ele>11.354656</ele>
        <time>2020-08-29T00:08:49.774Z</time>
      </trkpt>
      <trkpt lat="63.49497" lon="19.31947">
        <ele>11.671052</ele>
        <time>2020-08-29T00:08:58.840Z</time>
      </trkpt>
      <trkpt lat="63.49485" lon="19.31945">
        <ele>11.749403</ele>
        <time>2020-08-29T00:09:01.165Z</time>
      </trkpt>
      <trkpt lat="63.49472" lon="19.3195">
        <ele>11.844442</ele>
        <time>2020-08-29T00:09:03.931Z</time>
      </trkpt>
      <trkpt lat="63.49462" lon="19.3196">
        <ele>11.916495</ele>
        <time>2020-08-29T00:09:06.153Z</time>
      </trkpt>
      <trkpt lat="63.49456" lon="19.31974">
        <ele>11.979752</ele>
        <time>2020-08-29T00:09:08.124Z</time>
      </trkpt>
      <trkpt lat="63.49451" lon="19.3199">
        <ele>12.0385</ele>
        <time>2020-08-29T00:09:09.867Z</time>
      </trkpt>
      <trkpt lat="63.49184" lon="19.31578">
        <ele>17.167845</ele>
        <time>2020-08-29T00:10:26.715Z</time>
      </trkpt>
      <trkpt lat="63.48935" lon="19.31196">
        <ele>18.881689</ele>
        <time>2020-08-29T00:11:23.733Z</time>
      </trkpt>
      <trkpt lat="63.48857" lon="19.31068">
        <ele>19.331838</ele>
        <time>2020-08-29T00:11:42.484Z</time>
      </trkpt>
      <trkpt lat="63.48841" lon="19.3104">
        <ele>19.473304</ele>
        <time>2020-08-29T00:11:46.738Z</time>
      </trkpt>
      <trkpt lat="63.48752" lon="19.30889">
        <ele>20.259525</ele>
        <time>2020-08-29T00:12:10.076Z</time>
      </trkpt>
      <trkpt lat="63.48696" lon="19.30791">
        <ele>20.440904</ele>
        <time>2020-08-29T00:12:23.799Z</time>
      </trkpt>
      <trkpt lat="63.48684" lon="19.30769">
        <ele>20.314122</ele>
        <time>2020-08-29T00:12:26.629Z</time>
      </trkpt>
      <trkpt lat="63.48648" lon="19.30703">
        <ele>19.947947</ele>
        <time>2020-08-29T00:12:34.466Z</time>
      </trkpt>
      <trkpt lat="63.48534" lon="19.30489">
        <ele>18.089057</ele>
        <time>2020-08-29T00:12:56.433Z</time>
      </trkpt>
      <trkpt lat="63.48397" lon="19.30225">
        <ele>14.36025</ele>
        <time>2020-08-29T00:13:21.237Z</time>
      </trkpt>
      <trkpt lat="63.4826" lon="19.29968">
        <ele>11.134913</ele>
        <time>2020-08-29T00:13:46.527Z</time>
      </trkpt>
      <trkpt lat="63.48214" lon="19.29885">
        <ele>10.426382</ele>
        <time>2020-08-29T00:13:55.656Z</time>
      </trkpt>
      <trkpt lat="63.48176" lon="19.29818">
        <ele>9.843919</ele>
        <time>2020-08-29T00:14:03.454Z</time>
      </trkpt>
      <trkpt lat="63.48125" lon="19.29727">
        <ele>9.298423</ele>
        <time>2020-08-29T00:14:13.952Z</time>
      </trkpt>
      <trkpt lat="63.48076" lon="19.29642">
        <ele>8.875756</ele>
        <time>2020-08-29T00:14:24.068Z</time>
      </trkpt>
      <trkpt lat="63.47949" lon="19.29449">
        <ele>8.059631</ele>
        <time>2020-08-29T00:14:48.610Z</time>
      </trkpt>
      <trkpt lat="63.47765" lon="19.2917">
        <ele>7.674486</ele>
        <time>2020-08-29T00:15:27.352Z</time>
      </trkpt>
      <trkpt lat="63.47445" lon="19.2872">
        <ele>8.215913</ele>
        <time>2020-08-29T00:16:38.239Z</time>
      </trkpt>
      <trkpt lat="63.47318" lon="19.28519">
        <ele>7.596215</ele>
        <time>2020-08-29T00:17:02.882Z</time>
      </trkpt>
      <trkpt lat="63.47269" lon="19.28428">
        <ele>7.255906</ele>
        <time>2020-08-29T00:17:13.332Z</time>
      </trkpt>
      <trkpt lat="63.4719" lon="19.28271">
        <ele>7.770735</ele>
        <time>2020-08-29T00:17:32.902Z</time>
      </trkpt>
      <trkpt lat="63.47151" lon="19.28186">
        <ele>8.038597</ele>
        <time>2020-08-29T00:17:44.395Z</time>
      </trkpt>
      <trkpt lat="63.46806" lon="19.27346">
        <ele>15.171805</ele>
        <time>2020-08-29T00:19:37.932Z</time>
      </trkpt>
      <trkpt lat="63.46663" lon="19.27052">
        <ele>18.538159</ele>
        <time>2020-08-29T00:20:26.661Z</time>
      </trkpt>
      <trkpt lat="63.4658" lon="19.26901">
        <ele>17.714591</ele>
        <time>2020-08-29T00:20:46.488Z</time>
      </trkpt>
      <trkpt lat="63.46529" lon="19.26811">
        <ele>16.413046</ele>
        <time>2020-08-29T00:20:55.181Z</time>
      </trkpt>
      <trkpt lat="63.46421" lon="19.2663">
        <ele>11.570667</ele>
        <time>2020-08-29T00:21:11.779Z</time>
      </trkpt>
      <trkpt lat="63.46364" lon="19.26527">
        <ele>8.43052</ele>
        <time>2020-08-29T00:21:20.733Z</time>
      </trkpt>
      <trkpt lat="63.46392" lon="19.2644">
        <ele>7.333749</ele>
        <time>2020-08-29T00:21:27.017Z</time>
      </trkpt>
      <trkpt lat="63.46425" lon="19.26339">
        <ele>6.532153</ele>
        <time>2020-08-29T00:21:35.020Z</time>
      </trkpt>
      <trkpt lat="63.46501" lon="19.26107">
        <ele>5.436882</ele>
        <time>2020-08-29T00:21:56.978Z</time>
      </trkpt>
      <trkpt lat="63.46556" lon="19.25939">
        <ele>5.90688</ele>
        <time>2020-08-29T00:22:15.228Z</time>
      </trkpt>
      <trkpt lat="63.46597" lon="19.25836">
        <ele>6.361527</ele>
        <time>2020-08-29T00:22:28.340Z</time>
      </trkpt>
      <trkpt lat="63.46636" lon="19.2575">
        <ele>7.235937</ele>
        <time>2020-08-29T00:22:40.407Z</time>
      </trkpt>
      <trkpt lat="63.46662" lon="19.257">
        <ele>7.793436</ele>
        <time>2020-08-29T00:22:48.341Z</time>
      </trkpt>
      <trkpt lat="63.46766" lon="19.25555">
        <ele>10.038393</ele>
        <time>2020-08-29T00:23:18.035Z</time>
      </trkpt>
      <trkpt lat="63.47246" lon="19.24952">
        <ele>21.602695</ele>
        <time>2020-08-29T00:25:35.984Z</time>
      </trkpt>
      <trkpt lat="63.47397" lon="19.24762">
        <ele>22.674412</ele>
        <time>2020-08-29T00:26:08.990Z</time>
      </trkpt>
      <trkpt lat="63.47416" lon="19.24737">
        <ele>22.627755</ele>
        <time>2020-08-29T00:26:12.498Z</time>
      </trkpt>
      <trkpt lat="63.47492" lon="19.2462">
        <ele>22.43235</ele>
        <time>2020-08-29T00:26:27.680Z</time>
      </trkpt>
      <trkpt lat="63.47515" lon="19.24553">
        <ele>22.533961</ele>
        <time>2020-08-29T00:26:33.863Z</time>
      </trkpt>
      <trkpt lat="63.47523" lon="19.24502">
        <ele>22.692938</ele>
        <time>2020-08-29T00:26:37.888Z</time>
      </trkpt>
      <trkpt lat="63.47543" lon="19.24014">
        <ele>25.539128</ele>
        <time>2020-08-29T00:27:24.613Z</time>
      </trkpt>
      <trkpt lat="63.47541" lon="19.23859">
        <ele>27.16068</ele>
        <time>2020-08-29T00:27:43.668Z</time>
      </trkpt>
      <trkpt lat="63.47517" lon="19.23344">
        <ele>35.495368</ele>
        <time>2020-08-29T00:28:54.919Z</time>
      </trkpt>
      <trkpt lat="63.4752" lon="19.23249">
        <ele>36.70274</ele>
        <time>2020-08-29T00:29:06.781Z</time>
      </trkpt>
      <trkpt lat="63.47535" lon="19.23149">
        <ele>38.050092</ele>
        <time>2020-08-29T00:29:19.204Z</time>
      </trkpt>
      <trkpt lat="63.47612" lon="19.22778">
        <ele>43.230973</ele>
        <time>2020-08-29T00:30:04.872Z</time>
      </trkpt>
      <trkpt lat="63.4763" lon="19.22695">
        <ele>44.393503</ele>
        <time>2020-08-29T00:30:16.448Z</time>
      </trkpt>
      <trkpt lat="63.47649" lon="19.22638">
        <ele>45.527295</ele>
        <time>2020-08-29T00:30:26.228Z</time>
      </trkpt>
      <trkpt lat="63.47706" lon="19.22494">
        <ele>49.916299</ele>
        <time>2020-08-29T00:30:54.563Z</time>
      </trkpt>
      <trkpt lat="63.4788" lon="19.22102">
        <ele>64.126458</ele>
        <time>2020-08-29T00:32:26.110Z</time>
      </trkpt>
      <trkpt lat="63.4792" lon="19.22004">
        <ele>67.823149</ele>
        <time>2020-08-29T00:32:48.689Z</time>
      </trkpt>
      <trkpt lat="63.47993" lon="19.21782">
        <ele>75.578627</ele>
        <time>2020-08-29T00:33:36.385Z</time>
      </trkpt>
      <trkpt lat="63.48015" lon="19.21694">
        <ele>78.002948</ele>
        <time>2020-08-29T00:33:52.870Z</time>
      </trkpt>
      <trkpt lat="63.48036" lon="19.21593">
        <ele>80.484223</ele>
        <time>2020-08-29T00:34:10.352Z</time>
      </trkpt>
      <trkpt lat="63.48068" lon="19.21406">
        <ele>84.959753</ele>
        <time>2020-08-29T00:34:39.958Z</time>
      </trkpt>
      <trkpt lat="63.48097" lon="19.2121">
        <ele>88.029043</ele>
        <time>2020-08-29T00:35:06.131Z</time>
      </trkpt>
      <trkpt lat="63.48105" lon="19.21126">
        <ele>89.239256</ele>
        <time>2020-08-29T00:35:16.620Z</time>
      </trkpt>
      <trkpt lat="63.4812" lon="19.2105">
        <ele>90.413282</ele>
        <time>2020-08-29T00:35:26.597Z</time>
      </trkpt>
      <trkpt lat="63.48145" lon="19.20973">
        <ele>91.520557</ele>
        <time>2020-08-29T00:35:37.744Z</time>
      </trkpt>
      <trkpt lat="63.48172" lon="19.20904">
        <ele>92.32646</ele>
        <time>2020-08-29T00:35:48.054Z</time>
      </trkpt>
      <trkpt lat="63.48362" lon="19.20368">
        <ele>97.490717</ele>
        <time>2020-08-29T00:36:59.057Z</time>
      </trkpt>
      <trkpt lat="63.48408" lon="19.20219">
        <ele>97.623046</ele>
        <time>2020-08-29T00:37:15.296Z</time>
      </trkpt>
      <trkpt lat="63.48464" lon="19.19946">
        <ele>97.003197</ele>
        <time>2020-08-29T00:37:37.516Z</time>
      </trkpt>
      <trkpt lat="63.48542" lon="19.19425">
        <ele>91.332341</ele>
        <time>2020-08-29T00:38:11.312Z</time>
      </trkpt>
      <trkpt lat="63.4854" lon="19.19275">
        <ele>89.363647</ele>
        <time>2020-08-29T00:38:19.798Z</time>
      </trkpt>
      <trkpt lat="63.48538" lon="19.1911">
        <ele>86.896541</ele>
        <time>2020-08-29T00:38:29.214Z</time>
      </trkpt>
      <trkpt lat="63.4849" lon="19.19118">
        <ele>85.272725</ele>
        <time>2020-08-29T00:38:40.431Z</time>
      </trkpt>
      <trkpt lat="63.48431" lon="19.19097">
        <ele>83.255925</ele>
        <time>2020-08-29T00:38:54.609Z</time>
      </trkpt>
      <trkpt lat="63.48389" lon="19.19054">
        <ele>82.548156</ele>
        <time>2020-08-29T00:39:06.155Z</time>
      </trkpt>
      <trkpt lat="63.48291" lon="19.18928">
        <ele>80.938294</ele>
        <time>2020-08-29T00:39:36.524Z</time>
      </trkpt>
      <trkpt lat="63.48262" lon="19.18884">
        <ele>80.574968</ele>
        <time>2020-08-29T00:39:46.138Z</time>
      </trkpt>
      <trkpt lat="63.48243" lon="19.18838">
        <ele>80.502171</ele>
        <time>2020-08-29T00:39:54.018Z</time>
      </trkpt>
      <trkpt lat="63.48239" lon="19.18816">
        <ele>80.47548</ele>
        <time>2020-08-29T00:39:56.962Z</time>
      </trkpt>
      <trkpt lat="63.48238" lon="19.18752">
        <ele>80.400905</ele>
        <time>2020-08-29T00:40:05.201Z</time>
      </trkpt>
      <trkpt lat="63.48252" lon="19.1865">
        <ele>80.277046</ele>
        <time>2020-08-29T00:40:19.148Z</time>
      </trkpt>
      <trkpt lat="63.48283" lon="19.18511">
        <ele>80.24561</ele>
        <time>2020-08-29T00:40:40.036Z</time>
      </trkpt>
      <trkpt lat="63.48334" lon="19.18288">
        <ele>81.029585</ele>
        <time>2020-08-29T00:41:14.895Z</time>
      </trkpt>
      <trkpt lat="63.48367" lon="19.1818">
        <ele>81.544226</ele>
        <time>2020-08-29T00:41:34.272Z</time>
      </trkpt>
      <trkpt lat="63.48393" lon="19.1807">
        <ele>83.067023</ele>
        <time>2020-08-29T00:41:54.176Z</time>
      </trkpt>
      <trkpt lat="63.48406" lon="19.17996">
        <ele>84.046052</ele>
        <time>2020-08-29T00:42:07.844Z</time>
      </trkpt>
      <trkpt lat="63.48417" lon="19.1783">
        <ele>86.087408</ele>
        <time>2020-08-29T00:42:38.250Z</time>
      </trkpt>
      <trkpt lat="63.48402" lon="19.17422">
        <ele>93.511561</ele>
        <time>2020-08-29T00:43:57.901Z</time>
      </trkpt>
      <trkpt lat="63.48396" lon="19.17355">
        <ele>94.549584</ele>
        <time>2020-08-29T00:44:10.895Z</time>
      </trkpt>
      <trkpt lat="63.48301" lon="19.16742">
        <ele>103.295828</ele>
        <time>2020-08-29T00:46:05.154Z</time>
      </trkpt>
      <trkpt lat="63.48279" lon="19.16678">
        <ele>104.284772</ele>
        <time>2020-08-29T00:46:18.441Z</time>
      </trkpt>
      <trkpt lat="63.4823" lon="19.16577">
        <ele>105.381234</ele>
        <time>2020-08-29T00:46:42.288Z</time>
      </trkpt>
      <trkpt lat="63.48143" lon="19.16486">
        <ele>106.800995</ele>
        <time>2020-08-29T00:47:15.206Z</time>
      </trkpt>
      <trkpt lat="63.47988" lon="19.16378">
        <ele>107.754346</ele>
        <time>2020-08-29T00:48:07.278Z</time>
      </trkpt>
      <trkpt lat="63.47679" lon="19.16004">
        <ele>105.943626</ele>
        <time>2020-08-29T00:49:46.902Z</time>
      </trkpt>
      <trkpt lat="63.4765" lon="19.15959">
        <ele>105.60711</ele>
        <time>2020-08-29T00:49:55.799Z</time>
      </trkpt>
      <trkpt lat="63.47618" lon="19.15888">
        <ele>104.789102</ele>
        <time>2020-08-29T00:50:07.011Z</time>
      </trkpt>
      <trkpt lat="63.47567" lon="19.15765">
        <ele>103.022696</ele>
        <time>2020-08-29T00:50:25.496Z</time>
      </trkpt>
      <trkpt lat="63.47508" lon="19.15624">
        <ele>101.05707</ele>
        <time>2020-08-29T00:50:46.684Z</time>
      </trkpt>
      <trkpt lat="63.47496" lon="19.15597">
        <ele>100.746188</ele>
        <time>2020-08-29T00:50:50.907Z</time>
      </trkpt>
      <trkpt lat="63.47447" lon="19.15459">
        <ele>99.310869</ele>
        <time>2020-08-29T00:51:10.939Z</time>
      </trkpt>
      <trkpt lat="63.47426" lon="19.15368">
        <ele>98.484076</ele>
        <time>2020-08-29T00:51:22.744Z</time>
      </trkpt>
      <trkpt lat="63.47401" lon="19.152">
        <ele>97.142621</ele>
        <time>2020-08-29T00:51:43.669Z</time>
      </trkpt>
      <trkpt lat="63.47388" lon="19.15146">
        <ele>96.699383</ele>
        <time>2020-08-29T00:51:50.837Z</time>
      </trkpt>
      <trkpt lat="63.47226" lon="19.14831">
        <ele>92.781699</ele>
        <time>2020-08-29T00:52:45.834Z</time>
      </trkpt>
      <trkpt lat="63.47176" lon="19.14707">
        <ele>91.243567</ele>
        <time>2020-08-29T00:53:04.381Z</time>
      </trkpt>
      <trkpt lat="63.47152" lon="19.14662">
        <ele>90.426458</ele>
        <time>2020-08-29T00:53:12.084Z</time>
      </trkpt>
      <trkpt lat="63.4706" lon="19.14553">
        <ele>87.702693</ele>
        <time>2020-08-29T00:53:37.412Z</time>
      </trkpt>
      <trkpt lat="63.47039" lon="19.14503">
        <ele>86.900185</ele>
        <time>2020-08-29T00:53:44.794Z</time>
      </trkpt>
      <trkpt lat="63.46986" lon="19.14264">
        <ele>83.332667</ele>
        <time>2020-08-29T00:54:13.300Z</time>
      </trkpt>
      <trkpt lat="63.46979" lon="19.14106">
        <ele>81.230305</ele>
        <time>2020-08-29T00:54:30.131Z</time>
      </trkpt>
      <trkpt lat="63.46977" lon="19.13884">
        <ele>79.384076</ele>
        <time>2020-08-29T00:54:54.068Z</time>
      </trkpt>
      <trkpt lat="63.46961" lon="19.1381">
        <ele>78.70984</ele>
        <time>2020-08-29T00:55:03.680Z</time>
      </trkpt>
      <trkpt lat="63.46948" lon="19.13779">
        <ele>78.352716</ele>
        <time>2020-08-29T00:55:08.691Z</time>
      </trkpt>
      <trkpt lat="63.46923" lon="19.13727">
        <ele>78.266218</ele>
        <time>2020-08-29T00:55:18.965Z</time>
      </trkpt>
      <trkpt lat="63.46905" lon="19.13691">
        <ele>78.876252</ele>
        <time>2020-08-29T00:55:27.126Z</time>
      </trkpt>
      <trkpt lat="63.46884" lon="19.13643">
        <ele>79.624438</ele>
        <time>2020-08-29T00:55:37.245Z</time>
      </trkpt>
      <trkpt lat="63.4681" lon="19.13361">
        <ele>83.830023</ele>
        <time>2020-08-29T00:56:37.953Z</time>
      </trkpt>
      <trkpt lat="63.46781" lon="19.13269">
        <ele>85.917</ele>
        <time>2020-08-29T00:57:00.753Z</time>
      </trkpt>
      <trkpt lat="63.46756" lon="19.13148">
        <ele>88.363338</ele>
        <time>2020-08-29T00:57:26.899Z</time>
      </trkpt>
      <trkpt lat="63.46741" lon="19.1303">
        <ele>90.237147</ele>
        <time>2020-08-29T00:57:49.741Z</time>
      </trkpt>
      <trkpt lat="63.46738" lon="19.12937">
        <ele>91.059584</ele>
        <time>2020-08-29T00:58:06.294Z</time>
      </trkpt>
      <trkpt lat="63.46744" lon="19.12854">
        <ele>91.795272</ele>
        <time>2020-08-29T00:58:20.334Z</time>
      </trkpt>
      <trkpt lat="63.46813" lon="19.12389">
        <ele>94.029445</ele>
        <time>2020-08-29T00:59:30.058Z</time>
      </trkpt>
      <trkpt lat="63.4686" lon="19.12118">
        <ele>94.696563</ele>
        <time>2020-08-29T01:00:08.228Z</time>
      </trkpt>
      <trkpt lat="63.46868" lon="19.11999">
        <ele>94.99454</ele>
        <time>2020-08-29T01:00:25.168Z</time>
      </trkpt>
      <trkpt lat="63.46859" lon="19.11884">
        <ele>95.509404</ele>
        <time>2020-08-29T01:00:42.441Z</time>
      </trkpt>
      <trkpt lat="63.46721" lon="19.11061">
        <ele>105.48839</ele>
        <time>2020-08-29T01:03:13.892Z</time>
      </trkpt>
      <trkpt lat="63.46706" lon="19.10929">
        <ele>106.738825</ele>
        <time>2020-08-29T01:03:37.342Z</time>
      </trkpt>
      <trkpt lat="63.46669" lon="19.10551">
        <ele>108.363198</ele>
        <time>2020-08-29T01:04:34.507Z</time>
      </trkpt>
      <trkpt lat="63.464" lon="19.08947">
        <ele>101.71829</ele>
        <time>2020-08-29T01:08:01.507Z</time>
      </trkpt>
      <trkpt lat="63.46392" lon="19.08867">
        <ele>101.459495</ele>
        <time>2020-08-29T01:08:12.169Z</time>
      </trkpt>
      <trkpt lat="63.46387" lon="19.08638">
        <ele>102.161329</ele>
        <time>2020-08-29T01:08:43.792Z</time>
      </trkpt>
      <trkpt lat="63.46377" lon="19.08523">
        <ele>102.522615</ele>
        <time>2020-08-29T01:09:01.427Z</time>
      </trkpt>
      <trkpt lat="63.46363" lon="19.08464">
        <ele>102.780093</ele>
        <time>2020-08-29T01:09:11.715Z</time>
      </trkpt>
      <trkpt lat="63.46318" lon="19.08332">
        <ele>103.931564</ele>
        <time>2020-08-29T01:09:37.913Z</time>
      </trkpt>
      <trkpt lat="63.46304" lon="19.08276">
        <ele>104.380426</ele>
        <time>2020-08-29T01:09:48.222Z</time>
      </trkpt>
      <trkpt lat="63.46293" lon="19.082">
        <ele>104.939176</ele>
        <time>2020-08-29T01:10:00.905Z</time>
      </trkpt>
      <trkpt lat="63.46281" lon="19.0803">
        <ele>105.1752</ele>
        <time>2020-08-29T01:10:26.712Z</time>
      </trkpt>
      <trkpt lat="63.46261" lon="19.07914">
        <ele>104.74656</ele>
        <time>2020-08-29T01:10:43.312Z</time>
      </trkpt>
      <trkpt lat="63.46208" lon="19.0775">
        <ele>103.718143</ele>
        <time>2020-08-29T01:11:06.342Z</time>
      </trkpt>
      <trkpt lat="63.46158" lon="19.07636">
        <ele>99.915074</ele>
        <time>2020-08-29T01:11:22.421Z</time>
      </trkpt>
      <trkpt lat="63.4611" lon="19.07489">
        <ele>95.588749</ele>
        <time>2020-08-29T01:11:39.567Z</time>
      </trkpt>
      <trkpt lat="63.46049" lon="19.07286">
        <ele>89.325014</ele>
        <time>2020-08-29T01:12:02.418Z</time>
      </trkpt>
      <trkpt lat="63.46051" lon="19.07248">
        <ele>88.319286</ele>
        <time>2020-08-29T01:12:04.416Z</time>
      </trkpt>
      <trkpt lat="63.4607" lon="19.07119">
        <ele>84.777692</ele>
        <time>2020-08-29T01:12:11.694Z</time>
      </trkpt>
      <trkpt lat="63.46098" lon="19.06972">
        <ele>82.674309</ele>
        <time>2020-08-29T01:12:20.804Z</time>
      </trkpt>
      <trkpt lat="63.46105" lon="19.06764">
        <ele>80.520914</ele>
        <time>2020-08-29T01:12:34.356Z</time>
      </trkpt>
      <trkpt lat="63.46133" lon="19.06579">
        <ele>79.885204</ele>
        <time>2020-08-29T01:12:48.485Z</time>
      </trkpt>
      <trkpt lat="63.46137" lon="19.06469">
        <ele>79.891699</ele>
        <time>2020-08-29T01:12:57.399Z</time>
      </trkpt>
      <trkpt lat="63.46147" lon="19.06374">
        <ele>79.897382</ele>
        <time>2020-08-29T01:13:05.811Z</time>
      </trkpt>
      <trkpt lat="63.46158" lon="19.06329">
        <ele>79.900419</ele>
        <time>2020-08-29T01:13:10.448Z</time>
      </trkpt>
      <trkpt lat="63.46211" lon="19.06204">
        <ele>80.500799</ele>
        <time>2020-08-29T01:13:26.326Z</time>
      </trkpt>
      <trkpt lat="63.46261" lon="19.06016">
        <ele>81.315975</ele>
        <time>2020-08-29T01:13:46.595Z</time>
      </trkpt>
      <trkpt lat="63.46274" lon="19.05901">
        <ele>81.675788</ele>
        <time>2020-08-29T01:13:57.264Z</time>
      </trkpt>
      <trkpt lat="63.46284" lon="19.05662">
        <ele>82.370232</ele>
        <time>2020-08-29T01:14:18.511Z</time>
      </trkpt>
      <trkpt lat="63.46295" lon="19.05555">
        <ele>82.686333</ele>
        <time>2020-08-29T01:14:28.161Z</time>
      </trkpt>
      <trkpt lat="63.46318" lon="19.05473">
        <ele>82.96379</ele>
        <time>2020-08-29T01:14:36.759Z</time>
      </trkpt>
      <trkpt lat="63.46412" lon="19.05236">
        <ele>83.815697</ele>
        <time>2020-08-29T01:15:05.174Z</time>
      </trkpt>
      <trkpt lat="63.46428" lon="19.05179">
        <ele>83.938349</ele>
        <time>2020-08-29T01:15:11.186Z</time>
      </trkpt>
      <trkpt lat="63.46434" lon="19.0514">
        <ele>84.012988</ele>
        <time>2020-08-29T01:15:14.790Z</time>
      </trkpt>
      <trkpt lat="63.4644" lon="19.05071">
        <ele>84.139775</ele>
        <time>2020-08-29T01:15:20.821Z</time>
      </trkpt>
      <trkpt lat="63.46421" lon="19.04872">
        <ele>84.627437</ele>
        <time>2020-08-29T01:15:37.628Z</time>
      </trkpt>
      <trkpt lat="63.46433" lon="19.04758">
        <ele>85.235468</ele>
        <time>2020-08-29T01:15:47.061Z</time>
      </trkpt>
      <trkpt lat="63.46431" lon="19.04738">
        <ele>85.345145</ele>
        <time>2020-08-29T01:15:48.904Z</time>
      </trkpt>
      <trkpt lat="63.46425" lon="19.04722">
        <ele>85.453416</ele>
        <time>2020-08-29T01:15:50.761Z</time>
      </trkpt>
      <trkpt lat="63.46369" lon="19.04663">
        <ele>86.178292</ele>
        <time>2020-08-29T01:16:04.710Z</time>
      </trkpt>
      <trkpt lat="63.46352" lon="19.04632">
        <ele>86.43239</ele>
        <time>2020-08-29T01:16:10.200Z</time>
      </trkpt>
      <trkpt lat="63.46333" lon="19.04586">
        <ele>87.127618</ele>
        <time>2020-08-29T01:16:17.666Z</time>
      </trkpt>
      <trkpt lat="63.46322" lon="19.04559">
        <ele>87.632016</ele>
        <time>2020-08-29T01:16:22.212Z</time>
      </trkpt>
      <trkpt lat="63.46279" lon="19.04444">
        <ele>89.725612</ele>
        <time>2020-08-29T01:16:41.806Z</time>
      </trkpt>
      <trkpt lat="63.46205" lon="19.04294">
        <ele>92.361841</ele>
        <time>2020-08-29T01:17:11.347Z</time>
      </trkpt>
      <trkpt lat="63.45883" lon="19.05043">
        <ele>95.797288</ele>
        <time>2020-08-29T01:18:41.948Z</time>
      </trkpt>
      <trkpt lat="63.45804" lon="19.05229">
        <ele>96.158424</ele>
        <time>2020-08-29T01:19:04.212Z</time>
      </trkpt>
      <trkpt lat="63.4572" lon="19.05427">
        <ele>96.290373</ele>
        <time>2020-08-29T01:19:41.425Z</time>
      </trkpt>
      <trkpt lat="63.45139" lon="19.06843">
        <ele>86.89914</ele>
        <time>2020-08-29T01:23:32.193Z</time>
      </trkpt>
      <trkpt lat="63.45087" lon="19.06948">
        <ele>86.099266</ele>
        <time>2020-08-29T01:23:50.572Z</time>
      </trkpt>
      <trkpt lat="63.45026" lon="19.07021">
        <ele>85.340597</ele>
        <time>2020-08-29T01:24:09.005Z</time>
      </trkpt>
      <trkpt lat="63.44959" lon="19.07073">
        <ele>84.571354</ele>
        <time>2020-08-29T01:24:28.029Z</time>
      </trkpt>
      <trkpt lat="63.44357" lon="19.07504">
        <ele>81.830716</ele>
        <time>2020-08-29T01:27:29.095Z</time>
      </trkpt>
      <trkpt lat="63.44264" lon="19.07541">
        <ele>81.178041</ele>
        <time>2020-08-29T01:27:55.135Z</time>
      </trkpt>
      <trkpt lat="63.4419" lon="19.07544">
        <ele>80.106359</ele>
        <time>2020-08-29T01:28:14.640Z</time>
      </trkpt>
      <trkpt lat="63.44008" lon="19.07502">
        <ele>77.431416</ele>
        <time>2020-08-29T01:29:01.908Z</time>
      </trkpt>
      <trkpt lat="63.4357" lon="19.07376">
        <ele>71.298698</ele>
        <time>2020-08-29T01:30:57.717Z</time>
      </trkpt>
      <trkpt lat="63.4349" lon="19.07363">
        <ele>71.262614</ele>
        <time>2020-08-29T01:31:20.415Z</time>
      </trkpt>
      <trkpt lat="63.42663" lon="19.07334">
        <ele>74.445308</ele>
        <time>2020-08-29T01:35:38.454Z</time>
      </trkpt>
      <trkpt lat="63.42569" lon="19.0733">
        <ele>73.966547</ele>
        <time>2020-08-29T01:36:08.506Z</time>
      </trkpt>
      <trkpt lat="63.42093" lon="19.07302">
        <ele>70.070588</ele>
        <time>2020-08-29T01:38:17.341Z</time>
      </trkpt>
      <trkpt lat="63.41987" lon="19.07289">
        <ele>68.903882</ele>
        <time>2020-08-29T01:38:45.669Z</time>
      </trkpt>
      <trkpt lat="63.41923" lon="19.07259">
        <ele>68.188047</ele>
        <time>2020-08-29T01:39:03.157Z</time>
      </trkpt>
      <trkpt lat="63.41858" lon="19.07207">
        <ele>67.454366</ele>
        <time>2020-08-29T01:39:21.605Z</time>
      </trkpt>
      <trkpt lat="63.41809" lon="19.07139">
        <ele>66.834803</ele>
        <time>2020-08-29T01:39:37.204Z</time>
      </trkpt>
      <trkpt lat="63.41755" lon="19.07044">
        <ele>66.319004</ele>
        <time>2020-08-29T01:39:55.775Z</time>
      </trkpt>
      <trkpt lat="63.41721" lon="19.06956">
        <ele>66.188199</ele>
        <time>2020-08-29T01:40:10.440Z</time>
      </trkpt>
      <trkpt lat="63.41558" lon="19.06589">
        <ele>66.099429</ele>
        <time>2020-08-29T01:41:20.487Z</time>
      </trkpt>
      <trkpt lat="63.41102" lon="19.05633">
        <ele>66.493654</ele>
        <time>2020-08-29T01:44:28.953Z</time>
      </trkpt>
      <trkpt lat="63.40995" lon="19.0547">
        <ele>65.4643</ele>
        <time>2020-08-29T01:45:04.545Z</time>
      </trkpt>
      <trkpt lat="63.40865" lon="19.05323">
        <ele>63.648032</ele>
        <time>2020-08-29T01:45:41.625Z</time>
      </trkpt>
      <trkpt lat="63.40753" lon="19.05186">
        <ele>64.654138</ele>
        <time>2020-08-29T01:46:18.821Z</time>
      </trkpt>
      <trkpt lat="63.40739" lon="19.05245">
        <ele>65.279907</ele>
        <time>2020-08-29T01:46:26.239Z</time>
      </trkpt>
      <trkpt lat="63.40718" lon="19.05325">
        <ele>66.154438</ele>
        <time>2020-08-29T01:46:39.362Z</time>
      </trkpt>
      <trkpt lat="63.40667" lon="19.05448">
        <ele>68.080471</ele>
        <time>2020-08-29T01:47:06.020Z</time>
      </trkpt>
      <trkpt lat="63.40637" lon="19.05457">
        <ele>68.93847</ele>
        <time>2020-08-29T01:47:15.979Z</time>
      </trkpt>
      <trkpt lat="63.40618" lon="19.05478">
        <ele>69.5642</ele>
        <time>2020-08-29T01:47:22.084Z</time>
      </trkpt>
      <trkpt lat="63.40606" lon="19.05519">
        <ele>70.200455</ele>
        <time>2020-08-29T01:47:29.289Z</time>
      </trkpt>
      <trkpt lat="63.40566" lon="19.05549">
        <ele>71.394546</ele>
        <time>2020-08-29T01:47:38.954Z</time>
      </trkpt>
      <trkpt lat="63.40512" lon="19.05563">
        <ele>70.802599</ele>
        <time>2020-08-29T01:47:48.664Z</time>
      </trkpt>
      <trkpt lat="63.40372" lon="19.05558">
        <ele>66.126649</ele>
        <time>2020-08-29T01:48:06.785Z</time>
      </trkpt>
      <trkpt lat="63.40274" lon="19.05567">
        <ele>62.667059</ele>
        <time>2020-08-29T01:48:19.311Z</time>
      </trkpt>
      <trkpt lat="63.40124" lon="19.05617">
        <ele>58.967679</ele>
        <time>2020-08-29T01:48:41.415Z</time>
      </trkpt>
      <trkpt lat="63.39997" lon="19.05583">
        <ele>57.849285</ele>
        <time>2020-08-29T01:49:04.339Z</time>
      </trkpt>
      <trkpt lat="63.39936" lon="19.05611">
        <ele>57.755961</ele>
        <time>2020-08-29T01:49:15.952Z</time>
      </trkpt>
      <trkpt lat="63.39872" lon="19.05655">
        <ele>57.655739</ele>
        <time>2020-08-29T01:49:28.323Z</time>
      </trkpt>
      <trkpt lat="63.39746" lon="19.05765">
        <ele>56.691948</ele>
        <time>2020-08-29T01:49:51.609Z</time>
      </trkpt>
      <trkpt lat="63.39427" lon="19.05956">
        <ele>51.676529</ele>
        <time>2020-08-29T01:50:42.345Z</time>
      </trkpt>
      <trkpt lat="63.39379" lon="19.05968">
        <ele>50.627324</ele>
        <time>2020-08-29T01:50:49.379Z</time>
      </trkpt>
      <trkpt lat="63.39342" lon="19.05998">
        <ele>49.771562</ele>
        <time>2020-08-29T01:50:55.127Z</time>
      </trkpt>
      <trkpt lat="63.39255" lon="19.06107">
        <ele>47.771878</ele>
        <time>2020-08-29T01:51:08.888Z</time>
      </trkpt>
      <trkpt lat="63.39208" lon="19.06139">
        <ele>46.813299</ele>
        <time>2020-08-29T01:51:15.751Z</time>
      </trkpt>
      <trkpt lat="63.39181" lon="19.06146">
        <ele>46.265192</ele>
        <time>2020-08-29T01:51:20.700Z</time>
      </trkpt>
      <trkpt lat="63.39181" lon="19.06135">
        <ele>46.162926</ele>
        <time>2020-08-29T01:51:21.332Z</time>
      </trkpt>
      <trkpt lat="63.3917" lon="19.06081">
        <ele>45.818852</ele>
        <time>2020-08-29T01:51:26.502Z</time>
      </trkpt>
      <trkpt lat="63.39152" lon="19.06045">
        <ele>46.327115</ele>
        <time>2020-08-29T01:51:30.967Z</time>
      </trkpt>
      <trkpt lat="63.3913" lon="19.06021">
        <ele>46.853535</ele>
        <time>2020-08-29T01:51:35.703Z</time>
      </trkpt>
      <trkpt lat="63.39117" lon="19.06091">
        <ele>47.570262</ele>
        <time>2020-08-29T01:51:43.705Z</time>
      </trkpt>
      <trkpt lat="63.39084" lon="19.06229">
        <ele>49.048505</ele>
        <time>2020-08-29T01:52:03.300Z</time>
      </trkpt>
      <trkpt lat="63.39045" lon="19.0633">
        <ele>50.624162</ele>
        <time>2020-08-29T01:52:22.411Z</time>
      </trkpt>
      <trkpt lat="63.38983" lon="19.06452">
        <ele>53.06912</ele>
        <time>2020-08-29T01:52:46.944Z</time>
      </trkpt>
      <trkpt lat="63.38868" lon="19.06603">
        <ele>55.425047</ele>
        <time>2020-08-29T01:53:16.503Z</time>
      </trkpt>
      <trkpt lat="63.38739" lon="19.06756">
        <ele>56.425207</ele>
        <time>2020-08-29T01:53:43.912Z</time>
      </trkpt>
      <trkpt lat="63.38665" lon="19.06844">
        <ele>56.762957</ele>
        <time>2020-08-29T01:53:59.976Z</time>
      </trkpt>
      <trkpt lat="63.38621" lon="19.06896">
        <ele>56.964142</ele>
        <time>2020-08-29T01:54:09.718Z</time>
      </trkpt>
      <trkpt lat="63.38529" lon="19.07005">
        <ele>57.197172</ele>
        <time>2020-08-29T01:54:29.684Z</time>
      </trkpt>
      <trkpt lat="63.38274" lon="19.073">
        <ele>57.492263</ele>
        <time>2020-08-29T01:55:20.466Z</time>
      </trkpt>
      <trkpt lat="63.38144" lon="19.07429">
        <ele>58.100365</ele>
        <time>2020-08-29T01:55:49.042Z</time>
      </trkpt>
      <trkpt lat="63.38118" lon="19.07452">
        <ele>58.10504</ele>
        <time>2020-08-29T01:55:54.386Z</time>
      </trkpt>
      <trkpt lat="63.38012" lon="19.0756">
        <ele>57.740834</ele>
        <time>2020-08-29T01:56:14.313Z</time>
      </trkpt>
      <trkpt lat="63.37631" lon="19.07871">
        <ele>53.889591</ele>
        <time>2020-08-29T01:57:17.343Z</time>
      </trkpt>
      <trkpt lat="63.37271" lon="19.08149">
        <ele>46.901975</ele>
        <time>2020-08-29T01:58:11.404Z</time>
      </trkpt>
      <trkpt lat="63.3689" lon="19.08473">
        <ele>39.092179</ele>
        <time>2020-08-29T01:59:09.488Z</time>
      </trkpt>
      <trkpt lat="63.36805" lon="19.0856">
        <ele>37.183411</ele>
        <time>2020-08-29T01:59:22.593Z</time>
      </trkpt>
      <trkpt lat="63.36711" lon="19.08678">
        <ele>35.192409</ele>
        <time>2020-08-29T01:59:37.650Z</time>
      </trkpt>
      <trkpt lat="63.36566" lon="19.08921">
        <ele>33.219203</ele>
        <time>2020-08-29T02:00:04.483Z</time>
      </trkpt>
      <trkpt lat="63.36339" lon="19.09423">
        <ele>35.103337</ele>
        <time>2020-08-29T02:01:09.644Z</time>
      </trkpt>
      <trkpt lat="63.3628" lon="19.09535">
        <ele>36.241217</ele>
        <time>2020-08-29T02:01:28.319Z</time>
      </trkpt>
      <trkpt lat="63.36143" lon="19.0976">
        <ele>38.37638</ele>
        <time>2020-08-29T02:02:06.339Z</time>
      </trkpt>
      <trkpt lat="63.36041" lon="19.0993">
        <ele>40.112924</ele>
        <time>2020-08-29T02:02:31.811Z</time>
      </trkpt>
      <trkpt lat="63.35795" lon="19.10439">
        <ele>46.282394</ele>
        <time>2020-08-29T02:03:54.021Z</time>
      </trkpt>
      <trkpt lat="63.35704" lon="19.10645">
        <ele>48.38682</ele>
        <time>2020-08-29T02:04:24.429Z</time>
      </trkpt>
      <trkpt lat="63.35611" lon="19.10803">
        <ele>48.640759</ele>
        <time>2020-08-29T02:04:46.911Z</time>
      </trkpt>
      <trkpt lat="63.35529" lon="19.10942">
        <ele>48.291108</ele>
        <time>2020-08-29T02:05:03.503Z</time>
      </trkpt>
      <trkpt lat="63.35303" lon="19.11261">
        <ele>43.915119</ele>
        <time>2020-08-29T02:05:42.702Z</time>
      </trkpt>
      <trkpt lat="63.35065" lon="19.11571">
        <ele>36.984732</ele>
        <time>2020-08-29T02:06:19.630Z</time>
      </trkpt>
      <trkpt lat="63.34965" lon="19.11737">
        <ele>33.815153</ele>
        <time>2020-08-29T02:06:36.640Z</time>
      </trkpt>
      <trkpt lat="63.34884" lon="19.11912">
        <ele>30.932562</ele>
        <time>2020-08-29T02:06:52.131Z</time>
      </trkpt>
      <trkpt lat="63.34855" lon="19.12002">
        <ele>29.661225</ele>
        <time>2020-08-29T02:06:58.897Z</time>
      </trkpt>
      <trkpt lat="63.34777" lon="19.11925">
        <ele>27.471786</ele>
        <time>2020-08-29T02:07:10.230Z</time>
      </trkpt>
      <trkpt lat="63.34662" lon="19.12028">
        <ele>24.219171</ele>
        <time>2020-08-29T02:07:26.840Z</time>
      </trkpt>
      <trkpt lat="63.34529" lon="19.12353">
        <ele>21.005895</ele>
        <time>2020-08-29T02:07:55.679Z</time>
      </trkpt>
      <trkpt lat="63.345" lon="19.12417">
        <ele>20.601045</ele>
        <time>2020-08-29T02:08:02.169Z</time>
      </trkpt>
      <trkpt lat="63.34478" lon="19.12469">
        <ele>20.271808</ele>
        <time>2020-08-29T02:08:07.445Z</time>
      </trkpt>
      <trkpt lat="63.34472" lon="19.12484">
        <ele>20.188097</ele>
        <time>2020-08-29T02:08:08.753Z</time>
      </trkpt>
      <trkpt lat="63.34438" lon="19.12275">
        <ele>19.114251</ele>
        <time>2020-08-29T02:08:24.631Z</time>
      </trkpt>
      <trkpt lat="63.34367" lon="19.11845">
        <ele>15.880898</ele>
        <time>2020-08-29T02:08:53.890Z</time>
      </trkpt>
      <trkpt lat="63.34348" lon="19.11753">
        <ele>15.485934</ele>
        <time>2020-08-29T02:09:00.493Z</time>
      </trkpt>
      <trkpt lat="63.34345" lon="19.11738">
        <ele>15.424183</ele>
        <time>2020-08-29T02:09:01.562Z</time>
      </trkpt>
      <trkpt lat="63.3429" lon="19.1154">
        <ele>14.91875</ele>
        <time>2020-08-29T02:09:19.455Z</time>
      </trkpt>
      <trkpt lat="63.34277" lon="19.11494">
        <ele>15.447735</ele>
        <time>2020-08-29T02:09:24.750Z</time>
      </trkpt>
      <trkpt lat="63.34253" lon="19.11426">
        <ele>16.292136</ele>
        <time>2020-08-29T02:09:33.899Z</time>
      </trkpt>
      <trkpt lat="63.34229" lon="19.1137">
        <ele>17.04123</ele>
        <time>2020-08-29T02:09:42.545Z</time>
      </trkpt>
      <trkpt lat="63.34223" lon="19.11383">
        <ele>17.217617</ele>
        <time>2020-08-29T02:09:44.516Z</time>
      </trkpt>
      <trkpt lat="63.34217" lon="19.11393">
        <ele>17.387288</ele>
        <time>2020-08-29T02:09:47.066Z</time>
      </trkpt>
      <trkpt lat="63.34195" lon="19.11393">
        <ele>17.875866</ele>
        <time>2020-08-29T02:09:53.257Z</time>
      </trkpt>
      <trkpt lat="63.34148" lon="19.11274">
        <ele>20.150101</ele>
        <time>2020-08-29T02:10:15.206Z</time>
      </trkpt>
      <trkpt lat="63.34119" lon="19.11229">
        <ele>21.553196</ele>
        <time>2020-08-29T02:10:26.539Z</time>
      </trkpt>
      <trkpt lat="63.34096" lon="19.11197">
        <ele>22.623271</ele>
        <time>2020-08-29T02:10:35.265Z</time>
      </trkpt>
      <trkpt lat="63.34004" lon="19.11101">
        <ele>26.540792</ele>
        <time>2020-08-29T02:11:07.650Z</time>
      </trkpt>
      <trkpt lat="63.3381" lon="19.10889">
        <ele>32.091457</ele>
        <time>2020-08-29T02:12:10.602Z</time>
      </trkpt>
      <trkpt lat="63.33791" lon="19.1087">
        <ele>32.148652</ele>
        <time>2020-08-29T02:12:15.193Z</time>
      </trkpt>
      <trkpt lat="63.33757" lon="19.10839">
        <ele>32.25221</ele>
        <time>2020-08-29T02:12:22.724Z</time>
      </trkpt>
      <trkpt lat="63.33461" lon="19.10692">
        <ele>25.052568</ele>
        <time>2020-08-29T02:13:04.628Z</time>
      </trkpt>
      <trkpt lat="63.33412" lon="19.10688">
        <ele>23.612511</ele>
        <time>2020-08-29T02:13:11.029Z</time>
      </trkpt>
      <trkpt lat="63.33365" lon="19.10705">
        <ele>22.184909</ele>
        <time>2020-08-29T02:13:17.566Z</time>
      </trkpt>
      <trkpt lat="63.33222" lon="19.10804">
        <ele>19.850693</ele>
        <time>2020-08-29T02:13:40.400Z</time>
      </trkpt>
      <trkpt lat="63.33113" lon="19.10921">
        <ele>18.737779</ele>
        <time>2020-08-29T02:14:02.361Z</time>
      </trkpt>
      <trkpt lat="63.33043" lon="19.10975">
        <ele>18.280903</ele>
        <time>2020-08-29T02:14:15.007Z</time>
      </trkpt>
      <trkpt lat="63.32932" lon="19.11026">
        <ele>16.674154</ele>
        <time>2020-08-29T02:14:32.845Z</time>
      </trkpt>
      <trkpt lat="63.32852" lon="19.11098">
        <ele>15.127301</ele>
        <time>2020-08-29T02:14:45.485Z</time>
      </trkpt>
      <trkpt lat="63.32772" lon="19.11131">
        <ele>13.455063</ele>
        <time>2020-08-29T02:14:57.034Z</time>
      </trkpt>
      <trkpt lat="63.32719" lon="19.11121">
        <ele>12.305271</ele>
        <time>2020-08-29T02:15:04.760Z</time>
      </trkpt>
      <trkpt lat="63.32686" lon="19.11129">
        <ele>11.580985</ele>
        <time>2020-08-29T02:15:09.708Z</time>
      </trkpt>
      <trkpt lat="63.32598" lon="19.1122">
        <ele>10.362577</ele>
        <time>2020-08-29T02:15:24.594Z</time>
      </trkpt>
      <trkpt lat="63.32538" lon="19.11246">
        <ele>9.815477</ele>
        <time>2020-08-29T02:15:34.729Z</time>
      </trkpt>
      <trkpt lat="63.3249" lon="19.1124">
        <ele>9.390009</ele>
        <time>2020-08-29T02:15:43.102Z</time>
      </trkpt>
      <trkpt lat="63.32465" lon="19.11224">
        <ele>9.552949</ele>
        <time>2020-08-29T02:15:48.108Z</time>
      </trkpt>
      <trkpt lat="63.32441" lon="19.11192">
        <ele>9.766214</ele>
        <time>2020-08-29T02:15:53.550Z</time>
      </trkpt>
      <trkpt lat="63.32381" lon="19.11099">
        <ele>10.329972</ele>
        <time>2020-08-29T02:16:09.077Z</time>
      </trkpt>
      <trkpt lat="63.32345" lon="19.11047">
        <ele>10.654856</ele>
        <time>2020-08-29T02:16:18.863Z</time>
      </trkpt>
      <trkpt lat="63.32296" lon="19.10958">
        <ele>11.531324</ele>
        <time>2020-08-29T02:16:33.852Z</time>
      </trkpt>
      <trkpt lat="63.32258" lon="19.10849">
        <ele>12.481436</ele>
        <time>2020-08-29T02:16:48.894Z</time>
      </trkpt>
      <trkpt lat="63.32226" lon="19.10783">
        <ele>13.148507</ele>
        <time>2020-08-29T02:16:59.088Z</time>
      </trkpt>
      <trkpt lat="63.32191" lon="19.10729">
        <ele>13.749889</ele>
        <time>2020-08-29T02:17:08.816Z</time>
      </trkpt>
      <trkpt lat="63.32163" lon="19.10677">
        <ele>14.21069</ele>
        <time>2020-08-29T02:17:16.942Z</time>
      </trkpt>
      <trkpt lat="63.32124" lon="19.10505">
        <ele>15.316782</ele>
        <time>2020-08-29T02:17:35.460Z</time>
      </trkpt>
      <trkpt lat="63.32046" lon="19.10299">
        <ele>17.744149</ele>
        <time>2020-08-29T02:18:05.399Z</time>
      </trkpt>
      <trkpt lat="63.32033" lon="19.10252">
        <ele>18.318233</ele>
        <time>2020-08-29T02:18:11.698Z</time>
      </trkpt>
      <trkpt lat="63.32028" lon="19.10218">
        <ele>18.698676</ele>
        <time>2020-08-29T02:18:16.448Z</time>
      </trkpt>
      <trkpt lat="63.3203" lon="19.10085">
        <ele>20.114421</ele>
        <time>2020-08-29T02:18:32.826Z</time>
      </trkpt>
      <trkpt lat="63.32023" lon="19.1003">
        <ele>20.836098</ele>
        <time>2020-08-29T02:18:40.147Z</time>
      </trkpt>
      <trkpt lat="63.32004" lon="19.09983">
        <ele>21.647455</ele>
        <time>2020-08-29T02:18:48.544Z</time>
      </trkpt>
      <trkpt lat="63.31948" lon="19.09886">
        <ele>23.656177</ele>
        <time>2020-08-29T02:19:08.481Z</time>
      </trkpt>
      <trkpt lat="63.31922" lon="19.0982">
        <ele>24.776812</ele>
        <time>2020-08-29T02:19:19.127Z</time>
      </trkpt>
      <trkpt lat="63.31877" lon="19.0965">
        <ele>26.69757</ele>
        <time>2020-08-29T02:19:42.025Z</time>
      </trkpt>
      <trkpt lat="63.31869" lon="19.09634">
        <ele>26.913957</ele>
        <time>2020-08-29T02:19:44.924Z</time>
      </trkpt>
      <trkpt lat="63.31853" lon="19.09615">
        <ele>27.301088</ele>
        <time>2020-08-29T02:19:49.370Z</time>
      </trkpt>
      <trkpt lat="63.31811" lon="19.09584">
        <ele>28.213242</ele>
        <time>2020-08-29T02:20:00.097Z</time>
      </trkpt>
      <trkpt lat="63.31529" lon="19.09425">
        <ele>32.895879</ele>
        <time>2020-08-29T02:21:08.703Z</time>
      </trkpt>
      <trkpt lat="63.31386" lon="19.09343">
        <ele>35.000353</ele>
        <time>2020-08-29T02:21:43.474Z</time>
      </trkpt>
      <trkpt lat="63.31348" lon="19.09327">
        <ele>35.451242</ele>
        <time>2020-08-29T02:21:52.233Z</time>
      </trkpt>
      <trkpt lat="63.31138" lon="19.0917">
        <ele>37.589691</ele>
        <time>2020-08-29T02:22:39.947Z</time>
      </trkpt>
      <trkpt lat="63.31113" lon="19.09142">
        <ele>37.817243</ele>
        <time>2020-08-29T02:22:45.698Z</time>
      </trkpt>
      <trkpt lat="63.31086" lon="19.09108">
        <ele>38.04114</ele>
        <time>2020-08-29T02:22:52.060Z</time>
      </trkpt>
      <trkpt lat="63.30893" lon="19.08765">
        <ele>38.965036</ele>
        <time>2020-08-29T02:23:42.015Z</time>
      </trkpt>
      <trkpt lat="63.30862" lon="19.08722">
        <ele>38.983483</ele>
        <time>2020-08-29T02:23:48.809Z</time>
      </trkpt>
      <trkpt lat="63.30835" lon="19.08697">
        <ele>38.998521</ele>
        <time>2020-08-29T02:23:54.185Z</time>
      </trkpt>
      <trkpt lat="63.30786" lon="19.0868">
        <ele>38.857395</ele>
        <time>2020-08-29T02:24:03.003Z</time>
      </trkpt>
      <trkpt lat="63.30333" lon="19.08659">
        <ele>32.263775</ele>
        <time>2020-08-29T02:25:13.313Z</time>
      </trkpt>
      <trkpt lat="63.30235" lon="19.08646">
        <ele>30.517197</ele>
        <time>2020-08-29T02:25:27.258Z</time>
      </trkpt>
      <trkpt lat="63.30196" lon="19.08612">
        <ele>29.836386</ele>
        <time>2020-08-29T02:25:33.322Z</time>
      </trkpt>
      <trkpt lat="63.30088" lon="19.08489">
        <ele>27.937399</ele>
        <time>2020-08-29T02:25:52.343Z</time>
      </trkpt>
      <trkpt lat="63.30067" lon="19.08447">
        <ele>27.763237</ele>
        <time>2020-08-29T02:25:57.426Z</time>
      </trkpt>
      <trkpt lat="63.29988" lon="19.08208">
        <ele>26.935593</ele>
        <time>2020-08-29T02:26:20.980Z</time>
      </trkpt>
      <trkpt lat="63.29972" lon="19.08161">
        <ele>26.569546</ele>
        <time>2020-08-29T02:26:25.246Z</time>
      </trkpt>
      <trkpt lat="63.29952" lon="19.08063">
        <ele>25.611239</ele>
        <time>2020-08-29T02:26:32.750Z</time>
      </trkpt>
      <trkpt lat="63.29936" lon="19.07943">
        <ele>24.492191</ele>
        <time>2020-08-29T02:26:41.005Z</time>
      </trkpt>
      <trkpt lat="63.29917" lon="19.07733">
        <ele>22.470844</ele>
        <time>2020-08-29T02:26:54.467Z</time>
      </trkpt>
      <trkpt lat="63.299" lon="19.07652">
        <ele>21.534971</ele>
        <time>2020-08-29T02:27:00.180Z</time>
      </trkpt>
      <trkpt lat="63.29879" lon="19.07595">
        <ele>20.777111</ele>
        <time>2020-08-29T02:27:04.867Z</time>
      </trkpt>
      <trkpt lat="63.29858" lon="19.07566">
        <ele>20.199373</ele>
        <time>2020-08-29T02:27:08.503Z</time>
      </trkpt>
      <trkpt lat="63.29823" lon="19.0754">
        <ele>19.343932</ele>
        <time>2020-08-29T02:27:14.014Z</time>
      </trkpt>
      <trkpt lat="63.29788" lon="19.07537">
        <ele>18.90508</ele>
        <time>2020-08-29T02:27:19.424Z</time>
      </trkpt>
      <trkpt lat="63.29695" lon="19.07553">
        <ele>18.065647</ele>
        <time>2020-08-29T02:27:34.655Z</time>
      </trkpt>
      <trkpt lat="63.29659" lon="19.07549">
        <ele>17.741854</ele>
        <time>2020-08-29T02:27:40.873Z</time>
      </trkpt>
      <trkpt lat="63.29638" lon="19.07536">
        <ele>17.547834</ele>
        <time>2020-08-29T02:27:44.695Z</time>
      </trkpt>
      <trkpt lat="63.29586" lon="19.07477">
        <ele>17.653711</ele>
        <time>2020-08-29T02:27:55.399Z</time>
      </trkpt>
      <trkpt lat="63.29549" lon="19.07447">
        <ele>17.74124</ele>
        <time>2020-08-29T02:28:02.939Z</time>
      </trkpt>
      <trkpt lat="63.29516" lon="19.07435">
        <ele>17.815546</ele>
        <time>2020-08-29T02:28:09.520Z</time>
      </trkpt>
      <trkpt lat="63.29355" lon="19.07447">
        <ele>18.683777</ele>
        <time>2020-08-29T02:28:42.697Z</time>
      </trkpt>
      <trkpt lat="63.29093" lon="19.07473">
        <ele>20.909358</ele>
        <time>2020-08-29T02:29:38.224Z</time>
      </trkpt>
      <trkpt lat="63.28998" lon="19.07482">
        <ele>22.383404</ele>
        <time>2020-08-29T02:30:00.472Z</time>
      </trkpt>
      <trkpt lat="63.28963" lon="19.07478">
        <ele>22.926198</ele>
        <time>2020-08-29T02:30:08.997Z</time>
      </trkpt>
      <trkpt lat="63.28916" lon="19.07446">
        <ele>23.692588</ele>
        <time>2020-08-29T02:30:21.300Z</time>
      </trkpt>
      <trkpt lat="63.28858" lon="19.07364">
        <ele>24.742058</ele>
        <time>2020-08-29T02:30:38.239Z</time>
      </trkpt>
      <trkpt lat="63.28521" lon="19.06471">
        <ele>31.622326</ele>
        <time>2020-08-29T02:32:39.657Z</time>
      </trkpt>
      <trkpt lat="63.28505" lon="19.06415">
        <ele>31.654558</ele>
        <time>2020-08-29T02:32:45.092Z</time>
      </trkpt>
      <trkpt lat="63.28459" lon="19.06001">
        <ele>30.782281</ele>
        <time>2020-08-29T02:33:16.546Z</time>
      </trkpt>
      <trkpt lat="63.28454" lon="19.05911">
        <ele>30.413223</ele>
        <time>2020-08-29T02:33:23.193Z</time>
      </trkpt>
      <trkpt lat="63.28458" lon="19.05834">
        <ele>30.095168</ele>
        <time>2020-08-29T02:33:28.881Z</time>
      </trkpt>
      <trkpt lat="63.28461" lon="19.05761">
        <ele>29.753561</ele>
        <time>2020-08-29T02:33:34.317Z</time>
      </trkpt>
      <trkpt lat="63.28474" lon="19.05594">
        <ele>28.968565</ele>
        <time>2020-08-29T02:33:46.881Z</time>
      </trkpt>
      <trkpt lat="63.28485" lon="19.05065">
        <ele>25.98006</ele>
        <time>2020-08-29T02:34:24.579Z</time>
      </trkpt>
      <trkpt lat="63.28512" lon="19.04746">
        <ele>23.055862</ele>
        <time>2020-08-29T02:34:46.019Z</time>
      </trkpt>
      <trkpt lat="63.28514" lon="19.04609">
        <ele>21.758701</ele>
        <time>2020-08-29T02:34:54.941Z</time>
      </trkpt>
      <trkpt lat="63.28493" lon="19.04439">
        <ele>19.988749</ele>
        <time>2020-08-29T02:35:06.540Z</time>
      </trkpt>
      <trkpt lat="63.28444" lon="19.04161">
        <ele>17.036189</ele>
        <time>2020-08-29T02:35:26.147Z</time>
      </trkpt>
      <trkpt lat="63.28382" lon="19.03947">
        <ele>14.547394</ele>
        <time>2020-08-29T02:35:42.882Z</time>
      </trkpt>
      <trkpt lat="63.283" lon="19.03726">
        <ele>12.086567</ele>
        <time>2020-08-29T02:36:01.893Z</time>
      </trkpt>
      <trkpt lat="63.28287" lon="19.0371">
        <ele>11.815633</ele>
        <time>2020-08-29T02:36:03.980Z</time>
      </trkpt>
      <trkpt lat="63.28237" lon="19.03648">
        <ele>10.812264</ele>
        <time>2020-08-29T02:36:12.835Z</time>
      </trkpt>
      <trkpt lat="63.28178" lon="19.03595">
        <ele>10.308193</ele>
        <time>2020-08-29T02:36:22.809Z</time>
      </trkpt>
      <trkpt lat="63.28133" lon="19.0354">
        <ele>9.900649</ele>
        <time>2020-08-29T02:36:30.961Z</time>
      </trkpt>
      <trkpt lat="63.28052" lon="19.03393">
        <ele>9.713516</ele>
        <time>2020-08-29T02:36:49.443Z</time>
      </trkpt>
      <trkpt lat="63.28027" lon="19.03364">
        <ele>9.879222</ele>
        <time>2020-08-29T02:36:55.008Z</time>
      </trkpt>
      <trkpt lat="63.28001" lon="19.03357">
        <ele>10.031156</ele>
        <time>2020-08-29T02:37:00.247Z</time>
      </trkpt>
      <trkpt lat="63.27615" lon="19.03487">
        <ele>13.777413</ele>
        <time>2020-08-29T02:38:22.243Z</time>
      </trkpt>
      <trkpt lat="63.2753" lon="19.03495">
        <ele>14.947183</ele>
        <time>2020-08-29T02:38:41.380Z</time>
      </trkpt>
      <trkpt lat="63.27379" lon="19.03472">
        <ele>17.441905</ele>
        <time>2020-08-29T02:39:16.829Z</time>
      </trkpt>
      <trkpt lat="63.27282" lon="19.0347">
        <ele>18.797686</ele>
        <time>2020-08-29T02:39:39.455Z</time>
      </trkpt>
      <trkpt lat="63.27209" lon="19.03481">
        <ele>19.823656</ele>
        <time>2020-08-29T02:39:55.371Z</time>
      </trkpt>
      <trkpt lat="63.2716" lon="19.03463">
        <ele>19.724547</ele>
        <time>2020-08-29T02:40:04.992Z</time>
      </trkpt>
      <trkpt lat="63.27102" lon="19.03409">
        <ele>19.5774</ele>
        <time>2020-08-29T02:40:16.114Z</time>
      </trkpt>
      <trkpt lat="63.26864" lon="19.03092">
        <ele>16.76151</ele>
        <time>2020-08-29T02:40:57.987Z</time>
      </trkpt>
      <trkpt lat="63.2672" lon="19.02882">
        <ele>14.507988</ele>
        <time>2020-08-29T02:41:23.529Z</time>
      </trkpt>
      <trkpt lat="63.26668" lon="19.02803">
        <ele>13.832879</ele>
        <time>2020-08-29T02:41:33.247Z</time>
      </trkpt>
      <trkpt lat="63.26549" lon="19.02636">
        <ele>12.346221</ele>
        <time>2020-08-29T02:41:55.231Z</time>
      </trkpt>
      <trkpt lat="63.26523" lon="19.02598">
        <ele>12.021199</ele>
        <time>2020-08-29T02:42:00.065Z</time>
      </trkpt>
      <trkpt lat="63.26464" lon="19.02539">
        <ele>11.351802</ele>
        <time>2020-08-29T02:42:09.975Z</time>
      </trkpt>
      <trkpt lat="63.26431" lon="19.02517">
        <ele>10.993079</ele>
        <time>2020-08-29T02:42:15.254Z</time>
      </trkpt>
      <trkpt lat="63.26334" lon="19.02517">
        <ele>9.877967</ele>
        <time>2020-08-29T02:42:29.898Z</time>
      </trkpt>
      <trkpt lat="63.26263" lon="19.02496">
        <ele>9.044274</ele>
        <time>2020-08-29T02:42:40.745Z</time>
      </trkpt>
      <trkpt lat="63.26076" lon="19.02367">
        <ele>7.038684</ele>
        <time>2020-08-29T02:43:10.959Z</time>
      </trkpt>
      <trkpt lat="63.26044" lon="19.02323">
        <ele>7.03034</ele>
        <time>2020-08-29T02:43:17.018Z</time>
      </trkpt>
      <trkpt lat="63.2599" lon="19.0228">
        <ele>7.017498</ele>
        <time>2020-08-29T02:43:26.715Z</time>
      </trkpt>
      <trkpt lat="63.25687" lon="19.02185">
        <ele>8.825201</ele>
        <time>2020-08-29T02:44:27.244Z</time>
      </trkpt>
      <trkpt lat="63.25556" lon="19.02126">
        <ele>11.024111</ele>
        <time>2020-08-29T02:44:59.043Z</time>
      </trkpt>
      <trkpt lat="63.25535" lon="19.02103">
        <ele>11.679745</ele>
        <time>2020-08-29T02:45:04.938Z</time>
      </trkpt>
      <trkpt lat="63.25513" lon="19.02032">
        <ele>12.920436</ele>
        <time>2020-08-29T02:45:15.432Z</time>
      </trkpt>
      <trkpt lat="63.25509" lon="19.01971">
        <ele>13.789043</ele>
        <time>2020-08-29T02:45:23.125Z</time>
      </trkpt>
      <trkpt lat="63.25503" lon="19.01745">
        <ele>17.024377</ele>
        <time>2020-08-29T02:45:53.000Z</time>
      </trkpt>
      <trkpt lat="63.25499" lon="19.01618">
        <ele>19.033873</ele>
        <time>2020-08-29T02:46:10.244Z</time>
      </trkpt>
      <trkpt lat="63.25505" lon="19.0145">
        <ele>21.679256</ele>
        <time>2020-08-29T02:46:32.831Z</time>
      </trkpt>
      <trkpt lat="63.2551" lon="19.01091">
        <ele>25.695865</ele>
        <time>2020-08-29T02:47:16.584Z</time>
      </trkpt>
      <trkpt lat="63.25511" lon="19.01041">
        <ele>26.178378</ele>
        <time>2020-08-29T02:47:21.717Z</time>
      </trkpt>
      <trkpt lat="63.25512" lon="19.00804">
        <ele>26.317327</ele>
        <time>2020-08-29T02:47:41.884Z</time>
      </trkpt>
      <trkpt lat="63.25508" lon="19.0076">
        <ele>26.148367</ele>
        <time>2020-08-29T02:47:44.956Z</time>
      </trkpt>
      <trkpt lat="63.25477" lon="19.00663">
        <ele>25.69157</ele>
        <time>2020-08-29T02:47:52.794Z</time>
      </trkpt>
      <trkpt lat="63.25384" lon="19.00504">
        <ele>23.559786</ele>
        <time>2020-08-29T02:48:08.856Z</time>
      </trkpt>
      <trkpt lat="63.25339" lon="19.00453">
        <ele>22.422619</ele>
        <time>2020-08-29T02:48:15.783Z</time>
      </trkpt>
      <trkpt lat="63.25229" lon="19.00401">
        <ele>20.986926</ele>
        <time>2020-08-29T02:48:31.941Z</time>
      </trkpt>
      <trkpt lat="63.25168" lon="19.00407">
        <ele>20.613846</ele>
        <time>2020-08-29T02:48:41.980Z</time>
      </trkpt>
      <trkpt lat="63.25097" lon="19.00389">
        <ele>20.491396</ele>
        <time>2020-08-29T02:48:55.757Z</time>
      </trkpt>
      <trkpt lat="63.25076" lon="19.00369">
        <ele>20.75693</ele>
        <time>2020-08-29T02:49:00.802Z</time>
      </trkpt>
      <trkpt lat="63.25028" lon="19.00299">
        <ele>21.395123</ele>
        <time>2020-08-29T02:49:13.517Z</time>
      </trkpt>
      <trkpt lat="63.25035" lon="19.0026">
        <ele>21.608202</ele>
        <time>2020-08-29T02:49:17.951Z</time>
      </trkpt>
      <trkpt lat="63.24981" lon="18.99632">
        <ele>23.614505</ele>
        <time>2020-08-29T02:50:19.729Z</time>
      </trkpt>
      <trkpt lat="63.24962" lon="18.99345">
        <ele>21.915333</ele>
        <time>2020-08-29T02:50:38.317Z</time>
      </trkpt>
      <trkpt lat="63.2494" lon="18.99233">
        <ele>19.858702</ele>
        <time>2020-08-29T02:50:45.455Z</time>
      </trkpt>
      <trkpt lat="63.24936" lon="18.99196">
        <ele>19.197147</ele>
        <time>2020-08-29T02:50:47.524Z</time>
      </trkpt>
      <trkpt lat="63.24932" lon="18.9916">
        <ele>18.542297</ele>
        <time>2020-08-29T02:50:49.686Z</time>
      </trkpt>
      <trkpt lat="63.24913" lon="18.99088">
        <ele>17.060895</ele>
        <time>2020-08-29T02:50:54.395Z</time>
      </trkpt>
      <trkpt lat="63.24872" lon="18.99006">
        <ele>14.890823</ele>
        <time>2020-08-29T02:51:01.153Z</time>
      </trkpt>
      <trkpt lat="63.24815" lon="18.98913">
        <ele>12.415412</ele>
        <time>2020-08-29T02:51:09.934Z</time>
      </trkpt>
      <trkpt lat="63.24761" lon="18.98848">
        <ele>10.28999</ele>
        <time>2020-08-29T02:51:17.785Z</time>
      </trkpt>
      <trkpt lat="63.2474" lon="18.98811">
        <ele>9.343333</ele>
        <time>2020-08-29T02:51:21.396Z</time>
      </trkpt>
      <trkpt lat="63.24723" lon="18.98766">
        <ele>8.539021</ele>
        <time>2020-08-29T02:51:24.945Z</time>
      </trkpt>
      <trkpt lat="63.24707" lon="18.98683">
        <ele>8.403003</ele>
        <time>2020-08-29T02:51:30.809Z</time>
      </trkpt>
      <trkpt lat="63.24697" lon="18.98583">
        <ele>8.247344</ele>
        <time>2020-08-29T02:51:38.251Z</time>
      </trkpt>
      <trkpt lat="63.24677" lon="18.98459">
        <ele>8.049441</ele>
        <time>2020-08-29T02:51:49.464Z</time>
      </trkpt>
      <trkpt lat="63.24628" lon="18.98234">
        <ele>9.488669</ele>
        <time>2020-08-29T02:52:15.417Z</time>
      </trkpt>
      <trkpt lat="63.24567" lon="18.98004">
        <ele>11.795525</ele>
        <time>2020-08-29T02:52:45.367Z</time>
      </trkpt>
      <trkpt lat="63.24475" lon="18.97712">
        <ele>15.218552</ele>
        <time>2020-08-29T02:53:25.191Z</time>
      </trkpt>
      <trkpt lat="63.24451" lon="18.97598">
        <ele>16.090395</ele>
        <time>2020-08-29T02:53:38.632Z</time>
      </trkpt>
      <trkpt lat="63.24437" lon="18.9753">
        <ele>16.608882</ele>
        <time>2020-08-29T02:53:46.431Z</time>
      </trkpt>
      <trkpt lat="63.24401" lon="18.97338">
        <ele>17.981988</ele>
        <time>2020-08-29T02:54:07.066Z</time>
      </trkpt>
      <trkpt lat="63.24389" lon="18.97229">
        <ele>18.295241</ele>
        <time>2020-08-29T02:54:17.425Z</time>
      </trkpt>
      <trkpt lat="63.2439" lon="18.97032">
        <ele>18.849649</ele>
        <time>2020-08-29T02:54:34.514Z</time>
      </trkpt>
      <trkpt lat="63.2438" lon="18.96842">
        <ele>19.031562</ele>
        <time>2020-08-29T02:54:50.770Z</time>
      </trkpt>
      <trkpt lat="63.24366" lon="18.96763">
        <ele>19.011369</ele>
        <time>2020-08-29T02:54:57.760Z</time>
      </trkpt>
      <trkpt lat="63.24346" lon="18.96695">
        <ele>18.992168</ele>
        <time>2020-08-29T02:55:04.308Z</time>
      </trkpt>
      <trkpt lat="63.24331" lon="18.9662">
        <ele>18.972665</ele>
        <time>2020-08-29T02:55:10.893Z</time>
      </trkpt>
      <trkpt lat="63.2432" lon="18.96449">
        <ele>17.85164</ele>
        <time>2020-08-29T02:55:23.008Z</time>
      </trkpt>
      <trkpt lat="63.24297" lon="18.96332">
        <ele>16.822717</ele>
        <time>2020-08-29T02:55:31.239Z</time>
      </trkpt>
      <trkpt lat="63.24282" lon="18.96275">
        <ele>16.295767</ele>
        <time>2020-08-29T02:55:35.300Z</time>
      </trkpt>
      <trkpt lat="63.24263" lon="18.96216">
        <ele>15.699273</ele>
        <time>2020-08-29T02:55:39.742Z</time>
      </trkpt>
      <trkpt lat="63.2422" lon="18.96099">
        <ele>14.389987</ele>
        <time>2020-08-29T02:55:48.623Z</time>
      </trkpt>
      <trkpt lat="63.24208" lon="18.96054">
        <ele>13.932243</ele>
        <time>2020-08-29T02:55:51.841Z</time>
      </trkpt>
      <trkpt lat="63.24195" lon="18.95884">
        <ele>12.424566</ele>
        <time>2020-08-29T02:56:03.018Z</time>
      </trkpt>
      <trkpt lat="63.24193" lon="18.95836">
        <ele>12.541068</ele>
        <time>2020-08-29T02:56:06.387Z</time>
      </trkpt>
      <trkpt lat="63.24192" lon="18.9582">
        <ele>12.694218</ele>
        <time>2020-08-29T02:56:08.556Z</time>
      </trkpt>
      <trkpt lat="63.24194" lon="18.95636">
        <ele>14.38188</ele>
        <time>2020-08-29T02:56:27.570Z</time>
      </trkpt>
      <trkpt lat="63.24196" lon="18.95507">
        <ele>15.561248</ele>
        <time>2020-08-29T02:56:43.827Z</time>
      </trkpt>
      <trkpt lat="63.24196" lon="18.95485">
        <ele>15.763158</ele>
        <time>2020-08-29T02:56:47.146Z</time>
      </trkpt>
      <trkpt lat="63.24197" lon="18.95442">
        <ele>16.432785</ele>
        <time>2020-08-29T02:56:53.086Z</time>
      </trkpt>
      <trkpt lat="63.24199" lon="18.95359">
        <ele>18.10453</ele>
        <time>2020-08-29T02:57:04.733Z</time>
      </trkpt>
      <trkpt lat="63.24201" lon="18.95237">
        <ele>20.570321</ele>
        <time>2020-08-29T02:57:22.787Z</time>
      </trkpt>
      <trkpt lat="63.24202" lon="18.9515">
        <ele>22.323129</ele>
        <time>2020-08-29T02:57:35.889Z</time>
      </trkpt>
      <trkpt lat="63.24209" lon="18.95068">
        <ele>24.004314</ele>
        <time>2020-08-29T02:57:48.416Z</time>
      </trkpt>
      <trkpt lat="63.24213" lon="18.95045">
        <ele>24.454907</ele>
        <time>2020-08-29T02:57:52.269Z</time>
      </trkpt>
      <trkpt lat="63.24232" lon="18.94999">
        <ele>25.556543</ele>
        <time>2020-08-29T02:58:01.438Z</time>
      </trkpt>
      <trkpt lat="63.24273" lon="18.94941">
        <ele>27.445635</ele>
        <time>2020-08-29T02:58:16.512Z</time>
      </trkpt>
      <trkpt lat="63.24286" lon="18.94936">
        <ele>27.973695</ele>
        <time>2020-08-29T02:58:20.911Z</time>
      </trkpt>
      <trkpt lat="63.24302" lon="18.94929">
        <ele>28.613127</ele>
        <time>2020-08-29T02:58:26.050Z</time>
      </trkpt>
      <trkpt lat="63.24499" lon="18.95046">
        <ele>34.374296</ele>
        <time>2020-08-29T02:59:21.012Z</time>
      </trkpt>
      <trkpt lat="63.24646" lon="18.95147">
        <ele>36.094105</ele>
        <time>2020-08-29T02:59:52.423Z</time>
      </trkpt>
      <trkpt lat="63.2468" lon="18.95178">
        <ele>36.361175</ele>
        <time>2020-08-29T02:59:59.510Z</time>
      </trkpt>
      <trkpt lat="63.24788" lon="18.95305">
        <ele>36.796929</ele>
        <time>2020-08-29T03:00:22.209Z</time>
      </trkpt>
      <trkpt lat="63.2484" lon="18.95335">
        <ele>36.935365</ele>
        <time>2020-08-29T03:00:32.162Z</time>
      </trkpt>
      <trkpt lat="63.24891" lon="18.9535">
        <ele>37.202627</ele>
        <time>2020-08-29T03:00:41.762Z</time>
      </trkpt>
      <trkpt lat="63.24942" lon="18.95367">
        <ele>37.682975</ele>
        <time>2020-08-29T03:00:51.736Z</time>
      </trkpt>
      <trkpt lat="63.24982" lon="18.95373">
        <ele>38.048453</ele>
        <time>2020-08-29T03:00:59.750Z</time>
      </trkpt>
      <trkpt lat="63.25012" lon="18.95373">
        <ele>38.326852</ele>
        <time>2020-08-29T03:01:06.087Z</time>
      </trkpt>
      <trkpt lat="63.25033" lon="18.95361">
        <ele>38.53347</ele>
        <time>2020-08-29T03:01:10.934Z</time>
      </trkpt>
      <trkpt lat="63.25049" lon="18.95337">
        <ele>38.751996</ele>
        <time>2020-08-29T03:01:15.089Z</time>
      </trkpt>
      <trkpt lat="63.25179" lon="18.9499">
        <ele>43.898023</ele>
        <time>2020-08-29T03:02:08.497Z</time>
      </trkpt>
      <trkpt lat="63.25218" lon="18.94904">
        <ele>45.385457</ele>
        <time>2020-08-29T03:02:24.678Z</time>
      </trkpt>
      <trkpt lat="63.25272" lon="18.94795">
        <ele>47.35322</ele>
        <time>2020-08-29T03:02:44.404Z</time>
      </trkpt>
      <trkpt lat="63.25309" lon="18.94711">
        <ele>47.874281</ele>
        <time>2020-08-29T03:02:57.074Z</time>
      </trkpt>
      <trkpt lat="63.25341" lon="18.94651">
        <ele>47.59497</ele>
        <time>2020-08-29T03:03:05.699Z</time>
      </trkpt>
      <trkpt lat="63.25389" lon="18.94579">
        <ele>47.202838</ele>
        <time>2020-08-29T03:03:15.180Z</time>
      </trkpt>
      <trkpt lat="63.25604" lon="18.94297">
        <ele>39.907477</ele>
        <time>2020-08-29T03:03:47.191Z</time>
      </trkpt>
      <trkpt lat="63.25631" lon="18.94261">
        <ele>38.756303</ele>
        <time>2020-08-29T03:03:51.046Z</time>
      </trkpt>
      <trkpt lat="63.25685" lon="18.94186">
        <ele>36.418994</ele>
        <time>2020-08-29T03:03:59.028Z</time>
      </trkpt>
      <trkpt lat="63.25712" lon="18.94144">
        <ele>35.240731</ele>
        <time>2020-08-29T03:04:03.206Z</time>
      </trkpt>
      <trkpt lat="63.25734" lon="18.9411">
        <ele>34.249423</ele>
        <time>2020-08-29T03:04:06.810Z</time>
      </trkpt>
      <trkpt lat="63.25782" lon="18.94042">
        <ele>33.44193</ele>
        <time>2020-08-29T03:04:14.816Z</time>
      </trkpt>
      <trkpt lat="63.25821" lon="18.93978">
        <ele>32.93697</ele>
        <time>2020-08-29T03:04:22.192Z</time>
      </trkpt>
      <trkpt lat="63.25851" lon="18.93917">
        <ele>32.513941</ele>
        <time>2020-08-29T03:04:29.236Z</time>
      </trkpt>
      <trkpt lat="63.25861" lon="18.9388">
        <ele>32.31112</ele>
        <time>2020-08-29T03:04:33.097Z</time>
      </trkpt>
      <trkpt lat="63.25868" lon="18.9385">
        <ele>32.149699</ele>
        <time>2020-08-29T03:04:35.820Z</time>
      </trkpt>
      <trkpt lat="63.25926" lon="18.93561">
        <ele>31.569679</ele>
        <time>2020-08-29T03:05:00.800Z</time>
      </trkpt>
      <trkpt lat="63.25938" lon="18.935">
        <ele>31.458243</ele>
        <time>2020-08-29T03:05:05.501Z</time>
      </trkpt>
      <trkpt lat="63.26005" lon="18.93169">
        <ele>28.770639</ele>
        <time>2020-08-29T03:05:29.516Z</time>
      </trkpt>
      <trkpt lat="63.26034" lon="18.93056">
        <ele>27.501287</ele>
        <time>2020-08-29T03:05:37.321Z</time>
      </trkpt>
      <trkpt lat="63.26068" lon="18.92986">
        <ele>26.310105</ele>
        <time>2020-08-29T03:05:43.429Z</time>
      </trkpt>
      <trkpt lat="63.26089" lon="18.92951">
        <ele>25.614462</ele>
        <time>2020-08-29T03:05:46.926Z</time>
      </trkpt>
      <trkpt lat="63.26165" lon="18.92829">
        <ele>23.478957</ele>
        <time>2020-08-29T03:05:59.732Z</time>
      </trkpt>
      <trkpt lat="63.26188" lon="18.92804">
        <ele>23.369145</ele>
        <time>2020-08-29T03:06:03.439Z</time>
      </trkpt>
      <trkpt lat="63.26207" lon="18.92795">
        <ele>23.282216</ele>
        <time>2020-08-29T03:06:06.338Z</time>
      </trkpt>
      <trkpt lat="63.26271" lon="18.92805">
        <ele>23.005486</ele>
        <time>2020-08-29T03:06:17.510Z</time>
      </trkpt>
      <trkpt lat="63.26384" lon="18.92744">
        <ele>22.711661</ele>
        <time>2020-08-29T03:06:41.382Z</time>
      </trkpt>
      <trkpt lat="63.2645" lon="18.92698">
        <ele>22.661721</ele>
        <time>2020-08-29T03:06:54.520Z</time>
      </trkpt>
      <trkpt lat="63.26554" lon="18.92644">
        <ele>21.60748</ele>
        <time>2020-08-29T03:07:10.304Z</time>
      </trkpt>
      <trkpt lat="63.26613" lon="18.92624">
        <ele>20.504139</ele>
        <time>2020-08-29T03:07:18.615Z</time>
      </trkpt>
      <trkpt lat="63.26632" lon="18.92614">
        <ele>20.139092</ele>
        <time>2020-08-29T03:07:21.259Z</time>
      </trkpt>
      <trkpt lat="63.26674" lon="18.92584">
        <ele>19.326304</ele>
        <time>2020-08-29T03:07:27.393Z</time>
      </trkpt>
      <trkpt lat="63.26826" lon="18.92448">
        <ele>17.6238</ele>
        <time>2020-08-29T03:07:52.214Z</time>
      </trkpt>
      <trkpt lat="63.26903" lon="18.92401">
        <ele>17.740288</ele>
        <time>2020-08-29T03:08:07.649Z</time>
      </trkpt>
      <trkpt lat="63.26956" lon="18.92382">
        <ele>17.995287</ele>
        <time>2020-08-29T03:08:18.587Z</time>
      </trkpt>
      <trkpt lat="63.26999" lon="18.92381">
        <ele>18.201639</ele>
        <time>2020-08-29T03:08:27.381Z</time>
      </trkpt>
      <trkpt lat="63.27033" lon="18.92391">
        <ele>18.333187</ele>
        <time>2020-08-29T03:08:34.028Z</time>
      </trkpt>
      <trkpt lat="63.27075" lon="18.92415">
        <ele>18.446727</ele>
        <time>2020-08-29T03:08:42.286Z</time>
      </trkpt>
      <trkpt lat="63.27179" lon="18.92489">
        <ele>18.734874</ele>
        <time>2020-08-29T03:09:02.400Z</time>
      </trkpt>
      <trkpt lat="63.27357" lon="18.92618">
        <ele>18.799021</ele>
        <time>2020-08-29T03:09:35.663Z</time>
      </trkpt>
      <trkpt lat="63.27418" lon="18.92652">
        <ele>18.685661</ele>
        <time>2020-08-29T03:09:47.030Z</time>
      </trkpt>
      <trkpt lat="63.27459" lon="18.92642">
        <ele>18.603218</ele>
        <time>2020-08-29T03:09:54.353Z</time>
      </trkpt>
      <trkpt lat="63.27483" lon="18.9262">
        <ele>18.552629</ele>
        <time>2020-08-29T03:09:58.747Z</time>
      </trkpt>
      <trkpt lat="63.27596" lon="18.92477">
        <ele>18.360031</ele>
        <time>2020-08-29T03:10:20.326Z</time>
      </trkpt>
      <trkpt lat="63.27644" lon="18.92419">
        <ele>18.300367</ele>
        <time>2020-08-29T03:10:29.700Z</time>
      </trkpt>
      <trkpt lat="63.27666" lon="18.9239">
        <ele>18.272429</ele>
        <time>2020-08-29T03:10:34.388Z</time>
      </trkpt>
      <trkpt lat="63.27703" lon="18.92321">
        <ele>18.57076</ele>
        <time>2020-08-29T03:10:43.635Z</time>
      </trkpt>
      <trkpt lat="63.27726" lon="18.92262">
        <ele>19.078995</ele>
        <time>2020-08-29T03:10:50.888Z</time>
      </trkpt>
      <trkpt lat="63.27922" lon="18.917">
        <ele>24.297872</ele>
        <time>2020-08-29T03:12:07.519Z</time>
      </trkpt>
      <trkpt lat="63.27943" lon="18.91648">
        <ele>24.601926</ele>
        <time>2020-08-29T03:12:14.077Z</time>
      </trkpt>
      <trkpt lat="63.27969" lon="18.91609">
        <ele>24.905608</ele>
        <time>2020-08-29T03:12:20.230Z</time>
      </trkpt>
      <trkpt lat="63.2807" lon="18.9155">
        <ele>26.009739</ele>
        <time>2020-08-29T03:12:41.217Z</time>
      </trkpt>
      <trkpt lat="63.2811" lon="18.91517">
        <ele>27.009787</ele>
        <time>2020-08-29T03:12:49.773Z</time>
      </trkpt>
      <trkpt lat="63.28154" lon="18.91436">
        <ele>28.378716</ele>
        <time>2020-08-29T03:13:03.832Z</time>
      </trkpt>
      <trkpt lat="63.28177" lon="18.91334">
        <ele>29.595825</ele>
        <time>2020-08-29T03:13:17.912Z</time>
      </trkpt>
      <trkpt lat="63.28247" lon="18.9087">
        <ele>38.721377</ele>
        <time>2020-08-29T03:14:28.815Z</time>
      </trkpt>
      <trkpt lat="63.28266" lon="18.90776">
        <ele>40.369861</ele>
        <time>2020-08-29T03:14:44.736Z</time>
      </trkpt>
      <trkpt lat="63.2829" lon="18.90705">
        <ele>41.780145</ele>
        <time>2020-08-29T03:14:57.281Z</time>
      </trkpt>
      <trkpt lat="63.28352" lon="18.90588">
        <ele>44.501749</ele>
        <time>2020-08-29T03:15:18.958Z</time>
      </trkpt>
      <trkpt lat="63.2837" lon="18.90556">
        <ele>44.471945</ele>
        <time>2020-08-29T03:15:24.503Z</time>
      </trkpt>
      <trkpt lat="63.28502" lon="18.9031">
        <ele>43.937196</ele>
        <time>2020-08-29T03:15:52.213Z</time>
      </trkpt>
      <trkpt lat="63.28638" lon="18.90066">
        <ele>41.09343</ele>
        <time>2020-08-29T03:16:16.838Z</time>
      </trkpt>
      <trkpt lat="63.28703" lon="18.89992">
        <ele>40.05007</ele>
        <time>2020-08-29T03:16:28.033Z</time>
      </trkpt>
      <trkpt lat="63.28742" lon="18.89962">
        <ele>39.47632</ele>
        <time>2020-08-29T03:16:34.225Z</time>
      </trkpt>
      <trkpt lat="63.28779" lon="18.89928">
        <ele>38.900468</ele>
        <time>2020-08-29T03:16:40.373Z</time>
      </trkpt>
      <trkpt lat="63.28858" lon="18.89848">
        <ele>36.726538</ele>
        <time>2020-08-29T03:16:52.742Z</time>
      </trkpt>
      <trkpt lat="63.28906" lon="18.89784">
        <ele>35.255799</ele>
        <time>2020-08-29T03:17:00.132Z</time>
      </trkpt>
      <trkpt lat="63.29214" lon="18.89344">
        <ele>22.467891</ele>
        <time>2020-08-29T03:17:46.552Z</time>
      </trkpt>
      <trkpt lat="63.29448" lon="18.8901">
        <ele>17.215628</ele>
        <time>2020-08-29T03:18:26.442Z</time>
      </trkpt>
      <trkpt lat="63.29497" lon="18.88939">
        <ele>16.666464</ele>
        <time>2020-08-29T03:18:35.607Z</time>
      </trkpt>
      <trkpt lat="63.29512" lon="18.88917">
        <ele>16.498211</ele>
        <time>2020-08-29T03:18:38.565Z</time>
      </trkpt>
      <trkpt lat="63.29582" lon="18.88826">
        <ele>16.185273</ele>
        <time>2020-08-29T03:18:52.337Z</time>
      </trkpt>
      <trkpt lat="63.29652" lon="18.88729">
        <ele>16.492136</ele>
        <time>2020-08-29T03:19:07.933Z</time>
      </trkpt>
      <trkpt lat="63.29661" lon="18.88719">
        <ele>16.53027</ele>
        <time>2020-08-29T03:19:09.980Z</time>
      </trkpt>
      <trkpt lat="63.29641" lon="18.88603">
        <ele>16.761676</ele>
        <time>2020-08-29T03:19:21.220Z</time>
      </trkpt>
      <trkpt lat="63.29626" lon="18.8851">
        <ele>17.342813</ele>
        <time>2020-08-29T03:19:30.887Z</time>
      </trkpt>
      <trkpt lat="63.29602" lon="18.8833">
        <ele>18.452377</ele>
        <time>2020-08-29T03:19:49.291Z</time>
      </trkpt>
      <trkpt lat="63.29596" lon="18.88264">
        <ele>18.847905</ele>
        <time>2020-08-29T03:19:56.237Z</time>
      </trkpt>
      <trkpt lat="63.29591" lon="18.8819">
        <ele>19.318224</ele>
        <time>2020-08-29T03:20:04.246Z</time>
      </trkpt>
      <trkpt lat="63.29587" lon="18.87993">
        <ele>20.646362</ele>
        <time>2020-08-29T03:20:25.409Z</time>
      </trkpt>
      <trkpt lat="63.29589" lon="18.87921">
        <ele>21.134013</ele>
        <time>2020-08-29T03:20:32.816Z</time>
      </trkpt>
      <trkpt lat="63.29591" lon="18.87844">
        <ele>21.653386</ele>
        <time>2020-08-29T03:20:40.177Z</time>
      </trkpt>
      <trkpt lat="63.29594" lon="18.87782">
        <ele>21.659064</ele>
        <time>2020-08-29T03:20:45.820Z</time>
      </trkpt>
      <trkpt lat="63.296" lon="18.87707">
        <ele>21.432497</ele>
        <time>2020-08-29T03:20:52.349Z</time>
      </trkpt>
      <trkpt lat="63.29606" lon="18.87638">
        <ele>21.220772</ele>
        <time>2020-08-29T03:20:57.865Z</time>
      </trkpt>
      <trkpt lat="63.29643" lon="18.87393">
        <ele>20.06776</ele>
        <time>2020-08-29T03:21:14.889Z</time>
      </trkpt>
      <trkpt lat="63.29657" lon="18.87323">
        <ele>19.222354</ele>
        <time>2020-08-29T03:21:19.561Z</time>
      </trkpt>
      <trkpt lat="63.29669" lon="18.8727">
        <ele>18.549588</ele>
        <time>2020-08-29T03:21:23.272Z</time>
      </trkpt>
      <trkpt lat="63.29701" lon="18.87149">
        <ele>17.004736</ele>
        <time>2020-08-29T03:21:31.764Z</time>
      </trkpt>
      <trkpt lat="63.29745" lon="18.87014">
        <ele>14.908472</ele>
        <time>2020-08-29T03:21:41.747Z</time>
      </trkpt>
      <trkpt lat="63.2976" lon="18.86975">
        <ele>14.21024</ele>
        <time>2020-08-29T03:21:44.766Z</time>
      </trkpt>
      <trkpt lat="63.29776" lon="18.86934">
        <ele>13.452115</ele>
        <time>2020-08-29T03:21:48.092Z</time>
      </trkpt>
      <trkpt lat="63.29799" lon="18.86883">
        <ele>12.460391</ele>
        <time>2020-08-29T03:21:52.386Z</time>
      </trkpt>
      <trkpt lat="63.29795" lon="18.86873">
        <ele>12.274067</ele>
        <time>2020-08-29T03:21:53.164Z</time>
      </trkpt>
      <trkpt lat="63.29776" lon="18.86828">
        <ele>11.413013</ele>
        <time>2020-08-29T03:21:56.804Z</time>
      </trkpt>
      <trkpt lat="63.29691" lon="18.86621">
        <ele>8.149719</ele>
        <time>2020-08-29T03:22:13.199Z</time>
      </trkpt>
      <trkpt lat="63.29667" lon="18.8656">
        <ele>7.258786</ele>
        <time>2020-08-29T03:22:18.072Z</time>
      </trkpt>
      <trkpt lat="63.29508" lon="18.86149">
        <ele>4.916795</ele>
        <time>2020-08-29T03:22:57.027Z</time>
      </trkpt>
      <trkpt lat="63.29472" lon="18.86079">
        <ele>4.995384</ele>
        <time>2020-08-29T03:23:06.098Z</time>
      </trkpt>
      <trkpt lat="63.29453" lon="18.86061">
        <ele>5.029231</ele>
        <time>2020-08-29T03:23:10.038Z</time>
      </trkpt>
      <trkpt lat="63.29427" lon="18.86045">
        <ele>5.074503</ele>
        <time>2020-08-29T03:23:15.329Z</time>
      </trkpt>
      <trkpt lat="63.29292" lon="18.86007">
        <ele>5.269365</ele>
        <time>2020-08-29T03:23:41.495Z</time>
      </trkpt>
      <trkpt lat="63.29257" lon="18.85988">
        <ele>5.3137</ele>
        <time>2020-08-29T03:23:47.953Z</time>
      </trkpt>
      <trkpt lat="63.29236" lon="18.85968">
        <ele>5.34224</ele>
        <time>2020-08-29T03:23:51.927Z</time>
      </trkpt>
      <trkpt lat="63.29205" lon="18.85913">
        <ele>5.392175</ele>
        <time>2020-08-29T03:23:58.865Z</time>
      </trkpt>
      <trkpt lat="63.29193" lon="18.85883">
        <ele>5.356892</ele>
        <time>2020-08-29T03:24:02.042Z</time>
      </trkpt>
      <trkpt lat="63.29186" lon="18.8586">
        <ele>5.29549</ele>
        <time>2020-08-29T03:24:04.076Z</time>
      </trkpt>
      <trkpt lat="63.29175" lon="18.85816">
        <ele>5.187778</ele>
        <time>2020-08-29T03:24:07.924Z</time>
      </trkpt>
      <trkpt lat="63.29164" lon="18.85721">
        <ele>4.977117</ele>
        <time>2020-08-29T03:24:15.004Z</time>
      </trkpt>
      <trkpt lat="63.29145" lon="18.85327">
        <ele>4.674783</ele>
        <time>2020-08-29T03:24:44.292Z</time>
      </trkpt>
      <trkpt lat="63.29149" lon="18.85266">
        <ele>4.718305</ele>
        <time>2020-08-29T03:24:49.438Z</time>
      </trkpt>
      <trkpt lat="63.2918" lon="18.85002">
        <ele>5.487077</ele>
        <time>2020-08-29T03:25:15.286Z</time>
      </trkpt>
      <trkpt lat="63.29179" lon="18.84908">
        <ele>5.976109</ele>
        <time>2020-08-29T03:25:24.930Z</time>
      </trkpt>
      <trkpt lat="63.2917" lon="18.8486">
        <ele>6.249354</ele>
        <time>2020-08-29T03:25:30.271Z</time>
      </trkpt>
      <trkpt lat="63.29138" lon="18.84756">
        <ele>6.908956</ele>
        <time>2020-08-29T03:25:42.593Z</time>
      </trkpt>
      <trkpt lat="63.29115" lon="18.84706">
        <ele>6.780682</ele>
        <time>2020-08-29T03:25:48.997Z</time>
      </trkpt>
      <trkpt lat="63.29075" lon="18.84661">
        <ele>6.598462</ele>
        <time>2020-08-29T03:25:57.396Z</time>
      </trkpt>
      <trkpt lat="63.29037" lon="18.84654">
        <ele>6.446365</ele>
        <time>2020-08-29T03:26:03.664Z</time>
      </trkpt>
      <trkpt lat="63.28868" lon="18.84675">
        <ele>4.750466</ele>
        <time>2020-08-29T03:26:28.467Z</time>
      </trkpt>
      <trkpt lat="63.28831" lon="18.84657">
        <ele>4.226658</ele>
        <time>2020-08-29T03:26:34.029Z</time>
      </trkpt>
      <trkpt lat="63.28816" lon="18.84637">
        <ele>3.983922</ele>
        <time>2020-08-29T03:26:36.644Z</time>
      </trkpt>
      <trkpt lat="63.28791" lon="18.84555">
        <ele>3.616591</ele>
        <time>2020-08-29T03:26:43.373Z</time>
      </trkpt>
      <trkpt lat="63.28761" lon="18.84251">
        <ele>3.07568</ele>
        <time>2020-08-29T03:27:07.401Z</time>
      </trkpt>
      <trkpt lat="63.28757" lon="18.84219">
        <ele>3.018072</ele>
        <time>2020-08-29T03:27:10.144Z</time>
      </trkpt>
      <trkpt lat="63.28755" lon="18.84183">
        <ele>3.017642</ele>
        <time>2020-08-29T03:27:13.228Z</time>
      </trkpt>
      <trkpt lat="63.28762" lon="18.8407">
        <ele>3.021715</ele>
        <time>2020-08-29T03:27:22.674Z</time>
      </trkpt>
      <trkpt lat="63.28925" lon="18.82943">
        <ele>3.481912</ele>
        <time>2020-08-29T03:28:57.396Z</time>
      </trkpt>
      <trkpt lat="63.28935" lon="18.8282">
        <ele>3.901775</ele>
        <time>2020-08-29T03:29:09.259Z</time>
      </trkpt>
      <trkpt lat="63.28933" lon="18.82782">
        <ele>4.030339</ele>
        <time>2020-08-29T03:29:13.010Z</time>
      </trkpt>
      <trkpt lat="63.28929" lon="18.82751">
        <ele>4.138627</ele>
        <time>2020-08-29T03:29:16.081Z</time>
      </trkpt>
      <trkpt lat="63.28928" lon="18.8273">
        <ele>4.208321</ele>
        <time>2020-08-29T03:29:18.274Z</time>
      </trkpt>
      <trkpt lat="63.28929" lon="18.82663">
        <ele>4.467584</ele>
        <time>2020-08-29T03:29:24.828Z</time>
      </trkpt>
      <trkpt lat="63.28938" lon="18.82561">
        <ele>5.032279</ele>
        <time>2020-08-29T03:29:35.440Z</time>
      </trkpt>
      <trkpt lat="63.29" lon="18.82119">
        <ele>7.188045</ele>
        <time>2020-08-29T03:30:20.005Z</time>
      </trkpt>
      <trkpt lat="63.29014" lon="18.81983">
        <ele>7.677407</ele>
        <time>2020-08-29T03:30:32.056Z</time>
      </trkpt>
      <trkpt lat="63.2902" lon="18.81893">
        <ele>8.009126</ele>
        <time>2020-08-29T03:30:39.999Z</time>
      </trkpt>
      <trkpt lat="63.2901" lon="18.8182">
        <ele>8.372155</ele>
        <time>2020-08-29T03:30:46.843Z</time>
      </trkpt>
      <trkpt lat="63.28987" lon="18.81766">
        <ele>8.729961</ele>
        <time>2020-08-29T03:30:53.754Z</time>
      </trkpt>
      <trkpt lat="63.28941" lon="18.81738">
        <ele>9.240758</ele>
        <time>2020-08-29T03:31:04.067Z</time>
      </trkpt>
      <trkpt lat="63.2875" lon="18.81729">
        <ele>11.358009</ele>
        <time>2020-08-29T03:31:47.054Z</time>
      </trkpt>
      <trkpt lat="63.28368" lon="18.81632">
        <ele>13.153774</ele>
        <time>2020-08-29T03:32:59.465Z</time>
      </trkpt>
      <trkpt lat="63.28221" lon="18.81598">
        <ele>14.280695</ele>
        <time>2020-08-29T03:33:29.472Z</time>
      </trkpt>
      <trkpt lat="63.28188" lon="18.81597">
        <ele>14.552347</ele>
        <time>2020-08-29T03:33:36.491Z</time>
      </trkpt>
      <trkpt lat="63.28128" lon="18.81596">
        <ele>14.939983</ele>
        <time>2020-08-29T03:33:49.530Z</time>
      </trkpt>
      <trkpt lat="63.2798" lon="18.816">
        <ele>15.699965</ele>
        <time>2020-08-29T03:34:17.887Z</time>
      </trkpt>
      <trkpt lat="63.27954" lon="18.81601">
        <ele>15.720455</ele>
        <time>2020-08-29T03:34:22.418Z</time>
      </trkpt>
      <trkpt lat="63.27919" lon="18.81594">
        <ele>15.747667</ele>
        <time>2020-08-29T03:34:28.601Z</time>
      </trkpt>
      <trkpt lat="63.27898" lon="18.81579">
        <ele>15.764596</ele>
        <time>2020-08-29T03:34:32.506Z</time>
      </trkpt>
      <trkpt lat="63.27869" lon="18.81538">
        <ele>15.791778</ele>
        <time>2020-08-29T03:34:38.688Z</time>
      </trkpt>
      <trkpt lat="63.27841" lon="18.81474">
        <ele>15.822795</ele>
        <time>2020-08-29T03:34:45.718Z</time>
      </trkpt>
      <trkpt lat="63.27745" lon="18.81224">
        <ele>16.251785</ele>
        <time>2020-08-29T03:35:13.478Z</time>
      </trkpt>
      <trkpt lat="63.27723" lon="18.81166">
        <ele>16.359488</ele>
        <time>2020-08-29T03:35:20.198Z</time>
      </trkpt>
      <trkpt lat="63.27702" lon="18.81106">
        <ele>16.398271</ele>
        <time>2020-08-29T03:35:26.806Z</time>
      </trkpt>
      <trkpt lat="63.2765" lon="18.80993">
        <ele>16.385971</ele>
        <time>2020-08-29T03:35:40.275Z</time>
      </trkpt>
      <trkpt lat="63.27599" lon="18.80951">
        <ele>16.376807</ele>
        <time>2020-08-29T03:35:49.783Z</time>
      </trkpt>
      <trkpt lat="63.27558" lon="18.80933">
        <ele>16.293457</ele>
        <time>2020-08-29T03:35:56.787Z</time>
      </trkpt>
      <trkpt lat="63.27416" lon="18.80929">
        <ele>15.111478</ele>
        <time>2020-08-29T03:36:18.713Z</time>
      </trkpt>
      <trkpt lat="63.27378" lon="18.80912">
        <ele>14.914042</ele>
        <time>2020-08-29T03:36:24.765Z</time>
      </trkpt>
      <trkpt lat="63.27351" lon="18.80888">
        <ele>15.007691</ele>
        <time>2020-08-29T03:36:29.605Z</time>
      </trkpt>
      <trkpt lat="63.2733" lon="18.80856">
        <ele>15.088452</ele>
        <time>2020-08-29T03:36:34.100Z</time>
      </trkpt>
      <trkpt lat="63.27309" lon="18.80808">
        <ele>15.184624</ele>
        <time>2020-08-29T03:36:39.859Z</time>
      </trkpt>
      <trkpt lat="63.27288" lon="18.80747">
        <ele>15.29479</ele>
        <time>2020-08-29T03:36:46.712Z</time>
      </trkpt>
      <trkpt lat="63.27268" lon="18.80692">
        <ele>15.395243</ele>
        <time>2020-08-29T03:36:53.195Z</time>
      </trkpt>
      <trkpt lat="63.27242" lon="18.80592">
        <ele>15.802014</ele>
        <time>2020-08-29T03:37:04.563Z</time>
      </trkpt>
      <trkpt lat="63.27237" lon="18.80571">
        <ele>15.911548</ele>
        <time>2020-08-29T03:37:07.079Z</time>
      </trkpt>
      <trkpt lat="63.27224" lon="18.80513">
        <ele>16.217556</ele>
        <time>2020-08-29T03:37:13.651Z</time>
      </trkpt>
      <trkpt lat="63.27132" lon="18.79931">
        <ele>18.730145</ele>
        <time>2020-08-29T03:38:10.935Z</time>
      </trkpt>
      <trkpt lat="63.27129" lon="18.79894">
        <ele>18.757708</ele>
        <time>2020-08-29T03:38:14.526Z</time>
      </trkpt>
      <trkpt lat="63.27127" lon="18.79785">
        <ele>18.46799</ele>
        <time>2020-08-29T03:38:23.893Z</time>
      </trkpt>
      <trkpt lat="63.27121" lon="18.79731">
        <ele>18.320948</ele>
        <time>2020-08-29T03:38:28.319Z</time>
      </trkpt>
      <trkpt lat="63.27108" lon="18.79676">
        <ele>18.158194</ele>
        <time>2020-08-29T03:38:32.784Z</time>
      </trkpt>
      <trkpt lat="63.27087" lon="18.79613">
        <ele>17.946438</ele>
        <time>2020-08-29T03:38:38.202Z</time>
      </trkpt>
      <trkpt lat="63.27063" lon="18.79547">
        <ele>17.664062</ele>
        <time>2020-08-29T03:38:43.570Z</time>
      </trkpt>
      <trkpt lat="63.27025" lon="18.79441">
        <ele>16.291073</ele>
        <time>2020-08-29T03:38:51.944Z</time>
      </trkpt>
      <trkpt lat="63.2699" lon="18.79332">
        <ele>14.924948</ele>
        <time>2020-08-29T03:39:00.332Z</time>
      </trkpt>
      <trkpt lat="63.26988" lon="18.79327">
        <ele>14.857891</ele>
        <time>2020-08-29T03:39:00.683Z</time>
      </trkpt>
      <trkpt lat="63.26928" lon="18.7908">
        <ele>12.209848</ele>
        <time>2020-08-29T03:39:18.244Z</time>
      </trkpt>
      <trkpt lat="63.26904" lon="18.79026">
        <ele>11.542784</ele>
        <time>2020-08-29T03:39:23.003Z</time>
      </trkpt>
      <trkpt lat="63.26892" lon="18.7901">
        <ele>11.266166</ele>
        <time>2020-08-29T03:39:25.153Z</time>
      </trkpt>
      <trkpt lat="63.26863" lon="18.78984">
        <ele>10.642507</ele>
        <time>2020-08-29T03:39:29.666Z</time>
      </trkpt>
      <trkpt lat="63.26792" lon="18.78929">
        <ele>8.893181</ele>
        <time>2020-08-29T03:39:40.518Z</time>
      </trkpt>
      <trkpt lat="63.26758" lon="18.78896">
        <ele>7.967369</ele>
        <time>2020-08-29T03:39:45.600Z</time>
      </trkpt>
      <trkpt lat="63.26681" lon="18.78796">
        <ele>5.719682</ele>
        <time>2020-08-29T03:39:57.375Z</time>
      </trkpt>
      <trkpt lat="63.26654" lon="18.78758">
        <ele>4.991245</ele>
        <time>2020-08-29T03:40:01.637Z</time>
      </trkpt>
      <trkpt lat="63.26634" lon="18.78842">
        <ele>4.043162</ele>
        <time>2020-08-29T03:40:11.960Z</time>
      </trkpt>
      <trkpt lat="63.26634" lon="18.78859">
        <ele>3.873077</ele>
        <time>2020-08-29T03:40:13.953Z</time>
      </trkpt>
      <trkpt lat="63.26641" lon="18.78878">
        <ele>3.628063</ele>
        <time>2020-08-29T03:40:16.828Z</time>
      </trkpt>
      <trkpt lat="63.26656" lon="18.78903">
        <ele>3.201433</ele>
        <time>2020-08-29T03:40:21.488Z</time>
      </trkpt>
      <trkpt lat="63.26657" lon="18.78951">
        <ele>2.716271</ele>
        <time>2020-08-29T03:40:27.198Z</time>
      </trkpt>
      <trkpt lat="63.26658" lon="18.78969">
        <ele>2.537029</ele>
        <time>2020-08-29T03:40:29.044Z</time>
      </trkpt>
      <trkpt lat="63.26643" lon="18.7895">
        <ele>2.149869</ele>
        <time>2020-08-29T03:40:33.570Z</time>
      </trkpt>
      <trkpt lat="63.26586" lon="18.78906">
        <ele>1.363943</ele>
        <time>2020-08-29T03:40:48.773Z</time>
      </trkpt>
      <trkpt lat="63.26489" lon="18.78829">
        <ele>0.700524</ele>
        <time>2020-08-29T03:41:17.661Z</time>
      </trkpt>
      <trkpt lat="63.26441" lon="18.78771">
        <ele>0.510294</ele>
        <time>2020-08-29T03:41:34.188Z</time>
      </trkpt>
      <trkpt lat="63.26407" lon="18.78711">
        <ele>0.80032</ele>
        <time>2020-08-29T03:41:48.116Z</time>
      </trkpt>
      <trkpt lat="63.26397" lon="18.78702">
        <ele>0.878673</ele>
        <time>2020-08-29T03:41:51.832Z</time>
      </trkpt>
      <trkpt lat="63.26353" lon="18.78644">
        <ele>1.219934</ele>
        <time>2020-08-29T03:42:07.782Z</time>
      </trkpt>
      <trkpt lat="63.26362" lon="18.78617">
        <ele>1.321188</ele>
        <time>2020-08-29T03:42:13.093Z</time>
      </trkpt>
      <trkpt lat="63.26378" lon="18.78586">
        <ele>1.466054</ele>
        <time>2020-08-29T03:42:19.506Z</time>
      </trkpt>
      <trkpt lat="63.26386" lon="18.78556">
        <ele>1.572329</ele>
        <time>2020-08-29T03:42:25.018Z</time>
      </trkpt>
      <trkpt lat="63.26388" lon="18.7854">
        <ele>1.622404</ele>
        <time>2020-08-29T03:42:27.308Z</time>
      </trkpt>
      <trkpt lat="63.26382" lon="18.78509">
        <ele>1.782439</ele>
        <time>2020-08-29T03:42:32.012Z</time>
      </trkpt>
      <trkpt lat="63.26383" lon="18.78494">
        <ele>1.860345</ele>
        <time>2020-08-29T03:42:34.758Z</time>
      </trkpt>
      <trkpt lat="63.26278" lon="18.78402">
        <ele>3.126996</ele>
        <time>2020-08-29T03:42:59.757Z</time>
      </trkpt>
      <trkpt lat="63.26209" lon="18.78342">
        <ele>3.926863</ele>
        <time>2020-08-29T03:43:14.842Z</time>
      </trkpt>
      <trkpt lat="63.26139" lon="18.78284">
        <ele>4.700524</ele>
        <time>2020-08-29T03:43:30.217Z</time>
      </trkpt>
      <trkpt lat="63.26014" lon="18.782">
        <ele>6.603856</ele>
        <time>2020-08-29T03:43:58.528Z</time>
      </trkpt>
      <trkpt lat="63.26015" lon="18.78185">
        <ele>6.747562</ele>
        <time>2020-08-29T03:44:00.550Z</time>
      </trkpt>
      <trkpt lat="63.25995" lon="18.78171">
        <ele>7.208829</ele>
        <time>2020-08-29T03:44:05.860Z</time>
      </trkpt>
      <trkpt lat="63.25957" lon="18.78143">
        <ele>8.038469</ele>
        <time>2020-08-29T03:44:16.024Z</time>
      </trkpt>
      <trkpt lat="63.2594" lon="18.78121">
        <ele>8.459115</ele>
        <time>2020-08-29T03:44:21.719Z</time>
      </trkpt>
      <trkpt lat="63.25925" lon="18.7809">
        <ele>8.886422</ele>
        <time>2020-08-29T03:44:26.942Z</time>
      </trkpt>
      <trkpt lat="63.25911" lon="18.78031">
        <ele>9.533002</ele>
        <time>2020-08-29T03:44:35.254Z</time>
      </trkpt>
      <trkpt lat="63.25904" lon="18.7799">
        <ele>9.979636</ele>
        <time>2020-08-29T03:44:41.168Z</time>
      </trkpt>
      <trkpt lat="63.25896" lon="18.77948">
        <ele>10.430828</ele>
        <time>2020-08-29T03:44:46.544Z</time>
      </trkpt>
      <trkpt lat="63.25875" lon="18.77821">
        <ele>11.791619</ele>
        <time>2020-08-29T03:45:02.216Z</time>
      </trkpt>
      <trkpt lat="63.25867" lon="18.77775">
        <ele>12.284454</ele>
        <time>2020-08-29T03:45:07.837Z</time>
      </trkpt>
      <trkpt lat="63.25841" lon="18.77521">
        <ele>14.517803</ele>
        <time>2020-08-29T03:45:35.945Z</time>
      </trkpt>
      <trkpt lat="63.25842" lon="18.77427">
        <ele>15.238475</ele>
        <time>2020-08-29T03:45:45.626Z</time>
      </trkpt>
      <trkpt lat="63.25837" lon="18.77375">
        <ele>15.639179</ele>
        <time>2020-08-29T03:45:51.565Z</time>
      </trkpt>
      <trkpt lat="63.25833" lon="18.77319">
        <ele>16.075102</ele>
        <time>2020-08-29T03:45:57.804Z</time>
      </trkpt>
      <trkpt lat="63.25828" lon="18.77272">
        <ele>16.425711</ele>
        <time>2020-08-29T03:46:03.217Z</time>
      </trkpt>
      <trkpt lat="63.25828" lon="18.77223">
        <ele>16.721002</ele>
        <time>2020-08-29T03:46:08.694Z</time>
      </trkpt>
      <trkpt lat="63.25833" lon="18.77187">
        <ele>16.948943</ele>
        <time>2020-08-29T03:46:12.679Z</time>
      </trkpt>
      <trkpt lat="63.25858" lon="18.77123">
        <ele>17.466558</ele>
        <time>2020-08-29T03:46:21.887Z</time>
      </trkpt>
      <trkpt lat="63.2587" lon="18.77109">
        <ele>17.644039</ele>
        <time>2020-08-29T03:46:25.282Z</time>
      </trkpt>
      <trkpt lat="63.25881" lon="18.771">
        <ele>17.801684</ele>
        <time>2020-08-29T03:46:28.071Z</time>
      </trkpt>
      <trkpt lat="63.25926" lon="18.77079">
        <ele>18.421823</ele>
        <time>2020-08-29T03:46:38.536Z</time>
      </trkpt>
      <trkpt lat="63.25961" lon="18.77082">
        <ele>18.721666</ele>
        <time>2020-08-29T03:46:45.975Z</time>
      </trkpt>
      <trkpt lat="63.2654" lon="18.77193">
        <ele>13.794824</ele>
        <time>2020-08-29T03:48:22.838Z</time>
      </trkpt>
      <trkpt lat="63.26564" lon="18.77186">
        <ele>13.16743</ele>
        <time>2020-08-29T03:48:26.225Z</time>
      </trkpt>
      <trkpt lat="63.26593" lon="18.77171">
        <ele>12.399271</ele>
        <time>2020-08-29T03:48:30.338Z</time>
      </trkpt>
      <trkpt lat="63.26624" lon="18.77153">
        <ele>11.58625</ele>
        <time>2020-08-29T03:48:34.660Z</time>
      </trkpt>
      <trkpt lat="63.26699" lon="18.77073">
        <ele>9.221235</ele>
        <time>2020-08-29T03:48:45.820Z</time>
      </trkpt>
      <trkpt lat="63.26755" lon="18.76998">
        <ele>7.178223</ele>
        <time>2020-08-29T03:48:54.597Z</time>
      </trkpt>
      <trkpt lat="63.26817" lon="18.76878">
        <ele>4.719707</ele>
        <time>2020-08-29T03:49:06.183Z</time>
      </trkpt>
      <trkpt lat="63.26835" lon="18.76832">
        <ele>4.351022</ele>
        <time>2020-08-29T03:49:10.178Z</time>
      </trkpt>
      <trkpt lat="63.26858" lon="18.7677">
        <ele>3.878982</ele>
        <time>2020-08-29T03:49:15.414Z</time>
      </trkpt>
      <trkpt lat="63.26927" lon="18.76522">
        <ele>2.735624</ele>
        <time>2020-08-29T03:49:37.161Z</time>
      </trkpt>
      <trkpt lat="63.26959" lon="18.7642">
        <ele>3.506637</ele>
        <time>2020-08-29T03:49:49.597Z</time>
      </trkpt>
      <trkpt lat="63.27009" lon="18.76273">
        <ele>4.642776</ele>
        <time>2020-08-29T03:50:10.449Z</time>
      </trkpt>
      <trkpt lat="63.27081" lon="18.76063">
        <ele>7.459988</ele>
        <time>2020-08-29T03:50:42.744Z</time>
      </trkpt>
      <trkpt lat="63.27153" lon="18.75849">
        <ele>10.848769</ele>
        <time>2020-08-29T03:51:14.549Z</time>
      </trkpt>
      <trkpt lat="63.27221" lon="18.75649">
        <ele>14.55402</ele>
        <time>2020-08-29T03:51:46.260Z</time>
      </trkpt>
      <trkpt lat="63.27268" lon="18.7553">
        <ele>17.736891</ele>
        <time>2020-08-29T03:52:10.950Z</time>
      </trkpt>
      <trkpt lat="63.27317" lon="18.75422">
        <ele>21.381952</ele>
        <time>2020-08-29T03:52:36.216Z</time>
      </trkpt>
      <trkpt lat="63.27343" lon="18.75372">
        <ele>23.176474</ele>
        <time>2020-08-29T03:52:48.730Z</time>
      </trkpt>
      <trkpt lat="63.27357" lon="18.75345">
        <ele>24.123058</ele>
        <time>2020-08-29T03:52:55.711Z</time>
      </trkpt>
      <trkpt lat="63.27477" lon="18.75164">
        <ele>30.721511</ele>
        <time>2020-08-29T03:53:45.757Z</time>
      </trkpt>
      <trkpt lat="63.27577" lon="18.75064">
        <ele>34.479591</ele>
        <time>2020-08-29T03:54:16.779Z</time>
      </trkpt>
      <trkpt lat="63.27607" lon="18.75031">
        <ele>35.388229</ele>
        <time>2020-08-29T03:54:26.279Z</time>
      </trkpt>
      <trkpt lat="63.27634" lon="18.75002">
        <ele>36.179757</ele>
        <time>2020-08-29T03:54:34.302Z</time>
      </trkpt>
      <trkpt lat="63.27649" lon="18.74991">
        <ele>36.586022</ele>
        <time>2020-08-29T03:54:38.240Z</time>
      </trkpt>
      <trkpt lat="63.27663" lon="18.74969">
        <ele>37.05588</ele>
        <time>2020-08-29T03:54:42.963Z</time>
      </trkpt>
      <trkpt lat="63.27695" lon="18.74932">
        <ele>37.656529</ele>
        <time>2020-08-29T03:54:52.131Z</time>
      </trkpt>
      <trkpt lat="63.27721" lon="18.74914">
        <ele>37.679198</ele>
        <time>2020-08-29T03:54:58.575Z</time>
      </trkpt>
      <trkpt lat="63.27827" lon="18.74868">
        <ele>37.770257</ele>
        <time>2020-08-29T03:55:19.106Z</time>
      </trkpt>
      <trkpt lat="63.27853" lon="18.7484">
        <ele>37.794869</ele>
        <time>2020-08-29T03:55:23.607Z</time>
      </trkpt>
      <trkpt lat="63.27987" lon="18.74583">
        <ele>32.691697</ele>
        <time>2020-08-29T03:55:48.080Z</time>
      </trkpt>
      <trkpt lat="63.2808" lon="18.74451">
        <ele>29.393877</ele>
        <time>2020-08-29T03:56:02.869Z</time>
      </trkpt>
      <trkpt lat="63.28136" lon="18.74316">
        <ele>27.007269</ele>
        <time>2020-08-29T03:56:14.761Z</time>
      </trkpt>
      <trkpt lat="63.28147" lon="18.74293">
        <ele>26.726827</ele>
        <time>2020-08-29T03:56:16.849Z</time>
      </trkpt>
      <trkpt lat="63.28156" lon="18.74278">
        <ele>26.51974</ele>
        <time>2020-08-29T03:56:18.612Z</time>
      </trkpt>
      <trkpt lat="63.28173" lon="18.74218">
        <ele>25.91774</ele>
        <time>2020-08-29T03:56:23.402Z</time>
      </trkpt>
      <trkpt lat="63.2822" lon="18.74114">
        <ele>24.68146</ele>
        <time>2020-08-29T03:56:33.255Z</time>
      </trkpt>
      <trkpt lat="63.28233" lon="18.74093">
        <ele>24.365354</ele>
        <time>2020-08-29T03:56:35.925Z</time>
      </trkpt>
      <trkpt lat="63.28262" lon="18.73973">
        <ele>23.338408</ele>
        <time>2020-08-29T03:56:45.162Z</time>
      </trkpt>
      <trkpt lat="63.28302" lon="18.73815">
        <ele>22.126012</ele>
        <time>2020-08-29T03:56:57.717Z</time>
      </trkpt>
      <trkpt lat="63.28312" lon="18.73784">
        <ele>21.868942</ele>
        <time>2020-08-29T03:57:00.310Z</time>
      </trkpt>
      <trkpt lat="63.28326" lon="18.7376">
        <ele>21.606587</ele>
        <time>2020-08-29T03:57:02.973Z</time>
      </trkpt>
      <trkpt lat="63.28339" lon="18.73711">
        <ele>21.228311</ele>
        <time>2020-08-29T03:57:06.891Z</time>
      </trkpt>
      <trkpt lat="63.28361" lon="18.7365">
        <ele>21.03849</ele>
        <time>2020-08-29T03:57:12.545Z</time>
      </trkpt>
      <trkpt lat="63.28456" lon="18.73446">
        <ele>20.698195</ele>
        <time>2020-08-29T03:57:36.558Z</time>
      </trkpt>
      <trkpt lat="63.28482" lon="18.73398">
        <ele>20.720573</ele>
        <time>2020-08-29T03:57:43.266Z</time>
      </trkpt>
      <trkpt lat="63.28529" lon="18.73326">
        <ele>21.065128</ele>
        <time>2020-08-29T03:57:55.309Z</time>
      </trkpt>
      <trkpt lat="63.28563" lon="18.73281">
        <ele>21.3038</ele>
        <time>2020-08-29T03:58:03.747Z</time>
      </trkpt>
      <trkpt lat="63.2858" lon="18.73258">
        <ele>21.427033</ele>
        <time>2020-08-29T03:58:08.325Z</time>
      </trkpt>
      <trkpt lat="63.28599" lon="18.73245">
        <ele>21.547353</ele>
        <time>2020-08-29T03:58:12.407Z</time>
      </trkpt>
      <trkpt lat="63.28608" lon="18.73233">
        <ele>21.608766</ele>
        <time>2020-08-29T03:58:14.531Z</time>
      </trkpt>
      <trkpt lat="63.28615" lon="18.73217">
        <ele>21.671952</ele>
        <time>2020-08-29T03:58:16.658Z</time>
      </trkpt>
      <trkpt lat="63.28626" lon="18.73196">
        <ele>21.680998</ele>
        <time>2020-08-29T03:58:19.203Z</time>
      </trkpt>
      <trkpt lat="63.28643" lon="18.73173">
        <ele>21.445162</ele>
        <time>2020-08-29T03:58:23.216Z</time>
      </trkpt>
      <trkpt lat="63.28688" lon="18.73111">
        <ele>20.836884</ele>
        <time>2020-08-29T03:58:32.804Z</time>
      </trkpt>
      <trkpt lat="63.28715" lon="18.73073">
        <ele>20.470092</ele>
        <time>2020-08-29T03:58:38.486Z</time>
      </trkpt>
      <trkpt lat="63.2873" lon="18.73037">
        <ele>20.215514</ele>
        <time>2020-08-29T03:58:41.730Z</time>
      </trkpt>
      <trkpt lat="63.28773" lon="18.72939">
        <ele>19.116685</ele>
        <time>2020-08-29T03:58:50.223Z</time>
      </trkpt>
      <trkpt lat="63.28786" lon="18.7288">
        <ele>17.907361</ele>
        <time>2020-08-29T03:58:54.294Z</time>
      </trkpt>
      <trkpt lat="63.28794" lon="18.72803">
        <ele>16.423581</ele>
        <time>2020-08-29T03:58:58.916Z</time>
      </trkpt>
      <trkpt lat="63.28794" lon="18.72788">
        <ele>16.139825</ele>
        <time>2020-08-29T03:58:59.713Z</time>
      </trkpt>
      <trkpt lat="63.28794" lon="18.72777">
        <ele>15.947157</ele>
        <time>2020-08-29T03:59:00.317Z</time>
      </trkpt>
      <trkpt lat="63.28791" lon="18.7275">
        <ele>15.414913</ele>
        <time>2020-08-29T03:59:02.092Z</time>
      </trkpt>
      <trkpt lat="63.28786" lon="18.72714">
        <ele>14.726386</ele>
        <time>2020-08-29T03:59:04.162Z</time>
      </trkpt>
      <trkpt lat="63.2877" lon="18.72644">
        <ele>13.27014</ele>
        <time>2020-08-29T03:59:08.729Z</time>
      </trkpt>
      <trkpt lat="63.28756" lon="18.72602">
        <ele>12.265273</ele>
        <time>2020-08-29T03:59:11.994Z</time>
      </trkpt>
      <trkpt lat="63.28746" lon="18.72572">
        <ele>11.706203</ele>
        <time>2020-08-29T03:59:14.011Z</time>
      </trkpt>
      <trkpt lat="63.28734" lon="18.72539">
        <ele>11.072909</ele>
        <time>2020-08-29T03:59:16.637Z</time>
      </trkpt>
      <trkpt lat="63.28723" lon="18.72443">
        <ele>9.584853</ele>
        <time>2020-08-29T03:59:22.407Z</time>
      </trkpt>
      <trkpt lat="63.28727" lon="18.7223">
        <ele>6.377377</ele>
        <time>2020-08-29T03:59:35.845Z</time>
      </trkpt>
      <trkpt lat="63.28727" lon="18.72198">
        <ele>6.037301</ele>
        <time>2020-08-29T03:59:37.958Z</time>
      </trkpt>
      <trkpt lat="63.28727" lon="18.72189">
        <ele>5.966452</ele>
        <time>2020-08-29T03:59:38.568Z</time>
      </trkpt>
      <trkpt lat="63.28731" lon="18.7218">
        <ele>5.880969</ele>
        <time>2020-08-29T03:59:39.359Z</time>
      </trkpt>
      <trkpt lat="63.28729" lon="18.72167">
        <ele>5.772261</ele>
        <time>2020-08-29T03:59:40.324Z</time>
      </trkpt>
      <trkpt lat="63.28727" lon="18.72147">
        <ele>5.613993</ele>
        <time>2020-08-29T03:59:41.682Z</time>
      </trkpt>
      <trkpt lat="63.28725" lon="18.72133">
        <ele>5.492979</ele>
        <time>2020-08-29T03:59:42.739Z</time>
      </trkpt>
      <trkpt lat="63.28721" lon="18.72114">
        <ele>5.329272</ele>
        <time>2020-08-29T03:59:44.128Z</time>
      </trkpt>
      <trkpt lat="63.28706" lon="18.71937">
        <ele>3.9118</ele>
        <time>2020-08-29T03:59:56.430Z</time>
      </trkpt>
      <trkpt lat="63.28703" lon="18.71919">
        <ele>3.760271</ele>
        <time>2020-08-29T03:59:57.731Z</time>
      </trkpt>
      <trkpt lat="63.28692" lon="18.7177">
        <ele>2.839903</ele>
        <time>2020-08-29T04:00:08.216Z</time>
      </trkpt>
      <trkpt lat="63.28696" lon="18.71741">
        <ele>2.738256</ele>
        <time>2020-08-29T04:00:10.345Z</time>
      </trkpt>
      <trkpt lat="63.28697" lon="18.71721">
        <ele>2.667701</ele>
        <time>2020-08-29T04:00:11.909Z</time>
      </trkpt>
      <trkpt lat="63.28697" lon="18.71711">
        <ele>2.634756</ele>
        <time>2020-08-29T04:00:12.593Z</time>
      </trkpt>
      <trkpt lat="63.28703" lon="18.71673">
        <ele>2.497269</ele>
        <time>2020-08-29T04:00:15.528Z</time>
      </trkpt>
      <trkpt lat="63.28721" lon="18.71623">
        <ele>2.282641</ele>
        <time>2020-08-29T04:00:20.236Z</time>
      </trkpt>
      <trkpt lat="63.28734" lon="18.71592">
        <ele>2.136854</ele>
        <time>2020-08-29T04:00:23.485Z</time>
      </trkpt>
      <trkpt lat="63.2876" lon="18.7151">
        <ele>1.794069</ele>
        <time>2020-08-29T04:00:31.502Z</time>
      </trkpt>
      <trkpt lat="63.28769" lon="18.71481">
        <ele>1.679348</ele>
        <time>2020-08-29T04:00:34.482Z</time>
      </trkpt>
      <trkpt lat="63.28776" lon="18.71452">
        <ele>1.697609</ele>
        <time>2020-08-29T04:00:37.117Z</time>
      </trkpt>
      <trkpt lat="63.28785" lon="18.71412">
        <ele>1.722683</ele>
        <time>2020-08-29T04:00:40.938Z</time>
      </trkpt>
      <trkpt lat="63.28791" lon="18.71391">
        <ele>1.73658</ele>
        <time>2020-08-29T04:00:43.052Z</time>
      </trkpt>
      <trkpt lat="63.2883" lon="18.71262">
        <ele>1.823002</ele>
        <time>2020-08-29T04:00:56.395Z</time>
      </trkpt>
      <trkpt lat="63.28842" lon="18.71224">
        <ele>1.849074</ele>
        <time>2020-08-29T04:01:00.437Z</time>
      </trkpt>
      <trkpt lat="63.28852" lon="18.71209">
        <ele>1.863612</ele>
        <time>2020-08-29T04:01:02.911Z</time>
      </trkpt>
      <trkpt lat="63.28847" lon="18.71195">
        <ele>1.873803</ele>
        <time>2020-08-29T04:01:04.896Z</time>
      </trkpt>
      <trkpt lat="63.28841" lon="18.71186">
        <ele>1.882531</ele>
        <time>2020-08-29T04:01:06.602Z</time>
      </trkpt>
      <trkpt lat="63.28838" lon="18.71157">
        <ele>1.898971</ele>
        <time>2020-08-29T04:01:10.003Z</time>
      </trkpt>
      <trkpt lat="63.28832" lon="18.71104">
        <ele>1.909013</ele>
        <time>2020-08-29T04:01:14.616Z</time>
      </trkpt>
      <trkpt lat="63.28815" lon="18.7096">
        <ele>1.931899</ele>
        <time>2020-08-29T04:01:27.063Z</time>
      </trkpt>
      <trkpt lat="63.28802" lon="18.70848">
        <ele>1.94977</ele>
        <time>2020-08-29T04:01:36.857Z</time>
      </trkpt>
      <trkpt lat="63.28789" lon="18.70857">
        <ele>1.954449</ele>
        <time>2020-08-29T04:01:39.062Z</time>
      </trkpt>
      <trkpt lat="63.2877" lon="18.70868">
        <ele>1.961255</ele>
        <time>2020-08-29T04:01:42.786Z</time>
      </trkpt>
      <trkpt lat="63.28743" lon="18.70878">
        <ele>2.044033</ele>
        <time>2020-08-29T04:01:47.354Z</time>
      </trkpt>
      <trkpt lat="63.2874" lon="18.70841">
        <ele>2.10558</ele>
        <time>2020-08-29T04:01:50.538Z</time>
      </trkpt>
      <trkpt lat="63.28701" lon="18.70795">
        <ele>2.266664</ele>
        <time>2020-08-29T04:01:58.367Z</time>
      </trkpt>
      <trkpt lat="63.28645" lon="18.70781">
        <ele>2.466883</ele>
        <time>2020-08-29T04:02:08.046Z</time>
      </trkpt>
      <trkpt lat="63.28438" lon="18.70926">
        <ele>5.883878</ele>
        <time>2020-08-29T04:02:58.675Z</time>
      </trkpt>
      <trkpt lat="63.2843" lon="18.70929">
        <ele>6.043053</ele>
        <time>2020-08-29T04:03:00.902Z</time>
      </trkpt>
      <trkpt lat="63.28427" lon="18.70926">
        <ele>6.132243</ele>
        <time>2020-08-29T04:03:02.439Z</time>
      </trkpt>
      <trkpt lat="63.28422" lon="18.70902">
        <ele>6.41465</ele>
        <time>2020-08-29T04:03:05.400Z</time>
      </trkpt>
      <trkpt lat="63.28416" lon="18.70869">
        <ele>6.774924</ele>
        <time>2020-08-29T04:03:09.472Z</time>
      </trkpt>
      <trkpt lat="63.28413" lon="18.70862">
        <ele>6.875515</ele>
        <time>2020-08-29T04:03:11.003Z</time>
      </trkpt>
      <trkpt lat="63.28402" lon="18.70852">
        <ele>7.156882</ele>
        <time>2020-08-29T04:03:14.200Z</time>
      </trkpt>
      <trkpt lat="63.28398" lon="18.70847">
        <ele>7.269964</ele>
        <time>2020-08-29T04:03:15.850Z</time>
      </trkpt>
      <trkpt lat="63.28336" lon="18.70874">
        <ele>8.717038</ele>
        <time>2020-08-29T04:03:33.983Z</time>
      </trkpt>
      <trkpt lat="63.27984" lon="18.71059">
        <ele>13.261666</ele>
        <time>2020-08-29T04:04:53.509Z</time>
      </trkpt>
      <trkpt lat="63.27873" lon="18.7104">
        <ele>14.584625</ele>
        <time>2020-08-29T04:05:16.840Z</time>
      </trkpt>
      <trkpt lat="63.27855" lon="18.70978">
        <ele>15.040754</ele>
        <time>2020-08-29T04:05:24.061Z</time>
      </trkpt>
      <trkpt lat="63.27829" lon="18.70976">
        <ele>15.403884</ele>
        <time>2020-08-29T04:05:30.253Z</time>
      </trkpt>
      <trkpt lat="63.27805" lon="18.70968">
        <ele>15.754783</ele>
        <time>2020-08-29T04:05:36.073Z</time>
      </trkpt>
      <trkpt lat="63.27736" lon="18.70917">
        <ele>17.146107</ele>
        <time>2020-08-29T04:05:54.484Z</time>
      </trkpt>
      <trkpt lat="63.27703" lon="18.70879">
        <ele>18.140392</ele>
        <time>2020-08-29T04:06:04.784Z</time>
      </trkpt>
      <trkpt lat="63.27697" lon="18.70871">
        <ele>18.316703</ele>
        <time>2020-08-29T04:06:06.857Z</time>
      </trkpt>
      <trkpt lat="63.27671" lon="18.70849">
        <ele>19.047654</ele>
        <time>2020-08-29T04:06:14.290Z</time>
      </trkpt>
      <trkpt lat="63.27661" lon="18.70845">
        <ele>19.328766</ele>
        <time>2020-08-29T04:06:17.449Z</time>
      </trkpt>
      <trkpt lat="63.27642" lon="18.70838">
        <ele>19.829474</ele>
        <time>2020-08-29T04:06:22.371Z</time>
      </trkpt>
      <trkpt lat="63.2762" lon="18.70826">
        <ele>20.427534</ele>
        <time>2020-08-29T04:06:28.715Z</time>
      </trkpt>
      <trkpt lat="63.27599" lon="18.70795">
        <ele>21.095282</ele>
        <time>2020-08-29T04:06:35.801Z</time>
      </trkpt>
      <trkpt lat="63.27554" lon="18.70702">
        <ele>22.833015</ele>
        <time>2020-08-29T04:06:52.684Z</time>
      </trkpt>
      <trkpt lat="63.2752" lon="18.70582">
        <ele>24.631006</ele>
        <time>2020-08-29T04:07:10.385Z</time>
      </trkpt>
      <trkpt lat="63.27501" lon="18.7044">
        <ele>26.387198</ele>
        <time>2020-08-29T04:07:29.064Z</time>
      </trkpt>
      <trkpt lat="63.27498" lon="18.70365">
        <ele>26.987462</ele>
        <time>2020-08-29T04:07:38.056Z</time>
      </trkpt>
      <trkpt lat="63.27501" lon="18.70318">
        <ele>27.359388</ele>
        <time>2020-08-29T04:07:43.192Z</time>
      </trkpt>
      <trkpt lat="63.27502" lon="18.70295">
        <ele>27.54825</ele>
        <time>2020-08-29T04:07:46.165Z</time>
      </trkpt>
      <trkpt lat="63.27504" lon="18.70261">
        <ele>27.818191</ele>
        <time>2020-08-29T04:07:49.880Z</time>
      </trkpt>
      <trkpt lat="63.27505" lon="18.70184">
        <ele>28.43016</ele>
        <time>2020-08-29T04:07:58.206Z</time>
      </trkpt>
      <trkpt lat="63.27505" lon="18.70179">
        <ele>28.468284</ele>
        <time>2020-08-29T04:07:58.684Z</time>
      </trkpt>
      <trkpt lat="63.27505" lon="18.70158">
        <ele>28.635776</ele>
        <time>2020-08-29T04:08:00.713Z</time>
      </trkpt>
      <trkpt lat="63.27506" lon="18.7011">
        <ele>29.01377</ele>
        <time>2020-08-29T04:08:05.828Z</time>
      </trkpt>
      <trkpt lat="63.27506" lon="18.70097">
        <ele>29.12101</ele>
        <time>2020-08-29T04:08:07.125Z</time>
      </trkpt>
      <trkpt lat="63.27508" lon="18.70014">
        <ele>29.119946</ele>
        <time>2020-08-29T04:08:14.602Z</time>
      </trkpt>
      <trkpt lat="63.27506" lon="18.69923">
        <ele>28.739916</ele>
        <time>2020-08-29T04:08:22.357Z</time>
      </trkpt>
      <trkpt lat="63.27492" lon="18.69777">
        <ele>28.121319</ele>
        <time>2020-08-29T04:08:32.931Z</time>
      </trkpt>
      <trkpt lat="63.27488" lon="18.69748">
        <ele>27.99428</ele>
        <time>2020-08-29T04:08:34.930Z</time>
      </trkpt>
      <trkpt lat="63.27482" lon="18.69705">
        <ele>27.809366</ele>
        <time>2020-08-29T04:08:37.875Z</time>
      </trkpt>
      <trkpt lat="63.2745" lon="18.69555">
        <ele>25.682719</ele>
        <time>2020-08-29T04:08:48.570Z</time>
      </trkpt>
      <trkpt lat="63.27444" lon="18.69529">
        <ele>25.259019</ele>
        <time>2020-08-29T04:08:50.338Z</time>
      </trkpt>
      <trkpt lat="63.27405" lon="18.69426">
        <ele>23.293471</ele>
        <time>2020-08-29T04:08:58.574Z</time>
      </trkpt>
      <trkpt lat="63.27379" lon="18.69367">
        <ele>22.072978</ele>
        <time>2020-08-29T04:09:03.579Z</time>
      </trkpt>
      <trkpt lat="63.27352" lon="18.69315">
        <ele>20.500506</ele>
        <time>2020-08-29T04:09:08.160Z</time>
      </trkpt>
      <trkpt lat="63.27298" lon="18.69245">
        <ele>17.50767</ele>
        <time>2020-08-29T04:09:16.162Z</time>
      </trkpt>
      <trkpt lat="63.27277" lon="18.69219">
        <ele>16.367943</ele>
        <time>2020-08-29T04:09:19.237Z</time>
      </trkpt>
      <trkpt lat="63.2727" lon="18.69215">
        <ele>16.021776</ele>
        <time>2020-08-29T04:09:20.151Z</time>
      </trkpt>
      <trkpt lat="63.27263" lon="18.69199">
        <ele>15.561909</ele>
        <time>2020-08-29T04:09:21.377Z</time>
      </trkpt>
      <trkpt lat="63.2726" lon="18.69178">
        <ele>15.092373</ele>
        <time>2020-08-29T04:09:22.683Z</time>
      </trkpt>
      <trkpt lat="63.27259" lon="18.69173">
        <ele>14.957528</ele>
        <time>2020-08-29T04:09:23.014Z</time>
      </trkpt>
      <trkpt lat="63.27255" lon="18.69168">
        <ele>14.752238</ele>
        <time>2020-08-29T04:09:23.571Z</time>
      </trkpt>
      <trkpt lat="63.27247" lon="18.69159">
        <ele>14.323816</ele>
        <time>2020-08-29T04:09:24.699Z</time>
      </trkpt>
      <trkpt lat="63.27244" lon="18.69155">
        <ele>14.171996</ele>
        <time>2020-08-29T04:09:25.094Z</time>
      </trkpt>
      <trkpt lat="63.27231" lon="18.69162">
        <ele>13.526224</ele>
        <time>2020-08-29T04:09:26.855Z</time>
      </trkpt>
      <trkpt lat="63.27224" lon="18.69156">
        <ele>13.187788</ele>
        <time>2020-08-29T04:09:27.765Z</time>
      </trkpt>
      <trkpt lat="63.27207" lon="18.69138">
        <ele>12.359279</ele>
        <time>2020-08-29T04:09:30.185Z</time>
      </trkpt>
      <trkpt lat="63.27191" lon="18.6913">
        <ele>11.638736</ele>
        <time>2020-08-29T04:09:32.303Z</time>
      </trkpt>
      <trkpt lat="63.27123" lon="18.6909">
        <ele>8.567769</ele>
        <time>2020-08-29T04:09:41.196Z</time>
      </trkpt>
      <trkpt lat="63.27054" lon="18.69074">
        <ele>5.520393</ele>
        <time>2020-08-29T04:09:50.367Z</time>
      </trkpt>
      <trkpt lat="63.2698" lon="18.69071">
        <ele>4.641503</ele>
        <time>2020-08-29T04:10:00.999Z</time>
      </trkpt>
      <trkpt lat="63.26893" lon="18.69067">
        <ele>3.723658</ele>
        <time>2020-08-29T04:10:15.825Z</time>
      </trkpt>
      <trkpt lat="63.26856" lon="18.69065">
        <ele>3.991591</ele>
        <time>2020-08-29T04:10:23.626Z</time>
      </trkpt>
      <trkpt lat="63.26761" lon="18.69022">
        <ele>7.179812</ele>
        <time>2020-08-29T04:10:51.033Z</time>
      </trkpt>
      <trkpt lat="63.26752" lon="18.69017">
        <ele>7.473207</ele>
        <time>2020-08-29T04:10:53.889Z</time>
      </trkpt>
      <trkpt lat="63.26747" lon="18.69013">
        <ele>7.670911</ele>
        <time>2020-08-29T04:10:56.152Z</time>
      </trkpt>
      <trkpt lat="63.26741" lon="18.69009">
        <ele>7.875737</ele>
        <time>2020-08-29T04:10:58.587Z</time>
      </trkpt>
      <trkpt lat="63.26738" lon="18.69008">
        <ele>7.954028</ele>
        <time>2020-08-29T04:10:59.532Z</time>
      </trkpt>
      <trkpt lat="63.26734" lon="18.69017">
        <ele>8.148942</ele>
        <time>2020-08-29T04:11:01.454Z</time>
      </trkpt>
      <trkpt lat="63.26733" lon="18.69034">
        <ele>8.398702</ele>
        <time>2020-08-29T04:11:03.809Z</time>
      </trkpt>
      <trkpt lat="63.26731" lon="18.69043">
        <ele>8.549897</ele>
        <time>2020-08-29T04:11:05.289Z</time>
      </trkpt>
      <trkpt lat="63.26678" lon="18.69003">
        <ele>10.828403</ele>
        <time>2020-08-29T04:11:24.942Z</time>
      </trkpt>
      <trkpt lat="63.26624" lon="18.68963">
        <ele>13.501324</ele>
        <time>2020-08-29T04:11:44.112Z</time>
      </trkpt>
      <trkpt lat="63.26613" lon="18.68948">
        <ele>14.112662</ele>
        <time>2020-08-29T04:11:49.228Z</time>
      </trkpt>
      <trkpt lat="63.26542" lon="18.68863">
        <ele>17.893462</ele>
        <time>2020-08-29T04:12:15.777Z</time>
      </trkpt>
      <trkpt lat="63.26475" lon="18.68776">
        <ele>20.532709</ele>
        <time>2020-08-29T04:12:39.019Z</time>
      </trkpt>
      <trkpt lat="63.26423" lon="18.68708">
        <ele>22.606545</ele>
        <time>2020-08-29T04:12:55.943Z</time>
      </trkpt>
      <trkpt lat="63.26404" lon="18.68684">
        <ele>23.337349</ele>
        <time>2020-08-29T04:13:02.250Z</time>
      </trkpt>
      <trkpt lat="63.26401" lon="18.68665">
        <ele>23.652293</ele>
        <time>2020-08-29T04:13:04.890Z</time>
      </trkpt>
      <trkpt lat="63.26381" lon="18.68657">
        <ele>24.322909</ele>
        <time>2020-08-29T04:13:10.958Z</time>
      </trkpt>
      <trkpt lat="63.26358" lon="18.68652">
        <ele>25.070297</ele>
        <time>2020-08-29T04:13:17.299Z</time>
      </trkpt>
      <trkpt lat="63.26347" lon="18.6865">
        <ele>25.461686</ele>
        <time>2020-08-29T04:13:20.983Z</time>
      </trkpt>
      <trkpt lat="63.26337" lon="18.68648">
        <ele>25.79671</ele>
        <time>2020-08-29T04:13:23.658Z</time>
      </trkpt>
      <trkpt lat="63.26309" lon="18.68643">
        <ele>26.7154</ele>
        <time>2020-08-29T04:13:31.786Z</time>
      </trkpt>
      <trkpt lat="63.26263" lon="18.68632">
        <ele>28.228158</ele>
        <time>2020-08-29T04:13:45.228Z</time>
      </trkpt>
      <trkpt lat="63.26232" lon="18.68627">
        <ele>29.258172</ele>
        <time>2020-08-29T04:13:54.734Z</time>
      </trkpt>
      <trkpt lat="63.26111" lon="18.6861">
        <ele>32.633895</ele>
        <time>2020-08-29T04:14:29.370Z</time>
      </trkpt>
      <trkpt lat="63.261" lon="18.68609">
        <ele>32.915902</ele>
        <time>2020-08-29T04:14:32.181Z</time>
      </trkpt>
      <trkpt lat="63.26053" lon="18.68603">
        <ele>34.175714</ele>
        <time>2020-08-29T04:14:44.351Z</time>
      </trkpt>
      <trkpt lat="63.26035" lon="18.686">
        <ele>34.639033</ele>
        <time>2020-08-29T04:14:48.651Z</time>
      </trkpt>
      <trkpt lat="63.26019" lon="18.68598">
        <ele>34.906531</ele>
        <time>2020-08-29T04:14:52.806Z</time>
      </trkpt>
      <trkpt lat="63.2601" lon="18.68598">
        <ele>35.027805</ele>
        <time>2020-08-29T04:14:54.952Z</time>
      </trkpt>
      <trkpt lat="63.25937" lon="18.68586">
        <ele>36.027536</ele>
        <time>2020-08-29T04:15:12.130Z</time>
      </trkpt>
      <trkpt lat="63.25897" lon="18.6858">
        <ele>36.568365</ele>
        <time>2020-08-29T04:15:21.010Z</time>
      </trkpt>
      <trkpt lat="63.25855" lon="18.68575">
        <ele>37.146986</ele>
        <time>2020-08-29T04:15:30.331Z</time>
      </trkpt>
      <trkpt lat="63.25822" lon="18.68569">
        <ele>37.002955</ele>
        <time>2020-08-29T04:15:37.350Z</time>
      </trkpt>
      <trkpt lat="63.25771" lon="18.6856">
        <ele>36.719112</ele>
        <time>2020-08-29T04:15:47.197Z</time>
      </trkpt>
      <trkpt lat="63.25731" lon="18.68554">
        <ele>36.498649</ele>
        <time>2020-08-29T04:15:53.652Z</time>
      </trkpt>
      <trkpt lat="63.25662" lon="18.68544">
        <ele>35.853545</ele>
        <time>2020-08-29T04:16:04.256Z</time>
      </trkpt>
      <trkpt lat="63.25662" lon="18.68544">
        <ele>35.835915</ele>
        <time>2020-08-29T04:16:04.323Z</time>
      </trkpt>
      <trkpt lat="63.25637" lon="18.68541">
        <ele>35.122866</ele>
        <time>2020-08-29T04:16:07.878Z</time>
      </trkpt>
      <trkpt lat="63.25612" lon="18.68537">
        <ele>34.391633</ele>
        <time>2020-08-29T04:16:11.359Z</time>
      </trkpt>
      <trkpt lat="63.25543" lon="18.68504">
        <ele>32.320401</ele>
        <time>2020-08-29T04:16:21.059Z</time>
      </trkpt>
      <trkpt lat="63.25482" lon="18.68443">
        <ele>30.497365</ele>
        <time>2020-08-29T04:16:30.021Z</time>
      </trkpt>
      <trkpt lat="63.2545" lon="18.68385">
        <ele>29.59842</ele>
        <time>2020-08-29T04:16:35.671Z</time>
      </trkpt>
      <trkpt lat="63.25413" lon="18.68276">
        <ele>28.24876</ele>
        <time>2020-08-29T04:16:44.583Z</time>
      </trkpt>
      <trkpt lat="63.25399" lon="18.68216">
        <ele>27.587739</ele>
        <time>2020-08-29T04:16:49.203Z</time>
      </trkpt>
      <trkpt lat="63.25386" lon="18.6814">
        <ele>27.115743</ele>
        <time>2020-08-29T04:16:55.121Z</time>
      </trkpt>
      <trkpt lat="63.25351" lon="18.67915">
        <ele>28.68347</ele>
        <time>2020-08-29T04:17:18.028Z</time>
      </trkpt>
      <trkpt lat="63.25325" lon="18.67753">
        <ele>30.208105</ele>
        <time>2020-08-29T04:17:40.094Z</time>
      </trkpt>
      <trkpt lat="63.25301" lon="18.67628">
        <ele>32.960014</ele>
        <time>2020-08-29T04:17:59.819Z</time>
      </trkpt>
      <trkpt lat="63.25266" lon="18.67493">
        <ele>36.086631</ele>
        <time>2020-08-29T04:18:23.654Z</time>
      </trkpt>
      <trkpt lat="63.25234" lon="18.67389">
        <ele>38.79649</ele>
        <time>2020-08-29T04:18:43.689Z</time>
      </trkpt>
      <trkpt lat="63.25129" lon="18.67086">
        <ele>47.627049</ele>
        <time>2020-08-29T04:19:45.483Z</time>
      </trkpt>
      <trkpt lat="63.25116" lon="18.67013">
        <ele>48.843814</ele>
        <time>2020-08-29T04:19:57.649Z</time>
      </trkpt>
      <trkpt lat="63.25106" lon="18.66935">
        <ele>50.071241</ele>
        <time>2020-08-29T04:20:09.308Z</time>
      </trkpt>
      <trkpt lat="63.25104" lon="18.66849">
        <ele>51.395137</ele>
        <time>2020-08-29T04:20:21.198Z</time>
      </trkpt>
      <trkpt lat="63.25118" lon="18.66648">
        <ele>52.681598</ele>
        <time>2020-08-29T04:20:42.591Z</time>
      </trkpt>
      <trkpt lat="63.25116" lon="18.66527">
        <ele>51.76117</ele>
        <time>2020-08-29T04:20:51.153Z</time>
      </trkpt>
      <trkpt lat="63.25109" lon="18.66455">
        <ele>51.194169</ele>
        <time>2020-08-29T04:20:55.836Z</time>
      </trkpt>
      <trkpt lat="63.25097" lon="18.66395">
        <ele>50.695818</ele>
        <time>2020-08-29T04:20:59.802Z</time>
      </trkpt>
      <trkpt lat="63.25081" lon="18.66352">
        <ele>50.276507</ele>
        <time>2020-08-29T04:21:03.115Z</time>
      </trkpt>
      <trkpt lat="63.25037" lon="18.66288">
        <ele>48.042825</ele>
        <time>2020-08-29T04:21:10.044Z</time>
      </trkpt>
      <trkpt lat="63.24786" lon="18.66111">
        <ele>37.024919</ele>
        <time>2020-08-29T04:21:44.212Z</time>
      </trkpt>
      <trkpt lat="63.24759" lon="18.66103">
        <ele>35.895202</ele>
        <time>2020-08-29T04:21:47.965Z</time>
      </trkpt>
      <trkpt lat="63.24725" lon="18.6611">
        <ele>34.593483</ele>
        <time>2020-08-29T04:21:52.528Z</time>
      </trkpt>
      <trkpt lat="63.24632" lon="18.66177">
        <ele>30.998344</ele>
        <time>2020-08-29T04:22:05.934Z</time>
      </trkpt>
      <trkpt lat="63.24601" lon="18.66206">
        <ele>29.763428</ele>
        <time>2020-08-29T04:22:10.440Z</time>
      </trkpt>
      <trkpt lat="63.24554" lon="18.66268">
        <ele>27.62801</ele>
        <time>2020-08-29T04:22:17.606Z</time>
      </trkpt>
      <trkpt lat="63.24524" lon="18.66294">
        <ele>26.257298</ele>
        <time>2020-08-29T04:22:21.714Z</time>
      </trkpt>
      <trkpt lat="63.24497" lon="18.66288">
        <ele>25.091657</ele>
        <time>2020-08-29T04:22:25.201Z</time>
      </trkpt>
      <trkpt lat="63.24469" lon="18.66267">
        <ele>23.800365</ele>
        <time>2020-08-29T04:22:29.086Z</time>
      </trkpt>
      <trkpt lat="63.2445" lon="18.66239">
        <ele>22.819083</ele>
        <time>2020-08-29T04:22:32.122Z</time>
      </trkpt>
      <trkpt lat="63.24435" lon="18.66212">
        <ele>21.98392</ele>
        <time>2020-08-29T04:22:34.619Z</time>
      </trkpt>
      <trkpt lat="63.2441" lon="18.66166">
        <ele>20.63594</ele>
        <time>2020-08-29T04:22:38.784Z</time>
      </trkpt>
      <trkpt lat="63.24385" lon="18.66103">
        <ele>19.16848</ele>
        <time>2020-08-29T04:22:43.736Z</time>
      </trkpt>
      <trkpt lat="63.2436" lon="18.65968">
        <ele>16.61066</ele>
        <time>2020-08-29T04:22:52.509Z</time>
      </trkpt>
      <trkpt lat="63.24348" lon="18.65915">
        <ele>15.562633</ele>
        <time>2020-08-29T04:22:56.117Z</time>
      </trkpt>
      <trkpt lat="63.24328" lon="18.65855">
        <ele>14.267125</ele>
        <time>2020-08-29T04:23:00.630Z</time>
      </trkpt>
      <trkpt lat="63.24284" lon="18.65757">
        <ele>11.889359</ele>
        <time>2020-08-29T04:23:08.966Z</time>
      </trkpt>
      <trkpt lat="63.24257" lon="18.65729">
        <ele>10.764659</ele>
        <time>2020-08-29T04:23:12.853Z</time>
      </trkpt>
      <trkpt lat="63.24217" lon="18.65714">
        <ele>9.225161</ele>
        <time>2020-08-29T04:23:18.121Z</time>
      </trkpt>
      <trkpt lat="63.24144" lon="18.65715">
        <ele>6.760457</ele>
        <time>2020-08-29T04:23:27.874Z</time>
      </trkpt>
      <trkpt lat="63.2407" lon="18.65701">
        <ele>5.394804</ele>
        <time>2020-08-29T04:23:38.431Z</time>
      </trkpt>
      <trkpt lat="63.23914" lon="18.65618">
        <ele>3.880677</ele>
        <time>2020-08-29T04:24:05.504Z</time>
      </trkpt>
      <trkpt lat="63.23863" lon="18.65611">
        <ele>3.973788</ele>
        <time>2020-08-29T04:24:16.544Z</time>
      </trkpt>
      <trkpt lat="63.23797" lon="18.65633">
        <ele>4.056992</ele>
        <time>2020-08-29T04:24:30.272Z</time>
      </trkpt>
      <trkpt lat="63.23764" lon="18.65661">
        <ele>3.952813</ele>
        <time>2020-08-29T04:24:37.295Z</time>
      </trkpt>
      <trkpt lat="63.23728" lon="18.65712">
        <ele>3.824889</ele>
        <time>2020-08-29T04:24:45.591Z</time>
      </trkpt>
      <trkpt lat="63.23613" lon="18.65943">
        <ele>2.995845</ele>
        <time>2020-08-29T04:25:10.976Z</time>
      </trkpt>
      <trkpt lat="63.23592" lon="18.65976">
        <ele>2.760968</ele>
        <time>2020-08-29T04:25:15.032Z</time>
      </trkpt>
      <trkpt lat="63.23553" lon="18.66001">
        <ele>2.398037</ele>
        <time>2020-08-29T04:25:21.436Z</time>
      </trkpt>
      <trkpt lat="63.23515" lon="18.65992">
        <ele>2.052866</ele>
        <time>2020-08-29T04:25:27.724Z</time>
      </trkpt>
      <trkpt lat="63.23494" lon="18.6597">
        <ele>1.980568</ele>
        <time>2020-08-29T04:25:31.741Z</time>
      </trkpt>
      <trkpt lat="63.23457" lon="18.65902">
        <ele>2.248696</ele>
        <time>2020-08-29T04:25:40.271Z</time>
      </trkpt>
      <trkpt lat="63.2342" lon="18.6577">
        <ele>2.642806</ele>
        <time>2020-08-29T04:25:54.433Z</time>
      </trkpt>
      <trkpt lat="63.23322" lon="18.65509">
        <ele>5.264055</ele>
        <time>2020-08-29T04:26:31.341Z</time>
      </trkpt>
      <trkpt lat="63.233" lon="18.65422">
        <ele>6.31761</ele>
        <time>2020-08-29T04:26:43.696Z</time>
      </trkpt>
      <trkpt lat="63.23246" lon="18.6515">
        <ele>10.798535</ele>
        <time>2020-08-29T04:27:23.835Z</time>
      </trkpt>
      <trkpt lat="63.23242" lon="18.65115">
        <ele>11.390154</ele>
        <time>2020-08-29T04:27:29.484Z</time>
      </trkpt>
      <trkpt lat="63.23236" lon="18.65066">
        <ele>12.231317</ele>
        <time>2020-08-29T04:27:36.117Z</time>
      </trkpt>
      <trkpt lat="63.23235" lon="18.6501">
        <ele>13.178966</ele>
        <time>2020-08-29T04:27:44.043Z</time>
      </trkpt>
      <trkpt lat="63.23239" lon="18.64961">
        <ele>13.95117</ele>
        <time>2020-08-29T04:27:51.683Z</time>
      </trkpt>
      <trkpt lat="63.23308" lon="18.64649">
        <ele>18.334055</ele>
        <time>2020-08-29T04:28:35.971Z</time>
      </trkpt>
      <trkpt lat="63.23356" lon="18.64462">
        <ele>19.237068</ele>
        <time>2020-08-29T04:28:56.472Z</time>
      </trkpt>
      <trkpt lat="63.23429" lon="18.64263">
        <ele>19.754155</ele>
        <time>2020-08-29T04:29:17.864Z</time>
      </trkpt>
      <trkpt lat="63.23489" lon="18.64137">
        <ele>19.709195</ele>
        <time>2020-08-29T04:29:32.730Z</time>
      </trkpt>
      <trkpt lat="63.23506" lon="18.6409">
        <ele>19.69413</ele>
        <time>2020-08-29T04:29:37.800Z</time>
      </trkpt>
      <trkpt lat="63.23517" lon="18.64038">
        <ele>19.680016</ele>
        <time>2020-08-29T04:29:42.648Z</time>
      </trkpt>
      <trkpt lat="63.23528" lon="18.63891">
        <ele>19.753824</ele>
        <time>2020-08-29T04:29:55.426Z</time>
      </trkpt>
      <trkpt lat="63.23522" lon="18.63698">
        <ele>19.955978</ele>
        <time>2020-08-29T04:30:12.197Z</time>
      </trkpt>
      <trkpt lat="63.23501" lon="18.63363">
        <ele>20.761743</ele>
        <time>2020-08-29T04:30:42.087Z</time>
      </trkpt>
      <trkpt lat="63.23498" lon="18.63205">
        <ele>21.257637</ele>
        <time>2020-08-29T04:30:57.711Z</time>
      </trkpt>
      <trkpt lat="63.23497" lon="18.63178">
        <ele>21.352073</ele>
        <time>2020-08-29T04:31:00.575Z</time>
      </trkpt>
      <trkpt lat="63.23499" lon="18.63122">
        <ele>21.704213</ele>
        <time>2020-08-29T04:31:06.193Z</time>
      </trkpt>
      <trkpt lat="63.23506" lon="18.63035">
        <ele>22.263076</ele>
        <time>2020-08-29T04:31:15.495Z</time>
      </trkpt>
      <trkpt lat="63.23506" lon="18.63025">
        <ele>22.327099</ele>
        <time>2020-08-29T04:31:16.784Z</time>
      </trkpt>
      <trkpt lat="63.23531" lon="18.62529">
        <ele>24.752377</ele>
        <time>2020-08-29T04:32:08.856Z</time>
      </trkpt>
      <trkpt lat="63.23579" lon="18.61552">
        <ele>24.331778</ele>
        <time>2020-08-29T04:33:26.890Z</time>
      </trkpt>
      <trkpt lat="63.23585" lon="18.61426">
        <ele>24.836593</ele>
        <time>2020-08-29T04:33:38.176Z</time>
      </trkpt>
      <trkpt lat="63.23617" lon="18.60806">
        <ele>28.434354</ele>
        <time>2020-08-29T04:34:43.712Z</time>
      </trkpt>
      <trkpt lat="63.23619" lon="18.60659">
        <ele>29.368523</ele>
        <time>2020-08-29T04:34:59.481Z</time>
      </trkpt>
      <trkpt lat="63.23614" lon="18.60596">
        <ele>29.778439</ele>
        <time>2020-08-29T04:35:06.331Z</time>
      </trkpt>
      <trkpt lat="63.23567" lon="18.60283">
        <ele>31.59322</ele>
        <time>2020-08-29T04:35:40.134Z</time>
      </trkpt>
      <trkpt lat="63.23533" lon="18.60074">
        <ele>32.550009</ele>
        <time>2020-08-29T04:36:01.553Z</time>
      </trkpt>
      <trkpt lat="63.23521" lon="18.60027">
        <ele>32.741295</ele>
        <time>2020-08-29T04:36:06.594Z</time>
      </trkpt>
      <trkpt lat="63.23509" lon="18.59992">
        <ele>32.787085</ele>
        <time>2020-08-29T04:36:10.458Z</time>
      </trkpt>
      <trkpt lat="63.23492" lon="18.59964">
        <ele>32.836881</ele>
        <time>2020-08-29T04:36:14.676Z</time>
      </trkpt>
      <trkpt lat="63.2335" lon="18.59786">
        <ele>33.194302</ele>
        <time>2020-08-29T04:36:45.611Z</time>
      </trkpt>
      <trkpt lat="63.23329" lon="18.5975">
        <ele>33.232251</ele>
        <time>2020-08-29T04:36:50.475Z</time>
      </trkpt>
      <trkpt lat="63.23313" lon="18.59699">
        <ele>33.272891</ele>
        <time>2020-08-29T04:36:55.721Z</time>
      </trkpt>
      <trkpt lat="63.23305" lon="18.59636">
        <ele>33.315098</ele>
        <time>2020-08-29T04:37:01.281Z</time>
      </trkpt>
      <trkpt lat="63.23307" lon="18.59572">
        <ele>33.356627</ele>
        <time>2020-08-29T04:37:06.802Z</time>
      </trkpt>
      <trkpt lat="63.2333" lon="18.59393">
        <ele>33.506198</ele>
        <time>2020-08-29T04:37:23.116Z</time>
      </trkpt>
      <trkpt lat="63.23339" lon="18.59284">
        <ele>33.608502</ele>
        <time>2020-08-29T04:37:32.853Z</time>
      </trkpt>
      <trkpt lat="63.23349" lon="18.58357">
        <ele>34.072266</ele>
        <time>2020-08-29T04:38:52.023Z</time>
      </trkpt>
      <trkpt lat="63.2335" lon="18.58196">
        <ele>34.21646</ele>
        <time>2020-08-29T04:39:05.448Z</time>
      </trkpt>
      <trkpt lat="63.2335" lon="18.58148">
        <ele>34.274222</ele>
        <time>2020-08-29T04:39:09.487Z</time>
      </trkpt>
      <trkpt lat="63.23344" lon="18.58062">
        <ele>34.377569</ele>
        <time>2020-08-29T04:39:16.935Z</time>
      </trkpt>
      <trkpt lat="63.23329" lon="18.57831">
        <ele>34.75932</ele>
        <time>2020-08-29T04:39:38.094Z</time>
      </trkpt>
      <trkpt lat="63.23328" lon="18.57807">
        <ele>34.821945</ele>
        <time>2020-08-29T04:39:40.448Z</time>
      </trkpt>
      <trkpt lat="63.23304" lon="18.57468">
        <ele>35.639293</ele>
        <time>2020-08-29T04:40:12.433Z</time>
      </trkpt>
      <trkpt lat="63.2328" lon="18.5711">
        <ele>35.927446</ele>
        <time>2020-08-29T04:40:43.448Z</time>
      </trkpt>
      <trkpt lat="63.23239" lon="18.56542">
        <ele>35.344784</ele>
        <time>2020-08-29T04:41:30.072Z</time>
      </trkpt>
      <trkpt lat="63.23215" lon="18.56446">
        <ele>35.15534</ele>
        <time>2020-08-29T04:41:38.616Z</time>
      </trkpt>
      <trkpt lat="63.23191" lon="18.56392">
        <ele>35.02195</ele>
        <time>2020-08-29T04:41:44.559Z</time>
      </trkpt>
      <trkpt lat="63.23184" lon="18.5638">
        <ele>34.988432</ele>
        <time>2020-08-29T04:41:45.992Z</time>
      </trkpt>
      <trkpt lat="63.2301" lon="18.56072">
        <ele>33.707791</ele>
        <time>2020-08-29T04:42:23.663Z</time>
      </trkpt>
      <trkpt lat="63.22924" lon="18.55919">
        <ele>33.277222</ele>
        <time>2020-08-29T04:42:43.180Z</time>
      </trkpt>
      <trkpt lat="63.22895" lon="18.55864">
        <ele>33.161643</ele>
        <time>2020-08-29T04:42:49.891Z</time>
      </trkpt>
      <trkpt lat="63.22857" lon="18.55801">
        <ele>33.303172</ele>
        <time>2020-08-29T04:42:58.404Z</time>
      </trkpt>
      <trkpt lat="63.22812" lon="18.55738">
        <ele>33.46357</ele>
        <time>2020-08-29T04:43:08.457Z</time>
      </trkpt>
      <trkpt lat="63.22741" lon="18.55659">
        <ele>33.804348</ele>
        <time>2020-08-29T04:43:24.672Z</time>
      </trkpt>
      <trkpt lat="63.22677" lon="18.55611">
        <ele>35.517675</ele>
        <time>2020-08-29T04:43:40.331Z</time>
      </trkpt>
      <trkpt lat="63.226" lon="18.55579">
        <ele>37.520516</ele>
        <time>2020-08-29T04:44:02.156Z</time>
      </trkpt>
      <trkpt lat="63.22505" lon="18.55571">
        <ele>41.588383</ele>
        <time>2020-08-29T04:44:33.614Z</time>
      </trkpt>
      <trkpt lat="63.22281" lon="18.55554">
        <ele>52.399946</ele>
        <time>2020-08-29T04:45:55.305Z</time>
      </trkpt>
      <trkpt lat="63.2225" lon="18.5555">
        <ele>53.78162</ele>
        <time>2020-08-29T04:46:04.812Z</time>
      </trkpt>
      <trkpt lat="63.22129" lon="18.55532">
        <ele>56.779556</ele>
        <time>2020-08-29T04:46:36.906Z</time>
      </trkpt>
      <trkpt lat="63.22095" lon="18.55526">
        <ele>57.292971</ele>
        <time>2020-08-29T04:46:44.202Z</time>
      </trkpt>
      <trkpt lat="63.22036" lon="18.55532">
        <ele>58.190449</ele>
        <time>2020-08-29T04:46:56.518Z</time>
      </trkpt>
      <trkpt lat="63.21426" lon="18.55724">
        <ele>58.12925</ele>
        <time>2020-08-29T04:48:50.482Z</time>
      </trkpt>
      <trkpt lat="63.21379" lon="18.55724">
        <ele>58.012511</ele>
        <time>2020-08-29T04:48:58.781Z</time>
      </trkpt>
      <trkpt lat="63.21355" lon="18.55705">
        <ele>57.95109</ele>
        <time>2020-08-29T04:49:03.140Z</time>
      </trkpt>
      <trkpt lat="63.21184" lon="18.55456">
        <ele>57.483763</ele>
        <time>2020-08-29T04:49:38.926Z</time>
      </trkpt>
      <trkpt lat="63.2104" lon="18.5524">
        <ele>59.036374</ele>
        <time>2020-08-29T04:50:15.078Z</time>
      </trkpt>
      <trkpt lat="63.20962" lon="18.55108">
        <ele>62.136639</ele>
        <time>2020-08-29T04:50:42.396Z</time>
      </trkpt>
      <trkpt lat="63.20927" lon="18.54986">
        <ele>64.484081</ele>
        <time>2020-08-29T04:51:03.661Z</time>
      </trkpt>
      <trkpt lat="63.20873" lon="18.54673">
        <ele>70.423861</ele>
        <time>2020-08-29T04:51:54.522Z</time>
      </trkpt>
      <trkpt lat="63.2086" lon="18.54628">
        <ele>71.386276</ele>
        <time>2020-08-29T04:52:01.888Z</time>
      </trkpt>
      <trkpt lat="63.20835" lon="18.54571">
        <ele>72.828476</ele>
        <time>2020-08-29T04:52:12.208Z</time>
      </trkpt>
      <trkpt lat="63.20763" lon="18.54429">
        <ele>73.650819</ele>
        <time>2020-08-29T04:52:35.827Z</time>
      </trkpt>
      <trkpt lat="63.20661" lon="18.54236">
        <ele>73.06082</ele>
        <time>2020-08-29T04:52:58.377Z</time>
      </trkpt>
      <trkpt lat="63.20596" lon="18.54102">
        <ele>70.754736</ele>
        <time>2020-08-29T04:53:10.787Z</time>
      </trkpt>
      <trkpt lat="63.20525" lon="18.53967">
        <ele>67.149626</ele>
        <time>2020-08-29T04:53:22.997Z</time>
      </trkpt>
      <trkpt lat="63.20457" lon="18.53847">
        <ele>62.874808</ele>
        <time>2020-08-29T04:53:34.001Z</time>
      </trkpt>
      <trkpt lat="63.20322" lon="18.53641">
        <ele>54.096026</ele>
        <time>2020-08-29T04:53:54.642Z</time>
      </trkpt>
      <trkpt lat="63.20282" lon="18.53528">
        <ele>50.53277</ele>
        <time>2020-08-29T04:54:02.703Z</time>
      </trkpt>
      <trkpt lat="63.20225" lon="18.53192">
        <ele>41.117292</ele>
        <time>2020-08-29T04:54:22.749Z</time>
      </trkpt>
      <trkpt lat="63.20186" lon="18.52795">
        <ele>29.868544</ele>
        <time>2020-08-29T04:54:45.345Z</time>
      </trkpt>
      <trkpt lat="63.20144" lon="18.52569">
        <ele>22.919265</ele>
        <time>2020-08-29T04:54:58.729Z</time>
      </trkpt>
      <trkpt lat="63.20138" lon="18.52499">
        <ele>20.882878</ele>
        <time>2020-08-29T04:55:02.700Z</time>
      </trkpt>
      <trkpt lat="63.20133" lon="18.52478">
        <ele>20.228072</ele>
        <time>2020-08-29T04:55:03.916Z</time>
      </trkpt>
      <trkpt lat="63.2013" lon="18.52411">
        <ele>18.289289</ele>
        <time>2020-08-29T04:55:07.746Z</time>
      </trkpt>
      <trkpt lat="63.20142" lon="18.5231">
        <ele>16.265746</ele>
        <time>2020-08-29T04:55:13.609Z</time>
      </trkpt>
      <trkpt lat="63.20181" lon="18.52154">
        <ele>12.955704</ele>
        <time>2020-08-29T04:55:24.055Z</time>
      </trkpt>
      <trkpt lat="63.20195" lon="18.52093">
        <ele>11.698044</ele>
        <time>2020-08-29T04:55:28.413Z</time>
      </trkpt>
      <trkpt lat="63.20247" lon="18.51882">
        <ele>9.530481</ele>
        <time>2020-08-29T04:55:44.544Z</time>
      </trkpt>
      <trkpt lat="63.20282" lon="18.51735">
        <ele>8.530925</ele>
        <time>2020-08-29T04:55:56.940Z</time>
      </trkpt>
      <trkpt lat="63.20318" lon="18.51578">
        <ele>8.049747</ele>
        <time>2020-08-29T04:56:10.571Z</time>
      </trkpt>
      <trkpt lat="63.20362" lon="18.51397">
        <ele>7.755366</ele>
        <time>2020-08-29T04:56:27.058Z</time>
      </trkpt>
      <trkpt lat="63.20464" lon="18.51186">
        <ele>7.822394</ele>
        <time>2020-08-29T04:56:53.320Z</time>
      </trkpt>
      <trkpt lat="63.20492" lon="18.51142">
        <ele>7.873117</ele>
        <time>2020-08-29T04:56:59.908Z</time>
      </trkpt>
      <trkpt lat="63.20537" lon="18.51077">
        <ele>8.135497</ele>
        <time>2020-08-29T04:57:10.138Z</time>
      </trkpt>
      <trkpt lat="63.20561" lon="18.51044">
        <ele>8.466207</ele>
        <time>2020-08-29T04:57:15.818Z</time>
      </trkpt>
      <trkpt lat="63.20617" lon="18.5098">
        <ele>9.212029</ele>
        <time>2020-08-29T04:57:29.892Z</time>
      </trkpt>
      <trkpt lat="63.2062" lon="18.50978">
        <ele>9.24844</ele>
        <time>2020-08-29T04:57:30.576Z</time>
      </trkpt>
      <trkpt lat="63.20617" lon="18.50962">
        <ele>9.341471</ele>
        <time>2020-08-29T04:57:32.344Z</time>
      </trkpt>
      <trkpt lat="63.20597" lon="18.50873">
        <ele>9.867683</ele>
        <time>2020-08-29T04:57:43.022Z</time>
      </trkpt>
      <trkpt lat="63.20588" lon="18.5084">
        <ele>10.088129</ele>
        <time>2020-08-29T04:57:47.121Z</time>
      </trkpt>
      <trkpt lat="63.20571" lon="18.50783">
        <ele>10.660379</ele>
        <time>2020-08-29T04:57:54.612Z</time>
      </trkpt>
      <trkpt lat="63.20527" lon="18.5067">
        <ele>11.923401</ele>
        <time>2020-08-29T04:58:11.028Z</time>
      </trkpt>
      <trkpt lat="63.20506" lon="18.50634">
        <ele>12.416916</ele>
        <time>2020-08-29T04:58:17.635Z</time>
      </trkpt>
      <trkpt lat="63.20477" lon="18.50592">
        <ele>13.065345</ele>
        <time>2020-08-29T04:58:26.035Z</time>
      </trkpt>
      <trkpt lat="63.20442" lon="18.50553">
        <ele>13.560648</ele>
        <time>2020-08-29T04:58:34.819Z</time>
      </trkpt>
      <trkpt lat="63.20389" lon="18.50491">
        <ele>13.9869</ele>
        <time>2020-08-29T04:58:47.158Z</time>
      </trkpt>
      <trkpt lat="63.20367" lon="18.50465">
        <ele>14.171205</ele>
        <time>2020-08-29T04:58:52.162Z</time>
      </trkpt>
      <trkpt lat="63.20322" lon="18.50414">
        <ele>14.531217</ele>
        <time>2020-08-29T04:59:01.314Z</time>
      </trkpt>
      <trkpt lat="63.20265" lon="18.50348">
        <ele>14.882064</ele>
        <time>2020-08-29T04:59:13.359Z</time>
      </trkpt>
      <trkpt lat="63.20181" lon="18.50246">
        <ele>15.313411</ele>
        <time>2020-08-29T04:59:32.099Z</time>
      </trkpt>
      <trkpt lat="63.20093" lon="18.50139">
        <ele>15.635863</ele>
        <time>2020-08-29T04:59:51.566Z</time>
      </trkpt>
      <trkpt lat="63.20026" lon="18.50058">
        <ele>15.808668</ele>
        <time>2020-08-29T05:00:05.935Z</time>
      </trkpt>
      <trkpt lat="63.19985" lon="18.50011">
        <ele>15.912176</ele>
        <time>2020-08-29T05:00:14.165Z</time>
      </trkpt>
      <trkpt lat="63.19874" lon="18.49882">
        <ele>15.491342</ele>
        <time>2020-08-29T05:00:35.313Z</time>
      </trkpt>
      <trkpt lat="63.19855" lon="18.49861">
        <ele>15.420946</ele>
        <time>2020-08-29T05:00:38.747Z</time>
      </trkpt>
      <trkpt lat="63.19756" lon="18.4975">
        <ele>14.96946</ele>
        <time>2020-08-29T05:00:57.045Z</time>
      </trkpt>
      <trkpt lat="63.19587" lon="18.49561">
        <ele>14.453387</ele>
        <time>2020-08-29T05:01:28.785Z</time>
      </trkpt>
      <trkpt lat="63.1957" lon="18.49541">
        <ele>14.438076</ele>
        <time>2020-08-29T05:01:32.321Z</time>
      </trkpt>
      <trkpt lat="63.19502" lon="18.4947">
        <ele>14.391697</ele>
        <time>2020-08-29T05:01:45.937Z</time>
      </trkpt>
      <trkpt lat="63.19399" lon="18.49346">
        <ele>15.230727</ele>
        <time>2020-08-29T05:02:08.885Z</time>
      </trkpt>
      <trkpt lat="63.19319" lon="18.49228">
        <ele>16.504348</ele>
        <time>2020-08-29T05:02:29.236Z</time>
      </trkpt>
      <trkpt lat="63.19215" lon="18.49026">
        <ele>19.828931</ele>
        <time>2020-08-29T05:03:04.833Z</time>
      </trkpt>
      <trkpt lat="63.19188" lon="18.48978">
        <ele>21.271312</ele>
        <time>2020-08-29T05:03:15.239Z</time>
      </trkpt>
      <trkpt lat="63.19023" lon="18.4866">
        <ele>31.127692</ele>
        <time>2020-08-29T05:04:31.176Z</time>
      </trkpt>
      <trkpt lat="63.18965" lon="18.48548">
        <ele>34.348557</ele>
        <time>2020-08-29T05:04:55.597Z</time>
      </trkpt>
      <trkpt lat="63.18881" lon="18.48387">
        <ele>38.13594</ele>
        <time>2020-08-29T05:05:27.236Z</time>
      </trkpt>
      <trkpt lat="63.18871" lon="18.48368">
        <ele>38.537475</ele>
        <time>2020-08-29T05:05:31.014Z</time>
      </trkpt>
      <trkpt lat="63.18831" lon="18.48285">
        <ele>40.206513</ele>
        <time>2020-08-29T05:05:45.907Z</time>
      </trkpt>
      <trkpt lat="63.18796" lon="18.48194">
        <ele>41.840841</ele>
        <time>2020-08-29T05:06:01.045Z</time>
      </trkpt>
      <trkpt lat="63.18769" lon="18.48102">
        <ele>43.369587</ele>
        <time>2020-08-29T05:06:15.150Z</time>
      </trkpt>
      <trkpt lat="63.18745" lon="18.48002">
        <ele>44.93234</ele>
        <time>2020-08-29T05:06:29.590Z</time>
      </trkpt>
      <trkpt lat="63.18728" lon="18.47899">
        <ele>46.462362</ele>
        <time>2020-08-29T05:06:43.950Z</time>
      </trkpt>
      <trkpt lat="63.18659" lon="18.47441">
        <ele>53.91781</ele>
        <time>2020-08-29T05:07:47.815Z</time>
      </trkpt>
      <trkpt lat="63.18634" lon="18.47333">
        <ele>56.097659</ele>
        <time>2020-08-29T05:08:04.586Z</time>
      </trkpt>
      <trkpt lat="63.18606" lon="18.47248">
        <ele>57.974424</ele>
        <time>2020-08-29T05:08:19.466Z</time>
      </trkpt>
      <trkpt lat="63.18553" lon="18.47125">
        <ele>61.18464</ele>
        <time>2020-08-29T05:08:44.504Z</time>
      </trkpt>
      <trkpt lat="63.18468" lon="18.46992">
        <ele>65.978554</ele>
        <time>2020-08-29T05:09:19.350Z</time>
      </trkpt>
      <trkpt lat="63.18403" lon="18.46928">
        <ele>69.318823</ele>
        <time>2020-08-29T05:09:43.427Z</time>
      </trkpt>
      <trkpt lat="63.18334" lon="18.46886">
        <ele>72.845609</ele>
        <time>2020-08-29T05:10:07.773Z</time>
      </trkpt>
      <trkpt lat="63.18201" lon="18.46866">
        <ele>79.784684</ele>
        <time>2020-08-29T05:10:53.553Z</time>
      </trkpt>
      <trkpt lat="63.18143" lon="18.46844">
        <ele>83.31056</ele>
        <time>2020-08-29T05:11:16.391Z</time>
      </trkpt>
      <trkpt lat="63.18117" lon="18.46827">
        <ele>84.909453</ele>
        <time>2020-08-29T05:11:27.173Z</time>
      </trkpt>
      <trkpt lat="63.18059" lon="18.46758">
        <ele>88.542264</ele>
        <time>2020-08-29T05:11:52.465Z</time>
      </trkpt>
      <trkpt lat="63.18026" lon="18.467">
        <ele>90.408845</ele>
        <time>2020-08-29T05:12:08.349Z</time>
      </trkpt>
      <trkpt lat="63.18008" lon="18.46654">
        <ele>91.65194</ele>
        <time>2020-08-29T05:12:18.524Z</time>
      </trkpt>
      <trkpt lat="63.17869" lon="18.46146">
        <ele>99.986358</ele>
        <time>2020-08-29T05:13:34.456Z</time>
      </trkpt>
      <trkpt lat="63.17853" lon="18.46061">
        <ele>99.225316</ele>
        <time>2020-08-29T05:13:41.654Z</time>
      </trkpt>
      <trkpt lat="63.17813" lon="18.45728">
        <ele>95.013189</ele>
        <time>2020-08-29T05:14:02.618Z</time>
      </trkpt>
      <trkpt lat="63.17793" lon="18.45559">
        <ele>91.334551</ele>
        <time>2020-08-29T05:14:12.633Z</time>
      </trkpt>
      <trkpt lat="63.17792" lon="18.45549">
        <ele>91.106638</ele>
        <time>2020-08-29T05:14:13.194Z</time>
      </trkpt>
      <trkpt lat="63.17784" lon="18.45461">
        <ele>89.219751</ele>
        <time>2020-08-29T05:14:18.345Z</time>
      </trkpt>
      <trkpt lat="63.17782" lon="18.45316">
        <ele>86.607985</ele>
        <time>2020-08-29T05:14:26.839Z</time>
      </trkpt>
      <trkpt lat="63.17787" lon="18.45192">
        <ele>85.193793</ele>
        <time>2020-08-29T05:14:34.545Z</time>
      </trkpt>
      <trkpt lat="63.17796" lon="18.4505">
        <ele>83.557361</ele>
        <time>2020-08-29T05:14:44.304Z</time>
      </trkpt>
      <trkpt lat="63.17811" lon="18.44905">
        <ele>82.143583</ele>
        <time>2020-08-29T05:14:54.681Z</time>
      </trkpt>
      <trkpt lat="63.17813" lon="18.44838">
        <ele>81.664554</ele>
        <time>2020-08-29T05:14:59.665Z</time>
      </trkpt>
      <trkpt lat="63.17805" lon="18.4467">
        <ele>80.468465</ele>
        <time>2020-08-29T05:15:11.778Z</time>
      </trkpt>
      <trkpt lat="63.17774" lon="18.44531">
        <ele>78.753596</ele>
        <time>2020-08-29T05:15:22.188Z</time>
      </trkpt>
      <trkpt lat="63.17708" lon="18.4429">
        <ele>73.583873</ele>
        <time>2020-08-29T05:15:39.008Z</time>
      </trkpt>
      <trkpt lat="63.17667" lon="18.4414">
        <ele>69.556439</ele>
        <time>2020-08-29T05:15:48.718Z</time>
      </trkpt>
      <trkpt lat="63.17636" lon="18.4403">
        <ele>66.245213</ele>
        <time>2020-08-29T05:15:55.932Z</time>
      </trkpt>
      <trkpt lat="63.17624" lon="18.4399">
        <ele>65.016979</ele>
        <time>2020-08-29T05:15:58.568Z</time>
      </trkpt>
      <trkpt lat="63.17635" lon="18.43978">
        <ele>64.31209</ele>
        <time>2020-08-29T05:16:00.079Z</time>
      </trkpt>
      <trkpt lat="63.17644" lon="18.43961">
        <ele>63.649711</ele>
        <time>2020-08-29T05:16:01.459Z</time>
      </trkpt>
      <trkpt lat="63.17648" lon="18.43945">
        <ele>63.181826</ele>
        <time>2020-08-29T05:16:02.488Z</time>
      </trkpt>
      <trkpt lat="63.17599" lon="18.43858">
        <ele>61.38377</ele>
        <time>2020-08-29T05:16:10.299Z</time>
      </trkpt>
      <trkpt lat="63.17573" lon="18.43818">
        <ele>60.761295</ele>
        <time>2020-08-29T05:16:14.530Z</time>
      </trkpt>
      <trkpt lat="63.17525" lon="18.43749">
        <ele>59.653902</ele>
        <time>2020-08-29T05:16:23.155Z</time>
      </trkpt>
      <trkpt lat="63.17483" lon="18.43692">
        <ele>58.894074</ele>
        <time>2020-08-29T05:16:31.969Z</time>
      </trkpt>
      <trkpt lat="63.17381" lon="18.43581">
        <ele>61.019088</ele>
        <time>2020-08-29T05:16:58.626Z</time>
      </trkpt>
      <trkpt lat="63.17134" lon="18.43379">
        <ele>67.818905</ele>
        <time>2020-08-29T05:18:10.852Z</time>
      </trkpt>
      <trkpt lat="63.17102" lon="18.43342">
        <ele>68.399625</ele>
        <time>2020-08-29T05:18:20.447Z</time>
      </trkpt>
      <trkpt lat="63.17042" lon="18.43237">
        <ele>69.621793</ele>
        <time>2020-08-29T05:18:38.184Z</time>
      </trkpt>
      <trkpt lat="63.17015" lon="18.43165">
        <ele>70.296096</ele>
        <time>2020-08-29T05:18:46.549Z</time>
      </trkpt>
      <trkpt lat="63.16982" lon="18.43073">
        <ele>69.398621</ele>
        <time>2020-08-29T05:18:55.053Z</time>
      </trkpt>
      <trkpt lat="63.16935" lon="18.42934">
        <ele>67.967386</ele>
        <time>2020-08-29T05:19:06.052Z</time>
      </trkpt>
      <trkpt lat="63.16877" lon="18.42765">
        <ele>66.390635</ele>
        <time>2020-08-29T05:19:18.528Z</time>
      </trkpt>
      <trkpt lat="63.1685" lon="18.42687">
        <ele>65.739693</ele>
        <time>2020-08-29T05:19:24.513Z</time>
      </trkpt>
      <trkpt lat="63.16825" lon="18.42625">
        <ele>65.192442</ele>
        <time>2020-08-29T05:19:30.086Z</time>
      </trkpt>
      <trkpt lat="63.1677" lon="18.42522">
        <ele>64.914477</ele>
        <time>2020-08-29T05:19:44.396Z</time>
      </trkpt>
      <trkpt lat="63.1675" lon="18.42492">
        <ele>65.536371</ele>
        <time>2020-08-29T05:19:49.857Z</time>
      </trkpt>
      <trkpt lat="63.16754" lon="18.42479">
        <ele>65.720397</ele>
        <time>2020-08-29T05:19:52.138Z</time>
      </trkpt>
      <trkpt lat="63.16763" lon="18.42438">
        <ele>66.235452</ele>
        <time>2020-08-29T05:19:57.044Z</time>
      </trkpt>
      <trkpt lat="63.16767" lon="18.42406">
        <ele>66.624138</ele>
        <time>2020-08-29T05:20:01.620Z</time>
      </trkpt>
      <trkpt lat="63.16769" lon="18.42375">
        <ele>66.974847</ele>
        <time>2020-08-29T05:20:05.246Z</time>
      </trkpt>
      <trkpt lat="63.16769" lon="18.42331">
        <ele>67.481117</ele>
        <time>2020-08-29T05:20:11.020Z</time>
      </trkpt>
      <trkpt lat="63.16765" lon="18.42299">
        <ele>67.86626</ele>
        <time>2020-08-29T05:20:15.347Z</time>
      </trkpt>
      <trkpt lat="63.16747" lon="18.42235">
        <ele>68.727578</ele>
        <time>2020-08-29T05:20:25.239Z</time>
      </trkpt>
      <trkpt lat="63.16725" lon="18.422">
        <ele>69.281424</ele>
        <time>2020-08-29T05:20:33.315Z</time>
      </trkpt>
      <trkpt lat="63.16656" lon="18.42138">
        <ele>70.582272</ele>
        <time>2020-08-29T05:20:53.416Z</time>
      </trkpt>
      <trkpt lat="63.16564" lon="18.4208">
        <ele>72.120661</ele>
        <time>2020-08-29T05:21:12.023Z</time>
      </trkpt>
      <trkpt lat="63.16381" lon="18.41985">
        <ele>72.169995</ele>
        <time>2020-08-29T05:21:44.544Z</time>
      </trkpt>
      <trkpt lat="63.16353" lon="18.4198">
        <ele>72.342986</ele>
        <time>2020-08-29T05:21:49.802Z</time>
      </trkpt>
      <trkpt lat="63.16351" lon="18.41911">
        <ele>72.537989</ele>
        <time>2020-08-29T05:21:56.566Z</time>
      </trkpt>
      <trkpt lat="63.1632" lon="18.41565">
        <ele>72.627419</ele>
        <time>2020-08-29T05:22:30.465Z</time>
      </trkpt>
      <trkpt lat="63.16316" lon="18.41446">
        <ele>72.053095</ele>
        <time>2020-08-29T05:22:39.431Z</time>
      </trkpt>
      <trkpt lat="63.16318" lon="18.41042">
        <ele>68.121354</ele>
        <time>2020-08-29T05:23:05.266Z</time>
      </trkpt>
      <trkpt lat="63.16349" lon="18.40619">
        <ele>62.700555</ele>
        <time>2020-08-29T05:23:31.741Z</time>
      </trkpt>
      <trkpt lat="63.16328" lon="18.40262">
        <ele>59.599923</ele>
        <time>2020-08-29T05:23:56.171Z</time>
      </trkpt>
      <trkpt lat="63.16325" lon="18.39952">
        <ele>58.707006</ele>
        <time>2020-08-29T05:24:19.199Z</time>
      </trkpt>
      <trkpt lat="63.16327" lon="18.39917">
        <ele>58.749321</ele>
        <time>2020-08-29T05:24:21.849Z</time>
      </trkpt>
      <trkpt lat="63.1638" lon="18.39644">
        <ele>60.240215</ele>
        <time>2020-08-29T05:24:51.134Z</time>
      </trkpt>
      <trkpt lat="63.16423" lon="18.39416">
        <ele>64.03402</ele>
        <time>2020-08-29T05:25:24.032Z</time>
      </trkpt>
      <trkpt lat="63.16453" lon="18.39286">
        <ele>67.313419</ele>
        <time>2020-08-29T05:25:48.535Z</time>
      </trkpt>
      <trkpt lat="63.16471" lon="18.39239">
        <ele>69.12813</ele>
        <time>2020-08-29T05:25:59.508Z</time>
      </trkpt>
      <trkpt lat="63.16518" lon="18.39161">
        <ele>72.885796</ele>
        <time>2020-08-29T05:26:22.570Z</time>
      </trkpt>
      <trkpt lat="63.16543" lon="18.39123">
        <ele>74.8434</ele>
        <time>2020-08-29T05:26:35.187Z</time>
      </trkpt>
      <trkpt lat="63.16565" lon="18.39092">
        <ele>76.54208</ele>
        <time>2020-08-29T05:26:49.250Z</time>
      </trkpt>
      <trkpt lat="63.16617" lon="18.39022">
        <ele>81.013318</ele>
        <time>2020-08-29T05:27:21.333Z</time>
      </trkpt>
      <trkpt lat="63.1664" lon="18.38969">
        <ele>83.44297</ele>
        <time>2020-08-29T05:27:38.877Z</time>
      </trkpt>
      <trkpt lat="63.16653" lon="18.3892">
        <ele>85.387917</ele>
        <time>2020-08-29T05:27:52.946Z</time>
      </trkpt>
      <trkpt lat="63.16661" lon="18.38868">
        <ele>87.206022</ele>
        <time>2020-08-29T05:28:07.090Z</time>
      </trkpt>
      <trkpt lat="63.16671" lon="18.38665">
        <ele>93.932961</ele>
        <time>2020-08-29T05:28:55.351Z</time>
      </trkpt>
      <trkpt lat="63.16683" lon="18.38603">
        <ele>96.152567</ele>
        <time>2020-08-29T05:29:11.799Z</time>
      </trkpt>
      <trkpt lat="63.16689" lon="18.38577">
        <ele>97.131592</ele>
        <time>2020-08-29T05:29:19.851Z</time>
      </trkpt>
      <trkpt lat="63.16692" lon="18.38553">
        <ele>97.944243</ele>
        <time>2020-08-29T05:29:25.784Z</time>
      </trkpt>
      <trkpt lat="63.16694" lon="18.38462">
        <ele>100.917856</ele>
        <time>2020-08-29T05:29:47.183Z</time>
      </trkpt>
      <trkpt lat="63.16692" lon="18.38429">
        <ele>102.006593</ele>
        <time>2020-08-29T05:29:55.307Z</time>
      </trkpt>
      <trkpt lat="63.16728" lon="18.38342">
        <ele>104.774992</ele>
        <time>2020-08-29T05:30:16.635Z</time>
      </trkpt>
      <trkpt lat="63.1677" lon="18.38191">
        <ele>108.33579</ele>
        <time>2020-08-29T05:30:44.096Z</time>
      </trkpt>
      <trkpt lat="63.16801" lon="18.38122">
        <ele>110.281893</ele>
        <time>2020-08-29T05:30:57.074Z</time>
      </trkpt>
      <trkpt lat="63.16802" lon="18.38091">
        <ele>110.906517</ele>
        <time>2020-08-29T05:31:00.727Z</time>
      </trkpt>
      <trkpt lat="63.16794" lon="18.38059">
        <ele>111.16854</ele>
        <time>2020-08-29T05:31:04.221Z</time>
      </trkpt>
      <trkpt lat="63.16702" lon="18.37874">
        <ele>112.155628</ele>
        <time>2020-08-29T05:31:29.027Z</time>
      </trkpt>
      <trkpt lat="63.1667" lon="18.37876">
        <ele>112.408687</ele>
        <time>2020-08-29T05:31:34.933Z</time>
      </trkpt>
      <trkpt lat="63.16671" lon="18.37858">
        <ele>112.476552</ele>
        <time>2020-08-29T05:31:37.921Z</time>
      </trkpt>
      <trkpt lat="63.16664" lon="18.37723">
        <ele>113.494995</ele>
        <time>2020-08-29T05:31:57.251Z</time>
      </trkpt>
      <trkpt lat="63.16667" lon="18.37671">
        <ele>113.894554</ele>
        <time>2020-08-29T05:32:05.354Z</time>
      </trkpt>
      <trkpt lat="63.16675" lon="18.37619">
        <ele>114.315922</ele>
        <time>2020-08-29T05:32:14.108Z</time>
      </trkpt>
      <trkpt lat="63.16724" lon="18.37455">
        <ele>116.001495</ele>
        <time>2020-08-29T05:32:48.163Z</time>
      </trkpt>
      <trkpt lat="63.16759" lon="18.37308">
        <ele>118.12937</ele>
        <time>2020-08-29T05:33:18.063Z</time>
      </trkpt>
      <trkpt lat="63.16792" lon="18.37197">
        <ele>119.82028</ele>
        <time>2020-08-29T05:33:41.426Z</time>
      </trkpt>
      <trkpt lat="63.1684" lon="18.3698">
        <ele>122.627478</ele>
        <time>2020-08-29T05:34:22.435Z</time>
      </trkpt>
      <trkpt lat="63.16852" lon="18.36939">
        <ele>123.162152</ele>
        <time>2020-08-29T05:34:30.364Z</time>
      </trkpt>
      <trkpt lat="63.1687" lon="18.36909">
        <ele>123.719542</ele>
        <time>2020-08-29T05:34:38.686Z</time>
      </trkpt>
      <trkpt lat="63.16878" lon="18.36898">
        <ele>123.964685</ele>
        <time>2020-08-29T05:34:42.475Z</time>
      </trkpt>
      <trkpt lat="63.16876" lon="18.36837">
        <ele>124.641721</ele>
        <time>2020-08-29T05:34:52.754Z</time>
      </trkpt>
      <trkpt lat="63.16876" lon="18.36779">
        <ele>125.320033</ele>
        <time>2020-08-29T05:35:03.010Z</time>
      </trkpt>
      <trkpt lat="63.16876" lon="18.36738">
        <ele>125.830387</ele>
        <time>2020-08-29T05:35:09.928Z</time>
      </trkpt>
      <trkpt lat="63.16877" lon="18.36703">
        <ele>126.26795</ele>
        <time>2020-08-29T05:35:16.218Z</time>
      </trkpt>
      <trkpt lat="63.16888" lon="18.36342">
        <ele>130.59616</ele>
        <time>2020-08-29T05:36:20.184Z</time>
      </trkpt>
      <trkpt lat="63.16894" lon="18.35801">
        <ele>134.433537</ele>
        <time>2020-08-29T05:37:45.917Z</time>
      </trkpt>
      <trkpt lat="63.16893" lon="18.35765">
        <ele>134.587068</ele>
        <time>2020-08-29T05:37:50.816Z</time>
      </trkpt>
      <trkpt lat="63.16891" lon="18.35743">
        <ele>134.678755</ele>
        <time>2020-08-29T05:37:53.895Z</time>
      </trkpt>
      <trkpt lat="63.1687" lon="18.35638">
        <ele>135.169767</ele>
        <time>2020-08-29T05:38:09.782Z</time>
      </trkpt>
      <trkpt lat="63.16865" lon="18.35615">
        <ele>135.276486</ele>
        <time>2020-08-29T05:38:13.243Z</time>
      </trkpt>
      <trkpt lat="63.16858" lon="18.35589">
        <ele>135.3254</ele>
        <time>2020-08-29T05:38:17.365Z</time>
      </trkpt>
      <trkpt lat="63.168" lon="18.35394">
        <ele>135.707748</ele>
        <time>2020-08-29T05:38:48.971Z</time>
      </trkpt>
      <trkpt lat="63.1679" lon="18.35348">
        <ele>135.790272</ele>
        <time>2020-08-29T05:38:56.166Z</time>
      </trkpt>
      <trkpt lat="63.16786" lon="18.35319">
        <ele>135.840809</ele>
        <time>2020-08-29T05:39:00.576Z</time>
      </trkpt>
      <trkpt lat="63.1678" lon="18.35186">
        <ele>136.50682</ele>
        <time>2020-08-29T05:39:20.266Z</time>
      </trkpt>
      <trkpt lat="63.16784" lon="18.35103">
        <ele>137.105285</ele>
        <time>2020-08-29T05:39:33.116Z</time>
      </trkpt>
      <trkpt lat="63.16789" lon="18.3505">
        <ele>137.49543</ele>
        <time>2020-08-29T05:39:41.735Z</time>
      </trkpt>
      <trkpt lat="63.16808" lon="18.34956">
        <ele>138.225205</ele>
        <time>2020-08-29T05:39:58.229Z</time>
      </trkpt>
      <trkpt lat="63.16844" lon="18.34844">
        <ele>139.493102</ele>
        <time>2020-08-29T05:40:21.296Z</time>
      </trkpt>
      <trkpt lat="63.17019" lon="18.34396">
        <ele>146.610718</ele>
        <time>2020-08-29T05:42:04.166Z</time>
      </trkpt>
      <trkpt lat="63.17058" lon="18.34284">
        <ele>148.34627</ele>
        <time>2020-08-29T05:42:28.404Z</time>
      </trkpt>
      <trkpt lat="63.17154" lon="18.33956">
        <ele>153.650621</ele>
        <time>2020-08-29T05:43:37.492Z</time>
      </trkpt>
      <trkpt lat="63.17179" lon="18.33819">
        <ele>156.177156</ele>
        <time>2020-08-29T05:44:05.739Z</time>
      </trkpt>
      <trkpt lat="63.17184" lon="18.33732">
        <ele>157.693085</ele>
        <time>2020-08-29T05:44:22.886Z</time>
      </trkpt>
      <trkpt lat="63.17183" lon="18.33667">
        <ele>158.82018</ele>
        <time>2020-08-29T05:44:35.723Z</time>
      </trkpt>
      <trkpt lat="63.17176" lon="18.33583">
        <ele>160.299884</ele>
        <time>2020-08-29T05:44:52.128Z</time>
      </trkpt>
      <trkpt lat="63.17165" lon="18.33519">
        <ele>160.839921</ele>
        <time>2020-08-29T05:45:04.731Z</time>
      </trkpt>
      <trkpt lat="63.17132" lon="18.33391">
        <ele>161.384938</ele>
        <time>2020-08-29T05:45:30.684Z</time>
      </trkpt>
      <trkpt lat="63.17022" lon="18.33124">
        <ele>160.770395</ele>
        <time>2020-08-29T05:46:13.361Z</time>
      </trkpt>
      <trkpt lat="63.17004" lon="18.33084">
        <ele>160.280307</ele>
        <time>2020-08-29T05:46:19.653Z</time>
      </trkpt>
      <trkpt lat="63.16997" lon="18.33066">
        <ele>160.071109</ele>
        <time>2020-08-29T05:46:21.988Z</time>
      </trkpt>
      <trkpt lat="63.16598" lon="18.32121">
        <ele>151.398926</ele>
        <time>2020-08-29T05:48:52.256Z</time>
      </trkpt>
      <trkpt lat="63.16567" lon="18.32008">
        <ele>152.477881</ele>
        <time>2020-08-29T05:49:15.295Z</time>
      </trkpt>
      <trkpt lat="63.16533" lon="18.31836">
        <ele>155.901046</ele>
        <time>2020-08-29T05:49:51.903Z</time>
      </trkpt>
      <trkpt lat="63.16494" lon="18.31711">
        <ele>158.72362</ele>
        <time>2020-08-29T05:50:23.981Z</time>
      </trkpt>
      <trkpt lat="63.16467" lon="18.31659">
        <ele>160.736761</ele>
        <time>2020-08-29T05:50:40.775Z</time>
      </trkpt>
      <trkpt lat="63.16372" lon="18.31533">
        <ele>166.998679</ele>
        <time>2020-08-29T05:51:33.330Z</time>
      </trkpt>
      <trkpt lat="63.16345" lon="18.31464">
        <ele>169.47317</ele>
        <time>2020-08-29T05:51:53.611Z</time>
      </trkpt>
      <trkpt lat="63.16324" lon="18.3138">
        <ele>172.469189</ele>
        <time>2020-08-29T05:52:15.737Z</time>
      </trkpt>
      <trkpt lat="63.16314" lon="18.31296">
        <ele>175.176906</ele>
        <time>2020-08-29T05:52:36.227Z</time>
      </trkpt>
      <trkpt lat="63.1631" lon="18.31208">
        <ele>177.927327</ele>
        <time>2020-08-29T05:52:57.386Z</time>
      </trkpt>
      <trkpt lat="63.16312" lon="18.3103">
        <ele>183.325863</ele>
        <time>2020-08-29T05:53:40.498Z</time>
      </trkpt>
      <trkpt lat="63.16322" lon="18.30884">
        <ele>187.665706</ele>
        <time>2020-08-29T05:54:15.591Z</time>
      </trkpt>
      <trkpt lat="63.16341" lon="18.30734">
        <ele>192.209705</ele>
        <time>2020-08-29T05:54:50.454Z</time>
      </trkpt>
      <trkpt lat="63.16402" lon="18.30365">
        <ele>199.562346</ele>
        <time>2020-08-29T05:56:06.651Z</time>
      </trkpt>
      <trkpt lat="63.16439" lon="18.30197">
        <ele>201.302569</ele>
        <time>2020-08-29T05:56:37.367Z</time>
      </trkpt>
      <trkpt lat="63.16443" lon="18.30183">
        <ele>201.440954</ele>
        <time>2020-08-29T05:56:39.991Z</time>
      </trkpt>
      <trkpt lat="63.16453" lon="18.30146">
        <ele>201.805614</ele>
        <time>2020-08-29T05:56:46.972Z</time>
      </trkpt>
      <trkpt lat="63.16502" lon="18.30016">
        <ele>203.187229</ele>
        <time>2020-08-29T05:57:12.685Z</time>
      </trkpt>
      <trkpt lat="63.16607" lon="18.29783">
        <ele>204.416586</ele>
        <time>2020-08-29T05:58:01.069Z</time>
      </trkpt>
      <trkpt lat="63.16613" lon="18.29768">
        <ele>204.492297</ele>
        <time>2020-08-29T05:58:04.618Z</time>
      </trkpt>
      <trkpt lat="63.16617" lon="18.29757">
        <ele>204.546198</ele>
        <time>2020-08-29T05:58:06.285Z</time>
      </trkpt>
      <trkpt lat="63.16656" lon="18.29626">
        <ele>205.058716</ele>
        <time>2020-08-29T05:58:28.049Z</time>
      </trkpt>
      <trkpt lat="63.16682" lon="18.29465">
        <ele>205.597715</ele>
        <time>2020-08-29T05:58:51.856Z</time>
      </trkpt>
      <trkpt lat="63.16696" lon="18.29277">
        <ele>207.043833</ele>
        <time>2020-08-29T05:59:20.799Z</time>
      </trkpt>
      <trkpt lat="63.16692" lon="18.29123">
        <ele>209.119156</ele>
        <time>2020-08-29T05:59:47.884Z</time>
      </trkpt>
      <trkpt lat="63.1667" lon="18.28984">
        <ele>211.099807</ele>
        <time>2020-08-29T06:00:16.062Z</time>
      </trkpt>
      <trkpt lat="63.16651" lon="18.28905">
        <ele>212.757122</ele>
        <time>2020-08-29T06:00:33.847Z</time>
      </trkpt>
      <trkpt lat="63.16627" lon="18.28831">
        <ele>214.569689</ele>
        <time>2020-08-29T06:00:52.466Z</time>
      </trkpt>
      <trkpt lat="63.16542" lon="18.28615">
        <ele>220.058186</ele>
        <time>2020-08-29T06:01:49.079Z</time>
      </trkpt>
      <trkpt lat="63.16513" lon="18.28478">
        <ele>222.605568</ele>
        <time>2020-08-29T06:02:17.915Z</time>
      </trkpt>
      <trkpt lat="63.16502" lon="18.28366">
        <ele>224.524636</ele>
        <time>2020-08-29T06:02:39.262Z</time>
      </trkpt>
      <trkpt lat="63.165" lon="18.28279">
        <ele>225.947462</ele>
        <time>2020-08-29T06:02:55.278Z</time>
      </trkpt>
      <trkpt lat="63.16514" lon="18.28039">
        <ele>228.776757</ele>
        <time>2020-08-29T06:03:37.788Z</time>
      </trkpt>
      <trkpt lat="63.16516" lon="18.27945">
        <ele>229.869952</ele>
        <time>2020-08-29T06:03:53.305Z</time>
      </trkpt>
      <trkpt lat="63.16502" lon="18.27822">
        <ele>230.938707</ele>
        <time>2020-08-29T06:04:13.645Z</time>
      </trkpt>
      <trkpt lat="63.16461" lon="18.27696">
        <ele>231.871164</ele>
        <time>2020-08-29T06:04:37.348Z</time>
      </trkpt>
      <trkpt lat="63.16455" lon="18.27684">
        <ele>231.985686</ele>
        <time>2020-08-29T06:04:40.217Z</time>
      </trkpt>
      <trkpt lat="63.16448" lon="18.27673">
        <ele>232.090126</ele>
        <time>2020-08-29T06:04:42.684Z</time>
      </trkpt>
      <trkpt lat="63.16268" lon="18.27353">
        <ele>234.8397</ele>
        <time>2020-08-29T06:05:59.529Z</time>
      </trkpt>
      <trkpt lat="63.16221" lon="18.27269">
        <ele>235.295667</ele>
        <time>2020-08-29T06:06:20.158Z</time>
      </trkpt>
      <trkpt lat="63.16201" lon="18.27233">
        <ele>235.471738</ele>
        <time>2020-08-29T06:06:28.983Z</time>
      </trkpt>
      <trkpt lat="63.16048" lon="18.26972">
        <ele>235.92706</ele>
        <time>2020-08-29T06:07:27.736Z</time>
      </trkpt>
      <trkpt lat="63.15991" lon="18.26917">
        <ele>235.763163</ele>
        <time>2020-08-29T06:07:44.711Z</time>
      </trkpt>
      <trkpt lat="63.1593" lon="18.26889">
        <ele>235.617594</ele>
        <time>2020-08-29T06:08:01.920Z</time>
      </trkpt>
      <trkpt lat="63.1538" lon="18.26731">
        <ele>234.946815</ele>
        <time>2020-08-29T06:10:44.987Z</time>
      </trkpt>
      <trkpt lat="63.15303" lon="18.26686">
        <ele>235.198214</ele>
        <time>2020-08-29T06:11:09.836Z</time>
      </trkpt>
      <trkpt lat="63.15288" lon="18.26672">
        <ele>235.250422</ele>
        <time>2020-08-29T06:11:15.162Z</time>
      </trkpt>
      <trkpt lat="63.15265" lon="18.26649">
        <ele>235.331266</ele>
        <time>2020-08-29T06:11:23.002Z</time>
      </trkpt>
      <trkpt lat="63.15077" lon="18.26434">
        <ele>235.72278</ele>
        <time>2020-08-29T06:12:27.358Z</time>
      </trkpt>
      <trkpt lat="63.15022" lon="18.26372">
        <ele>235.695568</ele>
        <time>2020-08-29T06:12:45.396Z</time>
      </trkpt>
      <trkpt lat="63.15016" lon="18.26365">
        <ele>235.692113</ele>
        <time>2020-08-29T06:12:47.894Z</time>
      </trkpt>
      <trkpt lat="63.14954" lon="18.26282">
        <ele>235.660028</ele>
        <time>2020-08-29T06:13:09.107Z</time>
      </trkpt>
      <trkpt lat="63.14904" lon="18.26177">
        <ele>235.287305</ele>
        <time>2020-08-29T06:13:28.940Z</time>
      </trkpt>
      <trkpt lat="63.14873" lon="18.26079">
        <ele>234.917703</ele>
        <time>2020-08-29T06:13:43.833Z</time>
      </trkpt>
      <trkpt lat="63.14836" lon="18.25911">
        <ele>234.367622</ele>
        <time>2020-08-29T06:14:06.712Z</time>
      </trkpt>
      <trkpt lat="63.14811" lon="18.25841">
        <ele>234.202281</ele>
        <time>2020-08-29T06:14:17.644Z</time>
      </trkpt>
      <trkpt lat="63.14786" lon="18.25792">
        <ele>234.063236</ele>
        <time>2020-08-29T06:14:26.983Z</time>
      </trkpt>
      <trkpt lat="63.14737" lon="18.25737">
        <ele>233.838746</ele>
        <time>2020-08-29T06:14:42.641Z</time>
      </trkpt>
      <trkpt lat="63.1464" lon="18.25689">
        <ele>233.831613</ele>
        <time>2020-08-29T06:15:13.411Z</time>
      </trkpt>
      <trkpt lat="63.14588" lon="18.25644">
        <ele>233.97857</ele>
        <time>2020-08-29T06:15:30.855Z</time>
      </trkpt>
      <trkpt lat="63.14546" lon="18.25575">
        <ele>234.11875</ele>
        <time>2020-08-29T06:15:47.098Z</time>
      </trkpt>
      <trkpt lat="63.14489" lon="18.25441">
        <ele>233.296624</ele>
        <time>2020-08-29T06:16:10.989Z</time>
      </trkpt>
      <trkpt lat="63.14438" lon="18.25364">
        <ele>232.552333</ele>
        <time>2020-08-29T06:16:27.272Z</time>
      </trkpt>
      <trkpt lat="63.14398" lon="18.25336">
        <ele>232.042412</ele>
        <time>2020-08-29T06:16:37.895Z</time>
      </trkpt>
      <trkpt lat="63.14357" lon="18.25329">
        <ele>230.69015</ele>
        <time>2020-08-29T06:16:48.083Z</time>
      </trkpt>
      <trkpt lat="63.14063" lon="18.25397">
        <ele>218.485742</ele>
        <time>2020-08-29T06:17:55.658Z</time>
      </trkpt>
      <trkpt lat="63.13971" lon="18.25403">
        <ele>212.127814</ele>
        <time>2020-08-29T06:18:14.898Z</time>
      </trkpt>
      <trkpt lat="63.13925" lon="18.25386">
        <ele>208.529045</ele>
        <time>2020-08-29T06:18:24.182Z</time>
      </trkpt>
      <trkpt lat="63.13885" lon="18.25352">
        <ele>205.167319</ele>
        <time>2020-08-29T06:18:32.754Z</time>
      </trkpt>
      <trkpt lat="63.13779" lon="18.25228">
        <ele>195.253453</ele>
        <time>2020-08-29T06:18:56.888Z</time>
      </trkpt>
      <trkpt lat="63.13722" lon="18.25136">
        <ele>189.304919</ele>
        <time>2020-08-29T06:19:11.323Z</time>
      </trkpt>
      <trkpt lat="63.13665" lon="18.25007">
        <ele>183.321152</ele>
        <time>2020-08-29T06:19:27.948Z</time>
      </trkpt>
      <trkpt lat="63.13594" lon="18.24794">
        <ele>174.867583</ele>
        <time>2020-08-29T06:19:53.017Z</time>
      </trkpt>
      <trkpt lat="63.13566" lon="18.24704">
        <ele>172.537021</ele>
        <time>2020-08-29T06:20:03.479Z</time>
      </trkpt>
      <trkpt lat="63.1347" lon="18.24387">
        <ele>165.194262</ele>
        <time>2020-08-29T06:20:42.901Z</time>
      </trkpt>
      <trkpt lat="63.13389" lon="18.24141">
        <ele>161.204408</ele>
        <time>2020-08-29T06:21:16.786Z</time>
      </trkpt>
      <trkpt lat="63.13368" lon="18.2408">
        <ele>160.313898</ele>
        <time>2020-08-29T06:21:25.351Z</time>
      </trkpt>
      <trkpt lat="63.13332" lon="18.24198">
        <ele>158.664629</ele>
        <time>2020-08-29T06:21:41.134Z</time>
      </trkpt>
      <trkpt lat="63.13282" lon="18.24333">
        <ele>156.648422</ele>
        <time>2020-08-29T06:22:00.264Z</time>
      </trkpt>
      <trkpt lat="63.12925" lon="18.25053">
        <ele>144.903913</ele>
        <time>2020-08-29T06:23:59.117Z</time>
      </trkpt>
      <trkpt lat="63.1281" lon="18.25259">
        <ele>142.17684</ele>
        <time>2020-08-29T06:24:36.702Z</time>
      </trkpt>
      <trkpt lat="63.12738" lon="18.2537">
        <ele>140.824974</ele>
        <time>2020-08-29T06:24:59.964Z</time>
      </trkpt>
      <trkpt lat="63.12684" lon="18.25435">
        <ele>140.53517</ele>
        <time>2020-08-29T06:25:16.942Z</time>
      </trkpt>
      <trkpt lat="63.1262" lon="18.2549">
        <ele>140.213644</ele>
        <time>2020-08-29T06:25:36.527Z</time>
      </trkpt>
      <trkpt lat="63.12567" lon="18.25522">
        <ele>140.002731</ele>
        <time>2020-08-29T06:25:52.775Z</time>
      </trkpt>
      <trkpt lat="63.12465" lon="18.25547">
        <ele>140.176125</ele>
        <time>2020-08-29T06:26:24.066Z</time>
      </trkpt>
      <trkpt lat="63.12324" lon="18.25538">
        <ele>140.17718</ele>
        <time>2020-08-29T06:27:06.923Z</time>
      </trkpt>
      <trkpt lat="63.12181" lon="18.25524">
        <ele>139.519598</ele>
        <time>2020-08-29T06:27:48.114Z</time>
      </trkpt>
      <trkpt lat="63.1191" lon="18.25499">
        <ele>135.00951</ele>
        <time>2020-08-29T06:28:57.797Z</time>
      </trkpt>
      <trkpt lat="63.11764" lon="18.25484">
        <ele>132.42282</ele>
        <time>2020-08-29T06:29:33.948Z</time>
      </trkpt>
      <trkpt lat="63.1176" lon="18.25528">
        <ele>132.089094</ele>
        <time>2020-08-29T06:29:36.900Z</time>
      </trkpt>
      <trkpt lat="63.11748" lon="18.25584">
        <ele>131.624094</ele>
        <time>2020-08-29T06:29:41.202Z</time>
      </trkpt>
      <trkpt lat="63.1171" lon="18.25662">
        <ele>131.185635</ele>
        <time>2020-08-29T06:29:50.080Z</time>
      </trkpt>
      <trkpt lat="63.11638" lon="18.25764">
        <ele>132.44722</ele>
        <time>2020-08-29T06:30:09.024Z</time>
      </trkpt>
      <trkpt lat="63.11577" lon="18.25858">
        <ele>133.536478</ele>
        <time>2020-08-29T06:30:28.666Z</time>
      </trkpt>
      <trkpt lat="63.1155" lon="18.25949">
        <ele>134.739813</ele>
        <time>2020-08-29T06:30:42.601Z</time>
      </trkpt>
      <trkpt lat="63.11525" lon="18.2599">
        <ele>135.523047</ele>
        <time>2020-08-29T06:30:51.348Z</time>
      </trkpt>
      <trkpt lat="63.11474" lon="18.26013">
        <ele>136.884292</ele>
        <time>2020-08-29T06:31:06.338Z</time>
      </trkpt>
      <trkpt lat="63.11327" lon="18.26029">
        <ele>139.436071</ele>
        <time>2020-08-29T06:31:41.653Z</time>
      </trkpt>
      <trkpt lat="63.11254" lon="18.26092">
        <ele>140.4238</ele>
        <time>2020-08-29T06:31:58.295Z</time>
      </trkpt>
      <trkpt lat="63.11198" lon="18.26212">
        <ele>141.082042</ele>
        <time>2020-08-29T06:32:14.255Z</time>
      </trkpt>
      <trkpt lat="63.11173" lon="18.26238">
        <ele>141.300492</ele>
        <time>2020-08-29T06:32:19.824Z</time>
      </trkpt>
      <trkpt lat="63.11107" lon="18.26242">
        <ele>141.829952</ele>
        <time>2020-08-29T06:32:33.792Z</time>
      </trkpt>
      <trkpt lat="63.11074" lon="18.26251">
        <ele>142.308483</ele>
        <time>2020-08-29T06:32:41.059Z</time>
      </trkpt>
      <trkpt lat="63.11035" lon="18.26241">
        <ele>143.143546</ele>
        <time>2020-08-29T06:32:50.276Z</time>
      </trkpt>
      <trkpt lat="63.10998" lon="18.26261">
        <ele>143.954959</ele>
        <time>2020-08-29T06:32:59.819Z</time>
      </trkpt>
      <trkpt lat="63.10965" lon="18.26259">
        <ele>144.641591</ele>
        <time>2020-08-29T06:33:08.318Z</time>
      </trkpt>
      <trkpt lat="63.10921" lon="18.26187">
        <ele>145.814649</ele>
        <time>2020-08-29T06:33:23.521Z</time>
      </trkpt>
      <trkpt lat="63.10874" lon="18.26057">
        <ele>147.975695</ele>
        <time>2020-08-29T06:33:45.502Z</time>
      </trkpt>
      <trkpt lat="63.10843" lon="18.26005">
        <ele>149.087874</ele>
        <time>2020-08-29T06:33:56.899Z</time>
      </trkpt>
      <trkpt lat="63.10739" lon="18.25927">
        <ele>151.240831</ele>
        <time>2020-08-29T06:34:25.889Z</time>
      </trkpt>
      <trkpt lat="63.10717" lon="18.25927">
        <ele>151.392595</ele>
        <time>2020-08-29T06:34:30.736Z</time>
      </trkpt>
      <trkpt lat="63.10652" lon="18.26034">
        <ele>151.955102</ele>
        <time>2020-08-29T06:34:46.069Z</time>
      </trkpt>
      <trkpt lat="63.10607" lon="18.26069">
        <ele>152.045442</ele>
        <time>2020-08-29T06:34:54.098Z</time>
      </trkpt>
      <trkpt lat="63.10548" lon="18.26132">
        <ele>151.569214</ele>
        <time>2020-08-29T06:35:04.641Z</time>
      </trkpt>
      <trkpt lat="63.10456" lon="18.26151">
        <ele>150.900146</ele>
        <time>2020-08-29T06:35:19.992Z</time>
      </trkpt>
      <trkpt lat="63.10401" lon="18.26109">
        <ele>150.439275</ele>
        <time>2020-08-29T06:35:30.468Z</time>
      </trkpt>
      <trkpt lat="63.10356" lon="18.26089">
        <ele>150.083838</ele>
        <time>2020-08-29T06:35:38.416Z</time>
      </trkpt>
      <trkpt lat="63.10314" lon="18.26087">
        <ele>149.747552</ele>
        <time>2020-08-29T06:35:45.535Z</time>
      </trkpt>
      <trkpt lat="63.10264" lon="18.26161">
        <ele>148.904318</ele>
        <time>2020-08-29T06:35:54.941Z</time>
      </trkpt>
      <trkpt lat="63.10156" lon="18.2623">
        <ele>146.066393</ele>
        <time>2020-08-29T06:36:11.067Z</time>
      </trkpt>
      <trkpt lat="63.10076" lon="18.26323">
        <ele>143.298894</ele>
        <time>2020-08-29T06:36:23.268Z</time>
      </trkpt>
      <trkpt lat="63.09897" lon="18.26466">
        <ele>136.203229</ele>
        <time>2020-08-29T06:36:48.717Z</time>
      </trkpt>
      <trkpt lat="63.09815" lon="18.26514">
        <ele>132.788613</ele>
        <time>2020-08-29T06:36:59.871Z</time>
      </trkpt>
      <trkpt lat="63.09756" lon="18.26529">
        <ele>130.455932</ele>
        <time>2020-08-29T06:37:07.582Z</time>
      </trkpt>
      <trkpt lat="63.09708" lon="18.26553">
        <ele>128.511464</ele>
        <time>2020-08-29T06:37:14.173Z</time>
      </trkpt>
      <trkpt lat="63.09603" lon="18.26583">
        <ele>124.378804</ele>
        <time>2020-08-29T06:37:28.233Z</time>
      </trkpt>
      <trkpt lat="63.09546" lon="18.26588">
        <ele>122.075418</ele>
        <time>2020-08-29T06:37:35.913Z</time>
      </trkpt>
      <trkpt lat="63.09481" lon="18.26659">
        <ele>119.100419</ele>
        <time>2020-08-29T06:37:45.629Z</time>
      </trkpt>
      <trkpt lat="63.09443" lon="18.26672">
        <ele>117.560646</ele>
        <time>2020-08-29T06:37:50.541Z</time>
      </trkpt>
      <trkpt lat="63.09428" lon="18.26699">
        <ele>116.756245</ele>
        <time>2020-08-29T06:37:53.021Z</time>
      </trkpt>
      <trkpt lat="63.09405" lon="18.26718">
        <ele>115.496022</ele>
        <time>2020-08-29T06:37:56.198Z</time>
      </trkpt>
      <trkpt lat="63.09298" lon="18.26726">
        <ele>110.104546</ele>
        <time>2020-08-29T06:38:09.647Z</time>
      </trkpt>
      <trkpt lat="63.09266" lon="18.26776">
        <ele>108.101208</ele>
        <time>2020-08-29T06:38:14.672Z</time>
      </trkpt>
      <trkpt lat="63.0922" lon="18.26816">
        <ele>106.040056</ele>
        <time>2020-08-29T06:38:21.008Z</time>
      </trkpt>
      <trkpt lat="63.09182" lon="18.26869">
        <ele>104.234095</ele>
        <time>2020-08-29T06:38:26.845Z</time>
      </trkpt>
      <trkpt lat="63.09125" lon="18.26967">
        <ele>101.316727</ele>
        <time>2020-08-29T06:38:36.550Z</time>
      </trkpt>
      <trkpt lat="63.09081" lon="18.27014">
        <ele>99.77594</ele>
        <time>2020-08-29T06:38:43.240Z</time>
      </trkpt>
      <trkpt lat="63.09017" lon="18.27113">
        <ele>97.742508</ele>
        <time>2020-08-29T06:38:54.259Z</time>
      </trkpt>
      <trkpt lat="63.08987" lon="18.27172">
        <ele>96.699087</ele>
        <time>2020-08-29T06:39:00.093Z</time>
      </trkpt>
      <trkpt lat="63.08971" lon="18.27169">
        <ele>96.295285</ele>
        <time>2020-08-29T06:39:02.497Z</time>
      </trkpt>
      <trkpt lat="63.0896" lon="18.27135">
        <ele>95.81565</ele>
        <time>2020-08-29T06:39:05.258Z</time>
      </trkpt>
      <trkpt lat="63.08874" lon="18.27299">
        <ele>93.942011</ele>
        <time>2020-08-29T06:39:34.272Z</time>
      </trkpt>
      <trkpt lat="63.08803" lon="18.2742">
        <ele>92.519537</ele>
        <time>2020-08-29T06:39:58.179Z</time>
      </trkpt>
      <trkpt lat="63.08762" lon="18.2747">
        <ele>91.873893</ele>
        <time>2020-08-29T06:40:10.595Z</time>
      </trkpt>
      <trkpt lat="63.08716" lon="18.2751">
        <ele>91.188975</ele>
        <time>2020-08-29T06:40:23.617Z</time>
      </trkpt>
      <trkpt lat="63.0868" lon="18.27534">
        <ele>90.662924</ele>
        <time>2020-08-29T06:40:33.564Z</time>
      </trkpt>
      <trkpt lat="63.0826" lon="18.27725">
        <ele>84.096012</ele>
        <time>2020-08-29T06:42:24.977Z</time>
      </trkpt>
      <trkpt lat="63.08196" lon="18.27766">
        <ele>83.171027</ele>
        <time>2020-08-29T06:42:42.443Z</time>
      </trkpt>
      <trkpt lat="63.08063" lon="18.27899">
        <ele>79.833342</ele>
        <time>2020-08-29T06:43:20.873Z</time>
      </trkpt>
      <trkpt lat="63.08015" lon="18.27972">
        <ele>78.097505</ele>
        <time>2020-08-29T06:43:34.722Z</time>
      </trkpt>
      <trkpt lat="63.07999" lon="18.28004">
        <ele>77.45005</ele>
        <time>2020-08-29T06:43:39.757Z</time>
      </trkpt>
      <trkpt lat="63.0797" lon="18.28077">
        <ele>75.222709</ele>
        <time>2020-08-29T06:43:49.155Z</time>
      </trkpt>
      <trkpt lat="63.07965" lon="18.2809">
        <ele>74.725869</ele>
        <time>2020-08-29T06:43:50.620Z</time>
      </trkpt>
      <trkpt lat="63.07931" lon="18.28211">
        <ele>70.449181</ele>
        <time>2020-08-29T06:44:04.444Z</time>
      </trkpt>
      <trkpt lat="63.07917" lon="18.28307">
        <ele>67.424154</ele>
        <time>2020-08-29T06:44:13.745Z</time>
      </trkpt>
      <trkpt lat="63.07914" lon="18.28325">
        <ele>66.873953</ele>
        <time>2020-08-29T06:44:15.375Z</time>
      </trkpt>
      <trkpt lat="63.07895" lon="18.28551">
        <ele>61.820739</ele>
        <time>2020-08-29T06:44:37.484Z</time>
      </trkpt>
      <trkpt lat="63.07895" lon="18.28564">
        <ele>61.570674</ele>
        <time>2020-08-29T06:44:38.641Z</time>
      </trkpt>
      <trkpt lat="63.07888" lon="18.28698">
        <ele>58.989855</ele>
        <time>2020-08-29T06:44:53.270Z</time>
      </trkpt>
      <trkpt lat="63.07812" lon="18.3003">
        <ele>53.450053</ele>
        <time>2020-08-29T06:47:42.733Z</time>
      </trkpt>
      <trkpt lat="63.0781" lon="18.30064">
        <ele>53.409301</ele>
        <time>2020-08-29T06:47:46.219Z</time>
      </trkpt>
      <trkpt lat="63.07802" lon="18.30195">
        <ele>53.249285</ele>
        <time>2020-08-29T06:48:05.283Z</time>
      </trkpt>
      <trkpt lat="63.07791" lon="18.30326">
        <ele>53.08872</ele>
        <time>2020-08-29T06:48:22.497Z</time>
      </trkpt>
      <trkpt lat="63.07769" lon="18.30493">
        <ele>51.958919</ele>
        <time>2020-08-29T06:48:47.239Z</time>
      </trkpt>
      <trkpt lat="63.07617" lon="18.3128">
        <ele>42.545725</ele>
        <time>2020-08-29T06:50:24.557Z</time>
      </trkpt>
      <trkpt lat="63.07588" lon="18.3138">
        <ele>39.956527</ele>
        <time>2020-08-29T06:50:35.731Z</time>
      </trkpt>
      <trkpt lat="63.07565" lon="18.31436">
        <ele>38.258279</ele>
        <time>2020-08-29T06:50:42.635Z</time>
      </trkpt>
      <trkpt lat="63.07545" lon="18.31479">
        <ele>36.013426</ele>
        <time>2020-08-29T06:50:48.372Z</time>
      </trkpt>
      <trkpt lat="63.07531" lon="18.31507">
        <ele>34.588288</ele>
        <time>2020-08-29T06:50:51.942Z</time>
      </trkpt>
      <trkpt lat="63.07429" lon="18.31667">
        <ele>24.737247</ele>
        <time>2020-08-29T06:51:17.483Z</time>
      </trkpt>
      <trkpt lat="63.07407" lon="18.3169">
        <ele>23.758282</ele>
        <time>2020-08-29T06:51:20.241Z</time>
      </trkpt>
      <trkpt lat="63.07347" lon="18.31741">
        <ele>21.889849</ele>
        <time>2020-08-29T06:51:28.492Z</time>
      </trkpt>
      <trkpt lat="63.07311" lon="18.31749">
        <ele>20.839774</ele>
        <time>2020-08-29T06:51:33.569Z</time>
      </trkpt>
      <trkpt lat="63.07196" lon="18.31736">
        <ele>19.842002</ele>
        <time>2020-08-29T06:51:53.453Z</time>
      </trkpt>
      <trkpt lat="63.0712" lon="18.31747">
        <ele>20.869056</ele>
        <time>2020-08-29T06:52:10.872Z</time>
      </trkpt>
      <trkpt lat="63.07082" lon="18.31763">
        <ele>21.389072</ele>
        <time>2020-08-29T06:52:20.790Z</time>
      </trkpt>
      <trkpt lat="63.07053" lon="18.3179">
        <ele>22.217289</ele>
        <time>2020-08-29T06:52:29.542Z</time>
      </trkpt>
      <trkpt lat="63.06993" lon="18.31868">
        <ele>24.490083</ele>
        <time>2020-08-29T06:52:49.454Z</time>
      </trkpt>
      <trkpt lat="63.06959" lon="18.31893">
        <ele>25.655108</ele>
        <time>2020-08-29T06:52:59.960Z</time>
      </trkpt>
      <trkpt lat="63.06933" lon="18.31901">
        <ele>26.510516</ele>
        <time>2020-08-29T06:53:07.825Z</time>
      </trkpt>
      <trkpt lat="63.06835" lon="18.31898">
        <ele>29.465153</ele>
        <time>2020-08-29T06:53:35.026Z</time>
      </trkpt>
      <trkpt lat="63.06793" lon="18.31909">
        <ele>30.712839</ele>
        <time>2020-08-29T06:53:46.442Z</time>
      </trkpt>
      <trkpt lat="63.0669" lon="18.31972">
        <ele>33.632541</ele>
        <time>2020-08-29T06:54:14.661Z</time>
      </trkpt>
      <trkpt lat="63.06665" lon="18.31978">
        <ele>34.237937</ele>
        <time>2020-08-29T06:54:21.506Z</time>
      </trkpt>
      <trkpt lat="63.06588" lon="18.31957">
        <ele>36.077544</ele>
        <time>2020-08-29T06:54:41.748Z</time>
      </trkpt>
      <trkpt lat="63.0655" lon="18.31957">
        <ele>36.970492</ele>
        <time>2020-08-29T06:54:50.772Z</time>
      </trkpt>
      <trkpt lat="63.06512" lon="18.31972">
        <ele>37.165236</ele>
        <time>2020-08-29T06:54:59.225Z</time>
      </trkpt>
      <trkpt lat="63.06477" lon="18.32009">
        <ele>37.359961</ele>
        <time>2020-08-29T06:55:07.061Z</time>
      </trkpt>
      <trkpt lat="63.06434" lon="18.32073">
        <ele>37.624948</ele>
        <time>2020-08-29T06:55:16.688Z</time>
      </trkpt>
      <trkpt lat="63.0621" lon="18.32419">
        <ele>37.23847</ele>
        <time>2020-08-29T06:56:02.499Z</time>
      </trkpt>
      <trkpt lat="63.06155" lon="18.32491">
        <ele>37.252519</ele>
        <time>2020-08-29T06:56:14.875Z</time>
      </trkpt>
      <trkpt lat="63.06104" lon="18.32534">
        <ele>37.264608</ele>
        <time>2020-08-29T06:56:24.942Z</time>
      </trkpt>
      <trkpt lat="63.06074" lon="18.32557">
        <ele>37.026445</ele>
        <time>2020-08-29T06:56:30.634Z</time>
      </trkpt>
      <trkpt lat="63.06011" lon="18.32591">
        <ele>35.956221</ele>
        <time>2020-08-29T06:56:40.965Z</time>
      </trkpt>
      <trkpt lat="63.05962" lon="18.32611">
        <ele>35.124702</ele>
        <time>2020-08-29T06:56:48.148Z</time>
      </trkpt>
      <trkpt lat="63.05852" lon="18.32677">
        <ele>31.978339</ele>
        <time>2020-08-29T06:57:02.918Z</time>
      </trkpt>
      <trkpt lat="63.05785" lon="18.32732">
        <ele>29.369005</ele>
        <time>2020-08-29T06:57:11.948Z</time>
      </trkpt>
      <trkpt lat="63.05747" lon="18.32765">
        <ele>27.853139</ele>
        <time>2020-08-29T06:57:17.175Z</time>
      </trkpt>
      <trkpt lat="63.05721" lon="18.32785">
        <ele>27.108463</ele>
        <time>2020-08-29T06:57:20.590Z</time>
      </trkpt>
      <trkpt lat="63.05675" lon="18.32825">
        <ele>25.799645</ele>
        <time>2020-08-29T06:57:27.126Z</time>
      </trkpt>
      <trkpt lat="63.05622" lon="18.32873">
        <ele>24.313403</ele>
        <time>2020-08-29T06:57:34.815Z</time>
      </trkpt>
      <trkpt lat="63.05605" lon="18.32831">
        <ele>23.649403</ele>
        <time>2020-08-29T06:57:38.423Z</time>
      </trkpt>
      <trkpt lat="63.05545" lon="18.32718">
        <ele>22.666388</ele>
        <time>2020-08-29T06:57:50.317Z</time>
      </trkpt>
      <trkpt lat="63.05486" lon="18.32664">
        <ele>22.267663</ele>
        <time>2020-08-29T06:58:01.070Z</time>
      </trkpt>
      <trkpt lat="63.0541" lon="18.32615">
        <ele>21.81065</ele>
        <time>2020-08-29T06:58:15.025Z</time>
      </trkpt>
      <trkpt lat="63.0536" lon="18.32594">
        <ele>21.609148</ele>
        <time>2020-08-29T06:58:23.413Z</time>
      </trkpt>
      <trkpt lat="63.05354" lon="18.3259">
        <ele>21.58309</ele>
        <time>2020-08-29T06:58:24.502Z</time>
      </trkpt>
      <trkpt lat="63.05318" lon="18.32573">
        <ele>21.436861</ele>
        <time>2020-08-29T06:58:30.611Z</time>
      </trkpt>
      <trkpt lat="63.053" lon="18.32567">
        <ele>21.365609</ele>
        <time>2020-08-29T06:58:33.626Z</time>
      </trkpt>
      <trkpt lat="63.05224" lon="18.32534">
        <ele>20.577323</ele>
        <time>2020-08-29T06:58:46.481Z</time>
      </trkpt>
      <trkpt lat="63.05188" lon="18.32523">
        <ele>19.775519</ele>
        <time>2020-08-29T06:58:52.662Z</time>
      </trkpt>
      <trkpt lat="63.05038" lon="18.32484">
        <ele>15.582246</ele>
        <time>2020-08-29T06:59:12.591Z</time>
      </trkpt>
      <trkpt lat="63.05001" lon="18.32479">
        <ele>13.785612</ele>
        <time>2020-08-29T06:59:17.084Z</time>
      </trkpt>
      <trkpt lat="63.04964" lon="18.3249">
        <ele>12.028653</ele>
        <time>2020-08-29T06:59:21.483Z</time>
      </trkpt>
      <trkpt lat="63.04932" lon="18.32516">
        <ele>10.429501</ele>
        <time>2020-08-29T06:59:25.558Z</time>
      </trkpt>
      <trkpt lat="63.04925" lon="18.32528">
        <ele>10.016485</ele>
        <time>2020-08-29T06:59:26.511Z</time>
      </trkpt>
      <trkpt lat="63.04923" lon="18.32553">
        <ele>9.448972</ele>
        <time>2020-08-29T06:59:28.007Z</time>
      </trkpt>
      <trkpt lat="63.04923" lon="18.32584">
        <ele>8.790683</ele>
        <time>2020-08-29T06:59:29.779Z</time>
      </trkpt>
      <trkpt lat="63.04851" lon="18.3259">
        <ele>6.933972</ele>
        <time>2020-08-29T06:59:38.742Z</time>
      </trkpt>
      <trkpt lat="63.04804" lon="18.3259">
        <ele>5.764297</ele>
        <time>2020-08-29T06:59:44.812Z</time>
      </trkpt>
      <trkpt lat="63.04765" lon="18.32591">
        <ele>4.779585</ele>
        <time>2020-08-29T06:59:51.544Z</time>
      </trkpt>
      <trkpt lat="63.04615" lon="18.32603">
        <ele>5.407216</ele>
        <time>2020-08-29T07:00:22.018Z</time>
      </trkpt>
      <trkpt lat="63.04567" lon="18.3261">
        <ele>5.876269</ele>
        <time>2020-08-29T07:00:32.531Z</time>
      </trkpt>
      <trkpt lat="63.04532" lon="18.32616">
        <ele>6.782515</ele>
        <time>2020-08-29T07:00:41.194Z</time>
      </trkpt>
      <trkpt lat="63.04474" lon="18.3263">
        <ele>8.437122</ele>
        <time>2020-08-29T07:00:56.293Z</time>
      </trkpt>
      <trkpt lat="63.04368" lon="18.32631">
        <ele>11.631298</ele>
        <time>2020-08-29T07:01:26.444Z</time>
      </trkpt>
      <trkpt lat="63.04231" lon="18.32644">
        <ele>17.453228</ele>
        <time>2020-08-29T07:02:10.942Z</time>
      </trkpt>
      <trkpt lat="63.0412" lon="18.32654">
        <ele>22.046138</ele>
        <time>2020-08-29T07:02:45.013Z</time>
      </trkpt>
      <trkpt lat="63.04098" lon="18.32656">
        <ele>22.925687</ele>
        <time>2020-08-29T07:02:51.620Z</time>
      </trkpt>
      <trkpt lat="63.03907" lon="18.32671">
        <ele>30.614116</ele>
        <time>2020-08-29T07:03:50.988Z</time>
      </trkpt>
      <trkpt lat="63.03868" lon="18.32671">
        <ele>32.163385</ele>
        <time>2020-08-29T07:04:02.788Z</time>
      </trkpt>
      <trkpt lat="63.03761" lon="18.32682">
        <ele>35.784484</ele>
        <time>2020-08-29T07:04:34.062Z</time>
      </trkpt>
      <trkpt lat="63.03637" lon="18.32684">
        <ele>39.398856</ele>
        <time>2020-08-29T07:05:08.176Z</time>
      </trkpt>
      <trkpt lat="63.03545" lon="18.3264">
        <ele>41.010102</ele>
        <time>2020-08-29T07:05:31.829Z</time>
      </trkpt>
      <trkpt lat="63.03465" lon="18.3257">
        <ele>41.59304</ele>
        <time>2020-08-29T07:05:48.625Z</time>
      </trkpt>
      <trkpt lat="63.03422" lon="18.32515">
        <ele>40.739463</ele>
        <time>2020-08-29T07:05:56.133Z</time>
      </trkpt>
      <trkpt lat="63.0338" lon="18.32444">
        <ele>39.831878</ele>
        <time>2020-08-29T07:06:03.367Z</time>
      </trkpt>
      <trkpt lat="63.03338" lon="18.3235">
        <ele>38.889989</ele>
        <time>2020-08-29T07:06:11.332Z</time>
      </trkpt>
      <trkpt lat="63.03296" lon="18.32225">
        <ele>38.354642</ele>
        <time>2020-08-29T07:06:20.632Z</time>
      </trkpt>
      <trkpt lat="63.03005" lon="18.31192">
        <ele>35.133859</ele>
        <time>2020-08-29T07:07:53.109Z</time>
      </trkpt>
      <trkpt lat="63.02956" lon="18.31012">
        <ele>35.436113</ele>
        <time>2020-08-29T07:08:13.359Z</time>
      </trkpt>
      <trkpt lat="63.029" lon="18.30766">
        <ele>35.861107</ele>
        <time>2020-08-29T07:08:39.625Z</time>
      </trkpt>
      <trkpt lat="63.02844" lon="18.30531">
        <ele>34.30803</ele>
        <time>2020-08-29T07:08:57.950Z</time>
      </trkpt>
      <trkpt lat="63.02826" lon="18.30443">
        <ele>33.270962</ele>
        <time>2020-08-29T07:09:03.916Z</time>
      </trkpt>
      <trkpt lat="63.02813" lon="18.3039">
        <ele>32.616452</ele>
        <time>2020-08-29T07:09:07.521Z</time>
      </trkpt>
      <trkpt lat="63.02754" lon="18.30215">
        <ele>29.201519</ele>
        <time>2020-08-29T07:09:19.895Z</time>
      </trkpt>
      <trkpt lat="63.02715" lon="18.30127">
        <ele>26.962543</ele>
        <time>2020-08-29T07:09:26.673Z</time>
      </trkpt>
      <trkpt lat="63.02669" lon="18.3003">
        <ele>24.394566</ele>
        <time>2020-08-29T07:09:34.808Z</time>
      </trkpt>
      <trkpt lat="63.02656" lon="18.30011">
        <ele>24.044738</ele>
        <time>2020-08-29T07:09:36.835Z</time>
      </trkpt>
      <trkpt lat="63.02592" lon="18.29919">
        <ele>22.346779</ele>
        <time>2020-08-29T07:09:46.977Z</time>
      </trkpt>
      <trkpt lat="63.02506" lon="18.29829">
        <ele>20.419008</ele>
        <time>2020-08-29T07:10:01.073Z</time>
      </trkpt>
      <trkpt lat="63.02476" lon="18.29797">
        <ele>20.346815</ele>
        <time>2020-08-29T07:10:06.832Z</time>
      </trkpt>
      <trkpt lat="63.02466" lon="18.29799">
        <ele>20.325952</ele>
        <time>2020-08-29T07:10:08.606Z</time>
      </trkpt>
      <trkpt lat="63.02269" lon="18.29697">
        <ele>18.927168</ele>
        <time>2020-08-29T07:10:45.061Z</time>
      </trkpt>
      <trkpt lat="63.02229" lon="18.29678">
        <ele>18.305407</ele>
        <time>2020-08-29T07:10:51.298Z</time>
      </trkpt>
      <trkpt lat="63.01888" lon="18.29513">
        <ele>8.093484</ele>
        <time>2020-08-29T07:11:36.251Z</time>
      </trkpt>
      <trkpt lat="63.01811" lon="18.29474">
        <ele>5.86727</ele>
        <time>2020-08-29T07:11:47.176Z</time>
      </trkpt>
      <trkpt lat="63.01694" lon="18.29393">
        <ele>4.444496</ele>
        <time>2020-08-29T07:12:05.363Z</time>
      </trkpt>
      <trkpt lat="63.01568" lon="18.29258">
        <ele>5.006494</ele>
        <time>2020-08-29T07:12:29.428Z</time>
      </trkpt>
      <trkpt lat="63.01487" lon="18.29165">
        <ele>6.239983</ele>
        <time>2020-08-29T07:12:52.008Z</time>
      </trkpt>
      <trkpt lat="63.01426" lon="18.291">
        <ele>9.352515</ele>
        <time>2020-08-29T07:13:15.197Z</time>
      </trkpt>
      <trkpt lat="63.01372" lon="18.2906">
        <ele>12.03642</ele>
        <time>2020-08-29T07:13:35.939Z</time>
      </trkpt>
      <trkpt lat="63.01317" lon="18.29037">
        <ele>14.653719</ele>
        <time>2020-08-29T07:13:54.846Z</time>
      </trkpt>
      <trkpt lat="63.01275" lon="18.29034">
        <ele>15.083219</ele>
        <time>2020-08-29T07:14:07.049Z</time>
      </trkpt>
      <trkpt lat="63.01215" lon="18.29042">
        <ele>15.6584</ele>
        <time>2020-08-29T07:14:21.935Z</time>
      </trkpt>
      <trkpt lat="63.01154" lon="18.29039">
        <ele>16.231718</ele>
        <time>2020-08-29T07:14:31.349Z</time>
      </trkpt>
      <trkpt lat="63.01014" lon="18.29044">
        <ele>13.019065</ele>
        <time>2020-08-29T07:14:49.703Z</time>
      </trkpt>
      <trkpt lat="63.00969" lon="18.29035">
        <ele>11.774171</ele>
        <time>2020-08-29T07:14:55.813Z</time>
      </trkpt>
      <trkpt lat="63.00927" lon="18.29008">
        <ele>10.801602</ele>
        <time>2020-08-29T07:15:01.850Z</time>
      </trkpt>
      <trkpt lat="63.00841" lon="18.28886">
        <ele>8.739589</ele>
        <time>2020-08-29T07:15:16.354Z</time>
      </trkpt>
      <trkpt lat="63.00806" lon="18.28807">
        <ele>7.727908</ele>
        <time>2020-08-29T07:15:23.615Z</time>
      </trkpt>
      <trkpt lat="63.00777" lon="18.28729">
        <ele>6.862343</ele>
        <time>2020-08-29T07:15:30.031Z</time>
      </trkpt>
      <trkpt lat="63.00757" lon="18.28655">
        <ele>6.125246</ele>
        <time>2020-08-29T07:15:35.540Z</time>
      </trkpt>
      <trkpt lat="63.00739" lon="18.28556">
        <ele>5.222442</ele>
        <time>2020-08-29T07:15:42.382Z</time>
      </trkpt>
      <trkpt lat="63.00729" lon="18.28447">
        <ele>4.323946</ele>
        <time>2020-08-29T07:15:49.666Z</time>
      </trkpt>
      <trkpt lat="63.00727" lon="18.28334">
        <ele>3.702632</ele>
        <time>2020-08-29T07:15:57.266Z</time>
      </trkpt>
      <trkpt lat="63.00732" lon="18.2822">
        <ele>3.074041</ele>
        <time>2020-08-29T07:16:04.968Z</time>
      </trkpt>
      <trkpt lat="63.00748" lon="18.28053">
        <ele>2.20595</ele>
        <time>2020-08-29T07:16:17.301Z</time>
      </trkpt>
      <trkpt lat="63.00756" lon="18.27955">
        <ele>2.018737</ele>
        <time>2020-08-29T07:16:24.774Z</time>
      </trkpt>
      <trkpt lat="63.00795" lon="18.27568">
        <ele>1.476553</ele>
        <time>2020-08-29T07:16:55.324Z</time>
      </trkpt>
      <trkpt lat="63.00802" lon="18.27416">
        <ele>1.449515</ele>
        <time>2020-08-29T07:17:07.795Z</time>
      </trkpt>
      <trkpt lat="63.00799" lon="18.27291">
        <ele>1.427184</ele>
        <time>2020-08-29T07:17:18.177Z</time>
      </trkpt>
      <trkpt lat="63.00787" lon="18.27153">
        <ele>1.385838</ele>
        <time>2020-08-29T07:17:29.795Z</time>
      </trkpt>
      <trkpt lat="63.00766" lon="18.27022">
        <ele>1.344702</ele>
        <time>2020-08-29T07:17:40.928Z</time>
      </trkpt>
      <trkpt lat="63.00737" lon="18.26901">
        <ele>1.275033</ele>
        <time>2020-08-29T07:17:51.643Z</time>
      </trkpt>
      <trkpt lat="63.00691" lon="18.26752">
        <ele>0.983225</ele>
        <time>2020-08-29T07:18:05.248Z</time>
      </trkpt>
      <trkpt lat="63.00616" lon="18.26531">
        <ele>0.585107</ele>
        <time>2020-08-29T07:18:26.242Z</time>
      </trkpt>
      <trkpt lat="63.00552" lon="18.26317">
        <ele>0.334294</ele>
        <time>2020-08-29T07:18:46.435Z</time>
      </trkpt>
      <trkpt lat="63.00515" lon="18.26156">
        <ele>0.239603</ele>
        <time>2020-08-29T07:19:00.817Z</time>
      </trkpt>
      <trkpt lat="63.0048" lon="18.25942">
        <ele>0.16935</ele>
        <time>2020-08-29T07:19:19.063Z</time>
      </trkpt>
      <trkpt lat="63.00464" lon="18.25814">
        <ele>0.15666</ele>
        <time>2020-08-29T07:19:29.668Z</time>
      </trkpt>
      <trkpt lat="63.00452" lon="18.25695">
        <ele>0.15922</ele>
        <time>2020-08-29T07:19:39.510Z</time>
      </trkpt>
      <trkpt lat="63.00447" lon="18.25584">
        <ele>0.161543</ele>
        <time>2020-08-29T07:19:48.533Z</time>
      </trkpt>
      <trkpt lat="63.00445" lon="18.25397">
        <ele>0.346595</ele>
        <time>2020-08-29T07:20:03.915Z</time>
      </trkpt>
      <trkpt lat="63.00442" lon="18.25118">
        <ele>0.809893</ele>
        <time>2020-08-29T07:20:28.101Z</time>
      </trkpt>
      <trkpt lat="63.00424" lon="18.24365">
        <ele>3.481159</ele>
        <time>2020-08-29T07:21:38.541Z</time>
      </trkpt>
      <trkpt lat="63.00429" lon="18.24177">
        <ele>3.720194</ele>
        <time>2020-08-29T07:21:55.231Z</time>
      </trkpt>
      <trkpt lat="63.0044" lon="18.2405">
        <ele>3.792281</ele>
        <time>2020-08-29T07:22:06.116Z</time>
      </trkpt>
      <trkpt lat="63.00549" lon="18.23304">
        <ele>2.72704</ele>
        <time>2020-08-29T07:23:05.642Z</time>
      </trkpt>
      <trkpt lat="63.00606" lon="18.23076">
        <ele>2.448851</ele>
        <time>2020-08-29T07:23:25.475Z</time>
      </trkpt>
      <trkpt lat="63.00655" lon="18.22936">
        <ele>2.373225</ele>
        <time>2020-08-29T07:23:39.473Z</time>
      </trkpt>
      <trkpt lat="63.00708" lon="18.22816">
        <ele>2.738006</ele>
        <time>2020-08-29T07:23:53.568Z</time>
      </trkpt>
      <trkpt lat="63.00779" lon="18.22684">
        <ele>3.834686</ele>
        <time>2020-08-29T07:24:12.597Z</time>
      </trkpt>
      <trkpt lat="63.00867" lon="18.22544">
        <ele>5.908201</ele>
        <time>2020-08-29T07:24:40.313Z</time>
      </trkpt>
      <trkpt lat="63.00908" lon="18.22481">
        <ele>7.237412</ele>
        <time>2020-08-29T07:24:54.242Z</time>
      </trkpt>
      <trkpt lat="63.00951" lon="18.22413">
        <ele>8.632431</ele>
        <time>2020-08-29T07:25:09.442Z</time>
      </trkpt>
      <trkpt lat="63.01101" lon="18.22171">
        <ele>10.8381</ele>
        <time>2020-08-29T07:25:51.978Z</time>
      </trkpt>
      <trkpt lat="63.01181" lon="18.21984">
        <ele>8.834741</ele>
        <time>2020-08-29T07:26:07.899Z</time>
      </trkpt>
      <trkpt lat="63.0123" lon="18.21849">
        <ele>7.175875</ele>
        <time>2020-08-29T07:26:18.380Z</time>
      </trkpt>
      <trkpt lat="63.01266" lon="18.21746">
        <ele>6.606088</ele>
        <time>2020-08-29T07:26:26.952Z</time>
      </trkpt>
      <trkpt lat="63.01311" lon="18.21621">
        <ele>5.914839</ele>
        <time>2020-08-29T07:26:38.297Z</time>
      </trkpt>
      <trkpt lat="63.01348" lon="18.21513">
        <ele>5.395783</ele>
        <time>2020-08-29T07:26:50.082Z</time>
      </trkpt>
      <trkpt lat="63.01373" lon="18.21435">
        <ele>5.218491</ele>
        <time>2020-08-29T07:26:57.846Z</time>
      </trkpt>
      <trkpt lat="63.01392" lon="18.21372">
        <ele>5.078517</ele>
        <time>2020-08-29T07:27:03.697Z</time>
      </trkpt>
      <trkpt lat="63.01444" lon="18.21158">
        <ele>4.556589</ele>
        <time>2020-08-29T07:27:21.202Z</time>
      </trkpt>
      <trkpt lat="63.01465" lon="18.21035">
        <ele>4.100707</ele>
        <time>2020-08-29T07:27:30.482Z</time>
      </trkpt>
      <trkpt lat="63.01488" lon="18.20826">
        <ele>3.355363</ele>
        <time>2020-08-29T07:27:46.139Z</time>
      </trkpt>
      <trkpt lat="63.01496" lon="18.20697">
        <ele>3.090912</ele>
        <time>2020-08-29T07:27:55.896Z</time>
      </trkpt>
      <trkpt lat="63.015" lon="18.20437">
        <ele>2.574882</ele>
        <time>2020-08-29T07:28:15.696Z</time>
      </trkpt>
      <trkpt lat="63.01485" lon="18.20198">
        <ele>2.131382</ele>
        <time>2020-08-29T07:28:33.908Z</time>
      </trkpt>
      <trkpt lat="63.01472" lon="18.20088">
        <ele>1.920686</ele>
        <time>2020-08-29T07:28:42.609Z</time>
      </trkpt>
      <trkpt lat="63.01455" lon="18.19979">
        <ele>1.745748</ele>
        <time>2020-08-29T07:28:51.428Z</time>
      </trkpt>
      <trkpt lat="63.01441" lon="18.19888">
        <ele>1.624368</ele>
        <time>2020-08-29T07:28:58.749Z</time>
      </trkpt>
      <trkpt lat="63.01397" lon="18.19678">
        <ele>1.329962</ele>
        <time>2020-08-29T07:29:16.746Z</time>
      </trkpt>
      <trkpt lat="63.01329" lon="18.19447">
        <ele>1.511091</ele>
        <time>2020-08-29T07:29:38.485Z</time>
      </trkpt>
      <trkpt lat="63.0131" lon="18.19392">
        <ele>1.558271</ele>
        <time>2020-08-29T07:29:44.371Z</time>
      </trkpt>
      <trkpt lat="63.01301" lon="18.19365">
        <ele>1.582194</ele>
        <time>2020-08-29T07:29:47.361Z</time>
      </trkpt>
      <trkpt lat="63.01281" lon="18.1931">
        <ele>2.126978</ele>
        <time>2020-08-29T07:29:53.957Z</time>
      </trkpt>
      <trkpt lat="63.01264" lon="18.19266">
        <ele>2.797148</ele>
        <time>2020-08-29T07:29:59.934Z</time>
      </trkpt>
      <trkpt lat="63.01242" lon="18.19214">
        <ele>3.61028</ele>
        <time>2020-08-29T07:30:07.646Z</time>
      </trkpt>
      <trkpt lat="63.01195" lon="18.1912">
        <ele>5.206821</ele>
        <time>2020-08-29T07:30:25.123Z</time>
      </trkpt>
      <trkpt lat="63.01164" lon="18.19067">
        <ele>6.238285</ele>
        <time>2020-08-29T07:30:37.016Z</time>
      </trkpt>
      <trkpt lat="63.01135" lon="18.19022">
        <ele>7.912897</ele>
        <time>2020-08-29T07:30:48.237Z</time>
      </trkpt>
      <trkpt lat="63.01111" lon="18.18985">
        <ele>9.268651</ele>
        <time>2020-08-29T07:30:57.474Z</time>
      </trkpt>
      <trkpt lat="63.01106" lon="18.19005">
        <ele>9.768481</ele>
        <time>2020-08-29T07:31:01.246Z</time>
      </trkpt>
      <trkpt lat="63.01096" lon="18.19037">
        <ele>10.608866</ele>
        <time>2020-08-29T07:31:07.425Z</time>
      </trkpt>
      <trkpt lat="63.01086" lon="18.19057">
        <ele>11.22891</ele>
        <time>2020-08-29T07:31:11.857Z</time>
      </trkpt>
      <trkpt lat="63.01066" lon="18.19068">
        <ele>12.200386</ele>
        <time>2020-08-29T07:31:19.110Z</time>
      </trkpt>
      <trkpt lat="63.0099" lon="18.19022">
        <ele>15.877927</ele>
        <time>2020-08-29T07:31:45.364Z</time>
      </trkpt>
      <trkpt lat="63.00979" lon="18.19024">
        <ele>16.422346</ele>
        <time>2020-08-29T07:31:49.673Z</time>
      </trkpt>
      <trkpt lat="63.00962" lon="18.19028">
        <ele>17.200793</ele>
        <time>2020-08-29T07:31:55.223Z</time>
      </trkpt>
      <trkpt lat="63.00944" lon="18.19041">
        <ele>18.07905</ele>
        <time>2020-08-29T07:32:01.408Z</time>
      </trkpt>
      <trkpt lat="63.00919" lon="18.19061">
        <ele>19.355336</ele>
        <time>2020-08-29T07:32:09.571Z</time>
      </trkpt>
      <trkpt lat="63.00892" lon="18.19086">
        <ele>20.712324</ele>
        <time>2020-08-29T07:32:18.885Z</time>
      </trkpt>
      <trkpt lat="63.00878" lon="18.19099">
        <ele>21.427502</ele>
        <time>2020-08-29T07:32:24.134Z</time>
      </trkpt>
      <trkpt lat="63.00858" lon="18.19121">
        <ele>22.468739</ele>
        <time>2020-08-29T07:32:31.457Z</time>
      </trkpt>
      <trkpt lat="63.00848" lon="18.1913">
        <ele>22.969697</ele>
        <time>2020-08-29T07:32:35.105Z</time>
      </trkpt>
      <trkpt lat="63.00838" lon="18.19144">
        <ele>23.468598</ele>
        <time>2020-08-29T07:32:39.234Z</time>
      </trkpt>
      <trkpt lat="63.00819" lon="18.19174">
        <ele>24.462029</ele>
        <time>2020-08-29T07:32:46.556Z</time>
      </trkpt>
      <trkpt lat="63.00802" lon="18.192">
        <ele>25.326506</ele>
        <time>2020-08-29T07:32:53.344Z</time>
      </trkpt>
      <trkpt lat="63.00755" lon="18.19294">
        <ele>27.987812</ele>
        <time>2020-08-29T07:33:12.692Z</time>
      </trkpt>
      <trkpt lat="63.00759" lon="18.1931">
        <ele>28.336989</ele>
        <time>2020-08-29T07:33:15.672Z</time>
      </trkpt>
      <trkpt lat="63.00735" lon="18.19409">
        <ele>30.461148</ele>
        <time>2020-08-29T07:33:31.113Z</time>
      </trkpt>
      <trkpt lat="63.00707" lon="18.19706">
        <ele>35.858931</ele>
        <time>2020-08-29T07:34:14.648Z</time>
      </trkpt>
      <trkpt lat="63.00688" lon="18.19775">
        <ele>37.31483</ele>
        <time>2020-08-29T07:34:25.849Z</time>
      </trkpt>
      <trkpt lat="63.00677" lon="18.19803">
        <ele>37.88971</ele>
        <time>2020-08-29T07:34:30.857Z</time>
      </trkpt>
      <trkpt lat="63.00673" lon="18.19839">
        <ele>38.434685</ele>
        <time>2020-08-29T07:34:35.920Z</time>
      </trkpt>
      <trkpt lat="63.00613" lon="18.1994">
        <ele>40.861421</ele>
        <time>2020-08-29T07:34:58.190Z</time>
      </trkpt>
      <trkpt lat="63.00542" lon="18.20159">
        <ele>44.037908</ele>
        <time>2020-08-29T07:35:32.111Z</time>
      </trkpt>
      <trkpt lat="63.00515" lon="18.20224">
        <ele>44.631919</ele>
        <time>2020-08-29T07:35:41.987Z</time>
      </trkpt>
      <trkpt lat="63.00495" lon="18.20252">
        <ele>44.990137</ele>
        <time>2020-08-29T07:35:47.681Z</time>
      </trkpt>
      <trkpt lat="63.00486" lon="18.20253">
        <ele>45.122019</ele>
        <time>2020-08-29T07:35:49.694Z</time>
      </trkpt>
      <trkpt lat="63.00467" lon="18.20249">
        <ele>45.405668</ele>
        <time>2020-08-29T07:35:53.912Z</time>
      </trkpt>
      <trkpt lat="63.00466" lon="18.20304">
        <ele>45.777845</ele>
        <time>2020-08-29T07:35:58.973Z</time>
      </trkpt>
      <trkpt lat="63.00444" lon="18.20507">
        <ele>44.610649</ele>
        <time>2020-08-29T07:36:15.034Z</time>
      </trkpt>
      <trkpt lat="63.00369" lon="18.20825">
        <ele>40.153199</ele>
        <time>2020-08-29T07:36:36.278Z</time>
      </trkpt>
      <trkpt lat="63.00337" lon="18.20935">
        <ele>37.653123</ele>
        <time>2020-08-29T07:36:43.576Z</time>
      </trkpt>
      <trkpt lat="63.00332" lon="18.20952">
        <ele>37.26249</ele>
        <time>2020-08-29T07:36:44.645Z</time>
      </trkpt>
      <trkpt lat="63.00294" lon="18.21072">
        <ele>34.459815</ele>
        <time>2020-08-29T07:36:52.708Z</time>
      </trkpt>
      <trkpt lat="62.99927" lon="18.22065">
        <ele>11.717897</ele>
        <time>2020-08-29T07:38:05.607Z</time>
      </trkpt>
      <trkpt lat="62.99888" lon="18.22182">
        <ele>10.686263</ele>
        <time>2020-08-29T07:38:15.518Z</time>
      </trkpt>
      <trkpt lat="62.99829" lon="18.22436">
        <ele>10.964605</ele>
        <time>2020-08-29T07:38:41.567Z</time>
      </trkpt>
      <trkpt lat="62.99806" lon="18.22562">
        <ele>11.989069</ele>
        <time>2020-08-29T07:38:56.655Z</time>
      </trkpt>
      <trkpt lat="62.99793" lon="18.22671">
        <ele>12.901417</ele>
        <time>2020-08-29T07:39:09.828Z</time>
      </trkpt>
      <trkpt lat="62.99785" lon="18.22767">
        <ele>14.217774</ele>
        <time>2020-08-29T07:39:21.563Z</time>
      </trkpt>
      <trkpt lat="62.9977" lon="18.23191">
        <ele>20.07755</ele>
        <time>2020-08-29T07:40:15.632Z</time>
      </trkpt>
      <trkpt lat="62.99767" lon="18.23268">
        <ele>21.169642</ele>
        <time>2020-08-29T07:40:25.285Z</time>
      </trkpt>
      <trkpt lat="62.99752" lon="18.23375">
        <ele>22.753917</ele>
        <time>2020-08-29T07:40:39.310Z</time>
      </trkpt>
      <trkpt lat="62.99713" lon="18.2357">
        <ele>25.967539</ele>
        <time>2020-08-29T07:41:06.622Z</time>
      </trkpt>
      <trkpt lat="62.99686" lon="18.23671">
        <ele>27.80036</ele>
        <time>2020-08-29T07:41:21.772Z</time>
      </trkpt>
      <trkpt lat="62.99556" lon="18.24008">
        <ele>35.019901</ele>
        <time>2020-08-29T07:42:21.597Z</time>
      </trkpt>
      <trkpt lat="62.99517" lon="18.24167">
        <ele>37.937716</ele>
        <time>2020-08-29T07:42:45.578Z</time>
      </trkpt>
      <trkpt lat="62.99495" lon="18.24309">
        <ele>40.286292</ele>
        <time>2020-08-29T07:43:05.046Z</time>
      </trkpt>
      <trkpt lat="62.99464" lon="18.24643">
        <ele>45.840229</ele>
        <time>2020-08-29T07:43:49.740Z</time>
      </trkpt>
      <trkpt lat="62.99455" lon="18.24708">
        <ele>46.986251</ele>
        <time>2020-08-29T07:43:59.050Z</time>
      </trkpt>
      <trkpt lat="62.9943" lon="18.24829">
        <ele>49.221806</ele>
        <time>2020-08-29T07:44:17.503Z</time>
      </trkpt>
      <trkpt lat="62.99405" lon="18.2491">
        <ele>50.791921</ele>
        <time>2020-08-29T07:44:31.056Z</time>
      </trkpt>
      <trkpt lat="62.99347" lon="18.25048">
        <ele>53.852085</ele>
        <time>2020-08-29T07:44:57.162Z</time>
      </trkpt>
      <trkpt lat="62.99275" lon="18.25186">
        <ele>56.400598</ele>
        <time>2020-08-29T07:45:23.109Z</time>
      </trkpt>
      <trkpt lat="62.99196" lon="18.25304">
        <ele>57.871464</ele>
        <time>2020-08-29T07:45:44.866Z</time>
      </trkpt>
      <trkpt lat="62.991" lon="18.25422">
        <ele>58.308481</ele>
        <time>2020-08-29T07:46:04.827Z</time>
      </trkpt>
      <trkpt lat="62.99001" lon="18.25523">
        <ele>57.932609</ele>
        <time>2020-08-29T07:46:22.271Z</time>
      </trkpt>
      <trkpt lat="62.98684" lon="18.25787">
        <ele>56.740773</ele>
        <time>2020-08-29T07:47:17.783Z</time>
      </trkpt>
      <trkpt lat="62.98585" lon="18.25854">
        <ele>60.04771</ele>
        <time>2020-08-29T07:47:41.163Z</time>
      </trkpt>
      <trkpt lat="62.98502" lon="18.25899">
        <ele>63.70575</ele>
        <time>2020-08-29T07:48:12.019Z</time>
      </trkpt>
      <trkpt lat="62.98468" lon="18.25912">
        <ele>66.472346</ele>
        <time>2020-08-29T07:48:27.174Z</time>
      </trkpt>
      <trkpt lat="62.98406" lon="18.25937">
        <ele>73.369357</ele>
        <time>2020-08-29T07:48:58.205Z</time>
      </trkpt>
      <trkpt lat="62.98284" lon="18.25964">
        <ele>87.288449</ele>
        <time>2020-08-29T07:50:11.970Z</time>
      </trkpt>
      <trkpt lat="62.98039" lon="18.25966">
        <ele>112.01127</ele>
        <time>2020-08-29T07:52:30.662Z</time>
      </trkpt>
      <trkpt lat="62.97894" lon="18.25952">
        <ele>113.764853</ele>
        <time>2020-08-29T07:53:01.027Z</time>
      </trkpt>
      <trkpt lat="62.97647" lon="18.259">
        <ele>90.720495</ele>
        <time>2020-08-29T07:53:27.739Z</time>
      </trkpt>
      <trkpt lat="62.9759" lon="18.25866">
        <ele>84.035048</ele>
        <time>2020-08-29T07:53:34.059Z</time>
      </trkpt>
      <trkpt lat="62.9754" lon="18.25812">
        <ele>79.037373</ele>
        <time>2020-08-29T07:53:40.070Z</time>
      </trkpt>
      <trkpt lat="62.97491" lon="18.25746">
        <ele>73.880078</ele>
        <time>2020-08-29T07:53:46.395Z</time>
      </trkpt>
      <trkpt lat="62.97419" lon="18.25625">
        <ele>66.506566</ele>
        <time>2020-08-29T07:53:56.786Z</time>
      </trkpt>
      <trkpt lat="62.9737" lon="18.25561">
        <ele>63.105973</ele>
        <time>2020-08-29T07:54:03.525Z</time>
      </trkpt>
      <trkpt lat="62.97283" lon="18.25485">
        <ele>57.514977</ele>
        <time>2020-08-29T07:54:14.648Z</time>
      </trkpt>
      <trkpt lat="62.97206" lon="18.25454">
        <ele>53.793305</ele>
        <time>2020-08-29T07:54:24.026Z</time>
      </trkpt>
      <trkpt lat="62.9717" lon="18.25454">
        <ele>52.0584</ele>
        <time>2020-08-29T07:54:28.516Z</time>
      </trkpt>
      <trkpt lat="62.96966" lon="18.25503">
        <ele>43.578873</ele>
        <time>2020-08-29T07:54:54.418Z</time>
      </trkpt>
      <trkpt lat="62.96899" lon="18.25517">
        <ele>41.150921</ele>
        <time>2020-08-29T07:55:03.002Z</time>
      </trkpt>
      <trkpt lat="62.96816" lon="18.25529">
        <ele>38.510037</ele>
        <time>2020-08-29T07:55:13.616Z</time>
      </trkpt>
      <trkpt lat="62.96613" lon="18.2554">
        <ele>33.948188</ele>
        <time>2020-08-29T07:55:41.321Z</time>
      </trkpt>
      <trkpt lat="62.96514" lon="18.2551">
        <ele>33.543898</ele>
        <time>2020-08-29T07:55:59.291Z</time>
      </trkpt>
      <trkpt lat="62.96479" lon="18.25512">
        <ele>33.852491</ele>
        <time>2020-08-29T07:56:06.599Z</time>
      </trkpt>
      <trkpt lat="62.96422" lon="18.25533">
        <ele>34.359956</ele>
        <time>2020-08-29T07:56:19.544Z</time>
      </trkpt>
      <trkpt lat="62.96383" lon="18.2556">
        <ele>34.737695</ele>
        <time>2020-08-29T07:56:29.046Z</time>
      </trkpt>
      <trkpt lat="62.96118" lon="18.25828">
        <ele>38.036436</ele>
        <time>2020-08-29T07:57:32.668Z</time>
      </trkpt>
      <trkpt lat="62.96108" lon="18.25835">
        <ele>38.132513</ele>
        <time>2020-08-29T07:57:34.771Z</time>
      </trkpt>
      <trkpt lat="62.96048" lon="18.25879">
        <ele>38.549256</ele>
        <time>2020-08-29T07:57:46.810Z</time>
      </trkpt>
      <trkpt lat="62.95969" lon="18.25928">
        <ele>37.920996</ele>
        <time>2020-08-29T07:58:01.319Z</time>
      </trkpt>
      <trkpt lat="62.95951" lon="18.2593">
        <ele>37.78098</ele>
        <time>2020-08-29T07:58:04.188Z</time>
      </trkpt>
      <trkpt lat="62.95916" lon="18.25943">
        <ele>37.513786</ele>
        <time>2020-08-29T07:58:09.423Z</time>
      </trkpt>
      <trkpt lat="62.95879" lon="18.25944">
        <ele>37.180501</ele>
        <time>2020-08-29T07:58:14.694Z</time>
      </trkpt>
      <trkpt lat="62.95834" lon="18.25943">
        <ele>35.692074</ele>
        <time>2020-08-29T07:58:20.988Z</time>
      </trkpt>
      <trkpt lat="62.95728" lon="18.25945">
        <ele>32.256139</ele>
        <time>2020-08-29T07:58:34.586Z</time>
      </trkpt>
      <trkpt lat="62.95623" lon="18.2587">
        <ele>28.287638</ele>
        <time>2020-08-29T07:58:48.265Z</time>
      </trkpt>
      <trkpt lat="62.95584" lon="18.2579">
        <ele>26.32887</ele>
        <time>2020-08-29T07:58:55.068Z</time>
      </trkpt>
      <trkpt lat="62.95564" lon="18.25723">
        <ele>24.984252</ele>
        <time>2020-08-29T07:58:59.909Z</time>
      </trkpt>
      <trkpt lat="62.95546" lon="18.25614">
        <ele>24.31142</ele>
        <time>2020-08-29T07:59:07.231Z</time>
      </trkpt>
      <trkpt lat="62.95543" lon="18.25533">
        <ele>23.948006</ele>
        <time>2020-08-29T07:59:12.727Z</time>
      </trkpt>
      <trkpt lat="62.95545" lon="18.25247">
        <ele>23.283205</ele>
        <time>2020-08-29T07:59:35.766Z</time>
      </trkpt>
      <trkpt lat="62.95541" lon="18.25138">
        <ele>23.689966</ele>
        <time>2020-08-29T07:59:45.881Z</time>
      </trkpt>
      <trkpt lat="62.95506" lon="18.24696">
        <ele>25.826501</ele>
        <time>2020-08-29T08:00:30.107Z</time>
      </trkpt>
      <trkpt lat="62.95499" lon="18.24653">
        <ele>26.083072</ele>
        <time>2020-08-29T08:00:34.614Z</time>
      </trkpt>
      <trkpt lat="62.95477" lon="18.24569">
        <ele>26.642766</ele>
        <time>2020-08-29T08:00:44.407Z</time>
      </trkpt>
      <trkpt lat="62.9546" lon="18.24531">
        <ele>27.043401</ele>
        <time>2020-08-29T08:00:49.806Z</time>
      </trkpt>
      <trkpt lat="62.95426" lon="18.24488">
        <ele>27.749399</ele>
        <time>2020-08-29T08:00:58.598Z</time>
      </trkpt>
      <trkpt lat="62.95403" lon="18.24475">
        <ele>28.193881</ele>
        <time>2020-08-29T08:01:04.216Z</time>
      </trkpt>
      <trkpt lat="62.9537" lon="18.24468">
        <ele>28.790228</ele>
        <time>2020-08-29T08:01:11.924Z</time>
      </trkpt>
      <trkpt lat="62.95349" lon="18.24476">
        <ele>29.18709</ele>
        <time>2020-08-29T08:01:17.081Z</time>
      </trkpt>
      <trkpt lat="62.9519" lon="18.24594">
        <ele>32.974831</ele>
        <time>2020-08-29T08:01:59.586Z</time>
      </trkpt>
      <trkpt lat="62.95111" lon="18.24624">
        <ele>34.748559</ele>
        <time>2020-08-29T08:02:20.705Z</time>
      </trkpt>
      <trkpt lat="62.9509" lon="18.24646">
        <ele>35.133394</ele>
        <time>2020-08-29T08:02:26.727Z</time>
      </trkpt>
      <trkpt lat="62.95065" lon="18.24679">
        <ele>35.600808</ele>
        <time>2020-08-29T08:02:33.802Z</time>
      </trkpt>
      <trkpt lat="62.95049" lon="18.24722">
        <ele>36.013849</ele>
        <time>2020-08-29T08:02:39.765Z</time>
      </trkpt>
      <trkpt lat="62.95012" lon="18.24884">
        <ele>37.307999</ele>
        <time>2020-08-29T08:02:57.306Z</time>
      </trkpt>
      <trkpt lat="62.9498" lon="18.24971">
        <ele>37.32213</ele>
        <time>2020-08-29T08:03:07.073Z</time>
      </trkpt>
      <trkpt lat="62.94956" lon="18.25012">
        <ele>37.330529</ele>
        <time>2020-08-29T08:03:12.550Z</time>
      </trkpt>
      <trkpt lat="62.94895" lon="18.25068">
        <ele>37.348702</ele>
        <time>2020-08-29T08:03:23.855Z</time>
      </trkpt>
      <trkpt lat="62.94715" lon="18.25167">
        <ele>36.030459</ele>
        <time>2020-08-29T08:03:54.022Z</time>
      </trkpt>
      <trkpt lat="62.94594" lon="18.25207">
        <ele>32.977462</ele>
        <time>2020-08-29T08:04:11.389Z</time>
      </trkpt>
      <trkpt lat="62.94534" lon="18.25218">
        <ele>31.224363</ele>
        <time>2020-08-29T08:04:18.929Z</time>
      </trkpt>
      <trkpt lat="62.94441" lon="18.25202">
        <ele>27.613637</ele>
        <time>2020-08-29T08:04:30.328Z</time>
      </trkpt>
      <trkpt lat="62.94422" lon="18.25211">
        <ele>26.803004</ele>
        <time>2020-08-29T08:04:32.680Z</time>
      </trkpt>
      <trkpt lat="62.94416" lon="18.25182">
        <ele>26.200324</ele>
        <time>2020-08-29T08:04:34.498Z</time>
      </trkpt>
      <trkpt lat="62.94407" lon="18.25155">
        <ele>25.561603</ele>
        <time>2020-08-29T08:04:36.416Z</time>
      </trkpt>
      <trkpt lat="62.94395" lon="18.25133">
        <ele>24.915472</ele>
        <time>2020-08-29T08:04:38.348Z</time>
      </trkpt>
      <trkpt lat="62.94375" lon="18.25107">
        <ele>23.930763</ele>
        <time>2020-08-29T08:04:41.339Z</time>
      </trkpt>
      <trkpt lat="62.94325" lon="18.25015">
        <ele>22.406257</ele>
        <time>2020-08-29T08:04:49.813Z</time>
      </trkpt>
      <trkpt lat="62.942" lon="18.24711">
        <ele>20.158508</ele>
        <time>2020-08-29T08:05:19.346Z</time>
      </trkpt>
      <trkpt lat="62.94168" lon="18.24646">
        <ele>20.005173</ele>
        <time>2020-08-29T08:05:26.973Z</time>
      </trkpt>
      <trkpt lat="62.94132" lon="18.24598">
        <ele>19.858667</ele>
        <time>2020-08-29T08:05:34.253Z</time>
      </trkpt>
      <trkpt lat="62.93981" lon="18.24453">
        <ele>19.659923</ele>
        <time>2020-08-29T08:06:02.834Z</time>
      </trkpt>
      <trkpt lat="62.93941" lon="18.24376">
        <ele>19.637579</ele>
        <time>2020-08-29T08:06:12.297Z</time>
      </trkpt>
      <trkpt lat="62.93882" lon="18.24211">
        <ele>20.329297</ele>
        <time>2020-08-29T08:06:30.759Z</time>
      </trkpt>
      <trkpt lat="62.93862" lon="18.24152">
        <ele>20.586687</ele>
        <time>2020-08-29T08:06:37.996Z</time>
      </trkpt>
      <trkpt lat="62.93801" lon="18.23969">
        <ele>21.626299</ele>
        <time>2020-08-29T08:07:00.356Z</time>
      </trkpt>
      <trkpt lat="62.93776" lon="18.239">
        <ele>22.143166</ele>
        <time>2020-08-29T08:07:09.174Z</time>
      </trkpt>
      <trkpt lat="62.93767" lon="18.23878">
        <ele>22.311488</ele>
        <time>2020-08-29T08:07:12.124Z</time>
      </trkpt>
      <trkpt lat="62.9373" lon="18.238">
        <ele>22.975229</ele>
        <time>2020-08-29T08:07:23.572Z</time>
      </trkpt>
      <trkpt lat="62.93676" lon="18.23716">
        <ele>24.154766</ele>
        <time>2020-08-29T08:07:38.112Z</time>
      </trkpt>
      <trkpt lat="62.93652" lon="18.23676">
        <ele>24.797384</ele>
        <time>2020-08-29T08:07:44.650Z</time>
      </trkpt>
      <trkpt lat="62.93614" lon="18.23591">
        <ele>25.964916</ele>
        <time>2020-08-29T08:07:57.435Z</time>
      </trkpt>
      <trkpt lat="62.93562" lon="18.23456">
        <ele>28.270982</ele>
        <time>2020-08-29T08:08:19.933Z</time>
      </trkpt>
      <trkpt lat="62.93544" lon="18.23412">
        <ele>29.505687</ele>
        <time>2020-08-29T08:08:28.173Z</time>
      </trkpt>
      <trkpt lat="62.93516" lon="18.23342">
        <ele>31.464388</ele>
        <time>2020-08-29T08:08:43.074Z</time>
      </trkpt>
      <trkpt lat="62.93483" lon="18.23247">
        <ele>33.948788</ele>
        <time>2020-08-29T08:09:00.898Z</time>
      </trkpt>
      <trkpt lat="62.93479" lon="18.2323">
        <ele>34.357116</ele>
        <time>2020-08-29T08:09:04.148Z</time>
      </trkpt>
      <trkpt lat="62.93474" lon="18.23212">
        <ele>34.79765</ele>
        <time>2020-08-29T08:09:08.296Z</time>
      </trkpt>
      <trkpt lat="62.93462" lon="18.2314">
        <ele>36.152056</ele>
        <time>2020-08-29T08:09:20.408Z</time>
      </trkpt>
      <trkpt lat="62.93465" lon="18.23029">
        <ele>37.885615</ele>
        <time>2020-08-29T08:09:36.727Z</time>
      </trkpt>
      <trkpt lat="62.93531" lon="18.22686">
        <ele>41.731552</ele>
        <time>2020-08-29T08:10:20.225Z</time>
      </trkpt>
      <trkpt lat="62.93536" lon="18.22642">
        <ele>41.767169</ele>
        <time>2020-08-29T08:10:23.752Z</time>
      </trkpt>
      <trkpt lat="62.93537" lon="18.22548">
        <ele>41.840887</ele>
        <time>2020-08-29T08:10:30.724Z</time>
      </trkpt>
      <trkpt lat="62.93525" lon="18.22376">
        <ele>41.581331</ele>
        <time>2020-08-29T08:10:42.500Z</time>
      </trkpt>
      <trkpt lat="62.93516" lon="18.22313">
        <ele>41.13005</ele>
        <time>2020-08-29T08:10:46.682Z</time>
      </trkpt>
      <trkpt lat="62.93463" lon="18.22104">
        <ele>39.482497</ele>
        <time>2020-08-29T08:11:02.451Z</time>
      </trkpt>
      <trkpt lat="62.93456" lon="18.22082">
        <ele>39.291424</ele>
        <time>2020-08-29T08:11:04.203Z</time>
      </trkpt>
      <trkpt lat="62.93438" lon="18.22031">
        <ele>39.093529</ele>
        <time>2020-08-29T08:11:09.029Z</time>
      </trkpt>
      <trkpt lat="62.93389" lon="18.21928">
        <ele>38.746362</ele>
        <time>2020-08-29T08:11:20.442Z</time>
      </trkpt>
      <trkpt lat="62.93306" lon="18.21808">
        <ele>38.19265</ele>
        <time>2020-08-29T08:11:37.642Z</time>
      </trkpt>
      <trkpt lat="62.92865" lon="18.21311">
        <ele>34.04928</ele>
        <time>2020-08-29T08:12:54.842Z</time>
      </trkpt>
      <trkpt lat="62.92786" lon="18.21249">
        <ele>34.439274</ele>
        <time>2020-08-29T08:13:09.377Z</time>
      </trkpt>
      <trkpt lat="62.92591" lon="18.21185">
        <ele>39.03256</ele>
        <time>2020-08-29T08:13:55.915Z</time>
      </trkpt>
      <trkpt lat="62.92556" lon="18.21153">
        <ele>40.744586</ele>
        <time>2020-08-29T08:14:08.736Z</time>
      </trkpt>
      <trkpt lat="62.92533" lon="18.21119">
        <ele>41.973056</ele>
        <time>2020-08-29T08:14:18.757Z</time>
      </trkpt>
      <trkpt lat="62.92508" lon="18.21068">
        <ele>43.491159</ele>
        <time>2020-08-29T08:14:32.092Z</time>
      </trkpt>
      <trkpt lat="62.92487" lon="18.21004">
        <ele>45.789415</ele>
        <time>2020-08-29T08:14:47.275Z</time>
      </trkpt>
      <trkpt lat="62.9243" lon="18.20685">
        <ele>57.240325</ele>
        <time>2020-08-29T08:15:54.420Z</time>
      </trkpt>
      <trkpt lat="62.92389" lon="18.20546">
        <ele>59.833639</ele>
        <time>2020-08-29T08:16:20.164Z</time>
      </trkpt>
      <trkpt lat="62.9234" lon="18.20439">
        <ele>62.225786</ele>
        <time>2020-08-29T08:16:38.719Z</time>
      </trkpt>
      <trkpt lat="62.92218" lon="18.20268">
        <ele>63.374433</ele>
        <time>2020-08-29T08:17:05.180Z</time>
      </trkpt>
      <trkpt lat="62.92181" lon="18.20197">
        <ele>63.350093</ele>
        <time>2020-08-29T08:17:13.007Z</time>
      </trkpt>
      <trkpt lat="62.92141" lon="18.20088">
        <ele>63.264217</ele>
        <time>2020-08-29T08:17:23.321Z</time>
      </trkpt>
      <trkpt lat="62.9213" lon="18.20028">
        <ele>63.212352</ele>
        <time>2020-08-29T08:17:28.012Z</time>
      </trkpt>
      <trkpt lat="62.92124" lon="18.19958">
        <ele>63.155459</ele>
        <time>2020-08-29T08:17:33.432Z</time>
      </trkpt>
      <trkpt lat="62.92121" lon="18.19829">
        <ele>63.052332</ele>
        <time>2020-08-29T08:17:43.971Z</time>
      </trkpt>
      <trkpt lat="62.92125" lon="18.19731">
        <ele>63.552966</ele>
        <time>2020-08-29T08:17:53.086Z</time>
      </trkpt>
      <trkpt lat="62.92128" lon="18.19696">
        <ele>63.854051</ele>
        <time>2020-08-29T08:17:56.279Z</time>
      </trkpt>
      <trkpt lat="62.92132" lon="18.1966">
        <ele>64.172125</ele>
        <time>2020-08-29T08:18:00.301Z</time>
      </trkpt>
      <trkpt lat="62.92159" lon="18.19508">
        <ele>65.558287</ele>
        <time>2020-08-29T08:18:18.123Z</time>
      </trkpt>
      <trkpt lat="62.9225" lon="18.19092">
        <ele>71.398549</ele>
        <time>2020-08-29T08:19:17.113Z</time>
      </trkpt>
      <trkpt lat="62.92331" lon="18.18562">
        <ele>77.146537</ele>
        <time>2020-08-29T08:20:22.420Z</time>
      </trkpt>
      <trkpt lat="62.92346" lon="18.18432">
        <ele>78.007891</ele>
        <time>2020-08-29T08:20:35.628Z</time>
      </trkpt>
      <trkpt lat="62.92344" lon="18.18297">
        <ele>78.832032</ele>
        <time>2020-08-29T08:20:47.944Z</time>
      </trkpt>
      <trkpt lat="62.92328" lon="18.18188">
        <ele>78.897948</ele>
        <time>2020-08-29T08:20:57.627Z</time>
      </trkpt>
      <trkpt lat="62.92304" lon="18.18102">
        <ele>78.956862</ele>
        <time>2020-08-29T08:21:05.997Z</time>
      </trkpt>
      <trkpt lat="62.92236" lon="18.17922">
        <ele>79.244597</ele>
        <time>2020-08-29T08:21:24.530Z</time>
      </trkpt>
      <trkpt lat="62.92217" lon="18.17818">
        <ele>79.595527</ele>
        <time>2020-08-29T08:21:33.891Z</time>
      </trkpt>
      <trkpt lat="62.92214" lon="18.17778">
        <ele>79.720423</ele>
        <time>2020-08-29T08:21:37.345Z</time>
      </trkpt>
      <trkpt lat="62.92176" lon="18.17783">
        <ele>79.978566</ele>
        <time>2020-08-29T08:21:44.866Z</time>
      </trkpt>
      <trkpt lat="62.92124" lon="18.17776">
        <ele>80.581018</ele>
        <time>2020-08-29T08:21:56.495Z</time>
      </trkpt>
      <trkpt lat="62.9206" lon="18.17721">
        <ele>83.282289</ele>
        <time>2020-08-29T08:22:14.589Z</time>
      </trkpt>
      <trkpt lat="62.92024" lon="18.17669">
        <ele>84.997027</ele>
        <time>2020-08-29T08:22:28.150Z</time>
      </trkpt>
      <trkpt lat="62.91991" lon="18.17597">
        <ele>86.824267</ele>
        <time>2020-08-29T08:22:44.289Z</time>
      </trkpt>
      <trkpt lat="62.91921" lon="18.1731">
        <ele>95.909309</ele>
        <time>2020-08-29T08:23:42.376Z</time>
      </trkpt>
      <trkpt lat="62.91897" lon="18.17089">
        <ele>101.775569</ele>
        <time>2020-08-29T08:24:21.062Z</time>
      </trkpt>
      <trkpt lat="62.91873" lon="18.16953">
        <ele>105.197948</ele>
        <time>2020-08-29T08:24:43.434Z</time>
      </trkpt>
      <trkpt lat="62.91841" lon="18.16844">
        <ele>108.219688</ele>
        <time>2020-08-29T08:25:02.240Z</time>
      </trkpt>
      <trkpt lat="62.91811" lon="18.16784">
        <ele>110.194167</ele>
        <time>2020-08-29T08:25:14.981Z</time>
      </trkpt>
      <trkpt lat="62.91761" lon="18.16704">
        <ele>113.231699</ele>
        <time>2020-08-29T08:25:35.163Z</time>
      </trkpt>
      <trkpt lat="62.91708" lon="18.16645">
        <ele>116.172696</ele>
        <time>2020-08-29T08:25:55.855Z</time>
      </trkpt>
      <trkpt lat="62.91641" lon="18.1662">
        <ele>119.898608</ele>
        <time>2020-08-29T08:26:20.429Z</time>
      </trkpt>
      <trkpt lat="62.91396" lon="18.16702">
        <ele>132.687445</ele>
        <time>2020-08-29T08:27:50.233Z</time>
      </trkpt>
      <trkpt lat="62.91374" lon="18.16706">
        <ele>133.712713</ele>
        <time>2020-08-29T08:27:56.812Z</time>
      </trkpt>
      <trkpt lat="62.91333" lon="18.16697">
        <ele>135.333308</ele>
        <time>2020-08-29T08:28:07.834Z</time>
      </trkpt>
      <trkpt lat="62.91297" lon="18.16676">
        <ele>135.058435</ele>
        <time>2020-08-29T08:28:15.662Z</time>
      </trkpt>
      <trkpt lat="62.91268" lon="18.16646">
        <ele>134.815138</ele>
        <time>2020-08-29T08:28:21.365Z</time>
      </trkpt>
      <trkpt lat="62.91233" lon="18.16578">
        <ele>134.469829</ele>
        <time>2020-08-29T08:28:28.415Z</time>
      </trkpt>
      <trkpt lat="62.91212" lon="18.16514">
        <ele>134.205241</ele>
        <time>2020-08-29T08:28:33.348Z</time>
      </trkpt>
      <trkpt lat="62.91208" lon="18.16498">
        <ele>134.144635</ele>
        <time>2020-08-29T08:28:34.383Z</time>
      </trkpt>
      <trkpt lat="62.91197" lon="18.16456">
        <ele>133.753762</ele>
        <time>2020-08-29T08:28:37.341Z</time>
      </trkpt>
      <trkpt lat="62.91157" lon="18.16346">
        <ele>131.146832</ele>
        <time>2020-08-29T08:28:45.566Z</time>
      </trkpt>
      <trkpt lat="62.91135" lon="18.16308">
        <ele>130.022386</ele>
        <time>2020-08-29T08:28:49.022Z</time>
      </trkpt>
      <trkpt lat="62.90885" lon="18.16001">
        <ele>117.379674</ele>
        <time>2020-08-29T08:29:24.285Z</time>
      </trkpt>
      <trkpt lat="62.90821" lon="18.15893">
        <ele>113.419427</ele>
        <time>2020-08-29T08:29:34.224Z</time>
      </trkpt>
      <trkpt lat="62.90792" lon="18.15818">
        <ele>111.222072</ele>
        <time>2020-08-29T08:29:39.666Z</time>
      </trkpt>
      <trkpt lat="62.90761" lon="18.15692">
        <ele>107.564314</ele>
        <time>2020-08-29T08:29:47.469Z</time>
      </trkpt>
      <trkpt lat="62.90709" lon="18.15305">
        <ele>95.669877</ele>
        <time>2020-08-29T08:30:08.920Z</time>
      </trkpt>
      <trkpt lat="62.9068" lon="18.15161">
        <ele>90.454659</ele>
        <time>2020-08-29T08:30:17.010Z</time>
      </trkpt>
      <trkpt lat="62.90633" lon="18.15022">
        <ele>84.651696</ele>
        <time>2020-08-29T08:30:25.981Z</time>
      </trkpt>
      <trkpt lat="62.90525" lon="18.14815">
        <ele>74.430688</ele>
        <time>2020-08-29T08:30:42.311Z</time>
      </trkpt>
      <trkpt lat="62.905" lon="18.14742">
        <ele>71.748933</ele>
        <time>2020-08-29T08:30:47.165Z</time>
      </trkpt>
      <trkpt lat="62.90481" lon="18.14618">
        <ele>68.561501</ele>
        <time>2020-08-29T08:30:54.206Z</time>
      </trkpt>
      <trkpt lat="62.90478" lon="18.14551">
        <ele>66.889425</ele>
        <time>2020-08-29T08:30:57.966Z</time>
      </trkpt>
      <trkpt lat="62.9048" lon="18.14395">
        <ele>63.076824</ele>
        <time>2020-08-29T08:31:06.649Z</time>
      </trkpt>
      <trkpt lat="62.90468" lon="18.14256">
        <ele>59.717561</ele>
        <time>2020-08-29T08:31:14.514Z</time>
      </trkpt>
      <trkpt lat="62.90446" lon="18.14154">
        <ele>57.032915</ele>
        <time>2020-08-29T08:31:20.748Z</time>
      </trkpt>
      <trkpt lat="62.90418" lon="18.14073">
        <ele>54.64483</ele>
        <time>2020-08-29T08:31:26.241Z</time>
      </trkpt>
      <trkpt lat="62.90396" lon="18.14024">
        <ele>52.912973</ele>
        <time>2020-08-29T08:31:30.000Z</time>
      </trkpt>
      <trkpt lat="62.90368" lon="18.13983">
        <ele>50.91753</ele>
        <time>2020-08-29T08:31:33.933Z</time>
      </trkpt>
      <trkpt lat="62.90306" lon="18.13931">
        <ele>46.935083</ele>
        <time>2020-08-29T08:31:41.672Z</time>
      </trkpt>
      <trkpt lat="62.90233" lon="18.13926">
        <ele>42.685181</ele>
        <time>2020-08-29T08:31:50.187Z</time>
      </trkpt>
      <trkpt lat="62.90198" lon="18.13943">
        <ele>41.582196</ele>
        <time>2020-08-29T08:31:54.591Z</time>
      </trkpt>
      <trkpt lat="62.90181" lon="18.13957">
        <ele>41.03092</ele>
        <time>2020-08-29T08:31:56.772Z</time>
      </trkpt>
      <trkpt lat="62.90138" lon="18.13996">
        <ele>39.645336</ele>
        <time>2020-08-29T08:32:02.585Z</time>
      </trkpt>
      <trkpt lat="62.8983" lon="18.14308">
        <ele>36.629557</ele>
        <time>2020-08-29T08:32:58.790Z</time>
      </trkpt>
      <trkpt lat="62.89657" lon="18.14439">
        <ele>36.275065</ele>
        <time>2020-08-29T08:33:35.590Z</time>
      </trkpt>
      <trkpt lat="62.89629" lon="18.14451">
        <ele>36.11006</ele>
        <time>2020-08-29T08:33:40.017Z</time>
      </trkpt>
      <trkpt lat="62.896" lon="18.14449">
        <ele>35.939596</ele>
        <time>2020-08-29T08:33:44.394Z</time>
      </trkpt>
      <trkpt lat="62.89583" lon="18.1444">
        <ele>35.835349</ele>
        <time>2020-08-29T08:33:46.982Z</time>
      </trkpt>
      <trkpt lat="62.89554" lon="18.14417">
        <ele>35.512549</ele>
        <time>2020-08-29T08:33:50.901Z</time>
      </trkpt>
      <trkpt lat="62.89502" lon="18.14366">
        <ele>34.542274</ele>
        <time>2020-08-29T08:33:58.794Z</time>
      </trkpt>
      <trkpt lat="62.89446" lon="18.14262">
        <ele>33.304329</ele>
        <time>2020-08-29T08:34:09.081Z</time>
      </trkpt>
      <trkpt lat="62.89435" lon="18.14241">
        <ele>33.06438</ele>
        <time>2020-08-29T08:34:10.965Z</time>
      </trkpt>
      <trkpt lat="62.89401" lon="18.14108">
        <ele>33.7562</ele>
        <time>2020-08-29T08:34:24.618Z</time>
      </trkpt>
      <trkpt lat="62.8938" lon="18.13966">
        <ele>35.251118</ele>
        <time>2020-08-29T08:34:41.886Z</time>
      </trkpt>
      <trkpt lat="62.89374" lon="18.13875">
        <ele>36.166635</ele>
        <time>2020-08-29T08:34:54.846Z</time>
      </trkpt>
      <trkpt lat="62.89376" lon="18.13812">
        <ele>36.820265</ele>
        <time>2020-08-29T08:35:03.853Z</time>
      </trkpt>
      <trkpt lat="62.89414" lon="18.13602">
        <ele>39.46913</ele>
        <time>2020-08-29T08:35:34.130Z</time>
      </trkpt>
      <trkpt lat="62.89435" lon="18.13539">
        <ele>40.365833</ele>
        <time>2020-08-29T08:35:42.565Z</time>
      </trkpt>
      <trkpt lat="62.8947" lon="18.13468">
        <ele>40.994599</ele>
        <time>2020-08-29T08:35:51.945Z</time>
      </trkpt>
      <trkpt lat="62.89478" lon="18.13436">
        <ele>40.653569</ele>
        <time>2020-08-29T08:35:54.848Z</time>
      </trkpt>
      <trkpt lat="62.89479" lon="18.13417">
        <ele>40.478814</ele>
        <time>2020-08-29T08:35:56.716Z</time>
      </trkpt>
      <trkpt lat="62.8948" lon="18.13394">
        <ele>40.26516</ele>
        <time>2020-08-29T08:35:58.196Z</time>
      </trkpt>
      <trkpt lat="62.89475" lon="18.13355">
        <ele>39.899378</ele>
        <time>2020-08-29T08:36:00.971Z</time>
      </trkpt>
      <trkpt lat="62.89461" lon="18.13306">
        <ele>39.366271</ele>
        <time>2020-08-29T08:36:04.694Z</time>
      </trkpt>
      <trkpt lat="62.89355" lon="18.13043">
        <ele>35.360886</ele>
        <time>2020-08-29T08:36:25.269Z</time>
      </trkpt>
      <trkpt lat="62.89327" lon="18.12939">
        <ele>33.670511</ele>
        <time>2020-08-29T08:36:32.343Z</time>
      </trkpt>
      <trkpt lat="62.89306" lon="18.12797">
        <ele>32.010154</ele>
        <time>2020-08-29T08:36:41.691Z</time>
      </trkpt>
      <trkpt lat="62.89292" lon="18.12581">
        <ele>31.43901</ele>
        <time>2020-08-29T08:36:57.222Z</time>
      </trkpt>
      <trkpt lat="62.89287" lon="18.12495">
        <ele>31.210812</ele>
        <time>2020-08-29T08:37:04.651Z</time>
      </trkpt>
      <trkpt lat="62.89287" lon="18.12488">
        <ele>31.191771</ele>
        <time>2020-08-29T08:37:05.361Z</time>
      </trkpt>
      <trkpt lat="62.8926" lon="18.12235">
        <ele>32.61456</ele>
        <time>2020-08-29T08:37:31.856Z</time>
      </trkpt>
      <trkpt lat="62.89217" lon="18.11988">
        <ele>34.266834</ele>
        <time>2020-08-29T08:38:01.039Z</time>
      </trkpt>
      <trkpt lat="62.89182" lon="18.11856">
        <ele>34.926283</ele>
        <time>2020-08-29T08:38:16.919Z</time>
      </trkpt>
      <trkpt lat="62.89119" lon="18.11669">
        <ele>34.965305</ele>
        <time>2020-08-29T08:38:35.597Z</time>
      </trkpt>
      <trkpt lat="62.89099" lon="18.11623">
        <ele>34.423556</ele>
        <time>2020-08-29T08:38:39.906Z</time>
      </trkpt>
      <trkpt lat="62.89056" lon="18.11549">
        <ele>33.398818</ele>
        <time>2020-08-29T08:38:47.898Z</time>
      </trkpt>
      <trkpt lat="62.89049" lon="18.11541">
        <ele>33.251695</ele>
        <time>2020-08-29T08:38:48.838Z</time>
      </trkpt>
      <trkpt lat="62.89034" lon="18.11522">
        <ele>32.931356</ele>
        <time>2020-08-29T08:38:51.261Z</time>
      </trkpt>
      <trkpt lat="62.89004" lon="18.11495">
        <ele>32.331161</ele>
        <time>2020-08-29T08:38:55.474Z</time>
      </trkpt>
      <trkpt lat="62.88985" lon="18.11482">
        <ele>31.616205</ele>
        <time>2020-08-29T08:38:58.039Z</time>
      </trkpt>
      <trkpt lat="62.88971" lon="18.11472">
        <ele>30.997466</ele>
        <time>2020-08-29T08:38:59.902Z</time>
      </trkpt>
      <trkpt lat="62.88736" lon="18.11374">
        <ele>20.948435</ele>
        <time>2020-08-29T08:39:29.612Z</time>
      </trkpt>
      <trkpt lat="62.88711" lon="18.11352">
        <ele>19.833117</ele>
        <time>2020-08-29T08:39:32.837Z</time>
      </trkpt>
      <trkpt lat="62.88691" lon="18.11326">
        <ele>18.824878</ele>
        <time>2020-08-29T08:39:35.780Z</time>
      </trkpt>
      <trkpt lat="62.88641" lon="18.11247">
        <ele>16.577514</ele>
        <time>2020-08-29T08:39:43.576Z</time>
      </trkpt>
      <trkpt lat="62.88591" lon="18.11121">
        <ele>14.605776</ele>
        <time>2020-08-29T08:39:53.546Z</time>
      </trkpt>
      <trkpt lat="62.88554" lon="18.1098">
        <ele>12.702093</ele>
        <time>2020-08-29T08:40:04.235Z</time>
      </trkpt>
      <trkpt lat="62.88531" lon="18.10842">
        <ele>12.041583</ele>
        <time>2020-08-29T08:40:14.494Z</time>
      </trkpt>
      <trkpt lat="62.88524" lon="18.1079">
        <ele>11.851303</ele>
        <time>2020-08-29T08:40:18.296Z</time>
      </trkpt>
      <trkpt lat="62.88521" lon="18.10769">
        <ele>11.772122</ele>
        <time>2020-08-29T08:40:20.047Z</time>
      </trkpt>
      <trkpt lat="62.88491" lon="18.10543">
        <ele>11.114646</ele>
        <time>2020-08-29T08:40:37.999Z</time>
      </trkpt>
      <trkpt lat="62.88472" lon="18.10441">
        <ele>11.133081</ele>
        <time>2020-08-29T08:40:46.856Z</time>
      </trkpt>
      <trkpt lat="62.88448" lon="18.10349">
        <ele>11.150665</ele>
        <time>2020-08-29T08:40:55.694Z</time>
      </trkpt>
      <trkpt lat="62.88403" lon="18.10234">
        <ele>11.21358</ele>
        <time>2020-08-29T08:41:08.479Z</time>
      </trkpt>
      <trkpt lat="62.88389" lon="18.10207">
        <ele>11.293795</ele>
        <time>2020-08-29T08:41:11.804Z</time>
      </trkpt>
      <trkpt lat="62.88373" lon="18.10175">
        <ele>11.389678</ele>
        <time>2020-08-29T08:41:16.023Z</time>
      </trkpt>
      <trkpt lat="62.88272" lon="18.09999">
        <ele>11.959143</ele>
        <time>2020-08-29T08:41:41.142Z</time>
      </trkpt>
      <trkpt lat="62.88207" lon="18.09945">
        <ele>12.301643</ele>
        <time>2020-08-29T08:41:54.997Z</time>
      </trkpt>
      <trkpt lat="62.88177" lon="18.09929">
        <ele>12.456454</ele>
        <time>2020-08-29T08:42:01.111Z</time>
      </trkpt>
      <trkpt lat="62.88164" lon="18.09925">
        <ele>12.520723</ele>
        <time>2020-08-29T08:42:03.686Z</time>
      </trkpt>
      <trkpt lat="62.88135" lon="18.09916">
        <ele>12.665359</ele>
        <time>2020-08-29T08:42:09.261Z</time>
      </trkpt>
      <trkpt lat="62.88112" lon="18.09904">
        <ele>12.785182</ele>
        <time>2020-08-29T08:42:13.825Z</time>
      </trkpt>
      <trkpt lat="62.88091" lon="18.09889">
        <ele>12.8509</ele>
        <time>2020-08-29T08:42:18.048Z</time>
      </trkpt>
      <trkpt lat="62.87909" lon="18.09713">
        <ele>12.57995</ele>
        <time>2020-08-29T08:42:52.724Z</time>
      </trkpt>
      <trkpt lat="62.87833" lon="18.0962">
        <ele>12.214333</ele>
        <time>2020-08-29T08:43:06.829Z</time>
      </trkpt>
      <trkpt lat="62.87788" lon="18.09547">
        <ele>11.978009</ele>
        <time>2020-08-29T08:43:16.078Z</time>
      </trkpt>
      <trkpt lat="62.87734" lon="18.09391">
        <ele>11.915712</ele>
        <time>2020-08-29T08:43:31.415Z</time>
      </trkpt>
      <trkpt lat="62.87685" lon="18.09198">
        <ele>11.893882</ele>
        <time>2020-08-29T08:43:49.982Z</time>
      </trkpt>
      <trkpt lat="62.87667" lon="18.09141">
        <ele>11.744049</ele>
        <time>2020-08-29T08:43:55.919Z</time>
      </trkpt>
      <trkpt lat="62.87637" lon="18.09071">
        <ele>11.533115</ele>
        <time>2020-08-29T08:44:03.816Z</time>
      </trkpt>
      <trkpt lat="62.87597" lon="18.09001">
        <ele>11.28811</ele>
        <time>2020-08-29T08:44:12.270Z</time>
      </trkpt>
      <trkpt lat="62.8757" lon="18.08963">
        <ele>11.137499</ele>
        <time>2020-08-29T08:44:17.139Z</time>
      </trkpt>
      <trkpt lat="62.8753" lon="18.08912">
        <ele>10.625163</ele>
        <time>2020-08-29T08:44:24.099Z</time>
      </trkpt>
      <trkpt lat="62.87512" lon="18.08894">
        <ele>10.286548</ele>
        <time>2020-08-29T08:44:27.059Z</time>
      </trkpt>
      <trkpt lat="62.87492" lon="18.08875">
        <ele>9.931474</ele>
        <time>2020-08-29T08:44:30.197Z</time>
      </trkpt>
      <trkpt lat="62.87459" lon="18.08847">
        <ele>9.342202</ele>
        <time>2020-08-29T08:44:35.267Z</time>
      </trkpt>
      <trkpt lat="62.87444" lon="18.08837">
        <ele>9.080826</ele>
        <time>2020-08-29T08:44:37.463Z</time>
      </trkpt>
      <trkpt lat="62.87412" lon="18.08813">
        <ele>8.514765</ele>
        <time>2020-08-29T08:44:42.236Z</time>
      </trkpt>
      <trkpt lat="62.87361" lon="18.08776">
        <ele>7.771743</ele>
        <time>2020-08-29T08:44:49.898Z</time>
      </trkpt>
      <trkpt lat="62.8728" lon="18.08714">
        <ele>6.852622</ele>
        <time>2020-08-29T08:45:02.708Z</time>
      </trkpt>
      <trkpt lat="62.87226" lon="18.0867">
        <ele>6.2431</ele>
        <time>2020-08-29T08:45:11.993Z</time>
      </trkpt>
      <trkpt lat="62.8721" lon="18.08656">
        <ele>6.149921</ele>
        <time>2020-08-29T08:45:15.186Z</time>
      </trkpt>
      <trkpt lat="62.87158" lon="18.08615">
        <ele>6.447967</ele>
        <time>2020-08-29T08:45:25.250Z</time>
      </trkpt>
      <trkpt lat="62.8714" lon="18.08568">
        <ele>6.595607</ele>
        <time>2020-08-29T08:45:30.668Z</time>
      </trkpt>
      <trkpt lat="62.87133" lon="18.08539">
        <ele>6.678591</ele>
        <time>2020-08-29T08:45:33.652Z</time>
      </trkpt>
      <trkpt lat="62.87141" lon="18.08521">
        <ele>6.742724</ele>
        <time>2020-08-29T08:45:36.180Z</time>
      </trkpt>
      <trkpt lat="62.87151" lon="18.08492">
        <ele>6.831086</ele>
        <time>2020-08-29T08:45:39.430Z</time>
      </trkpt>
      <trkpt lat="62.87159" lon="18.08454">
        <ele>6.932747</ele>
        <time>2020-08-29T08:45:43.423Z</time>
      </trkpt>
      <trkpt lat="62.87177" lon="18.08359">
        <ele>7.317118</ele>
        <time>2020-08-29T08:45:53.488Z</time>
      </trkpt>
      <trkpt lat="62.87206" lon="18.08152">
        <ele>8.52383</ele>
        <time>2020-08-29T08:46:15.652Z</time>
      </trkpt>
      <trkpt lat="62.87214" lon="18.08054">
        <ele>9.079857</ele>
        <time>2020-08-29T08:46:25.495Z</time>
      </trkpt>
      <trkpt lat="62.87213" lon="18.0793">
        <ele>9.403705</ele>
        <time>2020-08-29T08:46:37.195Z</time>
      </trkpt>
      <trkpt lat="62.87212" lon="18.07914">
        <ele>9.424756</ele>
        <time>2020-08-29T08:46:38.852Z</time>
      </trkpt>
      <trkpt lat="62.8721" lon="18.07898">
        <ele>9.445114</ele>
        <time>2020-08-29T08:46:40.315Z</time>
      </trkpt>
      <trkpt lat="62.87208" lon="18.07877">
        <ele>9.473521</ele>
        <time>2020-08-29T08:46:42.296Z</time>
      </trkpt>
      <trkpt lat="62.87206" lon="18.07858">
        <ele>9.498333</ele>
        <time>2020-08-29T08:46:43.952Z</time>
      </trkpt>
      <trkpt lat="62.87176" lon="18.0763">
        <ele>9.78411</ele>
        <time>2020-08-29T08:47:03.515Z</time>
      </trkpt>
      <trkpt lat="62.87172" lon="18.07604">
        <ele>9.68347</ele>
        <time>2020-08-29T08:47:05.598Z</time>
      </trkpt>
      <trkpt lat="62.87168" lon="18.07577">
        <ele>9.574384</ele>
        <time>2020-08-29T08:47:07.650Z</time>
      </trkpt>
      <trkpt lat="62.8715" lon="18.07488">
        <ele>9.203151</ele>
        <time>2020-08-29T08:47:14.548Z</time>
      </trkpt>
      <trkpt lat="62.87142" lon="18.07462">
        <ele>9.086927</ele>
        <time>2020-08-29T08:47:16.701Z</time>
      </trkpt>
      <trkpt lat="62.87138" lon="18.0745">
        <ele>9.028815</ele>
        <time>2020-08-29T08:47:17.720Z</time>
      </trkpt>
      <trkpt lat="62.87116" lon="18.0738">
        <ele>8.709128</ele>
        <time>2020-08-29T08:47:23.634Z</time>
      </trkpt>
      <trkpt lat="62.87108" lon="18.07352">
        <ele>8.58174</ele>
        <time>2020-08-29T08:47:26.039Z</time>
      </trkpt>
      <trkpt lat="62.87091" lon="18.07303">
        <ele>8.347737</ele>
        <time>2020-08-29T08:47:30.342Z</time>
      </trkpt>
      <trkpt lat="62.87057" lon="18.07186">
        <ele>8.061255</ele>
        <time>2020-08-29T08:47:40.358Z</time>
      </trkpt>
      <trkpt lat="62.87041" lon="18.07054">
        <ele>7.802385</ele>
        <time>2020-08-29T08:47:50.764Z</time>
      </trkpt>
      <trkpt lat="62.87069" lon="18.06731">
        <ele>7.541072</ele>
        <time>2020-08-29T08:48:17.892Z</time>
      </trkpt>
      <trkpt lat="62.87072" lon="18.06651">
        <ele>7.535822</ele>
        <time>2020-08-29T08:48:24.534Z</time>
      </trkpt>
      <trkpt lat="62.8707" lon="18.06588">
        <ele>7.531732</ele>
        <time>2020-08-29T08:48:29.633Z</time>
      </trkpt>
      <trkpt lat="62.87056" lon="18.06464">
        <ele>7.459357</ele>
        <time>2020-08-29T08:48:39.762Z</time>
      </trkpt>
      <trkpt lat="62.87043" lon="18.06389">
        <ele>7.384061</ele>
        <time>2020-08-29T08:48:46.007Z</time>
      </trkpt>
      <trkpt lat="62.87025" lon="18.06317">
        <ele>7.30643</ele>
        <time>2020-08-29T08:48:52.340Z</time>
      </trkpt>
      <trkpt lat="62.86936" lon="18.06052">
        <ele>7.26712</ele>
        <time>2020-08-29T08:49:17.965Z</time>
      </trkpt>
      <trkpt lat="62.86896" lon="18.05907">
        <ele>7.377346</ele>
        <time>2020-08-29T08:49:32.538Z</time>
      </trkpt>
      <trkpt lat="62.86871" lon="18.05796">
        <ele>7.694846</ele>
        <time>2020-08-29T08:49:43.703Z</time>
      </trkpt>
      <trkpt lat="62.86814" lon="18.05414">
        <ele>9.165689</ele>
        <time>2020-08-29T08:50:22.436Z</time>
      </trkpt>
      <trkpt lat="62.86806" lon="18.0537">
        <ele>9.253738</ele>
        <time>2020-08-29T08:50:26.953Z</time>
      </trkpt>
      <trkpt lat="62.86794" lon="18.05319">
        <ele>9.359877</ele>
        <time>2020-08-29T08:50:32.118Z</time>
      </trkpt>
      <trkpt lat="62.86749" lon="18.05214">
        <ele>9.631087</ele>
        <time>2020-08-29T08:50:44.491Z</time>
      </trkpt>
      <trkpt lat="62.86712" lon="18.05163">
        <ele>9.675235</ele>
        <time>2020-08-29T08:50:52.032Z</time>
      </trkpt>
      <trkpt lat="62.86662" lon="18.05123">
        <ele>9.325634</ele>
        <time>2020-08-29T08:51:00.554Z</time>
      </trkpt>
      <trkpt lat="62.86639" lon="18.05113">
        <ele>9.172221</ele>
        <time>2020-08-29T08:51:04.177Z</time>
      </trkpt>
      <trkpt lat="62.86616" lon="18.05102">
        <ele>9.013967</ele>
        <time>2020-08-29T08:51:07.939Z</time>
      </trkpt>
      <trkpt lat="62.86592" lon="18.05089">
        <ele>8.850405</ele>
        <time>2020-08-29T08:51:11.877Z</time>
      </trkpt>
      <trkpt lat="62.86571" lon="18.05076">
        <ele>8.705343</ele>
        <time>2020-08-29T08:51:15.298Z</time>
      </trkpt>
      <trkpt lat="62.86546" lon="18.05053">
        <ele>8.550812</ele>
        <time>2020-08-29T08:51:19.583Z</time>
      </trkpt>
      <trkpt lat="62.86524" lon="18.05029">
        <ele>8.480786</ele>
        <time>2020-08-29T08:51:23.546Z</time>
      </trkpt>
      <trkpt lat="62.86485" lon="18.04966">
        <ele>8.343157</ele>
        <time>2020-08-29T08:51:31.351Z</time>
      </trkpt>
      <trkpt lat="62.86466" lon="18.04928">
        <ele>8.268527</ele>
        <time>2020-08-29T08:51:35.825Z</time>
      </trkpt>
      <trkpt lat="62.86415" lon="18.04805">
        <ele>8.063162</ele>
        <time>2020-08-29T08:51:49.415Z</time>
      </trkpt>
      <trkpt lat="62.86364" lon="18.04672">
        <ele>8.599265</ele>
        <time>2020-08-29T08:52:04.501Z</time>
      </trkpt>
      <trkpt lat="62.86361" lon="18.04659">
        <ele>8.645702</ele>
        <time>2020-08-29T08:52:05.862Z</time>
      </trkpt>
      <trkpt lat="62.86349" lon="18.04629">
        <ele>8.768504</ele>
        <time>2020-08-29T08:52:09.510Z</time>
      </trkpt>
      <trkpt lat="62.8632" lon="18.04555">
        <ele>9.070639</ele>
        <time>2020-08-29T08:52:18.687Z</time>
      </trkpt>
      <trkpt lat="62.86305" lon="18.04505">
        <ele>9.254607</ele>
        <time>2020-08-29T08:52:24.511Z</time>
      </trkpt>
      <trkpt lat="62.86286" lon="18.04432">
        <ele>9.91105</ele>
        <time>2020-08-29T08:52:33.100Z</time>
      </trkpt>
      <trkpt lat="62.86273" lon="18.04373">
        <ele>10.442866</ele>
        <time>2020-08-29T08:52:39.906Z</time>
      </trkpt>
      <trkpt lat="62.86247" lon="18.04247">
        <ele>11.577267</ele>
        <time>2020-08-29T08:52:54.968Z</time>
      </trkpt>
      <trkpt lat="62.86231" lon="18.04162">
        <ele>12.327797</ele>
        <time>2020-08-29T08:53:05.485Z</time>
      </trkpt>
      <trkpt lat="62.86211" lon="18.04074">
        <ele>13.115332</ele>
        <time>2020-08-29T08:53:16.786Z</time>
      </trkpt>
      <trkpt lat="62.86182" lon="18.0397">
        <ele>14.083349</ele>
        <time>2020-08-29T08:53:30.394Z</time>
      </trkpt>
      <trkpt lat="62.86168" lon="18.03921">
        <ele>14.54278</ele>
        <time>2020-08-29T08:53:36.682Z</time>
      </trkpt>
      <trkpt lat="62.86139" lon="18.03814">
        <ele>15.532046</ele>
        <time>2020-08-29T08:53:49.302Z</time>
      </trkpt>
      <trkpt lat="62.86127" lon="18.03769">
        <ele>15.689642</ele>
        <time>2020-08-29T08:53:54.252Z</time>
      </trkpt>
      <trkpt lat="62.86119" lon="18.03728">
        <ele>15.749466</ele>
        <time>2020-08-29T08:53:58.552Z</time>
      </trkpt>
      <trkpt lat="62.86111" lon="18.03678">
        <ele>15.819769</ele>
        <time>2020-08-29T08:54:03.302Z</time>
      </trkpt>
      <trkpt lat="62.86104" lon="18.03628">
        <ele>15.890278</ele>
        <time>2020-08-29T08:54:07.966Z</time>
      </trkpt>
      <trkpt lat="62.86086" lon="18.03515">
        <ele>16.049366</ele>
        <time>2020-08-29T08:54:17.647Z</time>
      </trkpt>
      <trkpt lat="62.86055" lon="18.0331">
        <ele>15.883158</ele>
        <time>2020-08-29T08:54:33.955Z</time>
      </trkpt>
      <trkpt lat="62.86024" lon="18.03098">
        <ele>15.405257</ele>
        <time>2020-08-29T08:54:50.467Z</time>
      </trkpt>
      <trkpt lat="62.85995" lon="18.02899">
        <ele>15.306004</ele>
        <time>2020-08-29T08:55:06.767Z</time>
      </trkpt>
      <trkpt lat="62.85978" lon="18.02793">
        <ele>15.299618</ele>
        <time>2020-08-29T08:55:16.280Z</time>
      </trkpt>
      <trkpt lat="62.85966" lon="18.0274">
        <ele>15.296196</ele>
        <time>2020-08-29T08:55:21.492Z</time>
      </trkpt>
      <trkpt lat="62.85955" lon="18.02698">
        <ele>15.293434</ele>
        <time>2020-08-29T08:55:25.540Z</time>
      </trkpt>
      <trkpt lat="62.85947" lon="18.02662">
        <ele>15.214793</ele>
        <time>2020-08-29T08:55:29.098Z</time>
      </trkpt>
      <trkpt lat="62.85943" lon="18.02644">
        <ele>15.167386</ele>
        <time>2020-08-29T08:55:30.819Z</time>
      </trkpt>
      <trkpt lat="62.85926" lon="18.02551">
        <ele>14.932864</ele>
        <time>2020-08-29T08:55:38.567Z</time>
      </trkpt>
      <trkpt lat="62.85922" lon="18.02522">
        <ele>14.860313</ele>
        <time>2020-08-29T08:55:41.282Z</time>
      </trkpt>
      <trkpt lat="62.85912" lon="18.02527">
        <ele>14.807417</ele>
        <time>2020-08-29T08:55:42.960Z</time>
      </trkpt>
      <trkpt lat="62.8587" lon="18.02521">
        <ele>14.590449</ele>
        <time>2020-08-29T08:55:49.536Z</time>
      </trkpt>
      <trkpt lat="62.85842" lon="18.02494">
        <ele>14.431434</ele>
        <time>2020-08-29T08:55:54.374Z</time>
      </trkpt>
      <trkpt lat="62.85837" lon="18.02489">
        <ele>14.404074</ele>
        <time>2020-08-29T08:55:55.117Z</time>
      </trkpt>
      <trkpt lat="62.85831" lon="18.02499">
        <ele>14.364987</ele>
        <time>2020-08-29T08:55:56.164Z</time>
      </trkpt>
      <trkpt lat="62.85804" lon="18.0252">
        <ele>13.910594</ele>
        <time>2020-08-29T08:56:00.418Z</time>
      </trkpt>
      <trkpt lat="62.85781" lon="18.02516">
        <ele>13.5349</ele>
        <time>2020-08-29T08:56:03.881Z</time>
      </trkpt>
      <trkpt lat="62.8577" lon="18.02508">
        <ele>13.340542</ele>
        <time>2020-08-29T08:56:05.538Z</time>
      </trkpt>
      <trkpt lat="62.85753" lon="18.02496">
        <ele>13.06083</ele>
        <time>2020-08-29T08:56:07.951Z</time>
      </trkpt>
      <trkpt lat="62.85676" lon="18.02403">
        <ele>11.626826</ele>
        <time>2020-08-29T08:56:20.595Z</time>
      </trkpt>
      <trkpt lat="62.85645" lon="18.0235">
        <ele>11.260389</ele>
        <time>2020-08-29T08:56:26.412Z</time>
      </trkpt>
      <trkpt lat="62.85616" lon="18.02279">
        <ele>10.975073</ele>
        <time>2020-08-29T08:56:33.111Z</time>
      </trkpt>
      <trkpt lat="62.85582" lon="18.02164">
        <ele>10.5597</ele>
        <time>2020-08-29T08:56:43.365Z</time>
      </trkpt>
      <trkpt lat="62.85519" lon="18.01807">
        <ele>10.561505</ele>
        <time>2020-08-29T08:57:14.863Z</time>
      </trkpt>
      <trkpt lat="62.85496" lon="18.01706">
        <ele>10.693192</ele>
        <time>2020-08-29T08:57:25.172Z</time>
      </trkpt>
      <trkpt lat="62.85457" lon="18.01601">
        <ele>11.453778</ele>
        <time>2020-08-29T08:57:37.737Z</time>
      </trkpt>
      <trkpt lat="62.85361" lon="18.0143">
        <ele>13.029988</ele>
        <time>2020-08-29T08:58:05.503Z</time>
      </trkpt>
      <trkpt lat="62.85332" lon="18.01347">
        <ele>14.00138</ele>
        <time>2020-08-29T08:58:17.217Z</time>
      </trkpt>
      <trkpt lat="62.85285" lon="18.01164">
        <ele>15.938228</ele>
        <time>2020-08-29T08:58:41.080Z</time>
      </trkpt>
      <trkpt lat="62.85258" lon="18.0109">
        <ele>16.733498</ele>
        <time>2020-08-29T08:58:51.699Z</time>
      </trkpt>
      <trkpt lat="62.85224" lon="18.01031">
        <ele>17.366351</ele>
        <time>2020-08-29T08:59:02.259Z</time>
      </trkpt>
      <trkpt lat="62.84992" lon="18.0076">
        <ele>20.799522</ele>
        <time>2020-08-29T08:59:58.974Z</time>
      </trkpt>
      <trkpt lat="62.84894" lon="18.00612">
        <ele>21.9779</ele>
        <time>2020-08-29T09:00:24.445Z</time>
      </trkpt>
      <trkpt lat="62.84875" lon="18.00573">
        <ele>22.215335</ele>
        <time>2020-08-29T09:00:30.046Z</time>
      </trkpt>
      <trkpt lat="62.84835" lon="18.00497">
        <ele>22.689635</ele>
        <time>2020-08-29T09:00:40.794Z</time>
      </trkpt>
      <trkpt lat="62.84778" lon="18.00363">
        <ele>22.869038</ele>
        <time>2020-08-29T09:00:57.129Z</time>
      </trkpt>
      <trkpt lat="62.84632" lon="17.99986">
        <ele>22.46011</ele>
        <time>2020-08-29T09:01:35.051Z</time>
      </trkpt>
      <trkpt lat="62.84571" lon="17.99857">
        <ele>22.159567</ele>
        <time>2020-08-29T09:01:49.360Z</time>
      </trkpt>
      <trkpt lat="62.84569" lon="17.99853">
        <ele>22.147528</ele>
        <time>2020-08-29T09:01:49.868Z</time>
      </trkpt>
      <trkpt lat="62.84547" lon="17.99813">
        <ele>22.016832</ele>
        <time>2020-08-29T09:01:54.837Z</time>
      </trkpt>
      <trkpt lat="62.84444" lon="17.9966">
        <ele>21.462106</ele>
        <time>2020-08-29T09:02:15.453Z</time>
      </trkpt>
      <trkpt lat="62.84265" lon="17.9946">
        <ele>19.878281</ele>
        <time>2020-08-29T09:02:46.909Z</time>
      </trkpt>
      <trkpt lat="62.84256" lon="17.9945">
        <ele>19.81808</ele>
        <time>2020-08-29T09:02:48.553Z</time>
      </trkpt>
      <trkpt lat="62.84187" lon="17.99375">
        <ele>19.3767</ele>
        <time>2020-08-29T09:03:01.259Z</time>
      </trkpt>
      <trkpt lat="62.84103" lon="17.99284">
        <ele>18.819494</ele>
        <time>2020-08-29T09:03:16.813Z</time>
      </trkpt>
      <trkpt lat="62.84077" lon="17.99241">
        <ele>18.571533</ele>
        <time>2020-08-29T09:03:22.057Z</time>
      </trkpt>
      <trkpt lat="62.8406" lon="17.99198">
        <ele>18.368526</ele>
        <time>2020-08-29T09:03:26.253Z</time>
      </trkpt>
      <trkpt lat="62.84019" lon="17.99048">
        <ele>17.750272</ele>
        <time>2020-08-29T09:03:38.704Z</time>
      </trkpt>
      <trkpt lat="62.8398" lon="17.98776">
        <ele>16.685574</ele>
        <time>2020-08-29T09:03:59.115Z</time>
      </trkpt>
      <trkpt lat="62.83949" lon="17.98621">
        <ele>16.047274</ele>
        <time>2020-08-29T09:04:11.522Z</time>
      </trkpt>
      <trkpt lat="62.83925" lon="17.98535">
        <ele>15.485436</ele>
        <time>2020-08-29T09:04:19.099Z</time>
      </trkpt>
      <trkpt lat="62.8389" lon="17.98438">
        <ele>14.784461</ele>
        <time>2020-08-29T09:04:27.705Z</time>
      </trkpt>
      <trkpt lat="62.83842" lon="17.98333">
        <ele>13.934147</ele>
        <time>2020-08-29T09:04:37.629Z</time>
      </trkpt>
      <trkpt lat="62.8381" lon="17.98283">
        <ele>13.197347</ele>
        <time>2020-08-29T09:04:43.239Z</time>
      </trkpt>
      <trkpt lat="62.83804" lon="17.98274">
        <ele>13.023134</ele>
        <time>2020-08-29T09:04:44.265Z</time>
      </trkpt>
      <trkpt lat="62.83792" lon="17.98257">
        <ele>12.707334</ele>
        <time>2020-08-29T09:04:46.219Z</time>
      </trkpt>
      <trkpt lat="62.83767" lon="17.9822">
        <ele>12.03101</ele>
        <time>2020-08-29T09:04:50.432Z</time>
      </trkpt>
      <trkpt lat="62.83744" lon="17.98165">
        <ele>11.26615</ele>
        <time>2020-08-29T09:04:55.125Z</time>
      </trkpt>
      <trkpt lat="62.83696" lon="17.97974">
        <ele>9.132535</ele>
        <time>2020-08-29T09:05:08.655Z</time>
      </trkpt>
      <trkpt lat="62.83669" lon="17.97906">
        <ele>8.342465</ele>
        <time>2020-08-29T09:05:14.438Z</time>
      </trkpt>
      <trkpt lat="62.83644" lon="17.97869">
        <ele>7.760296</ele>
        <time>2020-08-29T09:05:18.704Z</time>
      </trkpt>
      <trkpt lat="62.83574" lon="17.97794">
        <ele>6.252559</ele>
        <time>2020-08-29T09:05:29.923Z</time>
      </trkpt>
      <trkpt lat="62.83458" lon="17.97547">
        <ele>5.204002</ele>
        <time>2020-08-29T09:05:55.461Z</time>
      </trkpt>
      <trkpt lat="62.83436" lon="17.97465">
        <ele>5.488411</ele>
        <time>2020-08-29T09:06:03.752Z</time>
      </trkpt>
      <trkpt lat="62.83386" lon="17.97204">
        <ele>7.485231</ele>
        <time>2020-08-29T09:06:33.197Z</time>
      </trkpt>
      <trkpt lat="62.83363" lon="17.97113">
        <ele>8.342077</ele>
        <time>2020-08-29T09:06:47.000Z</time>
      </trkpt>
      <trkpt lat="62.8333" lon="17.97041">
        <ele>9.310833</ele>
        <time>2020-08-29T09:06:59.381Z</time>
      </trkpt>
      <trkpt lat="62.83283" lon="17.96994">
        <ele>10.377725</ele>
        <time>2020-08-29T09:07:12.098Z</time>
      </trkpt>
      <trkpt lat="62.83277" lon="17.96992">
        <ele>10.508814</ele>
        <time>2020-08-29T09:07:14.248Z</time>
      </trkpt>
      <trkpt lat="62.83268" lon="17.96988">
        <ele>10.680026</ele>
        <time>2020-08-29T09:07:16.376Z</time>
      </trkpt>
      <trkpt lat="62.83021" lon="17.97051">
        <ele>13.246661</ele>
        <time>2020-08-29T09:08:06.628Z</time>
      </trkpt>
      <trkpt lat="62.82965" lon="17.9705">
        <ele>13.811847</ele>
        <time>2020-08-29T09:08:17.399Z</time>
      </trkpt>
      <trkpt lat="62.82909" lon="17.97009">
        <ele>14.406947</ele>
        <time>2020-08-29T09:08:29.696Z</time>
      </trkpt>
      <trkpt lat="62.82811" lon="17.96902">
        <ele>16.260067</ele>
        <time>2020-08-29T09:08:55.675Z</time>
      </trkpt>
      <trkpt lat="62.82766" lon="17.96889">
        <ele>17.197959</ele>
        <time>2020-08-29T09:09:07.306Z</time>
      </trkpt>
      <trkpt lat="62.8271" lon="17.96909">
        <ele>18.380658</ele>
        <time>2020-08-29T09:09:21.633Z</time>
      </trkpt>
      <trkpt lat="62.82627" lon="17.96964">
        <ele>19.407287</ele>
        <time>2020-08-29T09:09:42.530Z</time>
      </trkpt>
      <trkpt lat="62.82455" lon="17.97055">
        <ele>19.97784</ele>
        <time>2020-08-29T09:10:16.049Z</time>
      </trkpt>
      <trkpt lat="62.82402" lon="17.97068">
        <ele>19.613835</ele>
        <time>2020-08-29T09:10:24.306Z</time>
      </trkpt>
      <trkpt lat="62.82367" lon="17.97059">
        <ele>19.37154</ele>
        <time>2020-08-29T09:10:29.563Z</time>
      </trkpt>
      <trkpt lat="62.82341" lon="17.97044">
        <ele>18.992187</ele>
        <time>2020-08-29T09:10:33.363Z</time>
      </trkpt>
      <trkpt lat="62.82306" lon="17.97022">
        <ele>18.074479</ele>
        <time>2020-08-29T09:10:38.412Z</time>
      </trkpt>
      <trkpt lat="62.82254" lon="17.96991">
        <ele>16.743231</ele>
        <time>2020-08-29T09:10:45.653Z</time>
      </trkpt>
      <trkpt lat="62.82224" lon="17.96972">
        <ele>15.965189</ele>
        <time>2020-08-29T09:10:49.829Z</time>
      </trkpt>
      <trkpt lat="62.82178" lon="17.96942">
        <ele>14.775906</ele>
        <time>2020-08-29T09:10:56.206Z</time>
      </trkpt>
      <trkpt lat="62.82147" lon="17.96911">
        <ele>14.041902</ele>
        <time>2020-08-29T09:11:00.855Z</time>
      </trkpt>
      <trkpt lat="62.82116" lon="17.96858">
        <ele>13.207262</ele>
        <time>2020-08-29T09:11:06.148Z</time>
      </trkpt>
      <trkpt lat="62.82072" lon="17.96722">
        <ele>11.5751</ele>
        <time>2020-08-29T09:11:16.797Z</time>
      </trkpt>
      <trkpt lat="62.82045" lon="17.96621">
        <ele>10.789742</ele>
        <time>2020-08-29T09:11:24.821Z</time>
      </trkpt>
      <trkpt lat="62.82026" lon="17.96481">
        <ele>10.369553</ele>
        <time>2020-08-29T09:11:35.309Z</time>
      </trkpt>
      <trkpt lat="62.8202" lon="17.9626">
        <ele>9.861717</ele>
        <time>2020-08-29T09:11:52.700Z</time>
      </trkpt>
      <trkpt lat="62.8201" lon="17.96155">
        <ele>10.101059</ele>
        <time>2020-08-29T09:12:01.919Z</time>
      </trkpt>
      <trkpt lat="62.82001" lon="17.96102">
        <ele>10.227793</ele>
        <time>2020-08-29T09:12:06.955Z</time>
      </trkpt>
      <trkpt lat="62.81931" lon="17.95813">
        <ele>11.05808</ele>
        <time>2020-08-29T09:12:37.369Z</time>
      </trkpt>
      <trkpt lat="62.81908" lon="17.95735">
        <ele>11.338933</ele>
        <time>2020-08-29T09:12:46.040Z</time>
      </trkpt>
      <trkpt lat="62.81855" lon="17.95619">
        <ele>11.832536</ele>
        <time>2020-08-29T09:13:00.893Z</time>
      </trkpt>
      <trkpt lat="62.81659" lon="17.95295">
        <ele>12.776086</ele>
        <time>2020-08-29T09:13:47.798Z</time>
      </trkpt>
      <trkpt lat="62.81633" lon="17.95251">
        <ele>12.841443</ele>
        <time>2020-08-29T09:13:54.029Z</time>
      </trkpt>
      <trkpt lat="62.81619" lon="17.95228">
        <ele>12.876796</ele>
        <time>2020-08-29T09:13:57.513Z</time>
      </trkpt>
      <trkpt lat="62.81563" lon="17.95164">
        <ele>13.005515</ele>
        <time>2020-08-29T09:14:09.023Z</time>
      </trkpt>
      <trkpt lat="62.81552" lon="17.95156">
        <ele>12.957213</ele>
        <time>2020-08-29T09:14:11.240Z</time>
      </trkpt>
      <trkpt lat="62.81531" lon="17.95147">
        <ele>12.63675</ele>
        <time>2020-08-29T09:14:14.800Z</time>
      </trkpt>
      <trkpt lat="62.81442" lon="17.95129">
        <ele>11.276539</ele>
        <time>2020-08-29T09:14:28.288Z</time>
      </trkpt>
      <trkpt lat="62.81378" lon="17.95154">
        <ele>10.301685</ele>
        <time>2020-08-29T09:14:36.991Z</time>
      </trkpt>
      <trkpt lat="62.8136" lon="17.95174">
        <ele>10.141132</ele>
        <time>2020-08-29T09:14:39.746Z</time>
      </trkpt>
      <trkpt lat="62.81321" lon="17.95228">
        <ele>9.782501</ele>
        <time>2020-08-29T09:14:45.987Z</time>
      </trkpt>
      <trkpt lat="62.81266" lon="17.95307">
        <ele>9.279765</ele>
        <time>2020-08-29T09:14:56.366Z</time>
      </trkpt>
      <trkpt lat="62.81257" lon="17.95319">
        <ele>9.199277</ele>
        <time>2020-08-29T09:14:58.114Z</time>
      </trkpt>
      <trkpt lat="62.81212" lon="17.95383">
        <ele>9.643703</ele>
        <time>2020-08-29T09:15:09.566Z</time>
      </trkpt>
      <trkpt lat="62.81203" lon="17.95395">
        <ele>10.097898</ele>
        <time>2020-08-29T09:15:12.806Z</time>
      </trkpt>
      <trkpt lat="62.81184" lon="17.95425">
        <ele>11.157754</ele>
        <time>2020-08-29T09:15:19.719Z</time>
      </trkpt>
      <trkpt lat="62.81165" lon="17.95455">
        <ele>12.203259</ele>
        <time>2020-08-29T09:15:27.492Z</time>
      </trkpt>
      <trkpt lat="62.81111" lon="17.95558">
        <ele>15.3751</ele>
        <time>2020-08-29T09:15:52.402Z</time>
      </trkpt>
      <trkpt lat="62.81097" lon="17.95593">
        <ele>16.301981</ele>
        <time>2020-08-29T09:16:00.104Z</time>
      </trkpt>
      <trkpt lat="62.81084" lon="17.95625">
        <ele>17.252826</ele>
        <time>2020-08-29T09:16:07.305Z</time>
      </trkpt>
      <trkpt lat="62.81069" lon="17.95673">
        <ele>18.87904</ele>
        <time>2020-08-29T09:16:18.152Z</time>
      </trkpt>
      <trkpt lat="62.81089" lon="17.95712">
        <ele>20.482567</ele>
        <time>2020-08-29T09:16:28.220Z</time>
      </trkpt>
      <trkpt lat="62.81101" lon="17.95751">
        <ele>21.792784</ele>
        <time>2020-08-29T09:16:35.842Z</time>
      </trkpt>
      <trkpt lat="62.81106" lon="17.95793">
        <ele>22.972016</ele>
        <time>2020-08-29T09:16:43.195Z</time>
      </trkpt>
      <trkpt lat="62.81103" lon="17.95834">
        <ele>24.109623</ele>
        <time>2020-08-29T09:16:50.681Z</time>
      </trkpt>
      <trkpt lat="62.81094" lon="17.95869">
        <ele>25.242158</ele>
        <time>2020-08-29T09:16:58.085Z</time>
      </trkpt>
      <trkpt lat="62.81077" lon="17.95897">
        <ele>26.482924</ele>
        <time>2020-08-29T09:17:05.520Z</time>
      </trkpt>
      <trkpt lat="62.81068" lon="17.95902">
        <ele>27.06632</ele>
        <time>2020-08-29T09:17:08.958Z</time>
      </trkpt>
      <trkpt lat="62.81059" lon="17.95896">
        <ele>27.635396</ele>
        <time>2020-08-29T09:17:12.468Z</time>
      </trkpt>
      <trkpt lat="62.81044" lon="17.95851">
        <ele>29.032375</ele>
        <time>2020-08-29T09:17:20.979Z</time>
      </trkpt>
      <trkpt lat="62.81025" lon="17.95791">
        <ele>30.887035</ele>
        <time>2020-08-29T09:17:32.827Z</time>
      </trkpt>
      <trkpt lat="62.81004" lon="17.95736">
        <ele>32.702744</ele>
        <time>2020-08-29T09:17:44.905Z</time>
      </trkpt>
      <trkpt lat="62.80921" lon="17.95544">
        <ele>38.691007</ele>
        <time>2020-08-29T09:18:28.514Z</time>
      </trkpt>
      <trkpt lat="62.80841" lon="17.95394">
        <ele>42.110195</ele>
        <time>2020-08-29T09:18:58.717Z</time>
      </trkpt>
      <trkpt lat="62.80797" lon="17.95327">
        <ele>43.339337</ele>
        <time>2020-08-29T09:19:10.601Z</time>
      </trkpt>
      <trkpt lat="62.80765" lon="17.95285">
        <ele>42.86222</ele>
        <time>2020-08-29T09:19:17.835Z</time>
      </trkpt>
      <trkpt lat="62.80732" lon="17.9525">
        <ele>42.4034</ele>
        <time>2020-08-29T09:19:23.767Z</time>
      </trkpt>
      <trkpt lat="62.80686" lon="17.95202">
        <ele>41.748903</ele>
        <time>2020-08-29T09:19:31.051Z</time>
      </trkpt>
      <trkpt lat="62.80628" lon="17.95137">
        <ele>40.332329</ele>
        <time>2020-08-29T09:19:39.445Z</time>
      </trkpt>
      <trkpt lat="62.80576" lon="17.95077">
        <ele>37.97133</ele>
        <time>2020-08-29T09:19:46.579Z</time>
      </trkpt>
      <trkpt lat="62.80539" lon="17.95029">
        <ele>36.229353</ele>
        <time>2020-08-29T09:19:51.848Z</time>
      </trkpt>
      <trkpt lat="62.80497" lon="17.94963">
        <ele>34.118183</ele>
        <time>2020-08-29T09:19:58.354Z</time>
      </trkpt>
      <trkpt lat="62.80476" lon="17.94928">
        <ele>33.80748</ele>
        <time>2020-08-29T09:20:01.563Z</time>
      </trkpt>
      <trkpt lat="62.79122" lon="17.92733">
        <ele>27.081756</ele>
        <time>2020-08-29T09:24:43.405Z</time>
      </trkpt>
      <trkpt lat="62.79054" lon="17.92621">
        <ele>28.075772</ele>
        <time>2020-08-29T09:25:05.601Z</time>
      </trkpt>
      <trkpt lat="62.79003" lon="17.92541">
        <ele>29.708368</ele>
        <time>2020-08-29T09:25:22.805Z</time>
      </trkpt>
      <trkpt lat="62.7896" lon="17.92468">
        <ele>31.216881</ele>
        <time>2020-08-29T09:25:37.984Z</time>
      </trkpt>
      <trkpt lat="62.78897" lon="17.92374">
        <ele>33.288958</ele>
        <time>2020-08-29T09:25:57.717Z</time>
      </trkpt>
      <trkpt lat="62.78796" lon="17.92215">
        <ele>36.342639</ele>
        <time>2020-08-29T09:26:28.557Z</time>
      </trkpt>
      <trkpt lat="62.78748" lon="17.92151">
        <ele>37.827705</ele>
        <time>2020-08-29T09:26:43.333Z</time>
      </trkpt>
      <trkpt lat="62.78632" lon="17.92022">
        <ele>42.764969</ele>
        <time>2020-08-29T09:27:21.477Z</time>
      </trkpt>
      <trkpt lat="62.78577" lon="17.91974">
        <ele>45.090493</ele>
        <time>2020-08-29T09:27:41.347Z</time>
      </trkpt>
      <trkpt lat="62.78558" lon="17.9196">
        <ele>45.993847</ele>
        <time>2020-08-29T09:27:48.485Z</time>
      </trkpt>
      <trkpt lat="62.78534" lon="17.91944">
        <ele>47.117219</ele>
        <time>2020-08-29T09:27:56.543Z</time>
      </trkpt>
      <trkpt lat="62.78496" lon="17.91917">
        <ele>48.892468</ele>
        <time>2020-08-29T09:28:09.620Z</time>
      </trkpt>
      <trkpt lat="62.78486" lon="17.91902">
        <ele>49.430282</ele>
        <time>2020-08-29T09:28:14.220Z</time>
      </trkpt>
      <trkpt lat="62.7848" lon="17.91886">
        <ele>49.833871</ele>
        <time>2020-08-29T09:28:16.679Z</time>
      </trkpt>
      <trkpt lat="62.78481" lon="17.91863">
        <ele>50.30429</ele>
        <time>2020-08-29T09:28:19.740Z</time>
      </trkpt>
      <trkpt lat="62.78493" lon="17.91837">
        <ele>51.052094</ele>
        <time>2020-08-29T09:28:25.693Z</time>
      </trkpt>
      <trkpt lat="62.78505" lon="17.9182">
        <ele>51.699474</ele>
        <time>2020-08-29T09:28:29.494Z</time>
      </trkpt>
      <trkpt lat="62.78527" lon="17.91801">
        <ele>52.567468</ele>
        <time>2020-08-29T09:28:36.870Z</time>
      </trkpt>
      <trkpt lat="62.78575" lon="17.91789">
        <ele>53.779108</ele>
        <time>2020-08-29T09:28:50.328Z</time>
      </trkpt>
      <trkpt lat="62.78595" lon="17.91791">
        <ele>54.280055</ele>
        <time>2020-08-29T09:28:56.479Z</time>
      </trkpt>
      <trkpt lat="62.78604" lon="17.91791">
        <ele>54.520383</ele>
        <time>2020-08-29T09:28:58.529Z</time>
      </trkpt>
      <trkpt lat="62.78634" lon="17.91792">
        <ele>55.26899</ele>
        <time>2020-08-29T09:29:06.250Z</time>
      </trkpt>
      <trkpt lat="62.78678" lon="17.91788">
        <ele>56.375156</ele>
        <time>2020-08-29T09:29:15.797Z</time>
      </trkpt>
      <trkpt lat="62.78675" lon="17.9176">
        <ele>56.70141</ele>
        <time>2020-08-29T09:29:19.265Z</time>
      </trkpt>
      <trkpt lat="62.78671" lon="17.91732">
        <ele>56.925314</ele>
        <time>2020-08-29T09:29:21.941Z</time>
      </trkpt>
      <trkpt lat="62.78662" lon="17.91714">
        <ele>57.018298</ele>
        <time>2020-08-29T09:29:24.367Z</time>
      </trkpt>
      <trkpt lat="62.78645" lon="17.91697">
        <ele>57.164639</ele>
        <time>2020-08-29T09:29:28.902Z</time>
      </trkpt>
      <trkpt lat="62.78628" lon="17.91694">
        <ele>57.2912</ele>
        <time>2020-08-29T09:29:32.158Z</time>
      </trkpt>
      <trkpt lat="62.78479" lon="17.9176">
        <ele>58.212567</ele>
        <time>2020-08-29T09:30:02.330Z</time>
      </trkpt>
      <trkpt lat="62.78352" lon="17.91802">
        <ele>58.041377</ele>
        <time>2020-08-29T09:30:24.126Z</time>
      </trkpt>
      <trkpt lat="62.7797" lon="17.91864">
        <ele>55.40359</ele>
        <time>2020-08-29T09:31:26.507Z</time>
      </trkpt>
      <trkpt lat="62.77912" lon="17.91873">
        <ele>53.324963</ele>
        <time>2020-08-29T09:31:34.419Z</time>
      </trkpt>
      <trkpt lat="62.77857" lon="17.91879">
        <ele>51.309062</ele>
        <time>2020-08-29T09:31:41.395Z</time>
      </trkpt>
      <trkpt lat="62.7776" lon="17.91872">
        <ele>47.739622</ele>
        <time>2020-08-29T09:31:53.155Z</time>
      </trkpt>
      <trkpt lat="62.7773" lon="17.91866">
        <ele>46.59323</ele>
        <time>2020-08-29T09:31:56.839Z</time>
      </trkpt>
      <trkpt lat="62.7771" lon="17.91862">
        <ele>45.843139</ele>
        <time>2020-08-29T09:31:59.263Z</time>
      </trkpt>
      <trkpt lat="62.77669" lon="17.91849">
        <ele>44.258143</ele>
        <time>2020-08-29T09:32:04.568Z</time>
      </trkpt>
      <trkpt lat="62.77641" lon="17.91837">
        <ele>43.202876</ele>
        <time>2020-08-29T09:32:08.124Z</time>
      </trkpt>
      <trkpt lat="62.77499" lon="17.91759">
        <ele>40.772578</ele>
        <time>2020-08-29T09:32:29.234Z</time>
      </trkpt>
      <trkpt lat="62.77455" lon="17.91724">
        <ele>40.25539</ele>
        <time>2020-08-29T09:32:37.959Z</time>
      </trkpt>
      <trkpt lat="62.77423" lon="17.91696">
        <ele>40.22831</ele>
        <time>2020-08-29T09:32:44.570Z</time>
      </trkpt>
      <trkpt lat="62.77389" lon="17.91665">
        <ele>40.550278</ele>
        <time>2020-08-29T09:32:51.736Z</time>
      </trkpt>
      <trkpt lat="62.77376" lon="17.91651">
        <ele>40.682987</ele>
        <time>2020-08-29T09:32:54.822Z</time>
      </trkpt>
      <trkpt lat="62.77363" lon="17.91724">
        <ele>41.001629</ele>
        <time>2020-08-29T09:33:02.288Z</time>
      </trkpt>
      <trkpt lat="62.77344" lon="17.91836">
        <ele>41.483138</ele>
        <time>2020-08-29T09:33:14.197Z</time>
      </trkpt>
      <trkpt lat="62.77317" lon="17.91901">
        <ele>42.076883</ele>
        <time>2020-08-29T09:33:23.134Z</time>
      </trkpt>
      <trkpt lat="62.77299" lon="17.91918">
        <ele>42.472509</ele>
        <time>2020-08-29T09:33:27.198Z</time>
      </trkpt>
      <trkpt lat="62.77281" lon="17.91922">
        <ele>42.843423</ele>
        <time>2020-08-29T09:33:30.939Z</time>
      </trkpt>
      <trkpt lat="62.77261" lon="17.9191">
        <ele>43.281774</ele>
        <time>2020-08-29T09:33:36.431Z</time>
      </trkpt>
      <trkpt lat="62.77193" lon="17.91849">
        <ele>44.793015</ele>
        <time>2020-08-29T09:33:54.909Z</time>
      </trkpt>
      <trkpt lat="62.77178" lon="17.91901">
        <ele>45.368618</ele>
        <time>2020-08-29T09:34:02.426Z</time>
      </trkpt>
      <trkpt lat="62.7717" lon="17.91912">
        <ele>45.642364</ele>
        <time>2020-08-29T09:34:04.965Z</time>
      </trkpt>
      <trkpt lat="62.77159" lon="17.91917">
        <ele>45.933321</ele>
        <time>2020-08-29T09:34:07.538Z</time>
      </trkpt>
      <trkpt lat="62.77147" lon="17.91913">
        <ele>46.259321</ele>
        <time>2020-08-29T09:34:11.416Z</time>
      </trkpt>
      <trkpt lat="62.77107" lon="17.91844">
        <ele>47.62868</ele>
        <time>2020-08-29T09:34:25.492Z</time>
      </trkpt>
      <trkpt lat="62.77075" lon="17.91818">
        <ele>48.553096</ele>
        <time>2020-08-29T09:34:34.957Z</time>
      </trkpt>
      <trkpt lat="62.77062" lon="17.91817">
        <ele>48.9179</ele>
        <time>2020-08-29T09:34:38.140Z</time>
      </trkpt>
      <trkpt lat="62.7702" lon="17.91845">
        <ele>50.095014</ele>
        <time>2020-08-29T09:34:49.801Z</time>
      </trkpt>
      <trkpt lat="62.76995" lon="17.91899">
        <ele>50.555078</ele>
        <time>2020-08-29T09:34:58.030Z</time>
      </trkpt>
      <trkpt lat="62.7699" lon="17.91922">
        <ele>50.686494</ele>
        <time>2020-08-29T09:35:01.163Z</time>
      </trkpt>
      <trkpt lat="62.76982" lon="17.91969">
        <ele>50.938661</ele>
        <time>2020-08-29T09:35:05.986Z</time>
      </trkpt>
      <trkpt lat="62.76974" lon="17.92028">
        <ele>51.246284</ele>
        <time>2020-08-29T09:35:12.216Z</time>
      </trkpt>
      <trkpt lat="62.76958" lon="17.92115">
        <ele>51.715347</ele>
        <time>2020-08-29T09:35:21.040Z</time>
      </trkpt>
      <trkpt lat="62.76896" lon="17.92349">
        <ele>51.907068</ele>
        <time>2020-08-29T09:35:43.505Z</time>
      </trkpt>
      <trkpt lat="62.76819" lon="17.92624">
        <ele>50.370163</ele>
        <time>2020-08-29T09:36:07.139Z</time>
      </trkpt>
      <trkpt lat="62.76794" lon="17.9274">
        <ele>48.922952</ele>
        <time>2020-08-29T09:36:15.298Z</time>
      </trkpt>
      <trkpt lat="62.76779" lon="17.92837">
        <ele>47.771724</ele>
        <time>2020-08-29T09:36:21.481Z</time>
      </trkpt>
      <trkpt lat="62.76706" lon="17.93215">
        <ele>39.548768</ele>
        <time>2020-08-29T09:36:44.489Z</time>
      </trkpt>
      <trkpt lat="62.76687" lon="17.93425">
        <ele>35.975945</ele>
        <time>2020-08-29T09:36:56.379Z</time>
      </trkpt>
      <trkpt lat="62.76555" lon="17.9384">
        <ele>31.099908</ele>
        <time>2020-08-29T09:37:28.436Z</time>
      </trkpt>
      <trkpt lat="62.76536" lon="17.93884">
        <ele>30.800098</ele>
        <time>2020-08-29T09:37:34.203Z</time>
      </trkpt>
      <trkpt lat="62.76521" lon="17.93908">
        <ele>30.58707</ele>
        <time>2020-08-29T09:37:38.590Z</time>
      </trkpt>
      <trkpt lat="62.76455" lon="17.93966">
        <ele>32.063307</ele>
        <time>2020-08-29T09:37:56.433Z</time>
      </trkpt>
      <trkpt lat="62.76351" lon="17.94087">
        <ele>34.577004</ele>
        <time>2020-08-29T09:38:28.120Z</time>
      </trkpt>
      <trkpt lat="62.76106" lon="17.94496">
        <ele>36.604845</ele>
        <time>2020-08-29T09:39:30.673Z</time>
      </trkpt>
      <trkpt lat="62.75919" lon="17.94931">
        <ele>33.500798</ele>
        <time>2020-08-29T09:40:10.716Z</time>
      </trkpt>
      <trkpt lat="62.75533" lon="17.95468">
        <ele>28.938676</ele>
        <time>2020-08-29T09:41:22.232Z</time>
      </trkpt>
      <trkpt lat="62.75483" lon="17.95579">
        <ele>28.432973</ele>
        <time>2020-08-29T09:41:32.995Z</time>
      </trkpt>
      <trkpt lat="62.75427" lon="17.95643">
        <ele>28.120639</ele>
        <time>2020-08-29T09:41:42.952Z</time>
      </trkpt>
      <trkpt lat="62.75329" lon="17.95681">
        <ele>27.988536</ele>
        <time>2020-08-29T09:42:00.598Z</time>
      </trkpt>
      <trkpt lat="62.75309" lon="17.95677">
        <ele>28.246818</ele>
        <time>2020-08-29T09:42:04.790Z</time>
      </trkpt>
      <trkpt lat="62.7524" lon="17.95644">
        <ele>29.147729</ele>
        <time>2020-08-29T09:42:20.556Z</time>
      </trkpt>
      <trkpt lat="62.75202" lon="17.95603">
        <ele>29.69307</ele>
        <time>2020-08-29T09:42:30.636Z</time>
      </trkpt>
      <trkpt lat="62.75173" lon="17.9556">
        <ele>30.16594</ele>
        <time>2020-08-29T09:42:39.116Z</time>
      </trkpt>
      <trkpt lat="62.75137" lon="17.95528">
        <ele>30.766897</ele>
        <time>2020-08-29T09:42:48.403Z</time>
      </trkpt>
      <trkpt lat="62.74984" lon="17.95516">
        <ele>33.11509</ele>
        <time>2020-08-29T09:43:22.968Z</time>
      </trkpt>
      <trkpt lat="62.74922" lon="17.95541">
        <ele>33.888751</ele>
        <time>2020-08-29T09:43:36.466Z</time>
      </trkpt>
      <trkpt lat="62.74888" lon="17.95539">
        <ele>34.305905</ele>
        <time>2020-08-29T09:43:43.872Z</time>
      </trkpt>
      <trkpt lat="62.74828" lon="17.95514">
        <ele>35.047827</ele>
        <time>2020-08-29T09:43:57.209Z</time>
      </trkpt>
      <trkpt lat="62.74701" lon="17.9557">
        <ele>36.158222</ele>
        <time>2020-08-29T09:44:24.958Z</time>
      </trkpt>
      <trkpt lat="62.74654" lon="17.95631">
        <ele>36.573823</ele>
        <time>2020-08-29T09:44:35.483Z</time>
      </trkpt>
      <trkpt lat="62.74592" lon="17.95745">
        <ele>36.094527</ele>
        <time>2020-08-29T09:44:49.581Z</time>
      </trkpt>
      <trkpt lat="62.74491" lon="17.95867">
        <ele>35.226591</ele>
        <time>2020-08-29T09:45:07.243Z</time>
      </trkpt>
      <trkpt lat="62.74463" lon="17.95888">
        <ele>34.777824</ele>
        <time>2020-08-29T09:45:11.573Z</time>
      </trkpt>
      <trkpt lat="62.74447" lon="17.95896">
        <ele>34.524323</ele>
        <time>2020-08-29T09:45:13.994Z</time>
      </trkpt>
      <trkpt lat="62.74251" lon="17.95904">
        <ele>31.691109</ele>
        <time>2020-08-29T09:45:42.437Z</time>
      </trkpt>
      <trkpt lat="62.74204" lon="17.95901">
        <ele>31.060983</ele>
        <time>2020-08-29T09:45:49.494Z</time>
      </trkpt>
      <trkpt lat="62.74134" lon="17.95869">
        <ele>30.33086</ele>
        <time>2020-08-29T09:46:00.520Z</time>
      </trkpt>
      <trkpt lat="62.74113" lon="17.95842">
        <ele>30.256729</ele>
        <time>2020-08-29T09:46:04.554Z</time>
      </trkpt>
      <trkpt lat="62.74097" lon="17.9581">
        <ele>30.192702</ele>
        <time>2020-08-29T09:46:08.086Z</time>
      </trkpt>
      <trkpt lat="62.74082" lon="17.95758">
        <ele>30.107735</ele>
        <time>2020-08-29T09:46:12.898Z</time>
      </trkpt>
      <trkpt lat="62.74046" lon="17.95583">
        <ele>29.862326</ele>
        <time>2020-08-29T09:46:28.490Z</time>
      </trkpt>
      <trkpt lat="62.73959" lon="17.95213">
        <ele>30.310239</ele>
        <time>2020-08-29T09:47:04.311Z</time>
      </trkpt>
      <trkpt lat="62.73848" lon="17.94294">
        <ele>30.830336</ele>
        <time>2020-08-29T09:48:26.265Z</time>
      </trkpt>
      <trkpt lat="62.73827" lon="17.94227">
        <ele>30.620168</ele>
        <time>2020-08-29T09:48:32.305Z</time>
      </trkpt>
      <trkpt lat="62.73801" lon="17.94172">
        <ele>30.4159</ele>
        <time>2020-08-29T09:48:37.965Z</time>
      </trkpt>
      <trkpt lat="62.73695" lon="17.93975">
        <ele>26.763052</ele>
        <time>2020-08-29T09:48:56.663Z</time>
      </trkpt>
      <trkpt lat="62.73681" lon="17.93956">
        <ele>26.274778</ele>
        <time>2020-08-29T09:48:58.841Z</time>
      </trkpt>
      <trkpt lat="62.73661" lon="17.93989">
        <ele>25.54834</ele>
        <time>2020-08-29T09:49:02.016Z</time>
      </trkpt>
      <trkpt lat="62.73615" lon="17.9408">
        <ele>23.694208</ele>
        <time>2020-08-29T09:49:09.962Z</time>
      </trkpt>
      <trkpt lat="62.73592" lon="17.94174">
        <ele>22.224121</ele>
        <time>2020-08-29T09:49:16.198Z</time>
      </trkpt>
      <trkpt lat="62.73567" lon="17.94234">
        <ele>21.128241</ele>
        <time>2020-08-29T09:49:20.938Z</time>
      </trkpt>
      <trkpt lat="62.73546" lon="17.94269">
        <ele>20.334855</ele>
        <time>2020-08-29T09:49:24.607Z</time>
      </trkpt>
      <trkpt lat="62.73529" lon="17.94283">
        <ele>19.779682</ele>
        <time>2020-08-29T09:49:27.208Z</time>
      </trkpt>
      <trkpt lat="62.735" lon="17.94278">
        <ele>19.677297</ele>
        <time>2020-08-29T09:49:31.460Z</time>
      </trkpt>
      <trkpt lat="62.73386" lon="17.94164">
        <ele>19.675115</ele>
        <time>2020-08-29T09:49:53.098Z</time>
      </trkpt>
      <trkpt lat="62.73319" lon="17.94129">
        <ele>20.906062</ele>
        <time>2020-08-29T09:50:10.371Z</time>
      </trkpt>
      <trkpt lat="62.73282" lon="17.94123">
        <ele>22.054523</ele>
        <time>2020-08-29T09:50:20.733Z</time>
      </trkpt>
      <trkpt lat="62.73238" lon="17.94129">
        <ele>23.424763</ele>
        <time>2020-08-29T09:50:33.869Z</time>
      </trkpt>
      <trkpt lat="62.73169" lon="17.94168">
        <ele>25.52046</ele>
        <time>2020-08-29T09:50:55.001Z</time>
      </trkpt>
      <trkpt lat="62.73127" lon="17.94208">
        <ele>26.627829</ele>
        <time>2020-08-29T09:51:08.766Z</time>
      </trkpt>
      <trkpt lat="62.72989" lon="17.94572">
        <ele>30.033818</ele>
        <time>2020-08-29T09:51:59.385Z</time>
      </trkpt>
      <trkpt lat="62.72903" lon="17.9484">
        <ele>29.372733</ele>
        <time>2020-08-29T09:52:22.987Z</time>
      </trkpt>
      <trkpt lat="62.72818" lon="17.95007">
        <ele>27.506935</ele>
        <time>2020-08-29T09:52:38.991Z</time>
      </trkpt>
      <trkpt lat="62.72755" lon="17.9522">
        <ele>25.222615</ele>
        <time>2020-08-29T09:52:55.288Z</time>
      </trkpt>
      <trkpt lat="62.72725" lon="17.953">
        <ele>24.294664</ele>
        <time>2020-08-29T09:53:02.037Z</time>
      </trkpt>
      <trkpt lat="62.72698" lon="17.95363">
        <ele>23.634082</ele>
        <time>2020-08-29T09:53:07.673Z</time>
      </trkpt>
      <trkpt lat="62.72586" lon="17.95565">
        <ele>21.479762</ele>
        <time>2020-08-29T09:53:29.186Z</time>
      </trkpt>
      <trkpt lat="62.72522" lon="17.95713">
        <ele>20.53961</ele>
        <time>2020-08-29T09:53:43.447Z</time>
      </trkpt>
      <trkpt lat="62.72477" lon="17.95767">
        <ele>20.054991</ele>
        <time>2020-08-29T09:53:51.565Z</time>
      </trkpt>
      <trkpt lat="62.72363" lon="17.95956">
        <ele>19.130047</ele>
        <time>2020-08-29T09:54:14.823Z</time>
      </trkpt>
      <trkpt lat="62.7232" lon="17.96067">
        <ele>18.796941</ele>
        <time>2020-08-29T09:54:25.796Z</time>
      </trkpt>
      <trkpt lat="62.72234" lon="17.96233">
        <ele>19.136178</ele>
        <time>2020-08-29T09:54:45.705Z</time>
      </trkpt>
      <trkpt lat="62.72182" lon="17.96283">
        <ele>19.379972</ele>
        <time>2020-08-29T09:54:57.060Z</time>
      </trkpt>
      <trkpt lat="62.72145" lon="17.96304">
        <ele>19.773192</ele>
        <time>2020-08-29T09:55:05.650Z</time>
      </trkpt>
      <trkpt lat="62.71961" lon="17.96475">
        <ele>23.723279</ele>
        <time>2020-08-29T09:55:57.082Z</time>
      </trkpt>
      <trkpt lat="62.71937" lon="17.96492">
        <ele>23.945489</ele>
        <time>2020-08-29T09:56:02.974Z</time>
      </trkpt>
      <trkpt lat="62.71859" lon="17.96498">
        <ele>24.654551</ele>
        <time>2020-08-29T09:56:19.356Z</time>
      </trkpt>
      <trkpt lat="62.71822" lon="17.96543">
        <ele>25.04204</ele>
        <time>2020-08-29T09:56:26.741Z</time>
      </trkpt>
      <trkpt lat="62.71713" lon="17.96746">
        <ele>22.559038</ele>
        <time>2020-08-29T09:56:47.355Z</time>
      </trkpt>
      <trkpt lat="62.71605" lon="17.9699">
        <ele>19.380919</ele>
        <time>2020-08-29T09:57:08.416Z</time>
      </trkpt>
      <trkpt lat="62.71476" lon="17.97468">
        <ele>15.441421</ele>
        <time>2020-08-29T09:57:45.655Z</time>
      </trkpt>
      <trkpt lat="62.71446" lon="17.97574">
        <ele>15.774818</ele>
        <time>2020-08-29T09:57:54.916Z</time>
      </trkpt>
      <trkpt lat="62.71428" lon="17.9762">
        <ele>15.938992</ele>
        <time>2020-08-29T09:58:00.143Z</time>
      </trkpt>
      <trkpt lat="62.71401" lon="17.97643">
        <ele>16.110262</ele>
        <time>2020-08-29T09:58:06.587Z</time>
      </trkpt>
      <trkpt lat="62.71331" lon="17.97652">
        <ele>16.885573</ele>
        <time>2020-08-29T09:58:24.038Z</time>
      </trkpt>
      <trkpt lat="62.71302" lon="17.97665">
        <ele>17.697942</ele>
        <time>2020-08-29T09:58:31.684Z</time>
      </trkpt>
      <trkpt lat="62.71279" lon="17.97685">
        <ele>18.400364</ele>
        <time>2020-08-29T09:58:38.732Z</time>
      </trkpt>
      <trkpt lat="62.71259" lon="17.97719">
        <ele>19.095607</ele>
        <time>2020-08-29T09:58:45.933Z</time>
      </trkpt>
      <trkpt lat="62.71067" lon="17.98186">
        <ele>26.239833</ele>
        <time>2020-08-29T10:00:03.090Z</time>
      </trkpt>
      <trkpt lat="62.70908" lon="17.98376">
        <ele>26.953212</ele>
        <time>2020-08-29T10:00:35.606Z</time>
      </trkpt>
      <trkpt lat="62.7074" lon="17.9849">
        <ele>25.941645</ele>
        <time>2020-08-29T10:01:03.705Z</time>
      </trkpt>
      <trkpt lat="62.70519" lon="17.98663">
        <ele>24.103748</ele>
        <time>2020-08-29T10:01:41.856Z</time>
      </trkpt>
      <trkpt lat="62.70479" lon="17.98688">
        <ele>23.633451</ele>
        <time>2020-08-29T10:01:48.118Z</time>
      </trkpt>
      <trkpt lat="62.70411" lon="17.98714">
        <ele>22.842014</ele>
        <time>2020-08-29T10:01:58.188Z</time>
      </trkpt>
      <trkpt lat="62.69773" lon="17.98538">
        <ele>13.363851</ele>
        <time>2020-08-29T10:03:33.507Z</time>
      </trkpt>
      <trkpt lat="62.69716" lon="17.98523">
        <ele>12.370753</ele>
        <time>2020-08-29T10:03:41.332Z</time>
      </trkpt>
      <trkpt lat="62.69667" lon="17.98496">
        <ele>11.790024</ele>
        <time>2020-08-29T10:03:48.469Z</time>
      </trkpt>
      <trkpt lat="62.69582" lon="17.98397">
        <ele>10.850653</ele>
        <time>2020-08-29T10:04:02.743Z</time>
      </trkpt>
      <trkpt lat="62.69336" lon="17.98048">
        <ele>12.138018</ele>
        <time>2020-08-29T10:05:03.183Z</time>
      </trkpt>
      <trkpt lat="62.69264" lon="17.97972">
        <ele>12.51644</ele>
        <time>2020-08-29T10:05:18.938Z</time>
      </trkpt>
      <trkpt lat="62.6915" lon="17.97913">
        <ele>11.783626</ele>
        <time>2020-08-29T10:05:38.665Z</time>
      </trkpt>
      <trkpt lat="62.69044" lon="17.97876">
        <ele>10.690371</ele>
        <time>2020-08-29T10:05:54.086Z</time>
      </trkpt>
      <trkpt lat="62.69019" lon="17.9787">
        <ele>10.448355</ele>
        <time>2020-08-29T10:05:57.906Z</time>
      </trkpt>
      <trkpt lat="62.68987" lon="17.97899">
        <ele>10.110328</ele>
        <time>2020-08-29T10:06:03.070Z</time>
      </trkpt>
      <trkpt lat="62.68977" lon="17.97919">
        <ele>9.976105</ele>
        <time>2020-08-29T10:06:04.963Z</time>
      </trkpt>
      <trkpt lat="62.68951" lon="17.9785">
        <ele>9.579331</ele>
        <time>2020-08-29T10:06:11.373Z</time>
      </trkpt>
      <trkpt lat="62.68905" lon="17.97758">
        <ele>9.133217</ele>
        <time>2020-08-29T10:06:21.734Z</time>
      </trkpt>
      <trkpt lat="62.68812" lon="17.97623">
        <ele>9.834448</ele>
        <time>2020-08-29T10:06:44.246Z</time>
      </trkpt>
      <trkpt lat="62.6875" lon="17.9754">
        <ele>10.360876</ele>
        <time>2020-08-29T10:06:59.565Z</time>
      </trkpt>
      <trkpt lat="62.68706" lon="17.97481">
        <ele>10.947658</ele>
        <time>2020-08-29T10:07:10.565Z</time>
      </trkpt>
      <trkpt lat="62.68482" lon="17.97176">
        <ele>13.958319</ele>
        <time>2020-08-29T10:08:07.795Z</time>
      </trkpt>
      <trkpt lat="62.68337" lon="17.96903">
        <ele>15.675367</ele>
        <time>2020-08-29T10:08:48.420Z</time>
      </trkpt>
      <trkpt lat="62.68273" lon="17.9681">
        <ele>15.468689</ele>
        <time>2020-08-29T10:09:02.026Z</time>
      </trkpt>
      <trkpt lat="62.67975" lon="17.965">
        <ele>12.751813</ele>
        <time>2020-08-29T10:09:53.082Z</time>
      </trkpt>
      <trkpt lat="62.6789" lon="17.9643">
        <ele>12.195424</ele>
        <time>2020-08-29T10:10:07.438Z</time>
      </trkpt>
      <trkpt lat="62.67754" lon="17.96352">
        <ele>12.364201</ele>
        <time>2020-08-29T10:10:31.747Z</time>
      </trkpt>
      <trkpt lat="62.67402" lon="17.96021">
        <ele>15.010369</ele>
        <time>2020-08-29T10:11:51.134Z</time>
      </trkpt>
      <trkpt lat="62.67364" lon="17.9597">
        <ele>15.367532</ele>
        <time>2020-08-29T10:12:00.636Z</time>
      </trkpt>
      <trkpt lat="62.67307" lon="17.95839">
        <ele>15.149094</ele>
        <time>2020-08-29T10:12:16.524Z</time>
      </trkpt>
      <trkpt lat="62.67279" lon="17.95723">
        <ele>14.628522</ele>
        <time>2020-08-29T10:12:26.677Z</time>
      </trkpt>
      <trkpt lat="62.67167" lon="17.94925">
        <ele>6.167998</ele>
        <time>2020-08-29T10:13:19.204Z</time>
      </trkpt>
      <trkpt lat="62.67161" lon="17.94844">
        <ele>5.184357</ele>
        <time>2020-08-29T10:13:24.157Z</time>
      </trkpt>
      <trkpt lat="62.67159" lon="17.94722">
        <ele>4.04358</ele>
        <time>2020-08-29T10:13:31.571Z</time>
      </trkpt>
      <trkpt lat="62.67163" lon="17.94669">
        <ele>3.560132</ele>
        <time>2020-08-29T10:13:34.897Z</time>
      </trkpt>
      <trkpt lat="62.67178" lon="17.94566">
        <ele>2.572764</ele>
        <time>2020-08-29T10:13:41.846Z</time>
      </trkpt>
      <trkpt lat="62.672" lon="17.94467">
        <ele>1.577469</ele>
        <time>2020-08-29T10:13:49.233Z</time>
      </trkpt>
      <trkpt lat="62.6731" lon="17.9404">
        <ele>2.714635</ele>
        <time>2020-08-29T10:14:33.560Z</time>
      </trkpt>
      <trkpt lat="62.67379" lon="17.93845">
        <ele>4.297156</ele>
        <time>2020-08-29T10:15:00.040Z</time>
      </trkpt>
      <trkpt lat="62.67493" lon="17.93561">
        <ele>6.142868</ele>
        <time>2020-08-29T10:15:39.236Z</time>
      </trkpt>
      <trkpt lat="62.67661" lon="17.92997">
        <ele>4.669769</ele>
        <time>2020-08-29T10:16:28.923Z</time>
      </trkpt>
      <trkpt lat="62.67863" lon="17.92458">
        <ele>2.257271</ele>
        <time>2020-08-29T10:17:18.479Z</time>
      </trkpt>
      <trkpt lat="62.67897" lon="17.92347">
        <ele>2.244196</ele>
        <time>2020-08-29T10:17:29.517Z</time>
      </trkpt>
      <trkpt lat="62.67917" lon="17.92214">
        <ele>2.244535</ele>
        <time>2020-08-29T10:17:42.332Z</time>
      </trkpt>
      <trkpt lat="62.67921" lon="17.92094">
        <ele>3.006648</ele>
        <time>2020-08-29T10:17:54.255Z</time>
      </trkpt>
      <trkpt lat="62.67917" lon="17.92046">
        <ele>3.309625</ele>
        <time>2020-08-29T10:17:59.226Z</time>
      </trkpt>
      <trkpt lat="62.67898" lon="17.91936">
        <ele>4.061537</ele>
        <time>2020-08-29T10:18:11.898Z</time>
      </trkpt>
      <trkpt lat="62.67882" lon="17.91882">
        <ele>4.467583</ele>
        <time>2020-08-29T10:18:18.685Z</time>
      </trkpt>
      <trkpt lat="62.67851" lon="17.91811">
        <ele>5.027478</ele>
        <time>2020-08-29T10:18:28.757Z</time>
      </trkpt>
      <trkpt lat="62.67821" lon="17.91763">
        <ele>5.470096</ele>
        <time>2020-08-29T10:18:37.040Z</time>
      </trkpt>
      <trkpt lat="62.67798" lon="17.91734">
        <ele>5.788479</ele>
        <time>2020-08-29T10:18:42.903Z</time>
      </trkpt>
      <trkpt lat="62.67712" lon="17.91669">
        <ele>6.863946</ele>
        <time>2020-08-29T10:19:02.141Z</time>
      </trkpt>
      <trkpt lat="62.67689" lon="17.91643">
        <ele>7.089419</ele>
        <time>2020-08-29T10:19:07.528Z</time>
      </trkpt>
      <trkpt lat="62.6767" lon="17.91609">
        <ele>7.301621</ele>
        <time>2020-08-29T10:19:12.392Z</time>
      </trkpt>
      <trkpt lat="62.67645" lon="17.91532">
        <ele>7.674153</ele>
        <time>2020-08-29T10:19:20.889Z</time>
      </trkpt>
      <trkpt lat="62.67632" lon="17.9143">
        <ele>8.092802</ele>
        <time>2020-08-29T10:19:30.549Z</time>
      </trkpt>
      <trkpt lat="62.67619" lon="17.9098">
        <ele>10.91223</ele>
        <time>2020-08-29T10:20:16.062Z</time>
      </trkpt>
      <trkpt lat="62.67622" lon="17.90871">
        <ele>12.150653</ele>
        <time>2020-08-29T10:20:29.385Z</time>
      </trkpt>
      <trkpt lat="62.67635" lon="17.90762">
        <ele>13.523974</ele>
        <time>2020-08-29T10:20:43.619Z</time>
      </trkpt>
      <trkpt lat="62.67667" lon="17.90645">
        <ele>15.181322</ele>
        <time>2020-08-29T10:21:00.735Z</time>
      </trkpt>
      <trkpt lat="62.67698" lon="17.9056">
        <ele>16.210897</ele>
        <time>2020-08-29T10:21:14.306Z</time>
      </trkpt>
      <trkpt lat="62.67938" lon="17.8998">
        <ele>20.287762</ele>
        <time>2020-08-29T10:22:30.932Z</time>
      </trkpt>
      <trkpt lat="62.68234" lon="17.89305">
        <ele>20.342296</ele>
        <time>2020-08-29T10:23:42.758Z</time>
      </trkpt>
      <trkpt lat="62.68269" lon="17.89198">
        <ele>20.90609</ele>
        <time>2020-08-29T10:23:57.132Z</time>
      </trkpt>
      <trkpt lat="62.68289" lon="17.89063">
        <ele>22.663226</ele>
        <time>2020-08-29T10:24:14.782Z</time>
      </trkpt>
      <trkpt lat="62.68291" lon="17.89025">
        <ele>23.334731</ele>
        <time>2020-08-29T10:24:19.872Z</time>
      </trkpt>
      <trkpt lat="62.6829" lon="17.88952">
        <ele>24.648116</ele>
        <time>2020-08-29T10:24:30.374Z</time>
      </trkpt>
      <trkpt lat="62.68235" lon="17.88398">
        <ele>35.088266</ele>
        <time>2020-08-29T10:25:54.270Z</time>
      </trkpt>
      <trkpt lat="62.6822" lon="17.88321">
        <ele>35.671884</ele>
        <time>2020-08-29T10:26:04.274Z</time>
      </trkpt>
      <trkpt lat="62.68179" lon="17.88018">
        <ele>36.604244</ele>
        <time>2020-08-29T10:26:31.920Z</time>
      </trkpt>
      <trkpt lat="62.68162" lon="17.87941">
        <ele>35.504544</ele>
        <time>2020-08-29T10:26:37.485Z</time>
      </trkpt>
      <trkpt lat="62.68158" lon="17.87925">
        <ele>35.211266</ele>
        <time>2020-08-29T10:26:38.699Z</time>
      </trkpt>
      <trkpt lat="62.68154" lon="17.87914">
        <ele>34.993038</ele>
        <time>2020-08-29T10:26:39.468Z</time>
      </trkpt>
      <trkpt lat="62.6807" lon="17.87724">
        <ele>30.783214</ele>
        <time>2020-08-29T10:26:54.765Z</time>
      </trkpt>
      <trkpt lat="62.68" lon="17.87503">
        <ele>24.194638</ele>
        <time>2020-08-29T10:27:09.462Z</time>
      </trkpt>
      <trkpt lat="62.67964" lon="17.87427">
        <ele>21.453727</ele>
        <time>2020-08-29T10:27:15.313Z</time>
      </trkpt>
      <trkpt lat="62.67925" lon="17.87359">
        <ele>18.573167</ele>
        <time>2020-08-29T10:27:21.301Z</time>
      </trkpt>
      <trkpt lat="62.67862" lon="17.87249">
        <ele>13.894403</ele>
        <time>2020-08-29T10:27:30.815Z</time>
      </trkpt>
      <trkpt lat="62.67781" lon="17.87122">
        <ele>8.75372</ele>
        <time>2020-08-29T10:27:42.553Z</time>
      </trkpt>
      <trkpt lat="62.67771" lon="17.87093">
        <ele>8.088055</ele>
        <time>2020-08-29T10:27:44.789Z</time>
      </trkpt>
      <trkpt lat="62.67767" lon="17.8708">
        <ele>7.802469</ele>
        <time>2020-08-29T10:27:45.609Z</time>
      </trkpt>
      <trkpt lat="62.67758" lon="17.87064">
        <ele>7.378669</ele>
        <time>2020-08-29T10:27:47.014Z</time>
      </trkpt>
      <trkpt lat="62.67748" lon="17.86995">
        <ele>6.065161</ele>
        <time>2020-08-29T10:27:51.476Z</time>
      </trkpt>
      <trkpt lat="62.67745" lon="17.86928">
        <ele>4.86033</ele>
        <time>2020-08-29T10:27:55.673Z</time>
      </trkpt>
      <trkpt lat="62.67752" lon="17.86836">
        <ele>3.190472</ele>
        <time>2020-08-29T10:28:01.602Z</time>
      </trkpt>
      <trkpt lat="62.67763" lon="17.86774">
        <ele>2.917219</ele>
        <time>2020-08-29T10:28:06.037Z</time>
      </trkpt>
      <trkpt lat="62.6784" lon="17.86574">
        <ele>2.494624</ele>
        <time>2020-08-29T10:28:28.178Z</time>
      </trkpt>
      <trkpt lat="62.679" lon="17.86451">
        <ele>3.152877</ele>
        <time>2020-08-29T10:28:46.023Z</time>
      </trkpt>
      <trkpt lat="62.68069" lon="17.86055">
        <ele>7.413802</ele>
        <time>2020-08-29T10:29:47.849Z</time>
      </trkpt>
      <trkpt lat="62.68075" lon="17.86029">
        <ele>7.66338</ele>
        <time>2020-08-29T10:29:51.207Z</time>
      </trkpt>
      <trkpt lat="62.68111" lon="17.85942">
        <ele>8.56038</ele>
        <time>2020-08-29T10:30:04.096Z</time>
      </trkpt>
      <trkpt lat="62.68141" lon="17.85873">
        <ele>8.503914</ele>
        <time>2020-08-29T10:30:13.973Z</time>
      </trkpt>
      <trkpt lat="62.68181" lon="17.85758">
        <ele>8.418763</ele>
        <time>2020-08-29T10:30:26.852Z</time>
      </trkpt>
      <trkpt lat="62.68194" lon="17.85697">
        <ele>8.379003</ele>
        <time>2020-08-29T10:30:31.892Z</time>
      </trkpt>
      <trkpt lat="62.68212" lon="17.85475">
        <ele>6.688716</ele>
        <time>2020-08-29T10:30:47.133Z</time>
      </trkpt>
      <trkpt lat="62.68212" lon="17.85466">
        <ele>6.593422</ele>
        <time>2020-08-29T10:30:47.612Z</time>
      </trkpt>
      <trkpt lat="62.68211" lon="17.85441">
        <ele>6.308237</ele>
        <time>2020-08-29T10:30:49.163Z</time>
      </trkpt>
      <trkpt lat="62.68192" lon="17.85239">
        <ele>4.028825</ele>
        <time>2020-08-29T10:31:02.671Z</time>
      </trkpt>
      <trkpt lat="62.68188" lon="17.85203">
        <ele>3.884067</ele>
        <time>2020-08-29T10:31:05.021Z</time>
      </trkpt>
      <trkpt lat="62.68173" lon="17.85197">
        <ele>3.780844</ele>
        <time>2020-08-29T10:31:07.704Z</time>
      </trkpt>
      <trkpt lat="62.6815" lon="17.85191">
        <ele>3.627395</ele>
        <time>2020-08-29T10:31:10.789Z</time>
      </trkpt>
      <trkpt lat="62.68128" lon="17.85173">
        <ele>3.469522</ele>
        <time>2020-08-29T10:31:14.778Z</time>
      </trkpt>
      <trkpt lat="62.68098" lon="17.85121">
        <ele>3.206502</ele>
        <time>2020-08-29T10:31:21.401Z</time>
      </trkpt>
      <trkpt lat="62.68093" lon="17.85099">
        <ele>3.127504</ele>
        <time>2020-08-29T10:31:23.462Z</time>
      </trkpt>
      <trkpt lat="62.68095" lon="17.85085">
        <ele>3.083388</ele>
        <time>2020-08-29T10:31:24.670Z</time>
      </trkpt>
      <trkpt lat="62.68098" lon="17.85075">
        <ele>3.044612</ele>
        <time>2020-08-29T10:31:25.979Z</time>
      </trkpt>
      <trkpt lat="62.68059" lon="17.85001">
        <ele>2.921945</ele>
        <time>2020-08-29T10:31:36.858Z</time>
      </trkpt>
      <trkpt lat="62.68008" lon="17.84944">
        <ele>3.724068</ele>
        <time>2020-08-29T10:31:50.226Z</time>
      </trkpt>
      <trkpt lat="62.67996" lon="17.84932">
        <ele>3.921795</ele>
        <time>2020-08-29T10:31:53.563Z</time>
      </trkpt>
      <trkpt lat="62.67997" lon="17.84919">
        <ele>4.006069</ele>
        <time>2020-08-29T10:31:55.087Z</time>
      </trkpt>
      <trkpt lat="62.67999" lon="17.84869">
        <ele>4.328619</ele>
        <time>2020-08-29T10:32:00.388Z</time>
      </trkpt>
      <trkpt lat="62.67998" lon="17.84854">
        <ele>4.423491</ele>
        <time>2020-08-29T10:32:02.107Z</time>
      </trkpt>
      <trkpt lat="62.68015" lon="17.84848">
        <ele>4.659688</ele>
        <time>2020-08-29T10:32:06.075Z</time>
      </trkpt>
      <trkpt lat="62.68037" lon="17.84839">
        <ele>4.975295</ele>
        <time>2020-08-29T10:32:11.445Z</time>
      </trkpt>
      <trkpt lat="62.68044" lon="17.84828">
        <ele>5.098146</ele>
        <time>2020-08-29T10:32:13.470Z</time>
      </trkpt>
      <trkpt lat="62.68046" lon="17.84792">
        <ele>5.316306</ele>
        <time>2020-08-29T10:32:17.267Z</time>
      </trkpt>
      <trkpt lat="62.68038" lon="17.84775">
        <ele>5.399404</ele>
        <time>2020-08-29T10:32:20.079Z</time>
      </trkpt>
      <trkpt lat="62.67995" lon="17.84742">
        <ele>5.735529</ele>
        <time>2020-08-29T10:32:30.329Z</time>
      </trkpt>
      <trkpt lat="62.67962" lon="17.84703">
        <ele>6.018735</ele>
        <time>2020-08-29T10:32:38.380Z</time>
      </trkpt>
      <trkpt lat="62.67954" lon="17.8469">
        <ele>6.09669</ele>
        <time>2020-08-29T10:32:40.572Z</time>
      </trkpt>
      <trkpt lat="62.67941" lon="17.84668">
        <ele>6.218668</ele>
        <time>2020-08-29T10:32:43.723Z</time>
      </trkpt>
      <trkpt lat="62.67921" lon="17.84642">
        <ele>6.390744</ele>
        <time>2020-08-29T10:32:48.215Z</time>
      </trkpt>
      <trkpt lat="62.67906" lon="17.84625">
        <ele>6.51747</ele>
        <time>2020-08-29T10:32:51.406Z</time>
      </trkpt>
      <trkpt lat="62.67886" lon="17.846">
        <ele>6.628657</ele>
        <time>2020-08-29T10:32:55.723Z</time>
      </trkpt>
      <trkpt lat="62.67811" lon="17.84521">
        <ele>6.406014</ele>
        <time>2020-08-29T10:33:10.827Z</time>
      </trkpt>
      <trkpt lat="62.67649" lon="17.84318">
        <ele>5.922574</ele>
        <time>2020-08-29T10:33:43.012Z</time>
      </trkpt>
      <trkpt lat="62.67623" lon="17.84288">
        <ele>5.849656</ele>
        <time>2020-08-29T10:33:48.293Z</time>
      </trkpt>
      <trkpt lat="62.67605" lon="17.84271">
        <ele>5.80027</ele>
        <time>2020-08-29T10:33:51.933Z</time>
      </trkpt>
      <trkpt lat="62.67578" lon="17.84249">
        <ele>5.726535</ele>
        <time>2020-08-29T10:33:57.485Z</time>
      </trkpt>
      <trkpt lat="62.67572" lon="17.84245">
        <ele>5.716435</ele>
        <time>2020-08-29T10:33:58.530Z</time>
      </trkpt>
      <trkpt lat="62.67569" lon="17.84221">
        <ele>5.791149</ele>
        <time>2020-08-29T10:34:00.728Z</time>
      </trkpt>
      <trkpt lat="62.67573" lon="17.84207">
        <ele>5.838539</ele>
        <time>2020-08-29T10:34:02.153Z</time>
      </trkpt>
      <trkpt lat="62.67579" lon="17.84166">
        <ele>5.96653</ele>
        <time>2020-08-29T10:34:05.933Z</time>
      </trkpt>
      <trkpt lat="62.67445" lon="17.8404">
        <ele>6.942989</ele>
        <time>2020-08-29T10:34:36.588Z</time>
      </trkpt>
      <trkpt lat="62.67397" lon="17.84008">
        <ele>7.640566</ele>
        <time>2020-08-29T10:34:47.644Z</time>
      </trkpt>
      <trkpt lat="62.67385" lon="17.84003">
        <ele>7.801113</ele>
        <time>2020-08-29T10:34:50.239Z</time>
      </trkpt>
      <trkpt lat="62.67373" lon="17.83996">
        <ele>7.971927</ele>
        <time>2020-08-29T10:34:53.265Z</time>
      </trkpt>
      <trkpt lat="62.67277" lon="17.83964">
        <ele>9.30273</ele>
        <time>2020-08-29T10:35:16.318Z</time>
      </trkpt>
      <trkpt lat="62.67279" lon="17.83963">
        <ele>9.327462</ele>
        <time>2020-08-29T10:35:16.932Z</time>
      </trkpt>
      <trkpt lat="62.67234" lon="17.83957">
        <ele>10.134732</ele>
        <time>2020-08-29T10:35:27.749Z</time>
      </trkpt>
      <trkpt lat="62.67218" lon="17.83952">
        <ele>10.430862</ele>
        <time>2020-08-29T10:35:31.675Z</time>
      </trkpt>
      <trkpt lat="62.67148" lon="17.83951">
        <ele>11.695679</ele>
        <time>2020-08-29T10:35:48.935Z</time>
      </trkpt>
      <trkpt lat="62.67072" lon="17.83997">
        <ele>13.004771</ele>
        <time>2020-08-29T10:36:08.377Z</time>
      </trkpt>
      <trkpt lat="62.67052" lon="17.84006">
        <ele>13.281891</ele>
        <time>2020-08-29T10:36:13.034Z</time>
      </trkpt>
      <trkpt lat="62.67039" lon="17.84011">
        <ele>13.469707</ele>
        <time>2020-08-29T10:36:16.205Z</time>
      </trkpt>
      <trkpt lat="62.66913" lon="17.84061">
        <ele>15.148332</ele>
        <time>2020-08-29T10:36:45.137Z</time>
      </trkpt>
      <trkpt lat="62.66841" lon="17.84108">
        <ele>15.57165</ele>
        <time>2020-08-29T10:37:00.784Z</time>
      </trkpt>
      <trkpt lat="62.66784" lon="17.84166">
        <ele>15.924713</ele>
        <time>2020-08-29T10:37:13.162Z</time>
      </trkpt>
      <trkpt lat="62.6675" lon="17.84217">
        <ele>16.108241</ele>
        <time>2020-08-29T10:37:21.040Z</time>
      </trkpt>
      <trkpt lat="62.66714" lon="17.84277">
        <ele>16.138354</ele>
        <time>2020-08-29T10:37:29.570Z</time>
      </trkpt>
      <trkpt lat="62.66674" lon="17.84365">
        <ele>16.176237</ele>
        <time>2020-08-29T10:37:40.266Z</time>
      </trkpt>
      <trkpt lat="62.66639" lon="17.84458">
        <ele>16.212722</ele>
        <time>2020-08-29T10:37:50.472Z</time>
      </trkpt>
      <trkpt lat="62.66623" lon="17.84522">
        <ele>16.248524</ele>
        <time>2020-08-29T10:37:56.820Z</time>
      </trkpt>
      <trkpt lat="62.66531" lon="17.84875">
        <ele>16.489709</ele>
        <time>2020-08-29T10:38:32.298Z</time>
      </trkpt>
      <trkpt lat="62.66496" lon="17.84995">
        <ele>16.572471</ele>
        <time>2020-08-29T10:38:44.757Z</time>
      </trkpt>
      <trkpt lat="62.6647" lon="17.85058">
        <ele>16.620963</ele>
        <time>2020-08-29T10:38:52.065Z</time>
      </trkpt>
      <trkpt lat="62.66344" lon="17.85377">
        <ele>16.528127</ele>
        <time>2020-08-29T10:39:28.837Z</time>
      </trkpt>
      <trkpt lat="62.66306" lon="17.8545">
        <ele>16.369885</ele>
        <time>2020-08-29T10:39:37.087Z</time>
      </trkpt>
      <trkpt lat="62.6625" lon="17.8552">
        <ele>15.867665</ele>
        <time>2020-08-29T10:39:47.731Z</time>
      </trkpt>
      <trkpt lat="62.66243" lon="17.85538">
        <ele>15.785146</ele>
        <time>2020-08-29T10:39:49.523Z</time>
      </trkpt>
      <trkpt lat="62.66242" lon="17.85557">
        <ele>15.713886</ele>
        <time>2020-08-29T10:39:51.150Z</time>
      </trkpt>
      <trkpt lat="62.66243" lon="17.85569">
        <ele>15.670067</ele>
        <time>2020-08-29T10:39:52.053Z</time>
      </trkpt>
      <trkpt lat="62.66252" lon="17.85599">
        <ele>15.543469</ele>
        <time>2020-08-29T10:39:54.622Z</time>
      </trkpt>
      <trkpt lat="62.66262" lon="17.8563">
        <ele>15.405102</ele>
        <time>2020-08-29T10:39:57.719Z</time>
      </trkpt>
      <trkpt lat="62.66274" lon="17.85653">
        <ele>15.282888</ele>
        <time>2020-08-29T10:40:00.157Z</time>
      </trkpt>
      <trkpt lat="62.66267" lon="17.85685">
        <ele>15.152791</ele>
        <time>2020-08-29T10:40:03.009Z</time>
      </trkpt>
      <trkpt lat="62.66228" lon="17.85837">
        <ele>14.853397</ele>
        <time>2020-08-29T10:40:15.609Z</time>
      </trkpt>
      <trkpt lat="62.66212" lon="17.85982">
        <ele>14.624948</ele>
        <time>2020-08-29T10:40:27.373Z</time>
      </trkpt>
      <trkpt lat="62.66184" lon="17.86091">
        <ele>14.626417</ele>
        <time>2020-08-29T10:40:38.005Z</time>
      </trkpt>
      <trkpt lat="62.66147" lon="17.8617">
        <ele>15.014031</ele>
        <time>2020-08-29T10:40:48.064Z</time>
      </trkpt>
      <trkpt lat="62.66055" lon="17.86272">
        <ele>15.776526</ele>
        <time>2020-08-29T10:41:09.786Z</time>
      </trkpt>
      <trkpt lat="62.66016" lon="17.86308">
        <ele>16.270545</ele>
        <time>2020-08-29T10:41:18.843Z</time>
      </trkpt>
      <trkpt lat="62.65987" lon="17.86338">
        <ele>16.674506</ele>
        <time>2020-08-29T10:41:25.906Z</time>
      </trkpt>
      <trkpt lat="62.65961" lon="17.86377">
        <ele>17.068169</ele>
        <time>2020-08-29T10:41:32.787Z</time>
      </trkpt>
      <trkpt lat="62.6594" lon="17.86426">
        <ele>17.45652</ele>
        <time>2020-08-29T10:41:39.627Z</time>
      </trkpt>
      <trkpt lat="62.65916" lon="17.86518">
        <ele>18.067705</ele>
        <time>2020-08-29T10:41:50.422Z</time>
      </trkpt>
      <trkpt lat="62.65909" lon="17.86587">
        <ele>18.576302</ele>
        <time>2020-08-29T10:41:57.598Z</time>
      </trkpt>
      <trkpt lat="62.65907" lon="17.86838">
        <ele>20.390029</ele>
        <time>2020-08-29T10:42:22.789Z</time>
      </trkpt>
      <trkpt lat="62.65897" lon="17.86961">
        <ele>21.734495</ele>
        <time>2020-08-29T10:42:36.807Z</time>
      </trkpt>
      <trkpt lat="62.6586" lon="17.87164">
        <ele>25.171769</ele>
        <time>2020-08-29T10:43:05.307Z</time>
      </trkpt>
      <trkpt lat="62.65836" lon="17.87254">
        <ele>26.828724</ele>
        <time>2020-08-29T10:43:20.726Z</time>
      </trkpt>
      <trkpt lat="62.65792" lon="17.87339">
        <ele>29.39955</ele>
        <time>2020-08-29T10:43:40.039Z</time>
      </trkpt>
      <trkpt lat="62.65771" lon="17.87394">
        <ele>30.912827</ele>
        <time>2020-08-29T10:43:51.060Z</time>
      </trkpt>
      <trkpt lat="62.65737" lon="17.87525">
        <ele>34.080249</ele>
        <time>2020-08-29T10:44:13.964Z</time>
      </trkpt>
      <trkpt lat="62.65702" lon="17.87932">
        <ele>42.026947</ele>
        <time>2020-08-29T10:45:12.537Z</time>
      </trkpt>
      <trkpt lat="62.65633" lon="17.88415">
        <ele>51.777948</ele>
        <time>2020-08-29T10:46:25.089Z</time>
      </trkpt>
      <trkpt lat="62.656" lon="17.88558">
        <ele>54.97097</ele>
        <time>2020-08-29T10:46:49.030Z</time>
      </trkpt>
      <trkpt lat="62.65556" lon="17.88679">
        <ele>58.034949</ele>
        <time>2020-08-29T10:47:11.887Z</time>
      </trkpt>
      <trkpt lat="62.65524" lon="17.88738">
        <ele>59.467169</ele>
        <time>2020-08-29T10:47:24.248Z</time>
      </trkpt>
      <trkpt lat="62.6551" lon="17.88753">
        <ele>60.007055</ele>
        <time>2020-08-29T10:47:29.193Z</time>
      </trkpt>
      <trkpt lat="62.65497" lon="17.88762">
        <ele>60.47076</ele>
        <time>2020-08-29T10:47:32.869Z</time>
      </trkpt>
      <trkpt lat="62.6548" lon="17.88762">
        <ele>61.083461</ele>
        <time>2020-08-29T10:47:38.103Z</time>
      </trkpt>
      <trkpt lat="62.65477" lon="17.88715">
        <ele>61.825384</ele>
        <time>2020-08-29T10:47:43.987Z</time>
      </trkpt>
      <trkpt lat="62.65468" lon="17.88624">
        <ele>63.302848</ele>
        <time>2020-08-29T10:47:55.930Z</time>
      </trkpt>
      <trkpt lat="62.65456" lon="17.88573">
        <ele>64.235331</ele>
        <time>2020-08-29T10:48:03.333Z</time>
      </trkpt>
      <trkpt lat="62.65442" lon="17.88534">
        <ele>64.799133</ele>
        <time>2020-08-29T10:48:09.710Z</time>
      </trkpt>
      <trkpt lat="62.65433" lon="17.88513">
        <ele>65.136222</ele>
        <time>2020-08-29T10:48:13.134Z</time>
      </trkpt>
      <trkpt lat="62.65401" lon="17.8845">
        <ele>66.242387</ele>
        <time>2020-08-29T10:48:24.166Z</time>
      </trkpt>
      <trkpt lat="62.65365" lon="17.88383">
        <ele>67.449411</ele>
        <time>2020-08-29T10:48:36.028Z</time>
      </trkpt>
      <trkpt lat="62.65353" lon="17.88361">
        <ele>67.841657</ele>
        <time>2020-08-29T10:48:39.963Z</time>
      </trkpt>
      <trkpt lat="62.65341" lon="17.88339">
        <ele>68.226243</ele>
        <time>2020-08-29T10:48:43.816Z</time>
      </trkpt>
      <trkpt lat="62.65311" lon="17.88283">
        <ele>69.232536</ele>
        <time>2020-08-29T10:48:54.282Z</time>
      </trkpt>
      <trkpt lat="62.65299" lon="17.88267">
        <ele>69.580682</ele>
        <time>2020-08-29T10:48:58.193Z</time>
      </trkpt>
      <trkpt lat="62.65285" lon="17.8827">
        <ele>69.946467</ele>
        <time>2020-08-29T10:49:02.008Z</time>
      </trkpt>
      <trkpt lat="62.65273" lon="17.88293">
        <ele>70.350024</ele>
        <time>2020-08-29T10:49:06.392Z</time>
      </trkpt>
      <trkpt lat="62.65232" lon="17.88415">
        <ele>72.067416</ele>
        <time>2020-08-29T10:49:24.215Z</time>
      </trkpt>
      <trkpt lat="62.6522" lon="17.88458">
        <ele>72.648796</ele>
        <time>2020-08-29T10:49:30.150Z</time>
      </trkpt>
      <trkpt lat="62.65216" lon="17.88467">
        <ele>72.794601</ele>
        <time>2020-08-29T10:49:31.568Z</time>
      </trkpt>
      <trkpt lat="62.65214" lon="17.88471">
        <ele>72.856275</ele>
        <time>2020-08-29T10:49:32.167Z</time>
      </trkpt>
      <trkpt lat="62.6521" lon="17.88486">
        <ele>73.058523</ele>
        <time>2020-08-29T10:49:34.447Z</time>
      </trkpt>
      <trkpt lat="62.6517" lon="17.88756">
        <ele>75.776974</ele>
        <time>2020-08-29T10:50:07.640Z</time>
      </trkpt>
      <trkpt lat="62.65155" lon="17.88799">
        <ele>76.290709</ele>
        <time>2020-08-29T10:50:14.023Z</time>
      </trkpt>
      <trkpt lat="62.65012" lon="17.89151">
        <ele>79.788541</ele>
        <time>2020-08-29T10:51:05.242Z</time>
      </trkpt>
      <trkpt lat="62.64982" lon="17.89224">
        <ele>80.216789</ele>
        <time>2020-08-29T10:51:15.171Z</time>
      </trkpt>
      <trkpt lat="62.64978" lon="17.89234">
        <ele>80.274317</ele>
        <time>2020-08-29T10:51:16.578Z</time>
      </trkpt>
      <trkpt lat="62.64936" lon="17.89342">
        <ele>80.894179</ele>
        <time>2020-08-29T10:51:30.411Z</time>
      </trkpt>
      <trkpt lat="62.64925" lon="17.89363">
        <ele>81.034477</ele>
        <time>2020-08-29T10:51:33.552Z</time>
      </trkpt>
      <trkpt lat="62.64917" lon="17.89374">
        <ele>81.121176</ele>
        <time>2020-08-29T10:51:35.419Z</time>
      </trkpt>
      <trkpt lat="62.64855" lon="17.89448">
        <ele>81.263935</ele>
        <time>2020-08-29T10:51:49.913Z</time>
      </trkpt>
      <trkpt lat="62.64833" lon="17.8938">
        <ele>81.007681</ele>
        <time>2020-08-29T10:51:57.570Z</time>
      </trkpt>
      <trkpt lat="62.64819" lon="17.8933">
        <ele>80.824465</ele>
        <time>2020-08-29T10:52:02.981Z</time>
      </trkpt>
      <trkpt lat="62.64801" lon="17.89275">
        <ele>80.619173</ele>
        <time>2020-08-29T10:52:08.225Z</time>
      </trkpt>
      <trkpt lat="62.64752" lon="17.89337">
        <ele>79.936981</ele>
        <time>2020-08-29T10:52:16.516Z</time>
      </trkpt>
      <trkpt lat="62.64709" lon="17.89391">
        <ele>77.334668</ele>
        <time>2020-08-29T10:52:23.128Z</time>
      </trkpt>
      <trkpt lat="62.64686" lon="17.8942">
        <ele>75.917018</ele>
        <time>2020-08-29T10:52:26.617Z</time>
      </trkpt>
      <trkpt lat="62.64661" lon="17.89451">
        <ele>74.406607</ele>
        <time>2020-08-29T10:52:30.186Z</time>
      </trkpt>
      <trkpt lat="62.64555" lon="17.89589">
        <ele>67.132169</ele>
        <time>2020-08-29T10:52:44.945Z</time>
      </trkpt>
      <trkpt lat="62.64524" lon="17.8962">
        <ele>64.86429</ele>
        <time>2020-08-29T10:52:49.051Z</time>
      </trkpt>
      <trkpt lat="62.6452" lon="17.89623">
        <ele>64.601036</ele>
        <time>2020-08-29T10:52:49.474Z</time>
      </trkpt>
      <trkpt lat="62.64511" lon="17.89629">
        <ele>63.96134</ele>
        <time>2020-08-29T10:52:50.686Z</time>
      </trkpt>
      <trkpt lat="62.64513" lon="17.89597">
        <ele>62.954139</ele>
        <time>2020-08-29T10:52:52.670Z</time>
      </trkpt>
      <trkpt lat="62.64521" lon="17.89481">
        <ele>59.395194</ele>
        <time>2020-08-29T10:52:59.265Z</time>
      </trkpt>
      <trkpt lat="62.64522" lon="17.89462">
        <ele>58.852241</ele>
        <time>2020-08-29T10:53:00.467Z</time>
      </trkpt>
      <trkpt lat="62.64508" lon="17.89456">
        <ele>58.419304</ele>
        <time>2020-08-29T10:53:02.455Z</time>
      </trkpt>
      <trkpt lat="62.64498" lon="17.89444">
        <ele>58.106813</ele>
        <time>2020-08-29T10:53:03.674Z</time>
      </trkpt>
      <trkpt lat="62.64487" lon="17.89443">
        <ele>57.788306</ele>
        <time>2020-08-29T10:53:05.229Z</time>
      </trkpt>
      <trkpt lat="62.64464" lon="17.89443">
        <ele>57.12306</ele>
        <time>2020-08-29T10:53:08.071Z</time>
      </trkpt>
      <trkpt lat="62.64458" lon="17.89455">
        <ele>56.890596</ele>
        <time>2020-08-29T10:53:09.248Z</time>
      </trkpt>
      <trkpt lat="62.64453" lon="17.89458">
        <ele>56.734904</ele>
        <time>2020-08-29T10:53:10.109Z</time>
      </trkpt>
      <trkpt lat="62.64444" lon="17.89453">
        <ele>56.469612</ele>
        <time>2020-08-29T10:53:11.530Z</time>
      </trkpt>
      <trkpt lat="62.64445" lon="17.89432">
        <ele>56.197317</ele>
        <time>2020-08-29T10:53:12.937Z</time>
      </trkpt>
      <trkpt lat="62.64417" lon="17.89416">
        <ele>55.362751</ele>
        <time>2020-08-29T10:53:18.707Z</time>
      </trkpt>
      <trkpt lat="62.64413" lon="17.89415">
        <ele>55.24206</ele>
        <time>2020-08-29T10:53:19.290Z</time>
      </trkpt>
      <trkpt lat="62.64407" lon="17.89416">
        <ele>55.078531</ele>
        <time>2020-08-29T10:53:20.071Z</time>
      </trkpt>
      <trkpt lat="62.64371" lon="17.89403">
        <ele>54.021033</ele>
        <time>2020-08-29T10:53:25.279Z</time>
      </trkpt>
      <trkpt lat="62.64367" lon="17.89346">
        <ele>53.360081</ele>
        <time>2020-08-29T10:53:29.057Z</time>
      </trkpt>
      <trkpt lat="62.64366" lon="17.89299">
        <ele>52.855084</ele>
        <time>2020-08-29T10:53:32.291Z</time>
      </trkpt>
      <trkpt lat="62.64364" lon="17.89277">
        <ele>52.623788</ele>
        <time>2020-08-29T10:53:33.885Z</time>
      </trkpt>
      <trkpt lat="62.64361" lon="17.89242">
        <ele>52.245813</ele>
        <time>2020-08-29T10:53:36.082Z</time>
      </trkpt>
      <trkpt lat="62.6433" lon="17.88974">
        <ele>49.221653</ele>
        <time>2020-08-29T10:53:53.635Z</time>
      </trkpt>
      <trkpt lat="62.64325" lon="17.88949">
        <ele>48.836148</ele>
        <time>2020-08-29T10:53:55.086Z</time>
      </trkpt>
      <trkpt lat="62.64322" lon="17.88937">
        <ele>48.639792</ele>
        <time>2020-08-29T10:53:55.894Z</time>
      </trkpt>
      <trkpt lat="62.64317" lon="17.8892">
        <ele>48.354516</ele>
        <time>2020-08-29T10:53:57.237Z</time>
      </trkpt>
      <trkpt lat="62.64307" lon="17.88893">
        <ele>47.835586</ele>
        <time>2020-08-29T10:53:59.314Z</time>
      </trkpt>
      <trkpt lat="62.64301" lon="17.88902">
        <ele>47.613376</ele>
        <time>2020-08-29T10:54:00.210Z</time>
      </trkpt>
      <trkpt lat="62.64251" lon="17.88953">
        <ele>45.876508</ele>
        <time>2020-08-29T10:54:07.578Z</time>
      </trkpt>
      <trkpt lat="62.64247" lon="17.88933">
        <ele>45.551435</ele>
        <time>2020-08-29T10:54:08.787Z</time>
      </trkpt>
      <trkpt lat="62.6422" lon="17.88786">
        <ele>43.514627</ele>
        <time>2020-08-29T10:54:18.322Z</time>
      </trkpt>
      <trkpt lat="62.64187" lon="17.88687">
        <ele>42.468321</ele>
        <time>2020-08-29T10:54:26.151Z</time>
      </trkpt>
      <trkpt lat="62.64178" lon="17.88666">
        <ele>42.217377</ele>
        <time>2020-08-29T10:54:27.873Z</time>
      </trkpt>
      <trkpt lat="62.6417" lon="17.88644">
        <ele>41.966433</ele>
        <time>2020-08-29T10:54:29.815Z</time>
      </trkpt>
      <trkpt lat="62.64152" lon="17.88606">
        <ele>41.497921</ele>
        <time>2020-08-29T10:54:33.499Z</time>
      </trkpt>
      <trkpt lat="62.64044" lon="17.88457">
        <ele>40.288856</ele>
        <time>2020-08-29T10:54:53.872Z</time>
      </trkpt>
      <trkpt lat="62.64021" lon="17.88418">
        <ele>40.20155</ele>
        <time>2020-08-29T10:54:59.036Z</time>
      </trkpt>
      <trkpt lat="62.64002" lon="17.88375">
        <ele>40.118396</ele>
        <time>2020-08-29T10:55:04.026Z</time>
      </trkpt>
      <trkpt lat="62.63973" lon="17.88294">
        <ele>39.973692</ele>
        <time>2020-08-29T10:55:12.730Z</time>
      </trkpt>
      <trkpt lat="62.63947" lon="17.88171">
        <ele>39.480832</ele>
        <time>2020-08-29T10:55:24.147Z</time>
      </trkpt>
      <trkpt lat="62.63925" lon="17.87914">
        <ele>38.491551</ele>
        <time>2020-08-29T10:55:42.512Z</time>
      </trkpt>
      <trkpt lat="62.63921" lon="17.8787">
        <ele>37.890543</ele>
        <time>2020-08-29T10:55:45.688Z</time>
      </trkpt>
      <trkpt lat="62.63918" lon="17.87837">
        <ele>37.452564</ele>
        <time>2020-08-29T10:55:47.699Z</time>
      </trkpt>
      <trkpt lat="62.63894" lon="17.87678">
        <ele>35.26192</ele>
        <time>2020-08-29T10:55:57.940Z</time>
      </trkpt>
      <trkpt lat="62.63873" lon="17.87589">
        <ele>33.953392</ele>
        <time>2020-08-29T10:56:03.891Z</time>
      </trkpt>
      <trkpt lat="62.63861" lon="17.87536">
        <ele>33.082434</ele>
        <time>2020-08-29T10:56:07.299Z</time>
      </trkpt>
      <trkpt lat="62.63855" lon="17.87513">
        <ele>32.59679</ele>
        <time>2020-08-29T10:56:08.896Z</time>
      </trkpt>
      <trkpt lat="62.6381" lon="17.8729">
        <ele>28.221972</ele>
        <time>2020-08-29T10:56:22.925Z</time>
      </trkpt>
      <trkpt lat="62.63785" lon="17.87076">
        <ele>24.836261</ele>
        <time>2020-08-29T10:56:35.743Z</time>
      </trkpt>
      <trkpt lat="62.63779" lon="17.86969">
        <ele>23.438251</ele>
        <time>2020-08-29T10:56:42.243Z</time>
      </trkpt>
      <trkpt lat="62.63787" lon="17.86782">
        <ele>21.245272</ele>
        <time>2020-08-29T10:56:54.224Z</time>
      </trkpt>
      <trkpt lat="62.6381" lon="17.86401">
        <ele>20.569607</ele>
        <time>2020-08-29T10:57:24.823Z</time>
      </trkpt>
      <trkpt lat="62.63812" lon="17.8636">
        <ele>20.634682</ele>
        <time>2020-08-29T10:57:28.683Z</time>
      </trkpt>
      <trkpt lat="62.63817" lon="17.86113">
        <ele>21.027418</ele>
        <time>2020-08-29T10:57:50.934Z</time>
      </trkpt>
      <trkpt lat="62.63806" lon="17.85926">
        <ele>21.257182</ele>
        <time>2020-08-29T10:58:07.004Z</time>
      </trkpt>
      <trkpt lat="62.63784" lon="17.85759">
        <ele>21.411561</ele>
        <time>2020-08-29T10:58:21.410Z</time>
      </trkpt>
      <trkpt lat="62.63768" lon="17.85624">
        <ele>21.645414</ele>
        <time>2020-08-29T10:58:33.029Z</time>
      </trkpt>
      <trkpt lat="62.6375" lon="17.85469">
        <ele>22.569417</ele>
        <time>2020-08-29T10:58:47.586Z</time>
      </trkpt>
      <trkpt lat="62.63746" lon="17.85368">
        <ele>23.153078</ele>
        <time>2020-08-29T10:58:57.666Z</time>
      </trkpt>
      <trkpt lat="62.63744" lon="17.85319">
        <ele>23.442796</ele>
        <time>2020-08-29T10:59:02.893Z</time>
      </trkpt>
      <trkpt lat="62.63743" lon="17.85281">
        <ele>23.661448</ele>
        <time>2020-08-29T10:59:07.034Z</time>
      </trkpt>
      <trkpt lat="62.63724" lon="17.84712">
        <ele>32.612243</ele>
        <time>2020-08-29T11:00:23.249Z</time>
      </trkpt>
      <trkpt lat="62.63721" lon="17.84676">
        <ele>33.278343</ele>
        <time>2020-08-29T11:00:29.283Z</time>
      </trkpt>
      <trkpt lat="62.63719" lon="17.84579">
        <ele>35.019586</ele>
        <time>2020-08-29T11:00:43.000Z</time>
      </trkpt>
      <trkpt lat="62.63712" lon="17.84447">
        <ele>37.292441</ele>
        <time>2020-08-29T11:01:02.051Z</time>
      </trkpt>
      <trkpt lat="62.63711" lon="17.84359">
        <ele>38.549322</ele>
        <time>2020-08-29T11:01:14.221Z</time>
      </trkpt>
      <trkpt lat="62.63712" lon="17.84131">
        <ele>41.829094</ele>
        <time>2020-08-29T11:01:41.844Z</time>
      </trkpt>
      <trkpt lat="62.63729" lon="17.83877">
        <ele>44.943982</ele>
        <time>2020-08-29T11:02:13.238Z</time>
      </trkpt>
      <trkpt lat="62.63729" lon="17.83869">
        <ele>45.038222</ele>
        <time>2020-08-29T11:02:14.845Z</time>
      </trkpt>
      <trkpt lat="62.63742" lon="17.83755">
        <ele>46.41275</ele>
        <time>2020-08-29T11:02:28.720Z</time>
      </trkpt>
      <trkpt lat="62.63787" lon="17.83352">
        <ele>49.635988</ele>
        <time>2020-08-29T11:03:13.295Z</time>
      </trkpt>
      <trkpt lat="62.63811" lon="17.83097">
        <ele>50.104655</ele>
        <time>2020-08-29T11:03:36.273Z</time>
      </trkpt>
      <trkpt lat="62.63817" lon="17.8299">
        <ele>50.229987</ele>
        <time>2020-08-29T11:03:44.939Z</time>
      </trkpt>
      <trkpt lat="62.63819" lon="17.82896">
        <ele>50.135454</ele>
        <time>2020-08-29T11:03:52.180Z</time>
      </trkpt>
      <trkpt lat="62.63818" lon="17.82702">
        <ele>49.459473</ele>
        <time>2020-08-29T11:04:06.410Z</time>
      </trkpt>
      <trkpt lat="62.63807" lon="17.82511">
        <ele>48.841847</ele>
        <time>2020-08-29T11:04:20.130Z</time>
      </trkpt>
      <trkpt lat="62.63796" lon="17.82394">
        <ele>48.587023</ele>
        <time>2020-08-29T11:04:28.825Z</time>
      </trkpt>
      <trkpt lat="62.63763" lon="17.82146">
        <ele>48.085432</ele>
        <time>2020-08-29T11:04:49.144Z</time>
      </trkpt>
      <trkpt lat="62.63755" lon="17.82092">
        <ele>48.080849</ele>
        <time>2020-08-29T11:04:53.738Z</time>
      </trkpt>
      <trkpt lat="62.63752" lon="17.82074">
        <ele>48.079281</ele>
        <time>2020-08-29T11:04:55.405Z</time>
      </trkpt>
      <trkpt lat="62.63742" lon="17.82007">
        <ele>48.073542</ele>
        <time>2020-08-29T11:05:01.361Z</time>
      </trkpt>
      <trkpt lat="62.63665" lon="17.81541">
        <ele>47.73191</ele>
        <time>2020-08-29T11:05:41.927Z</time>
      </trkpt>
      <trkpt lat="62.63643" lon="17.81446">
        <ele>47.607347</ele>
        <time>2020-08-29T11:05:49.781Z</time>
      </trkpt>
      <trkpt lat="62.63631" lon="17.81404">
        <ele>47.477801</ele>
        <time>2020-08-29T11:05:53.345Z</time>
      </trkpt>
      <trkpt lat="62.63586" lon="17.81275">
        <ele>46.99464</ele>
        <time>2020-08-29T11:06:05.128Z</time>
      </trkpt>
      <trkpt lat="62.63575" lon="17.81251">
        <ele>46.893732</ele>
        <time>2020-08-29T11:06:07.590Z</time>
      </trkpt>
      <trkpt lat="62.63566" lon="17.8123">
        <ele>46.808191</ele>
        <time>2020-08-29T11:06:09.600Z</time>
      </trkpt>
      <trkpt lat="62.63448" lon="17.81027">
        <ele>46.455019</ele>
        <time>2020-08-29T11:06:34.935Z</time>
      </trkpt>
      <trkpt lat="62.6342" lon="17.80975">
        <ele>46.465274</ele>
        <time>2020-08-29T11:06:41.903Z</time>
      </trkpt>
      <trkpt lat="62.63417" lon="17.8097">
        <ele>46.466216</ele>
        <time>2020-08-29T11:06:42.695Z</time>
      </trkpt>
      <trkpt lat="62.63397" lon="17.80922">
        <ele>46.474485</ele>
        <time>2020-08-29T11:06:48.183Z</time>
      </trkpt>
      <trkpt lat="62.63393" lon="17.80911">
        <ele>46.476256</ele>
        <time>2020-08-29T11:06:49.584Z</time>
      </trkpt>
      <trkpt lat="62.63365" lon="17.80835">
        <ele>46.79147</ele>
        <time>2020-08-29T11:06:58.328Z</time>
      </trkpt>
      <trkpt lat="62.6331" lon="17.80641">
        <ele>47.75932</ele>
        <time>2020-08-29T11:07:19.628Z</time>
      </trkpt>
      <trkpt lat="62.63239" lon="17.8032">
        <ele>50.25189</ele>
        <time>2020-08-29T11:07:57.325Z</time>
      </trkpt>
      <trkpt lat="62.63229" lon="17.80244">
        <ele>50.880012</ele>
        <time>2020-08-29T11:08:06.280Z</time>
      </trkpt>
      <trkpt lat="62.63222" lon="17.80164">
        <ele>51.425041</ele>
        <time>2020-08-29T11:08:15.447Z</time>
      </trkpt>
      <trkpt lat="62.6322" lon="17.80108">
        <ele>51.697303</ele>
        <time>2020-08-29T11:08:21.462Z</time>
      </trkpt>
      <trkpt lat="62.63215" lon="17.79989">
        <ele>52.275884</ele>
        <time>2020-08-29T11:08:33.904Z</time>
      </trkpt>
      <trkpt lat="62.63211" lon="17.79884">
        <ele>52.791585</ele>
        <time>2020-08-29T11:08:43.969Z</time>
      </trkpt>
      <trkpt lat="62.63192" lon="17.7969">
        <ele>52.762566</ele>
        <time>2020-08-29T11:08:59.877Z</time>
      </trkpt>
      <trkpt lat="62.63176" lon="17.79601">
        <ele>52.455661</ele>
        <time>2020-08-29T11:09:06.744Z</time>
      </trkpt>
      <trkpt lat="62.631" lon="17.79275">
        <ele>51.262258</ele>
        <time>2020-08-29T11:09:32.481Z</time>
      </trkpt>
      <trkpt lat="62.63085" lon="17.79186">
        <ele>50.947542</ele>
        <time>2020-08-29T11:09:39.585Z</time>
      </trkpt>
      <trkpt lat="62.63069" lon="17.79035">
        <ele>50.564162</ele>
        <time>2020-08-29T11:09:51.755Z</time>
      </trkpt>
      <trkpt lat="62.63065" lon="17.78978">
        <ele>50.519861</ele>
        <time>2020-08-29T11:09:56.409Z</time>
      </trkpt>
      <trkpt lat="62.63065" lon="17.78969">
        <ele>50.512598</ele>
        <time>2020-08-29T11:09:57.311Z</time>
      </trkpt>
      <trkpt lat="62.63056" lon="17.78693">
        <ele>50.305549</ele>
        <time>2020-08-29T11:10:19.259Z</time>
      </trkpt>
      <trkpt lat="62.63049" lon="17.78584">
        <ele>50.450328</ele>
        <time>2020-08-29T11:10:28.217Z</time>
      </trkpt>
      <trkpt lat="62.63016" lon="17.78591">
        <ele>50.544106</ele>
        <time>2020-08-29T11:10:33.968Z</time>
      </trkpt>
      <trkpt lat="62.6297" lon="17.78577">
        <ele>50.677218</ele>
        <time>2020-08-29T11:10:42.415Z</time>
      </trkpt>
      <trkpt lat="62.62803" lon="17.78478">
        <ele>52.573179</ele>
        <time>2020-08-29T11:11:19.304Z</time>
      </trkpt>
      <trkpt lat="62.62767" lon="17.78414">
        <ele>53.231012</ele>
        <time>2020-08-29T11:11:31.004Z</time>
      </trkpt>
      <trkpt lat="62.62682" lon="17.78181">
        <ele>55.207386</ele>
        <time>2020-08-29T11:12:03.674Z</time>
      </trkpt>
      <trkpt lat="62.62625" lon="17.78067">
        <ele>55.748317</ele>
        <time>2020-08-29T11:12:19.359Z</time>
      </trkpt>
      <trkpt lat="62.62098" lon="17.77291">
        <ele>50.649568</ele>
        <time>2020-08-29T11:13:58.484Z</time>
      </trkpt>
      <trkpt lat="62.6204" lon="17.77205">
        <ele>50.200148</ele>
        <time>2020-08-29T11:14:10.280Z</time>
      </trkpt>
      <trkpt lat="62.62111" lon="17.7683">
        <ele>49.892547</ele>
        <time>2020-08-29T11:14:43.188Z</time>
      </trkpt>
      <trkpt lat="62.62141" lon="17.7666">
        <ele>49.778405</ele>
        <time>2020-08-29T11:14:57.749Z</time>
      </trkpt>
      <trkpt lat="62.62152" lon="17.76535">
        <ele>49.698935</ele>
        <time>2020-08-29T11:15:07.783Z</time>
      </trkpt>
      <trkpt lat="62.62153" lon="17.76458">
        <ele>49.693287</ele>
        <time>2020-08-29T11:15:13.924Z</time>
      </trkpt>
      <trkpt lat="62.62142" lon="17.7625">
        <ele>49.802321</ele>
        <time>2020-08-29T11:15:30.854Z</time>
      </trkpt>
      <trkpt lat="62.62145" lon="17.76039">
        <ele>50.158989</ele>
        <time>2020-08-29T11:15:49.278Z</time>
      </trkpt>
      <trkpt lat="62.62227" lon="17.74832">
        <ele>55.385869</ele>
        <time>2020-08-29T11:17:47.320Z</time>
      </trkpt>
      <trkpt lat="62.62245" lon="17.74707">
        <ele>55.878085</ele>
        <time>2020-08-29T11:17:59.174Z</time>
      </trkpt>
      <trkpt lat="62.62333" lon="17.74303">
        <ele>57.674553</ele>
        <time>2020-08-29T11:18:41.971Z</time>
      </trkpt>
      <trkpt lat="62.62372" lon="17.74126">
        <ele>58.109419</ele>
        <time>2020-08-29T11:19:00.717Z</time>
      </trkpt>
      <trkpt lat="62.62396" lon="17.74017">
        <ele>58.174876</ele>
        <time>2020-08-29T11:19:11.309Z</time>
      </trkpt>
      <trkpt lat="62.62434" lon="17.73775">
        <ele>57.652234</ele>
        <time>2020-08-29T11:19:30.553Z</time>
      </trkpt>
      <trkpt lat="62.62508" lon="17.7324">
        <ele>53.294432</ele>
        <time>2020-08-29T11:20:07.426Z</time>
      </trkpt>
      <trkpt lat="62.62538" lon="17.73065">
        <ele>51.633732</ele>
        <time>2020-08-29T11:20:19.337Z</time>
      </trkpt>
      <trkpt lat="62.62566" lon="17.72922">
        <ele>50.312792</ele>
        <time>2020-08-29T11:20:29.402Z</time>
      </trkpt>
      <trkpt lat="62.6259" lon="17.72817">
        <ele>49.322745</ele>
        <time>2020-08-29T11:20:37.118Z</time>
      </trkpt>
      <trkpt lat="62.62607" lon="17.72762">
        <ele>48.768081</ele>
        <time>2020-08-29T11:20:41.622Z</time>
      </trkpt>
      <trkpt lat="62.62648" lon="17.72687">
        <ele>48.560375</ele>
        <time>2020-08-29T11:20:49.678Z</time>
      </trkpt>
      <trkpt lat="62.62831" lon="17.72483">
        <ele>49.27769</ele>
        <time>2020-08-29T11:21:26.713Z</time>
      </trkpt>
      <trkpt lat="62.62924" lon="17.72359">
        <ele>51.189671</ele>
        <time>2020-08-29T11:21:54.401Z</time>
      </trkpt>
      <trkpt lat="62.62964" lon="17.72264">
        <ele>53.79316</ele>
        <time>2020-08-29T11:22:12.772Z</time>
      </trkpt>
      <trkpt lat="62.63" lon="17.72151">
        <ele>56.573001</ele>
        <time>2020-08-29T11:22:34.228Z</time>
      </trkpt>
      <trkpt lat="62.63074" lon="17.71916">
        <ele>62.722792</ele>
        <time>2020-08-29T11:23:18.766Z</time>
      </trkpt>
      <trkpt lat="62.63086" lon="17.71875">
        <ele>63.824568</ele>
        <time>2020-08-29T11:23:26.383Z</time>
      </trkpt>
      <trkpt lat="62.63128" lon="17.71706">
        <ele>68.155151</ele>
        <time>2020-08-29T11:23:55.265Z</time>
      </trkpt>
      <trkpt lat="62.63137" lon="17.7163">
        <ele>69.969609</ele>
        <time>2020-08-29T11:24:07.139Z</time>
      </trkpt>
      <trkpt lat="62.63152" lon="17.71431">
        <ele>74.595088</ele>
        <time>2020-08-29T11:24:38.197Z</time>
      </trkpt>
      <trkpt lat="62.63162" lon="17.71346">
        <ele>76.627649</ele>
        <time>2020-08-29T11:24:52.584Z</time>
      </trkpt>
      <trkpt lat="62.63175" lon="17.71288">
        <ele>78.19547</ele>
        <time>2020-08-29T11:25:03.265Z</time>
      </trkpt>
      <trkpt lat="62.63193" lon="17.71228">
        <ele>79.966829</ele>
        <time>2020-08-29T11:25:15.461Z</time>
      </trkpt>
      <trkpt lat="62.63404" lon="17.70697">
        <ele>94.903818</ele>
        <time>2020-08-29T11:27:06.215Z</time>
      </trkpt>
      <trkpt lat="62.63448" lon="17.7053">
        <ele>94.963063</ele>
        <time>2020-08-29T11:27:23.812Z</time>
      </trkpt>
      <trkpt lat="62.63674" lon="17.69158">
        <ele>73.588699</ele>
        <time>2020-08-29T11:28:49.642Z</time>
      </trkpt>
      <trkpt lat="62.63691" lon="17.69008">
        <ele>71.607335</ele>
        <time>2020-08-29T11:28:59.398Z</time>
      </trkpt>
      <trkpt lat="62.63694" lon="17.68738">
        <ele>68.436841</ele>
        <time>2020-08-29T11:29:16.753Z</time>
      </trkpt>
      <trkpt lat="62.63741" lon="17.68428">
        <ele>64.991206</ele>
        <time>2020-08-29T11:29:37.024Z</time>
      </trkpt>
      <trkpt lat="62.63759" lon="17.68261">
        <ele>63.406016</ele>
        <time>2020-08-29T11:29:47.874Z</time>
      </trkpt>
      <trkpt lat="62.63763" lon="17.68176">
        <ele>62.615155</ele>
        <time>2020-08-29T11:29:53.575Z</time>
      </trkpt>
      <trkpt lat="62.63766" lon="17.67573">
        <ele>61.951905</ele>
        <time>2020-08-29T11:30:42.224Z</time>
      </trkpt>
      <trkpt lat="62.63782" lon="17.67452">
        <ele>61.944239</ele>
        <time>2020-08-29T11:30:53.179Z</time>
      </trkpt>
      <trkpt lat="62.63811" lon="17.67355">
        <ele>61.719535</ele>
        <time>2020-08-29T11:31:03.067Z</time>
      </trkpt>
      <trkpt lat="62.63828" lon="17.67299">
        <ele>61.366558</ele>
        <time>2020-08-29T11:31:07.925Z</time>
      </trkpt>
      <trkpt lat="62.63897" lon="17.67077">
        <ele>59.950654</ele>
        <time>2020-08-29T11:31:26.286Z</time>
      </trkpt>
      <trkpt lat="62.63903" lon="17.67057">
        <ele>59.803959</ele>
        <time>2020-08-29T11:31:27.875Z</time>
      </trkpt>
      <trkpt lat="62.63908" lon="17.67036">
        <ele>59.607857</ele>
        <time>2020-08-29T11:31:29.270Z</time>
      </trkpt>
      <trkpt lat="62.63927" lon="17.66881">
        <ele>58.302537</ele>
        <time>2020-08-29T11:31:39.617Z</time>
      </trkpt>
      <trkpt lat="62.63925" lon="17.66675">
        <ele>56.663531</ele>
        <time>2020-08-29T11:31:53.254Z</time>
      </trkpt>
      <trkpt lat="62.63928" lon="17.66563">
        <ele>56.290036</ele>
        <time>2020-08-29T11:32:01.475Z</time>
      </trkpt>
      <trkpt lat="62.63933" lon="17.66505">
        <ele>56.092327</ele>
        <time>2020-08-29T11:32:05.948Z</time>
      </trkpt>
      <trkpt lat="62.63967" lon="17.6626">
        <ele>55.227435</ele>
        <time>2020-08-29T11:32:25.437Z</time>
      </trkpt>
      <trkpt lat="62.63987" lon="17.66165">
        <ele>54.856163</ele>
        <time>2020-08-29T11:32:33.157Z</time>
      </trkpt>
      <trkpt lat="62.64022" lon="17.66037">
        <ele>54.323494</ele>
        <time>2020-08-29T11:32:43.973Z</time>
      </trkpt>
      <trkpt lat="62.64062" lon="17.65914">
        <ele>53.792304</ele>
        <time>2020-08-29T11:32:54.676Z</time>
      </trkpt>
      <trkpt lat="62.64183" lon="17.65578">
        <ele>52.529313</ele>
        <time>2020-08-29T11:33:25.995Z</time>
      </trkpt>
      <trkpt lat="62.642" lon="17.65497">
        <ele>52.430183</ele>
        <time>2020-08-29T11:33:32.992Z</time>
      </trkpt>
      <trkpt lat="62.64206" lon="17.65395">
        <ele>52.316106</ele>
        <time>2020-08-29T11:33:41.229Z</time>
      </trkpt>
      <trkpt lat="62.64217" lon="17.6486">
        <ele>52.396577</ele>
        <time>2020-08-29T11:34:26.676Z</time>
      </trkpt>
      <trkpt lat="62.64224" lon="17.64755">
        <ele>52.271661</ele>
        <time>2020-08-29T11:34:35.295Z</time>
      </trkpt>
      <trkpt lat="62.64276" lon="17.64195">
        <ele>51.536663</ele>
        <time>2020-08-29T11:35:18.737Z</time>
      </trkpt>
      <trkpt lat="62.6428" lon="17.64152">
        <ele>51.477625</ele>
        <time>2020-08-29T11:35:22.028Z</time>
      </trkpt>
      <trkpt lat="62.64317" lon="17.63736">
        <ele>53.114272</ele>
        <time>2020-08-29T11:36:00.398Z</time>
      </trkpt>
      <trkpt lat="62.6432" lon="17.63657">
        <ele>54.986652</ele>
        <time>2020-08-29T11:36:10.949Z</time>
      </trkpt>
      <trkpt lat="62.64318" lon="17.6358">
        <ele>56.813562</ele>
        <time>2020-08-29T11:36:22.190Z</time>
      </trkpt>
      <trkpt lat="62.64312" lon="17.63511">
        <ele>58.461245</ele>
        <time>2020-08-29T11:36:33.422Z</time>
      </trkpt>
      <trkpt lat="62.64308" lon="17.63486">
        <ele>59.079931</ele>
        <time>2020-08-29T11:36:37.428Z</time>
      </trkpt>
      <trkpt lat="62.64303" lon="17.63446">
        <ele>60.074952</ele>
        <time>2020-08-29T11:36:45.428Z</time>
      </trkpt>
      <trkpt lat="62.64267" lon="17.63298">
        <ele>65.103478</ele>
        <time>2020-08-29T11:37:18.102Z</time>
      </trkpt>
      <trkpt lat="62.6423" lon="17.63207">
        <ele>69.641221</ele>
        <time>2020-08-29T11:37:45.011Z</time>
      </trkpt>
      <trkpt lat="62.64134" lon="17.62981">
        <ele>79.835955</ele>
        <time>2020-08-29T11:38:46.032Z</time>
      </trkpt>
      <trkpt lat="62.64123" lon="17.62955">
        <ele>80.747687</ele>
        <time>2020-08-29T11:38:52.211Z</time>
      </trkpt>
      <trkpt lat="62.63949" lon="17.62548">
        <ele>92.686631</ele>
        <time>2020-08-29T11:40:12.649Z</time>
      </trkpt>
      <trkpt lat="62.63915" lon="17.62491">
        <ele>94.333117</ele>
        <time>2020-08-29T11:40:25.008Z</time>
      </trkpt>
      <trkpt lat="62.63758" lon="17.62275">
        <ele>99.994596</ele>
        <time>2020-08-29T11:41:15.242Z</time>
      </trkpt>
      <trkpt lat="62.63704" lon="17.62182">
        <ele>102.669211</ele>
        <time>2020-08-29T11:41:33.351Z</time>
      </trkpt>
      <trkpt lat="62.6365" lon="17.62028">
        <ele>106.133354</ele>
        <time>2020-08-29T11:42:01.880Z</time>
      </trkpt>
      <trkpt lat="62.63614" lon="17.6189">
        <ele>110.472937</ele>
        <time>2020-08-29T11:42:29.105Z</time>
      </trkpt>
      <trkpt lat="62.63611" lon="17.61861">
        <ele>111.312069</ele>
        <time>2020-08-29T11:42:34.988Z</time>
      </trkpt>
      <trkpt lat="62.63611" lon="17.61809">
        <ele>112.808138</ele>
        <time>2020-08-29T11:42:43.548Z</time>
      </trkpt>
      <trkpt lat="62.63612" lon="17.61784">
        <ele>113.510441</ele>
        <time>2020-08-29T11:42:48.711Z</time>
      </trkpt>
      <trkpt lat="62.63612" lon="17.61681">
        <ele>116.472939</ele>
        <time>2020-08-29T11:43:06.805Z</time>
      </trkpt>
      <trkpt lat="62.63607" lon="17.61584">
        <ele>118.876083</ele>
        <time>2020-08-29T11:43:23.810Z</time>
      </trkpt>
      <trkpt lat="62.63587" lon="17.61492">
        <ele>121.119916</ele>
        <time>2020-08-29T11:43:42.276Z</time>
      </trkpt>
      <trkpt lat="62.63473" lon="17.61113">
        <ele>129.611695</ele>
        <time>2020-08-29T11:44:43.353Z</time>
      </trkpt>
      <trkpt lat="62.63458" lon="17.61049">
        <ele>130.713026</ele>
        <time>2020-08-29T11:44:52.791Z</time>
      </trkpt>
      <trkpt lat="62.63432" lon="17.60706">
        <ele>134.779942</ele>
        <time>2020-08-29T11:45:35.363Z</time>
      </trkpt>
      <trkpt lat="62.63414" lon="17.6062">
        <ele>135.754697</ele>
        <time>2020-08-29T11:45:45.702Z</time>
      </trkpt>
      <trkpt lat="62.63388" lon="17.60521">
        <ele>136.134527</ele>
        <time>2020-08-29T11:45:57.197Z</time>
      </trkpt>
      <trkpt lat="62.63347" lon="17.60419">
        <ele>135.89057</ele>
        <time>2020-08-29T11:46:08.433Z</time>
      </trkpt>
      <trkpt lat="62.633" lon="17.60325">
        <ele>135.638987</ele>
        <time>2020-08-29T11:46:18.247Z</time>
      </trkpt>
      <trkpt lat="62.63199" lon="17.60155">
        <ele>133.546168</ele>
        <time>2020-08-29T11:46:35.994Z</time>
      </trkpt>
      <trkpt lat="62.63173" lon="17.60127">
        <ele>132.984574</ele>
        <time>2020-08-29T11:46:39.949Z</time>
      </trkpt>
      <trkpt lat="62.63072" lon="17.60049">
        <ele>132.538186</ele>
        <time>2020-08-29T11:46:55.694Z</time>
      </trkpt>
      <trkpt lat="62.63052" lon="17.60023">
        <ele>132.71563</ele>
        <time>2020-08-29T11:46:59.925Z</time>
      </trkpt>
      <trkpt lat="62.63027" lon="17.59959">
        <ele>133.011339</ele>
        <time>2020-08-29T11:47:07.990Z</time>
      </trkpt>
      <trkpt lat="62.63029" lon="17.59877">
        <ele>133.299757</ele>
        <time>2020-08-29T11:47:17.395Z</time>
      </trkpt>
      <trkpt lat="62.63054" lon="17.59671">
        <ele>137.836024</ele>
        <time>2020-08-29T11:47:48.259Z</time>
      </trkpt>
      <trkpt lat="62.63059" lon="17.59116">
        <ele>153.667333</ele>
        <time>2020-08-29T11:49:30.926Z</time>
      </trkpt>
      <trkpt lat="62.63043" lon="17.58947">
        <ele>156.887633</ele>
        <time>2020-08-29T11:49:58.636Z</time>
      </trkpt>
      <trkpt lat="62.6302" lon="17.58795">
        <ele>158.951563</ele>
        <time>2020-08-29T11:50:18.131Z</time>
      </trkpt>
      <trkpt lat="62.62993" lon="17.58621">
        <ele>160.233555</ele>
        <time>2020-08-29T11:50:34.184Z</time>
      </trkpt>
      <trkpt lat="62.62953" lon="17.58364">
        <ele>159.39966</ele>
        <time>2020-08-29T11:50:52.956Z</time>
      </trkpt>
      <trkpt lat="62.62934" lon="17.58273">
        <ele>159.257014</ele>
        <time>2020-08-29T11:51:00.352Z</time>
      </trkpt>
      <trkpt lat="62.62831" lon="17.57966">
        <ele>159.395969</ele>
        <time>2020-08-29T11:51:33.480Z</time>
      </trkpt>
      <trkpt lat="62.62813" lon="17.579">
        <ele>159.446963</ele>
        <time>2020-08-29T11:51:40.352Z</time>
      </trkpt>
      <trkpt lat="62.6268" lon="17.571">
        <ele>159.750698</ele>
        <time>2020-08-29T11:52:50.496Z</time>
      </trkpt>
      <trkpt lat="62.62673" lon="17.57027">
        <ele>159.780438</ele>
        <time>2020-08-29T11:52:56.754Z</time>
      </trkpt>
      <trkpt lat="62.62671" lon="17.56935">
        <ele>159.816712</ele>
        <time>2020-08-29T11:53:04.430Z</time>
      </trkpt>
      <trkpt lat="62.62677" lon="17.56771">
        <ele>159.74863</ele>
        <time>2020-08-29T11:53:18.165Z</time>
      </trkpt>
      <trkpt lat="62.62688" lon="17.56701">
        <ele>159.698116</ele>
        <time>2020-08-29T11:53:24.169Z</time>
      </trkpt>
      <trkpt lat="62.62711" lon="17.56605">
        <ele>159.623238</ele>
        <time>2020-08-29T11:53:32.793Z</time>
      </trkpt>
      <trkpt lat="62.62728" lon="17.56556">
        <ele>159.580659</ele>
        <time>2020-08-29T11:53:37.574Z</time>
      </trkpt>
      <trkpt lat="62.62779" lon="17.5647">
        <ele>159.172328</ele>
        <time>2020-08-29T11:53:48.103Z</time>
      </trkpt>
      <trkpt lat="62.62906" lon="17.56353">
        <ele>158.202286</ele>
        <time>2020-08-29T11:54:09.691Z</time>
      </trkpt>
      <trkpt lat="62.62927" lon="17.5632">
        <ele>158.109781</ele>
        <time>2020-08-29T11:54:13.838Z</time>
      </trkpt>
      <trkpt lat="62.62959" lon="17.56241">
        <ele>157.937855</ele>
        <time>2020-08-29T11:54:22.076Z</time>
      </trkpt>
      <trkpt lat="62.62969" lon="17.56203">
        <ele>157.867393</ele>
        <time>2020-08-29T11:54:25.322Z</time>
      </trkpt>
      <trkpt lat="62.6298" lon="17.56155">
        <ele>157.778634</ele>
        <time>2020-08-29T11:54:29.844Z</time>
      </trkpt>
      <trkpt lat="62.63001" lon="17.5608">
        <ele>157.634486</ele>
        <time>2020-08-29T11:54:36.932Z</time>
      </trkpt>
      <trkpt lat="62.63062" lon="17.55952">
        <ele>157.5428</ele>
        <time>2020-08-29T11:54:52.083Z</time>
      </trkpt>
      <trkpt lat="62.63136" lon="17.5572">
        <ele>157.600601</ele>
        <time>2020-08-29T11:55:14.741Z</time>
      </trkpt>
      <trkpt lat="62.63154" lon="17.55652">
        <ele>157.80098</ele>
        <time>2020-08-29T11:55:21.039Z</time>
      </trkpt>
      <trkpt lat="62.6318" lon="17.55505">
        <ele>158.201155</ele>
        <time>2020-08-29T11:55:34.337Z</time>
      </trkpt>
      <trkpt lat="62.63232" lon="17.55079">
        <ele>161.879431</ele>
        <time>2020-08-29T11:56:22.522Z</time>
      </trkpt>
      <trkpt lat="62.6325" lon="17.54955">
        <ele>164.03628</ele>
        <time>2020-08-29T11:56:40.042Z</time>
      </trkpt>
      <trkpt lat="62.63266" lon="17.54779">
        <ele>167.780603</ele>
        <time>2020-08-29T11:57:06.368Z</time>
      </trkpt>
      <trkpt lat="62.63294" lon="17.54566">
        <ele>173.111789</ele>
        <time>2020-08-29T11:57:42.970Z</time>
      </trkpt>
      <trkpt lat="62.6331" lon="17.54493">
        <ele>175.458609</ele>
        <time>2020-08-29T11:57:57.085Z</time>
      </trkpt>
      <trkpt lat="62.63329" lon="17.54438">
        <ele>177.433861</ele>
        <time>2020-08-29T11:58:09.378Z</time>
      </trkpt>
      <trkpt lat="62.63589" lon="17.53869">
        <ele>198.154135</ele>
        <time>2020-08-29T12:00:33.658Z</time>
      </trkpt>
      <trkpt lat="62.63667" lon="17.53704">
        <ele>197.311162</ele>
        <time>2020-08-29T12:00:50.129Z</time>
      </trkpt>
      <trkpt lat="62.63675" lon="17.53689">
        <ele>196.659246</ele>
        <time>2020-08-29T12:00:51.270Z</time>
      </trkpt>
      <trkpt lat="62.63908" lon="17.53176">
        <ele>171.77368</ele>
        <time>2020-08-29T12:01:28.149Z</time>
      </trkpt>
      <trkpt lat="62.63931" lon="17.5311">
        <ele>169.810037</ele>
        <time>2020-08-29T12:01:32.501Z</time>
      </trkpt>
      <trkpt lat="62.63949" lon="17.53011">
        <ele>167.251306</ele>
        <time>2020-08-29T12:01:38.422Z</time>
      </trkpt>
      <trkpt lat="62.63954" lon="17.5291">
        <ele>164.842307</ele>
        <time>2020-08-29T12:01:44.418Z</time>
      </trkpt>
      <trkpt lat="62.63946" lon="17.52797">
        <ele>164.239517</ele>
        <time>2020-08-29T12:01:52.082Z</time>
      </trkpt>
      <trkpt lat="62.63872" lon="17.52387">
        <ele>166.32292</ele>
        <time>2020-08-29T12:02:39.062Z</time>
      </trkpt>
      <trkpt lat="62.63864" lon="17.52282">
        <ele>167.239223</ele>
        <time>2020-08-29T12:02:51.366Z</time>
      </trkpt>
      <trkpt lat="62.63867" lon="17.52183">
        <ele>168.087583</ele>
        <time>2020-08-29T12:03:02.195Z</time>
      </trkpt>
      <trkpt lat="62.63872" lon="17.52154">
        <ele>168.352614</ele>
        <time>2020-08-29T12:03:06.223Z</time>
      </trkpt>
      <trkpt lat="62.63875" lon="17.52129">
        <ele>168.573703</ele>
        <time>2020-08-29T12:03:08.581Z</time>
      </trkpt>
      <trkpt lat="62.63885" lon="17.52081">
        <ele>169.013344</ele>
        <time>2020-08-29T12:03:14.529Z</time>
      </trkpt>
      <trkpt lat="62.6392" lon="17.51981">
        <ele>170.065301</ele>
        <time>2020-08-29T12:03:26.549Z</time>
      </trkpt>
      <trkpt lat="62.64032" lon="17.51786">
        <ele>174.374459</ele>
        <time>2020-08-29T12:04:01.138Z</time>
      </trkpt>
      <trkpt lat="62.64067" lon="17.517">
        <ele>177.358906</ele>
        <time>2020-08-29T12:04:18.524Z</time>
      </trkpt>
      <trkpt lat="62.64213" lon="17.51202">
        <ele>197.635175</ele>
        <time>2020-08-29T12:06:20.393Z</time>
      </trkpt>
      <trkpt lat="62.64245" lon="17.51079">
        <ele>201.977458</ele>
        <time>2020-08-29T12:06:48.329Z</time>
      </trkpt>
      <trkpt lat="62.64305" lon="17.50797">
        <ele>210.510967</ele>
        <time>2020-08-29T12:07:40.736Z</time>
      </trkpt>
      <trkpt lat="62.64312" lon="17.50715">
        <ele>211.997854</ele>
        <time>2020-08-29T12:07:52.628Z</time>
      </trkpt>
      <trkpt lat="62.64311" lon="17.50667">
        <ele>212.836053</ele>
        <time>2020-08-29T12:07:59.055Z</time>
      </trkpt>
      <trkpt lat="62.643" lon="17.50594">
        <ele>214.195024</ele>
        <time>2020-08-29T12:08:09.109Z</time>
      </trkpt>
      <trkpt lat="62.64278" lon="17.50534">
        <ele>215.558818</ele>
        <time>2020-08-29T12:08:18.724Z</time>
      </trkpt>
      <trkpt lat="62.64257" lon="17.50499">
        <ele>216.214967</ele>
        <time>2020-08-29T12:08:25.604Z</time>
      </trkpt>
      <trkpt lat="62.64054" lon="17.50264">
        <ele>217.929927</ele>
        <time>2020-08-29T12:09:15.083Z</time>
      </trkpt>
      <trkpt lat="62.63822" lon="17.4995">
        <ele>213.22203</ele>
        <time>2020-08-29T12:09:53.355Z</time>
      </trkpt>
      <trkpt lat="62.63665" lon="17.49667">
        <ele>207.060315</ele>
        <time>2020-08-29T12:10:19.905Z</time>
      </trkpt>
      <trkpt lat="62.63633" lon="17.49627">
        <ele>206.379995</ele>
        <time>2020-08-29T12:10:24.842Z</time>
      </trkpt>
      <trkpt lat="62.63268" lon="17.49335">
        <ele>200.582517</ele>
        <time>2020-08-29T12:11:22.387Z</time>
      </trkpt>
      <trkpt lat="62.63149" lon="17.49199">
        <ele>199.527177</ele>
        <time>2020-08-29T12:11:44.222Z</time>
      </trkpt>
      <trkpt lat="62.63024" lon="17.49104">
        <ele>199.205165</ele>
        <time>2020-08-29T12:12:07.089Z</time>
      </trkpt>
      <trkpt lat="62.62855" lon="17.48873">
        <ele>199.091745</ele>
        <time>2020-08-29T12:12:42.932Z</time>
      </trkpt>
      <trkpt lat="62.62815" lon="17.488">
        <ele>198.666799</ele>
        <time>2020-08-29T12:12:51.806Z</time>
      </trkpt>
      <trkpt lat="62.62797" lon="17.48717">
        <ele>198.294712</ele>
        <time>2020-08-29T12:12:58.586Z</time>
      </trkpt>
      <trkpt lat="62.62792" lon="17.48674">
        <ele>198.115022</ele>
        <time>2020-08-29T12:13:01.786Z</time>
      </trkpt>
      <trkpt lat="62.6279" lon="17.48232">
        <ele>195.119311</ele>
        <time>2020-08-29T12:13:31.652Z</time>
      </trkpt>
      <trkpt lat="62.62745" lon="17.4775">
        <ele>189.872945</ele>
        <time>2020-08-29T12:14:02.852Z</time>
      </trkpt>
      <trkpt lat="62.62598" lon="17.46769">
        <ele>171.757876</ele>
        <time>2020-08-29T12:15:03.299Z</time>
      </trkpt>
      <trkpt lat="62.62597" lon="17.4665">
        <ele>169.391179</ele>
        <time>2020-08-29T12:15:09.907Z</time>
      </trkpt>
      <trkpt lat="62.6263" lon="17.46499">
        <ele>165.855619</ele>
        <time>2020-08-29T12:15:19.101Z</time>
      </trkpt>
      <trkpt lat="62.62631" lon="17.46384">
        <ele>163.36862</ele>
        <time>2020-08-29T12:15:25.558Z</time>
      </trkpt>
      <trkpt lat="62.62615" lon="17.46302">
        <ele>161.461745</ele>
        <time>2020-08-29T12:15:30.599Z</time>
      </trkpt>
      <trkpt lat="62.62483" lon="17.458">
        <ele>153.472094</ele>
        <time>2020-08-29T12:16:05.696Z</time>
      </trkpt>
      <trkpt lat="62.6247" lon="17.45747">
        <ele>152.865696</ele>
        <time>2020-08-29T12:16:09.613Z</time>
      </trkpt>
      <trkpt lat="62.62406" lon="17.45483">
        <ele>150.385651</ele>
        <time>2020-08-29T12:16:29.661Z</time>
      </trkpt>
      <trkpt lat="62.62373" lon="17.45351">
        <ele>149.54037</ele>
        <time>2020-08-29T12:16:40.465Z</time>
      </trkpt>
      <trkpt lat="62.62333" lon="17.45183">
        <ele>148.385452</ele>
        <time>2020-08-29T12:16:53.732Z</time>
      </trkpt>
      <trkpt lat="62.62291" lon="17.44945">
        <ele>146.52791</ele>
        <time>2020-08-29T12:17:10.853Z</time>
      </trkpt>
      <trkpt lat="62.62278" lon="17.44799">
        <ele>145.184835</ele>
        <time>2020-08-29T12:17:20.572Z</time>
      </trkpt>
      <trkpt lat="62.6228" lon="17.44602">
        <ele>143.027696</ele>
        <time>2020-08-29T12:17:33.088Z</time>
      </trkpt>
      <trkpt lat="62.62295" lon="17.4441">
        <ele>140.65505</ele>
        <time>2020-08-29T12:17:45.137Z</time>
      </trkpt>
      <trkpt lat="62.62298" lon="17.44344">
        <ele>139.720334</ele>
        <time>2020-08-29T12:17:49.087Z</time>
      </trkpt>
      <trkpt lat="62.62309" lon="17.44193">
        <ele>137.527377</ele>
        <time>2020-08-29T12:17:58.326Z</time>
      </trkpt>
      <trkpt lat="62.6232" lon="17.4407">
        <ele>135.731247</ele>
        <time>2020-08-29T12:18:05.780Z</time>
      </trkpt>
      <trkpt lat="62.62347" lon="17.4361">
        <ele>128.774742</ele>
        <time>2020-08-29T12:18:33.796Z</time>
      </trkpt>
      <trkpt lat="62.62342" lon="17.43429">
        <ele>125.910598</ele>
        <time>2020-08-29T12:18:44.650Z</time>
      </trkpt>
      <trkpt lat="62.62301" lon="17.42582">
        <ele>110.423602</ele>
        <time>2020-08-29T12:19:34.137Z</time>
      </trkpt>
      <trkpt lat="62.62282" lon="17.42211">
        <ele>102.407818</ele>
        <time>2020-08-29T12:19:55.060Z</time>
      </trkpt>
      <trkpt lat="62.62274" lon="17.4212">
        <ele>100.490431</ele>
        <time>2020-08-29T12:20:00.292Z</time>
      </trkpt>
      <trkpt lat="62.62246" lon="17.41966">
        <ele>97.403904</ele>
        <time>2020-08-29T12:20:09.788Z</time>
      </trkpt>
      <trkpt lat="62.62228" lon="17.41905">
        <ele>96.062972</ele>
        <time>2020-08-29T12:20:13.987Z</time>
      </trkpt>
      <trkpt lat="62.6221" lon="17.41861">
        <ele>94.950624</ele>
        <time>2020-08-29T12:20:17.488Z</time>
      </trkpt>
      <trkpt lat="62.62167" lon="17.41793">
        <ele>92.801633</ele>
        <time>2020-08-29T12:20:24.291Z</time>
      </trkpt>
      <trkpt lat="62.62111" lon="17.41741">
        <ele>90.346376</ele>
        <time>2020-08-29T12:20:32.100Z</time>
      </trkpt>
      <trkpt lat="62.61879" lon="17.41618">
        <ele>79.81667</ele>
        <time>2020-08-29T12:21:01.656Z</time>
      </trkpt>
      <trkpt lat="62.61437" lon="17.41366">
        <ele>55.986661</ele>
        <time>2020-08-29T12:21:56.165Z</time>
      </trkpt>
      <trkpt lat="62.61354" lon="17.41338">
        <ele>52.522512</ele>
        <time>2020-08-29T12:22:06.777Z</time>
      </trkpt>
      <trkpt lat="62.60771" lon="17.41271">
        <ele>37.649793</ele>
        <time>2020-08-29T12:23:26.908Z</time>
      </trkpt>
      <trkpt lat="62.60719" lon="17.41232">
        <ele>35.903096</ele>
        <time>2020-08-29T12:23:34.009Z</time>
      </trkpt>
      <trkpt lat="62.60698" lon="17.41206">
        <ele>35.124668</ele>
        <time>2020-08-29T12:23:37.169Z</time>
      </trkpt>
      <trkpt lat="62.60603" lon="17.41042">
        <ele>31.602331</ele>
        <time>2020-08-29T12:23:52.942Z</time>
      </trkpt>
      <trkpt lat="62.60478" lon="17.40847">
        <ele>28.640481</ele>
        <time>2020-08-29T12:24:14.741Z</time>
      </trkpt>
      <trkpt lat="62.60445" lon="17.40779">
        <ele>28.56813</ele>
        <time>2020-08-29T12:24:23.418Z</time>
      </trkpt>
      <trkpt lat="62.60437" lon="17.40749">
        <ele>28.54342</ele>
        <time>2020-08-29T12:24:26.241Z</time>
      </trkpt>
      <trkpt lat="62.60401" lon="17.4077">
        <ele>28.484202</ele>
        <time>2020-08-29T12:24:33.586Z</time>
      </trkpt>
      <trkpt lat="62.60384" lon="17.4078">
        <ele>28.456296</ele>
        <time>2020-08-29T12:24:37.218Z</time>
      </trkpt>
      <trkpt lat="62.6033" lon="17.40784">
        <ele>28.372038</ele>
        <time>2020-08-29T12:24:46.443Z</time>
      </trkpt>
      <trkpt lat="62.60292" lon="17.40785">
        <ele>27.741676</ele>
        <time>2020-08-29T12:24:52.703Z</time>
      </trkpt>
      <trkpt lat="62.60248" lon="17.40787">
        <ele>26.900641</ele>
        <time>2020-08-29T12:24:59.576Z</time>
      </trkpt>
      <trkpt lat="62.60107" lon="17.40792">
        <ele>24.446525</ele>
        <time>2020-08-29T12:25:18.349Z</time>
      </trkpt>
      <trkpt lat="62.60067" lon="17.40801">
        <ele>23.926715</ele>
        <time>2020-08-29T12:25:23.688Z</time>
      </trkpt>
      <trkpt lat="62.60002" lon="17.40832">
        <ele>23.048472</ele>
        <time>2020-08-29T12:25:33.915Z</time>
      </trkpt>
      <trkpt lat="62.59968" lon="17.40877">
        <ele>22.737711</ele>
        <time>2020-08-29T12:25:41.504Z</time>
      </trkpt>
      <trkpt lat="62.59886" lon="17.40985">
        <ele>25.289773</ele>
        <time>2020-08-29T12:26:05.220Z</time>
      </trkpt>
      <trkpt lat="62.59793" lon="17.41114">
        <ele>28.648283</ele>
        <time>2020-08-29T12:26:39.017Z</time>
      </trkpt>
      <trkpt lat="62.59698" lon="17.41246">
        <ele>33.218698</ele>
        <time>2020-08-29T12:27:14.670Z</time>
      </trkpt>
      <trkpt lat="62.59637" lon="17.41323">
        <ele>35.485421</ele>
        <time>2020-08-29T12:27:35.497Z</time>
      </trkpt>
      <trkpt lat="62.59597" lon="17.41359">
        <ele>36.537142</ele>
        <time>2020-08-29T12:27:47.344Z</time>
      </trkpt>
      <trkpt lat="62.59543" lon="17.41389">
        <ele>37.875852</ele>
        <time>2020-08-29T12:28:01.277Z</time>
      </trkpt>
      <trkpt lat="62.59178" lon="17.41537">
        <ele>42.671614</ele>
        <time>2020-08-29T12:29:19.248Z</time>
      </trkpt>
      <trkpt lat="62.5913" lon="17.41567">
        <ele>43.444459</ele>
        <time>2020-08-29T12:29:31.256Z</time>
      </trkpt>
      <trkpt lat="62.59" lon="17.41692">
        <ele>46.643242</ele>
        <time>2020-08-29T12:30:08.035Z</time>
      </trkpt>
      <trkpt lat="62.58963" lon="17.41718">
        <ele>47.430492</ele>
        <time>2020-08-29T12:30:17.753Z</time>
      </trkpt>
      <trkpt lat="62.58717" lon="17.41772">
        <ele>51.351193</ele>
        <time>2020-08-29T12:31:14.948Z</time>
      </trkpt>
      <trkpt lat="62.58663" lon="17.41775">
        <ele>52.015468</ele>
        <time>2020-08-29T12:31:25.986Z</time>
      </trkpt>
      <trkpt lat="62.58629" lon="17.41774">
        <ele>52.441619</ele>
        <time>2020-08-29T12:31:32.821Z</time>
      </trkpt>
      <trkpt lat="62.58483" lon="17.41761">
        <ele>54.361417</ele>
        <time>2020-08-29T12:32:03.506Z</time>
      </trkpt>
      <trkpt lat="62.58405" lon="17.41772">
        <ele>55.902476</ele>
        <time>2020-08-29T12:32:22.545Z</time>
      </trkpt>
      <trkpt lat="62.58217" lon="17.41827">
        <ele>60.506802</ele>
        <time>2020-08-29T12:33:15.518Z</time>
      </trkpt>
      <trkpt lat="62.5813" lon="17.41841">
        <ele>61.687643</ele>
        <time>2020-08-29T12:33:34.938Z</time>
      </trkpt>
      <trkpt lat="62.5807" lon="17.4185">
        <ele>62.098503</ele>
        <time>2020-08-29T12:33:45.539Z</time>
      </trkpt>
      <trkpt lat="62.57983" lon="17.41841">
        <ele>60.685821</ele>
        <time>2020-08-29T12:33:58.432Z</time>
      </trkpt>
      <trkpt lat="62.57678" lon="17.41727">
        <ele>54.291275</ele>
        <time>2020-08-29T12:34:40.863Z</time>
      </trkpt>
      <trkpt lat="62.57452" lon="17.41662">
        <ele>50.970517</ele>
        <time>2020-08-29T12:35:14.636Z</time>
      </trkpt>
      <trkpt lat="62.57388" lon="17.41643">
        <ele>50.240505</ele>
        <time>2020-08-29T12:35:24.732Z</time>
      </trkpt>
      <trkpt lat="62.57237" lon="17.41597">
        <ele>49.358847</ele>
        <time>2020-08-29T12:35:49.491Z</time>
      </trkpt>
      <trkpt lat="62.57091" lon="17.4154">
        <ele>49.094977</ele>
        <time>2020-08-29T12:36:15.204Z</time>
      </trkpt>
      <trkpt lat="62.56996" lon="17.41532">
        <ele>49.079148</ele>
        <time>2020-08-29T12:36:32.537Z</time>
      </trkpt>
      <trkpt lat="62.56877" lon="17.41536">
        <ele>49.156539</ele>
        <time>2020-08-29T12:36:55.074Z</time>
      </trkpt>
      <trkpt lat="62.56757" lon="17.41548">
        <ele>48.236452</ele>
        <time>2020-08-29T12:37:15.055Z</time>
      </trkpt>
      <trkpt lat="62.5668" lon="17.41556">
        <ele>47.326173</ele>
        <time>2020-08-29T12:37:26.325Z</time>
      </trkpt>
      <trkpt lat="62.56596" lon="17.41551">
        <ele>45.039365</ele>
        <time>2020-08-29T12:37:37.791Z</time>
      </trkpt>
      <trkpt lat="62.56385" lon="17.41517">
        <ele>36.745753</ele>
        <time>2020-08-29T12:38:04.602Z</time>
      </trkpt>
      <trkpt lat="62.56196" lon="17.41527">
        <ele>26.371556</ele>
        <time>2020-08-29T12:38:27.087Z</time>
      </trkpt>
      <trkpt lat="62.56167" lon="17.41524">
        <ele>24.559068</ele>
        <time>2020-08-29T12:38:30.445Z</time>
      </trkpt>
      <trkpt lat="62.56117" lon="17.41501">
        <ele>21.418337</ele>
        <time>2020-08-29T12:38:36.322Z</time>
      </trkpt>
      <trkpt lat="62.56089" lon="17.4148">
        <ele>19.765182</ele>
        <time>2020-08-29T12:38:39.689Z</time>
      </trkpt>
      <trkpt lat="62.56073" lon="17.41466">
        <ele>18.769912</ele>
        <time>2020-08-29T12:38:41.684Z</time>
      </trkpt>
      <trkpt lat="62.5603" lon="17.41418">
        <ele>16.024455</ele>
        <time>2020-08-29T12:38:47.379Z</time>
      </trkpt>
      <trkpt lat="62.5598" lon="17.41342">
        <ele>12.534244</ele>
        <time>2020-08-29T12:38:54.619Z</time>
      </trkpt>
      <trkpt lat="62.55841" lon="17.4103">
        <ele>5.873396</ele>
        <time>2020-08-29T12:39:21.003Z</time>
      </trkpt>
      <trkpt lat="62.55776" lon="17.40921">
        <ele>4.735692</ele>
        <time>2020-08-29T12:39:32.986Z</time>
      </trkpt>
      <trkpt lat="62.5575" lon="17.40884">
        <ele>4.314844</ele>
        <time>2020-08-29T12:39:37.736Z</time>
      </trkpt>
      <trkpt lat="62.55739" lon="17.40869">
        <ele>4.141414</ele>
        <time>2020-08-29T12:39:39.744Z</time>
      </trkpt>
      <trkpt lat="62.55713" lon="17.40838">
        <ele>3.735642</ele>
        <time>2020-08-29T12:39:44.493Z</time>
      </trkpt>
      <trkpt lat="62.55669" lon="17.4079">
        <ele>3.273302</ele>
        <time>2020-08-29T12:39:52.504Z</time>
      </trkpt>
      <trkpt lat="62.55639" lon="17.40759">
        <ele>3.113583</ele>
        <time>2020-08-29T12:39:57.914Z</time>
      </trkpt>
      <trkpt lat="62.55627" lon="17.40747">
        <ele>3.052277</ele>
        <time>2020-08-29T12:39:59.998Z</time>
      </trkpt>
      <trkpt lat="62.55498" lon="17.406">
        <ele>2.399546</ele>
        <time>2020-08-29T12:40:24.475Z</time>
      </trkpt>
      <trkpt lat="62.55398" lon="17.40485">
        <ele>2.011396</ele>
        <time>2020-08-29T12:40:43.613Z</time>
      </trkpt>
      <trkpt lat="62.55349" lon="17.40439">
        <ele>1.863195</ele>
        <time>2020-08-29T12:40:52.550Z</time>
      </trkpt>
      <trkpt lat="62.55296" lon="17.40399">
        <ele>1.753695</ele>
        <time>2020-08-29T12:41:02.138Z</time>
      </trkpt>
      <trkpt lat="62.55269" lon="17.4039">
        <ele>1.701426</ele>
        <time>2020-08-29T12:41:06.778Z</time>
      </trkpt>
      <trkpt lat="62.55172" lon="17.40369">
        <ele>1.552624</ele>
        <time>2020-08-29T12:41:23.913Z</time>
      </trkpt>
      <trkpt lat="62.55155" lon="17.40363">
        <ele>1.549089</ele>
        <time>2020-08-29T12:41:27.142Z</time>
      </trkpt>
      <trkpt lat="62.55107" lon="17.40328">
        <ele>1.53886</ele>
        <time>2020-08-29T12:41:36.054Z</time>
      </trkpt>
      <trkpt lat="62.5508" lon="17.4029">
        <ele>1.532332</ele>
        <time>2020-08-29T12:41:41.822Z</time>
      </trkpt>
      <trkpt lat="62.5503" lon="17.40199">
        <ele>1.506615</ele>
        <time>2020-08-29T12:41:53.585Z</time>
      </trkpt>
      <trkpt lat="62.5502" lon="17.40228">
        <ele>1.480315</ele>
        <time>2020-08-29T12:41:56.429Z</time>
      </trkpt>
      <trkpt lat="62.55018" lon="17.40292">
        <ele>1.432855</ele>
        <time>2020-08-29T12:42:01.650Z</time>
      </trkpt>
      <trkpt lat="62.5503" lon="17.40326">
        <ele>1.401562</ele>
        <time>2020-08-29T12:42:05.078Z</time>
      </trkpt>
      <trkpt lat="62.55131" lon="17.40412">
        <ele>1.228672</ele>
        <time>2020-08-29T12:42:23.742Z</time>
      </trkpt>
      <trkpt lat="62.55174" lon="17.4047">
        <ele>1.168169</ele>
        <time>2020-08-29T12:42:32.415Z</time>
      </trkpt>
      <trkpt lat="62.55203" lon="17.40523">
        <ele>1.121962</ele>
        <time>2020-08-29T12:42:39.090Z</time>
      </trkpt>
      <trkpt lat="62.55153" lon="17.40566">
        <ele>1.056802</ele>
        <time>2020-08-29T12:42:48.574Z</time>
      </trkpt>
      <trkpt lat="62.55113" lon="17.40594">
        <ele>1.020944</ele>
        <time>2020-08-29T12:42:55.983Z</time>
      </trkpt>
      <trkpt lat="62.55098" lon="17.40622">
        <ele>1.03184</ele>
        <time>2020-08-29T12:42:59.483Z</time>
      </trkpt>
      <trkpt lat="62.55083" lon="17.40594">
        <ele>1.042759</ele>
        <time>2020-08-29T12:43:03.010Z</time>
      </trkpt>
      <trkpt lat="62.55065" lon="17.40565">
        <ele>1.054798</ele>
        <time>2020-08-29T12:43:06.890Z</time>
      </trkpt>
      <trkpt lat="62.55058" lon="17.40556">
        <ele>1.059389</ele>
        <time>2020-08-29T12:43:08.369Z</time>
      </trkpt>
      <trkpt lat="62.55049" lon="17.40549">
        <ele>1.064951</ele>
        <time>2020-08-29T12:43:10.181Z</time>
      </trkpt>
      <trkpt lat="62.55043" lon="17.40546">
        <ele>1.068145</ele>
        <time>2020-08-29T12:43:11.218Z</time>
      </trkpt>
      <trkpt lat="62.55035" lon="17.40542">
        <ele>1.072646</ele>
        <time>2020-08-29T12:43:12.682Z</time>
      </trkpt>
      <trkpt lat="62.55004" lon="17.40547">
        <ele>1.09005</ele>
        <time>2020-08-29T12:43:18.368Z</time>
      </trkpt>
      <trkpt lat="62.54968" lon="17.40568">
        <ele>1.110259</ele>
        <time>2020-08-29T12:43:25.048Z</time>
      </trkpt>
      <trkpt lat="62.54916" lon="17.40595">
        <ele>1.282489</ele>
        <time>2020-08-29T12:43:34.902Z</time>
      </trkpt>
      <trkpt lat="62.54904" lon="17.40599">
        <ele>1.331229</ele>
        <time>2020-08-29T12:43:37.293Z</time>
      </trkpt>
      <trkpt lat="62.54871" lon="17.40596">
        <ele>1.458284</ele>
        <time>2020-08-29T12:43:43.516Z</time>
      </trkpt>
      <trkpt lat="62.54692" lon="17.40416">
        <ele>2.585378</ele>
        <time>2020-08-29T12:44:22.308Z</time>
      </trkpt>
      <trkpt lat="62.54624" lon="17.40351">
        <ele>3.129356</ele>
        <time>2020-08-29T12:44:37.726Z</time>
      </trkpt>
      <trkpt lat="62.54574" lon="17.40302">
        <ele>3.648447</ele>
        <time>2020-08-29T12:44:49.391Z</time>
      </trkpt>
      <trkpt lat="62.54361" lon="17.40097">
        <ele>5.369889</ele>
        <time>2020-08-29T12:45:37.521Z</time>
      </trkpt>
      <trkpt lat="62.54331" lon="17.40065">
        <ele>5.541418</ele>
        <time>2020-08-29T12:45:43.732Z</time>
      </trkpt>
      <trkpt lat="62.54275" lon="17.40004">
        <ele>5.600971</ele>
        <time>2020-08-29T12:45:54.742Z</time>
      </trkpt>
      <trkpt lat="62.54189" lon="17.39912">
        <ele>5.111281</ele>
        <time>2020-08-29T12:46:10.517Z</time>
      </trkpt>
      <trkpt lat="62.54068" lon="17.39782">
        <ele>4.329841</ele>
        <time>2020-08-29T12:46:31.811Z</time>
      </trkpt>
      <trkpt lat="62.54061" lon="17.39773">
        <ele>4.275192</ele>
        <time>2020-08-29T12:46:33.183Z</time>
      </trkpt>
      <trkpt lat="62.54032" lon="17.39742">
        <ele>4.071207</ele>
        <time>2020-08-29T12:46:38.373Z</time>
      </trkpt>
      <trkpt lat="62.53951" lon="17.39656">
        <ele>3.685966</ele>
        <time>2020-08-29T12:46:53.283Z</time>
      </trkpt>
      <trkpt lat="62.53933" lon="17.39636">
        <ele>3.696278</ele>
        <time>2020-08-29T12:46:56.947Z</time>
      </trkpt>
      <trkpt lat="62.5393" lon="17.39633">
        <ele>3.697683</ele>
        <time>2020-08-29T12:46:57.433Z</time>
      </trkpt>
      <trkpt lat="62.53855" lon="17.39554">
        <ele>3.738543</ele>
        <time>2020-08-29T12:47:12.470Z</time>
      </trkpt>
      <trkpt lat="62.53817" lon="17.39514">
        <ele>3.759119</ele>
        <time>2020-08-29T12:47:20.470Z</time>
      </trkpt>
      <trkpt lat="62.53771" lon="17.39465">
        <ele>3.939995</ele>
        <time>2020-08-29T12:47:30.449Z</time>
      </trkpt>
      <trkpt lat="62.53749" lon="17.3944">
        <ele>4.034405</ele>
        <time>2020-08-29T12:47:35.344Z</time>
      </trkpt>
      <trkpt lat="62.53725" lon="17.39413">
        <ele>4.13519</ele>
        <time>2020-08-29T12:47:40.561Z</time>
      </trkpt>
      <trkpt lat="62.53545" lon="17.39213">
        <ele>4.648257</ele>
        <time>2020-08-29T12:48:18.493Z</time>
      </trkpt>
      <trkpt lat="62.53418" lon="17.39082">
        <ele>4.501884</ele>
        <time>2020-08-29T12:48:43.341Z</time>
      </trkpt>
      <trkpt lat="62.53354" lon="17.39015">
        <ele>4.291464</ele>
        <time>2020-08-29T12:48:55.133Z</time>
      </trkpt>
      <trkpt lat="62.53344" lon="17.3906">
        <ele>4.22329</ele>
        <time>2020-08-29T12:48:59.083Z</time>
      </trkpt>
      <trkpt lat="62.53337" lon="17.39089">
        <ele>4.157631</ele>
        <time>2020-08-29T12:49:01.628Z</time>
      </trkpt>
      <trkpt lat="62.53327" lon="17.39132">
        <ele>4.053588</ele>
        <time>2020-08-29T12:49:05.448Z</time>
      </trkpt>
      <trkpt lat="62.53319" lon="17.3917">
        <ele>3.962503</ele>
        <time>2020-08-29T12:49:08.757Z</time>
      </trkpt>
      <trkpt lat="62.5331" lon="17.39207">
        <ele>3.872581</ele>
        <time>2020-08-29T12:49:12.068Z</time>
      </trkpt>
      <trkpt lat="62.53288" lon="17.39302">
        <ele>3.641945</ele>
        <time>2020-08-29T12:49:20.481Z</time>
      </trkpt>
      <trkpt lat="62.53276" lon="17.39289">
        <ele>3.577083</ele>
        <time>2020-08-29T12:49:22.864Z</time>
      </trkpt>
      <trkpt lat="62.53251" lon="17.39263">
        <ele>3.447455</ele>
        <time>2020-08-29T12:49:27.635Z</time>
      </trkpt>
      <trkpt lat="62.53207" lon="17.39216">
        <ele>3.325724</ele>
        <time>2020-08-29T12:49:36.253Z</time>
      </trkpt>
      <trkpt lat="62.53206" lon="17.39215">
        <ele>3.324137</ele>
        <time>2020-08-29T12:49:36.465Z</time>
      </trkpt>
      <trkpt lat="62.53188" lon="17.39195">
        <ele>3.294499</ele>
        <time>2020-08-29T12:49:40.180Z</time>
      </trkpt>
      <trkpt lat="62.53118" lon="17.39118">
        <ele>3.183384</ele>
        <time>2020-08-29T12:49:54.595Z</time>
      </trkpt>
      <trkpt lat="62.53112" lon="17.39111">
        <ele>3.174202</ele>
        <time>2020-08-29T12:49:55.797Z</time>
      </trkpt>
      <trkpt lat="62.53085" lon="17.39082">
        <ele>3.131129</ele>
        <time>2020-08-29T12:50:01.461Z</time>
      </trkpt>
      <trkpt lat="62.53022" lon="17.39016">
        <ele>3.160966</ele>
        <time>2020-08-29T12:50:14.250Z</time>
      </trkpt>
      <trkpt lat="62.53" lon="17.38991">
        <ele>3.180041</ele>
        <time>2020-08-29T12:50:19.134Z</time>
      </trkpt>
      <trkpt lat="62.52957" lon="17.38945">
        <ele>3.215623</ele>
        <time>2020-08-29T12:50:28.354Z</time>
      </trkpt>
      <trkpt lat="62.52919" lon="17.38917">
        <ele>3.245597</ele>
        <time>2020-08-29T12:50:35.702Z</time>
      </trkpt>
      <trkpt lat="62.52886" lon="17.38893">
        <ele>3.253242</ele>
        <time>2020-08-29T12:50:42.244Z</time>
      </trkpt>
      <trkpt lat="62.52888" lon="17.38835">
        <ele>3.255024</ele>
        <time>2020-08-29T12:50:47.266Z</time>
      </trkpt>
      <trkpt lat="62.5289" lon="17.38785">
        <ele>3.256583</ele>
        <time>2020-08-29T12:50:51.738Z</time>
      </trkpt>
      <trkpt lat="62.52858" lon="17.38814">
        <ele>3.258926</ele>
        <time>2020-08-29T12:50:58.297Z</time>
      </trkpt>
      <trkpt lat="62.52831" lon="17.38838">
        <ele>3.260842</ele>
        <time>2020-08-29T12:51:03.549Z</time>
      </trkpt>
      <trkpt lat="62.52765" lon="17.38774">
        <ele>3.176613</ele>
        <time>2020-08-29T12:51:17.128Z</time>
      </trkpt>
      <trkpt lat="62.52766" lon="17.38763">
        <ele>3.163133</ele>
        <time>2020-08-29T12:51:18.164Z</time>
      </trkpt>
      <trkpt lat="62.52763" lon="17.38756">
        <ele>3.152714</ele>
        <time>2020-08-29T12:51:18.899Z</time>
      </trkpt>
      <trkpt lat="62.52735" lon="17.38735">
        <ele>3.077036</ele>
        <time>2020-08-29T12:51:23.990Z</time>
      </trkpt>
      <trkpt lat="62.52688" lon="17.38721">
        <ele>2.958142</ele>
        <time>2020-08-29T12:51:32.212Z</time>
      </trkpt>
      <trkpt lat="62.52637" lon="17.38718">
        <ele>2.82703</ele>
        <time>2020-08-29T12:51:41.382Z</time>
      </trkpt>
      <trkpt lat="62.52506" lon="17.38718">
        <ele>2.625796</ele>
        <time>2020-08-29T12:52:04.728Z</time>
      </trkpt>
      <trkpt lat="62.52505" lon="17.38701">
        <ele>2.613948</ele>
        <time>2020-08-29T12:52:06.244Z</time>
      </trkpt>
      <trkpt lat="62.52506" lon="17.38694">
        <ele>2.609249</ele>
        <time>2020-08-29T12:52:06.839Z</time>
      </trkpt>
      <trkpt lat="62.52504" lon="17.38682">
        <ele>2.60117</ele>
        <time>2020-08-29T12:52:07.854Z</time>
      </trkpt>
      <trkpt lat="62.52495" lon="17.38669">
        <ele>2.584446</ele>
        <time>2020-08-29T12:52:09.906Z</time>
      </trkpt>
      <trkpt lat="62.52477" lon="17.38666">
        <ele>2.558</ele>
        <time>2020-08-29T12:52:13.219Z</time>
      </trkpt>
      <trkpt lat="62.52467" lon="17.38664">
        <ele>2.543827</ele>
        <time>2020-08-29T12:52:15.022Z</time>
      </trkpt>
      <trkpt lat="62.52454" lon="17.38675">
        <ele>2.598359</ele>
        <time>2020-08-29T12:52:17.645Z</time>
      </trkpt>
      <trkpt lat="62.52436" lon="17.38671">
        <ele>2.676302</ele>
        <time>2020-08-29T12:52:21.060Z</time>
      </trkpt>
      <trkpt lat="62.52408" lon="17.38662">
        <ele>2.804306</ele>
        <time>2020-08-29T12:52:26.623Z</time>
      </trkpt>
      <trkpt lat="62.52356" lon="17.38657">
        <ele>3.033301</ele>
        <time>2020-08-29T12:52:37.041Z</time>
      </trkpt>
      <trkpt lat="62.52258" lon="17.38645">
        <ele>3.938674</ele>
        <time>2020-08-29T12:52:57.287Z</time>
      </trkpt>
      <trkpt lat="62.52238" lon="17.38644">
        <ele>4.343099</ele>
        <time>2020-08-29T12:53:01.713Z</time>
      </trkpt>
      <trkpt lat="62.52206" lon="17.38649">
        <ele>4.994123</ele>
        <time>2020-08-29T12:53:09.025Z</time>
      </trkpt>
      <trkpt lat="62.52166" lon="17.38672">
        <ele>5.847524</ele>
        <time>2020-08-29T12:53:19.103Z</time>
      </trkpt>
      <trkpt lat="62.52133" lon="17.38701">
        <ele>6.576792</ele>
        <time>2020-08-29T12:53:28.587Z</time>
      </trkpt>
      <trkpt lat="62.52032" lon="17.38827">
        <ele>13.48512</ele>
        <time>2020-08-29T12:54:07.755Z</time>
      </trkpt>
      <trkpt lat="62.51948" lon="17.38935">
        <ele>19.933296</ele>
        <time>2020-08-29T12:54:56.798Z</time>
      </trkpt>
      <trkpt lat="62.51879" lon="17.39026">
        <ele>24.46307</ele>
        <time>2020-08-29T12:55:32.262Z</time>
      </trkpt>
      <trkpt lat="62.51856" lon="17.39051">
        <ele>25.936538</ele>
        <time>2020-08-29T12:55:42.042Z</time>
      </trkpt>
      <trkpt lat="62.5185" lon="17.39058">
        <ele>26.3056</ele>
        <time>2020-08-29T12:55:43.851Z</time>
      </trkpt>
      <trkpt lat="62.51836" lon="17.39061">
        <ele>27.075566</ele>
        <time>2020-08-29T12:55:47.855Z</time>
      </trkpt>
      <trkpt lat="62.51831" lon="17.39062">
        <ele>27.358709</ele>
        <time>2020-08-29T12:55:49.411Z</time>
      </trkpt>
      <trkpt lat="62.51828" lon="17.39052">
        <ele>27.678523</ele>
        <time>2020-08-29T12:55:51.228Z</time>
      </trkpt>
      <trkpt lat="62.51823" lon="17.39031">
        <ele>28.292042</ele>
        <time>2020-08-29T12:55:53.623Z</time>
      </trkpt>
      <trkpt lat="62.51803" lon="17.38943">
        <ele>28.449315</ele>
        <time>2020-08-29T12:56:02.605Z</time>
      </trkpt>
      <trkpt lat="62.51791" lon="17.38899">
        <ele>27.715463</ele>
        <time>2020-08-29T12:56:06.428Z</time>
      </trkpt>
      <trkpt lat="62.51761" lon="17.38824">
        <ele>26.269392</ele>
        <time>2020-08-29T12:56:12.781Z</time>
      </trkpt>
      <trkpt lat="62.5175" lon="17.38771">
        <ele>25.420928</ele>
        <time>2020-08-29T12:56:16.115Z</time>
      </trkpt>
      <trkpt lat="62.51748" lon="17.38736">
        <ele>24.905302</ele>
        <time>2020-08-29T12:56:18.748Z</time>
      </trkpt>
      <trkpt lat="62.51738" lon="17.38698">
        <ele>24.28376</ele>
        <time>2020-08-29T12:56:21.186Z</time>
      </trkpt>
      <trkpt lat="62.51725" lon="17.38654">
        <ele>23.513917</ele>
        <time>2020-08-29T12:56:24.246Z</time>
      </trkpt>
      <trkpt lat="62.51665" lon="17.38559">
        <ele>21.189784</ele>
        <time>2020-08-29T12:56:33.818Z</time>
      </trkpt>
      <trkpt lat="62.51653" lon="17.3854">
        <ele>20.717983</ele>
        <time>2020-08-29T12:56:35.833Z</time>
      </trkpt>
      <trkpt lat="62.51649" lon="17.38527">
        <ele>20.505213</ele>
        <time>2020-08-29T12:56:36.805Z</time>
      </trkpt>
      <trkpt lat="62.5165" lon="17.3842">
        <ele>18.956039</ele>
        <time>2020-08-29T12:56:44.228Z</time>
      </trkpt>
      <trkpt lat="62.5165" lon="17.38326">
        <ele>18.084463</ele>
        <time>2020-08-29T12:56:51.060Z</time>
      </trkpt>
      <trkpt lat="62.51648" lon="17.38083">
        <ele>18.69404</ele>
        <time>2020-08-29T12:57:11.993Z</time>
      </trkpt>
      <trkpt lat="62.51557" lon="17.38092">
        <ele>20.120152</ele>
        <time>2020-08-29T12:57:35.860Z</time>
      </trkpt>
      <trkpt lat="62.51541" lon="17.38094">
        <ele>20.593381</ele>
        <time>2020-08-29T12:57:40.050Z</time>
      </trkpt>
      <trkpt lat="62.51527" lon="17.38097">
        <ele>21.032517</ele>
        <time>2020-08-29T12:57:44.446Z</time>
      </trkpt>
      <trkpt lat="62.5152" lon="17.38099">
        <ele>21.252406</ele>
        <time>2020-08-29T12:57:46.490Z</time>
      </trkpt>
      <trkpt lat="62.51513" lon="17.38101">
        <ele>21.451064</ele>
        <time>2020-08-29T12:57:48.364Z</time>
      </trkpt>
      <trkpt lat="62.5151" lon="17.38089">
        <ele>21.648496</ele>
        <time>2020-08-29T12:57:50.839Z</time>
      </trkpt>
      <trkpt lat="62.51504" lon="17.3809">
        <ele>21.833853</ele>
        <time>2020-08-29T12:57:52.981Z</time>
      </trkpt>
      <trkpt lat="62.51496" lon="17.38083">
        <ele>22.088222</ele>
        <time>2020-08-29T12:57:55.547Z</time>
      </trkpt>
      <trkpt lat="62.51451" lon="17.37964">
        <ele>24.241815</ele>
        <time>2020-08-29T12:58:16.953Z</time>
      </trkpt>
      <trkpt lat="62.51408" lon="17.37876">
        <ele>25.69491</ele>
        <time>2020-08-29T12:58:32.895Z</time>
      </trkpt>
      <trkpt lat="62.51371" lon="17.37807">
        <ele>26.876327</ele>
        <time>2020-08-29T12:58:45.561Z</time>
      </trkpt>
      <trkpt lat="62.51366" lon="17.37797">
        <ele>27.042727</ele>
        <time>2020-08-29T12:58:47.302Z</time>
      </trkpt>
      <trkpt lat="62.51323" lon="17.37721">
        <ele>28.379551</ele>
        <time>2020-08-29T12:59:01.411Z</time>
      </trkpt>
      <trkpt lat="62.51298" lon="17.37676">
        <ele>29.042272</ele>
        <time>2020-08-29T12:59:09.642Z</time>
      </trkpt>
      <trkpt lat="62.51277" lon="17.3764">
        <ele>29.492579</ele>
        <time>2020-08-29T12:59:16.387Z</time>
      </trkpt>
      <trkpt lat="62.51256" lon="17.37602">
        <ele>29.971666</ele>
        <time>2020-08-29T12:59:23.267Z</time>
      </trkpt>
      <trkpt lat="62.51251" lon="17.37593">
        <ele>30.079792</ele>
        <time>2020-08-29T12:59:24.852Z</time>
      </trkpt>
      <trkpt lat="62.51222" lon="17.37542">
        <ele>30.725725</ele>
        <time>2020-08-29T12:59:33.878Z</time>
      </trkpt>
      <trkpt lat="62.51192" lon="17.37489">
        <ele>31.380821</ele>
        <time>2020-08-29T12:59:42.823Z</time>
      </trkpt>
      <trkpt lat="62.51175" lon="17.37458">
        <ele>31.761819</ele>
        <time>2020-08-29T12:59:47.844Z</time>
      </trkpt>
      <trkpt lat="62.51143" lon="17.37403">
        <ele>32.157977</ele>
        <time>2020-08-29T12:59:56.991Z</time>
      </trkpt>
      <trkpt lat="62.51123" lon="17.37367">
        <ele>32.376626</ele>
        <time>2020-08-29T13:00:02.499Z</time>
      </trkpt>
      <trkpt lat="62.51104" lon="17.37333">
        <ele>32.589709</ele>
        <time>2020-08-29T13:00:07.679Z</time>
      </trkpt>
      <trkpt lat="62.51096" lon="17.37319">
        <ele>32.677603</ele>
        <time>2020-08-29T13:00:09.830Z</time>
      </trkpt>
      <trkpt lat="62.5107" lon="17.37274">
        <ele>32.958052</ele>
        <time>2020-08-29T13:00:16.501Z</time>
      </trkpt>
      <trkpt lat="62.51055" lon="17.37248">
        <ele>33.124501</ele>
        <time>2020-08-29T13:00:20.570Z</time>
      </trkpt>
      <trkpt lat="62.5103" lon="17.37202">
        <ele>33.414172</ele>
        <time>2020-08-29T13:00:27.528Z</time>
      </trkpt>
      <trkpt lat="62.51015" lon="17.37176">
        <ele>33.603397</ele>
        <time>2020-08-29T13:00:31.420Z</time>
      </trkpt>
      <trkpt lat="62.51007" lon="17.37158">
        <ele>33.719553</ele>
        <time>2020-08-29T13:00:33.994Z</time>
      </trkpt>
      <trkpt lat="62.50989" lon="17.37119">
        <ele>33.979332</ele>
        <time>2020-08-29T13:00:39.450Z</time>
      </trkpt>
      <trkpt lat="62.50986" lon="17.37127">
        <ele>34.027384</ele>
        <time>2020-08-29T13:00:40.568Z</time>
      </trkpt>
      <trkpt lat="62.50982" lon="17.37134">
        <ele>34.076876</ele>
        <time>2020-08-29T13:00:41.705Z</time>
      </trkpt>
      <trkpt lat="62.50972" lon="17.37115">
        <ele>34.21272</ele>
        <time>2020-08-29T13:00:44.534Z</time>
      </trkpt>
      <trkpt lat="62.50968" lon="17.37105">
        <ele>34.273831</ele>
        <time>2020-08-29T13:00:45.816Z</time>
      </trkpt>
      <trkpt lat="62.50959" lon="17.37086">
        <ele>34.401188</ele>
        <time>2020-08-29T13:00:48.682Z</time>
      </trkpt>
      <trkpt lat="62.50948" lon="17.37103">
        <ele>34.541486</ele>
        <time>2020-08-29T13:00:51.622Z</time>
      </trkpt>
      <trkpt lat="62.50904" lon="17.37172">
        <ele>35.089533</ele>
        <time>2020-08-29T13:01:03.191Z</time>
      </trkpt>
      <trkpt lat="62.50894" lon="17.37184">
        <ele>35.205494</ele>
        <time>2020-08-29T13:01:05.777Z</time>
      </trkpt>
      <trkpt lat="62.50882" lon="17.37198">
        <ele>35.325696</ele>
        <time>2020-08-29T13:01:08.551Z</time>
      </trkpt>
      <trkpt lat="62.50874" lon="17.37205">
        <ele>35.403362</ele>
        <time>2020-08-29T13:01:10.450Z</time>
      </trkpt>
      <trkpt lat="62.50869" lon="17.37196">
        <ele>35.464875</ele>
        <time>2020-08-29T13:01:12.133Z</time>
      </trkpt>
      <trkpt lat="62.50864" lon="17.37196">
        <ele>35.50665</ele>
        <time>2020-08-29T13:01:13.226Z</time>
      </trkpt>
      <trkpt lat="62.50753" lon="17.3729">
        <ele>36.567837</ele>
        <time>2020-08-29T13:01:39.140Z</time>
      </trkpt>
      <trkpt lat="62.50706" lon="17.37328">
        <ele>36.701613</ele>
        <time>2020-08-29T13:01:49.141Z</time>
      </trkpt>
      <trkpt lat="62.50661" lon="17.37357">
        <ele>36.49496</ele>
        <time>2020-08-29T13:01:58.168Z</time>
      </trkpt>
      <trkpt lat="62.50528" lon="17.37407">
        <ele>35.422116</ele>
        <time>2020-08-29T13:02:20.365Z</time>
      </trkpt>
      <trkpt lat="62.50498" lon="17.37416">
        <ele>34.729875</ele>
        <time>2020-08-29T13:02:24.837Z</time>
      </trkpt>
      <trkpt lat="62.50487" lon="17.3742">
        <ele>34.471139</ele>
        <time>2020-08-29T13:02:26.549Z</time>
      </trkpt>
      <trkpt lat="62.50482" lon="17.37424">
        <ele>34.36072</ele>
        <time>2020-08-29T13:02:27.170Z</time>
      </trkpt>
      <trkpt lat="62.50406" lon="17.37445">
        <ele>32.581337</ele>
        <time>2020-08-29T13:02:38.171Z</time>
      </trkpt>
      <trkpt lat="62.50341" lon="17.37436">
        <ele>30.765595</ele>
        <time>2020-08-29T13:02:46.999Z</time>
      </trkpt>
      <trkpt lat="62.50308" lon="17.37413">
        <ele>29.663192</ele>
        <time>2020-08-29T13:02:51.615Z</time>
      </trkpt>
      <trkpt lat="62.50281" lon="17.3736">
        <ele>28.48563</ele>
        <time>2020-08-29T13:02:56.570Z</time>
      </trkpt>
      <trkpt lat="62.50234" lon="17.37231">
        <ele>26.033392</ele>
        <time>2020-08-29T13:03:06.989Z</time>
      </trkpt>
      <trkpt lat="62.50189" lon="17.37097">
        <ele>24.2344</ele>
        <time>2020-08-29T13:03:17.832Z</time>
      </trkpt>
      <trkpt lat="62.5015" lon="17.36988">
        <ele>22.753257</ele>
        <time>2020-08-29T13:03:27.060Z</time>
      </trkpt>
      <trkpt lat="62.50095" lon="17.36784">
        <ele>21.007418</ele>
        <time>2020-08-29T13:03:43.823Z</time>
      </trkpt>
      <trkpt lat="62.50073" lon="17.36669">
        <ele>20.321212</ele>
        <time>2020-08-29T13:03:53.016Z</time>
      </trkpt>
      <trkpt lat="62.50052" lon="17.36543">
        <ele>19.687635</ele>
        <time>2020-08-29T13:04:03.279Z</time>
      </trkpt>
      <trkpt lat="62.50051" lon="17.36544">
        <ele>19.685884</ele>
        <time>2020-08-29T13:04:03.436Z</time>
      </trkpt>
      <trkpt lat="62.5004" lon="17.36482">
        <ele>19.634497</ele>
        <time>2020-08-29T13:04:08.655Z</time>
      </trkpt>
      <trkpt lat="62.50033" lon="17.36438">
        <ele>19.598696</ele>
        <time>2020-08-29T13:04:12.303Z</time>
      </trkpt>
      <trkpt lat="62.50025" lon="17.36374">
        <ele>19.546626</ele>
        <time>2020-08-29T13:04:17.796Z</time>
      </trkpt>
      <trkpt lat="62.49948" lon="17.35939">
        <ele>19.781384</ele>
        <time>2020-08-29T13:04:59.322Z</time>
      </trkpt>
      <trkpt lat="62.49855" lon="17.35542">
        <ele>20.582813</ele>
        <time>2020-08-29T13:05:40.512Z</time>
      </trkpt>
      <trkpt lat="62.49846" lon="17.35455">
        <ele>20.69514</ele>
        <time>2020-08-29T13:05:48.750Z</time>
      </trkpt>
      <trkpt lat="62.49834" lon="17.35374">
        <ele>20.706788</ele>
        <time>2020-08-29T13:05:56.481Z</time>
      </trkpt>
      <trkpt lat="62.49816" lon="17.35235">
        <ele>20.726521</ele>
        <time>2020-08-29T13:06:09.057Z</time>
      </trkpt>
      <trkpt lat="62.49815" lon="17.35166">
        <ele>20.735969</ele>
        <time>2020-08-29T13:06:14.736Z</time>
      </trkpt>
      <trkpt lat="62.49808" lon="17.35056">
        <ele>20.614184</ele>
        <time>2020-08-29T13:06:23.649Z</time>
      </trkpt>
      <trkpt lat="62.49801" lon="17.34995">
        <ele>20.461777</ele>
        <time>2020-08-29T13:06:28.699Z</time>
      </trkpt>
      <trkpt lat="62.49793" lon="17.34962">
        <ele>20.372274</ele>
        <time>2020-08-29T13:06:31.597Z</time>
      </trkpt>
      <trkpt lat="62.49773" lon="17.34873">
        <ele>20.134422</ele>
        <time>2020-08-29T13:06:39.399Z</time>
      </trkpt>
      <trkpt lat="62.49762" lon="17.34813">
        <ele>19.977998</ele>
        <time>2020-08-29T13:06:44.466Z</time>
      </trkpt>
      <trkpt lat="62.49705" lon="17.34438">
        <ele>19.020778</ele>
        <time>2020-08-29T13:07:15.788Z</time>
      </trkpt>
      <trkpt lat="62.49697" lon="17.34364">
        <ele>18.833961</ele>
        <time>2020-08-29T13:07:21.947Z</time>
      </trkpt>
      <trkpt lat="62.49691" lon="17.3435">
        <ele>18.786913</ele>
        <time>2020-08-29T13:07:23.339Z</time>
      </trkpt>
      <trkpt lat="62.49588" lon="17.34291">
        <ele>18.198905</ele>
        <time>2020-08-29T13:07:41.627Z</time>
      </trkpt>
      <trkpt lat="62.49565" lon="17.34317">
        <ele>18.057358</ele>
        <time>2020-08-29T13:07:46.103Z</time>
      </trkpt>
      <trkpt lat="62.49559" lon="17.34328">
        <ele>18.013919</ele>
        <time>2020-08-29T13:07:47.359Z</time>
      </trkpt>
      <trkpt lat="62.49534" lon="17.34304">
        <ele>17.867183</ele>
        <time>2020-08-29T13:07:52.076Z</time>
      </trkpt>
      <trkpt lat="62.49524" lon="17.34294">
        <ele>17.84172</ele>
        <time>2020-08-29T13:07:53.945Z</time>
      </trkpt>
      <trkpt lat="62.49476" lon="17.34257">
        <ele>17.72846</ele>
        <time>2020-08-29T13:08:02.594Z</time>
      </trkpt>
      <trkpt lat="62.49444" lon="17.34217">
        <ele>17.644405</ele>
        <time>2020-08-29T13:08:09.064Z</time>
      </trkpt>
      <trkpt lat="62.4941" lon="17.34175">
        <ele>17.557862</ele>
        <time>2020-08-29T13:08:16.098Z</time>
      </trkpt>
      <trkpt lat="62.49353" lon="17.34093">
        <ele>17.614219</ele>
        <time>2020-08-29T13:08:29.558Z</time>
      </trkpt>
      <trkpt lat="62.49334" lon="17.34068">
        <ele>17.733486</ele>
        <time>2020-08-29T13:08:33.923Z</time>
      </trkpt>
      <trkpt lat="62.49329" lon="17.34052">
        <ele>17.781535</ele>
        <time>2020-08-29T13:08:35.693Z</time>
      </trkpt>
      <trkpt lat="62.49325" lon="17.34054">
        <ele>17.803902</ele>
        <time>2020-08-29T13:08:36.615Z</time>
      </trkpt>
      <trkpt lat="62.49316" lon="17.34037">
        <ele>17.867194</ele>
        <time>2020-08-29T13:08:39.118Z</time>
      </trkpt>
      <trkpt lat="62.49312" lon="17.34011">
        <ele>17.936742</ele>
        <time>2020-08-29T13:08:41.704Z</time>
      </trkpt>
      <trkpt lat="62.49312" lon="17.33995">
        <ele>17.97596</ele>
        <time>2020-08-29T13:08:43.204Z</time>
      </trkpt>
      <trkpt lat="62.49317" lon="17.33977">
        <ele>18.030262</ele>
        <time>2020-08-29T13:08:45.359Z</time>
      </trkpt>
      <trkpt lat="62.49318" lon="17.33966">
        <ele>18.056667</ele>
        <time>2020-08-29T13:08:46.458Z</time>
      </trkpt>
      <trkpt lat="62.49311" lon="17.33944">
        <ele>18.123511</ele>
        <time>2020-08-29T13:08:48.960Z</time>
      </trkpt>
      <trkpt lat="62.4928" lon="17.33892">
        <ele>18.334838</ele>
        <time>2020-08-29T13:08:57.095Z</time>
      </trkpt>
      <trkpt lat="62.49264" lon="17.33844">
        <ele>18.447665</ele>
        <time>2020-08-29T13:09:02.747Z</time>
      </trkpt>
      <trkpt lat="62.49251" lon="17.33791">
        <ele>18.498485</ele>
        <time>2020-08-29T13:09:08.627Z</time>
      </trkpt>
      <trkpt lat="62.4925" lon="17.3379">
        <ele>18.499467</ele>
        <time>2020-08-29T13:09:08.784Z</time>
      </trkpt>
      <trkpt lat="62.49254" lon="17.33776">
        <ele>18.512242</ele>
        <time>2020-08-29T13:09:10.187Z</time>
      </trkpt>
      <trkpt lat="62.49257" lon="17.33765">
        <ele>18.522664</ele>
        <time>2020-08-29T13:09:11.371Z</time>
      </trkpt>
      <trkpt lat="62.49256" lon="17.33763">
        <ele>18.52457</ele>
        <time>2020-08-29T13:09:11.561Z</time>
      </trkpt>
      <trkpt lat="62.49217" lon="17.33703">
        <ele>18.610776</ele>
        <time>2020-08-29T13:09:20.903Z</time>
      </trkpt>
      <trkpt lat="62.49147" lon="17.3356">
        <ele>18.709489</ele>
        <time>2020-08-29T13:09:38.367Z</time>
      </trkpt>
      <trkpt lat="62.4908" lon="17.334">
        <ele>18.419412</ele>
        <time>2020-08-29T13:09:55.757Z</time>
      </trkpt>
      <trkpt lat="62.48992" lon="17.33071">
        <ele>18.187634</ele>
        <time>2020-08-29T13:10:27.636Z</time>
      </trkpt>
      <trkpt lat="62.48991" lon="17.33051">
        <ele>18.183753</ele>
        <time>2020-08-29T13:10:29.240Z</time>
      </trkpt>
      <trkpt lat="62.48997" lon="17.33038">
        <ele>18.180203</ele>
        <time>2020-08-29T13:10:30.759Z</time>
      </trkpt>
      <trkpt lat="62.48995" lon="17.33031">
        <ele>18.17848</ele>
        <time>2020-08-29T13:10:31.633Z</time>
      </trkpt>
      <trkpt lat="62.48991" lon="17.33016">
        <ele>18.175074</ele>
        <time>2020-08-29T13:10:33.274Z</time>
      </trkpt>
      <trkpt lat="62.48989" lon="17.33006">
        <ele>18.173014</ele>
        <time>2020-08-29T13:10:34.175Z</time>
      </trkpt>
      <trkpt lat="62.48981" lon="17.32996">
        <ele>18.169153</ele>
        <time>2020-08-29T13:10:35.797Z</time>
      </trkpt>
      <trkpt lat="62.48975" lon="17.32978">
        <ele>18.16485</ele>
        <time>2020-08-29T13:10:37.667Z</time>
      </trkpt>
      <trkpt lat="62.48965" lon="17.32942">
        <ele>18.173723</ele>
        <time>2020-08-29T13:10:41.428Z</time>
      </trkpt>
      <trkpt lat="62.48958" lon="17.32913">
        <ele>18.220725</ele>
        <time>2020-08-29T13:10:44.231Z</time>
      </trkpt>
      <trkpt lat="62.48949" lon="17.32892">
        <ele>18.259578</ele>
        <time>2020-08-29T13:10:46.936Z</time>
      </trkpt>
      <trkpt lat="62.48941" lon="17.32881">
        <ele>18.288538</ele>
        <time>2020-08-29T13:10:48.730Z</time>
      </trkpt>
      <trkpt lat="62.48925" lon="17.32847">
        <ele>18.356703</ele>
        <time>2020-08-29T13:10:53.235Z</time>
      </trkpt>
      <trkpt lat="62.48904" lon="17.3281">
        <ele>18.437185</ele>
        <time>2020-08-29T13:10:58.382Z</time>
      </trkpt>
      <trkpt lat="62.48887" lon="17.32779">
        <ele>18.503842</ele>
        <time>2020-08-29T13:11:02.914Z</time>
      </trkpt>
      <trkpt lat="62.48838" lon="17.32698">
        <ele>18.690076</ele>
        <time>2020-08-29T13:11:14.891Z</time>
      </trkpt>
      <trkpt lat="62.4882" lon="17.32673">
        <ele>18.936804</ele>
        <time>2020-08-29T13:11:19.021Z</time>
      </trkpt>
      <trkpt lat="62.48811" lon="17.32661">
        <ele>19.075761</ele>
        <time>2020-08-29T13:11:21.156Z</time>
      </trkpt>
      <trkpt lat="62.48793" lon="17.32638">
        <ele>19.346367</ele>
        <time>2020-08-29T13:11:25.476Z</time>
      </trkpt>
      <trkpt lat="62.48759" lon="17.32606">
        <ele>19.831125</ele>
        <time>2020-08-29T13:11:33.552Z</time>
      </trkpt>
      <trkpt lat="62.48721" lon="17.32582">
        <ele>20.339795</ele>
        <time>2020-08-29T13:11:42.753Z</time>
      </trkpt>
      <trkpt lat="62.48702" lon="17.32567">
        <ele>20.604141</ele>
        <time>2020-08-29T13:11:47.705Z</time>
      </trkpt>
      <trkpt lat="62.48625" lon="17.32507">
        <ele>22.559136</ele>
        <time>2020-08-29T13:12:08.940Z</time>
      </trkpt>
      <trkpt lat="62.48602" lon="17.32489">
        <ele>23.318518</ele>
        <time>2020-08-29T13:12:15.562Z</time>
      </trkpt>
      <trkpt lat="62.48577" lon="17.32466">
        <ele>24.17128</ele>
        <time>2020-08-29T13:12:23.627Z</time>
      </trkpt>
      <trkpt lat="62.48519" lon="17.32401">
        <ele>26.205134</ele>
        <time>2020-08-29T13:12:43.627Z</time>
      </trkpt>
      <trkpt lat="62.48487" lon="17.32351">
        <ele>27.486679</ele>
        <time>2020-08-29T13:12:55.676Z</time>
      </trkpt>
      <trkpt lat="62.48444" lon="17.32272">
        <ele>29.353795</ele>
        <time>2020-08-29T13:13:12.735Z</time>
      </trkpt>
      <trkpt lat="62.48425" lon="17.32239">
        <ele>30.183168</ele>
        <time>2020-08-29T13:13:19.625Z</time>
      </trkpt>
      <trkpt lat="62.48413" lon="17.32222">
        <ele>30.63799</ele>
        <time>2020-08-29T13:13:24.002Z</time>
      </trkpt>
      <trkpt lat="62.48337" lon="17.32117">
        <ele>33.419545</ele>
        <time>2020-08-29T13:13:49.015Z</time>
      </trkpt>
      <trkpt lat="62.4833" lon="17.32104">
        <ele>33.646398</ele>
        <time>2020-08-29T13:13:51.897Z</time>
      </trkpt>
      <trkpt lat="62.48316" lon="17.32079">
        <ele>34.120849</ele>
        <time>2020-08-29T13:13:56.752Z</time>
      </trkpt>
      <trkpt lat="62.48307" lon="17.32054">
        <ele>34.502418</ele>
        <time>2020-08-29T13:14:00.802Z</time>
      </trkpt>
      <trkpt lat="62.48303" lon="17.32036">
        <ele>34.740706</ele>
        <time>2020-08-29T13:14:03.593Z</time>
      </trkpt>
      <trkpt lat="62.48294" lon="17.32046">
        <ele>34.989996</ele>
        <time>2020-08-29T13:14:05.937Z</time>
      </trkpt>
      <trkpt lat="62.48289" lon="17.32053">
        <ele>35.144046</ele>
        <time>2020-08-29T13:14:07.373Z</time>
      </trkpt>
      <trkpt lat="62.48285" lon="17.32059">
        <ele>35.283974</ele>
        <time>2020-08-29T13:14:08.724Z</time>
      </trkpt>
      <trkpt lat="62.48281" lon="17.32062">
        <ele>35.387768</ele>
        <time>2020-08-29T13:14:09.958Z</time>
      </trkpt>
      <trkpt lat="62.48274" lon="17.32061">
        <ele>35.571861</ele>
        <time>2020-08-29T13:14:11.952Z</time>
      </trkpt>
      <trkpt lat="62.48268" lon="17.32059">
        <ele>35.718049</ele>
        <time>2020-08-29T13:14:13.412Z</time>
      </trkpt>
      <trkpt lat="62.48263" lon="17.32038">
        <ele>36.006034</ele>
        <time>2020-08-29T13:14:16.117Z</time>
      </trkpt>
      <trkpt lat="62.4826" lon="17.32029">
        <ele>36.131317</ele>
        <time>2020-08-29T13:14:17.322Z</time>
      </trkpt>
      <trkpt lat="62.48258" lon="17.32019">
        <ele>36.27239</ele>
        <time>2020-08-29T13:14:18.868Z</time>
      </trkpt>
      <trkpt lat="62.48253" lon="17.32025">
        <ele>36.403663</ele>
        <time>2020-08-29T13:14:20.406Z</time>
      </trkpt>
      <trkpt lat="62.48246" lon="17.32023">
        <ele>36.5929</ele>
        <time>2020-08-29T13:14:22.353Z</time>
      </trkpt>
      <trkpt lat="62.48236" lon="17.32006">
        <ele>36.935827</ele>
        <time>2020-08-29T13:14:25.546Z</time>
      </trkpt>
      <trkpt lat="62.48224" lon="17.31983">
        <ele>37.306813</ele>
        <time>2020-08-29T13:14:30.085Z</time>
      </trkpt>
      <trkpt lat="62.48196" lon="17.31935">
        <ele>37.671215</ele>
        <time>2020-08-29T13:14:39.027Z</time>
      </trkpt>
      <trkpt lat="62.48186" lon="17.31919">
        <ele>37.799785</ele>
        <time>2020-08-29T13:14:41.994Z</time>
      </trkpt>
      <trkpt lat="62.48174" lon="17.31896">
        <ele>37.971377</ele>
        <time>2020-08-29T13:14:45.947Z</time>
      </trkpt>
      <trkpt lat="62.48157" lon="17.31862">
        <ele>38.209752</ele>
        <time>2020-08-29T13:14:51.245Z</time>
      </trkpt>
      <trkpt lat="62.48144" lon="17.31833">
        <ele>38.403241</ele>
        <time>2020-08-29T13:14:55.626Z</time>
      </trkpt>
      <trkpt lat="62.48122" lon="17.31782">
        <ele>38.735139</ele>
        <time>2020-08-29T13:15:02.217Z</time>
      </trkpt>
      <trkpt lat="62.48102" lon="17.31731">
        <ele>39.055617</ele>
        <time>2020-08-29T13:15:08.058Z</time>
      </trkpt>
      <trkpt lat="62.48078" lon="17.3167">
        <ele>38.353432</ele>
        <time>2020-08-29T13:15:14.249Z</time>
      </trkpt>
      <trkpt lat="62.48026" lon="17.31551">
        <ele>36.266577</ele>
        <time>2020-08-29T13:15:25.332Z</time>
      </trkpt>
      <trkpt lat="62.47999" lon="17.31534">
        <ele>35.508578</ele>
        <time>2020-08-29T13:15:29.073Z</time>
      </trkpt>
      <trkpt lat="62.47982" lon="17.31548">
        <ele>35.011611</ele>
        <time>2020-08-29T13:15:31.441Z</time>
      </trkpt>
      <trkpt lat="62.47915" lon="17.31641">
        <ele>31.398645</ele>
        <time>2020-08-29T13:15:41.527Z</time>
      </trkpt>
      <trkpt lat="62.47889" lon="17.31715">
        <ele>28.988354</ele>
        <time>2020-08-29T13:15:46.874Z</time>
      </trkpt>
      <trkpt lat="62.47876" lon="17.31736">
        <ele>28.117755</ele>
        <time>2020-08-29T13:15:48.802Z</time>
      </trkpt>
      <trkpt lat="62.47852" lon="17.31755">
        <ele>26.654463</ele>
        <time>2020-08-29T13:15:52.026Z</time>
      </trkpt>
      <trkpt lat="62.47826" lon="17.31748">
        <ele>25.211023</ele>
        <time>2020-08-29T13:15:55.197Z</time>
      </trkpt>
      <trkpt lat="62.47805" lon="17.31724">
        <ele>23.908527</ele>
        <time>2020-08-29T13:15:58.173Z</time>
      </trkpt>
      <trkpt lat="62.4779" lon="17.31691">
        <ele>22.920818</ele>
        <time>2020-08-29T13:16:00.825Z</time>
      </trkpt>
      <trkpt lat="62.47778" lon="17.31641">
        <ele>21.709443</ele>
        <time>2020-08-29T13:16:04.068Z</time>
      </trkpt>
      <trkpt lat="62.47761" lon="17.31456">
        <ele>17.706696</ele>
        <time>2020-08-29T13:16:15.256Z</time>
      </trkpt>
      <trkpt lat="62.47753" lon="17.31438">
        <ele>17.181215</ele>
        <time>2020-08-29T13:16:16.858Z</time>
      </trkpt>
      <trkpt lat="62.47735" lon="17.31425">
        <ele>16.306292</ele>
        <time>2020-08-29T13:16:19.578Z</time>
      </trkpt>
      <trkpt lat="62.4773" lon="17.31423">
        <ele>16.051352</ele>
        <time>2020-08-29T13:16:20.284Z</time>
      </trkpt>
      <trkpt lat="62.47724" lon="17.31484">
        <ele>15.218497</ele>
        <time>2020-08-29T13:16:24.151Z</time>
      </trkpt>
      <trkpt lat="62.47703" lon="17.31683">
        <ele>12.799063</ele>
        <time>2020-08-29T13:16:36.823Z</time>
      </trkpt>
      <trkpt lat="62.47698" lon="17.31731">
        <ele>12.209446</ele>
        <time>2020-08-29T13:16:40.098Z</time>
      </trkpt>
      <trkpt lat="62.47682" lon="17.31724">
        <ele>11.801329</ele>
        <time>2020-08-29T13:16:42.252Z</time>
      </trkpt>
      <trkpt lat="62.47553" lon="17.31658">
        <ele>9.253856</ele>
        <time>2020-08-29T13:17:01.173Z</time>
      </trkpt>
      <trkpt lat="62.47423" lon="17.31517">
        <ele>7.761156</ele>
        <time>2020-08-29T13:17:22.361Z</time>
      </trkpt>
      <trkpt lat="62.47354" lon="17.31457">
        <ele>7.514619</ele>
        <time>2020-08-29T13:17:35.696Z</time>
      </trkpt>
      <trkpt lat="62.47336" lon="17.31445">
        <ele>7.451298</ele>
        <time>2020-08-29T13:17:39.608Z</time>
      </trkpt>
      <trkpt lat="62.473" lon="17.31431">
        <ele>8.194152</ele>
        <time>2020-08-29T13:17:47.934Z</time>
      </trkpt>
      <trkpt lat="62.47281" lon="17.31427">
        <ele>8.752658</ele>
        <time>2020-08-29T13:17:52.556Z</time>
      </trkpt>
      <trkpt lat="62.47259" lon="17.31428">
        <ele>9.401231</ele>
        <time>2020-08-29T13:17:58.021Z</time>
      </trkpt>
      <trkpt lat="62.47243" lon="17.31428">
        <ele>9.897256</ele>
        <time>2020-08-29T13:18:02.629Z</time>
      </trkpt>
      <trkpt lat="62.47172" lon="17.31458">
        <ele>12.035354</ele>
        <time>2020-08-29T13:18:23.718Z</time>
      </trkpt>
      <trkpt lat="62.47123" lon="17.31503">
        <ele>13.899932</ele>
        <time>2020-08-29T13:18:41.117Z</time>
      </trkpt>
      <trkpt lat="62.47058" lon="17.31591">
        <ele>16.92428</ele>
        <time>2020-08-29T13:19:06.083Z</time>
      </trkpt>
      <trkpt lat="62.47014" lon="17.31664">
        <ele>19.127696</ele>
        <time>2020-08-29T13:19:22.202Z</time>
      </trkpt>
      <trkpt lat="62.46992" lon="17.31705">
        <ele>20.101291</ele>
        <time>2020-08-29T13:19:30.440Z</time>
      </trkpt>
      <trkpt lat="62.46996" lon="17.31721">
        <ele>20.299781</ele>
        <time>2020-08-29T13:19:32.084Z</time>
      </trkpt>
      <trkpt lat="62.46992" lon="17.3176">
        <ele>20.741942</ele>
        <time>2020-08-29T13:19:37.337Z</time>
      </trkpt>
      <trkpt lat="62.46959" lon="17.3189">
        <ele>22.383182</ele>
        <time>2020-08-29T13:19:55.031Z</time>
      </trkpt>
      <trkpt lat="62.46923" lon="17.32004">
        <ele>23.910034</ele>
        <time>2020-08-29T13:20:10.667Z</time>
      </trkpt>
      <trkpt lat="62.46913" lon="17.32031">
        <ele>24.242492</ele>
        <time>2020-08-29T13:20:14.369Z</time>
      </trkpt>
      <trkpt lat="62.46899" lon="17.32078">
        <ele>24.62903</ele>
        <time>2020-08-29T13:20:20.318Z</time>
      </trkpt>
      <trkpt lat="62.46893" lon="17.32108">
        <ele>24.856425</ele>
        <time>2020-08-29T13:20:23.676Z</time>
      </trkpt>
      <trkpt lat="62.4689" lon="17.32134">
        <ele>25.041804</ele>
        <time>2020-08-29T13:20:26.562Z</time>
      </trkpt>
      <trkpt lat="62.46888" lon="17.32174">
        <ele>25.32585</ele>
        <time>2020-08-29T13:20:31.046Z</time>
      </trkpt>
      <trkpt lat="62.46888" lon="17.32175">
        <ele>25.334198</ele>
        <time>2020-08-29T13:20:31.161Z</time>
      </trkpt>
      <trkpt lat="62.46888" lon="17.32226">
        <ele>25.68762</ele>
        <time>2020-08-29T13:20:36.677Z</time>
      </trkpt>
      <trkpt lat="62.46888" lon="17.32235">
        <ele>25.751211</ele>
        <time>2020-08-29T13:20:37.766Z</time>
      </trkpt>
      <trkpt lat="62.46906" lon="17.32445">
        <ele>26.949522</ele>
        <time>2020-08-29T13:20:59.208Z</time>
      </trkpt>
      <trkpt lat="62.46901" lon="17.32561">
        <ele>27.115995</ele>
        <time>2020-08-29T13:21:09.140Z</time>
      </trkpt>
      <trkpt lat="62.46897" lon="17.32619">
        <ele>27.20091</ele>
        <time>2020-08-29T13:21:13.974Z</time>
      </trkpt>
      <trkpt lat="62.46892" lon="17.32666">
        <ele>27.269373</ele>
        <time>2020-08-29T13:21:18.039Z</time>
      </trkpt>
      <trkpt lat="62.46876" lon="17.32775">
        <ele>27.431391</ele>
        <time>2020-08-29T13:21:27.899Z</time>
      </trkpt>
      <trkpt lat="62.46864" lon="17.32851">
        <ele>27.374643</ele>
        <time>2020-08-29T13:21:34.386Z</time>
      </trkpt>
      <trkpt lat="62.46855" lon="17.32918">
        <ele>27.325488</ele>
        <time>2020-08-29T13:21:39.840Z</time>
      </trkpt>
      <trkpt lat="62.46853" lon="17.32937">
        <ele>27.311701</ele>
        <time>2020-08-29T13:21:41.568Z</time>
      </trkpt>
      <trkpt lat="62.46842" lon="17.33025">
        <ele>27.246986</ele>
        <time>2020-08-29T13:21:49.041Z</time>
      </trkpt>
      <trkpt lat="62.46834" lon="17.33091">
        <ele>27.198743</ele>
        <time>2020-08-29T13:21:54.883Z</time>
      </trkpt>
      <trkpt lat="62.46826" lon="17.33155">
        <ele>27.127534</ele>
        <time>2020-08-29T13:21:59.813Z</time>
      </trkpt>
      <trkpt lat="62.46819" lon="17.33213">
        <ele>26.855302</ele>
        <time>2020-08-29T13:22:04.199Z</time>
      </trkpt>
      <trkpt lat="62.46811" lon="17.33254">
        <ele>26.657377</ele>
        <time>2020-08-29T13:22:07.541Z</time>
      </trkpt>
      <trkpt lat="62.46801" lon="17.33302">
        <ele>26.421602</ele>
        <time>2020-08-29T13:22:11.349Z</time>
      </trkpt>
      <trkpt lat="62.46789" lon="17.3335">
        <ele>26.176879</ele>
        <time>2020-08-29T13:22:15.047Z</time>
      </trkpt>
      <trkpt lat="62.46781" lon="17.33381">
        <ele>26.012401</ele>
        <time>2020-08-29T13:22:17.795Z</time>
      </trkpt>
      <trkpt lat="62.46777" lon="17.33405">
        <ele>25.897461</ele>
        <time>2020-08-29T13:22:19.736Z</time>
      </trkpt>
      <trkpt lat="62.46777" lon="17.33416">
        <ele>25.850933</ele>
        <time>2020-08-29T13:22:20.326Z</time>
      </trkpt>
      <trkpt lat="62.46786" lon="17.33451">
        <ele>25.673059</ele>
        <time>2020-08-29T13:22:23.537Z</time>
      </trkpt>
      <trkpt lat="62.46787" lon="17.33461">
        <ele>25.625244</ele>
        <time>2020-08-29T13:22:24.134Z</time>
      </trkpt>
      <trkpt lat="62.46786" lon="17.33472">
        <ele>25.575127</ele>
        <time>2020-08-29T13:22:25.399Z</time>
      </trkpt>
      <trkpt lat="62.46765" lon="17.33553">
        <ele>25.114674</ele>
        <time>2020-08-29T13:22:31.645Z</time>
      </trkpt>
      <trkpt lat="62.46739" lon="17.33685">
        <ele>24.345445</ele>
        <time>2020-08-29T13:22:41.532Z</time>
      </trkpt>
      <trkpt lat="62.46732" lon="17.33727">
        <ele>24.112825</ele>
        <time>2020-08-29T13:22:44.427Z</time>
      </trkpt>
      <trkpt lat="62.46725" lon="17.33779">
        <ele>23.822263</ele>
        <time>2020-08-29T13:22:48.048Z</time>
      </trkpt>
      <trkpt lat="62.46711" lon="17.33878">
        <ele>23.468171</ele>
        <time>2020-08-29T13:22:55.209Z</time>
      </trkpt>
      <trkpt lat="62.46702" lon="17.33931">
        <ele>24.090116</ele>
        <time>2020-08-29T13:23:01.495Z</time>
      </trkpt>
      <trkpt lat="62.4668" lon="17.34031">
        <ele>25.322496</ele>
        <time>2020-08-29T13:23:12.693Z</time>
      </trkpt>
      <trkpt lat="62.46673" lon="17.34059">
        <ele>25.664085</ele>
        <time>2020-08-29T13:23:16.830Z</time>
      </trkpt>
      <trkpt lat="62.46665" lon="17.34093">
        <ele>26.087033</ele>
        <time>2020-08-29T13:23:21.143Z</time>
      </trkpt>
      <trkpt lat="62.46649" lon="17.34134">
        <ele>26.689145</ele>
        <time>2020-08-29T13:23:29.282Z</time>
      </trkpt>
      <trkpt lat="62.46642" lon="17.34139">
        <ele>26.851987</ele>
        <time>2020-08-29T13:23:30.733Z</time>
      </trkpt>
      <trkpt lat="62.46633" lon="17.34143">
        <ele>27.079576</ele>
        <time>2020-08-29T13:23:33.269Z</time>
      </trkpt>
      <trkpt lat="62.46625" lon="17.34144">
        <ele>27.271107</ele>
        <time>2020-08-29T13:23:35.364Z</time>
      </trkpt>
      <trkpt lat="62.46618" lon="17.34141">
        <ele>27.445123</ele>
        <time>2020-08-29T13:23:39.608Z</time>
      </trkpt>
      <trkpt lat="62.46599" lon="17.34124">
        <ele>28.1415</ele>
        <time>2020-08-29T13:23:45.414Z</time>
      </trkpt>
      <trkpt lat="62.46553" lon="17.34028">
        <ele>30.623137</ele>
        <time>2020-08-29T13:24:08.622Z</time>
      </trkpt>
      <trkpt lat="62.46539" lon="17.34014">
        <ele>31.227368</ele>
        <time>2020-08-29T13:24:13.408Z</time>
      </trkpt>
      <trkpt lat="62.46505" lon="17.34017">
        <ele>32.527164</ele>
        <time>2020-08-29T13:24:24.818Z</time>
      </trkpt>
      <trkpt lat="62.4647" lon="17.34059">
        <ele>34.102915</ele>
        <time>2020-08-29T13:24:36.756Z</time>
      </trkpt>
      <trkpt lat="62.46442" lon="17.34106">
        <ele>34.342516</ele>
        <time>2020-08-29T13:24:43.315Z</time>
      </trkpt>
      <trkpt lat="62.46417" lon="17.34159">
        <ele>33.838444</ele>
        <time>2020-08-29T13:24:48.733Z</time>
      </trkpt>
      <trkpt lat="62.46399" lon="17.34193">
        <ele>33.492234</ele>
        <time>2020-08-29T13:24:52.081Z</time>
      </trkpt>
      <trkpt lat="62.46374" lon="17.34241">
        <ele>32.999122</ele>
        <time>2020-08-29T13:24:56.843Z</time>
      </trkpt>
      <trkpt lat="62.46372" lon="17.34244">
        <ele>32.967843</ele>
        <time>2020-08-29T13:24:57.087Z</time>
      </trkpt>
      <trkpt lat="62.46349" lon="17.34288">
        <ele>32.512174</ele>
        <time>2020-08-29T13:25:01.350Z</time>
      </trkpt>
      <trkpt lat="62.46299" lon="17.3438">
        <ele>32.000524</ele>
        <time>2020-08-29T13:25:09.865Z</time>
      </trkpt>
      <trkpt lat="62.46265" lon="17.34429">
        <ele>31.956422</ele>
        <time>2020-08-29T13:25:15.730Z</time>
      </trkpt>
      <trkpt lat="62.46251" lon="17.34445">
        <ele>31.938727</ele>
        <time>2020-08-29T13:25:18.136Z</time>
      </trkpt>
      <trkpt lat="62.46239" lon="17.34458">
        <ele>31.924621</ele>
        <time>2020-08-29T13:25:21.155Z</time>
      </trkpt>
      <trkpt lat="62.46198" lon="17.34491">
        <ele>31.877633</ele>
        <time>2020-08-29T13:25:30.799Z</time>
      </trkpt>
      <trkpt lat="62.46176" lon="17.34507">
        <ele>31.851702</ele>
        <time>2020-08-29T13:25:36.884Z</time>
      </trkpt>
      <trkpt lat="62.46136" lon="17.34536">
        <ele>32.881666</ele>
        <time>2020-08-29T13:25:48.665Z</time>
      </trkpt>
      <trkpt lat="62.46119" lon="17.34546">
        <ele>33.432759</ele>
        <time>2020-08-29T13:25:53.387Z</time>
      </trkpt>
      <trkpt lat="62.46113" lon="17.3451">
        <ele>33.995362</ele>
        <time>2020-08-29T13:25:58.861Z</time>
      </trkpt>
      <trkpt lat="62.46103" lon="17.34517">
        <ele>34.33419</ele>
        <time>2020-08-29T13:26:01.820Z</time>
      </trkpt>
      <trkpt lat="62.46099" lon="17.34519">
        <ele>34.457418</ele>
        <time>2020-08-29T13:26:02.910Z</time>
      </trkpt>
      <trkpt lat="62.46096" lon="17.34521">
        <ele>34.555674</ele>
        <time>2020-08-29T13:26:04.101Z</time>
      </trkpt>
      <trkpt lat="62.46089" lon="17.34498">
        <ele>34.959573</ele>
        <time>2020-08-29T13:26:07.836Z</time>
      </trkpt>
      <trkpt lat="62.46082" lon="17.34496">
        <ele>35.189141</ele>
        <time>2020-08-29T13:26:10.018Z</time>
      </trkpt>
      <trkpt lat="62.46054" lon="17.34534">
        <ele>36.246757</ele>
        <time>2020-08-29T13:26:19.844Z</time>
      </trkpt>
      <trkpt lat="62.46048" lon="17.34541">
        <ele>36.46504</ele>
        <time>2020-08-29T13:26:21.848Z</time>
      </trkpt>
      <trkpt lat="62.46029" lon="17.34563">
        <ele>37.15219</ele>
        <time>2020-08-29T13:26:27.960Z</time>
      </trkpt>
      <trkpt lat="62.4601" lon="17.34587">
        <ele>37.725262</ele>
        <time>2020-08-29T13:26:33.797Z</time>
      </trkpt>
      <trkpt lat="62.4595" lon="17.34665">
        <ele>38.726134</ele>
        <time>2020-08-29T13:26:50.892Z</time>
      </trkpt>
      <trkpt lat="62.45939" lon="17.34681">
        <ele>38.917242</ele>
        <time>2020-08-29T13:26:53.707Z</time>
      </trkpt>
      <trkpt lat="62.45926" lon="17.34697">
        <ele>39.13022</ele>
        <time>2020-08-29T13:26:56.915Z</time>
      </trkpt>
      <trkpt lat="62.45833" lon="17.34818">
        <ele>40.445484</ele>
        <time>2020-08-29T13:27:18.223Z</time>
      </trkpt>
      <trkpt lat="62.45829" lon="17.34832">
        <ele>40.505042</ele>
        <time>2020-08-29T13:27:19.572Z</time>
      </trkpt>
      <trkpt lat="62.4582" lon="17.34842">
        <ele>40.581119</ele>
        <time>2020-08-29T13:27:21.524Z</time>
      </trkpt>
      <trkpt lat="62.45814" lon="17.34849">
        <ele>40.635275</ele>
        <time>2020-08-29T13:27:22.880Z</time>
      </trkpt>
      <trkpt lat="62.45806" lon="17.34846">
        <ele>40.694327</ele>
        <time>2020-08-29T13:27:24.249Z</time>
      </trkpt>
      <trkpt lat="62.458" lon="17.34852">
        <ele>40.744295</ele>
        <time>2020-08-29T13:27:25.422Z</time>
      </trkpt>
      <trkpt lat="62.45784" lon="17.34868">
        <ele>40.882617</ele>
        <time>2020-08-29T13:27:29.002Z</time>
      </trkpt>
      <trkpt lat="62.45742" lon="17.34901">
        <ele>41.218909</ele>
        <time>2020-08-29T13:27:37.914Z</time>
      </trkpt>
      <trkpt lat="62.45667" lon="17.3494">
        <ele>41.992711</ele>
        <time>2020-08-29T13:27:54.800Z</time>
      </trkpt>
      <trkpt lat="62.45641" lon="17.34947">
        <ele>42.333578</ele>
        <time>2020-08-29T13:28:01.029Z</time>
      </trkpt>
      <trkpt lat="62.45597" lon="17.34952">
        <ele>42.918791</ele>
        <time>2020-08-29T13:28:11.191Z</time>
      </trkpt>
      <trkpt lat="62.45553" lon="17.34951">
        <ele>43.504323</ele>
        <time>2020-08-29T13:28:21.082Z</time>
      </trkpt>
      <trkpt lat="62.45534" lon="17.34948">
        <ele>43.752051</ele>
        <time>2020-08-29T13:28:25.181Z</time>
      </trkpt>
      <trkpt lat="62.45522" lon="17.34945">
        <ele>43.915852</ele>
        <time>2020-08-29T13:28:27.778Z</time>
      </trkpt>
      <trkpt lat="62.45509" lon="17.34941">
        <ele>43.832117</ele>
        <time>2020-08-29T13:28:30.500Z</time>
      </trkpt>
      <trkpt lat="62.45499" lon="17.34936">
        <ele>43.747534</ele>
        <time>2020-08-29T13:28:32.692Z</time>
      </trkpt>
      <trkpt lat="62.45484" lon="17.3493">
        <ele>43.622026</ele>
        <time>2020-08-29T13:28:35.805Z</time>
      </trkpt>
      <trkpt lat="62.45412" lon="17.34886">
        <ele>43.007581</ele>
        <time>2020-08-29T13:28:48.166Z</time>
      </trkpt>
      <trkpt lat="62.45326" lon="17.34817">
        <ele>41.640887</ele>
        <time>2020-08-29T13:29:00.960Z</time>
      </trkpt>
      <trkpt lat="62.45315" lon="17.34822">
        <ele>41.259413</ele>
        <time>2020-08-29T13:29:02.494Z</time>
      </trkpt>
      <trkpt lat="62.45311" lon="17.34819">
        <ele>41.132233</ele>
        <time>2020-08-29T13:29:02.927Z</time>
      </trkpt>
      <trkpt lat="62.45306" lon="17.34815">
        <ele>40.955249</ele>
        <time>2020-08-29T13:29:03.562Z</time>
      </trkpt>
      <trkpt lat="62.453" lon="17.34795">
        <ele>40.581978</ele>
        <time>2020-08-29T13:29:05.147Z</time>
      </trkpt>
      <trkpt lat="62.45255" lon="17.34762">
        <ele>39.002156</ele>
        <time>2020-08-29T13:29:11.357Z</time>
      </trkpt>
      <trkpt lat="62.45243" lon="17.34747">
        <ele>38.52667</ele>
        <time>2020-08-29T13:29:13.054Z</time>
      </trkpt>
      <trkpt lat="62.45201" lon="17.34712">
        <ele>37.037815</ele>
        <time>2020-08-29T13:29:18.751Z</time>
      </trkpt>
      <trkpt lat="62.45183" lon="17.34694">
        <ele>36.345222</ele>
        <time>2020-08-29T13:29:21.300Z</time>
      </trkpt>
      <trkpt lat="62.45117" lon="17.34624">
        <ele>33.613631</ele>
        <time>2020-08-29T13:29:30.583Z</time>
      </trkpt>
      <trkpt lat="62.45085" lon="17.34589">
        <ele>32.272808</ele>
        <time>2020-08-29T13:29:35.171Z</time>
      </trkpt>
      <trkpt lat="62.45046" lon="17.34549">
        <ele>30.686425</ele>
        <time>2020-08-29T13:29:40.936Z</time>
      </trkpt>
      <trkpt lat="62.45028" lon="17.34531">
        <ele>29.923893</ele>
        <time>2020-08-29T13:29:43.732Z</time>
      </trkpt>
      <trkpt lat="62.4501" lon="17.34518">
        <ele>29.281005</ele>
        <time>2020-08-29T13:29:46.252Z</time>
      </trkpt>
      <trkpt lat="62.44993" lon="17.34506">
        <ele>28.663918</ele>
        <time>2020-08-29T13:29:48.733Z</time>
      </trkpt>
      <trkpt lat="62.44962" lon="17.34489">
        <ele>27.607293</ele>
        <time>2020-08-29T13:29:52.910Z</time>
      </trkpt>
      <trkpt lat="62.44916" lon="17.34479">
        <ele>26.0468</ele>
        <time>2020-08-29T13:29:59.167Z</time>
      </trkpt>
      <trkpt lat="62.44907" lon="17.34479">
        <ele>25.727239</ele>
        <time>2020-08-29T13:30:00.421Z</time>
      </trkpt>
      <trkpt lat="62.44843" lon="17.34475">
        <ele>23.631637</ele>
        <time>2020-08-29T13:30:09.206Z</time>
      </trkpt>
      <trkpt lat="62.44793" lon="17.34472">
        <ele>22.514462</ele>
        <time>2020-08-29T13:30:16.179Z</time>
      </trkpt>
      <trkpt lat="62.44776" lon="17.34468">
        <ele>22.127838</ele>
        <time>2020-08-29T13:30:18.662Z</time>
      </trkpt>
      <trkpt lat="62.44757" lon="17.34459">
        <ele>21.701441</ele>
        <time>2020-08-29T13:30:21.360Z</time>
      </trkpt>
      <trkpt lat="62.44743" lon="17.3445">
        <ele>21.367502</ele>
        <time>2020-08-29T13:30:23.503Z</time>
      </trkpt>
      <trkpt lat="62.4471" lon="17.34425">
        <ele>20.597679</ele>
        <time>2020-08-29T13:30:28.599Z</time>
      </trkpt>
      <trkpt lat="62.44692" lon="17.34405">
        <ele>20.150857</ele>
        <time>2020-08-29T13:30:31.630Z</time>
      </trkpt>
      <trkpt lat="62.4468" lon="17.34387">
        <ele>19.811334</ele>
        <time>2020-08-29T13:30:34.099Z</time>
      </trkpt>
      <trkpt lat="62.4462" lon="17.34303">
        <ele>19.730825</ele>
        <time>2020-08-29T13:30:46.283Z</time>
      </trkpt>
      <trkpt lat="62.44581" lon="17.34268">
        <ele>19.755445</ele>
        <time>2020-08-29T13:30:54.202Z</time>
      </trkpt>
      <trkpt lat="62.44576" lon="17.34263">
        <ele>19.758536</ele>
        <time>2020-08-29T13:30:55.107Z</time>
      </trkpt>
      <trkpt lat="62.4457" lon="17.34256">
        <ele>19.762179</ele>
        <time>2020-08-29T13:30:56.323Z</time>
      </trkpt>
      <trkpt lat="62.44565" lon="17.34249">
        <ele>19.765872</ele>
        <time>2020-08-29T13:30:57.509Z</time>
      </trkpt>
      <trkpt lat="62.44563" lon="17.34245">
        <ele>19.767725</ele>
        <time>2020-08-29T13:30:58.096Z</time>
      </trkpt>
      <trkpt lat="62.44558" lon="17.34232">
        <ele>19.772018</ele>
        <time>2020-08-29T13:30:59.785Z</time>
      </trkpt>
      <trkpt lat="62.44535" lon="17.34202">
        <ele>19.787741</ele>
        <time>2020-08-29T13:31:05.189Z</time>
      </trkpt>
      <trkpt lat="62.44486" lon="17.34164">
        <ele>20.762146</ele>
        <time>2020-08-29T13:31:17.414Z</time>
      </trkpt>
      <trkpt lat="62.44441" lon="17.34143">
        <ele>21.995664</ele>
        <time>2020-08-29T13:31:29.162Z</time>
      </trkpt>
      <trkpt lat="62.44421" lon="17.34143">
        <ele>22.504715</ele>
        <time>2020-08-29T13:31:35.268Z</time>
      </trkpt>
      <trkpt lat="62.44393" lon="17.34163">
        <ele>23.304947</ele>
        <time>2020-08-29T13:31:43.946Z</time>
      </trkpt>
      <trkpt lat="62.44363" lon="17.34199">
        <ele>24.214618</ele>
        <time>2020-08-29T13:31:53.920Z</time>
      </trkpt>
      <trkpt lat="62.4436" lon="17.3421">
        <ele>24.366096</ele>
        <time>2020-08-29T13:31:55.784Z</time>
      </trkpt>
      <trkpt lat="62.44355" lon="17.34206">
        <ele>24.511974</ele>
        <time>2020-08-29T13:31:57.182Z</time>
      </trkpt>
      <trkpt lat="62.44345" lon="17.34199">
        <ele>24.895294</ele>
        <time>2020-08-29T13:32:00.010Z</time>
      </trkpt>
      <trkpt lat="62.44341" lon="17.34196">
        <ele>25.069794</ele>
        <time>2020-08-29T13:32:01.284Z</time>
      </trkpt>
      <trkpt lat="62.4434" lon="17.34179">
        <ele>25.41027</ele>
        <time>2020-08-29T13:32:03.908Z</time>
      </trkpt>
      <trkpt lat="62.44333" lon="17.34141">
        <ele>26.213539</ele>
        <time>2020-08-29T13:32:09.359Z</time>
      </trkpt>
      <trkpt lat="62.44328" lon="17.34132">
        <ele>26.478697</ele>
        <time>2020-08-29T13:32:11.253Z</time>
      </trkpt>
      <trkpt lat="62.44315" lon="17.34105">
        <ele>27.249349</ele>
        <time>2020-08-29T13:32:17.963Z</time>
      </trkpt>
      <trkpt lat="62.44303" lon="17.34079">
        <ele>27.961083</ele>
        <time>2020-08-29T13:32:22.588Z</time>
      </trkpt>
      <trkpt lat="62.44278" lon="17.34048">
        <ele>29.167577</ele>
        <time>2020-08-29T13:32:32.302Z</time>
      </trkpt>
      <trkpt lat="62.44193" lon="17.34033">
        <ele>32.819534</ele>
        <time>2020-08-29T13:33:01.016Z</time>
      </trkpt>
      <trkpt lat="62.44186" lon="17.34033">
        <ele>33.138094</ele>
        <time>2020-08-29T13:33:04.195Z</time>
      </trkpt>
      <trkpt lat="62.44179" lon="17.34033">
        <ele>33.420896</ele>
        <time>2020-08-29T13:33:06.301Z</time>
      </trkpt>
      <trkpt lat="62.44167" lon="17.34038">
        <ele>33.995566</ele>
        <time>2020-08-29T13:33:09.720Z</time>
      </trkpt>
      <trkpt lat="62.4416" lon="17.34047">
        <ele>34.35878</ele>
        <time>2020-08-29T13:33:11.928Z</time>
      </trkpt>
      <trkpt lat="62.44154" lon="17.3405">
        <ele>34.621947</ele>
        <time>2020-08-29T13:33:14.082Z</time>
      </trkpt>
      <trkpt lat="62.44147" lon="17.34049">
        <ele>34.955173</ele>
        <time>2020-08-29T13:33:16.628Z</time>
      </trkpt>
      <trkpt lat="62.44143" lon="17.34048">
        <ele>35.122199</ele>
        <time>2020-08-29T13:33:17.600Z</time>
      </trkpt>
      <trkpt lat="62.44141" lon="17.34034">
        <ele>35.429062</ele>
        <time>2020-08-29T13:33:19.507Z</time>
      </trkpt>
      <trkpt lat="62.44135" lon="17.34023">
        <ele>35.79716</ele>
        <time>2020-08-29T13:33:21.580Z</time>
      </trkpt>
      <trkpt lat="62.44128" lon="17.34017">
        <ele>36.122491</ele>
        <time>2020-08-29T13:33:23.842Z</time>
      </trkpt>
      <trkpt lat="62.4412" lon="17.34013">
        <ele>36.477742</ele>
        <time>2020-08-29T13:33:26.797Z</time>
      </trkpt>
      <trkpt lat="62.43966" lon="17.33989">
        <ele>44.253202</ele>
        <time>2020-08-29T13:34:18.963Z</time>
      </trkpt>
      <trkpt lat="62.43931" lon="17.33989">
        <ele>46.271731</ele>
        <time>2020-08-29T13:34:32.366Z</time>
      </trkpt>
      <trkpt lat="62.43884" lon="17.33986">
        <ele>48.994383</ele>
        <time>2020-08-29T13:34:51.445Z</time>
      </trkpt>
      <trkpt lat="62.43854" lon="17.33986">
        <ele>50.694874</ele>
        <time>2020-08-29T13:35:02.627Z</time>
      </trkpt>
      <trkpt lat="62.43845" lon="17.33989">
        <ele>51.134653</ele>
        <time>2020-08-29T13:35:06.615Z</time>
      </trkpt>
      <trkpt lat="62.4383" lon="17.34">
        <ele>51.95434</ele>
        <time>2020-08-29T13:35:12.623Z</time>
      </trkpt>
      <trkpt lat="62.43802" lon="17.34009">
        <ele>53.402146</ele>
        <time>2020-08-29T13:35:23.331Z</time>
      </trkpt>
      <trkpt lat="62.43766" lon="17.34018">
        <ele>55.321165</ele>
        <time>2020-08-29T13:35:36.836Z</time>
      </trkpt>
      <trkpt lat="62.43754" lon="17.34023">
        <ele>55.934132</ele>
        <time>2020-08-29T13:35:41.234Z</time>
      </trkpt>
      <trkpt lat="62.43714" lon="17.34058">
        <ele>58.152611</ele>
        <time>2020-08-29T13:35:55.423Z</time>
      </trkpt>
      <trkpt lat="62.43674" lon="17.34112">
        <ele>60.426297</ele>
        <time>2020-08-29T13:36:10.253Z</time>
      </trkpt>
      <trkpt lat="62.43661" lon="17.34123">
        <ele>60.942725</ele>
        <time>2020-08-29T13:36:14.179Z</time>
      </trkpt>
      <trkpt lat="62.43657" lon="17.34127">
        <ele>61.149885</ele>
        <time>2020-08-29T13:36:15.696Z</time>
      </trkpt>
      <trkpt lat="62.43642" lon="17.34147">
        <ele>61.829348</ele>
        <time>2020-08-29T13:36:20.158Z</time>
      </trkpt>
      <trkpt lat="62.43638" lon="17.3416">
        <ele>62.115763</ele>
        <time>2020-08-29T13:36:22.061Z</time>
      </trkpt>
      <trkpt lat="62.43631" lon="17.34172">
        <ele>62.471771</ele>
        <time>2020-08-29T13:36:24.839Z</time>
      </trkpt>
      <trkpt lat="62.43612" lon="17.34201">
        <ele>63.385032</ele>
        <time>2020-08-29T13:36:31.423Z</time>
      </trkpt>
      <trkpt lat="62.43555" lon="17.3424">
        <ele>65.699245</ele>
        <time>2020-08-29T13:36:50.612Z</time>
      </trkpt>
      <trkpt lat="62.43527" lon="17.34253">
        <ele>66.835644</ele>
        <time>2020-08-29T13:37:00.400Z</time>
      </trkpt>
      <trkpt lat="62.43496" lon="17.3425">
        <ele>68.335577</ele>
        <time>2020-08-29T13:37:10.763Z</time>
      </trkpt>
      <trkpt lat="62.43476" lon="17.34242">
        <ele>69.314974</ele>
        <time>2020-08-29T13:37:17.583Z</time>
      </trkpt>
      <trkpt lat="62.43457" lon="17.34228">
        <ele>70.28149</ele>
        <time>2020-08-29T13:37:24.568Z</time>
      </trkpt>
      <trkpt lat="62.43382" lon="17.34116">
        <ele>74.657964</ele>
        <time>2020-08-29T13:37:55.893Z</time>
      </trkpt>
      <trkpt lat="62.43357" lon="17.34093">
        <ele>75.827682</ele>
        <time>2020-08-29T13:38:05.606Z</time>
      </trkpt>
      <trkpt lat="62.43332" lon="17.34103">
        <ele>76.637824</ele>
        <time>2020-08-29T13:38:14.790Z</time>
      </trkpt>
      <trkpt lat="62.43302" lon="17.34158">
        <ele>77.861268</ele>
        <time>2020-08-29T13:38:26.083Z</time>
      </trkpt>
      <trkpt lat="62.43294" lon="17.34169">
        <ele>78.153251</ele>
        <time>2020-08-29T13:38:28.726Z</time>
      </trkpt>
      <trkpt lat="62.43274" lon="17.34186">
        <ele>78.836791</ele>
        <time>2020-08-29T13:38:35.005Z</time>
      </trkpt>
      <trkpt lat="62.43168" lon="17.34317">
        <ele>81.267858</ele>
        <time>2020-08-29T13:39:05.580Z</time>
      </trkpt>
      <trkpt lat="62.43125" lon="17.34393">
        <ele>81.343502</ele>
        <time>2020-08-29T13:39:16.610Z</time>
      </trkpt>
      <trkpt lat="62.4294" lon="17.34608">
        <ele>79.819572</ele>
        <time>2020-08-29T13:39:49.554Z</time>
      </trkpt>
      <trkpt lat="62.42901" lon="17.34641">
        <ele>79.30123</ele>
        <time>2020-08-29T13:39:56.117Z</time>
      </trkpt>
      <trkpt lat="62.42854" lon="17.34668">
        <ele>79.019921</ele>
        <time>2020-08-29T13:40:04.157Z</time>
      </trkpt>
      <trkpt lat="62.42776" lon="17.34683">
        <ele>78.645679</ele>
        <time>2020-08-29T13:40:17.953Z</time>
      </trkpt>
      <trkpt lat="62.42681" lon="17.34691">
        <ele>78.01777</ele>
        <time>2020-08-29T13:40:35.115Z</time>
      </trkpt>
      <trkpt lat="62.4263" lon="17.34692">
        <ele>77.536773</ele>
        <time>2020-08-29T13:40:43.986Z</time>
      </trkpt>
      <trkpt lat="62.426" lon="17.34694">
        <ele>77.250341</ele>
        <time>2020-08-29T13:40:49.164Z</time>
      </trkpt>
      <trkpt lat="62.42557" lon="17.34692">
        <ele>76.84772</ele>
        <time>2020-08-29T13:40:56.000Z</time>
      </trkpt>
      <trkpt lat="62.42519" lon="17.34685">
        <ele>75.842306</ele>
        <time>2020-08-29T13:41:01.540Z</time>
      </trkpt>
      <trkpt lat="62.42488" lon="17.34677">
        <ele>74.48619</ele>
        <time>2020-08-29T13:41:05.731Z</time>
      </trkpt>
      <trkpt lat="62.42463" lon="17.3467">
        <ele>73.35238</ele>
        <time>2020-08-29T13:41:09.114Z</time>
      </trkpt>
      <trkpt lat="62.42438" lon="17.34659">
        <ele>72.224179</ele>
        <time>2020-08-29T13:41:12.410Z</time>
      </trkpt>
      <trkpt lat="62.42411" lon="17.34644">
        <ele>71.000021</ele>
        <time>2020-08-29T13:41:15.935Z</time>
      </trkpt>
      <trkpt lat="62.42315" lon="17.34591">
        <ele>66.103998</ele>
        <time>2020-08-29T13:41:28.106Z</time>
      </trkpt>
      <trkpt lat="62.42226" lon="17.3454">
        <ele>61.020974</ele>
        <time>2020-08-29T13:41:39.400Z</time>
      </trkpt>
      <trkpt lat="62.42158" lon="17.34503">
        <ele>57.732087</ele>
        <time>2020-08-29T13:41:48.607Z</time>
      </trkpt>
      <trkpt lat="62.42063" lon="17.34451">
        <ele>54.382405</ele>
        <time>2020-08-29T13:42:02.077Z</time>
      </trkpt>
      <trkpt lat="62.41981" lon="17.34402">
        <ele>51.367577</ele>
        <time>2020-08-29T13:42:13.899Z</time>
      </trkpt>
      <trkpt lat="62.41953" lon="17.34387">
        <ele>50.280684</ele>
        <time>2020-08-29T13:42:17.831Z</time>
      </trkpt>
      <trkpt lat="62.41781" lon="17.34291">
        <ele>44.176366</ele>
        <time>2020-08-29T13:42:41.160Z</time>
      </trkpt>
      <trkpt lat="62.41738" lon="17.34269">
        <ele>42.861111</ele>
        <time>2020-08-29T13:42:47.409Z</time>
      </trkpt>
      <trkpt lat="62.4172" lon="17.34263">
        <ele>42.349265</ele>
        <time>2020-08-29T13:42:49.933Z</time>
      </trkpt>
      <trkpt lat="62.41717" lon="17.34262">
        <ele>42.262637</ele>
        <time>2020-08-29T13:42:50.363Z</time>
      </trkpt>
      <trkpt lat="62.41711" lon="17.34255">
        <ele>42.039928</ele>
        <time>2020-08-29T13:42:51.424Z</time>
      </trkpt>
      <trkpt lat="62.41711" lon="17.34248">
        <ele>41.944911</ele>
        <time>2020-08-29T13:42:51.887Z</time>
      </trkpt>
      <trkpt lat="62.41713" lon="17.34231">
        <ele>41.706632</ele>
        <time>2020-08-29T13:42:53.071Z</time>
      </trkpt>
      <trkpt lat="62.41715" lon="17.3422">
        <ele>41.555508</ele>
        <time>2020-08-29T13:42:53.831Z</time>
      </trkpt>
      <trkpt lat="62.41664" lon="17.34193">
        <ele>40.423802</ele>
        <time>2020-08-29T13:43:01.598Z</time>
      </trkpt>
      <trkpt lat="62.41607" lon="17.3416">
        <ele>39.787968</ele>
        <time>2020-08-29T13:43:10.934Z</time>
      </trkpt>
      <trkpt lat="62.41599" lon="17.34152">
        <ele>39.694352</ele>
        <time>2020-08-29T13:43:12.395Z</time>
      </trkpt>
      <trkpt lat="62.41595" lon="17.34147">
        <ele>39.644314</ele>
        <time>2020-08-29T13:43:13.136Z</time>
      </trkpt>
      <trkpt lat="62.41594" lon="17.34145">
        <ele>39.622647</ele>
        <time>2020-08-29T13:43:13.454Z</time>
      </trkpt>
      <trkpt lat="62.41585" lon="17.34126">
        <ele>39.489022</ele>
        <time>2020-08-29T13:43:15.619Z</time>
      </trkpt>
      <trkpt lat="62.41577" lon="17.34116">
        <ele>39.39574</ele>
        <time>2020-08-29T13:43:17.073Z</time>
      </trkpt>
      <trkpt lat="62.4157" lon="17.34111">
        <ele>39.309781</ele>
        <time>2020-08-29T13:43:18.405Z</time>
      </trkpt>
      <trkpt lat="62.41543" lon="17.34095">
        <ele>39.011269</ele>
        <time>2020-08-29T13:43:23.053Z</time>
      </trkpt>
      <trkpt lat="62.41514" lon="17.3405">
        <ele>38.676743</ele>
        <time>2020-08-29T13:43:29.078Z</time>
      </trkpt>
      <trkpt lat="62.41493" lon="17.34009">
        <ele>38.552933</ele>
        <time>2020-08-29T13:43:33.917Z</time>
      </trkpt>
      <trkpt lat="62.41475" lon="17.33971">
        <ele>38.446023</ele>
        <time>2020-08-29T13:43:38.077Z</time>
      </trkpt>
      <trkpt lat="62.41431" lon="17.33882">
        <ele>38.184321</ele>
        <time>2020-08-29T13:43:48.720Z</time>
      </trkpt>
      <trkpt lat="62.41415" lon="17.33849">
        <ele>38.088289</ele>
        <time>2020-08-29T13:43:52.692Z</time>
      </trkpt>
      <trkpt lat="62.41358" lon="17.33716">
        <ele>37.818998</ele>
        <time>2020-08-29T13:44:07.612Z</time>
      </trkpt>
      <trkpt lat="62.41351" lon="17.33701">
        <ele>37.797033</ele>
        <time>2020-08-29T13:44:09.324Z</time>
      </trkpt>
      <trkpt lat="62.41346" lon="17.3369">
        <ele>37.780316</ele>
        <time>2020-08-29T13:44:10.631Z</time>
      </trkpt>
      <trkpt lat="62.41329" lon="17.33655">
        <ele>37.724815</ele>
        <time>2020-08-29T13:44:14.778Z</time>
      </trkpt>
      <trkpt lat="62.41306" lon="17.33605">
        <ele>37.646923</ele>
        <time>2020-08-29T13:44:20.745Z</time>
      </trkpt>
      <trkpt lat="62.41292" lon="17.33579">
        <ele>37.604046</ele>
        <time>2020-08-29T13:44:24.146Z</time>
      </trkpt>
      <trkpt lat="62.41282" lon="17.3356">
        <ele>37.573374</ele>
        <time>2020-08-29T13:44:26.377Z</time>
      </trkpt>
      <trkpt lat="62.41233" lon="17.33486">
        <ele>37.383337</ele>
        <time>2020-08-29T13:44:37.261Z</time>
      </trkpt>
      <trkpt lat="62.41223" lon="17.33476">
        <ele>37.341288</ele>
        <time>2020-08-29T13:44:39.112Z</time>
      </trkpt>
      <trkpt lat="62.41222" lon="17.33474">
        <ele>37.333262</ele>
        <time>2020-08-29T13:44:39.486Z</time>
      </trkpt>
      <trkpt lat="62.41196" lon="17.33451">
        <ele>37.227294</ele>
        <time>2020-08-29T13:44:44.343Z</time>
      </trkpt>
      <trkpt lat="62.41162" lon="17.33421">
        <ele>37.084668</ele>
        <time>2020-08-29T13:44:50.632Z</time>
      </trkpt>
      <trkpt lat="62.41154" lon="17.33412">
        <ele>37.047812</ele>
        <time>2020-08-29T13:44:52.247Z</time>
      </trkpt>
      <trkpt lat="62.41098" lon="17.33337">
        <ele>36.806894</ele>
        <time>2020-08-29T13:45:03.523Z</time>
      </trkpt>
      <trkpt lat="62.41092" lon="17.33335">
        <ele>36.797595</ele>
        <time>2020-08-29T13:45:04.643Z</time>
      </trkpt>
      <trkpt lat="62.41081" lon="17.33334">
        <ele>36.782665</ele>
        <time>2020-08-29T13:45:06.487Z</time>
      </trkpt>
      <trkpt lat="62.41071" lon="17.33332">
        <ele>36.76759</ele>
        <time>2020-08-29T13:45:08.293Z</time>
      </trkpt>
      <trkpt lat="62.41053" lon="17.33329">
        <ele>36.741533</ele>
        <time>2020-08-29T13:45:11.516Z</time>
      </trkpt>
      <trkpt lat="62.41046" lon="17.33331">
        <ele>36.730987</ele>
        <time>2020-08-29T13:45:12.831Z</time>
      </trkpt>
      <trkpt lat="62.41041" lon="17.33332">
        <ele>36.723786</ele>
        <time>2020-08-29T13:45:13.717Z</time>
      </trkpt>
      <trkpt lat="62.41032" lon="17.33342">
        <ele>36.708132</ele>
        <time>2020-08-29T13:45:15.566Z</time>
      </trkpt>
      <trkpt lat="62.41007" lon="17.33361">
        <ele>36.669474</ele>
        <time>2020-08-29T13:45:20.442Z</time>
      </trkpt>
      <trkpt lat="62.40982" lon="17.33373">
        <ele>36.633199</ele>
        <time>2020-08-29T13:45:24.955Z</time>
      </trkpt>
      <trkpt lat="62.40975" lon="17.33379">
        <ele>36.621473</ele>
        <time>2020-08-29T13:45:26.447Z</time>
      </trkpt>
      <trkpt lat="62.40971" lon="17.33383">
        <ele>36.614816</ele>
        <time>2020-08-29T13:45:27.250Z</time>
      </trkpt>
      <trkpt lat="62.40967" lon="17.33387">
        <ele>36.608246</ele>
        <time>2020-08-29T13:45:28.052Z</time>
      </trkpt>
      <trkpt lat="62.40962" lon="17.33391">
        <ele>36.601515</ele>
        <time>2020-08-29T13:45:28.858Z</time>
      </trkpt>
      <trkpt lat="62.40943" lon="17.33418">
        <ele>36.567663</ele>
        <time>2020-08-29T13:45:33.226Z</time>
      </trkpt>
      <trkpt lat="62.4084" lon="17.33509">
        <ele>36.655368</ele>
        <time>2020-08-29T13:45:54.413Z</time>
      </trkpt>
      <trkpt lat="62.40638" lon="17.33625">
        <ele>36.247331</ele>
        <time>2020-08-29T13:46:33.658Z</time>
      </trkpt>
      <trkpt lat="62.406" lon="17.33637">
        <ele>36.102001</ele>
        <time>2020-08-29T13:46:40.145Z</time>
      </trkpt>
      <trkpt lat="62.40419" lon="17.33628">
        <ele>32.76814</ele>
        <time>2020-08-29T13:47:07.102Z</time>
      </trkpt>
      <trkpt lat="62.40379" lon="17.33624">
        <ele>31.626911</ele>
        <time>2020-08-29T13:47:12.618Z</time>
      </trkpt>
      <trkpt lat="62.40314" lon="17.33618">
        <ele>29.517357</ele>
        <time>2020-08-29T13:47:21.579Z</time>
      </trkpt>
      <trkpt lat="62.40239" lon="17.33612">
        <ele>27.102285</ele>
        <time>2020-08-29T13:47:31.689Z</time>
      </trkpt>
      <trkpt lat="62.4019" lon="17.33606">
        <ele>25.695199</ele>
        <time>2020-08-29T13:47:38.313Z</time>
      </trkpt>
      <trkpt lat="62.40162" lon="17.33604">
        <ele>24.916995</ele>
        <time>2020-08-29T13:47:42.097Z</time>
      </trkpt>
      <trkpt lat="62.40103" lon="17.33596">
        <ele>23.288977</ele>
        <time>2020-08-29T13:47:50.436Z</time>
      </trkpt>
      <trkpt lat="62.40092" lon="17.33594">
        <ele>22.973108</ele>
        <time>2020-08-29T13:47:51.964Z</time>
      </trkpt>
      <trkpt lat="62.40087" lon="17.33593">
        <ele>22.838717</ele>
        <time>2020-08-29T13:47:52.667Z</time>
      </trkpt>
      <trkpt lat="62.40081" lon="17.33591">
        <ele>22.673302</ele>
        <time>2020-08-29T13:47:53.589Z</time>
      </trkpt>
      <trkpt lat="62.40076" lon="17.33577">
        <ele>22.433482</ele>
        <time>2020-08-29T13:47:54.875Z</time>
      </trkpt>
      <trkpt lat="62.40076" lon="17.33569">
        <ele>22.337575</ele>
        <time>2020-08-29T13:47:55.373Z</time>
      </trkpt>
      <trkpt lat="62.40069" lon="17.33567">
        <ele>22.140619</ele>
        <time>2020-08-29T13:47:56.361Z</time>
      </trkpt>
      <trkpt lat="62.40061" lon="17.33564">
        <ele>21.925755</ele>
        <time>2020-08-29T13:47:57.421Z</time>
      </trkpt>
      <trkpt lat="62.40051" lon="17.33583">
        <ele>21.619598</ele>
        <time>2020-08-29T13:47:59.605Z</time>
      </trkpt>
      <trkpt lat="62.39974" lon="17.33559">
        <ele>20.200061</ele>
        <time>2020-08-29T13:48:11.318Z</time>
      </trkpt>
      <trkpt lat="62.39945" lon="17.33542">
        <ele>19.644764</ele>
        <time>2020-08-29T13:48:15.797Z</time>
      </trkpt>
      <trkpt lat="62.39941" lon="17.33539">
        <ele>19.561659</ele>
        <time>2020-08-29T13:48:16.503Z</time>
      </trkpt>
      <trkpt lat="62.39854" lon="17.33489">
        <ele>17.652271</ele>
        <time>2020-08-29T13:48:30.148Z</time>
      </trkpt>
      <trkpt lat="62.39846" lon="17.33488">
        <ele>17.451429</ele>
        <time>2020-08-29T13:48:31.147Z</time>
      </trkpt>
      <trkpt lat="62.39839" lon="17.33485">
        <ele>17.243472</ele>
        <time>2020-08-29T13:48:32.314Z</time>
      </trkpt>
      <trkpt lat="62.39832" lon="17.33477">
        <ele>17.039678</ele>
        <time>2020-08-29T13:48:33.486Z</time>
      </trkpt>
      <trkpt lat="62.39828" lon="17.33463">
        <ele>16.835998</ele>
        <time>2020-08-29T13:48:34.588Z</time>
      </trkpt>
      <trkpt lat="62.39823" lon="17.33469">
        <ele>16.702347</ele>
        <time>2020-08-29T13:48:35.323Z</time>
      </trkpt>
      <trkpt lat="62.39815" lon="17.33474">
        <ele>16.468834</ele>
        <time>2020-08-29T13:48:36.480Z</time>
      </trkpt>
      <trkpt lat="62.39811" lon="17.33475">
        <ele>16.371702</ele>
        <time>2020-08-29T13:48:36.997Z</time>
      </trkpt>
      <trkpt lat="62.39805" lon="17.33502">
        <ele>15.989388</ele>
        <time>2020-08-29T13:48:39.132Z</time>
      </trkpt>
      <trkpt lat="62.39805" lon="17.33511">
        <ele>15.87767</ele>
        <time>2020-08-29T13:48:39.709Z</time>
      </trkpt>
      <trkpt lat="62.39804" lon="17.33525">
        <ele>15.69568</ele>
        <time>2020-08-29T13:48:40.670Z</time>
      </trkpt>
      <trkpt lat="62.39803" lon="17.33531">
        <ele>15.614283</ele>
        <time>2020-08-29T13:48:41.045Z</time>
      </trkpt>
      <trkpt lat="62.3977" lon="17.3352">
        <ele>14.717304</ele>
        <time>2020-08-29T13:48:45.789Z</time>
      </trkpt>
      <trkpt lat="62.39753" lon="17.33529">
        <ele>14.262771</ele>
        <time>2020-08-29T13:48:48.115Z</time>
      </trkpt>
      <trkpt lat="62.39737" lon="17.33543">
        <ele>13.791723</ele>
        <time>2020-08-29T13:48:50.545Z</time>
      </trkpt>
      <trkpt lat="62.39732" lon="17.33547">
        <ele>13.65403</ele>
        <time>2020-08-29T13:48:51.182Z</time>
      </trkpt>
      <trkpt lat="62.39568" lon="17.33727">
        <ele>7.23286</ele>
        <time>2020-08-29T13:49:15.927Z</time>
      </trkpt>
      <trkpt lat="62.39493" lon="17.33744">
        <ele>5.384075</ele>
        <time>2020-08-29T13:49:26.317Z</time>
      </trkpt>
      <trkpt lat="62.3927" lon="17.33819">
        <ele>1.267671</ele>
        <time>2020-08-29T13:50:00.278Z</time>
      </trkpt>
      <trkpt lat="62.39083" lon="17.33919">
        <ele>0.145295</ele>
        <time>2020-08-29T13:50:34.236Z</time>
      </trkpt>
      <trkpt lat="62.38907" lon="17.34057">
        <ele>0.004558</ele>
        <time>2020-08-29T13:51:08.915Z</time>
      </trkpt>
      <trkpt lat="62.38833" lon="17.34125">
        <ele>0.00629</ele>
        <time>2020-08-29T13:51:23.831Z</time>
      </trkpt>
      <trkpt lat="62.38712" lon="17.34262">
        <ele>0.031501</ele>
        <time>2020-08-29T13:51:49.312Z</time>
      </trkpt>
      <trkpt lat="62.38566" lon="17.34451">
        <ele>0.394704</ele>
        <time>2020-08-29T13:52:21.709Z</time>
      </trkpt>
      <trkpt lat="62.38484" lon="17.34577">
        <ele>1.751101</ele>
        <time>2020-08-29T13:52:43.111Z</time>
      </trkpt>
      <trkpt lat="62.38369" lon="17.34775">
        <ele>4.623631</ele>
        <time>2020-08-29T13:53:20.801Z</time>
      </trkpt>
      <trkpt lat="62.38271" lon="17.34979">
        <ele>8.1045</ele>
        <time>2020-08-29T13:53:58.878Z</time>
      </trkpt>
      <trkpt lat="62.38267" lon="17.34986">
        <ele>8.187763</ele>
        <time>2020-08-29T13:54:01.157Z</time>
      </trkpt>
      <trkpt lat="62.3828" lon="17.35046">
        <ele>8.754281</ele>
        <time>2020-08-29T13:54:08.255Z</time>
      </trkpt>
      <trkpt lat="62.38278" lon="17.35052">
        <ele>8.817854</ele>
        <time>2020-08-29T13:54:09.982Z</time>
      </trkpt>
      <trkpt lat="62.3826" lon="17.35143">
        <ele>9.668792</ele>
        <time>2020-08-29T13:54:21.599Z</time>
      </trkpt>
      <trkpt lat="62.38236" lon="17.35201">
        <ele>10.331255</ele>
        <time>2020-08-29T13:54:30.128Z</time>
      </trkpt>
      <trkpt lat="62.3822" lon="17.35374">
        <ele>11.082853</ele>
        <time>2020-08-29T13:54:46.597Z</time>
      </trkpt>
      <trkpt lat="62.38203" lon="17.35454">
        <ele>11.078703</ele>
        <time>2020-08-29T13:54:53.806Z</time>
      </trkpt>
      <trkpt lat="62.38182" lon="17.3551">
        <ele>11.07533</ele>
        <time>2020-08-29T13:54:59.689Z</time>
      </trkpt>
      <trkpt lat="62.38137" lon="17.3558">
        <ele>11.069733</ele>
        <time>2020-08-29T13:55:09.532Z</time>
      </trkpt>
      <trkpt lat="62.38118" lon="17.35611">
        <ele>11.071145</ele>
        <time>2020-08-29T13:55:13.816Z</time>
      </trkpt>
      <trkpt lat="62.381" lon="17.35637">
        <ele>11.074739</ele>
        <time>2020-08-29T13:55:17.712Z</time>
      </trkpt>
      <trkpt lat="62.37972" lon="17.35868">
        <ele>11.127996</ele>
        <time>2020-08-29T13:55:49.141Z</time>
      </trkpt>
      <trkpt lat="62.37963" lon="17.35898">
        <ele>11.14949</ele>
        <time>2020-08-29T13:55:52.323Z</time>
      </trkpt>
      <trkpt lat="62.37958" lon="17.35906">
        <ele>11.157853</ele>
        <time>2020-08-29T13:55:53.686Z</time>
      </trkpt>
      <trkpt lat="62.37953" lon="17.35917">
        <ele>11.167179</ele>
        <time>2020-08-29T13:55:55.010Z</time>
      </trkpt>
      <trkpt lat="62.37936" lon="17.3593">
        <ele>11.189993</ele>
        <time>2020-08-29T13:55:58.345Z</time>
      </trkpt>
      <trkpt lat="62.37834" lon="17.36072">
        <ele>11.4026</ele>
        <time>2020-08-29T13:56:21.239Z</time>
      </trkpt>
      <trkpt lat="62.37758" lon="17.36192">
        <ele>11.959339</ele>
        <time>2020-08-29T13:56:39.718Z</time>
      </trkpt>
      <trkpt lat="62.37683" lon="17.36268">
        <ele>12.553762</ele>
        <time>2020-08-29T13:56:57.846Z</time>
      </trkpt>
      <trkpt lat="62.37678" lon="17.36282">
        <ele>12.676159</ele>
        <time>2020-08-29T13:56:59.438Z</time>
      </trkpt>
      <trkpt lat="62.37674" lon="17.36289">
        <ele>12.76121</ele>
        <time>2020-08-29T13:57:00.713Z</time>
      </trkpt>
      <trkpt lat="62.37666" lon="17.36292">
        <ele>12.89584</ele>
        <time>2020-08-29T13:57:02.529Z</time>
      </trkpt>
      <trkpt lat="62.37662" lon="17.36289">
        <ele>12.961595</ele>
        <time>2020-08-29T13:57:03.934Z</time>
      </trkpt>
      <trkpt lat="62.37644" lon="17.36284">
        <ele>13.247672</ele>
        <time>2020-08-29T13:57:07.850Z</time>
      </trkpt>
      <trkpt lat="62.37594" lon="17.36308">
        <ele>14.076162</ele>
        <time>2020-08-29T13:57:20.377Z</time>
      </trkpt>
      <trkpt lat="62.37562" lon="17.3634">
        <ele>14.630607</ele>
        <time>2020-08-29T13:57:28.805Z</time>
      </trkpt>
      <trkpt lat="62.37559" lon="17.36345">
        <ele>14.702076</ele>
        <time>2020-08-29T13:57:30.398Z</time>
      </trkpt>
      <trkpt lat="62.37378" lon="17.36498">
        <ele>17.439512</ele>
        <time>2020-08-29T13:58:15.910Z</time>
      </trkpt>
      <trkpt lat="62.37198" lon="17.36695">
        <ele>18.472767</ele>
        <time>2020-08-29T13:58:56.215Z</time>
      </trkpt>
      <trkpt lat="62.37086" lon="17.36805">
        <ele>18.279505</ele>
        <time>2020-08-29T13:59:18.598Z</time>
      </trkpt>
      <trkpt lat="62.3698" lon="17.36881">
        <ele>17.970032</ele>
        <time>2020-08-29T13:59:38.279Z</time>
      </trkpt>
      <trkpt lat="62.36772" lon="17.36998">
        <ele>16.757534</ele>
        <time>2020-08-29T14:00:15.511Z</time>
      </trkpt>
      <trkpt lat="62.36723" lon="17.37039">
        <ele>16.33612</ele>
        <time>2020-08-29T14:00:24.432Z</time>
      </trkpt>
      <trkpt lat="62.36702" lon="17.37046">
        <ele>16.162313</ele>
        <time>2020-08-29T14:00:28.079Z</time>
      </trkpt>
      <trkpt lat="62.36685" lon="17.37036">
        <ele>15.974505</ele>
        <time>2020-08-29T14:00:30.572Z</time>
      </trkpt>
      <trkpt lat="62.36668" lon="17.37031">
        <ele>15.541842</ele>
        <time>2020-08-29T14:00:33.172Z</time>
      </trkpt>
      <trkpt lat="62.36663" lon="17.37025">
        <ele>15.384329</ele>
        <time>2020-08-29T14:00:34.215Z</time>
      </trkpt>
      <trkpt lat="62.36656" lon="17.37024">
        <ele>15.218722</ele>
        <time>2020-08-29T14:00:35.156Z</time>
      </trkpt>
      <trkpt lat="62.36651" lon="17.3703">
        <ele>15.066775</ele>
        <time>2020-08-29T14:00:35.883Z</time>
      </trkpt>
      <trkpt lat="62.36558" lon="17.37077">
        <ele>12.606759</ele>
        <time>2020-08-29T14:00:49.517Z</time>
      </trkpt>
      <trkpt lat="62.3655" lon="17.37077">
        <ele>12.387178</ele>
        <time>2020-08-29T14:00:50.668Z</time>
      </trkpt>
      <trkpt lat="62.36541" lon="17.37071">
        <ele>12.148974</ele>
        <time>2020-08-29T14:00:51.814Z</time>
      </trkpt>
      <trkpt lat="62.3653" lon="17.37058">
        <ele>11.819161</ele>
        <time>2020-08-29T14:00:53.768Z</time>
      </trkpt>
      <trkpt lat="62.36512" lon="17.37052">
        <ele>11.371542</ele>
        <time>2020-08-29T14:00:56.133Z</time>
      </trkpt>
      <trkpt lat="62.36477" lon="17.37102">
        <ele>10.530528</ele>
        <time>2020-08-29T14:01:01.848Z</time>
      </trkpt>
      <trkpt lat="62.36437" lon="17.37099">
        <ele>9.727831</ele>
        <time>2020-08-29T14:01:07.400Z</time>
      </trkpt>
      <trkpt lat="62.36395" lon="17.37081">
        <ele>8.870978</ele>
        <time>2020-08-29T14:01:13.426Z</time>
      </trkpt>
      <trkpt lat="62.36279" lon="17.37005">
        <ele>9.048335</ele>
        <time>2020-08-29T14:01:36.978Z</time>
      </trkpt>
      <trkpt lat="62.36249" lon="17.36992">
        <ele>9.613677</ele>
        <time>2020-08-29T14:01:44.291Z</time>
      </trkpt>
      <trkpt lat="62.36241" lon="17.36989">
        <ele>9.76414</ele>
        <time>2020-08-29T14:01:46.957Z</time>
      </trkpt>
      <trkpt lat="62.36191" lon="17.3697">
        <ele>10.695111</ele>
        <time>2020-08-29T14:02:00.827Z</time>
      </trkpt>
      <trkpt lat="62.36139" lon="17.36933">
        <ele>12.193228</ele>
        <time>2020-08-29T14:02:17.384Z</time>
      </trkpt>
      <trkpt lat="62.36095" lon="17.36921">
        <ele>13.707852</ele>
        <time>2020-08-29T14:02:31.857Z</time>
      </trkpt>
      <trkpt lat="62.36073" lon="17.36928">
        <ele>14.481489</ele>
        <time>2020-08-29T14:02:38.770Z</time>
      </trkpt>
      <trkpt lat="62.36041" lon="17.36954">
        <ele>15.644284</ele>
        <time>2020-08-29T14:02:48.990Z</time>
      </trkpt>
      <trkpt lat="62.35949" lon="17.3694">
        <ele>17.68946</ele>
        <time>2020-08-29T14:03:13.937Z</time>
      </trkpt>
      <trkpt lat="62.35898" lon="17.36981">
        <ele>18.230665</ele>
        <time>2020-08-29T14:03:25.981Z</time>
      </trkpt>
      <trkpt lat="62.35892" lon="17.36976">
        <ele>18.291852</ele>
        <time>2020-08-29T14:03:27.164Z</time>
      </trkpt>
      <trkpt lat="62.35889" lon="17.36965">
        <ele>18.355137</ele>
        <time>2020-08-29T14:03:28.579Z</time>
      </trkpt>
      <trkpt lat="62.35868" lon="17.36979">
        <ele>18.570873</ele>
        <time>2020-08-29T14:03:32.606Z</time>
      </trkpt>
      <trkpt lat="62.35847" lon="17.36993">
        <ele>18.792827</ele>
        <time>2020-08-29T14:03:36.689Z</time>
      </trkpt>
      <trkpt lat="62.35794" lon="17.37026">
        <ele>18.955484</ele>
        <time>2020-08-29T14:03:46.077Z</time>
      </trkpt>
      <trkpt lat="62.35751" lon="17.37047">
        <ele>18.85338</ele>
        <time>2020-08-29T14:03:53.610Z</time>
      </trkpt>
      <trkpt lat="62.35733" lon="17.37056">
        <ele>18.812437</ele>
        <time>2020-08-29T14:03:56.489Z</time>
      </trkpt>
      <trkpt lat="62.35713" lon="17.37056">
        <ele>18.766878</ele>
        <time>2020-08-29T14:03:59.737Z</time>
      </trkpt>
      <trkpt lat="62.35684" lon="17.37045">
        <ele>18.699202</ele>
        <time>2020-08-29T14:04:04.937Z</time>
      </trkpt>
      <trkpt lat="62.35658" lon="17.3702">
        <ele>18.634065</ele>
        <time>2020-08-29T14:04:10.514Z</time>
      </trkpt>
      <trkpt lat="62.35636" lon="17.36992">
        <ele>18.845798</ele>
        <time>2020-08-29T14:04:15.991Z</time>
      </trkpt>
      <trkpt lat="62.35616" lon="17.36959">
        <ele>19.187458</ele>
        <time>2020-08-29T14:04:21.942Z</time>
      </trkpt>
      <trkpt lat="62.35594" lon="17.36918">
        <ele>19.569763</ele>
        <time>2020-08-29T14:04:28.698Z</time>
      </trkpt>
      <trkpt lat="62.35572" lon="17.36867">
        <ele>20.003998</ele>
        <time>2020-08-29T14:04:36.469Z</time>
      </trkpt>
      <trkpt lat="62.35575" lon="17.36862">
        <ele>20.055024</ele>
        <time>2020-08-29T14:04:37.432Z</time>
      </trkpt>
      <trkpt lat="62.35565" lon="17.36835">
        <ele>20.274647</ele>
        <time>2020-08-29T14:04:41.316Z</time>
      </trkpt>
      <trkpt lat="62.35554" lon="17.36808">
        <ele>20.497284</ele>
        <time>2020-08-29T14:04:45.351Z</time>
      </trkpt>
      <trkpt lat="62.35543" lon="17.36781">
        <ele>20.71998</ele>
        <time>2020-08-29T14:04:49.343Z</time>
      </trkpt>
      <trkpt lat="62.35536" lon="17.36766">
        <ele>20.847195</ele>
        <time>2020-08-29T14:04:51.396Z</time>
      </trkpt>
      <trkpt lat="62.35533" lon="17.36753">
        <ele>20.939789</ele>
        <time>2020-08-29T14:04:53.230Z</time>
      </trkpt>
      <trkpt lat="62.35523" lon="17.36751">
        <ele>21.03801</ele>
        <time>2020-08-29T14:04:55.606Z</time>
      </trkpt>
      <trkpt lat="62.35443" lon="17.36679">
        <ele>21.47655</ele>
        <time>2020-08-29T14:05:14.876Z</time>
      </trkpt>
      <trkpt lat="62.35388" lon="17.36649">
        <ele>21.767163</ele>
        <time>2020-08-29T14:05:25.689Z</time>
      </trkpt>
      <trkpt lat="62.35375" lon="17.36629">
        <ele>21.848444</ele>
        <time>2020-08-29T14:05:28.336Z</time>
      </trkpt>
      <trkpt lat="62.35328" lon="17.36604">
        <ele>21.710229</ele>
        <time>2020-08-29T14:05:36.472Z</time>
      </trkpt>
      <trkpt lat="62.35289" lon="17.36597">
        <ele>21.446456</ele>
        <time>2020-08-29T14:05:42.990Z</time>
      </trkpt>
      <trkpt lat="62.35278" lon="17.36626">
        <ele>21.325152</ele>
        <time>2020-08-29T14:05:45.958Z</time>
      </trkpt>
      <trkpt lat="62.35276" lon="17.36632">
        <ele>21.305759</ele>
        <time>2020-08-29T14:05:46.452Z</time>
      </trkpt>
      <trkpt lat="62.35274" lon="17.3664">
        <ele>21.273617</ele>
        <time>2020-08-29T14:05:47.240Z</time>
      </trkpt>
      <trkpt lat="62.35263" lon="17.3665">
        <ele>21.192128</ele>
        <time>2020-08-29T14:05:49.317Z</time>
      </trkpt>
      <trkpt lat="62.35259" lon="17.36635">
        <ele>21.135677</ele>
        <time>2020-08-29T14:05:50.717Z</time>
      </trkpt>
      <trkpt lat="62.35252" lon="17.36625">
        <ele>21.081149</ele>
        <time>2020-08-29T14:05:52.005Z</time>
      </trkpt>
      <trkpt lat="62.35235" lon="17.36618">
        <ele>20.962285</ele>
        <time>2020-08-29T14:05:54.907Z</time>
      </trkpt>
      <trkpt lat="62.3522" lon="17.36613">
        <ele>20.858149</ele>
        <time>2020-08-29T14:05:57.424Z</time>
      </trkpt>
      <trkpt lat="62.35202" lon="17.36606">
        <ele>20.733976</ele>
        <time>2020-08-29T14:06:00.423Z</time>
      </trkpt>
      <trkpt lat="62.35173" lon="17.36594">
        <ele>20.356805</ele>
        <time>2020-08-29T14:06:05.264Z</time>
      </trkpt>
      <trkpt lat="62.35121" lon="17.36572">
        <ele>19.623561</ele>
        <time>2020-08-29T14:06:13.970Z</time>
      </trkpt>
      <trkpt lat="62.35091" lon="17.36562">
        <ele>19.212493</ele>
        <time>2020-08-29T14:06:18.623Z</time>
      </trkpt>
      <trkpt lat="62.3502" lon="17.3656">
        <ele>18.228218</ele>
        <time>2020-08-29T14:06:29.492Z</time>
      </trkpt>
      <trkpt lat="62.34962" lon="17.36573">
        <ele>16.461143</ele>
        <time>2020-08-29T14:06:38.002Z</time>
      </trkpt>
      <trkpt lat="62.3495" lon="17.36576">
        <ele>16.122698</ele>
        <time>2020-08-29T14:06:39.479Z</time>
      </trkpt>
      <trkpt lat="62.34891" lon="17.36592">
        <ele>14.303238</ele>
        <time>2020-08-29T14:06:47.772Z</time>
      </trkpt>
      <trkpt lat="62.34868" lon="17.36595">
        <ele>13.628782</ele>
        <time>2020-08-29T14:06:50.713Z</time>
      </trkpt>
      <trkpt lat="62.34843" lon="17.36588">
        <ele>12.862046</ele>
        <time>2020-08-29T14:06:54.078Z</time>
      </trkpt>
      <trkpt lat="62.3484" lon="17.36587">
        <ele>12.758648</ele>
        <time>2020-08-29T14:06:54.539Z</time>
      </trkpt>
      <trkpt lat="62.3482" lon="17.36581">
        <ele>12.166743</ele>
        <time>2020-08-29T14:06:57.192Z</time>
      </trkpt>
      <trkpt lat="62.34807" lon="17.36577">
        <ele>11.765127</ele>
        <time>2020-08-29T14:06:58.916Z</time>
      </trkpt>
      <trkpt lat="62.34799" lon="17.36575">
        <ele>11.498706</ele>
        <time>2020-08-29T14:07:00.107Z</time>
      </trkpt>
      <trkpt lat="62.34774" lon="17.36564">
        <ele>10.751223</ele>
        <time>2020-08-29T14:07:03.495Z</time>
      </trkpt>
      <trkpt lat="62.34753" lon="17.36547">
        <ele>10.067493</ele>
        <time>2020-08-29T14:07:06.568Z</time>
      </trkpt>
      <trkpt lat="62.3474" lon="17.36538">
        <ele>9.636053</ele>
        <time>2020-08-29T14:07:08.527Z</time>
      </trkpt>
      <trkpt lat="62.34707" lon="17.36517">
        <ele>8.614441</ele>
        <time>2020-08-29T14:07:13.156Z</time>
      </trkpt>
      <trkpt lat="62.34652" lon="17.36494">
        <ele>7.236132</ele>
        <time>2020-08-29T14:07:21.237Z</time>
      </trkpt>
      <trkpt lat="62.34646" lon="17.36493">
        <ele>7.191934</ele>
        <time>2020-08-29T14:07:22.195Z</time>
      </trkpt>
      <trkpt lat="62.34611" lon="17.36484">
        <ele>6.951523</ele>
        <time>2020-08-29T14:07:27.579Z</time>
      </trkpt>
      <trkpt lat="62.34609" lon="17.36484">
        <ele>6.940496</ele>
        <time>2020-08-29T14:07:27.848Z</time>
      </trkpt>
      <trkpt lat="62.34587" lon="17.36479">
        <ele>6.783669</ele>
        <time>2020-08-29T14:07:31.665Z</time>
      </trkpt>
      <trkpt lat="62.34542" lon="17.36469">
        <ele>6.477344</ele>
        <time>2020-08-29T14:07:39.494Z</time>
      </trkpt>
      <trkpt lat="62.34514" lon="17.36469">
        <ele>6.281677</ele>
        <time>2020-08-29T14:07:44.910Z</time>
      </trkpt>
      <trkpt lat="62.34505" lon="17.36469">
        <ele>6.221935</ele>
        <time>2020-08-29T14:07:46.613Z</time>
      </trkpt>
      <trkpt lat="62.34458" lon="17.36467">
        <ele>6.458576</ele>
        <time>2020-08-29T14:07:56.537Z</time>
      </trkpt>
      <trkpt lat="62.34448" lon="17.36466">
        <ele>6.576002</ele>
        <time>2020-08-29T14:07:58.563Z</time>
      </trkpt>
      <trkpt lat="62.34433" lon="17.36466">
        <ele>6.763884</ele>
        <time>2020-08-29T14:08:01.882Z</time>
      </trkpt>
      <trkpt lat="62.34411" lon="17.36465">
        <ele>7.04069</ele>
        <time>2020-08-29T14:08:06.967Z</time>
      </trkpt>
      <trkpt lat="62.34395" lon="17.36465">
        <ele>7.230991</ele>
        <time>2020-08-29T14:08:10.472Z</time>
      </trkpt>
      <trkpt lat="62.34368" lon="17.36465">
        <ele>7.572044</ele>
        <time>2020-08-29T14:08:16.899Z</time>
      </trkpt>
      <trkpt lat="62.34358" lon="17.36465">
        <ele>7.699321</ele>
        <time>2020-08-29T14:08:19.302Z</time>
      </trkpt>
      <trkpt lat="62.3434" lon="17.36465">
        <ele>7.913103</ele>
        <time>2020-08-29T14:08:23.316Z</time>
      </trkpt>
      <trkpt lat="62.34322" lon="17.36466">
        <ele>8.133118</ele>
        <time>2020-08-29T14:08:27.478Z</time>
      </trkpt>
      <trkpt lat="62.34314" lon="17.36465">
        <ele>8.238229</ele>
        <time>2020-08-29T14:08:29.541Z</time>
      </trkpt>
      <trkpt lat="62.34249" lon="17.36462">
        <ele>9.271818</ele>
        <time>2020-08-29T14:08:45.201Z</time>
      </trkpt>
      <trkpt lat="62.34194" lon="17.36442">
        <ele>10.190047</ele>
        <time>2020-08-29T14:08:58.737Z</time>
      </trkpt>
      <trkpt lat="62.34174" lon="17.36428">
        <ele>10.542207</ele>
        <time>2020-08-29T14:09:03.791Z</time>
      </trkpt>
      <trkpt lat="62.34159" lon="17.36418">
        <ele>10.794198</ele>
        <time>2020-08-29T14:09:07.312Z</time>
      </trkpt>
      <trkpt lat="62.34125" lon="17.36385">
        <ele>11.466165</ele>
        <time>2020-08-29T14:09:15.984Z</time>
      </trkpt>
      <trkpt lat="62.34118" lon="17.36381">
        <ele>11.619239</ele>
        <time>2020-08-29T14:09:17.590Z</time>
      </trkpt>
      <trkpt lat="62.34112" lon="17.36376">
        <ele>11.775427</ele>
        <time>2020-08-29T14:09:19.118Z</time>
      </trkpt>
      <trkpt lat="62.34063" lon="17.36337">
        <ele>12.937814</ele>
        <time>2020-08-29T14:09:31.714Z</time>
      </trkpt>
      <trkpt lat="62.34056" lon="17.36332">
        <ele>13.103821</ele>
        <time>2020-08-29T14:09:33.687Z</time>
      </trkpt>
      <trkpt lat="62.34036" lon="17.36322">
        <ele>13.559855</ele>
        <time>2020-08-29T14:09:39.209Z</time>
      </trkpt>
      <trkpt lat="62.34013" lon="17.36313">
        <ele>14.079229</ele>
        <time>2020-08-29T14:09:45.608Z</time>
      </trkpt>
      <trkpt lat="62.33992" lon="17.36303">
        <ele>14.563279</ele>
        <time>2020-08-29T14:09:51.328Z</time>
      </trkpt>
      <trkpt lat="62.33966" lon="17.36292">
        <ele>15.152544</ele>
        <time>2020-08-29T14:09:58.696Z</time>
      </trkpt>
      <trkpt lat="62.33947" lon="17.36282">
        <ele>15.636526</ele>
        <time>2020-08-29T14:10:03.921Z</time>
      </trkpt>
      <trkpt lat="62.33939" lon="17.36278">
        <ele>15.854372</ele>
        <time>2020-08-29T14:10:06.507Z</time>
      </trkpt>
      <trkpt lat="62.33929" lon="17.36273">
        <ele>16.118143</ele>
        <time>2020-08-29T14:10:09.211Z</time>
      </trkpt>
      <trkpt lat="62.33914" lon="17.36268">
        <ele>16.510004</ele>
        <time>2020-08-29T14:10:13.229Z</time>
      </trkpt>
      <trkpt lat="62.33901" lon="17.36262">
        <ele>16.833831</ele>
        <time>2020-08-29T14:10:16.942Z</time>
      </trkpt>
      <trkpt lat="62.3386" lon="17.36244">
        <ele>17.911702</ele>
        <time>2020-08-29T14:10:28.341Z</time>
      </trkpt>
      <trkpt lat="62.33834" lon="17.36235">
        <ele>18.573938</ele>
        <time>2020-08-29T14:10:35.422Z</time>
      </trkpt>
      <trkpt lat="62.33822" lon="17.36239">
        <ele>18.902031</ele>
        <time>2020-08-29T14:10:38.882Z</time>
      </trkpt>
      <trkpt lat="62.33768" lon="17.36219">
        <ele>19.937586</ele>
        <time>2020-08-29T14:10:53.409Z</time>
      </trkpt>
      <trkpt lat="62.33723" lon="17.36189">
        <ele>20.018726</ele>
        <time>2020-08-29T14:11:04.076Z</time>
      </trkpt>
      <trkpt lat="62.33714" lon="17.36174">
        <ele>20.039749</ele>
        <time>2020-08-29T14:11:06.746Z</time>
      </trkpt>
      <trkpt lat="62.33692" lon="17.36105">
        <ele>20.106978</ele>
        <time>2020-08-29T14:11:14.252Z</time>
      </trkpt>
      <trkpt lat="62.33675" lon="17.36078">
        <ele>20.142905</ele>
        <time>2020-08-29T14:11:17.499Z</time>
      </trkpt>
      <trkpt lat="62.33653" lon="17.3606">
        <ele>20.184042</ele>
        <time>2020-08-29T14:11:21.306Z</time>
      </trkpt>
      <trkpt lat="62.33645" lon="17.36063">
        <ele>20.198314</ele>
        <time>2020-08-29T14:11:22.489Z</time>
      </trkpt>
      <trkpt lat="62.33604" lon="17.36076">
        <ele>19.450924</ele>
        <time>2020-08-29T14:11:28.699Z</time>
      </trkpt>
      <trkpt lat="62.3356" lon="17.36096">
        <ele>18.173039</ele>
        <time>2020-08-29T14:11:35.153Z</time>
      </trkpt>
      <trkpt lat="62.33528" lon="17.36107">
        <ele>17.251164</ele>
        <time>2020-08-29T14:11:39.617Z</time>
      </trkpt>
      <trkpt lat="62.33444" lon="17.36148">
        <ele>14.829096</ele>
        <time>2020-08-29T14:11:51.134Z</time>
      </trkpt>
      <trkpt lat="62.33396" lon="17.36272">
        <ele>13.037189</ele>
        <time>2020-08-29T14:12:01.348Z</time>
      </trkpt>
      <trkpt lat="62.33381" lon="17.36311">
        <ele>12.47731</ele>
        <time>2020-08-29T14:12:04.738Z</time>
      </trkpt>
      <trkpt lat="62.33374" lon="17.36329">
        <ele>12.220037</ele>
        <time>2020-08-29T14:12:06.320Z</time>
      </trkpt>
      <trkpt lat="62.33354" lon="17.36364">
        <ele>11.599222</ele>
        <time>2020-08-29T14:12:10.385Z</time>
      </trkpt>
      <trkpt lat="62.33346" lon="17.36372">
        <ele>11.378205</ele>
        <time>2020-08-29T14:12:11.788Z</time>
      </trkpt>
      <trkpt lat="62.33341" lon="17.36376">
        <ele>11.264859</ele>
        <time>2020-08-29T14:12:12.579Z</time>
      </trkpt>
      <trkpt lat="62.33325" lon="17.36383">
        <ele>10.857204</ele>
        <time>2020-08-29T14:12:15.400Z</time>
      </trkpt>
      <trkpt lat="62.3329" lon="17.3639">
        <ele>10.816755</ele>
        <time>2020-08-29T14:12:21.180Z</time>
      </trkpt>
      <trkpt lat="62.33245" lon="17.36376">
        <ele>10.875372</ele>
        <time>2020-08-29T14:12:29.245Z</time>
      </trkpt>
      <trkpt lat="62.33237" lon="17.36374">
        <ele>10.885245</ele>
        <time>2020-08-29T14:12:30.704Z</time>
      </trkpt>
      <trkpt lat="62.33221" lon="17.36377">
        <ele>10.905526</ele>
        <time>2020-08-29T14:12:34.318Z</time>
      </trkpt>
      <trkpt lat="62.33164" lon="17.36359">
        <ele>10.978692</ele>
        <time>2020-08-29T14:12:46.429Z</time>
      </trkpt>
      <trkpt lat="62.33155" lon="17.36359">
        <ele>10.989741</ele>
        <time>2020-08-29T14:12:48.409Z</time>
      </trkpt>
      <trkpt lat="62.33147" lon="17.36374">
        <ele>11.003749</ele>
        <time>2020-08-29T14:12:50.772Z</time>
      </trkpt>
      <trkpt lat="62.3305" lon="17.36623">
        <ele>11.413938</ele>
        <time>2020-08-29T14:13:21.075Z</time>
      </trkpt>
      <trkpt lat="62.32989" lon="17.36758">
        <ele>10.692552</ele>
        <time>2020-08-29T14:13:35.854Z</time>
      </trkpt>
      <trkpt lat="62.32968" lon="17.3682">
        <ele>10.183156</ele>
        <time>2020-08-29T14:13:41.494Z</time>
      </trkpt>
      <trkpt lat="62.32886" lon="17.36952">
        <ele>8.628571</ele>
        <time>2020-08-29T14:13:56.609Z</time>
      </trkpt>
      <trkpt lat="62.3285" lon="17.37058">
        <ele>7.334109</ele>
        <time>2020-08-29T14:14:05.332Z</time>
      </trkpt>
      <trkpt lat="62.32828" lon="17.371">
        <ele>6.721231</ele>
        <time>2020-08-29T14:14:09.472Z</time>
      </trkpt>
      <trkpt lat="62.32799" lon="17.37129">
        <ele>6.03576</ele>
        <time>2020-08-29T14:14:14.138Z</time>
      </trkpt>
      <trkpt lat="62.32715" lon="17.37169">
        <ele>5.09509</ele>
        <time>2020-08-29T14:14:27.472Z</time>
      </trkpt>
      <trkpt lat="62.32689" lon="17.37165">
        <ele>5.065697</ele>
        <time>2020-08-29T14:14:31.995Z</time>
      </trkpt>
      <trkpt lat="62.32664" lon="17.37148">
        <ele>5.035129</ele>
        <time>2020-08-29T14:14:36.759Z</time>
      </trkpt>
      <trkpt lat="62.32637" lon="17.37124">
        <ele>5.002304</ele>
        <time>2020-08-29T14:14:42.243Z</time>
      </trkpt>
      <trkpt lat="62.32624" lon="17.37109">
        <ele>4.985</ele>
        <time>2020-08-29T14:14:45.678Z</time>
      </trkpt>
      <trkpt lat="62.32546" lon="17.37015">
        <ele>5.300602</ele>
        <time>2020-08-29T14:15:05.018Z</time>
      </trkpt>
      <trkpt lat="62.32494" lon="17.36967">
        <ele>5.723498</ele>
        <time>2020-08-29T14:15:17.766Z</time>
      </trkpt>
      <trkpt lat="62.32458" lon="17.36954">
        <ele>5.992709</ele>
        <time>2020-08-29T14:15:25.063Z</time>
      </trkpt>
      <trkpt lat="62.32451" lon="17.36956">
        <ele>6.047217</ele>
        <time>2020-08-29T14:15:27.018Z</time>
      </trkpt>
      <trkpt lat="62.32443" lon="17.36963">
        <ele>6.111442</ele>
        <time>2020-08-29T14:15:28.279Z</time>
      </trkpt>
      <trkpt lat="62.3242" lon="17.37005">
        <ele>6.296628</ele>
        <time>2020-08-29T14:15:34.255Z</time>
      </trkpt>
      <trkpt lat="62.32403" lon="17.37066">
        <ele>6.397392</ele>
        <time>2020-08-29T14:15:40.451Z</time>
      </trkpt>
      <trkpt lat="62.32373" lon="17.37101">
        <ele>6.503007</ele>
        <time>2020-08-29T14:15:46.992Z</time>
      </trkpt>
      <trkpt lat="62.32354" lon="17.37104">
        <ele>6.56088</ele>
        <time>2020-08-29T14:15:50.317Z</time>
      </trkpt>
      <trkpt lat="62.32296" lon="17.37064">
        <ele>6.749588</ele>
        <time>2020-08-29T14:16:02.317Z</time>
      </trkpt>
      <trkpt lat="62.32268" lon="17.37041">
        <ele>6.893608</ele>
        <time>2020-08-29T14:16:08.174Z</time>
      </trkpt>
      <trkpt lat="62.32261" lon="17.37037">
        <ele>6.98243</ele>
        <time>2020-08-29T14:16:10.012Z</time>
      </trkpt>
      <trkpt lat="62.32221" lon="17.37037">
        <ele>7.481227</ele>
        <time>2020-08-29T14:16:18.739Z</time>
      </trkpt>
      <trkpt lat="62.32182" lon="17.36989">
        <ele>8.049684</ele>
        <time>2020-08-29T14:16:29.277Z</time>
      </trkpt>
      <trkpt lat="62.32161" lon="17.36977">
        <ele>8.323343</ele>
        <time>2020-08-29T14:16:34.660Z</time>
      </trkpt>
      <trkpt lat="62.32077" lon="17.36957">
        <ele>9.038136</ele>
        <time>2020-08-29T14:16:54.613Z</time>
      </trkpt>
      <trkpt lat="62.32056" lon="17.36964">
        <ele>9.004316</ele>
        <time>2020-08-29T14:16:58.847Z</time>
      </trkpt>
      <trkpt lat="62.32046" lon="17.36966">
        <ele>8.988992</ele>
        <time>2020-08-29T14:17:00.878Z</time>
      </trkpt>
      <trkpt lat="62.32034" lon="17.36965">
        <ele>8.969461</ele>
        <time>2020-08-29T14:17:03.211Z</time>
      </trkpt>
      <trkpt lat="62.3196" lon="17.3695">
        <ele>8.851547</ele>
        <time>2020-08-29T14:17:15.749Z</time>
      </trkpt>
      <trkpt lat="62.31946" lon="17.36947">
        <ele>8.829286</ele>
        <time>2020-08-29T14:17:17.846Z</time>
      </trkpt>
      <trkpt lat="62.31933" lon="17.36948">
        <ele>8.808833</ele>
        <time>2020-08-29T14:17:20.267Z</time>
      </trkpt>
      <trkpt lat="62.31906" lon="17.36983">
        <ele>8.55335</ele>
        <time>2020-08-29T14:17:25.338Z</time>
      </trkpt>
      <trkpt lat="62.31891" lon="17.37005">
        <ele>8.349237</ele>
        <time>2020-08-29T14:17:28.089Z</time>
      </trkpt>
      <trkpt lat="62.31881" lon="17.3702">
        <ele>8.216443</ele>
        <time>2020-08-29T14:17:29.815Z</time>
      </trkpt>
      <trkpt lat="62.3186" lon="17.37051">
        <ele>7.922462</ele>
        <time>2020-08-29T14:17:33.760Z</time>
      </trkpt>
      <trkpt lat="62.318" lon="17.37155">
        <ele>7.039217</ele>
        <time>2020-08-29T14:17:45.800Z</time>
      </trkpt>
      <trkpt lat="62.31791" lon="17.3718">
        <ele>6.876236</ele>
        <time>2020-08-29T14:17:48.285Z</time>
      </trkpt>
      <trkpt lat="62.31784" lon="17.37196">
        <ele>6.760965</ele>
        <time>2020-08-29T14:17:49.758Z</time>
      </trkpt>
      <trkpt lat="62.31771" lon="17.3722">
        <ele>6.79802</ele>
        <time>2020-08-29T14:17:52.659Z</time>
      </trkpt>
      <trkpt lat="62.31754" lon="17.37255">
        <ele>6.882491</ele>
        <time>2020-08-29T14:17:56.830Z</time>
      </trkpt>
      <trkpt lat="62.31743" lon="17.37264">
        <ele>6.927521</ele>
        <time>2020-08-29T14:17:59.357Z</time>
      </trkpt>
      <trkpt lat="62.31692" lon="17.37283">
        <ele>7.114426</ele>
        <time>2020-08-29T14:18:09.141Z</time>
      </trkpt>
      <trkpt lat="62.3167" lon="17.37278">
        <ele>7.19487</ele>
        <time>2020-08-29T14:18:13.578Z</time>
      </trkpt>
      <trkpt lat="62.31485" lon="17.37109">
        <ele>8.946983</ele>
        <time>2020-08-29T14:18:56.184Z</time>
      </trkpt>
      <trkpt lat="62.31459" lon="17.37103">
        <ele>9.221925</ele>
        <time>2020-08-29T14:19:01.641Z</time>
      </trkpt>
      <trkpt lat="62.31451" lon="17.37105">
        <ele>9.305067</ele>
        <time>2020-08-29T14:19:03.488Z</time>
      </trkpt>
      <trkpt lat="62.31409" lon="17.3711">
        <ele>9.510766</ele>
        <time>2020-08-29T14:19:12.627Z</time>
      </trkpt>
      <trkpt lat="62.31375" lon="17.37115">
        <ele>9.675893</ele>
        <time>2020-08-29T14:19:20.005Z</time>
      </trkpt>
      <trkpt lat="62.31327" lon="17.37139">
        <ele>9.914088</ele>
        <time>2020-08-29T14:19:29.497Z</time>
      </trkpt>
      <trkpt lat="62.3127" lon="17.3723">
        <ele>9.865154</ele>
        <time>2020-08-29T14:19:41.939Z</time>
      </trkpt>
      <trkpt lat="62.31244" lon="17.37244">
        <ele>9.392531</ele>
        <time>2020-08-29T14:19:46.065Z</time>
      </trkpt>
      <trkpt lat="62.31229" lon="17.37263">
        <ele>9.080154</ele>
        <time>2020-08-29T14:19:48.561Z</time>
      </trkpt>
      <trkpt lat="62.31172" lon="17.37355">
        <ele>7.826408</ele>
        <time>2020-08-29T14:19:58.398Z</time>
      </trkpt>
      <trkpt lat="62.31131" lon="17.37424">
        <ele>6.886083</ele>
        <time>2020-08-29T14:20:05.442Z</time>
      </trkpt>
      <trkpt lat="62.31129" lon="17.37441">
        <ele>6.712342</ele>
        <time>2020-08-29T14:20:06.613Z</time>
      </trkpt>
      <trkpt lat="62.31122" lon="17.37462">
        <ele>6.456062</ele>
        <time>2020-08-29T14:20:08.345Z</time>
      </trkpt>
      <trkpt lat="62.31118" lon="17.3747">
        <ele>6.344796</ele>
        <time>2020-08-29T14:20:09.074Z</time>
      </trkpt>
      <trkpt lat="62.3111" lon="17.37483">
        <ele>6.135987</ele>
        <time>2020-08-29T14:20:10.400Z</time>
      </trkpt>
      <trkpt lat="62.3106" lon="17.37565">
        <ele>4.786097</ele>
        <time>2020-08-29T14:20:19.646Z</time>
      </trkpt>
      <trkpt lat="62.31029" lon="17.37551">
        <ele>4.109142</ele>
        <time>2020-08-29T14:20:24.267Z</time>
      </trkpt>
      <trkpt lat="62.31013" lon="17.37539">
        <ele>3.755036</ele>
        <time>2020-08-29T14:20:26.636Z</time>
      </trkpt>
      <trkpt lat="62.30937" lon="17.37574">
        <ele>2.979968</ele>
        <time>2020-08-29T14:20:38.448Z</time>
      </trkpt>
      <trkpt lat="62.30919" lon="17.37588">
        <ele>2.91319</ele>
        <time>2020-08-29T14:20:41.644Z</time>
      </trkpt>
      <trkpt lat="62.30895" lon="17.37605">
        <ele>2.824329</ele>
        <time>2020-08-29T14:20:45.841Z</time>
      </trkpt>
      <trkpt lat="62.30834" lon="17.37621">
        <ele>2.610556</ele>
        <time>2020-08-29T14:20:57.057Z</time>
      </trkpt>
      <trkpt lat="62.30821" lon="17.37619">
        <ele>2.566491</ele>
        <time>2020-08-29T14:20:59.339Z</time>
      </trkpt>
      <trkpt lat="62.30809" lon="17.37621">
        <ele>2.532492</ele>
        <time>2020-08-29T14:21:02.064Z</time>
      </trkpt>
      <trkpt lat="62.30788" lon="17.37617">
        <ele>2.828922</ele>
        <time>2020-08-29T14:21:06.131Z</time>
      </trkpt>
      <trkpt lat="62.30773" lon="17.37614">
        <ele>3.054551</ele>
        <time>2020-08-29T14:21:09.719Z</time>
      </trkpt>
      <trkpt lat="62.30758" lon="17.37607">
        <ele>3.27268</ele>
        <time>2020-08-29T14:21:12.870Z</time>
      </trkpt>
      <trkpt lat="62.30728" lon="17.37561">
        <ele>3.796919</ele>
        <time>2020-08-29T14:21:21.262Z</time>
      </trkpt>
      <trkpt lat="62.30709" lon="17.37555">
        <ele>4.073536</ele>
        <time>2020-08-29T14:21:26.008Z</time>
      </trkpt>
      <trkpt lat="62.30647" lon="17.37564">
        <ele>4.960709</ele>
        <time>2020-08-29T14:21:41.347Z</time>
      </trkpt>
      <trkpt lat="62.30546" lon="17.37547">
        <ele>6.033547</ele>
        <time>2020-08-29T14:22:06.591Z</time>
      </trkpt>
      <trkpt lat="62.30455" lon="17.3759">
        <ele>6.869206</ele>
        <time>2020-08-29T14:22:25.035Z</time>
      </trkpt>
      <trkpt lat="62.30437" lon="17.376">
        <ele>6.606773</ele>
        <time>2020-08-29T14:22:28.390Z</time>
      </trkpt>
      <trkpt lat="62.30406" lon="17.37642">
        <ele>6.089172</ele>
        <time>2020-08-29T14:22:35.866Z</time>
      </trkpt>
      <trkpt lat="62.3032" lon="17.37779">
        <ele>4.574497</ele>
        <time>2020-08-29T14:22:56.818Z</time>
      </trkpt>
      <trkpt lat="62.30312" lon="17.37798">
        <ele>4.402971</ele>
        <time>2020-08-29T14:22:58.942Z</time>
      </trkpt>
      <trkpt lat="62.30316" lon="17.37812">
        <ele>4.286404</ele>
        <time>2020-08-29T14:23:00.092Z</time>
      </trkpt>
      <trkpt lat="62.30311" lon="17.37845">
        <ele>4.043064</ele>
        <time>2020-08-29T14:23:02.293Z</time>
      </trkpt>
      <trkpt lat="62.30276" lon="17.37868">
        <ele>3.504191</ele>
        <time>2020-08-29T14:23:07.430Z</time>
      </trkpt>
      <trkpt lat="62.30259" lon="17.37866">
        <ele>3.239153</ele>
        <time>2020-08-29T14:23:09.947Z</time>
      </trkpt>
      <trkpt lat="62.30251" lon="17.37867">
        <ele>3.129007</ele>
        <time>2020-08-29T14:23:11.174Z</time>
      </trkpt>
      <trkpt lat="62.30251" lon="17.37877">
        <ele>3.053094</ele>
        <time>2020-08-29T14:23:11.860Z</time>
      </trkpt>
      <trkpt lat="62.30241" lon="17.37954">
        <ele>2.502276</ele>
        <time>2020-08-29T14:23:17.369Z</time>
      </trkpt>
      <trkpt lat="62.30227" lon="17.38003">
        <ele>2.106042</ele>
        <time>2020-08-29T14:23:21.463Z</time>
      </trkpt>
      <trkpt lat="62.30207" lon="17.38052">
        <ele>1.727317</ele>
        <time>2020-08-29T14:23:26.341Z</time>
      </trkpt>
      <trkpt lat="62.30193" lon="17.38076">
        <ele>1.796474</ele>
        <time>2020-08-29T14:23:29.277Z</time>
      </trkpt>
      <trkpt lat="62.30175" lon="17.38111">
        <ele>1.886701</ele>
        <time>2020-08-29T14:23:33.400Z</time>
      </trkpt>
      <trkpt lat="62.3016" lon="17.38157">
        <ele>1.984957</ele>
        <time>2020-08-29T14:23:37.524Z</time>
      </trkpt>
      <trkpt lat="62.30155" lon="17.38183">
        <ele>2.034555</ele>
        <time>2020-08-29T14:23:39.756Z</time>
      </trkpt>
      <trkpt lat="62.30152" lon="17.38218">
        <ele>2.097383</ele>
        <time>2020-08-29T14:23:42.621Z</time>
      </trkpt>
      <trkpt lat="62.30149" lon="17.38266">
        <ele>2.183502</ele>
        <time>2020-08-29T14:23:47.252Z</time>
      </trkpt>
      <trkpt lat="62.30133" lon="17.38504">
        <ele>3.566368</ele>
        <time>2020-08-29T14:24:13.794Z</time>
      </trkpt>
      <trkpt lat="62.30131" lon="17.38517">
        <ele>3.699903</ele>
        <time>2020-08-29T14:24:15.185Z</time>
      </trkpt>
      <trkpt lat="62.30134" lon="17.38548">
        <ele>3.999279</ele>
        <time>2020-08-29T14:24:19.171Z</time>
      </trkpt>
      <trkpt lat="62.30128" lon="17.38561">
        <ele>4.168019</ele>
        <time>2020-08-29T14:24:21.042Z</time>
      </trkpt>
      <trkpt lat="62.30125" lon="17.38569">
        <ele>4.272871</ele>
        <time>2020-08-29T14:24:22.616Z</time>
      </trkpt>
      <trkpt lat="62.30102" lon="17.3864">
        <ele>5.118131</ele>
        <time>2020-08-29T14:24:33.080Z</time>
      </trkpt>
      <trkpt lat="62.3008" lon="17.38719">
        <ele>6.012209</ele>
        <time>2020-08-29T14:24:44.081Z</time>
      </trkpt>
      <trkpt lat="62.30074" lon="17.38739">
        <ele>6.18571</ele>
        <time>2020-08-29T14:24:47.198Z</time>
      </trkpt>
      <trkpt lat="62.30072" lon="17.38748">
        <ele>6.221048</ele>
        <time>2020-08-29T14:24:48.333Z</time>
      </trkpt>
      <trkpt lat="62.30045" lon="17.38858">
        <ele>6.658574</ele>
        <time>2020-08-29T14:25:02.257Z</time>
      </trkpt>
      <trkpt lat="62.30038" lon="17.38932">
        <ele>6.925811</ele>
        <time>2020-08-29T14:25:09.605Z</time>
      </trkpt>
      <trkpt lat="62.30035" lon="17.38957">
        <ele>7.017027</ele>
        <time>2020-08-29T14:25:12.202Z</time>
      </trkpt>
      <trkpt lat="62.3003" lon="17.38982">
        <ele>7.11482</ele>
        <time>2020-08-29T14:25:14.521Z</time>
      </trkpt>
      <trkpt lat="62.30025" lon="17.39">
        <ele>7.187266</ele>
        <time>2020-08-29T14:25:16.105Z</time>
      </trkpt>
      <trkpt lat="62.30014" lon="17.39026">
        <ele>7.313479</ele>
        <time>2020-08-29T14:25:19.471Z</time>
      </trkpt>
      <trkpt lat="62.30006" lon="17.39039">
        <ele>7.389422</ele>
        <time>2020-08-29T14:25:21.168Z</time>
      </trkpt>
      <trkpt lat="62.29996" lon="17.39054">
        <ele>7.479752</ele>
        <time>2020-08-29T14:25:23.101Z</time>
      </trkpt>
      <trkpt lat="62.29922" lon="17.39123">
        <ele>7.327187</ele>
        <time>2020-08-29T14:25:36.467Z</time>
      </trkpt>
      <trkpt lat="62.29891" lon="17.39165">
        <ele>7.23153</ele>
        <time>2020-08-29T14:25:42.731Z</time>
      </trkpt>
      <trkpt lat="62.29866" lon="17.39184">
        <ele>7.165076</ele>
        <time>2020-08-29T14:25:47.085Z</time>
      </trkpt>
      <trkpt lat="62.29853" lon="17.39186">
        <ele>7.130429</ele>
        <time>2020-08-29T14:25:49.705Z</time>
      </trkpt>
      <trkpt lat="62.2981" lon="17.39178">
        <ele>7.348848</ele>
        <time>2020-08-29T14:25:58.606Z</time>
      </trkpt>
      <trkpt lat="62.29781" lon="17.3917">
        <ele>7.93343</ele>
        <time>2020-08-29T14:26:04.827Z</time>
      </trkpt>
      <trkpt lat="62.2976" lon="17.39167">
        <ele>8.370289</ele>
        <time>2020-08-29T14:26:09.769Z</time>
      </trkpt>
      <trkpt lat="62.29743" lon="17.39165">
        <ele>8.704507</ele>
        <time>2020-08-29T14:26:14.013Z</time>
      </trkpt>
      <trkpt lat="62.29722" lon="17.3916">
        <ele>9.131396</ele>
        <time>2020-08-29T14:26:19.937Z</time>
      </trkpt>
      <trkpt lat="62.29714" lon="17.39156">
        <ele>9.297183</ele>
        <time>2020-08-29T14:26:21.910Z</time>
      </trkpt>
      <trkpt lat="62.29707" lon="17.39152">
        <ele>9.439684</ele>
        <time>2020-08-29T14:26:24.136Z</time>
      </trkpt>
      <trkpt lat="62.29684" lon="17.39146">
        <ele>9.907487</ele>
        <time>2020-08-29T14:26:30.563Z</time>
      </trkpt>
      <trkpt lat="62.29676" lon="17.39146">
        <ele>10.076536</ele>
        <time>2020-08-29T14:26:32.746Z</time>
      </trkpt>
      <trkpt lat="62.29664" lon="17.39134">
        <ele>10.328102</ele>
        <time>2020-08-29T14:26:37.341Z</time>
      </trkpt>
      <trkpt lat="62.29608" lon="17.39093">
        <ele>11.149359</ele>
        <time>2020-08-29T14:26:52.607Z</time>
      </trkpt>
      <trkpt lat="62.29597" lon="17.3908">
        <ele>11.288514</ele>
        <time>2020-08-29T14:26:56.346Z</time>
      </trkpt>
      <trkpt lat="62.29594" lon="17.39073">
        <ele>11.342929</ele>
        <time>2020-08-29T14:26:57.667Z</time>
      </trkpt>
      <trkpt lat="62.29545" lon="17.39013">
        <ele>11.980463</ele>
        <time>2020-08-29T14:27:10.290Z</time>
      </trkpt>
      <trkpt lat="62.29541" lon="17.39008">
        <ele>12.034717</ele>
        <time>2020-08-29T14:27:11.980Z</time>
      </trkpt>
      <trkpt lat="62.29525" lon="17.38988">
        <ele>12.238547</ele>
        <time>2020-08-29T14:27:15.561Z</time>
      </trkpt>
      <trkpt lat="62.29518" lon="17.38977">
        <ele>12.339919</ele>
        <time>2020-08-29T14:27:17.089Z</time>
      </trkpt>
      <trkpt lat="62.29512" lon="17.38964">
        <ele>12.435656</ele>
        <time>2020-08-29T14:27:19.091Z</time>
      </trkpt>
      <trkpt lat="62.29507" lon="17.38964">
        <ele>12.485535</ele>
        <time>2020-08-29T14:27:19.736Z</time>
      </trkpt>
      <trkpt lat="62.2942" lon="17.3876">
        <ele>11.091613</ele>
        <time>2020-08-29T14:27:39.335Z</time>
      </trkpt>
      <trkpt lat="62.29392" lon="17.38729">
        <ele>10.628938</ele>
        <time>2020-08-29T14:27:43.900Z</time>
      </trkpt>
      <trkpt lat="62.29377" lon="17.38717">
        <ele>10.384673</ele>
        <time>2020-08-29T14:27:46.281Z</time>
      </trkpt>
      <trkpt lat="62.29337" lon="17.38698">
        <ele>10.022754</ele>
        <time>2020-08-29T14:27:52.754Z</time>
      </trkpt>
      <trkpt lat="62.29312" lon="17.38689">
        <ele>9.984128</ele>
        <time>2020-08-29T14:27:56.960Z</time>
      </trkpt>
      <trkpt lat="62.29303" lon="17.38684">
        <ele>9.970154</ele>
        <time>2020-08-29T14:27:58.414Z</time>
      </trkpt>
      <trkpt lat="62.29286" lon="17.38677">
        <ele>9.943091</ele>
        <time>2020-08-29T14:28:01.617Z</time>
      </trkpt>
      <trkpt lat="62.2928" lon="17.38675">
        <ele>9.933915</ele>
        <time>2020-08-29T14:28:02.634Z</time>
      </trkpt>
      <trkpt lat="62.29186" lon="17.38655">
        <ele>9.789173</ele>
        <time>2020-08-29T14:28:21.143Z</time>
      </trkpt>
      <trkpt lat="62.29176" lon="17.38656">
        <ele>9.780053</ele>
        <time>2020-08-29T14:28:23.240Z</time>
      </trkpt>
      <trkpt lat="62.29166" lon="17.38655">
        <ele>9.861061</ele>
        <time>2020-08-29T14:28:25.594Z</time>
      </trkpt>
      <trkpt lat="62.29144" lon="17.38663">
        <ele>10.026877</ele>
        <time>2020-08-29T14:28:29.997Z</time>
      </trkpt>
      <trkpt lat="62.29129" lon="17.38675">
        <ele>10.154049</ele>
        <time>2020-08-29T14:28:33.660Z</time>
      </trkpt>
      <trkpt lat="62.291" lon="17.38708">
        <ele>10.406934</ele>
        <time>2020-08-29T14:28:40.525Z</time>
      </trkpt>
      <trkpt lat="62.29069" lon="17.38744">
        <ele>10.677459</ele>
        <time>2020-08-29T14:28:47.897Z</time>
      </trkpt>
      <trkpt lat="62.29029" lon="17.3878">
        <ele>11.011164</ele>
        <time>2020-08-29T14:28:57.077Z</time>
      </trkpt>
      <trkpt lat="62.28955" lon="17.38945">
        <ele>11.952783</ele>
        <time>2020-08-29T14:29:19.938Z</time>
      </trkpt>
      <trkpt lat="62.28925" lon="17.3909">
        <ele>12.626847</ele>
        <time>2020-08-29T14:29:36.047Z</time>
      </trkpt>
      <trkpt lat="62.28913" lon="17.39111">
        <ele>12.771221</ele>
        <time>2020-08-29T14:29:39.372Z</time>
      </trkpt>
      <trkpt lat="62.28901" lon="17.39143">
        <ele>12.866168</ele>
        <time>2020-08-29T14:29:43.528Z</time>
      </trkpt>
      <trkpt lat="62.28892" lon="17.39178">
        <ele>12.944201</ele>
        <time>2020-08-29T14:29:47.280Z</time>
      </trkpt>
      <trkpt lat="62.28879" lon="17.39218">
        <ele>13.038114</ele>
        <time>2020-08-29T14:29:51.908Z</time>
      </trkpt>
      <trkpt lat="62.28833" lon="17.39276">
        <ele>13.257657</ele>
        <time>2020-08-29T14:30:02.406Z</time>
      </trkpt>
      <trkpt lat="62.28534" lon="17.39511">
        <ele>13.078039</ele>
        <time>2020-08-29T14:30:58.474Z</time>
      </trkpt>
      <trkpt lat="62.28498" lon="17.3953">
        <ele>12.883767</ele>
        <time>2020-08-29T14:31:04.466Z</time>
      </trkpt>
      <trkpt lat="62.28451" lon="17.39535">
        <ele>12.636276</ele>
        <time>2020-08-29T14:31:11.975Z</time>
      </trkpt>
      <trkpt lat="62.28298" lon="17.39497">
        <ele>11.293132</ele>
        <time>2020-08-29T14:31:35.645Z</time>
      </trkpt>
      <trkpt lat="62.28237" lon="17.3948">
        <ele>10.741812</ele>
        <time>2020-08-29T14:31:45.350Z</time>
      </trkpt>
      <trkpt lat="62.28213" lon="17.39474">
        <ele>10.611219</ele>
        <time>2020-08-29T14:31:49.224Z</time>
      </trkpt>
      <trkpt lat="62.2814" lon="17.39461">
        <ele>10.220611</ele>
        <time>2020-08-29T14:32:01.087Z</time>
      </trkpt>
      <trkpt lat="62.28056" lon="17.39466">
        <ele>9.811342</ele>
        <time>2020-08-29T14:32:15.288Z</time>
      </trkpt>
      <trkpt lat="62.27938" lon="17.3948">
        <ele>9.657966</ele>
        <time>2020-08-29T14:32:35.663Z</time>
      </trkpt>
      <trkpt lat="62.27883" lon="17.39491">
        <ele>9.607729</ele>
        <time>2020-08-29T14:32:45.231Z</time>
      </trkpt>
      <trkpt lat="62.27857" lon="17.39496">
        <ele>9.735983</ele>
        <time>2020-08-29T14:32:50.001Z</time>
      </trkpt>
      <trkpt lat="62.27746" lon="17.39523">
        <ele>10.27413</ele>
        <time>2020-08-29T14:33:12.728Z</time>
      </trkpt>
      <trkpt lat="62.2766" lon="17.39565">
        <ele>10.444301</ele>
        <time>2020-08-29T14:33:29.491Z</time>
      </trkpt>
      <trkpt lat="62.27646" lon="17.39573">
        <ele>10.439471</ele>
        <time>2020-08-29T14:33:32.636Z</time>
      </trkpt>
      <trkpt lat="62.27629" lon="17.39575">
        <ele>10.434012</ele>
        <time>2020-08-29T14:33:35.200Z</time>
      </trkpt>
      <trkpt lat="62.27617" lon="17.39577">
        <ele>10.42986</ele>
        <time>2020-08-29T14:33:37.594Z</time>
      </trkpt>
      <trkpt lat="62.27609" lon="17.39572">
        <ele>10.427015</ele>
        <time>2020-08-29T14:33:39.477Z</time>
      </trkpt>
      <trkpt lat="62.27592" lon="17.39553">
        <ele>10.420766</ele>
        <time>2020-08-29T14:33:42.406Z</time>
      </trkpt>
      <trkpt lat="62.27579" lon="17.39535">
        <ele>10.415605</ele>
        <time>2020-08-29T14:33:45.616Z</time>
      </trkpt>
      <trkpt lat="62.27566" lon="17.39517">
        <ele>10.410318</ele>
        <time>2020-08-29T14:33:47.996Z</time>
      </trkpt>
      <trkpt lat="62.27525" lon="17.39468">
        <ele>10.255875</ele>
        <time>2020-08-29T14:33:55.827Z</time>
      </trkpt>
      <trkpt lat="62.27493" lon="17.39449">
        <ele>10.002583</ele>
        <time>2020-08-29T14:34:01.024Z</time>
      </trkpt>
      <trkpt lat="62.27454" lon="17.39469">
        <ele>9.7037</ele>
        <time>2020-08-29T14:34:06.889Z</time>
      </trkpt>
      <trkpt lat="62.27358" lon="17.39592">
        <ele>8.991796</ele>
        <time>2020-08-29T14:34:25.026Z</time>
      </trkpt>
      <trkpt lat="62.2732" lon="17.39602">
        <ele>8.929142</ele>
        <time>2020-08-29T14:34:31.512Z</time>
      </trkpt>
      <trkpt lat="62.2728" lon="17.39581">
        <ele>8.861846</ele>
        <time>2020-08-29T14:34:38.631Z</time>
      </trkpt>
      <trkpt lat="62.27275" lon="17.39575">
        <ele>8.851564</ele>
        <time>2020-08-29T14:34:39.548Z</time>
      </trkpt>
      <trkpt lat="62.27241" lon="17.39622">
        <ele>8.784439</ele>
        <time>2020-08-29T14:34:47.152Z</time>
      </trkpt>
      <trkpt lat="62.27228" lon="17.39625">
        <ele>8.763597</ele>
        <time>2020-08-29T14:34:49.667Z</time>
      </trkpt>
      <trkpt lat="62.27188" lon="17.39669">
        <ele>8.825048</ele>
        <time>2020-08-29T14:34:58.317Z</time>
      </trkpt>
      <trkpt lat="62.27166" lon="17.39681">
        <ele>8.901134</ele>
        <time>2020-08-29T14:35:02.596Z</time>
      </trkpt>
      <trkpt lat="62.27106" lon="17.39694">
        <ele>9.102101</ele>
        <time>2020-08-29T14:35:14.400Z</time>
      </trkpt>
      <trkpt lat="62.27045" lon="17.39724">
        <ele>9.313966</ele>
        <time>2020-08-29T14:35:27.182Z</time>
      </trkpt>
      <trkpt lat="62.27021" lon="17.39746">
        <ele>9.461898</ele>
        <time>2020-08-29T14:35:32.434Z</time>
      </trkpt>
      <trkpt lat="62.26987" lon="17.3978">
        <ele>9.70484</ele>
        <time>2020-08-29T14:35:41.830Z</time>
      </trkpt>
      <trkpt lat="62.26813" lon="17.39955">
        <ele>11.243637</ele>
        <time>2020-08-29T14:36:31.448Z</time>
      </trkpt>
      <trkpt lat="62.26803" lon="17.39952">
        <ele>11.3424</ele>
        <time>2020-08-29T14:36:33.989Z</time>
      </trkpt>
      <trkpt lat="62.26792" lon="17.40077">
        <ele>11.977852</ele>
        <time>2020-08-29T14:36:46.654Z</time>
      </trkpt>
      <trkpt lat="62.26756" lon="17.40438">
        <ele>14.255144</ele>
        <time>2020-08-29T14:37:25.362Z</time>
      </trkpt>
      <trkpt lat="62.26735" lon="17.40709">
        <ele>15.939783</ele>
        <time>2020-08-29T14:37:53.768Z</time>
      </trkpt>
      <trkpt lat="62.26727" lon="17.41049">
        <ele>17.979901</ele>
        <time>2020-08-29T14:38:27.901Z</time>
      </trkpt>
      <trkpt lat="62.2672" lon="17.41197">
        <ele>18.901233</ele>
        <time>2020-08-29T14:38:43.088Z</time>
      </trkpt>
      <trkpt lat="62.26702" lon="17.41308">
        <ele>19.631123</ele>
        <time>2020-08-29T14:38:55.516Z</time>
      </trkpt>
      <trkpt lat="62.26628" lon="17.41624">
        <ele>22.002542</ele>
        <time>2020-08-29T14:39:33.231Z</time>
      </trkpt>
      <trkpt lat="62.26592" lon="17.41808">
        <ele>22.639041</ele>
        <time>2020-08-29T14:39:52.427Z</time>
      </trkpt>
      <trkpt lat="62.26581" lon="17.41889">
        <ele>22.856547</ele>
        <time>2020-08-29T14:40:00.010Z</time>
      </trkpt>
      <trkpt lat="62.26565" lon="17.4215">
        <ele>23.273489</ele>
        <time>2020-08-29T14:40:22.138Z</time>
      </trkpt>
      <trkpt lat="62.26562" lon="17.42345">
        <ele>23.388202</ele>
        <time>2020-08-29T14:40:39.299Z</time>
      </trkpt>
      <trkpt lat="62.26559" lon="17.42481">
        <ele>23.254281</ele>
        <time>2020-08-29T14:40:50.586Z</time>
      </trkpt>
      <trkpt lat="62.26559" lon="17.42614">
        <ele>22.948251</ele>
        <time>2020-08-29T14:41:00.886Z</time>
      </trkpt>
      <trkpt lat="62.26555" lon="17.42798">
        <ele>22.524489</ele>
        <time>2020-08-29T14:41:14.457Z</time>
      </trkpt>
      <trkpt lat="62.26551" lon="17.42958">
        <ele>22.052359</ele>
        <time>2020-08-29T14:41:26.016Z</time>
      </trkpt>
      <trkpt lat="62.26548" lon="17.43077">
        <ele>21.701976</ele>
        <time>2020-08-29T14:41:34.973Z</time>
      </trkpt>
      <trkpt lat="62.26539" lon="17.43257">
        <ele>21.333466</ele>
        <time>2020-08-29T14:41:49.670Z</time>
      </trkpt>
      <trkpt lat="62.26523" lon="17.43422">
        <ele>21.183459</ele>
        <time>2020-08-29T14:42:04.197Z</time>
      </trkpt>
      <trkpt lat="62.26515" lon="17.43488">
        <ele>21.123726</ele>
        <time>2020-08-29T14:42:09.584Z</time>
      </trkpt>
      <trkpt lat="62.26491" lon="17.43735">
        <ele>20.155355</ele>
        <time>2020-08-29T14:42:28.231Z</time>
      </trkpt>
      <trkpt lat="62.26478" lon="17.43853">
        <ele>19.555656</ele>
        <time>2020-08-29T14:42:36.562Z</time>
      </trkpt>
      <trkpt lat="62.26463" lon="17.43992">
        <ele>18.893304</ele>
        <time>2020-08-29T14:42:46.491Z</time>
      </trkpt>
      <trkpt lat="62.26428" lon="17.44338">
        <ele>17.457007</ele>
        <time>2020-08-29T14:43:12.651Z</time>
      </trkpt>
      <trkpt lat="62.26408" lon="17.44521">
        <ele>16.917116</ele>
        <time>2020-08-29T14:43:27.015Z</time>
      </trkpt>
      <trkpt lat="62.264" lon="17.44634">
        <ele>16.587895</ele>
        <time>2020-08-29T14:43:35.661Z</time>
      </trkpt>
      <trkpt lat="62.26373" lon="17.44864">
        <ele>15.806676</ele>
        <time>2020-08-29T14:43:53.441Z</time>
      </trkpt>
      <trkpt lat="62.26359" lon="17.44999">
        <ele>15.333436</ele>
        <time>2020-08-29T14:44:03.484Z</time>
      </trkpt>
      <trkpt lat="62.26353" lon="17.45062">
        <ele>15.114921</ele>
        <time>2020-08-29T14:44:08.150Z</time>
      </trkpt>
      <trkpt lat="62.26294" lon="17.45646">
        <ele>14.209561</ele>
        <time>2020-08-29T14:44:54.292Z</time>
      </trkpt>
      <trkpt lat="62.26258" lon="17.45828">
        <ele>14.401104</ele>
        <time>2020-08-29T14:45:12.293Z</time>
      </trkpt>
      <trkpt lat="62.26232" lon="17.45915">
        <ele>15.179308</ele>
        <time>2020-08-29T14:45:22.511Z</time>
      </trkpt>
      <trkpt lat="62.26189" lon="17.46034">
        <ele>16.313453</ele>
        <time>2020-08-29T14:45:38.466Z</time>
      </trkpt>
      <trkpt lat="62.26103" lon="17.4627">
        <ele>19.616264</ele>
        <time>2020-08-29T14:46:14.615Z</time>
      </trkpt>
      <trkpt lat="62.26092" lon="17.46303">
        <ele>20.158107</ele>
        <time>2020-08-29T14:46:19.998Z</time>
      </trkpt>
      <trkpt lat="62.26083" lon="17.46326">
        <ele>20.548726</ele>
        <time>2020-08-29T14:46:23.698Z</time>
      </trkpt>
      <trkpt lat="62.25956" lon="17.46675">
        <ele>26.517301</ele>
        <time>2020-08-29T14:47:21.955Z</time>
      </trkpt>
      <trkpt lat="62.2595" lon="17.46689">
        <ele>26.756638</ele>
        <time>2020-08-29T14:47:24.245Z</time>
      </trkpt>
      <trkpt lat="62.25797" lon="17.47098">
        <ele>31.327602</ele>
        <time>2020-08-29T14:48:21.463Z</time>
      </trkpt>
      <trkpt lat="62.25736" lon="17.47249">
        <ele>32.631686</ele>
        <time>2020-08-29T14:48:41.948Z</time>
      </trkpt>
      <trkpt lat="62.2567" lon="17.47393">
        <ele>33.849618</ele>
        <time>2020-08-29T14:49:02.609Z</time>
      </trkpt>
      <trkpt lat="62.25495" lon="17.47641">
        <ele>36.224906</ele>
        <time>2020-08-29T14:49:47.854Z</time>
      </trkpt>
      <trkpt lat="62.25321" lon="17.47873">
        <ele>37.873293</ele>
        <time>2020-08-29T14:50:30.549Z</time>
      </trkpt>
      <trkpt lat="62.25254" lon="17.47945">
        <ele>38.284946</ele>
        <time>2020-08-29T14:50:44.482Z</time>
      </trkpt>
      <trkpt lat="62.25112" lon="17.48131">
        <ele>37.37512</ele>
        <time>2020-08-29T14:51:11.828Z</time>
      </trkpt>
      <trkpt lat="62.2489" lon="17.48433">
        <ele>34.220449</ele>
        <time>2020-08-29T14:51:51.472Z</time>
      </trkpt>
      <trkpt lat="62.24735" lon="17.4863">
        <ele>31.664803</ele>
        <time>2020-08-29T14:52:18.146Z</time>
      </trkpt>
      <trkpt lat="62.24691" lon="17.4869">
        <ele>30.89523</ele>
        <time>2020-08-29T14:52:25.645Z</time>
      </trkpt>
      <trkpt lat="62.24668" lon="17.48725">
        <ele>30.472245</ele>
        <time>2020-08-29T14:52:29.822Z</time>
      </trkpt>
      <trkpt lat="62.24633" lon="17.48799">
        <ele>29.8702</ele>
        <time>2020-08-29T14:52:37.155Z</time>
      </trkpt>
      <trkpt lat="62.24607" lon="17.48871">
        <ele>29.589859</ele>
        <time>2020-08-29T14:52:43.660Z</time>
      </trkpt>
      <trkpt lat="62.24596" lon="17.48913">
        <ele>29.443183</ele>
        <time>2020-08-29T14:52:47.104Z</time>
      </trkpt>
      <trkpt lat="62.24575" lon="17.49056">
        <ele>28.981205</ele>
        <time>2020-08-29T14:52:58.667Z</time>
      </trkpt>
      <trkpt lat="62.24562" lon="17.49282">
        <ele>28.834357</ele>
        <time>2020-08-29T14:53:18.124Z</time>
      </trkpt>
      <trkpt lat="62.24554" lon="17.4941">
        <ele>28.875016</ele>
        <time>2020-08-29T14:53:29.510Z</time>
      </trkpt>
      <trkpt lat="62.24518" lon="17.50051">
        <ele>28.077341</ele>
        <time>2020-08-29T14:54:20.514Z</time>
      </trkpt>
      <trkpt lat="62.24466" lon="17.51031">
        <ele>26.183634</ele>
        <time>2020-08-29T14:55:37.671Z</time>
      </trkpt>
      <trkpt lat="62.24447" lon="17.51162">
        <ele>25.345222</ele>
        <time>2020-08-29T14:55:47.352Z</time>
      </trkpt>
      <trkpt lat="62.2437" lon="17.51478">
        <ele>22.983776</ele>
        <time>2020-08-29T14:56:11.590Z</time>
      </trkpt>
      <trkpt lat="62.2423" lon="17.51966">
        <ele>18.090089</ele>
        <time>2020-08-29T14:56:50.518Z</time>
      </trkpt>
      <trkpt lat="62.24196" lon="17.52139">
        <ele>15.890879</ele>
        <time>2020-08-29T14:57:02.026Z</time>
      </trkpt>
      <trkpt lat="62.24179" lon="17.52384">
        <ele>12.434206</ele>
        <time>2020-08-29T14:57:17.094Z</time>
      </trkpt>
      <trkpt lat="62.24167" lon="17.52578">
        <ele>10.954093</ele>
        <time>2020-08-29T14:57:29.679Z</time>
      </trkpt>
      <trkpt lat="62.2412" lon="17.5256">
        <ele>10.398425</ele>
        <time>2020-08-29T14:57:37.087Z</time>
      </trkpt>
      <trkpt lat="62.24016" lon="17.52517">
        <ele>9.714884</ele>
        <time>2020-08-29T14:57:56.063Z</time>
      </trkpt>
      <trkpt lat="62.24011" lon="17.52511">
        <ele>9.72426</ele>
        <time>2020-08-29T14:57:57.295Z</time>
      </trkpt>
      <trkpt lat="62.23991" lon="17.52493">
        <ele>9.757984</ele>
        <time>2020-08-29T14:58:01.260Z</time>
      </trkpt>
      <trkpt lat="62.23943" lon="17.52437">
        <ele>9.844663</ele>
        <time>2020-08-29T14:58:11.516Z</time>
      </trkpt>
      <trkpt lat="62.23881" lon="17.52363">
        <ele>9.915752</ele>
        <time>2020-08-29T14:58:24.414Z</time>
      </trkpt>
      <trkpt lat="62.23872" lon="17.5235">
        <ele>9.902543</ele>
        <time>2020-08-29T14:58:26.376Z</time>
      </trkpt>
      <trkpt lat="62.23852" lon="17.52307">
        <ele>9.868417</ele>
        <time>2020-08-29T14:58:31.418Z</time>
      </trkpt>
      <trkpt lat="62.23845" lon="17.52288">
        <ele>9.855078</ele>
        <time>2020-08-29T14:58:33.386Z</time>
      </trkpt>
      <trkpt lat="62.23824" lon="17.52232">
        <ele>9.815136</ele>
        <time>2020-08-29T14:58:39.264Z</time>
      </trkpt>
      <trkpt lat="62.23583" lon="17.51539">
        <ele>8.8068</ele>
        <time>2020-08-29T14:59:48.344Z</time>
      </trkpt>
      <trkpt lat="62.23544" lon="17.51424">
        <ele>8.412971</ele>
        <time>2020-08-29T14:59:58.971Z</time>
      </trkpt>
      <trkpt lat="62.23511" lon="17.51338">
        <ele>7.933398</ele>
        <time>2020-08-29T15:00:07.146Z</time>
      </trkpt>
      <trkpt lat="62.2348" lon="17.51278">
        <ele>7.548337</ele>
        <time>2020-08-29T15:00:13.631Z</time>
      </trkpt>
      <trkpt lat="62.23367" lon="17.51151">
        <ele>6.505099</ele>
        <time>2020-08-29T15:00:33.242Z</time>
      </trkpt>
      <trkpt lat="62.23336" lon="17.511">
        <ele>6.214831</ele>
        <time>2020-08-29T15:00:39.494Z</time>
      </trkpt>
      <trkpt lat="62.23317" lon="17.51049">
        <ele>5.991212</ele>
        <time>2020-08-29T15:00:44.402Z</time>
      </trkpt>
      <trkpt lat="62.2326" lon="17.50817">
        <ele>5.54684</ele>
        <time>2020-08-29T15:01:05.137Z</time>
      </trkpt>
      <trkpt lat="62.23204" lon="17.50641">
        <ele>5.370722</ele>
        <time>2020-08-29T15:01:22.693Z</time>
      </trkpt>
      <trkpt lat="62.23183" lon="17.50595">
        <ele>5.24161</ele>
        <time>2020-08-29T15:01:28.125Z</time>
      </trkpt>
      <trkpt lat="62.23125" lon="17.50505">
        <ele>4.94352</ele>
        <time>2020-08-29T15:01:40.244Z</time>
      </trkpt>
      <trkpt lat="62.23065" lon="17.50409">
        <ele>4.627473</ele>
        <time>2020-08-29T15:01:52.465Z</time>
      </trkpt>
      <trkpt lat="62.22974" lon="17.50216">
        <ele>3.747207</ele>
        <time>2020-08-29T15:02:12.424Z</time>
      </trkpt>
      <trkpt lat="62.22953" lon="17.50173">
        <ele>3.543475</ele>
        <time>2020-08-29T15:02:17.175Z</time>
      </trkpt>
      <trkpt lat="62.22919" lon="17.50102">
        <ele>3.432492</ele>
        <time>2020-08-29T15:02:24.986Z</time>
      </trkpt>
      <trkpt lat="62.22899" lon="17.50058">
        <ele>3.516669</ele>
        <time>2020-08-29T15:02:30.158Z</time>
      </trkpt>
      <trkpt lat="62.22869" lon="17.49995">
        <ele>3.638672</ele>
        <time>2020-08-29T15:02:37.883Z</time>
      </trkpt>
      <trkpt lat="62.22818" lon="17.49893">
        <ele>3.84185</ele>
        <time>2020-08-29T15:02:51.621Z</time>
      </trkpt>
      <trkpt lat="62.22794" lon="17.49861">
        <ele>3.950598</ele>
        <time>2020-08-29T15:02:57.581Z</time>
      </trkpt>
      <trkpt lat="62.22744" lon="17.49796">
        <ele>4.264171</ele>
        <time>2020-08-29T15:03:09.804Z</time>
      </trkpt>
      <trkpt lat="62.22669" lon="17.49704">
        <ele>4.729969</ele>
        <time>2020-08-29T15:03:26.707Z</time>
      </trkpt>
      <trkpt lat="62.22637" lon="17.49676">
        <ele>4.858964</ele>
        <time>2020-08-29T15:03:32.854Z</time>
      </trkpt>
      <trkpt lat="62.2262" lon="17.49666">
        <ele>4.859074</ele>
        <time>2020-08-29T15:03:35.988Z</time>
      </trkpt>
      <trkpt lat="62.22593" lon="17.49659">
        <ele>4.859239</ele>
        <time>2020-08-29T15:03:40.797Z</time>
      </trkpt>
      <trkpt lat="62.22526" lon="17.4966">
        <ele>4.859643</ele>
        <time>2020-08-29T15:03:52.535Z</time>
      </trkpt>
      <trkpt lat="62.22473" lon="17.49663">
        <ele>4.85997</ele>
        <time>2020-08-29T15:04:01.901Z</time>
      </trkpt>
      <trkpt lat="62.22432" lon="17.49663">
        <ele>4.963949</ele>
        <time>2020-08-29T15:04:09.076Z</time>
      </trkpt>
      <trkpt lat="62.22402" lon="17.49645">
        <ele>5.056794</ele>
        <time>2020-08-29T15:04:15.100Z</time>
      </trkpt>
      <trkpt lat="62.22302" lon="17.49533">
        <ele>5.383894</ele>
        <time>2020-08-29T15:04:36.727Z</time>
      </trkpt>
      <trkpt lat="62.22288" lon="17.49528">
        <ele>5.420113</ele>
        <time>2020-08-29T15:04:39.635Z</time>
      </trkpt>
      <trkpt lat="62.22248" lon="17.49516">
        <ele>5.518664</ele>
        <time>2020-08-29T15:04:47.170Z</time>
      </trkpt>
      <trkpt lat="62.22204" lon="17.49511">
        <ele>5.624124</ele>
        <time>2020-08-29T15:04:55.191Z</time>
      </trkpt>
      <trkpt lat="62.22177" lon="17.49509">
        <ele>5.689734</ele>
        <time>2020-08-29T15:05:00.120Z</time>
      </trkpt>
      <trkpt lat="62.22148" lon="17.49501">
        <ele>5.761804</ele>
        <time>2020-08-29T15:05:05.518Z</time>
      </trkpt>
      <trkpt lat="62.22128" lon="17.49484">
        <ele>5.815058</ele>
        <time>2020-08-29T15:05:09.420Z</time>
      </trkpt>
      <trkpt lat="62.22004" lon="17.49356">
        <ele>6.261246</ele>
        <time>2020-08-29T15:05:34.477Z</time>
      </trkpt>
      <trkpt lat="62.21969" lon="17.49336">
        <ele>6.378776</ele>
        <time>2020-08-29T15:05:41.743Z</time>
      </trkpt>
      <trkpt lat="62.21883" lon="17.49338">
        <ele>7.272184</ele>
        <time>2020-08-29T15:05:59.978Z</time>
      </trkpt>
      <trkpt lat="62.21862" lon="17.49338">
        <ele>7.498931</ele>
        <time>2020-08-29T15:06:04.475Z</time>
      </trkpt>
      <trkpt lat="62.21729" lon="17.4935">
        <ele>8.829626</ele>
        <time>2020-08-29T15:06:33.732Z</time>
      </trkpt>
      <trkpt lat="62.21569" lon="17.49358">
        <ele>9.881487</ele>
        <time>2020-08-29T15:07:05.615Z</time>
      </trkpt>
      <trkpt lat="62.21424" lon="17.49364">
        <ele>10.021916</ele>
        <time>2020-08-29T15:07:31.601Z</time>
      </trkpt>
      <trkpt lat="62.21288" lon="17.49372">
        <ele>8.931193</ele>
        <time>2020-08-29T15:07:53.634Z</time>
      </trkpt>
      <trkpt lat="62.21129" lon="17.49377">
        <ele>6.684413</ele>
        <time>2020-08-29T15:08:16.909Z</time>
      </trkpt>
      <trkpt lat="62.21094" lon="17.49379">
        <ele>6.094945</ele>
        <time>2020-08-29T15:08:21.873Z</time>
      </trkpt>
      <trkpt lat="62.2104" lon="17.49386">
        <ele>5.224465</ele>
        <time>2020-08-29T15:08:29.548Z</time>
      </trkpt>
      <trkpt lat="62.21004" lon="17.49397">
        <ele>4.663703</ele>
        <time>2020-08-29T15:08:34.792Z</time>
      </trkpt>
      <trkpt lat="62.20972" lon="17.49411">
        <ele>4.177844</ele>
        <time>2020-08-29T15:08:39.402Z</time>
      </trkpt>
      <trkpt lat="62.20896" lon="17.49449">
        <ele>2.984877</ele>
        <time>2020-08-29T15:08:51.067Z</time>
      </trkpt>
      <trkpt lat="62.20864" lon="17.49465">
        <ele>2.720209</ele>
        <time>2020-08-29T15:08:56.199Z</time>
      </trkpt>
      <trkpt lat="62.20858" lon="17.49468">
        <ele>2.697649</ele>
        <time>2020-08-29T15:08:57.113Z</time>
      </trkpt>
      <trkpt lat="62.20822" lon="17.49475">
        <ele>2.552847</ele>
        <time>2020-08-29T15:09:02.962Z</time>
      </trkpt>
      <trkpt lat="62.2073" lon="17.49465">
        <ele>2.18281</ele>
        <time>2020-08-29T15:09:18.869Z</time>
      </trkpt>
      <trkpt lat="62.2071" lon="17.49463">
        <ele>2.103243</ele>
        <time>2020-08-29T15:09:22.449Z</time>
      </trkpt>
      <trkpt lat="62.20675" lon="17.4945">
        <ele>2.154083</ele>
        <time>2020-08-29T15:09:28.965Z</time>
      </trkpt>
      <trkpt lat="62.20663" lon="17.49442">
        <ele>2.181854</ele>
        <time>2020-08-29T15:09:31.368Z</time>
      </trkpt>
      <trkpt lat="62.2063" lon="17.49422">
        <ele>2.256488</ele>
        <time>2020-08-29T15:09:37.754Z</time>
      </trkpt>
      <trkpt lat="62.20587" lon="17.49395">
        <ele>2.354482</ele>
        <time>2020-08-29T15:09:46.161Z</time>
      </trkpt>
      <trkpt lat="62.20543" lon="17.4938">
        <ele>2.451971</ele>
        <time>2020-08-29T15:09:54.431Z</time>
      </trkpt>
      <trkpt lat="62.20513" lon="17.49377">
        <ele>2.519541</ele>
        <time>2020-08-29T15:09:59.966Z</time>
      </trkpt>
      <trkpt lat="62.20491" lon="17.49376">
        <ele>2.571794</ele>
        <time>2020-08-29T15:10:04.179Z</time>
      </trkpt>
      <trkpt lat="62.20421" lon="17.49398">
        <ele>2.733373</ele>
        <time>2020-08-29T15:10:17.015Z</time>
      </trkpt>
      <trkpt lat="62.2037" lon="17.49419">
        <ele>2.854227</ele>
        <time>2020-08-29T15:10:26.696Z</time>
      </trkpt>
      <trkpt lat="62.20286" lon="17.49454">
        <ele>3.430705</ele>
        <time>2020-08-29T15:10:42.867Z</time>
      </trkpt>
      <trkpt lat="62.20179" lon="17.49504">
        <ele>4.304334</ele>
        <time>2020-08-29T15:11:06.100Z</time>
      </trkpt>
      <trkpt lat="62.20139" lon="17.49519">
        <ele>4.918798</ele>
        <time>2020-08-29T15:11:15.113Z</time>
      </trkpt>
      <trkpt lat="62.20113" lon="17.49529">
        <ele>5.319983</ele>
        <time>2020-08-29T15:11:20.869Z</time>
      </trkpt>
      <trkpt lat="62.20035" lon="17.49551">
        <ele>6.546642</ele>
        <time>2020-08-29T15:11:39.428Z</time>
      </trkpt>
      <trkpt lat="62.19955" lon="17.49589">
        <ele>7.707017</ele>
        <time>2020-08-29T15:11:58.343Z</time>
      </trkpt>
      <trkpt lat="62.19935" lon="17.49602">
        <ele>7.982458</ele>
        <time>2020-08-29T15:12:03.034Z</time>
      </trkpt>
      <trkpt lat="62.19925" lon="17.49612">
        <ele>8.138674</ele>
        <time>2020-08-29T15:12:05.626Z</time>
      </trkpt>
      <trkpt lat="62.19904" lon="17.49637">
        <ele>8.455661</ele>
        <time>2020-08-29T15:12:10.835Z</time>
      </trkpt>
      <trkpt lat="62.19839" lon="17.49739">
        <ele>9.515519</ele>
        <time>2020-08-29T15:12:28.182Z</time>
      </trkpt>
      <trkpt lat="62.1982" lon="17.49765">
        <ele>9.636676</ele>
        <time>2020-08-29T15:12:32.829Z</time>
      </trkpt>
      <trkpt lat="62.19802" lon="17.4979">
        <ele>9.752156</ele>
        <time>2020-08-29T15:12:37.241Z</time>
      </trkpt>
      <trkpt lat="62.19736" lon="17.49882">
        <ele>10.183111</ele>
        <time>2020-08-29T15:12:52.570Z</time>
      </trkpt>
      <trkpt lat="62.19729" lon="17.49889">
        <ele>10.222296</ele>
        <time>2020-08-29T15:12:53.934Z</time>
      </trkpt>
      <trkpt lat="62.19723" lon="17.49897">
        <ele>10.261645</ele>
        <time>2020-08-29T15:12:55.360Z</time>
      </trkpt>
      <trkpt lat="62.19657" lon="17.49942">
        <ele>10.485013</ele>
        <time>2020-08-29T15:13:08.331Z</time>
      </trkpt>
      <trkpt lat="62.19551" lon="17.49993">
        <ele>10.498463</ele>
        <time>2020-08-29T15:13:27.897Z</time>
      </trkpt>
      <trkpt lat="62.19509" lon="17.50009">
        <ele>10.496159</ele>
        <time>2020-08-29T15:13:35.263Z</time>
      </trkpt>
      <trkpt lat="62.19456" lon="17.5003">
        <ele>9.921621</ele>
        <time>2020-08-29T15:13:44.045Z</time>
      </trkpt>
      <trkpt lat="62.19455" lon="17.5003">
        <ele>9.905124</ele>
        <time>2020-08-29T15:13:44.295Z</time>
      </trkpt>
      <trkpt lat="62.1945" lon="17.50032">
        <ele>9.858024</ele>
        <time>2020-08-29T15:13:45.021Z</time>
      </trkpt>
      <trkpt lat="62.1942" lon="17.50044">
        <ele>9.519488</ele>
        <time>2020-08-29T15:13:50.031Z</time>
      </trkpt>
      <trkpt lat="62.19283" lon="17.50096">
        <ele>7.692722</ele>
        <time>2020-08-29T15:14:10.186Z</time>
      </trkpt>
      <trkpt lat="62.19267" lon="17.50103">
        <ele>7.414739</ele>
        <time>2020-08-29T15:14:12.341Z</time>
      </trkpt>
      <trkpt lat="62.19165" lon="17.50145">
        <ele>5.608319</ele>
        <time>2020-08-29T15:14:27.078Z</time>
      </trkpt>
      <trkpt lat="62.19131" lon="17.50159">
        <ele>5.499868</ele>
        <time>2020-08-29T15:14:32.297Z</time>
      </trkpt>
      <trkpt lat="62.19091" lon="17.50176">
        <ele>5.609479</ele>
        <time>2020-08-29T15:14:38.651Z</time>
      </trkpt>
      <trkpt lat="62.18923" lon="17.50241">
        <ele>6.536076</ele>
        <time>2020-08-29T15:15:15.859Z</time>
      </trkpt>
      <trkpt lat="62.18878" lon="17.50253">
        <ele>7.029113</ele>
        <time>2020-08-29T15:15:26.638Z</time>
      </trkpt>
      <trkpt lat="62.18867" lon="17.50257">
        <ele>7.150522</ele>
        <time>2020-08-29T15:15:29.125Z</time>
      </trkpt>
      <trkpt lat="62.1881" lon="17.50262">
        <ele>7.767161</ele>
        <time>2020-08-29T15:15:41.248Z</time>
      </trkpt>
      <trkpt lat="62.18775" lon="17.50264">
        <ele>7.605234</ele>
        <time>2020-08-29T15:15:47.415Z</time>
      </trkpt>
      <trkpt lat="62.18666" lon="17.50273">
        <ele>6.443854</ele>
        <time>2020-08-29T15:16:04.127Z</time>
      </trkpt>
      <trkpt lat="62.18656" lon="17.50273">
        <ele>6.342893</ele>
        <time>2020-08-29T15:16:05.411Z</time>
      </trkpt>
      <trkpt lat="62.18638" lon="17.50275">
        <ele>6.142069</ele>
        <time>2020-08-29T15:16:08.103Z</time>
      </trkpt>
      <trkpt lat="62.18517" lon="17.50287">
        <ele>4.133947</ele>
        <time>2020-08-29T15:16:24.942Z</time>
      </trkpt>
      <trkpt lat="62.18454" lon="17.50275">
        <ele>3.008812</ele>
        <time>2020-08-29T15:16:34.213Z</time>
      </trkpt>
      <trkpt lat="62.18399" lon="17.50249">
        <ele>2.666537</ele>
        <time>2020-08-29T15:16:42.874Z</time>
      </trkpt>
      <trkpt lat="62.18362" lon="17.50218">
        <ele>2.560103</ele>
        <time>2020-08-29T15:16:49.243Z</time>
      </trkpt>
      <trkpt lat="62.18352" lon="17.5021">
        <ele>2.530078</ele>
        <time>2020-08-29T15:16:51.095Z</time>
      </trkpt>
      <trkpt lat="62.18009" lon="17.49832">
        <ele>4.096635</ele>
        <time>2020-08-29T15:18:05.578Z</time>
      </trkpt>
      <trkpt lat="62.17985" lon="17.49805">
        <ele>4.311681</ele>
        <time>2020-08-29T15:18:11.456Z</time>
      </trkpt>
      <trkpt lat="62.17968" lon="17.49785">
        <ele>4.47059</ele>
        <time>2020-08-29T15:18:15.843Z</time>
      </trkpt>
      <trkpt lat="62.17932" lon="17.49744">
        <ele>5.14743</ele>
        <time>2020-08-29T15:18:25.101Z</time>
      </trkpt>
      <trkpt lat="62.17867" lon="17.49675">
        <ele>6.644262</ele>
        <time>2020-08-29T15:18:42.186Z</time>
      </trkpt>
      <trkpt lat="62.17766" lon="17.4957">
        <ele>9.202815</ele>
        <time>2020-08-29T15:19:11.324Z</time>
      </trkpt>
      <trkpt lat="62.17744" lon="17.4955">
        <ele>9.866059</ele>
        <time>2020-08-29T15:19:17.782Z</time>
      </trkpt>
      <trkpt lat="62.17703" lon="17.49518">
        <ele>11.078704</ele>
        <time>2020-08-29T15:19:29.725Z</time>
      </trkpt>
      <trkpt lat="62.17641" lon="17.49473">
        <ele>12.91619</ele>
        <time>2020-08-29T15:19:47.836Z</time>
      </trkpt>
      <trkpt lat="62.17424" lon="17.49312">
        <ele>17.837574</ele>
        <time>2020-08-29T15:20:45.871Z</time>
      </trkpt>
      <trkpt lat="62.17386" lon="17.4927">
        <ele>18.258699</ele>
        <time>2020-08-29T15:20:55.113Z</time>
      </trkpt>
      <trkpt lat="62.17221" lon="17.4904">
        <ele>19.367513</ele>
        <time>2020-08-29T15:21:32.511Z</time>
      </trkpt>
      <trkpt lat="62.17072" lon="17.48806">
        <ele>19.205794</ele>
        <time>2020-08-29T15:22:04.386Z</time>
      </trkpt>
      <trkpt lat="62.16939" lon="17.48615">
        <ele>18.523606</ele>
        <time>2020-08-29T15:22:31.452Z</time>
      </trkpt>
      <trkpt lat="62.16915" lon="17.48589">
        <ele>18.361959</ele>
        <time>2020-08-29T15:22:35.945Z</time>
      </trkpt>
      <trkpt lat="62.16759" lon="17.48477">
        <ele>16.765416</ele>
        <time>2020-08-29T15:23:01.661Z</time>
      </trkpt>
      <trkpt lat="62.16561" lon="17.48421">
        <ele>14.205328</ele>
        <time>2020-08-29T15:23:30.496Z</time>
      </trkpt>
      <trkpt lat="62.16521" lon="17.48421">
        <ele>13.67842</ele>
        <time>2020-08-29T15:23:36.583Z</time>
      </trkpt>
      <trkpt lat="62.1649" lon="17.48434">
        <ele>13.346442</ele>
        <time>2020-08-29T15:23:41.885Z</time>
      </trkpt>
      <trkpt lat="62.1648" lon="17.48443">
        <ele>13.437448</ele>
        <time>2020-08-29T15:23:43.651Z</time>
      </trkpt>
      <trkpt lat="62.16447" lon="17.48467">
        <ele>13.754245</ele>
        <time>2020-08-29T15:23:50.061Z</time>
      </trkpt>
      <trkpt lat="62.16446" lon="17.48464">
        <ele>13.768707</ele>
        <time>2020-08-29T15:23:50.660Z</time>
      </trkpt>
      <trkpt lat="62.16434" lon="17.48402">
        <ele>14.054628</ele>
        <time>2020-08-29T15:24:00.354Z</time>
      </trkpt>
      <trkpt lat="62.16414" lon="17.48337">
        <ele>14.377373</ele>
        <time>2020-08-29T15:24:11.991Z</time>
      </trkpt>
      <trkpt lat="62.16411" lon="17.48329">
        <ele>14.421186</ele>
        <time>2020-08-29T15:24:13.948Z</time>
      </trkpt>
      <trkpt lat="62.16398" lon="17.48288">
        <ele>14.628378</ele>
        <time>2020-08-29T15:24:21.823Z</time>
      </trkpt>
      <trkpt lat="62.16381" lon="17.48208">
        <ele>15.138178</ele>
        <time>2020-08-29T15:24:37.031Z</time>
      </trkpt>
      <trkpt lat="62.16363" lon="17.48072">
        <ele>16.909647</ele>
        <time>2020-08-29T15:25:02.797Z</time>
      </trkpt>
      <trkpt lat="62.16361" lon="17.4803">
        <ele>17.441856</ele>
        <time>2020-08-29T15:25:10.682Z</time>
      </trkpt>
      <trkpt lat="62.16361" lon="17.48002">
        <ele>17.783469</ele>
        <time>2020-08-29T15:25:15.589Z</time>
      </trkpt>
      <trkpt lat="62.16378" lon="17.47854">
        <ele>19.700093</ele>
        <time>2020-08-29T15:25:42.497Z</time>
      </trkpt>
      <trkpt lat="62.16435" lon="17.47456">
        <ele>25.157673</ele>
        <time>2020-08-29T15:26:59.060Z</time>
      </trkpt>
      <trkpt lat="62.16433" lon="17.4742">
        <ele>25.475768</ele>
        <time>2020-08-29T15:27:05.205Z</time>
      </trkpt>
      <trkpt lat="62.16428" lon="17.47395">
        <ele>25.703462</ele>
        <time>2020-08-29T15:27:10.386Z</time>
      </trkpt>
      <trkpt lat="62.1642" lon="17.4738">
        <ele>25.901725</ele>
        <time>2020-08-29T15:27:14.352Z</time>
      </trkpt>
      <trkpt lat="62.16407" lon="17.47347">
        <ele>26.276109</ele>
        <time>2020-08-29T15:27:21.531Z</time>
      </trkpt>
      <trkpt lat="62.16404" lon="17.47338">
        <ele>26.37405</ele>
        <time>2020-08-29T15:27:23.813Z</time>
      </trkpt>
      <trkpt lat="62.16406" lon="17.47288">
        <ele>26.804034</ele>
        <time>2020-08-29T15:27:31.625Z</time>
      </trkpt>
      <trkpt lat="62.16407" lon="17.47227">
        <ele>27.332069</ele>
        <time>2020-08-29T15:27:41.776Z</time>
      </trkpt>
      <trkpt lat="62.16399" lon="17.47159">
        <ele>27.939422</ele>
        <time>2020-08-29T15:27:53.035Z</time>
      </trkpt>
      <trkpt lat="62.16388" lon="17.47096">
        <ele>28.325943</ele>
        <time>2020-08-29T15:28:03.414Z</time>
      </trkpt>
      <trkpt lat="62.16358" lon="17.46917">
        <ele>28.775095</ele>
        <time>2020-08-29T15:28:30.494Z</time>
      </trkpt>
      <trkpt lat="62.16337" lon="17.46795">
        <ele>29.079743</ele>
        <time>2020-08-29T15:28:49.047Z</time>
      </trkpt>
      <trkpt lat="62.16335" lon="17.46781">
        <ele>29.114349</ele>
        <time>2020-08-29T15:28:51.223Z</time>
      </trkpt>
      <trkpt lat="62.16298" lon="17.46573">
        <ele>29.998881</ele>
        <time>2020-08-29T15:29:24.817Z</time>
      </trkpt>
      <trkpt lat="62.16272" lon="17.46446">
        <ele>30.56913</ele>
        <time>2020-08-29T15:29:46.272Z</time>
      </trkpt>
      <trkpt lat="62.16251" lon="17.4635">
        <ele>31.11117</ele>
        <time>2020-08-29T15:30:02.825Z</time>
      </trkpt>
      <trkpt lat="62.16216" lon="17.46186">
        <ele>32.152065</ele>
        <time>2020-08-29T15:30:30.855Z</time>
      </trkpt>
      <trkpt lat="62.1615" lon="17.4591">
        <ele>34.567659</ele>
        <time>2020-08-29T15:31:20.477Z</time>
      </trkpt>
      <trkpt lat="62.16073" lon="17.45625">
        <ele>38.808398</ele>
        <time>2020-08-29T15:32:18.445Z</time>
      </trkpt>
      <trkpt lat="62.16053" lon="17.45572">
        <ele>40.122888</ele>
        <time>2020-08-29T15:32:31.333Z</time>
      </trkpt>
      <trkpt lat="62.15761" lon="17.44922">
        <ele>58.251016</ele>
        <time>2020-08-29T15:35:38.746Z</time>
      </trkpt>
      <trkpt lat="62.15677" lon="17.44716">
        <ele>63.395083</ele>
        <time>2020-08-29T15:36:34.879Z</time>
      </trkpt>
      <trkpt lat="62.15657" lon="17.44679">
        <ele>64.402731</ele>
        <time>2020-08-29T15:36:46.019Z</time>
      </trkpt>
      <trkpt lat="62.15593" lon="17.4461">
        <ele>66.926699</ele>
        <time>2020-08-29T15:37:14.572Z</time>
      </trkpt>
      <trkpt lat="62.1558" lon="17.4458">
        <ele>67.268753</ele>
        <time>2020-08-29T15:37:21.509Z</time>
      </trkpt>
      <trkpt lat="62.15572" lon="17.44551">
        <ele>67.547905</ele>
        <time>2020-08-29T15:37:27.514Z</time>
      </trkpt>
      <trkpt lat="62.15574" lon="17.44499">
        <ele>67.982658</ele>
        <time>2020-08-29T15:37:36.035Z</time>
      </trkpt>
      <trkpt lat="62.15577" lon="17.44453">
        <ele>68.374699</ele>
        <time>2020-08-29T15:37:43.777Z</time>
      </trkpt>
      <trkpt lat="62.15593" lon="17.44379">
        <ele>69.051789</ele>
        <time>2020-08-29T15:37:56.780Z</time>
      </trkpt>
      <trkpt lat="62.15637" lon="17.44208">
        <ele>70.5078</ele>
        <time>2020-08-29T15:38:27.209Z</time>
      </trkpt>
      <trkpt lat="62.1564" lon="17.44119">
        <ele>71.075626</ele>
        <time>2020-08-29T15:38:40.992Z</time>
      </trkpt>
      <trkpt lat="62.15629" lon="17.44037">
        <ele>71.626937</ele>
        <time>2020-08-29T15:38:54.733Z</time>
      </trkpt>
      <trkpt lat="62.15591" lon="17.43889">
        <ele>72.82892</ele>
        <time>2020-08-29T15:39:22.372Z</time>
      </trkpt>
      <trkpt lat="62.15584" lon="17.43733">
        <ele>74.266814</ele>
        <time>2020-08-29T15:39:49.032Z</time>
      </trkpt>
      <trkpt lat="62.15577" lon="17.43673">
        <ele>74.822291</ele>
        <time>2020-08-29T15:39:59.411Z</time>
      </trkpt>
      <trkpt lat="62.15537" lon="17.43433">
        <ele>76.902626</ele>
        <time>2020-08-29T15:40:42.625Z</time>
      </trkpt>
      <trkpt lat="62.1552" lon="17.43358">
        <ele>77.50951</ele>
        <time>2020-08-29T15:40:56.209Z</time>
      </trkpt>
      <trkpt lat="62.15491" lon="17.43303">
        <ele>78.104056</ele>
        <time>2020-08-29T15:41:09.179Z</time>
      </trkpt>
      <trkpt lat="62.15481" lon="17.43287">
        <ele>78.303043</ele>
        <time>2020-08-29T15:41:13.614Z</time>
      </trkpt>
      <trkpt lat="62.15417" lon="17.43188">
        <ele>78.889023</ele>
        <time>2020-08-29T15:41:39.284Z</time>
      </trkpt>
      <trkpt lat="62.15374" lon="17.43139">
        <ele>79.050589</ele>
        <time>2020-08-29T15:41:54.212Z</time>
      </trkpt>
      <trkpt lat="62.15284" lon="17.43061">
        <ele>79.223254</ele>
        <time>2020-08-29T15:42:22.948Z</time>
      </trkpt>
      <trkpt lat="62.1527" lon="17.4304">
        <ele>79.139232</ele>
        <time>2020-08-29T15:42:27.895Z</time>
      </trkpt>
      <trkpt lat="62.15069" lon="17.4267">
        <ele>77.725263</ele>
        <time>2020-08-29T15:43:42.270Z</time>
      </trkpt>
      <trkpt lat="62.15051" lon="17.42646">
        <ele>77.597955</ele>
        <time>2020-08-29T15:43:48.300Z</time>
      </trkpt>
      <trkpt lat="62.1495" lon="17.42584">
        <ele>77.215632</ele>
        <time>2020-08-29T15:44:17.627Z</time>
      </trkpt>
      <trkpt lat="62.1495" lon="17.42584">
        <ele>77.215632</ele>
        <time>2020-08-29T15:44:17.671Z</time>
      </trkpt>
      <trkpt lat="62.14934" lon="17.42576">
        <ele>77.174383</ele>
        <time>2020-08-29T15:44:22.511Z</time>
      </trkpt>
      <trkpt lat="62.14899" lon="17.42582">
        <ele>77.087702</ele>
        <time>2020-08-29T15:44:32.715Z</time>
      </trkpt>
      <trkpt lat="62.14822" lon="17.42637">
        <ele>77.016929</ele>
        <time>2020-08-29T15:44:56.773Z</time>
      </trkpt>
      <trkpt lat="62.14804" lon="17.42642">
        <ele>77.091659</ele>
        <time>2020-08-29T15:45:02.699Z</time>
      </trkpt>
      <trkpt lat="62.14787" lon="17.42625">
        <ele>77.162964</ele>
        <time>2020-08-29T15:45:08.397Z</time>
      </trkpt>
      <trkpt lat="62.14561" lon="17.42159">
        <ele>78.458003</ele>
        <time>2020-08-29T15:46:46.508Z</time>
      </trkpt>
      <trkpt lat="62.14541" lon="17.42127">
        <ele>78.525513</ele>
        <time>2020-08-29T15:46:54.276Z</time>
      </trkpt>
      <trkpt lat="62.14464" lon="17.42035">
        <ele>78.761347</ele>
        <time>2020-08-29T15:47:21.193Z</time>
      </trkpt>
      <trkpt lat="62.14454" lon="17.42014">
        <ele>78.797737</ele>
        <time>2020-08-29T15:47:25.329Z</time>
      </trkpt>
      <trkpt lat="62.14445" lon="17.41988">
        <ele>78.838503</ele>
        <time>2020-08-29T15:47:29.950Z</time>
      </trkpt>
      <trkpt lat="62.14441" lon="17.41953">
        <ele>78.882721</ele>
        <time>2020-08-29T15:47:34.957Z</time>
      </trkpt>
      <trkpt lat="62.14451" lon="17.41797">
        <ele>79.021138</ele>
        <time>2020-08-29T15:47:57.203Z</time>
      </trkpt>
      <trkpt lat="62.14446" lon="17.41713">
        <ele>79.09065</ele>
        <time>2020-08-29T15:48:09.164Z</time>
      </trkpt>
      <trkpt lat="62.1442" lon="17.41651">
        <ele>79.158578</ele>
        <time>2020-08-29T15:48:20.857Z</time>
      </trkpt>
      <trkpt lat="62.14385" lon="17.4161">
        <ele>79.219007</ele>
        <time>2020-08-29T15:48:33.104Z</time>
      </trkpt>
      <trkpt lat="62.1437" lon="17.41581">
        <ele>79.171818</ele>
        <time>2020-08-29T15:48:39.294Z</time>
      </trkpt>
      <trkpt lat="62.14354" lon="17.41492">
        <ele>79.06808</ele>
        <time>2020-08-29T15:48:52.848Z</time>
      </trkpt>
      <trkpt lat="62.14342" lon="17.41282">
        <ele>78.839024</ele>
        <time>2020-08-29T15:49:21.916Z</time>
      </trkpt>
      <trkpt lat="62.14337" lon="17.4126">
        <ele>78.812268</ele>
        <time>2020-08-29T15:49:24.955Z</time>
      </trkpt>
      <trkpt lat="62.14331" lon="17.41251">
        <ele>78.713397</ele>
        <time>2020-08-29T15:49:26.779Z</time>
      </trkpt>
      <trkpt lat="62.14251" lon="17.41152">
        <ele>77.066312</ele>
        <time>2020-08-29T15:49:50.900Z</time>
      </trkpt>
      <trkpt lat="62.14224" lon="17.4114">
        <ele>76.57414</ele>
        <time>2020-08-29T15:49:57.764Z</time>
      </trkpt>
      <trkpt lat="62.14215" lon="17.41139">
        <ele>76.417064</ele>
        <time>2020-08-29T15:50:00.018Z</time>
      </trkpt>
      <trkpt lat="62.14201" lon="17.41137">
        <ele>76.172486</ele>
        <time>2020-08-29T15:50:03.222Z</time>
      </trkpt>
      <trkpt lat="62.14178" lon="17.41152">
        <ele>75.741101</ele>
        <time>2020-08-29T15:50:09.343Z</time>
      </trkpt>
      <trkpt lat="62.14158" lon="17.41185">
        <ele>75.327925</ele>
        <time>2020-08-29T15:50:15.500Z</time>
      </trkpt>
      <trkpt lat="62.14114" lon="17.41311">
        <ele>74.163049</ele>
        <time>2020-08-29T15:50:33.747Z</time>
      </trkpt>
      <trkpt lat="62.14069" lon="17.4141">
        <ele>73.129683</ele>
        <time>2020-08-29T15:50:50.662Z</time>
      </trkpt>
      <trkpt lat="62.13847" lon="17.41627">
        <ele>72.811115</ele>
        <time>2020-08-29T15:52:04.366Z</time>
      </trkpt>
      <trkpt lat="62.13841" lon="17.4163">
        <ele>72.805181</ele>
        <time>2020-08-29T15:52:06.571Z</time>
      </trkpt>
      <trkpt lat="62.1382" lon="17.4163">
        <ele>72.786385</ele>
        <time>2020-08-29T15:52:12.937Z</time>
      </trkpt>
      <trkpt lat="62.13659" lon="17.41592">
        <ele>72.367801</ele>
        <time>2020-08-29T15:52:59.733Z</time>
      </trkpt>
      <trkpt lat="62.13597" lon="17.41531">
        <ele>71.929366</ele>
        <time>2020-08-29T15:53:18.187Z</time>
      </trkpt>
      <trkpt lat="62.13477" lon="17.41432">
        <ele>71.381141</ele>
        <time>2020-08-29T15:53:54.059Z</time>
      </trkpt>
      <trkpt lat="62.13431" lon="17.4144">
        <ele>71.280279</ele>
        <time>2020-08-29T15:54:07.750Z</time>
      </trkpt>
      <trkpt lat="62.13333" lon="17.41518">
        <ele>71.03897</ele>
        <time>2020-08-29T15:54:39.292Z</time>
      </trkpt>
      <trkpt lat="62.13299" lon="17.4154">
        <ele>70.947519</ele>
        <time>2020-08-29T15:54:50.017Z</time>
      </trkpt>
      <trkpt lat="62.13276" lon="17.41544">
        <ele>70.888393</ele>
        <time>2020-08-29T15:54:56.260Z</time>
      </trkpt>
      <trkpt lat="62.13258" lon="17.41539">
        <ele>70.840664</ele>
        <time>2020-08-29T15:55:01.839Z</time>
      </trkpt>
      <trkpt lat="62.13217" lon="17.41504">
        <ele>70.728612</ele>
        <time>2020-08-29T15:55:14.025Z</time>
      </trkpt>
      <trkpt lat="62.13163" lon="17.4144">
        <ele>70.440568</ele>
        <time>2020-08-29T15:55:31.467Z</time>
      </trkpt>
      <trkpt lat="62.13143" lon="17.41426">
        <ele>70.315624</ele>
        <time>2020-08-29T15:55:37.138Z</time>
      </trkpt>
      <trkpt lat="62.13123" lon="17.41428">
        <ele>70.198922</ele>
        <time>2020-08-29T15:55:42.944Z</time>
      </trkpt>
      <trkpt lat="62.13107" lon="17.4144">
        <ele>70.098584</ele>
        <time>2020-08-29T15:55:47.506Z</time>
      </trkpt>
      <trkpt lat="62.13043" lon="17.41539">
        <ele>69.638147</ele>
        <time>2020-08-29T15:56:09.695Z</time>
      </trkpt>
      <trkpt lat="62.1301" lon="17.41606">
        <ele>69.581193</ele>
        <time>2020-08-29T15:56:22.945Z</time>
      </trkpt>
      <trkpt lat="62.13004" lon="17.41628">
        <ele>69.571047</ele>
        <time>2020-08-29T15:56:26.642Z</time>
      </trkpt>
      <trkpt lat="62.12994" lon="17.4172">
        <ele>69.534407</ele>
        <time>2020-08-29T15:56:39.800Z</time>
      </trkpt>
      <trkpt lat="62.12983" lon="17.41752">
        <ele>69.518586</ele>
        <time>2020-08-29T15:56:45.429Z</time>
      </trkpt>
      <trkpt lat="62.12965" lon="17.41775">
        <ele>69.500879</ele>
        <time>2020-08-29T15:56:51.700Z</time>
      </trkpt>
      <trkpt lat="62.12916" lon="17.41784">
        <ele>69.452754</ele>
        <time>2020-08-29T15:57:06.068Z</time>
      </trkpt>
      <trkpt lat="62.12854" lon="17.41821">
        <ele>69.330978</ele>
        <time>2020-08-29T15:57:25.344Z</time>
      </trkpt>
      <trkpt lat="62.12811" lon="17.41942">
        <ele>69.197395</ele>
        <time>2020-08-29T15:57:46.045Z</time>
      </trkpt>
      <trkpt lat="62.12801" lon="17.41947">
        <ele>69.178817</ele>
        <time>2020-08-29T15:57:48.921Z</time>
      </trkpt>
      <trkpt lat="62.12796" lon="17.41945">
        <ele>69.17003</ele>
        <time>2020-08-29T15:57:50.247Z</time>
      </trkpt>
      <trkpt lat="62.12789" lon="17.41936">
        <ele>69.154405</ele>
        <time>2020-08-29T15:57:52.764Z</time>
      </trkpt>
      <trkpt lat="62.12765" lon="17.41878">
        <ele>68.933914</ele>
        <time>2020-08-29T15:58:03.114Z</time>
      </trkpt>
      <trkpt lat="62.12757" lon="17.41897">
        <ele>68.827252</ele>
        <time>2020-08-29T15:58:05.241Z</time>
      </trkpt>
      <trkpt lat="62.12693" lon="17.42006">
        <ele>68.104771</ele>
        <time>2020-08-29T15:58:19.855Z</time>
      </trkpt>
      <trkpt lat="62.12644" lon="17.42066">
        <ele>67.601227</ele>
        <time>2020-08-29T15:58:29.585Z</time>
      </trkpt>
      <trkpt lat="62.12591" lon="17.42088">
        <ele>66.624356</ele>
        <time>2020-08-29T15:58:38.418Z</time>
      </trkpt>
      <trkpt lat="62.12498" lon="17.42155">
        <ele>64.703948</ele>
        <time>2020-08-29T15:58:54.054Z</time>
      </trkpt>
      <trkpt lat="62.12423" lon="17.4219">
        <ele>62.782197</ele>
        <time>2020-08-29T15:59:05.939Z</time>
      </trkpt>
      <trkpt lat="62.12364" lon="17.42225">
        <ele>60.96185</ele>
        <time>2020-08-29T15:59:14.457Z</time>
      </trkpt>
      <trkpt lat="62.12319" lon="17.42239">
        <ele>59.578591</ele>
        <time>2020-08-29T15:59:20.767Z</time>
      </trkpt>
      <trkpt lat="62.12254" lon="17.42209">
        <ele>57.175717</ele>
        <time>2020-08-29T15:59:29.678Z</time>
      </trkpt>
      <trkpt lat="62.12214" lon="17.42205">
        <ele>55.543731</ele>
        <time>2020-08-29T15:59:34.836Z</time>
      </trkpt>
      <trkpt lat="62.12164" lon="17.4225">
        <ele>53.249219</ele>
        <time>2020-08-29T15:59:41.999Z</time>
      </trkpt>
      <trkpt lat="62.12141" lon="17.4228">
        <ele>52.132198</ele>
        <time>2020-08-29T15:59:45.467Z</time>
      </trkpt>
      <trkpt lat="62.12105" lon="17.42383">
        <ele>49.566191</ele>
        <time>2020-08-29T15:59:53.250Z</time>
      </trkpt>
      <trkpt lat="62.12061" lon="17.42569">
        <ele>45.380571</ele>
        <time>2020-08-29T16:00:05.899Z</time>
      </trkpt>
      <trkpt lat="62.11979" lon="17.42695">
        <ele>41.12276</ele>
        <time>2020-08-29T16:00:19.163Z</time>
      </trkpt>
      <trkpt lat="62.11898" lon="17.4284">
        <ele>36.766006</ele>
        <time>2020-08-29T16:00:32.960Z</time>
      </trkpt>
      <trkpt lat="62.11878" lon="17.42882">
        <ele>35.67218</ele>
        <time>2020-08-29T16:00:36.746Z</time>
      </trkpt>
      <trkpt lat="62.11864" lon="17.42911">
        <ele>35.069113</ele>
        <time>2020-08-29T16:00:39.241Z</time>
      </trkpt>
      <trkpt lat="62.11707" lon="17.43065">
        <ele>29.874293</ele>
        <time>2020-08-29T16:01:03.100Z</time>
      </trkpt>
      <trkpt lat="62.1165" lon="17.43226">
        <ele>28.226743</ele>
        <time>2020-08-29T16:01:17.621Z</time>
      </trkpt>
      <trkpt lat="62.11588" lon="17.43309">
        <ele>26.998899</ele>
        <time>2020-08-29T16:01:29.180Z</time>
      </trkpt>
      <trkpt lat="62.115" lon="17.4355">
        <ele>25.195971</ele>
        <time>2020-08-29T16:01:51.906Z</time>
      </trkpt>
      <trkpt lat="62.11468" lon="17.43606">
        <ele>24.666753</ele>
        <time>2020-08-29T16:01:58.425Z</time>
      </trkpt>
      <trkpt lat="62.11462" lon="17.43613">
        <ele>24.577729</ele>
        <time>2020-08-29T16:01:59.445Z</time>
      </trkpt>
      <trkpt lat="62.11446" lon="17.43632">
        <ele>24.334283</ele>
        <time>2020-08-29T16:02:02.249Z</time>
      </trkpt>
      <trkpt lat="62.11356" lon="17.43689">
        <ele>23.06998</ele>
        <time>2020-08-29T16:02:16.895Z</time>
      </trkpt>
      <trkpt lat="62.11243" lon="17.43719">
        <ele>21.807181</ele>
        <time>2020-08-29T16:02:34.741Z</time>
      </trkpt>
      <trkpt lat="62.11147" lon="17.43869">
        <ele>20.709553</ele>
        <time>2020-08-29T16:02:54.395Z</time>
      </trkpt>
      <trkpt lat="62.11126" lon="17.43883">
        <ele>20.634651</ele>
        <time>2020-08-29T16:02:58.178Z</time>
      </trkpt>
      <trkpt lat="62.11077" lon="17.43895">
        <ele>20.465238</ele>
        <time>2020-08-29T16:03:06.911Z</time>
      </trkpt>
      <trkpt lat="62.11039" lon="17.4393">
        <ele>20.325481</ele>
        <time>2020-08-29T16:03:14.270Z</time>
      </trkpt>
      <trkpt lat="62.10926" lon="17.44122">
        <ele>20.063344</ele>
        <time>2020-08-29T16:03:40.692Z</time>
      </trkpt>
      <trkpt lat="62.10899" lon="17.44243">
        <ele>20.022417</ele>
        <time>2020-08-29T16:03:52.314Z</time>
      </trkpt>
      <trkpt lat="62.10886" lon="17.44284">
        <ele>20.007272</ele>
        <time>2020-08-29T16:03:56.620Z</time>
      </trkpt>
      <trkpt lat="62.10869" lon="17.44318">
        <ele>20.003077</ele>
        <time>2020-08-29T16:04:00.981Z</time>
      </trkpt>
      <trkpt lat="62.10826" lon="17.44404">
        <ele>20.017576</ele>
        <time>2020-08-29T16:04:11.877Z</time>
      </trkpt>
      <trkpt lat="62.10816" lon="17.44425">
        <ele>20.02099</ele>
        <time>2020-08-29T16:04:14.438Z</time>
      </trkpt>
      <trkpt lat="62.10789" lon="17.4456">
        <ele>20.037933</ele>
        <time>2020-08-29T16:04:27.224Z</time>
      </trkpt>
      <trkpt lat="62.1075" lon="17.44697">
        <ele>20.081826</ele>
        <time>2020-08-29T16:04:41.284Z</time>
      </trkpt>
      <trkpt lat="62.10745" lon="17.44746">
        <ele>20.099914</ele>
        <time>2020-08-29T16:04:45.731Z</time>
      </trkpt>
      <trkpt lat="62.10736" lon="17.45032">
        <ele>20.184501</ele>
        <time>2020-08-29T16:05:11.147Z</time>
      </trkpt>
      <trkpt lat="62.10725" lon="17.45082">
        <ele>20.186316</ele>
        <time>2020-08-29T16:05:15.994Z</time>
      </trkpt>
      <trkpt lat="62.10712" lon="17.45099">
        <ele>20.187366</ele>
        <time>2020-08-29T16:05:18.793Z</time>
      </trkpt>
      <trkpt lat="62.10707" lon="17.45099">
        <ele>20.187753</ele>
        <time>2020-08-29T16:05:19.933Z</time>
      </trkpt>
      <trkpt lat="62.10697" lon="17.45097">
        <ele>20.188467</ele>
        <time>2020-08-29T16:05:21.737Z</time>
      </trkpt>
      <trkpt lat="62.10657" lon="17.45079">
        <ele>20.191328</ele>
        <time>2020-08-29T16:05:29.245Z</time>
      </trkpt>
      <trkpt lat="62.10617" lon="17.45033">
        <ele>20.194508</ele>
        <time>2020-08-29T16:05:37.562Z</time>
      </trkpt>
      <trkpt lat="62.10584" lon="17.45007">
        <ele>20.18773</ele>
        <time>2020-08-29T16:05:43.979Z</time>
      </trkpt>
      <trkpt lat="62.10556" lon="17.45015">
        <ele>20.178644</ele>
        <time>2020-08-29T16:05:49.235Z</time>
      </trkpt>
      <trkpt lat="62.10529" lon="17.45038">
        <ele>20.169406</ele>
        <time>2020-08-29T16:05:54.577Z</time>
      </trkpt>
      <trkpt lat="62.10524" lon="17.45039">
        <ele>20.167827</ele>
        <time>2020-08-29T16:05:55.480Z</time>
      </trkpt>
      <trkpt lat="62.10519" lon="17.45034">
        <ele>20.166305</ele>
        <time>2020-08-29T16:05:56.361Z</time>
      </trkpt>
      <trkpt lat="62.10479" lon="17.44982">
        <ele>20.151543</ele>
        <time>2020-08-29T16:06:04.945Z</time>
      </trkpt>
      <trkpt lat="62.1044" lon="17.44957">
        <ele>20.138718</ele>
        <time>2020-08-29T16:06:12.581Z</time>
      </trkpt>
      <trkpt lat="62.10389" lon="17.44901">
        <ele>20.466377</ele>
        <time>2020-08-29T16:06:23.616Z</time>
      </trkpt>
      <trkpt lat="62.10378" lon="17.4488">
        <ele>20.546844</ele>
        <time>2020-08-29T16:06:26.375Z</time>
      </trkpt>
      <trkpt lat="62.10363" lon="17.4485">
        <ele>20.667816</ele>
        <time>2020-08-29T16:06:30.534Z</time>
      </trkpt>
      <trkpt lat="62.10331" lon="17.44787">
        <ele>20.914942</ele>
        <time>2020-08-29T16:06:39.180Z</time>
      </trkpt>
      <trkpt lat="62.10264" lon="17.44643">
        <ele>22.064189</ele>
        <time>2020-08-29T16:07:00.923Z</time>
      </trkpt>
      <trkpt lat="62.1023" lon="17.44548">
        <ele>23.061099</ele>
        <time>2020-08-29T16:07:14.302Z</time>
      </trkpt>
      <trkpt lat="62.10226" lon="17.44539">
        <ele>23.154385</ele>
        <time>2020-08-29T16:07:15.806Z</time>
      </trkpt>
      <trkpt lat="62.10217" lon="17.44521">
        <ele>23.382153</ele>
        <time>2020-08-29T16:07:19.150Z</time>
      </trkpt>
      <trkpt lat="62.10192" lon="17.44508">
        <ele>23.832996</ele>
        <time>2020-08-29T16:07:25.480Z</time>
      </trkpt>
      <trkpt lat="62.10157" lon="17.44513">
        <ele>24.480952</ele>
        <time>2020-08-29T16:07:34.436Z</time>
      </trkpt>
      <trkpt lat="62.10108" lon="17.44541">
        <ele>25.67944</ele>
        <time>2020-08-29T16:07:47.981Z</time>
      </trkpt>
      <trkpt lat="62.10084" lon="17.44545">
        <ele>26.242257</ele>
        <time>2020-08-29T16:07:54.436Z</time>
      </trkpt>
      <trkpt lat="62.10047" lon="17.44508">
        <ele>27.214561</ele>
        <time>2020-08-29T16:08:05.272Z</time>
      </trkpt>
      <trkpt lat="62.10014" lon="17.44459">
        <ele>28.15564</ele>
        <time>2020-08-29T16:08:15.651Z</time>
      </trkpt>
      <trkpt lat="62.09955" lon="17.44182">
        <ele>31.389739</ele>
        <time>2020-08-29T16:08:51.969Z</time>
      </trkpt>
      <trkpt lat="62.09914" lon="17.44059">
        <ele>33.000405</ele>
        <time>2020-08-29T16:09:10.605Z</time>
      </trkpt>
      <trkpt lat="62.09895" lon="17.43925">
        <ele>34.536202</ele>
        <time>2020-08-29T16:09:27.757Z</time>
      </trkpt>
      <trkpt lat="62.09888" lon="17.43898">
        <ele>34.868476</ele>
        <time>2020-08-29T16:09:31.471Z</time>
      </trkpt>
      <trkpt lat="62.0988" lon="17.43861">
        <ele>35.309235</ele>
        <time>2020-08-29T16:09:36.396Z</time>
      </trkpt>
      <trkpt lat="62.09871" lon="17.43836">
        <ele>35.669888</ele>
        <time>2020-08-29T16:09:40.357Z</time>
      </trkpt>
      <trkpt lat="62.09744" lon="17.43622">
        <ele>39.617061</ele>
        <time>2020-08-29T16:10:22.240Z</time>
      </trkpt>
      <trkpt lat="62.09662" lon="17.43589">
        <ele>41.755199</ele>
        <time>2020-08-29T16:10:45.276Z</time>
      </trkpt>
      <trkpt lat="62.09615" lon="17.43542">
        <ele>43.238795</ele>
        <time>2020-08-29T16:10:59.632Z</time>
      </trkpt>
      <trkpt lat="62.09603" lon="17.43523">
        <ele>43.677437</ele>
        <time>2020-08-29T16:11:03.842Z</time>
      </trkpt>
      <trkpt lat="62.09591" lon="17.435">
        <ele>44.141513</ele>
        <time>2020-08-29T16:11:08.559Z</time>
      </trkpt>
      <trkpt lat="62.0957" lon="17.43424">
        <ele>45.328094</ele>
        <time>2020-08-29T16:11:20.032Z</time>
      </trkpt>
      <trkpt lat="62.09559" lon="17.43202">
        <ele>47.621838</ele>
        <time>2020-08-29T16:11:48.932Z</time>
      </trkpt>
      <trkpt lat="62.09555" lon="17.43156">
        <ele>48.005477</ele>
        <time>2020-08-29T16:11:54.144Z</time>
      </trkpt>
      <trkpt lat="62.09546" lon="17.43127">
        <ele>48.281675</ele>
        <time>2020-08-29T16:11:57.872Z</time>
      </trkpt>
      <trkpt lat="62.09519" lon="17.43063">
        <ele>48.993428</ele>
        <time>2020-08-29T16:12:07.111Z</time>
      </trkpt>
      <trkpt lat="62.09415" lon="17.42944">
        <ele>49.843218</ele>
        <time>2020-08-29T16:12:31.451Z</time>
      </trkpt>
      <trkpt lat="62.09382" lon="17.42916">
        <ele>49.925553</ele>
        <time>2020-08-29T16:12:38.130Z</time>
      </trkpt>
      <trkpt lat="62.09341" lon="17.42902">
        <ele>50.020029</ele>
        <time>2020-08-29T16:12:45.598Z</time>
      </trkpt>
      <trkpt lat="62.09229" lon="17.42932">
        <ele>49.402282</ele>
        <time>2020-08-29T16:13:05.477Z</time>
      </trkpt>
      <trkpt lat="62.09156" lon="17.42911">
        <ele>48.851847</ele>
        <time>2020-08-29T16:13:17.593Z</time>
      </trkpt>
      <trkpt lat="62.09019" lon="17.42929">
        <ele>46.004688</ele>
        <time>2020-08-29T16:13:38.113Z</time>
      </trkpt>
      <trkpt lat="62.08979" lon="17.42897">
        <ele>45.04727</ele>
        <time>2020-08-29T16:13:44.036Z</time>
      </trkpt>
      <trkpt lat="62.08922" lon="17.42815">
        <ele>43.022715</ele>
        <time>2020-08-29T16:13:53.413Z</time>
      </trkpt>
      <trkpt lat="62.08893" lon="17.42797">
        <ele>42.066918</ele>
        <time>2020-08-29T16:13:57.505Z</time>
      </trkpt>
      <trkpt lat="62.08831" lon="17.42788">
        <ele>40.105907</ele>
        <time>2020-08-29T16:14:05.940Z</time>
      </trkpt>
      <trkpt lat="62.08777" lon="17.428">
        <ele>38.518735</ele>
        <time>2020-08-29T16:14:13.463Z</time>
      </trkpt>
      <trkpt lat="62.08544" lon="17.42946">
        <ele>32.744756</ele>
        <time>2020-08-29T16:14:48.610Z</time>
      </trkpt>
      <trkpt lat="62.08497" lon="17.42964">
        <ele>31.658689</ele>
        <time>2020-08-29T16:14:55.660Z</time>
      </trkpt>
      <trkpt lat="62.0848" lon="17.42959">
        <ele>31.274746</ele>
        <time>2020-08-29T16:14:58.132Z</time>
      </trkpt>
      <trkpt lat="62.08461" lon="17.42941">
        <ele>30.816145</ele>
        <time>2020-08-29T16:15:01.088Z</time>
      </trkpt>
      <trkpt lat="62.08404" lon="17.42856">
        <ele>29.096795</ele>
        <time>2020-08-29T16:15:11.118Z</time>
      </trkpt>
      <trkpt lat="62.08298" lon="17.42756">
        <ele>26.167674</ele>
        <time>2020-08-29T16:15:27.635Z</time>
      </trkpt>
      <trkpt lat="62.08237" lon="17.42638">
        <ele>24.2318</ele>
        <time>2020-08-29T16:15:39.205Z</time>
      </trkpt>
      <trkpt lat="62.08219" lon="17.42622">
        <ele>23.761634</ele>
        <time>2020-08-29T16:15:42.057Z</time>
      </trkpt>
      <trkpt lat="62.08197" lon="17.42619">
        <ele>23.248203</ele>
        <time>2020-08-29T16:15:45.168Z</time>
      </trkpt>
      <trkpt lat="62.08176" lon="17.42632">
        <ele>22.719843</ele>
        <time>2020-08-29T16:15:48.434Z</time>
      </trkpt>
      <trkpt lat="62.0815" lon="17.42671">
        <ele>21.98291</ele>
        <time>2020-08-29T16:15:53.038Z</time>
      </trkpt>
      <trkpt lat="62.08112" lon="17.42759">
        <ele>21.139911</ele>
        <time>2020-08-29T16:16:01.497Z</time>
      </trkpt>
      <trkpt lat="62.0808" lon="17.42848">
        <ele>20.441625</ele>
        <time>2020-08-29T16:16:09.646Z</time>
      </trkpt>
      <trkpt lat="62.08034" lon="17.43042">
        <ele>19.25922</ele>
        <time>2020-08-29T16:16:26.108Z</time>
      </trkpt>
      <trkpt lat="62.07985" lon="17.4332">
        <ele>18.574789</ele>
        <time>2020-08-29T16:16:49.982Z</time>
      </trkpt>
      <trkpt lat="62.07973" lon="17.43357">
        <ele>18.512562</ele>
        <time>2020-08-29T16:16:53.817Z</time>
      </trkpt>
      <trkpt lat="62.07948" lon="17.43385">
        <ele>18.922853</ele>
        <time>2020-08-29T16:16:59.338Z</time>
      </trkpt>
      <trkpt lat="62.07938" lon="17.43386">
        <ele>19.077781</ele>
        <time>2020-08-29T16:17:01.249Z</time>
      </trkpt>
      <trkpt lat="62.07902" lon="17.43387">
        <ele>19.610217</ele>
        <time>2020-08-29T16:17:08.765Z</time>
      </trkpt>
      <trkpt lat="62.07869" lon="17.43388">
        <ele>20.111434</ele>
        <time>2020-08-29T16:17:16.465Z</time>
      </trkpt>
      <trkpt lat="62.07849" lon="17.43388">
        <ele>20.402945</ele>
        <time>2020-08-29T16:17:21.490Z</time>
      </trkpt>
      <trkpt lat="62.078" lon="17.43376">
        <ele>21.142984</ele>
        <time>2020-08-29T16:17:34.698Z</time>
      </trkpt>
      <trkpt lat="62.07767" lon="17.43333">
        <ele>22.7745</ele>
        <time>2020-08-29T16:17:46.225Z</time>
      </trkpt>
      <trkpt lat="62.0774" lon="17.43267">
        <ele>24.538519</ele>
        <time>2020-08-29T16:17:59.441Z</time>
      </trkpt>
      <trkpt lat="62.07722" lon="17.43165">
        <ele>26.737805</ele>
        <time>2020-08-29T16:18:16.676Z</time>
      </trkpt>
      <trkpt lat="62.07708" lon="17.43129">
        <ele>27.697001</ele>
        <time>2020-08-29T16:18:24.357Z</time>
      </trkpt>
      <trkpt lat="62.07644" lon="17.43033">
        <ele>30.696399</ele>
        <time>2020-08-29T16:18:51.768Z</time>
      </trkpt>
      <trkpt lat="62.07581" lon="17.42853">
        <ele>34.489048</ele>
        <time>2020-08-29T16:19:24.165Z</time>
      </trkpt>
      <trkpt lat="62.07562" lon="17.42829">
        <ele>35.30036</ele>
        <time>2020-08-29T16:19:29.782Z</time>
      </trkpt>
      <trkpt lat="62.07481" lon="17.42782">
        <ele>34.302915</ele>
        <time>2020-08-29T16:19:45.947Z</time>
      </trkpt>
      <trkpt lat="62.07437" lon="17.42726">
        <ele>33.598342</ele>
        <time>2020-08-29T16:19:53.543Z</time>
      </trkpt>
      <trkpt lat="62.07407" lon="17.42664">
        <ele>33.028547</ele>
        <time>2020-08-29T16:19:59.146Z</time>
      </trkpt>
      <trkpt lat="62.07391" lon="17.42578">
        <ele>30.992543</ele>
        <time>2020-08-29T16:20:04.684Z</time>
      </trkpt>
      <trkpt lat="62.07373" lon="17.42542">
        <ele>29.679906</ele>
        <time>2020-08-29T16:20:07.830Z</time>
      </trkpt>
      <trkpt lat="62.07314" lon="17.42481">
        <ele>26.224585</ele>
        <time>2020-08-29T16:20:15.993Z</time>
      </trkpt>
      <trkpt lat="62.07293" lon="17.42484">
        <ele>25.126871</ele>
        <time>2020-08-29T16:20:18.573Z</time>
      </trkpt>
      <trkpt lat="62.07252" lon="17.42511">
        <ele>22.910088</ele>
        <time>2020-08-29T16:20:23.902Z</time>
      </trkpt>
      <trkpt lat="62.07225" lon="17.42512">
        <ele>21.607091</ele>
        <time>2020-08-29T16:20:27.261Z</time>
      </trkpt>
      <trkpt lat="62.07119" lon="17.4248">
        <ele>16.403108</ele>
        <time>2020-08-29T16:20:40.907Z</time>
      </trkpt>
      <trkpt lat="62.07053" lon="17.42438">
        <ele>13.852978</ele>
        <time>2020-08-29T16:20:50.177Z</time>
      </trkpt>
      <trkpt lat="62.07042" lon="17.42433">
        <ele>13.571079</ele>
        <time>2020-08-29T16:20:51.583Z</time>
      </trkpt>
      <trkpt lat="62.07031" lon="17.42427">
        <ele>13.273062</ele>
        <time>2020-08-29T16:20:53.187Z</time>
      </trkpt>
      <trkpt lat="62.07013" lon="17.42421">
        <ele>12.801576</ele>
        <time>2020-08-29T16:20:55.762Z</time>
      </trkpt>
      <trkpt lat="62.06986" lon="17.42429">
        <ele>12.089329</ele>
        <time>2020-08-29T16:20:59.679Z</time>
      </trkpt>
      <trkpt lat="62.06969" lon="17.42442">
        <ele>11.610058</ele>
        <time>2020-08-29T16:21:02.266Z</time>
      </trkpt>
      <trkpt lat="62.06938" lon="17.42493">
        <ele>10.577725</ele>
        <time>2020-08-29T16:21:08.151Z</time>
      </trkpt>
      <trkpt lat="62.06924" lon="17.42516">
        <ele>10.12244</ele>
        <time>2020-08-29T16:21:10.934Z</time>
      </trkpt>
      <trkpt lat="62.06906" lon="17.42546">
        <ele>9.815006</ele>
        <time>2020-08-29T16:21:14.353Z</time>
      </trkpt>
      <trkpt lat="62.06866" lon="17.42599">
        <ele>9.252121</ele>
        <time>2020-08-29T16:21:21.996Z</time>
      </trkpt>
      <trkpt lat="62.06838" lon="17.4265">
        <ele>8.812401</ele>
        <time>2020-08-29T16:21:27.892Z</time>
      </trkpt>
      <trkpt lat="62.06806" lon="17.42679">
        <ele>8.393067</ele>
        <time>2020-08-29T16:21:33.430Z</time>
      </trkpt>
      <trkpt lat="62.06769" lon="17.42687">
        <ele>7.942848</ele>
        <time>2020-08-29T16:21:39.370Z</time>
      </trkpt>
      <trkpt lat="62.06679" lon="17.42667">
        <ele>7.311267</ele>
        <time>2020-08-29T16:21:54.143Z</time>
      </trkpt>
      <trkpt lat="62.06666" lon="17.42665">
        <ele>7.226169</ele>
        <time>2020-08-29T16:21:56.170Z</time>
      </trkpt>
      <trkpt lat="62.0666" lon="17.42662">
        <ele>7.179475</ele>
        <time>2020-08-29T16:21:57.286Z</time>
      </trkpt>
      <trkpt lat="62.06642" lon="17.42653">
        <ele>7.057328</ele>
        <time>2020-08-29T16:22:00.435Z</time>
      </trkpt>
      <trkpt lat="62.06608" lon="17.42613">
        <ele>6.793165</ele>
        <time>2020-08-29T16:22:07.137Z</time>
      </trkpt>
      <trkpt lat="62.0657" lon="17.42556">
        <ele>6.857938</ele>
        <time>2020-08-29T16:22:15.521Z</time>
      </trkpt>
      <trkpt lat="62.06565" lon="17.42547">
        <ele>6.899573</ele>
        <time>2020-08-29T16:22:16.876Z</time>
      </trkpt>
      <trkpt lat="62.06542" lon="17.42509">
        <ele>7.06961</ele>
        <time>2020-08-29T16:22:22.744Z</time>
      </trkpt>
      <trkpt lat="62.06511" lon="17.42456">
        <ele>7.30354</ele>
        <time>2020-08-29T16:22:31.429Z</time>
      </trkpt>
      <trkpt lat="62.06481" lon="17.42366">
        <ele>7.606864</ele>
        <time>2020-08-29T16:22:42.581Z</time>
      </trkpt>
      <trkpt lat="62.06472" lon="17.42347">
        <ele>7.683089</ele>
        <time>2020-08-29T16:22:45.325Z</time>
      </trkpt>
      <trkpt lat="62.06461" lon="17.42319">
        <ele>7.74304</ele>
        <time>2020-08-29T16:22:49.045Z</time>
      </trkpt>
      <trkpt lat="62.06453" lon="17.42292">
        <ele>7.751846</ele>
        <time>2020-08-29T16:22:52.112Z</time>
      </trkpt>
      <trkpt lat="62.06442" lon="17.42233">
        <ele>7.769954</ele>
        <time>2020-08-29T16:22:58.310Z</time>
      </trkpt>
      <trkpt lat="62.06427" lon="17.42158">
        <ele>7.793158</ele>
        <time>2020-08-29T16:23:05.772Z</time>
      </trkpt>
      <trkpt lat="62.06414" lon="17.42163">
        <ele>7.801353</ele>
        <time>2020-08-29T16:23:08.857Z</time>
      </trkpt>
      <trkpt lat="62.0636" lon="17.42205">
        <ele>7.836378</ele>
        <time>2020-08-29T16:23:22.193Z</time>
      </trkpt>
      <trkpt lat="62.06306" lon="17.423">
        <ele>7.222259</ele>
        <time>2020-08-29T16:23:36.800Z</time>
      </trkpt>
      <trkpt lat="62.06303" lon="17.42301">
        <ele>7.179458</ele>
        <time>2020-08-29T16:23:37.428Z</time>
      </trkpt>
      <trkpt lat="62.0629" lon="17.423">
        <ele>7.020066</ele>
        <time>2020-08-29T16:23:40.060Z</time>
      </trkpt>
      <trkpt lat="62.06285" lon="17.42299">
        <ele>6.960386</ele>
        <time>2020-08-29T16:23:41.062Z</time>
      </trkpt>
      <trkpt lat="62.06276" lon="17.42287">
        <ele>6.828492</ele>
        <time>2020-08-29T16:23:43.299Z</time>
      </trkpt>
      <trkpt lat="62.06257" lon="17.42252">
        <ele>6.534021</ele>
        <time>2020-08-29T16:23:48.206Z</time>
      </trkpt>
      <trkpt lat="62.0625" lon="17.4222">
        <ele>6.325051</ele>
        <time>2020-08-29T16:23:51.673Z</time>
      </trkpt>
      <trkpt lat="62.06238" lon="17.42159">
        <ele>5.951428</ele>
        <time>2020-08-29T16:23:57.986Z</time>
      </trkpt>
      <trkpt lat="62.0624" lon="17.42233">
        <ele>5.545771</ele>
        <time>2020-08-29T16:24:03.378Z</time>
      </trkpt>
      <trkpt lat="62.0622" lon="17.42307">
        <ele>5.115424</ele>
        <time>2020-08-29T16:24:09.569Z</time>
      </trkpt>
      <trkpt lat="62.06205" lon="17.42329">
        <ele>4.919542</ele>
        <time>2020-08-29T16:24:12.455Z</time>
      </trkpt>
      <trkpt lat="62.06144" lon="17.42469">
        <ele>3.950324</ele>
        <time>2020-08-29T16:24:26.939Z</time>
      </trkpt>
      <trkpt lat="62.06113" lon="17.42559">
        <ele>3.752641</ele>
        <time>2020-08-29T16:24:35.650Z</time>
      </trkpt>
      <trkpt lat="62.06081" lon="17.42606">
        <ele>3.795695</ele>
        <time>2020-08-29T16:24:42.076Z</time>
      </trkpt>
      <trkpt lat="62.06024" lon="17.42673">
        <ele>3.868158</ele>
        <time>2020-08-29T16:24:53.885Z</time>
      </trkpt>
      <trkpt lat="62.05987" lon="17.42701">
        <ele>3.912235</ele>
        <time>2020-08-29T16:25:02.069Z</time>
      </trkpt>
      <trkpt lat="62.05953" lon="17.42711">
        <ele>4.592091</ele>
        <time>2020-08-29T16:25:09.591Z</time>
      </trkpt>
      <trkpt lat="62.05873" lon="17.42728">
        <ele>6.456954</ele>
        <time>2020-08-29T16:25:28.930Z</time>
      </trkpt>
      <trkpt lat="62.0584" lon="17.42734">
        <ele>7.231774</ele>
        <time>2020-08-29T16:25:37.969Z</time>
      </trkpt>
      <trkpt lat="62.05796" lon="17.42748">
        <ele>8.378059</ele>
        <time>2020-08-29T16:25:50.987Z</time>
      </trkpt>
      <trkpt lat="62.05763" lon="17.42776">
        <ele>9.715663</ele>
        <time>2020-08-29T16:26:01.670Z</time>
      </trkpt>
      <trkpt lat="62.0567" lon="17.42875">
        <ele>13.614352</ele>
        <time>2020-08-29T16:26:33.195Z</time>
      </trkpt>
      <trkpt lat="62.05333" lon="17.43253">
        <ele>27.427335</ele>
        <time>2020-08-29T16:28:25.016Z</time>
      </trkpt>
      <trkpt lat="62.05286" lon="17.43301">
        <ele>29.342477</ele>
        <time>2020-08-29T16:28:40.630Z</time>
      </trkpt>
      <trkpt lat="62.05211" lon="17.43353">
        <ele>32.259352</ele>
        <time>2020-08-29T16:29:04.477Z</time>
      </trkpt>
      <trkpt lat="62.05133" lon="17.43374">
        <ele>34.940723</ele>
        <time>2020-08-29T16:29:27.611Z</time>
      </trkpt>
      <trkpt lat="62.0509" lon="17.43375">
        <ele>36.01809</ele>
        <time>2020-08-29T16:29:39.708Z</time>
      </trkpt>
      <trkpt lat="62.05021" lon="17.4336">
        <ele>37.738464</ele>
        <time>2020-08-29T16:29:57.558Z</time>
      </trkpt>
      <trkpt lat="62.04947" lon="17.43316">
        <ele>39.195423</ele>
        <time>2020-08-29T16:30:15.509Z</time>
      </trkpt>
      <trkpt lat="62.04811" lon="17.43208">
        <ele>40.252778</ele>
        <time>2020-08-29T16:30:43.877Z</time>
      </trkpt>
      <trkpt lat="62.04795" lon="17.43196">
        <ele>40.272714</ele>
        <time>2020-08-29T16:30:47.019Z</time>
      </trkpt>
      <trkpt lat="62.04765" lon="17.43172">
        <ele>40.096416</ele>
        <time>2020-08-29T16:30:52.504Z</time>
      </trkpt>
      <trkpt lat="62.04703" lon="17.43125">
        <ele>39.728003</ele>
        <time>2020-08-29T16:31:03.537Z</time>
      </trkpt>
      <trkpt lat="62.04678" lon="17.43107">
        <ele>39.586326</ele>
        <time>2020-08-29T16:31:07.604Z</time>
      </trkpt>
      <trkpt lat="62.04631" lon="17.43069">
        <ele>39.283581</ele>
        <time>2020-08-29T16:31:15.458Z</time>
      </trkpt>
      <trkpt lat="62.04211" lon="17.42738">
        <ele>32.648617</ele>
        <time>2020-08-29T16:32:21.810Z</time>
      </trkpt>
      <trkpt lat="62.04136" lon="17.42678">
        <ele>31.196683</ele>
        <time>2020-08-29T16:32:33.023Z</time>
      </trkpt>
      <trkpt lat="62.04091" lon="17.42642">
        <ele>30.042652</ele>
        <time>2020-08-29T16:32:39.558Z</time>
      </trkpt>
      <trkpt lat="62.03828" lon="17.42435">
        <ele>22.592038</ele>
        <time>2020-08-29T16:33:17.374Z</time>
      </trkpt>
      <trkpt lat="62.03486" lon="17.42193">
        <ele>11.885279</ele>
        <time>2020-08-29T16:34:05.180Z</time>
      </trkpt>
      <trkpt lat="62.03456" lon="17.42169">
        <ele>10.931026</ele>
        <time>2020-08-29T16:34:09.204Z</time>
      </trkpt>
      <trkpt lat="62.03421" lon="17.42119">
        <ele>9.778056</ele>
        <time>2020-08-29T16:34:14.791Z</time>
      </trkpt>
      <trkpt lat="62.03403" lon="17.42086">
        <ele>9.145064</ele>
        <time>2020-08-29T16:34:17.892Z</time>
      </trkpt>
      <trkpt lat="62.03417" lon="17.42056">
        <ele>8.610931</ele>
        <time>2020-08-29T16:34:20.593Z</time>
      </trkpt>
      <trkpt lat="62.0344" lon="17.4199">
        <ele>7.598085</ele>
        <time>2020-08-29T16:34:25.705Z</time>
      </trkpt>
      <trkpt lat="62.03461" lon="17.41849">
        <ele>5.909184</ele>
        <time>2020-08-29T16:34:35.251Z</time>
      </trkpt>
      <trkpt lat="62.03472" lon="17.41787">
        <ele>5.751446</ele>
        <time>2020-08-29T16:34:39.841Z</time>
      </trkpt>
      <trkpt lat="62.03429" lon="17.41726">
        <ele>5.490202</ele>
        <time>2020-08-29T16:34:48.756Z</time>
      </trkpt>
      <trkpt lat="62.03411" lon="17.41699">
        <ele>5.378178</ele>
        <time>2020-08-29T16:34:52.714Z</time>
      </trkpt>
      <trkpt lat="62.03342" lon="17.41596">
        <ele>5.185422</ele>
        <time>2020-08-29T16:35:09.076Z</time>
      </trkpt>
      <trkpt lat="62.03337" lon="17.41588">
        <ele>5.242359</ele>
        <time>2020-08-29T16:35:10.302Z</time>
      </trkpt>
      <trkpt lat="62.03287" lon="17.41514">
        <ele>5.823849</ele>
        <time>2020-08-29T16:35:23.361Z</time>
      </trkpt>
      <trkpt lat="62.03262" lon="17.41474">
        <ele>6.116529</ele>
        <time>2020-08-29T16:35:30.139Z</time>
      </trkpt>
      <trkpt lat="62.03255" lon="17.41462">
        <ele>6.202218</ele>
        <time>2020-08-29T16:35:32.323Z</time>
      </trkpt>
      <trkpt lat="62.03206" lon="17.41354">
        <ele>6.874193</ele>
        <time>2020-08-29T16:35:48.387Z</time>
      </trkpt>
      <trkpt lat="62.03187" lon="17.41297">
        <ele>7.195757</ele>
        <time>2020-08-29T16:35:55.852Z</time>
      </trkpt>
      <trkpt lat="62.03143" lon="17.41156">
        <ele>7.975686</ele>
        <time>2020-08-29T16:36:13.406Z</time>
      </trkpt>
      <trkpt lat="62.03103" lon="17.41023">
        <ele>8.563904</ele>
        <time>2020-08-29T16:36:28.807Z</time>
      </trkpt>
      <trkpt lat="62.03037" lon="17.40806">
        <ele>8.914402</ele>
        <time>2020-08-29T16:36:52.321Z</time>
      </trkpt>
      <trkpt lat="62.02987" lon="17.40674">
        <ele>9.029429</ele>
        <time>2020-08-29T16:37:07.121Z</time>
      </trkpt>
      <trkpt lat="62.02961" lon="17.40621">
        <ele>9.031967</ele>
        <time>2020-08-29T16:37:13.819Z</time>
      </trkpt>
      <trkpt lat="62.02925" lon="17.40568">
        <ele>9.035033</ele>
        <time>2020-08-29T16:37:21.942Z</time>
      </trkpt>
      <trkpt lat="62.02789" lon="17.40401">
        <ele>9.143397</ele>
        <time>2020-08-29T16:37:51.380Z</time>
      </trkpt>
      <trkpt lat="62.02725" lon="17.40344">
        <ele>9.217047</ele>
        <time>2020-08-29T16:38:04.576Z</time>
      </trkpt>
      <trkpt lat="62.02701" lon="17.40335">
        <ele>9.248308</ele>
        <time>2020-08-29T16:38:09.183Z</time>
      </trkpt>
      <trkpt lat="62.02651" lon="17.40338">
        <ele>9.325015</ele>
        <time>2020-08-29T16:38:18.719Z</time>
      </trkpt>
      <trkpt lat="62.02598" lon="17.40375">
        <ele>9.4105</ele>
        <time>2020-08-29T16:38:29.384Z</time>
      </trkpt>
      <trkpt lat="62.02339" lon="17.40665">
        <ele>9.869159</ele>
        <time>2020-08-29T16:39:25.354Z</time>
      </trkpt>
      <trkpt lat="62.02314" lon="17.40683">
        <ele>9.894768</ele>
        <time>2020-08-29T16:39:30.388Z</time>
      </trkpt>
      <trkpt lat="62.02276" lon="17.40706">
        <ele>9.932026</ele>
        <time>2020-08-29T16:39:37.701Z</time>
      </trkpt>
      <trkpt lat="62.02228" lon="17.40726">
        <ele>9.978792</ele>
        <time>2020-08-29T16:39:46.841Z</time>
      </trkpt>
      <trkpt lat="62.02165" lon="17.40734">
        <ele>10.00052</ele>
        <time>2020-08-29T16:39:58.499Z</time>
      </trkpt>
      <trkpt lat="62.02098" lon="17.40729">
        <ele>10.011206</ele>
        <time>2020-08-29T16:40:10.747Z</time>
      </trkpt>
      <trkpt lat="62.02045" lon="17.40723">
        <ele>10.019675</ele>
        <time>2020-08-29T16:40:20.436Z</time>
      </trkpt>
      <trkpt lat="62.02002" lon="17.40714">
        <ele>10.513265</ele>
        <time>2020-08-29T16:40:28.673Z</time>
      </trkpt>
      <trkpt lat="62.01921" lon="17.40669">
        <ele>11.818117</ele>
        <time>2020-08-29T16:40:48.474Z</time>
      </trkpt>
      <trkpt lat="62.0189" lon="17.40647">
        <ele>12.319268</ele>
        <time>2020-08-29T16:40:56.584Z</time>
      </trkpt>
      <trkpt lat="62.01858" lon="17.4061">
        <ele>12.952327</ele>
        <time>2020-08-29T16:41:06.211Z</time>
      </trkpt>
      <trkpt lat="62.01824" lon="17.40568">
        <ele>14.105447</ele>
        <time>2020-08-29T16:41:17.114Z</time>
      </trkpt>
      <trkpt lat="62.01732" lon="17.4041">
        <ele>17.564155</ele>
        <time>2020-08-29T16:41:51.414Z</time>
      </trkpt>
      <trkpt lat="62.01682" lon="17.40316">
        <ele>19.308156</ele>
        <time>2020-08-29T16:42:09.275Z</time>
      </trkpt>
      <trkpt lat="62.0164" lon="17.40241">
        <ele>20.679579</ele>
        <time>2020-08-29T16:42:23.493Z</time>
      </trkpt>
      <trkpt lat="62.01573" lon="17.40159">
        <ele>22.621739</ele>
        <time>2020-08-29T16:42:43.848Z</time>
      </trkpt>
      <trkpt lat="62.01539" lon="17.40137">
        <ele>23.58392</ele>
        <time>2020-08-29T16:42:53.465Z</time>
      </trkpt>
      <trkpt lat="62.01482" lon="17.40124">
        <ele>25.085657</ele>
        <time>2020-08-29T16:43:08.669Z</time>
      </trkpt>
      <trkpt lat="62.01312" lon="17.40123">
        <ele>29.257873</ele>
        <time>2020-08-29T16:43:55.506Z</time>
      </trkpt>
      <trkpt lat="62.01292" lon="17.40123">
        <ele>29.71132</ele>
        <time>2020-08-29T16:44:00.786Z</time>
      </trkpt>
      <trkpt lat="62.01237" lon="17.40116">
        <ele>30.941966</ele>
        <time>2020-08-29T16:44:14.225Z</time>
      </trkpt>
      <trkpt lat="62.01202" lon="17.40097">
        <ele>31.532246</ele>
        <time>2020-08-29T16:44:22.685Z</time>
      </trkpt>
      <trkpt lat="62.01172" lon="17.40068">
        <ele>31.827067</ele>
        <time>2020-08-29T16:44:30.096Z</time>
      </trkpt>
      <trkpt lat="62.01145" lon="17.40028">
        <ele>32.119879</ele>
        <time>2020-08-29T16:44:37.247Z</time>
      </trkpt>
      <trkpt lat="62.00905" lon="17.39536">
        <ele>33.32285</ele>
        <time>2020-08-29T16:45:44.811Z</time>
      </trkpt>
      <trkpt lat="62.00861" lon="17.39468">
        <ele>32.765089</ele>
        <time>2020-08-29T16:45:54.092Z</time>
      </trkpt>
      <trkpt lat="62.008" lon="17.39399">
        <ele>32.066949</ele>
        <time>2020-08-29T16:46:04.343Z</time>
      </trkpt>
      <trkpt lat="62.00624" lon="17.39191">
        <ele>24.686797</ele>
        <time>2020-08-29T16:46:30.850Z</time>
      </trkpt>
      <trkpt lat="62.00582" lon="17.3916">
        <ele>23.367799</ele>
        <time>2020-08-29T16:46:36.772Z</time>
      </trkpt>
      <trkpt lat="62.00535" lon="17.39136">
        <ele>21.929915</ele>
        <time>2020-08-29T16:46:43.352Z</time>
      </trkpt>
      <trkpt lat="61.99945" lon="17.3894">
        <ele>9.884891</ele>
        <time>2020-08-29T16:48:12.239Z</time>
      </trkpt>
      <trkpt lat="61.99907" lon="17.38927">
        <ele>9.473224</ele>
        <time>2020-08-29T16:48:18.318Z</time>
      </trkpt>
      <trkpt lat="61.99901" lon="17.38925">
        <ele>9.428992</ele>
        <time>2020-08-29T16:48:19.097Z</time>
      </trkpt>
      <trkpt lat="61.99848" lon="17.38903">
        <ele>8.980441</ele>
        <time>2020-08-29T16:48:27.966Z</time>
      </trkpt>
      <trkpt lat="61.99774" lon="17.38847">
        <ele>8.337488</ele>
        <time>2020-08-29T16:48:41.263Z</time>
      </trkpt>
      <trkpt lat="61.99677" lon="17.38729">
        <ele>8.361798</ele>
        <time>2020-08-29T16:49:02.388Z</time>
      </trkpt>
      <trkpt lat="61.99611" lon="17.38629">
        <ele>8.467467</ele>
        <time>2020-08-29T16:49:18.215Z</time>
      </trkpt>
      <trkpt lat="61.99581" lon="17.38579">
        <ele>8.520585</ele>
        <time>2020-08-29T16:49:25.698Z</time>
      </trkpt>
      <trkpt lat="61.99469" lon="17.38424">
        <ele>8.706325</ele>
        <time>2020-08-29T16:49:51.321Z</time>
      </trkpt>
      <trkpt lat="61.99194" lon="17.3802">
        <ele>7.946726</ele>
        <time>2020-08-29T16:50:51.307Z</time>
      </trkpt>
      <trkpt lat="61.99142" lon="17.37944">
        <ele>7.652428</ele>
        <time>2020-08-29T16:51:01.972Z</time>
      </trkpt>
      <trkpt lat="61.99108" lon="17.37896">
        <ele>7.395848</ele>
        <time>2020-08-29T16:51:08.750Z</time>
      </trkpt>
      <trkpt lat="61.98986" lon="17.37725">
        <ele>6.752127</ele>
        <time>2020-08-29T16:51:33.243Z</time>
      </trkpt>
      <trkpt lat="61.98952" lon="17.37706">
        <ele>6.795436</ele>
        <time>2020-08-29T16:51:39.779Z</time>
      </trkpt>
      <trkpt lat="61.98904" lon="17.37714">
        <ele>6.854249</ele>
        <time>2020-08-29T16:51:49.087Z</time>
      </trkpt>
      <trkpt lat="61.98871" lon="17.37726">
        <ele>6.895418</ele>
        <time>2020-08-29T16:51:55.944Z</time>
      </trkpt>
      <trkpt lat="61.98779" lon="17.37768">
        <ele>7.480824</ele>
        <time>2020-08-29T16:52:15.809Z</time>
      </trkpt>
      <trkpt lat="61.98762" lon="17.37776">
        <ele>7.618087</ele>
        <time>2020-08-29T16:52:19.506Z</time>
      </trkpt>
      <trkpt lat="61.9873" lon="17.37791">
        <ele>7.886621</ele>
        <time>2020-08-29T16:52:26.680Z</time>
      </trkpt>
      <trkpt lat="61.98677" lon="17.37839">
        <ele>8.362077</ele>
        <time>2020-08-29T16:52:39.142Z</time>
      </trkpt>
      <trkpt lat="61.9863" lon="17.37899">
        <ele>8.437692</ele>
        <time>2020-08-29T16:52:50.237Z</time>
      </trkpt>
      <trkpt lat="61.98487" lon="17.38094">
        <ele>8.319253</ele>
        <time>2020-08-29T16:53:21.062Z</time>
      </trkpt>
      <trkpt lat="61.98423" lon="17.38187">
        <ele>7.876876</ele>
        <time>2020-08-29T16:53:34.212Z</time>
      </trkpt>
      <trkpt lat="61.98292" lon="17.38396">
        <ele>6.741546</ele>
        <time>2020-08-29T16:54:01.096Z</time>
      </trkpt>
      <trkpt lat="61.9825" lon="17.38438">
        <ele>6.381663</ele>
        <time>2020-08-29T16:54:08.848Z</time>
      </trkpt>
      <trkpt lat="61.9818" lon="17.38492">
        <ele>6.211</ele>
        <time>2020-08-29T16:54:21.733Z</time>
      </trkpt>
      <trkpt lat="61.98126" lon="17.38496">
        <ele>6.296577</ele>
        <time>2020-08-29T16:54:31.567Z</time>
      </trkpt>
      <trkpt lat="61.98101" lon="17.38486">
        <ele>6.339006</ele>
        <time>2020-08-29T16:54:36.716Z</time>
      </trkpt>
      <trkpt lat="61.97951" lon="17.38375">
        <ele>7.4065</ele>
        <time>2020-08-29T16:55:10.673Z</time>
      </trkpt>
      <trkpt lat="61.97831" lon="17.38302">
        <ele>8.423815</ele>
        <time>2020-08-29T16:55:38.001Z</time>
      </trkpt>
      <trkpt lat="61.97789" lon="17.383">
        <ele>8.661692</ele>
        <time>2020-08-29T16:55:46.768Z</time>
      </trkpt>
      <trkpt lat="61.97733" lon="17.38316">
        <ele>8.984119</ele>
        <time>2020-08-29T16:55:58.134Z</time>
      </trkpt>
      <trkpt lat="61.97657" lon="17.38339">
        <ele>9.045423</ele>
        <time>2020-08-29T16:56:12.610Z</time>
      </trkpt>
      <trkpt lat="61.97499" lon="17.38378">
        <ele>8.43912</ele>
        <time>2020-08-29T16:56:40.086Z</time>
      </trkpt>
      <trkpt lat="61.97486" lon="17.3838">
        <ele>8.359987</ele>
        <time>2020-08-29T16:56:42.088Z</time>
      </trkpt>
      <trkpt lat="61.97374" lon="17.38403">
        <ele>7.635735</ele>
        <time>2020-08-29T16:57:01.030Z</time>
      </trkpt>
      <trkpt lat="61.97349" lon="17.38403">
        <ele>7.479468</ele>
        <time>2020-08-29T16:57:05.142Z</time>
      </trkpt>
      <trkpt lat="61.97331" lon="17.38403">
        <ele>7.404243</ele>
        <time>2020-08-29T16:57:08.161Z</time>
      </trkpt>
      <trkpt lat="61.97288" lon="17.38398">
        <ele>7.31743</ele>
        <time>2020-08-29T16:57:15.522Z</time>
      </trkpt>
      <trkpt lat="61.96979" lon="17.38221">
        <ele>7.376338</ele>
        <time>2020-08-29T16:58:14.665Z</time>
      </trkpt>
      <trkpt lat="61.96945" lon="17.38193">
        <ele>7.780171</ele>
        <time>2020-08-29T16:58:23.414Z</time>
      </trkpt>
      <trkpt lat="61.96903" lon="17.38146">
        <ele>8.291008</ele>
        <time>2020-08-29T16:58:34.295Z</time>
      </trkpt>
      <trkpt lat="61.96857" lon="17.38089">
        <ele>8.869249</ele>
        <time>2020-08-29T16:58:46.519Z</time>
      </trkpt>
      <trkpt lat="61.9685" lon="17.38081">
        <ele>8.957544</ele>
        <time>2020-08-29T16:58:48.387Z</time>
      </trkpt>
      <trkpt lat="61.96767" lon="17.37978">
        <ele>9.190673</ele>
        <time>2020-08-29T16:59:08.879Z</time>
      </trkpt>
      <trkpt lat="61.96728" lon="17.37916">
        <ele>9.184676</ele>
        <time>2020-08-29T16:59:17.712Z</time>
      </trkpt>
      <trkpt lat="61.96705" lon="17.37865">
        <ele>9.18059</ele>
        <time>2020-08-29T16:59:23.038Z</time>
      </trkpt>
      <trkpt lat="61.96687" lon="17.37817">
        <ele>9.156814</ele>
        <time>2020-08-29T16:59:27.630Z</time>
      </trkpt>
      <trkpt lat="61.96655" lon="17.37691">
        <ele>8.862769</ele>
        <time>2020-08-29T16:59:38.732Z</time>
      </trkpt>
      <trkpt lat="61.966" lon="17.37426">
        <ele>8.431155</ele>
        <time>2020-08-29T17:00:03.405Z</time>
      </trkpt>
      <trkpt lat="61.96581" lon="17.37375">
        <ele>8.469851</ele>
        <time>2020-08-29T17:00:09.194Z</time>
      </trkpt>
      <trkpt lat="61.96562" lon="17.37341">
        <ele>8.503015</ele>
        <time>2020-08-29T17:00:14.157Z</time>
      </trkpt>
      <trkpt lat="61.96369" lon="17.37095">
        <ele>8.720867</ele>
        <time>2020-08-29T17:00:57.062Z</time>
      </trkpt>
      <trkpt lat="61.96331" lon="17.37033">
        <ele>8.755228</ele>
        <time>2020-08-29T17:01:05.853Z</time>
      </trkpt>
      <trkpt lat="61.96294" lon="17.36922">
        <ele>8.690937</ele>
        <time>2020-08-29T17:01:17.450Z</time>
      </trkpt>
      <trkpt lat="61.96242" lon="17.36598">
        <ele>8.57808</ele>
        <time>2020-08-29T17:01:46.759Z</time>
      </trkpt>
      <trkpt lat="61.96221" lon="17.3648">
        <ele>8.603354</ele>
        <time>2020-08-29T17:01:57.748Z</time>
      </trkpt>
      <trkpt lat="61.96178" lon="17.36229">
        <ele>8.78536</ele>
        <time>2020-08-29T17:02:21.809Z</time>
      </trkpt>
      <trkpt lat="61.96063" lon="17.35725">
        <ele>9.730465</ele>
        <time>2020-08-29T17:03:14.126Z</time>
      </trkpt>
      <trkpt lat="61.95976" lon="17.3535">
        <ele>10.22937</ele>
        <time>2020-08-29T17:03:53.385Z</time>
      </trkpt>
      <trkpt lat="61.95948" lon="17.35243">
        <ele>10.00412</ele>
        <time>2020-08-29T17:04:03.598Z</time>
      </trkpt>
      <trkpt lat="61.95859" lon="17.34931">
        <ele>7.787372</ele>
        <time>2020-08-29T17:04:30.466Z</time>
      </trkpt>
      <trkpt lat="61.95839" lon="17.34843">
        <ele>6.688659</ele>
        <time>2020-08-29T17:04:37.111Z</time>
      </trkpt>
      <trkpt lat="61.95804" lon="17.3464">
        <ele>4.253593</ele>
        <time>2020-08-29T17:04:51.349Z</time>
      </trkpt>
      <trkpt lat="61.95783" lon="17.34532">
        <ele>3.226202</ele>
        <time>2020-08-29T17:04:59.188Z</time>
      </trkpt>
      <trkpt lat="61.95775" lon="17.34474">
        <ele>2.750203</ele>
        <time>2020-08-29T17:05:03.367Z</time>
      </trkpt>
      <trkpt lat="61.95768" lon="17.34425">
        <ele>2.350011</ele>
        <time>2020-08-29T17:05:06.983Z</time>
      </trkpt>
      <trkpt lat="61.95765" lon="17.34366">
        <ele>1.888924</ele>
        <time>2020-08-29T17:05:11.284Z</time>
      </trkpt>
      <trkpt lat="61.95765" lon="17.34345">
        <ele>1.722847</ele>
        <time>2020-08-29T17:05:12.803Z</time>
      </trkpt>
      <trkpt lat="61.95765" lon="17.34315">
        <ele>1.485971</ele>
        <time>2020-08-29T17:05:15.018Z</time>
      </trkpt>
      <trkpt lat="61.95765" lon="17.34287">
        <ele>1.266324</ele>
        <time>2020-08-29T17:05:17.289Z</time>
      </trkpt>
      <trkpt lat="61.9576" lon="17.34244">
        <ele>0.917193</ele>
        <time>2020-08-29T17:05:20.659Z</time>
      </trkpt>
      <trkpt lat="61.95752" lon="17.34209">
        <ele>0.990881</ele>
        <time>2020-08-29T17:05:23.930Z</time>
      </trkpt>
      <trkpt lat="61.9574" lon="17.34152">
        <ele>1.184526</ele>
        <time>2020-08-29T17:05:29.415Z</time>
      </trkpt>
      <trkpt lat="61.95737" lon="17.34131">
        <ele>1.250158</ele>
        <time>2020-08-29T17:05:31.395Z</time>
      </trkpt>
      <trkpt lat="61.95736" lon="17.34117">
        <ele>1.293892</ele>
        <time>2020-08-29T17:05:32.704Z</time>
      </trkpt>
      <trkpt lat="61.95739" lon="17.34105">
        <ele>1.334268</ele>
        <time>2020-08-29T17:05:33.951Z</time>
      </trkpt>
      <trkpt lat="61.95742" lon="17.34097">
        <ele>1.364047</ele>
        <time>2020-08-29T17:05:34.860Z</time>
      </trkpt>
      <trkpt lat="61.95743" lon="17.34091">
        <ele>1.385279</ele>
        <time>2020-08-29T17:05:35.736Z</time>
      </trkpt>
      <trkpt lat="61.95799" lon="17.33978">
        <ele>1.886959</ele>
        <time>2020-08-29T17:05:51.826Z</time>
      </trkpt>
      <trkpt lat="61.9581" lon="17.33942">
        <ele>2.021217</ele>
        <time>2020-08-29T17:05:56.143Z</time>
      </trkpt>
      <trkpt lat="61.95816" lon="17.33898">
        <ele>2.366193</ele>
        <time>2020-08-29T17:06:01.032Z</time>
      </trkpt>
      <trkpt lat="61.95818" lon="17.33849">
        <ele>2.836513</ele>
        <time>2020-08-29T17:06:06.585Z</time>
      </trkpt>
      <trkpt lat="61.95818" lon="17.33837">
        <ele>2.94434</ele>
        <time>2020-08-29T17:06:07.941Z</time>
      </trkpt>
      <trkpt lat="61.95817" lon="17.33803">
        <ele>3.274203</ele>
        <time>2020-08-29T17:06:11.821Z</time>
      </trkpt>
      <trkpt lat="61.95809" lon="17.33732">
        <ele>3.966502</ele>
        <time>2020-08-29T17:06:20.252Z</time>
      </trkpt>
      <trkpt lat="61.958" lon="17.3366">
        <ele>4.668285</ele>
        <time>2020-08-29T17:06:28.964Z</time>
      </trkpt>
      <trkpt lat="61.95793" lon="17.33602">
        <ele>5.242014</ele>
        <time>2020-08-29T17:06:36.282Z</time>
      </trkpt>
      <trkpt lat="61.95788" lon="17.33542">
        <ele>5.803238</ele>
        <time>2020-08-29T17:06:43.629Z</time>
      </trkpt>
      <trkpt lat="61.95784" lon="17.33452">
        <ele>6.598845</ele>
        <time>2020-08-29T17:06:54.192Z</time>
      </trkpt>
      <trkpt lat="61.95787" lon="17.33313">
        <ele>7.830718</ele>
        <time>2020-08-29T17:07:10.319Z</time>
      </trkpt>
      <trkpt lat="61.95792" lon="17.33274">
        <ele>8.185439</ele>
        <time>2020-08-29T17:07:14.870Z</time>
      </trkpt>
      <trkpt lat="61.95812" lon="17.33153">
        <ele>9.115303</ele>
        <time>2020-08-29T17:07:28.153Z</time>
      </trkpt>
      <trkpt lat="61.95827" lon="17.33097">
        <ele>9.2378</ele>
        <time>2020-08-29T17:07:34.258Z</time>
      </trkpt>
      <trkpt lat="61.9585" lon="17.33026">
        <ele>9.402992</ele>
        <time>2020-08-29T17:07:42.137Z</time>
      </trkpt>
      <trkpt lat="61.95872" lon="17.32973">
        <ele>9.536148</ele>
        <time>2020-08-29T17:07:48.057Z</time>
      </trkpt>
      <trkpt lat="61.95893" lon="17.32929">
        <ele>9.655355</ele>
        <time>2020-08-29T17:07:53.233Z</time>
      </trkpt>
      <trkpt lat="61.95935" lon="17.32832">
        <ele>9.969494</ele>
        <time>2020-08-29T17:08:04.206Z</time>
      </trkpt>
      <trkpt lat="61.95971" lon="17.32754">
        <ele>10.292812</ele>
        <time>2020-08-29T17:08:13.935Z</time>
      </trkpt>
      <trkpt lat="61.95997" lon="17.32684">
        <ele>10.556067</ele>
        <time>2020-08-29T17:08:22.137Z</time>
      </trkpt>
      <trkpt lat="61.96019" lon="17.32619">
        <ele>10.790405</ele>
        <time>2020-08-29T17:08:29.956Z</time>
      </trkpt>
      <trkpt lat="61.96042" lon="17.3252">
        <ele>11.727212</ele>
        <time>2020-08-29T17:08:41.523Z</time>
      </trkpt>
      <trkpt lat="61.96073" lon="17.32369">
        <ele>13.697835</ele>
        <time>2020-08-29T17:09:01.047Z</time>
      </trkpt>
      <trkpt lat="61.96085" lon="17.3232">
        <ele>14.358492</ele>
        <time>2020-08-29T17:09:08.439Z</time>
      </trkpt>
      <trkpt lat="61.96097" lon="17.32278">
        <ele>14.945342</ele>
        <time>2020-08-29T17:09:15.111Z</time>
      </trkpt>
      <trkpt lat="61.96124" lon="17.32198">
        <ele>16.486482</ele>
        <time>2020-08-29T17:09:28.670Z</time>
      </trkpt>
      <trkpt lat="61.96125" lon="17.32196">
        <ele>16.541357</ele>
        <time>2020-08-29T17:09:29.182Z</time>
      </trkpt>
      <trkpt lat="61.96153" lon="17.3213">
        <ele>18.19784</ele>
        <time>2020-08-29T17:09:41.889Z</time>
      </trkpt>
      <trkpt lat="61.9618" lon="17.32042">
        <ele>20.198636</ele>
        <time>2020-08-29T17:09:57.657Z</time>
      </trkpt>
      <trkpt lat="61.9619" lon="17.31987">
        <ele>21.299718</ele>
        <time>2020-08-29T17:10:06.373Z</time>
      </trkpt>
      <trkpt lat="61.96211" lon="17.31766">
        <ele>24.723733</ele>
        <time>2020-08-29T17:10:38.921Z</time>
      </trkpt>
      <trkpt lat="61.96221" lon="17.31731">
        <ele>25.266377</ele>
        <time>2020-08-29T17:10:44.071Z</time>
      </trkpt>
      <trkpt lat="61.96236" lon="17.31696">
        <ele>25.908454</ele>
        <time>2020-08-29T17:10:50.017Z</time>
      </trkpt>
      <trkpt lat="61.96256" lon="17.31675">
        <ele>26.52554</ele>
        <time>2020-08-29T17:10:55.465Z</time>
      </trkpt>
      <trkpt lat="61.96329" lon="17.31599">
        <ele>28.110157</ele>
        <time>2020-08-29T17:11:14.216Z</time>
      </trkpt>
      <trkpt lat="61.96356" lon="17.31567">
        <ele>28.35753</ele>
        <time>2020-08-29T17:11:20.387Z</time>
      </trkpt>
      <trkpt lat="61.96447" lon="17.31453">
        <ele>29.218693</ele>
        <time>2020-08-29T17:11:40.151Z</time>
      </trkpt>
      <trkpt lat="61.96473" lon="17.31409">
        <ele>29.832769</ele>
        <time>2020-08-29T17:11:46.807Z</time>
      </trkpt>
      <trkpt lat="61.96481" lon="17.31388">
        <ele>30.099694</ele>
        <time>2020-08-29T17:11:49.580Z</time>
      </trkpt>
      <trkpt lat="61.96491" lon="17.3135">
        <ele>30.528495</ele>
        <time>2020-08-29T17:11:54.348Z</time>
      </trkpt>
      <trkpt lat="61.96501" lon="17.31305">
        <ele>31.024504</ele>
        <time>2020-08-29T17:12:00.254Z</time>
      </trkpt>
      <trkpt lat="61.96503" lon="17.31288">
        <ele>31.19076</ele>
        <time>2020-08-29T17:12:02.205Z</time>
      </trkpt>
      <trkpt lat="61.96505" lon="17.31265">
        <ele>31.430595</ele>
        <time>2020-08-29T17:12:05.004Z</time>
      </trkpt>
      <trkpt lat="61.96504" lon="17.31226">
        <ele>31.81837</ele>
        <time>2020-08-29T17:12:09.971Z</time>
      </trkpt>
      <trkpt lat="61.96499" lon="17.31199">
        <ele>32.102095</ele>
        <time>2020-08-29T17:12:13.442Z</time>
      </trkpt>
      <trkpt lat="61.96491" lon="17.31174">
        <ele>32.410981</ele>
        <time>2020-08-29T17:12:17.478Z</time>
      </trkpt>
      <trkpt lat="61.96454" lon="17.31137">
        <ele>33.355301</ele>
        <time>2020-08-29T17:12:29.535Z</time>
      </trkpt>
      <trkpt lat="61.96422" lon="17.31128">
        <ele>34.337781</ele>
        <time>2020-08-29T17:12:42.740Z</time>
      </trkpt>
      <trkpt lat="61.96404" lon="17.31127">
        <ele>34.868061</ele>
        <time>2020-08-29T17:12:50.122Z</time>
      </trkpt>
      <trkpt lat="61.96352" lon="17.31095">
        <ele>36.484775</ele>
        <time>2020-08-29T17:13:11.789Z</time>
      </trkpt>
      <trkpt lat="61.9634" lon="17.31093">
        <ele>36.855625</ele>
        <time>2020-08-29T17:13:17.104Z</time>
      </trkpt>
      <trkpt lat="61.96328" lon="17.31105">
        <ele>37.262477</ele>
        <time>2020-08-29T17:13:22.285Z</time>
      </trkpt>
      <trkpt lat="61.96315" lon="17.31118">
        <ele>37.69633</ele>
        <time>2020-08-29T17:13:27.865Z</time>
      </trkpt>
      <trkpt lat="61.96297" lon="17.31142">
        <ele>38.32623</ele>
        <time>2020-08-29T17:13:35.714Z</time>
      </trkpt>
      <trkpt lat="61.96245" lon="17.31162">
        <ele>38.895168</ele>
        <time>2020-08-29T17:13:54.123Z</time>
      </trkpt>
      <trkpt lat="61.96201" lon="17.31143">
        <ele>39.280646</ele>
        <time>2020-08-29T17:14:08.850Z</time>
      </trkpt>
      <trkpt lat="61.96176" lon="17.31118">
        <ele>39.520969</ele>
        <time>2020-08-29T17:14:17.334Z</time>
      </trkpt>
      <trkpt lat="61.96138" lon="17.31044">
        <ele>39.97273</ele>
        <time>2020-08-29T17:14:32.794Z</time>
      </trkpt>
      <trkpt lat="61.96121" lon="17.31028">
        <ele>40.03909</ele>
        <time>2020-08-29T17:14:38.420Z</time>
      </trkpt>
      <trkpt lat="61.96033" lon="17.31055">
        <ele>40.018597</ele>
        <time>2020-08-29T17:15:04.639Z</time>
      </trkpt>
      <trkpt lat="61.96007" lon="17.31078">
        <ele>40.011989</ele>
        <time>2020-08-29T17:15:13.117Z</time>
      </trkpt>
      <trkpt lat="61.9593" lon="17.31068">
        <ele>40.000012</ele>
        <time>2020-08-29T17:15:35.803Z</time>
      </trkpt>
      <trkpt lat="61.95895" lon="17.31094">
        <ele>40.000012</ele>
        <time>2020-08-29T17:15:46.842Z</time>
      </trkpt>
      <trkpt lat="61.95848" lon="17.31156">
        <ele>40.000012</ele>
        <time>2020-08-29T17:16:03.243Z</time>
      </trkpt>
      <trkpt lat="61.95801" lon="17.31186">
        <ele>40.000012</ele>
        <time>2020-08-29T17:16:17.930Z</time>
      </trkpt>
      <trkpt lat="61.95721" lon="17.31195">
        <ele>40.000012</ele>
        <time>2020-08-29T17:16:41.880Z</time>
      </trkpt>
      <trkpt lat="61.95654" lon="17.31236">
        <ele>40.000012</ele>
        <time>2020-08-29T17:17:02.476Z</time>
      </trkpt>
      <trkpt lat="61.95605" lon="17.31245">
        <ele>40.000229</ele>
        <time>2020-08-29T17:17:17.067Z</time>
      </trkpt>
      <trkpt lat="61.95538" lon="17.31283">
        <ele>40.002804</ele>
        <time>2020-08-29T17:17:37.629Z</time>
      </trkpt>
      <trkpt lat="61.95481" lon="17.31329">
        <ele>40.005072</ele>
        <time>2020-08-29T17:17:55.756Z</time>
      </trkpt>
      <trkpt lat="61.95453" lon="17.31314">
        <ele>40.006135</ele>
        <time>2020-08-29T17:18:04.268Z</time>
      </trkpt>
      <trkpt lat="61.95398" lon="17.31324">
        <ele>40.246174</ele>
        <time>2020-08-29T17:18:20.736Z</time>
      </trkpt>
      <trkpt lat="61.95372" lon="17.31343">
        <ele>40.410575</ele>
        <time>2020-08-29T17:18:28.917Z</time>
      </trkpt>
      <trkpt lat="61.95339" lon="17.31394">
        <ele>40.655908</ele>
        <time>2020-08-29T17:18:41.786Z</time>
      </trkpt>
      <trkpt lat="61.95307" lon="17.3142">
        <ele>40.861871</ele>
        <time>2020-08-29T17:18:53.019Z</time>
      </trkpt>
      <trkpt lat="61.95243" lon="17.31528">
        <ele>42.003387</ele>
        <time>2020-08-29T17:19:20.619Z</time>
      </trkpt>
      <trkpt lat="61.95232" lon="17.31545">
        <ele>42.292186</ele>
        <time>2020-08-29T17:19:25.874Z</time>
      </trkpt>
      <trkpt lat="61.95188" lon="17.31557">
        <ele>43.206966</ele>
        <time>2020-08-29T17:19:41.888Z</time>
      </trkpt>
      <trkpt lat="61.95164" lon="17.31586">
        <ele>43.779195</ele>
        <time>2020-08-29T17:19:52.372Z</time>
      </trkpt>
      <trkpt lat="61.95129" lon="17.31647">
        <ele>44.715046</ele>
        <time>2020-08-29T17:20:09.614Z</time>
      </trkpt>
      <trkpt lat="61.95056" lon="17.31641">
        <ele>46.100381</ele>
        <time>2020-08-29T17:20:37.176Z</time>
      </trkpt>
      <trkpt lat="61.95021" lon="17.31649">
        <ele>46.765862</ele>
        <time>2020-08-29T17:20:49.915Z</time>
      </trkpt>
      <trkpt lat="61.94991" lon="17.3164">
        <ele>47.343879</ele>
        <time>2020-08-29T17:21:00.713Z</time>
      </trkpt>
      <trkpt lat="61.94979" lon="17.31627">
        <ele>47.595501</ele>
        <time>2020-08-29T17:21:05.294Z</time>
      </trkpt>
      <trkpt lat="61.94913" lon="17.31412">
        <ele>48.172968</ele>
        <time>2020-08-29T17:21:43.800Z</time>
      </trkpt>
      <trkpt lat="61.94854" lon="17.31306">
        <ele>48.136219</ele>
        <time>2020-08-29T17:22:05.589Z</time>
      </trkpt>
      <trkpt lat="61.94831" lon="17.31225">
        <ele>47.727535</ele>
        <time>2020-08-29T17:22:17.403Z</time>
      </trkpt>
      <trkpt lat="61.94829" lon="17.31195">
        <ele>47.538334</ele>
        <time>2020-08-29T17:22:21.161Z</time>
      </trkpt>
      <trkpt lat="61.94834" lon="17.31011">
        <ele>46.376086</ele>
        <time>2020-08-29T17:22:43.889Z</time>
      </trkpt>
      <trkpt lat="61.94822" lon="17.3093">
        <ele>45.842979</ele>
        <time>2020-08-29T17:22:54.250Z</time>
      </trkpt>
      <trkpt lat="61.9482" lon="17.30812">
        <ele>45.484578</ele>
        <time>2020-08-29T17:23:08.962Z</time>
      </trkpt>
      <trkpt lat="61.94804" lon="17.30686">
        <ele>45.169937</ele>
        <time>2020-08-29T17:23:25.992Z</time>
      </trkpt>
      <trkpt lat="61.94783" lon="17.30608">
        <ele>44.951773</ele>
        <time>2020-08-29T17:23:38.550Z</time>
      </trkpt>
      <trkpt lat="61.94773" lon="17.30583">
        <ele>44.870609</ele>
        <time>2020-08-29T17:23:43.362Z</time>
      </trkpt>
      <trkpt lat="61.94758" lon="17.3055">
        <ele>44.838694</ele>
        <time>2020-08-29T17:23:50.060Z</time>
      </trkpt>
      <trkpt lat="61.94723" lon="17.30534">
        <ele>45.028729</ele>
        <time>2020-08-29T17:24:01.478Z</time>
      </trkpt>
      <trkpt lat="61.94688" lon="17.30551">
        <ele>45.218327</ele>
        <time>2020-08-29T17:24:13.036Z</time>
      </trkpt>
      <trkpt lat="61.94648" lon="17.30589">
        <ele>45.447115</ele>
        <time>2020-08-29T17:24:27.040Z</time>
      </trkpt>
      <trkpt lat="61.94616" lon="17.30566">
        <ele>45.623999</ele>
        <time>2020-08-29T17:24:37.794Z</time>
      </trkpt>
      <trkpt lat="61.94574" lon="17.30442">
        <ele>45.323335</ele>
        <time>2020-08-29T17:24:59.692Z</time>
      </trkpt>
      <trkpt lat="61.94472" lon="17.30285">
        <ele>44.236397</ele>
        <time>2020-08-29T17:25:33.367Z</time>
      </trkpt>
      <trkpt lat="61.94451" lon="17.30239">
        <ele>43.571028</ele>
        <time>2020-08-29T17:25:40.992Z</time>
      </trkpt>
      <trkpt lat="61.94394" lon="17.30029">
        <ele>40.704478</ele>
        <time>2020-08-29T17:26:09.234Z</time>
      </trkpt>
      <trkpt lat="61.94305" lon="17.2978">
        <ele>35.187938</ele>
        <time>2020-08-29T17:26:43.602Z</time>
      </trkpt>
      <trkpt lat="61.94293" lon="17.29708">
        <ele>33.693047</ele>
        <time>2020-08-29T17:26:51.548Z</time>
      </trkpt>
      <trkpt lat="61.94289" lon="17.29561">
        <ele>30.419602</ele>
        <time>2020-08-29T17:27:06.602Z</time>
      </trkpt>
      <trkpt lat="61.94281" lon="17.29528">
        <ele>29.522098</ele>
        <time>2020-08-29T17:27:10.087Z</time>
      </trkpt>
      <trkpt lat="61.94217" lon="17.29389">
        <ele>24.654839</ele>
        <time>2020-08-29T17:27:30.094Z</time>
      </trkpt>
      <trkpt lat="61.94211" lon="17.29367">
        <ele>24.020574</ele>
        <time>2020-08-29T17:27:32.581Z</time>
      </trkpt>
      <trkpt lat="61.9422" lon="17.2935">
        <ele>23.407387</ele>
        <time>2020-08-29T17:27:34.128Z</time>
      </trkpt>
      <trkpt lat="61.94227" lon="17.29174">
        <ele>20.777731</ele>
        <time>2020-08-29T17:27:45.227Z</time>
      </trkpt>
      <trkpt lat="61.9422" lon="17.29065">
        <ele>19.39667</ele>
        <time>2020-08-29T17:27:52.332Z</time>
      </trkpt>
      <trkpt lat="61.94211" lon="17.29022">
        <ele>18.809205</ele>
        <time>2020-08-29T17:27:55.974Z</time>
      </trkpt>
      <trkpt lat="61.94192" lon="17.28985">
        <ele>18.118044</ele>
        <time>2020-08-29T17:28:00.372Z</time>
      </trkpt>
      <trkpt lat="61.94183" lon="17.28921">
        <ele>17.725934</ele>
        <time>2020-08-29T17:28:05.702Z</time>
      </trkpt>
      <trkpt lat="61.94169" lon="17.28883">
        <ele>17.658436</ele>
        <time>2020-08-29T17:28:09.783Z</time>
      </trkpt>
      <trkpt lat="61.94159" lon="17.28877">
        <ele>17.630068</ele>
        <time>2020-08-29T17:28:11.380Z</time>
      </trkpt>
      <trkpt lat="61.94153" lon="17.28757">
        <ele>17.462929</ele>
        <time>2020-08-29T17:28:21.540Z</time>
      </trkpt>
      <trkpt lat="61.94156" lon="17.28731">
        <ele>17.426301</ele>
        <time>2020-08-29T17:28:23.754Z</time>
      </trkpt>
      <trkpt lat="61.94081" lon="17.28614">
        <ele>17.388154</ele>
        <time>2020-08-29T17:28:40.386Z</time>
      </trkpt>
      <trkpt lat="61.94016" lon="17.28549">
        <ele>17.677069</ele>
        <time>2020-08-29T17:28:53.920Z</time>
      </trkpt>
      <trkpt lat="61.93901" lon="17.28442">
        <ele>18.532493</ele>
        <time>2020-08-29T17:29:18.916Z</time>
      </trkpt>
      <trkpt lat="61.93848" lon="17.284">
        <ele>19.136628</ele>
        <time>2020-08-29T17:29:30.416Z</time>
      </trkpt>
      <trkpt lat="61.93795" lon="17.28347">
        <ele>19.772314</ele>
        <time>2020-08-29T17:29:43.168Z</time>
      </trkpt>
      <trkpt lat="61.9373" lon="17.28259">
        <ele>21.95557</ele>
        <time>2020-08-29T17:30:02.643Z</time>
      </trkpt>
      <trkpt lat="61.93703" lon="17.28218">
        <ele>23.014087</ele>
        <time>2020-08-29T17:30:11.698Z</time>
      </trkpt>
      <trkpt lat="61.93622" lon="17.28102">
        <ele>26.386675</ele>
        <time>2020-08-29T17:30:41.328Z</time>
      </trkpt>
      <trkpt lat="61.93531" lon="17.27965">
        <ele>31.918429</ele>
        <time>2020-08-29T17:31:20.375Z</time>
      </trkpt>
      <trkpt lat="61.93471" lon="17.27827">
        <ele>35.902399</ele>
        <time>2020-08-29T17:31:50.030Z</time>
      </trkpt>
      <trkpt lat="61.93457" lon="17.27777">
        <ele>36.943522</ele>
        <time>2020-08-29T17:31:58.798Z</time>
      </trkpt>
      <trkpt lat="61.93448" lon="17.27729">
        <ele>37.887563</ele>
        <time>2020-08-29T17:32:06.381Z</time>
      </trkpt>
      <trkpt lat="61.93429" lon="17.27583">
        <ele>40.630585</ele>
        <time>2020-08-29T17:32:27.114Z</time>
      </trkpt>
      <trkpt lat="61.93417" lon="17.27434">
        <ele>42.2647</ele>
        <time>2020-08-29T17:32:45.765Z</time>
      </trkpt>
      <trkpt lat="61.93405" lon="17.27189">
        <ele>44.116748</ele>
        <time>2020-08-29T17:33:11.579Z</time>
      </trkpt>
      <trkpt lat="61.93396" lon="17.27136">
        <ele>44.305346</ele>
        <time>2020-08-29T17:33:16.724Z</time>
      </trkpt>
      <trkpt lat="61.93386" lon="17.27085">
        <ele>44.177624</ele>
        <time>2020-08-29T17:33:21.618Z</time>
      </trkpt>
      <trkpt lat="61.93359" lon="17.26983">
        <ele>43.909574</ele>
        <time>2020-08-29T17:33:30.979Z</time>
      </trkpt>
      <trkpt lat="61.93285" lon="17.2674">
        <ele>42.774414</ele>
        <time>2020-08-29T17:33:51.488Z</time>
      </trkpt>
      <trkpt lat="61.93282" lon="17.26731">
        <ele>42.699172</ele>
        <time>2020-08-29T17:33:52.209Z</time>
      </trkpt>
      <trkpt lat="61.93207" lon="17.26478">
        <ele>40.72508</ele>
        <time>2020-08-29T17:34:12.817Z</time>
      </trkpt>
      <trkpt lat="61.93184" lon="17.26385">
        <ele>40.32381</ele>
        <time>2020-08-29T17:34:20.505Z</time>
      </trkpt>
      <trkpt lat="61.93164" lon="17.26232">
        <ele>39.711706</ele>
        <time>2020-08-29T17:34:32.768Z</time>
      </trkpt>
      <trkpt lat="61.93141" lon="17.25999">
        <ele>38.68292</ele>
        <time>2020-08-29T17:34:51.152Z</time>
      </trkpt>
      <trkpt lat="61.93134" lon="17.25923">
        <ele>38.327619</ele>
        <time>2020-08-29T17:34:56.889Z</time>
      </trkpt>
      <trkpt lat="61.93108" lon="17.25687">
        <ele>36.743563</ele>
        <time>2020-08-29T17:35:13.889Z</time>
      </trkpt>
      <trkpt lat="61.93051" lon="17.25103">
        <ele>30.323344</ele>
        <time>2020-08-29T17:35:52.446Z</time>
      </trkpt>
      <trkpt lat="61.93043" lon="17.25033">
        <ele>29.480428</ele>
        <time>2020-08-29T17:35:57.027Z</time>
      </trkpt>
      <trkpt lat="61.93031" lon="17.24913">
        <ele>27.88276</ele>
        <time>2020-08-29T17:36:04.772Z</time>
      </trkpt>
      <trkpt lat="61.93021" lon="17.24855">
        <ele>27.071527</ele>
        <time>2020-08-29T17:36:08.634Z</time>
      </trkpt>
      <trkpt lat="61.93005" lon="17.24768">
        <ele>25.853766</ele>
        <time>2020-08-29T17:36:14.413Z</time>
      </trkpt>
      <trkpt lat="61.92993" lon="17.24707">
        <ele>24.991479</ele>
        <time>2020-08-29T17:36:18.563Z</time>
      </trkpt>
      <trkpt lat="61.92978" lon="17.2463">
        <ele>23.994339</ele>
        <time>2020-08-29T17:36:23.931Z</time>
      </trkpt>
      <trkpt lat="61.92973" lon="17.24601">
        <ele>23.674247</ele>
        <time>2020-08-29T17:36:25.889Z</time>
      </trkpt>
      <trkpt lat="61.92957" lon="17.24519">
        <ele>22.762668</ele>
        <time>2020-08-29T17:36:31.576Z</time>
      </trkpt>
      <trkpt lat="61.9292" lon="17.24342">
        <ele>20.772894</ele>
        <time>2020-08-29T17:36:44.400Z</time>
      </trkpt>
      <trkpt lat="61.92912" lon="17.24309">
        <ele>20.415499</ele>
        <time>2020-08-29T17:36:46.860Z</time>
      </trkpt>
      <trkpt lat="61.92889" lon="17.24197">
        <ele>19.763482</ele>
        <time>2020-08-29T17:36:55.542Z</time>
      </trkpt>
      <trkpt lat="61.92746" lon="17.23517">
        <ele>16.603207</ele>
        <time>2020-08-29T17:37:50.522Z</time>
      </trkpt>
      <trkpt lat="61.92729" lon="17.23423">
        <ele>16.425814</ele>
        <time>2020-08-29T17:37:58.506Z</time>
      </trkpt>
      <trkpt lat="61.92718" lon="17.23403">
        <ele>16.369739</ele>
        <time>2020-08-29T17:38:01.010Z</time>
      </trkpt>
      <trkpt lat="61.92707" lon="17.23392">
        <ele>16.326649</ele>
        <time>2020-08-29T17:38:02.938Z</time>
      </trkpt>
      <trkpt lat="61.92703" lon="17.23412">
        <ele>16.287577</ele>
        <time>2020-08-29T17:38:04.866Z</time>
      </trkpt>
      <trkpt lat="61.92669" lon="17.23558">
        <ele>16.174661</ele>
        <time>2020-08-29T17:38:18.423Z</time>
      </trkpt>
      <trkpt lat="61.9265" lon="17.23612">
        <ele>16.231603</ele>
        <time>2020-08-29T17:38:24.332Z</time>
      </trkpt>
      <trkpt lat="61.92622" lon="17.23674">
        <ele>16.303796</ele>
        <time>2020-08-29T17:38:31.973Z</time>
      </trkpt>
      <trkpt lat="61.92555" lon="17.23758">
        <ele>16.438326</ele>
        <time>2020-08-29T17:38:46.363Z</time>
      </trkpt>
      <trkpt lat="61.92511" lon="17.238">
        <ele>16.418841</ele>
        <time>2020-08-29T17:38:55.211Z</time>
      </trkpt>
      <trkpt lat="61.92415" lon="17.239">
        <ele>16.375725</ele>
        <time>2020-08-29T17:39:14.170Z</time>
      </trkpt>
      <trkpt lat="61.92317" lon="17.23986">
        <ele>16.006503</ele>
        <time>2020-08-29T17:39:31.950Z</time>
      </trkpt>
      <trkpt lat="61.9231" lon="17.23992">
        <ele>15.972753</ele>
        <time>2020-08-29T17:39:33.214Z</time>
      </trkpt>
      <trkpt lat="61.92303" lon="17.23999">
        <ele>15.939815</ele>
        <time>2020-08-29T17:39:34.442Z</time>
      </trkpt>
      <trkpt lat="61.92239" lon="17.24055">
        <ele>15.636079</ele>
        <time>2020-08-29T17:39:45.896Z</time>
      </trkpt>
      <trkpt lat="61.92048" lon="17.24161">
        <ele>14.381968</ele>
        <time>2020-08-29T17:40:17.719Z</time>
      </trkpt>
      <trkpt lat="61.92005" lon="17.24208">
        <ele>14.122133</ele>
        <time>2020-08-29T17:40:25.419Z</time>
      </trkpt>
      <trkpt lat="61.9196" lon="17.2428">
        <ele>13.815948</ele>
        <time>2020-08-29T17:40:34.643Z</time>
      </trkpt>
      <trkpt lat="61.91942" lon="17.24319">
        <ele>13.673666</ele>
        <time>2020-08-29T17:40:38.948Z</time>
      </trkpt>
      <trkpt lat="61.91905" lon="17.24419">
        <ele>13.418835</ele>
        <time>2020-08-29T17:40:48.948Z</time>
      </trkpt>
      <trkpt lat="61.91859" lon="17.2459">
        <ele>13.332316</ele>
        <time>2020-08-29T17:41:05.072Z</time>
      </trkpt>
      <trkpt lat="61.91848" lon="17.24651">
        <ele>13.303805</ele>
        <time>2020-08-29T17:41:10.595Z</time>
      </trkpt>
      <trkpt lat="61.91844" lon="17.24674">
        <ele>13.293465</ele>
        <time>2020-08-29T17:41:12.577Z</time>
      </trkpt>
      <trkpt lat="61.91829" lon="17.24764">
        <ele>13.27987</ele>
        <time>2020-08-29T17:41:20.797Z</time>
      </trkpt>
      <trkpt lat="61.91785" lon="17.25045">
        <ele>13.40403</ele>
        <time>2020-08-29T17:41:46.220Z</time>
      </trkpt>
      <trkpt lat="61.91771" lon="17.25113">
        <ele>13.442467</ele>
        <time>2020-08-29T17:41:52.538Z</time>
      </trkpt>
      <trkpt lat="61.91745" lon="17.25192">
        <ele>13.515789</ele>
        <time>2020-08-29T17:42:00.676Z</time>
      </trkpt>
      <trkpt lat="61.91669" lon="17.25374">
        <ele>13.700185</ele>
        <time>2020-08-29T17:42:21.557Z</time>
      </trkpt>
      <trkpt lat="61.91642" lon="17.25435">
        <ele>13.976892</ele>
        <time>2020-08-29T17:42:28.934Z</time>
      </trkpt>
      <trkpt lat="61.91616" lon="17.25546">
        <ele>14.505205</ele>
        <time>2020-08-29T17:42:40.817Z</time>
      </trkpt>
      <trkpt lat="61.9159" lon="17.25699">
        <ele>15.187453</ele>
        <time>2020-08-29T17:42:57.139Z</time>
      </trkpt>
      <trkpt lat="61.91587" lon="17.25716">
        <ele>15.264754</ele>
        <time>2020-08-29T17:42:59.077Z</time>
      </trkpt>
      <trkpt lat="61.91569" lon="17.25808">
        <ele>15.890982</ele>
        <time>2020-08-29T17:43:09.890Z</time>
      </trkpt>
      <trkpt lat="61.91567" lon="17.25821">
        <ele>15.976736</ele>
        <time>2020-08-29T17:43:11.509Z</time>
      </trkpt>
      <trkpt lat="61.91562" lon="17.25864">
        <ele>16.269612</ele>
        <time>2020-08-29T17:43:16.162Z</time>
      </trkpt>
      <trkpt lat="61.91564" lon="17.25927">
        <ele>16.691321</ele>
        <time>2020-08-29T17:43:23.100Z</time>
      </trkpt>
      <trkpt lat="61.91566" lon="17.25986">
        <ele>17.077768</ele>
        <time>2020-08-29T17:43:29.474Z</time>
      </trkpt>
      <trkpt lat="61.9156" lon="17.26039">
        <ele>17.439125</ele>
        <time>2020-08-29T17:43:35.213Z</time>
      </trkpt>
      <trkpt lat="61.91553" lon="17.26088">
        <ele>17.777675</ele>
        <time>2020-08-29T17:43:40.418Z</time>
      </trkpt>
      <trkpt lat="61.91543" lon="17.2613">
        <ele>17.91929</ele>
        <time>2020-08-29T17:43:45.307Z</time>
      </trkpt>
      <trkpt lat="61.9153" lon="17.26169">
        <ele>18.002594</ele>
        <time>2020-08-29T17:43:49.641Z</time>
      </trkpt>
      <trkpt lat="61.91519" lon="17.26194">
        <ele>18.065852</ele>
        <time>2020-08-29T17:43:52.994Z</time>
      </trkpt>
      <trkpt lat="61.91504" lon="17.2622">
        <ele>18.13731</ele>
        <time>2020-08-29T17:43:56.620Z</time>
      </trkpt>
      <trkpt lat="61.91487" lon="17.26244">
        <ele>18.216254</ele>
        <time>2020-08-29T17:44:00.664Z</time>
      </trkpt>
      <trkpt lat="61.9142" lon="17.26311">
        <ele>18.496444</ele>
        <time>2020-08-29T17:44:13.837Z</time>
      </trkpt>
      <trkpt lat="61.91344" lon="17.26383">
        <ele>18.573667</ele>
        <time>2020-08-29T17:44:27.954Z</time>
      </trkpt>
      <trkpt lat="61.91199" lon="17.26525">
        <ele>18.856528</ele>
        <time>2020-08-29T17:44:57.654Z</time>
      </trkpt>
      <trkpt lat="61.91196" lon="17.26527">
        <ele>18.868883</ele>
        <time>2020-08-29T17:44:58.249Z</time>
      </trkpt>
      <trkpt lat="61.91158" lon="17.26561">
        <ele>19.044241</ele>
        <time>2020-08-29T17:45:06.360Z</time>
      </trkpt>
      <trkpt lat="61.91121" lon="17.26597">
        <ele>19.221997</ele>
        <time>2020-08-29T17:45:14.512Z</time>
      </trkpt>
      <trkpt lat="61.91094" lon="17.26615">
        <ele>19.343679</ele>
        <time>2020-08-29T17:45:20.013Z</time>
      </trkpt>
      <trkpt lat="61.91068" lon="17.26629">
        <ele>19.380971</ele>
        <time>2020-08-29T17:45:25.146Z</time>
      </trkpt>
      <trkpt lat="61.90969" lon="17.26671">
        <ele>19.206292</ele>
        <time>2020-08-29T17:45:43.693Z</time>
      </trkpt>
      <trkpt lat="61.90845" lon="17.26724">
        <ele>18.316968</ele>
        <time>2020-08-29T17:46:03.575Z</time>
      </trkpt>
      <trkpt lat="61.908" lon="17.26731">
        <ele>17.747261</ele>
        <time>2020-08-29T17:46:10.113Z</time>
      </trkpt>
      <trkpt lat="61.90796" lon="17.26732">
        <ele>17.697195</ele>
        <time>2020-08-29T17:46:10.645Z</time>
      </trkpt>
      <trkpt lat="61.90744" lon="17.26725">
        <ele>17.025756</ele>
        <time>2020-08-29T17:46:18.447Z</time>
      </trkpt>
      <trkpt lat="61.90703" lon="17.2672">
        <ele>16.567207</ele>
        <time>2020-08-29T17:46:24.460Z</time>
      </trkpt>
      <trkpt lat="61.907" lon="17.2672">
        <ele>16.537141</ele>
        <time>2020-08-29T17:46:24.907Z</time>
      </trkpt>
      <trkpt lat="61.90696" lon="17.2672">
        <ele>16.495051</ele>
        <time>2020-08-29T17:46:25.478Z</time>
      </trkpt>
      <trkpt lat="61.90617" lon="17.26732">
        <ele>15.696484</ele>
        <time>2020-08-29T17:46:37.319Z</time>
      </trkpt>
      <trkpt lat="61.9057" lon="17.26767">
        <ele>15.199117</ele>
        <time>2020-08-29T17:46:45.297Z</time>
      </trkpt>
      <trkpt lat="61.90541" lon="17.26796">
        <ele>15.052835</ele>
        <time>2020-08-29T17:46:50.747Z</time>
      </trkpt>
      <trkpt lat="61.90498" lon="17.26847">
        <ele>15.340838</ele>
        <time>2020-08-29T17:46:59.780Z</time>
      </trkpt>
      <trkpt lat="61.90247" lon="17.27126">
        <ele>17.704531</ele>
        <time>2020-08-29T17:47:59.248Z</time>
      </trkpt>
      <trkpt lat="61.90214" lon="17.27179">
        <ele>18.117875</ele>
        <time>2020-08-29T17:48:08.313Z</time>
      </trkpt>
      <trkpt lat="61.90147" lon="17.27312">
        <ele>19.030559</ele>
        <time>2020-08-29T17:48:28.012Z</time>
      </trkpt>
      <trkpt lat="61.90106" lon="17.27373">
        <ele>19.528928</ele>
        <time>2020-08-29T17:48:38.465Z</time>
      </trkpt>
      <trkpt lat="61.89976" lon="17.27495">
        <ele>20.057143</ele>
        <time>2020-08-29T17:49:05.706Z</time>
      </trkpt>
      <trkpt lat="61.89949" lon="17.27527">
        <ele>20.154096</ele>
        <time>2020-08-29T17:49:11.280Z</time>
      </trkpt>
      <trkpt lat="61.89927" lon="17.27568">
        <ele>20.178541</ele>
        <time>2020-08-29T17:49:16.350Z</time>
      </trkpt>
      <trkpt lat="61.89828" lon="17.27765">
        <ele>19.628638</ele>
        <time>2020-08-29T17:49:39.122Z</time>
      </trkpt>
      <trkpt lat="61.8979" lon="17.27825">
        <ele>19.375003</ele>
        <time>2020-08-29T17:49:46.781Z</time>
      </trkpt>
      <trkpt lat="61.89732" lon="17.27907">
        <ele>18.768033</ele>
        <time>2020-08-29T17:49:57.808Z</time>
      </trkpt>
      <trkpt lat="61.89647" lon="17.28021">
        <ele>17.885109</ele>
        <time>2020-08-29T17:50:13.463Z</time>
      </trkpt>
      <trkpt lat="61.89453" lon="17.28273">
        <ele>15.408327</ele>
        <time>2020-08-29T17:50:48.320Z</time>
      </trkpt>
      <trkpt lat="61.89415" lon="17.28339">
        <ele>14.811791</ele>
        <time>2020-08-29T17:50:55.693Z</time>
      </trkpt>
      <trkpt lat="61.89376" lon="17.28422">
        <ele>14.14905</ele>
        <time>2020-08-29T17:51:03.963Z</time>
      </trkpt>
      <trkpt lat="61.89337" lon="17.28521">
        <ele>13.527456</ele>
        <time>2020-08-29T17:51:13.254Z</time>
      </trkpt>
      <trkpt lat="61.89309" lon="17.28589">
        <ele>13.149527</ele>
        <time>2020-08-29T17:51:19.884Z</time>
      </trkpt>
      <trkpt lat="61.89219" lon="17.28746">
        <ele>12.16552</ele>
        <time>2020-08-29T17:51:38.387Z</time>
      </trkpt>
      <trkpt lat="61.89156" lon="17.28843">
        <ele>11.695416</ele>
        <time>2020-08-29T17:51:51.197Z</time>
      </trkpt>
      <trkpt lat="61.89042" lon="17.28993">
        <ele>10.84439</ele>
        <time>2020-08-29T17:52:13.040Z</time>
      </trkpt>
      <trkpt lat="61.89019" lon="17.29041">
        <ele>10.627406</ele>
        <time>2020-08-29T17:52:18.175Z</time>
      </trkpt>
      <trkpt lat="61.88951" lon="17.29203">
        <ele>9.941316</ele>
        <time>2020-08-29T17:52:34.610Z</time>
      </trkpt>
      <trkpt lat="61.88919" lon="17.29301">
        <ele>9.710584</ele>
        <time>2020-08-29T17:52:43.647Z</time>
      </trkpt>
      <trkpt lat="61.88853" lon="17.29542">
        <ele>9.201327</ele>
        <time>2020-08-29T17:53:05.863Z</time>
      </trkpt>
      <trkpt lat="61.88837" lon="17.29599">
        <ele>9.191799</ele>
        <time>2020-08-29T17:53:11.442Z</time>
      </trkpt>
      <trkpt lat="61.88793" lon="17.29708">
        <ele>9.171439</ele>
        <time>2020-08-29T17:53:23.512Z</time>
      </trkpt>
      <trkpt lat="61.88762" lon="17.29785">
        <ele>9.157008</ele>
        <time>2020-08-29T17:53:32.191Z</time>
      </trkpt>
      <trkpt lat="61.88674" lon="17.30002">
        <ele>9.002373</ele>
        <time>2020-08-29T17:53:56.182Z</time>
      </trkpt>
      <trkpt lat="61.88636" lon="17.30089">
        <ele>8.928893</ele>
        <time>2020-08-29T17:54:05.658Z</time>
      </trkpt>
      <trkpt lat="61.88535" lon="17.3033">
        <ele>8.434091</ele>
        <time>2020-08-29T17:54:31.109Z</time>
      </trkpt>
      <trkpt lat="61.8851" lon="17.30378">
        <ele>8.315616</ele>
        <time>2020-08-29T17:54:36.938Z</time>
      </trkpt>
      <trkpt lat="61.88498" lon="17.30396">
        <ele>8.280274</ele>
        <time>2020-08-29T17:54:39.417Z</time>
      </trkpt>
      <trkpt lat="61.8847" lon="17.30442">
        <ele>8.226683</ele>
        <time>2020-08-29T17:54:45.463Z</time>
      </trkpt>
      <trkpt lat="61.88454" lon="17.30464">
        <ele>8.198684</ele>
        <time>2020-08-29T17:54:48.684Z</time>
      </trkpt>
      <trkpt lat="61.88431" lon="17.30492">
        <ele>8.15869</ele>
        <time>2020-08-29T17:54:53.233Z</time>
      </trkpt>
      <trkpt lat="61.88363" lon="17.30556">
        <ele>8.045683</ele>
        <time>2020-08-29T17:55:06.292Z</time>
      </trkpt>
      <trkpt lat="61.88307" lon="17.30614">
        <ele>8.014815</ele>
        <time>2020-08-29T17:55:17.405Z</time>
      </trkpt>
      <trkpt lat="61.88272" lon="17.30639">
        <ele>8.01072</ele>
        <time>2020-08-29T17:55:24.042Z</time>
      </trkpt>
      <trkpt lat="61.88234" lon="17.30655">
        <ele>8.006467</ele>
        <time>2020-08-29T17:55:30.943Z</time>
      </trkpt>
      <trkpt lat="61.88211" lon="17.30664">
        <ele>8.003889</ele>
        <time>2020-08-29T17:55:35.125Z</time>
      </trkpt>
      <trkpt lat="61.88164" lon="17.30679">
        <ele>7.99966</ele>
        <time>2020-08-29T17:55:43.576Z</time>
      </trkpt>
      <trkpt lat="61.8811" lon="17.30696">
        <ele>7.998069</ele>
        <time>2020-08-29T17:55:53.350Z</time>
      </trkpt>
      <trkpt lat="61.88075" lon="17.3071">
        <ele>7.997053</ele>
        <time>2020-08-29T17:55:59.598Z</time>
      </trkpt>
      <trkpt lat="61.8802" lon="17.30732">
        <ele>7.995422</ele>
        <time>2020-08-29T17:56:09.601Z</time>
      </trkpt>
      <trkpt lat="61.87981" lon="17.30752">
        <ele>7.981046</ele>
        <time>2020-08-29T17:56:16.743Z</time>
      </trkpt>
      <trkpt lat="61.87961" lon="17.30768">
        <ele>7.96517</ele>
        <time>2020-08-29T17:56:20.510Z</time>
      </trkpt>
      <trkpt lat="61.87844" lon="17.30909">
        <ele>7.863935</ele>
        <time>2020-08-29T17:56:44.317Z</time>
      </trkpt>
      <trkpt lat="61.87624" lon="17.31054">
        <ele>7.374705</ele>
        <time>2020-08-29T17:57:23.885Z</time>
      </trkpt>
      <trkpt lat="61.87442" lon="17.31281">
        <ele>6.771415</ele>
        <time>2020-08-29T17:57:59.643Z</time>
      </trkpt>
      <trkpt lat="61.87401" lon="17.31334">
        <ele>6.616794</ele>
        <time>2020-08-29T17:58:07.712Z</time>
      </trkpt>
      <trkpt lat="61.87371" lon="17.31376">
        <ele>6.50181</ele>
        <time>2020-08-29T17:58:13.757Z</time>
      </trkpt>
      <trkpt lat="61.87341" lon="17.31424">
        <ele>6.5112</ele>
        <time>2020-08-29T17:58:20.125Z</time>
      </trkpt>
      <trkpt lat="61.87319" lon="17.31458">
        <ele>6.624314</ele>
        <time>2020-08-29T17:58:24.963Z</time>
      </trkpt>
      <trkpt lat="61.87306" lon="17.31473">
        <ele>6.683446</ele>
        <time>2020-08-29T17:58:27.566Z</time>
      </trkpt>
      <trkpt lat="61.87296" lon="17.31483">
        <ele>6.730158</ele>
        <time>2020-08-29T17:58:29.748Z</time>
      </trkpt>
      <trkpt lat="61.87268" lon="17.31501">
        <ele>6.850601</ele>
        <time>2020-08-29T17:58:35.240Z</time>
      </trkpt>
      <trkpt lat="61.87241" lon="17.31504">
        <ele>6.961224</ele>
        <time>2020-08-29T17:58:40.437Z</time>
      </trkpt>
      <trkpt lat="61.87218" lon="17.3149">
        <ele>7.060782</ele>
        <time>2020-08-29T17:58:45.485Z</time>
      </trkpt>
      <trkpt lat="61.87206" lon="17.3148">
        <ele>7.114895</ele>
        <time>2020-08-29T17:58:48.147Z</time>
      </trkpt>
      <trkpt lat="61.87185" lon="17.31465">
        <ele>7.272537</ele>
        <time>2020-08-29T17:58:52.802Z</time>
      </trkpt>
      <trkpt lat="61.8718" lon="17.31463">
        <ele>7.353676</ele>
        <time>2020-08-29T17:58:53.828Z</time>
      </trkpt>
      <trkpt lat="61.87168" lon="17.31455">
        <ele>7.544901</ele>
        <time>2020-08-29T17:58:56.440Z</time>
      </trkpt>
      <trkpt lat="61.87157" lon="17.31457">
        <ele>7.726312</ele>
        <time>2020-08-29T17:58:59.179Z</time>
      </trkpt>
      <trkpt lat="61.87133" lon="17.3146">
        <ele>8.099845</ele>
        <time>2020-08-29T17:59:04.409Z</time>
      </trkpt>
      <trkpt lat="61.87127" lon="17.31465">
        <ele>8.195261</ele>
        <time>2020-08-29T17:59:05.906Z</time>
      </trkpt>
      <trkpt lat="61.87121" lon="17.31473">
        <ele>8.293927</ele>
        <time>2020-08-29T17:59:07.409Z</time>
      </trkpt>
      <trkpt lat="61.87104" lon="17.31511">
        <ele>8.680756</ele>
        <time>2020-08-29T17:59:13.009Z</time>
      </trkpt>
      <trkpt lat="61.87092" lon="17.3155">
        <ele>9.020349</ele>
        <time>2020-08-29T17:59:18.145Z</time>
      </trkpt>
      <trkpt lat="61.87085" lon="17.31571">
        <ele>9.208292</ele>
        <time>2020-08-29T17:59:21.021Z</time>
      </trkpt>
      <trkpt lat="61.87041" lon="17.31629">
        <ele>10.027205</ele>
        <time>2020-08-29T17:59:33.623Z</time>
      </trkpt>
      <trkpt lat="61.87029" lon="17.31639">
        <ele>10.265695</ele>
        <time>2020-08-29T17:59:36.727Z</time>
      </trkpt>
      <trkpt lat="61.87019" lon="17.31646">
        <ele>10.457406</ele>
        <time>2020-08-29T17:59:39.214Z</time>
      </trkpt>
      <trkpt lat="61.87011" lon="17.31648">
        <ele>10.598963</ele>
        <time>2020-08-29T17:59:41.083Z</time>
      </trkpt>
      <trkpt lat="61.87006" lon="17.3163">
        <ele>10.779206</ele>
        <time>2020-08-29T17:59:43.384Z</time>
      </trkpt>
      <trkpt lat="61.87" lon="17.31609">
        <ele>10.998114</ele>
        <time>2020-08-29T17:59:46.320Z</time>
      </trkpt>
      <trkpt lat="61.86992" lon="17.31589">
        <ele>11.222227</ele>
        <time>2020-08-29T17:59:49.145Z</time>
      </trkpt>
      <trkpt lat="61.86984" lon="17.31571">
        <ele>11.443509</ele>
        <time>2020-08-29T17:59:51.977Z</time>
      </trkpt>
      <trkpt lat="61.86972" lon="17.31552">
        <ele>11.714213</ele>
        <time>2020-08-29T17:59:55.679Z</time>
      </trkpt>
      <trkpt lat="61.86956" lon="17.31532">
        <ele>12.057949</ele>
        <time>2020-08-29T18:00:00.021Z</time>
      </trkpt>
      <trkpt lat="61.86901" lon="17.31478">
        <ele>13.175085</ele>
        <time>2020-08-29T18:00:14.416Z</time>
      </trkpt>
      <trkpt lat="61.86867" lon="17.31442">
        <ele>13.575088</ele>
        <time>2020-08-29T18:00:23.222Z</time>
      </trkpt>
      <trkpt lat="61.86822" lon="17.31396">
        <ele>14.023895</ele>
        <time>2020-08-29T18:00:34.207Z</time>
      </trkpt>
      <trkpt lat="61.86778" lon="17.31354">
        <ele>14.462332</ele>
        <time>2020-08-29T18:00:44.208Z</time>
      </trkpt>
      <trkpt lat="61.86692" lon="17.31277">
        <ele>14.496719</ele>
        <time>2020-08-29T18:01:01.003Z</time>
      </trkpt>
      <trkpt lat="61.86666" lon="17.31264">
        <ele>14.255423</ele>
        <time>2020-08-29T18:01:05.213Z</time>
      </trkpt>
      <trkpt lat="61.86648" lon="17.31261">
        <ele>14.094642</ele>
        <time>2020-08-29T18:01:07.912Z</time>
      </trkpt>
      <trkpt lat="61.866" lon="17.31253">
        <ele>13.652559</ele>
        <time>2020-08-29T18:01:15.261Z</time>
      </trkpt>
      <trkpt lat="61.86594" lon="17.31252">
        <ele>13.595882</ele>
        <time>2020-08-29T18:01:16.121Z</time>
      </trkpt>
      <trkpt lat="61.86528" lon="17.31242">
        <ele>12.82443</ele>
        <time>2020-08-29T18:01:25.742Z</time>
      </trkpt>
      <trkpt lat="61.86434" lon="17.3123">
        <ele>11.424134</ele>
        <time>2020-08-29T18:01:39.432Z</time>
      </trkpt>
      <trkpt lat="61.86405" lon="17.31227">
        <ele>11.001018</ele>
        <time>2020-08-29T18:01:43.713Z</time>
      </trkpt>
      <trkpt lat="61.864" lon="17.31226">
        <ele>10.928223</ele>
        <time>2020-08-29T18:01:44.433Z</time>
      </trkpt>
      <trkpt lat="61.86326" lon="17.31217">
        <ele>10.05577</ele>
        <time>2020-08-29T18:01:55.740Z</time>
      </trkpt>
      <trkpt lat="61.86305" lon="17.31215">
        <ele>9.83204</ele>
        <time>2020-08-29T18:01:59.072Z</time>
      </trkpt>
      <trkpt lat="61.86191" lon="17.31198">
        <ele>8.598745</ele>
        <time>2020-08-29T18:02:16.950Z</time>
      </trkpt>
      <trkpt lat="61.86104" lon="17.31147">
        <ele>7.389109</ele>
        <time>2020-08-29T18:02:30.446Z</time>
      </trkpt>
      <trkpt lat="61.85873" lon="17.30877">
        <ele>3.820938</ele>
        <time>2020-08-29T18:03:09.208Z</time>
      </trkpt>
      <trkpt lat="61.85757" lon="17.3069">
        <ele>3.370408</ele>
        <time>2020-08-29T18:03:33.278Z</time>
      </trkpt>
      <trkpt lat="61.85727" lon="17.30637">
        <ele>3.382997</ele>
        <time>2020-08-29T18:03:41.316Z</time>
      </trkpt>
      <trkpt lat="61.85702" lon="17.30592">
        <ele>3.886014</ele>
        <time>2020-08-29T18:03:48.052Z</time>
      </trkpt>
      <trkpt lat="61.85692" lon="17.30575">
        <ele>4.077983</ele>
        <time>2020-08-29T18:03:50.953Z</time>
      </trkpt>
      <trkpt lat="61.85675" lon="17.30538">
        <ele>4.454689</ele>
        <time>2020-08-29T18:03:56.198Z</time>
      </trkpt>
      <trkpt lat="61.85673" lon="17.30533">
        <ele>4.514635</ele>
        <time>2020-08-29T18:03:57.393Z</time>
      </trkpt>
      <trkpt lat="61.85646" lon="17.30457">
        <ele>5.200674</ele>
        <time>2020-08-29T18:04:07.731Z</time>
      </trkpt>
      <trkpt lat="61.85626" lon="17.30371">
        <ele>5.897231</ele>
        <time>2020-08-29T18:04:18.810Z</time>
      </trkpt>
      <trkpt lat="61.85595" lon="17.30228">
        <ele>7.490919</ele>
        <time>2020-08-29T18:04:37.367Z</time>
      </trkpt>
      <trkpt lat="61.85575" lon="17.30138">
        <ele>8.54563</ele>
        <time>2020-08-29T18:04:49.056Z</time>
      </trkpt>
      <trkpt lat="61.85548" lon="17.30016">
        <ele>9.961394</ele>
        <time>2020-08-29T18:05:05.095Z</time>
      </trkpt>
      <trkpt lat="61.85532" lon="17.29925">
        <ele>10.965419</ele>
        <time>2020-08-29T18:05:16.882Z</time>
      </trkpt>
      <trkpt lat="61.85528" lon="17.29897">
        <ele>11.258023</ele>
        <time>2020-08-29T18:05:20.263Z</time>
      </trkpt>
      <trkpt lat="61.85525" lon="17.29863">
        <ele>11.616413</ele>
        <time>2020-08-29T18:05:24.385Z</time>
      </trkpt>
      <trkpt lat="61.85524" lon="17.29815">
        <ele>12.109033</ele>
        <time>2020-08-29T18:05:30.005Z</time>
      </trkpt>
      <trkpt lat="61.85525" lon="17.29772">
        <ele>12.550391</ele>
        <time>2020-08-29T18:05:35.020Z</time>
      </trkpt>
      <trkpt lat="61.85528" lon="17.29608">
        <ele>14.13285</ele>
        <time>2020-08-29T18:05:53.948Z</time>
      </trkpt>
      <trkpt lat="61.85529" lon="17.29559">
        <ele>14.443353</ele>
        <time>2020-08-29T18:05:59.485Z</time>
      </trkpt>
      <trkpt lat="61.85524" lon="17.29479">
        <ele>14.951655</ele>
        <time>2020-08-29T18:06:08.377Z</time>
      </trkpt>
      <trkpt lat="61.85496" lon="17.29275">
        <ele>16.290557</ele>
        <time>2020-08-29T18:06:29.776Z</time>
      </trkpt>
      <trkpt lat="61.85482" lon="17.2899">
        <ele>17.387263</ele>
        <time>2020-08-29T18:06:57.055Z</time>
      </trkpt>
      <trkpt lat="61.85443" lon="17.28722">
        <ele>18.396555</ele>
        <time>2020-08-29T18:07:23.865Z</time>
      </trkpt>
      <trkpt lat="61.85405" lon="17.28556">
        <ele>19.048677</ele>
        <time>2020-08-29T18:07:41.537Z</time>
      </trkpt>
      <trkpt lat="61.85383" lon="17.28497">
        <ele>19.244417</ele>
        <time>2020-08-29T18:07:48.764Z</time>
      </trkpt>
      <trkpt lat="61.85365" lon="17.28459">
        <ele>19.352474</ele>
        <time>2020-08-29T18:07:53.740Z</time>
      </trkpt>
      <trkpt lat="61.8535" lon="17.28435">
        <ele>19.432922</ele>
        <time>2020-08-29T18:07:57.333Z</time>
      </trkpt>
      <trkpt lat="61.85284" lon="17.28361">
        <ele>19.755459</ele>
        <time>2020-08-29T18:08:11.607Z</time>
      </trkpt>
      <trkpt lat="61.8521" lon="17.28288">
        <ele>19.937831</ele>
        <time>2020-08-29T18:08:26.644Z</time>
      </trkpt>
      <trkpt lat="61.852" lon="17.28278">
        <ele>19.942583</ele>
        <time>2020-08-29T18:08:28.489Z</time>
      </trkpt>
      <trkpt lat="61.85177" lon="17.28252">
        <ele>19.95472</ele>
        <time>2020-08-29T18:08:33.200Z</time>
      </trkpt>
      <trkpt lat="61.85133" lon="17.28174">
        <ele>19.980845</ele>
        <time>2020-08-29T18:08:43.351Z</time>
      </trkpt>
      <trkpt lat="61.85111" lon="17.28103">
        <ele>19.999408</ele>
        <time>2020-08-29T18:08:50.565Z</time>
      </trkpt>
      <trkpt lat="61.85075" lon="17.27954">
        <ele>20.000012</ele>
        <time>2020-08-29T18:09:04.652Z</time>
      </trkpt>
      <trkpt lat="61.85045" lon="17.27886">
        <ele>20.000012</ele>
        <time>2020-08-29T18:09:12.521Z</time>
      </trkpt>
      <trkpt lat="61.85021" lon="17.27842">
        <ele>20.000012</ele>
        <time>2020-08-29T18:09:18.202Z</time>
      </trkpt>
      <trkpt lat="61.84991" lon="17.27807">
        <ele>20.000012</ele>
        <time>2020-08-29T18:09:24.249Z</time>
      </trkpt>
      <trkpt lat="61.84859" lon="17.27671">
        <ele>20.000012</ele>
        <time>2020-08-29T18:09:50.561Z</time>
      </trkpt>
      <trkpt lat="61.84817" lon="17.27604">
        <ele>19.993731</ele>
        <time>2020-08-29T18:09:59.874Z</time>
      </trkpt>
      <trkpt lat="61.84735" lon="17.27359">
        <ele>19.961208</ele>
        <time>2020-08-29T18:10:25.068Z</time>
      </trkpt>
      <trkpt lat="61.84648" lon="17.27135">
        <ele>19.792109</ele>
        <time>2020-08-29T18:10:48.941Z</time>
      </trkpt>
      <trkpt lat="61.84539" lon="17.2677">
        <ele>19.827266</ele>
        <time>2020-08-29T18:11:24.401Z</time>
      </trkpt>
      <trkpt lat="61.8452" lon="17.26727">
        <ele>19.846992</ele>
        <time>2020-08-29T18:11:29.397Z</time>
      </trkpt>
      <trkpt lat="61.84503" lon="17.26698">
        <ele>20.290532</ele>
        <time>2020-08-29T18:11:33.629Z</time>
      </trkpt>
      <trkpt lat="61.84389" lon="17.26576">
        <ele>23.107443</ele>
        <time>2020-08-29T18:12:05.081Z</time>
      </trkpt>
      <trkpt lat="61.84363" lon="17.26528">
        <ele>23.90908</ele>
        <time>2020-08-29T18:12:15.291Z</time>
      </trkpt>
      <trkpt lat="61.84339" lon="17.26488">
        <ele>25.258756</ele>
        <time>2020-08-29T18:12:24.929Z</time>
      </trkpt>
      <trkpt lat="61.84199" lon="17.26256">
        <ele>32.616988</ele>
        <time>2020-08-29T18:13:23.615Z</time>
      </trkpt>
      <trkpt lat="61.84146" lon="17.26216">
        <ele>34.249863</ele>
        <time>2020-08-29T18:13:39.995Z</time>
      </trkpt>
      <trkpt lat="61.84023" lon="17.26171">
        <ele>37.040396</ele>
        <time>2020-08-29T18:14:09.826Z</time>
      </trkpt>
      <trkpt lat="61.8399" lon="17.2617">
        <ele>37.173756</ele>
        <time>2020-08-29T18:14:16.435Z</time>
      </trkpt>
      <trkpt lat="61.83932" lon="17.26198">
        <ele>37.411937</ele>
        <time>2020-08-29T18:14:27.337Z</time>
      </trkpt>
      <trkpt lat="61.83859" lon="17.2626">
        <ele>37.308491</ele>
        <time>2020-08-29T18:14:40.386Z</time>
      </trkpt>
      <trkpt lat="61.83803" lon="17.26315">
        <ele>36.429412</ele>
        <time>2020-08-29T18:14:49.926Z</time>
      </trkpt>
      <trkpt lat="61.83695" lon="17.26412">
        <ele>34.327977</ele>
        <time>2020-08-29T18:15:06.745Z</time>
      </trkpt>
      <trkpt lat="61.83619" lon="17.26483">
        <ele>31.539973</ele>
        <time>2020-08-29T18:15:17.489Z</time>
      </trkpt>
      <trkpt lat="61.83581" lon="17.26504">
        <ele>30.234339</ele>
        <time>2020-08-29T18:15:22.420Z</time>
      </trkpt>
      <trkpt lat="61.83555" lon="17.2651">
        <ele>29.3554</ele>
        <time>2020-08-29T18:15:25.744Z</time>
      </trkpt>
      <trkpt lat="61.83537" lon="17.26504">
        <ele>28.844875</ele>
        <time>2020-08-29T18:15:27.960Z</time>
      </trkpt>
      <trkpt lat="61.83508" lon="17.26483">
        <ele>28.046319</ele>
        <time>2020-08-29T18:15:31.964Z</time>
      </trkpt>
      <trkpt lat="61.83491" lon="17.26463">
        <ele>27.559284</ele>
        <time>2020-08-29T18:15:34.419Z</time>
      </trkpt>
      <trkpt lat="61.83473" lon="17.26428">
        <ele>26.949935</ele>
        <time>2020-08-29T18:15:37.587Z</time>
      </trkpt>
      <trkpt lat="61.83445" lon="17.26331">
        <ele>25.583894</ele>
        <time>2020-08-29T18:15:44.872Z</time>
      </trkpt>
      <trkpt lat="61.83421" lon="17.26151">
        <ele>23.979564</ele>
        <time>2020-08-29T18:15:58.872Z</time>
      </trkpt>
      <trkpt lat="61.83415" lon="17.26088">
        <ele>23.637754</ele>
        <time>2020-08-29T18:16:04.123Z</time>
      </trkpt>
      <trkpt lat="61.83408" lon="17.26016">
        <ele>23.242703</ele>
        <time>2020-08-29T18:16:09.733Z</time>
      </trkpt>
      <trkpt lat="61.83399" lon="17.25928">
        <ele>22.757643</ele>
        <time>2020-08-29T18:16:16.338Z</time>
      </trkpt>
      <trkpt lat="61.83393" lon="17.25873">
        <ele>22.455837</ele>
        <time>2020-08-29T18:16:20.100Z</time>
      </trkpt>
      <trkpt lat="61.83382" lon="17.25795">
        <ele>21.006852</ele>
        <time>2020-08-29T18:16:25.393Z</time>
      </trkpt>
      <trkpt lat="61.83371" lon="17.25732">
        <ele>19.787448</ele>
        <time>2020-08-29T18:16:29.513Z</time>
      </trkpt>
      <trkpt lat="61.83359" lon="17.25683">
        <ele>18.805511</ele>
        <time>2020-08-29T18:16:32.747Z</time>
      </trkpt>
      <trkpt lat="61.83341" lon="17.25628">
        <ele>17.61442</ele>
        <time>2020-08-29T18:16:36.587Z</time>
      </trkpt>
      <trkpt lat="61.83313" lon="17.25571">
        <ele>16.122809</ele>
        <time>2020-08-29T18:16:41.327Z</time>
      </trkpt>
      <trkpt lat="61.83298" lon="17.25547">
        <ele>15.473089</ele>
        <time>2020-08-29T18:16:43.565Z</time>
      </trkpt>
      <trkpt lat="61.83274" lon="17.25513">
        <ele>14.572496</ele>
        <time>2020-08-29T18:16:47.156Z</time>
      </trkpt>
      <trkpt lat="61.83246" lon="17.25473">
        <ele>13.542212</ele>
        <time>2020-08-29T18:16:51.406Z</time>
      </trkpt>
      <trkpt lat="61.83221" lon="17.2544">
        <ele>12.652626</ele>
        <time>2020-08-29T18:16:55.132Z</time>
      </trkpt>
      <trkpt lat="61.83187" lon="17.25388">
        <ele>11.377059</ele>
        <time>2020-08-29T18:17:00.683Z</time>
      </trkpt>
      <trkpt lat="61.83146" lon="17.253">
        <ele>10.376647</ele>
        <time>2020-08-29T18:17:09.519Z</time>
      </trkpt>
      <trkpt lat="61.83111" lon="17.25209">
        <ele>11.146551</ele>
        <time>2020-08-29T18:17:20.207Z</time>
      </trkpt>
      <trkpt lat="61.83097" lon="17.25162">
        <ele>11.510548</ele>
        <time>2020-08-29T18:17:25.989Z</time>
      </trkpt>
      <trkpt lat="61.83091" lon="17.25142">
        <ele>11.667424</ele>
        <time>2020-08-29T18:17:29.124Z</time>
      </trkpt>
      <trkpt lat="61.83078" lon="17.25084">
        <ele>12.095919</ele>
        <time>2020-08-29T18:17:37.074Z</time>
      </trkpt>
      <trkpt lat="61.83066" lon="17.25029">
        <ele>12.495709</ele>
        <time>2020-08-29T18:17:44.884Z</time>
      </trkpt>
      <trkpt lat="61.83057" lon="17.24956">
        <ele>13.679098</ele>
        <time>2020-08-29T18:17:55.048Z</time>
      </trkpt>
      <trkpt lat="61.83057" lon="17.24881">
        <ele>15.158174</ele>
        <time>2020-08-29T18:18:05.691Z</time>
      </trkpt>
      <trkpt lat="61.83059" lon="17.24855">
        <ele>15.667158</ele>
        <time>2020-08-29T18:18:10.023Z</time>
      </trkpt>
      <trkpt lat="61.83067" lon="17.2476">
        <ele>17.564674</ele>
        <time>2020-08-29T18:18:24.829Z</time>
      </trkpt>
      <trkpt lat="61.83078" lon="17.24588">
        <ele>20.902749</ele>
        <time>2020-08-29T18:18:50.906Z</time>
      </trkpt>
      <trkpt lat="61.83077" lon="17.24538">
        <ele>21.839613</ele>
        <time>2020-08-29T18:18:58.897Z</time>
      </trkpt>
      <trkpt lat="61.83074" lon="17.24502">
        <ele>22.515773</ele>
        <time>2020-08-29T18:19:04.278Z</time>
      </trkpt>
      <trkpt lat="61.83062" lon="17.24408">
        <ele>24.324955</ele>
        <time>2020-08-29T18:19:17.725Z</time>
      </trkpt>
      <trkpt lat="61.83052" lon="17.24356">
        <ele>25.36382</ele>
        <time>2020-08-29T18:19:25.706Z</time>
      </trkpt>
      <trkpt lat="61.83015" lon="17.24172">
        <ele>28.741507</ele>
        <time>2020-08-29T18:19:53.794Z</time>
      </trkpt>
      <trkpt lat="61.83" lon="17.24102">
        <ele>29.886581</ele>
        <time>2020-08-29T18:20:03.949Z</time>
      </trkpt>
      <trkpt lat="61.82972" lon="17.23966">
        <ele>32.138199</ele>
        <time>2020-08-29T18:20:23.346Z</time>
      </trkpt>
      <trkpt lat="61.82966" lon="17.23911">
        <ele>32.967962</ele>
        <time>2020-08-29T18:20:30.490Z</time>
      </trkpt>
      <trkpt lat="61.82964" lon="17.23825">
        <ele>33.826379</ele>
        <time>2020-08-29T18:20:41.287Z</time>
      </trkpt>
      <trkpt lat="61.82999" lon="17.23348">
        <ele>38.07097</ele>
        <time>2020-08-29T18:21:35.607Z</time>
      </trkpt>
      <trkpt lat="61.82994" lon="17.23233">
        <ele>38.875833</ele>
        <time>2020-08-29T18:21:47.685Z</time>
      </trkpt>
      <trkpt lat="61.82966" lon="17.23044">
        <ele>39.604325</ele>
        <time>2020-08-29T18:22:06.774Z</time>
      </trkpt>
      <trkpt lat="61.82957" lon="17.23011">
        <ele>39.669839</ele>
        <time>2020-08-29T18:22:10.352Z</time>
      </trkpt>
      <trkpt lat="61.82944" lon="17.22979">
        <ele>39.741928</ele>
        <time>2020-08-29T18:22:14.036Z</time>
      </trkpt>
      <trkpt lat="61.8292" lon="17.22942">
        <ele>39.848833</ele>
        <time>2020-08-29T18:22:19.534Z</time>
      </trkpt>
      <trkpt lat="61.82803" lon="17.22839">
        <ele>39.948393</ele>
        <time>2020-08-29T18:22:41.839Z</time>
      </trkpt>
      <trkpt lat="61.82709" lon="17.22809">
        <ele>39.827789</ele>
        <time>2020-08-29T18:22:58.025Z</time>
      </trkpt>
      <trkpt lat="61.82585" lon="17.2279">
        <ele>39.799503</ele>
        <time>2020-08-29T18:23:20.134Z</time>
      </trkpt>
      <trkpt lat="61.8257" lon="17.22785">
        <ele>39.797727</ele>
        <time>2020-08-29T18:23:22.820Z</time>
      </trkpt>
      <trkpt lat="61.82553" lon="17.2278">
        <ele>39.795674</ele>
        <time>2020-08-29T18:23:25.953Z</time>
      </trkpt>
      <trkpt lat="61.82479" lon="17.22736">
        <ele>39.800149</ele>
        <time>2020-08-29T18:23:39.903Z</time>
      </trkpt>
      <trkpt lat="61.82445" lon="17.22699">
        <ele>39.808024</ele>
        <time>2020-08-29T18:23:46.836Z</time>
      </trkpt>
      <trkpt lat="61.82433" lon="17.22682">
        <ele>39.811049</ele>
        <time>2020-08-29T18:23:49.525Z</time>
      </trkpt>
      <trkpt lat="61.82415" lon="17.22657">
        <ele>39.815532</ele>
        <time>2020-08-29T18:23:53.443Z</time>
      </trkpt>
      <trkpt lat="61.82396" lon="17.22624">
        <ele>39.820683</ele>
        <time>2020-08-29T18:23:57.877Z</time>
      </trkpt>
      <trkpt lat="61.82387" lon="17.22609">
        <ele>39.822951</ele>
        <time>2020-08-29T18:23:59.822Z</time>
      </trkpt>
      <trkpt lat="61.82367" lon="17.22564">
        <ele>39.822328</ele>
        <time>2020-08-29T18:24:05.034Z</time>
      </trkpt>
      <trkpt lat="61.82288" lon="17.22368">
        <ele>39.346099</ele>
        <time>2020-08-29T18:24:25.604Z</time>
      </trkpt>
      <trkpt lat="61.82255" lon="17.22274">
        <ele>39.131156</ele>
        <time>2020-08-29T18:24:34.480Z</time>
      </trkpt>
      <trkpt lat="61.82246" lon="17.22231">
        <ele>39.041985</ele>
        <time>2020-08-29T18:24:38.071Z</time>
      </trkpt>
      <trkpt lat="61.82241" lon="17.22203">
        <ele>38.98578</ele>
        <time>2020-08-29T18:24:40.385Z</time>
      </trkpt>
      <trkpt lat="61.82232" lon="17.22155">
        <ele>38.88804</ele>
        <time>2020-08-29T18:24:44.306Z</time>
      </trkpt>
      <trkpt lat="61.8222" lon="17.22054">
        <ele>38.693881</ele>
        <time>2020-08-29T18:24:52.258Z</time>
      </trkpt>
      <trkpt lat="61.82214" lon="17.21768">
        <ele>38.122497</ele>
        <time>2020-08-29T18:25:16.232Z</time>
      </trkpt>
      <trkpt lat="61.82212" lon="17.21687">
        <ele>37.94859</ele>
        <time>2020-08-29T18:25:23.405Z</time>
      </trkpt>
      <trkpt lat="61.82207" lon="17.2161">
        <ele>37.78304</ele>
        <time>2020-08-29T18:25:29.293Z</time>
      </trkpt>
      <trkpt lat="61.82189" lon="17.21458">
        <ele>36.593566</ele>
        <time>2020-08-29T18:25:40.430Z</time>
      </trkpt>
      <trkpt lat="61.82178" lon="17.21403">
        <ele>35.734019</ele>
        <time>2020-08-29T18:25:44.494Z</time>
      </trkpt>
      <trkpt lat="61.82166" lon="17.21355">
        <ele>34.949445</ele>
        <time>2020-08-29T18:25:47.957Z</time>
      </trkpt>
      <trkpt lat="61.82125" lon="17.21217">
        <ele>32.61079</ele>
        <time>2020-08-29T18:25:57.661Z</time>
      </trkpt>
      <trkpt lat="61.82071" lon="17.21094">
        <ele>29.207656</ele>
        <time>2020-08-29T18:26:07.301Z</time>
      </trkpt>
      <trkpt lat="61.82045" lon="17.21038">
        <ele>27.499051</ele>
        <time>2020-08-29T18:26:11.823Z</time>
      </trkpt>
      <trkpt lat="61.82031" lon="17.21013">
        <ele>26.632286</ele>
        <time>2020-08-29T18:26:14.081Z</time>
      </trkpt>
      <trkpt lat="61.81966" lon="17.20904">
        <ele>23.25615</ele>
        <time>2020-08-29T18:26:24.425Z</time>
      </trkpt>
      <trkpt lat="61.8194" lon="17.20862">
        <ele>22.397727</ele>
        <time>2020-08-29T18:26:28.532Z</time>
      </trkpt>
      <trkpt lat="61.81915" lon="17.20816">
        <ele>21.515168</ele>
        <time>2020-08-29T18:26:32.932Z</time>
      </trkpt>
      <trkpt lat="61.81907" lon="17.20804">
        <ele>21.267179</ele>
        <time>2020-08-29T18:26:34.279Z</time>
      </trkpt>
      <trkpt lat="61.81885" lon="17.20768">
        <ele>20.526831</ele>
        <time>2020-08-29T18:26:38.272Z</time>
      </trkpt>
      <trkpt lat="61.81858" lon="17.20732">
        <ele>19.684704</ele>
        <time>2020-08-29T18:26:42.903Z</time>
      </trkpt>
      <trkpt lat="61.81836" lon="17.20709">
        <ele>19.064833</ele>
        <time>2020-08-29T18:26:46.455Z</time>
      </trkpt>
      <trkpt lat="61.81813" lon="17.20694">
        <ele>18.832829</ele>
        <time>2020-08-29T18:26:50.034Z</time>
      </trkpt>
      <trkpt lat="61.81733" lon="17.20669">
        <ele>18.042316</ele>
        <time>2020-08-29T18:27:02.853Z</time>
      </trkpt>
      <trkpt lat="61.81709" lon="17.20664">
        <ele>17.80783</ele>
        <time>2020-08-29T18:27:06.680Z</time>
      </trkpt>
      <trkpt lat="61.81693" lon="17.20661">
        <ele>17.654468</ele>
        <time>2020-08-29T18:27:09.125Z</time>
      </trkpt>
      <trkpt lat="61.81638" lon="17.20661">
        <ele>17.164417</ele>
        <time>2020-08-29T18:27:17.926Z</time>
      </trkpt>
      <trkpt lat="61.81608" lon="17.20675">
        <ele>16.934936</ele>
        <time>2020-08-29T18:27:22.724Z</time>
      </trkpt>
      <trkpt lat="61.81588" lon="17.20692">
        <ele>16.773399</ele>
        <time>2020-08-29T18:27:26.086Z</time>
      </trkpt>
      <trkpt lat="61.81563" lon="17.20711">
        <ele>16.574024</ele>
        <time>2020-08-29T18:27:30.277Z</time>
      </trkpt>
      <trkpt lat="61.81527" lon="17.20726">
        <ele>16.294861</ele>
        <time>2020-08-29T18:27:36.130Z</time>
      </trkpt>
      <trkpt lat="61.81422" lon="17.20712">
        <ele>15.736656</ele>
        <time>2020-08-29T18:27:53.211Z</time>
      </trkpt>
      <trkpt lat="61.81375" lon="17.20701">
        <ele>15.555477</ele>
        <time>2020-08-29T18:28:01.240Z</time>
      </trkpt>
      <trkpt lat="61.81352" lon="17.20695">
        <ele>15.466637</ele>
        <time>2020-08-29T18:28:05.236Z</time>
      </trkpt>
      <trkpt lat="61.81337" lon="17.20693">
        <ele>15.411347</ele>
        <time>2020-08-29T18:28:07.718Z</time>
      </trkpt>
      <trkpt lat="61.81272" lon="17.2068">
        <ele>15.299678</ele>
        <time>2020-08-29T18:28:19.122Z</time>
      </trkpt>
      <trkpt lat="61.81126" lon="17.20642">
        <ele>15.346425</ele>
        <time>2020-08-29T18:28:45.517Z</time>
      </trkpt>
      <trkpt lat="61.81112" lon="17.20632">
        <ele>15.430549</ele>
        <time>2020-08-29T18:28:48.232Z</time>
      </trkpt>
      <trkpt lat="61.81099" lon="17.20617">
        <ele>15.515756</ele>
        <time>2020-08-29T18:28:51.043Z</time>
      </trkpt>
      <trkpt lat="61.81089" lon="17.20605">
        <ele>15.582917</ele>
        <time>2020-08-29T18:28:53.274Z</time>
      </trkpt>
      <trkpt lat="61.81079" lon="17.20593">
        <ele>15.644066</ele>
        <time>2020-08-29T18:28:55.320Z</time>
      </trkpt>
      <trkpt lat="61.81041" lon="17.20514">
        <ele>15.943859</ele>
        <time>2020-08-29T18:29:05.689Z</time>
      </trkpt>
      <trkpt lat="61.8103" lon="17.20479">
        <ele>16.058973</ele>
        <time>2020-08-29T18:29:09.699Z</time>
      </trkpt>
      <trkpt lat="61.81012" lon="17.20392">
        <ele>16.310748</ele>
        <time>2020-08-29T18:29:18.938Z</time>
      </trkpt>
      <trkpt lat="61.8101" lon="17.20372">
        <ele>16.371403</ele>
        <time>2020-08-29T18:29:21.030Z</time>
      </trkpt>
      <trkpt lat="61.80997" lon="17.20354">
        <ele>16.54003</ele>
        <time>2020-08-29T18:29:24.347Z</time>
      </trkpt>
      <trkpt lat="61.80994" lon="17.2034">
        <ele>16.622224</ele>
        <time>2020-08-29T18:29:26.053Z</time>
      </trkpt>
      <trkpt lat="61.80989" lon="17.20274">
        <ele>16.96696</ele>
        <time>2020-08-29T18:29:32.929Z</time>
      </trkpt>
      <trkpt lat="61.80988" lon="17.20241">
        <ele>17.140642</ele>
        <time>2020-08-29T18:29:36.590Z</time>
      </trkpt>
      <trkpt lat="61.80988" lon="17.20233">
        <ele>17.181736</ele>
        <time>2020-08-29T18:29:37.467Z</time>
      </trkpt>
      <trkpt lat="61.80989" lon="17.20214">
        <ele>17.282672</ele>
        <time>2020-08-29T18:29:39.391Z</time>
      </trkpt>
      <trkpt lat="61.80991" lon="17.20197">
        <ele>17.370983</ele>
        <time>2020-08-29T18:29:41.199Z</time>
      </trkpt>
      <trkpt lat="61.80995" lon="17.20184">
        <ele>17.454798</ele>
        <time>2020-08-29T18:29:42.927Z</time>
      </trkpt>
      <trkpt lat="61.80991" lon="17.20127">
        <ele>17.751192</ele>
        <time>2020-08-29T18:29:48.762Z</time>
      </trkpt>
      <trkpt lat="61.80981" lon="17.19975">
        <ele>18.454248</ele>
        <time>2020-08-29T18:30:04.369Z</time>
      </trkpt>
      <trkpt lat="61.8098" lon="17.19963">
        <ele>18.491359</ele>
        <time>2020-08-29T18:30:05.607Z</time>
      </trkpt>
      <trkpt lat="61.80978" lon="17.1994">
        <ele>18.55821</ele>
        <time>2020-08-29T18:30:07.891Z</time>
      </trkpt>
      <trkpt lat="61.80965" lon="17.19839">
        <ele>18.86838</ele>
        <time>2020-08-29T18:30:17.878Z</time>
      </trkpt>
      <trkpt lat="61.80943" lon="17.19758">
        <ele>19.141624</ele>
        <time>2020-08-29T18:30:26.486Z</time>
      </trkpt>
      <trkpt lat="61.80935" lon="17.19734">
        <ele>19.229033</ele>
        <time>2020-08-29T18:30:29.171Z</time>
      </trkpt>
      <trkpt lat="61.80914" lon="17.19672">
        <ele>19.452346</ele>
        <time>2020-08-29T18:30:36.059Z</time>
      </trkpt>
      <trkpt lat="61.8088" lon="17.19654">
        <ele>19.450595</ele>
        <time>2020-08-29T18:30:42.808Z</time>
      </trkpt>
      <trkpt lat="61.80854" lon="17.19614">
        <ele>19.449004</ele>
        <time>2020-08-29T18:30:48.730Z</time>
      </trkpt>
      <trkpt lat="61.80851" lon="17.19607">
        <ele>19.44876</ele>
        <time>2020-08-29T18:30:49.638Z</time>
      </trkpt>
      <trkpt lat="61.80849" lon="17.19599">
        <ele>19.448543</ele>
        <time>2020-08-29T18:30:50.468Z</time>
      </trkpt>
      <trkpt lat="61.80813" lon="17.19419">
        <ele>19.443933</ele>
        <time>2020-08-29T18:31:07.006Z</time>
      </trkpt>
      <trkpt lat="61.80807" lon="17.19401">
        <ele>19.443398</ele>
        <time>2020-08-29T18:31:09.051Z</time>
      </trkpt>
      <trkpt lat="61.80799" lon="17.1936">
        <ele>19.412129</ele>
        <time>2020-08-29T18:31:12.745Z</time>
      </trkpt>
      <trkpt lat="61.80795" lon="17.19331">
        <ele>19.388974</ele>
        <time>2020-08-29T18:31:15.525Z</time>
      </trkpt>
      <trkpt lat="61.80792" lon="17.19292">
        <ele>19.358941</ele>
        <time>2020-08-29T18:31:18.852Z</time>
      </trkpt>
      <trkpt lat="61.8078" lon="17.19251">
        <ele>19.322242</ele>
        <time>2020-08-29T18:31:22.878Z</time>
      </trkpt>
      <trkpt lat="61.80774" lon="17.19203">
        <ele>19.284783</ele>
        <time>2020-08-29T18:31:27.055Z</time>
      </trkpt>
      <trkpt lat="61.80756" lon="17.19121">
        <ele>19.216567</ele>
        <time>2020-08-29T18:31:34.718Z</time>
      </trkpt>
      <trkpt lat="61.80741" lon="17.1906">
        <ele>19.164678</ele>
        <time>2020-08-29T18:31:40.465Z</time>
      </trkpt>
      <trkpt lat="61.80734" lon="17.19047">
        <ele>19.157773</ele>
        <time>2020-08-29T18:31:42.052Z</time>
      </trkpt>
      <trkpt lat="61.80701" lon="17.18964">
        <ele>19.180955</ele>
        <time>2020-08-29T18:31:51.552Z</time>
      </trkpt>
      <trkpt lat="61.8069" lon="17.18963">
        <ele>19.186096</ele>
        <time>2020-08-29T18:31:53.641Z</time>
      </trkpt>
      <trkpt lat="61.80671" lon="17.18911">
        <ele>19.200047</ele>
        <time>2020-08-29T18:31:59.174Z</time>
      </trkpt>
      <trkpt lat="61.80612" lon="17.18751">
        <ele>19.307061</ele>
        <time>2020-08-29T18:32:16.690Z</time>
      </trkpt>
      <trkpt lat="61.80562" lon="17.18637">
        <ele>19.708504</ele>
        <time>2020-08-29T18:32:30.878Z</time>
      </trkpt>
      <trkpt lat="61.8056" lon="17.1863">
        <ele>19.729678</ele>
        <time>2020-08-29T18:32:31.724Z</time>
      </trkpt>
      <trkpt lat="61.80506" lon="17.18512">
        <ele>20.154137</ele>
        <time>2020-08-29T18:32:47.170Z</time>
      </trkpt>
      <trkpt lat="61.80489" lon="17.18473">
        <ele>20.377339</ele>
        <time>2020-08-29T18:32:52.144Z</time>
      </trkpt>
      <trkpt lat="61.80466" lon="17.18409">
        <ele>20.837798</ele>
        <time>2020-08-29T18:33:00.112Z</time>
      </trkpt>
      <trkpt lat="61.80428" lon="17.18271">
        <ele>21.743406</ele>
        <time>2020-08-29T18:33:16.514Z</time>
      </trkpt>
      <trkpt lat="61.80412" lon="17.18184">
        <ele>22.2786</ele>
        <time>2020-08-29T18:33:26.543Z</time>
      </trkpt>
      <trkpt lat="61.80399" lon="17.181">
        <ele>22.966595</ele>
        <time>2020-08-29T18:33:36.183Z</time>
      </trkpt>
      <trkpt lat="61.80392" lon="17.18024">
        <ele>23.621623</ele>
        <time>2020-08-29T18:33:44.716Z</time>
      </trkpt>
      <trkpt lat="61.80388" lon="17.17963">
        <ele>24.148647</ele>
        <time>2020-08-29T18:33:51.913Z</time>
      </trkpt>
      <trkpt lat="61.80386" lon="17.17847">
        <ele>25.126853</ele>
        <time>2020-08-29T18:34:04.886Z</time>
      </trkpt>
      <trkpt lat="61.80386" lon="17.17837">
        <ele>25.215674</ele>
        <time>2020-08-29T18:34:06.290Z</time>
      </trkpt>
      <trkpt lat="61.8039" lon="17.17811">
        <ele>25.445601</ele>
        <time>2020-08-29T18:34:09.355Z</time>
      </trkpt>
      <trkpt lat="61.804" lon="17.17764">
        <ele>25.845914</ele>
        <time>2020-08-29T18:34:14.978Z</time>
      </trkpt>
      <trkpt lat="61.80415" lon="17.17731">
        <ele>26.202286</ele>
        <time>2020-08-29T18:34:19.905Z</time>
      </trkpt>
      <trkpt lat="61.8042" lon="17.17721">
        <ele>26.307233</ele>
        <time>2020-08-29T18:34:21.452Z</time>
      </trkpt>
      <trkpt lat="61.80424" lon="17.17702">
        <ele>26.473639</ele>
        <time>2020-08-29T18:34:24.033Z</time>
      </trkpt>
      <trkpt lat="61.80413" lon="17.17687">
        <ele>26.678573</ele>
        <time>2020-08-29T18:34:26.871Z</time>
      </trkpt>
      <trkpt lat="61.80347" lon="17.17582">
        <ele>28.02086</ele>
        <time>2020-08-29T18:34:45.695Z</time>
      </trkpt>
      <trkpt lat="61.80253" lon="17.17433">
        <ele>30.089695</ele>
        <time>2020-08-29T18:35:12.524Z</time>
      </trkpt>
      <trkpt lat="61.80206" lon="17.17369">
        <ele>31.117178</ele>
        <time>2020-08-29T18:35:26.070Z</time>
      </trkpt>
      <trkpt lat="61.80157" lon="17.17309">
        <ele>32.153623</ele>
        <time>2020-08-29T18:35:39.867Z</time>
      </trkpt>
      <trkpt lat="61.80104" lon="17.17258">
        <ele>33.250414</ele>
        <time>2020-08-29T18:35:54.096Z</time>
      </trkpt>
      <trkpt lat="61.80038" lon="17.17204">
        <ele>34.584376</ele>
        <time>2020-08-29T18:36:11.188Z</time>
      </trkpt>
      <trkpt lat="61.79957" lon="17.17138">
        <ele>35.852023</ele>
        <time>2020-08-29T18:36:30.677Z</time>
      </trkpt>
      <trkpt lat="61.79904" lon="17.17095">
        <ele>36.541866</ele>
        <time>2020-08-29T18:36:42.844Z</time>
      </trkpt>
      <trkpt lat="61.79843" lon="17.17049">
        <ele>37.343353</ele>
        <time>2020-08-29T18:36:56.639Z</time>
      </trkpt>
      <trkpt lat="61.79803" lon="17.17019">
        <ele>37.916169</ele>
        <time>2020-08-29T18:37:05.574Z</time>
      </trkpt>
      <trkpt lat="61.7976" lon="17.16983">
        <ele>38.540437</ele>
        <time>2020-08-29T18:37:15.383Z</time>
      </trkpt>
      <trkpt lat="61.79721" lon="17.16946">
        <ele>39.116236</ele>
        <time>2020-08-29T18:37:24.730Z</time>
      </trkpt>
      <trkpt lat="61.79647" lon="17.16855">
        <ele>40.809867</ele>
        <time>2020-08-29T18:37:44.929Z</time>
      </trkpt>
      <trkpt lat="61.79571" lon="17.16733">
        <ele>43.537324</ele>
        <time>2020-08-29T18:38:10.237Z</time>
      </trkpt>
      <trkpt lat="61.79519" lon="17.16626">
        <ele>45.922828</ele>
        <time>2020-08-29T18:38:32.197Z</time>
      </trkpt>
      <trkpt lat="61.7947" lon="17.16504">
        <ele>49.049477</ele>
        <time>2020-08-29T18:38:56.204Z</time>
      </trkpt>
      <trkpt lat="61.79425" lon="17.16363">
        <ele>52.407548</ele>
        <time>2020-08-29T18:39:21.973Z</time>
      </trkpt>
      <trkpt lat="61.79383" lon="17.16196">
        <ele>55.007511</ele>
        <time>2020-08-29T18:39:48.299Z</time>
      </trkpt>
      <trkpt lat="61.79312" lon="17.15881">
        <ele>58.442215</ele>
        <time>2020-08-29T18:40:28.571Z</time>
      </trkpt>
      <trkpt lat="61.79216" lon="17.15483">
        <ele>59.603657</ele>
        <time>2020-08-29T18:41:08.486Z</time>
      </trkpt>
      <trkpt lat="61.79186" lon="17.15351">
        <ele>59.63666</ele>
        <time>2020-08-29T18:41:20.285Z</time>
      </trkpt>
      <trkpt lat="61.79126" lon="17.15091">
        <ele>59.102534</ele>
        <time>2020-08-29T18:41:43.162Z</time>
      </trkpt>
      <trkpt lat="61.79112" lon="17.15031">
        <ele>58.973564</ele>
        <time>2020-08-29T18:41:48.319Z</time>
      </trkpt>
      <trkpt lat="61.79064" lon="17.1483">
        <ele>58.600541</ele>
        <time>2020-08-29T18:42:06.053Z</time>
      </trkpt>
      <trkpt lat="61.78965" lon="17.14413">
        <ele>58.364611</ele>
        <time>2020-08-29T18:42:43.897Z</time>
      </trkpt>
      <trkpt lat="61.78929" lon="17.14287">
        <ele>58.581341</ele>
        <time>2020-08-29T18:42:57.770Z</time>
      </trkpt>
      <trkpt lat="61.78891" lon="17.14173">
        <ele>59.22386</ele>
        <time>2020-08-29T18:43:11.707Z</time>
      </trkpt>
      <trkpt lat="61.78848" lon="17.14062">
        <ele>59.889897</ele>
        <time>2020-08-29T18:43:26.638Z</time>
      </trkpt>
      <trkpt lat="61.78802" lon="17.13959">
        <ele>60.197507</ele>
        <time>2020-08-29T18:43:40.556Z</time>
      </trkpt>
      <trkpt lat="61.78753" lon="17.13869">
        <ele>60.270067</ele>
        <time>2020-08-29T18:43:52.691Z</time>
      </trkpt>
      <trkpt lat="61.78708" lon="17.13792">
        <ele>60.336025</ele>
        <time>2020-08-29T18:44:02.252Z</time>
      </trkpt>
      <trkpt lat="61.78671" lon="17.13737">
        <ele>60.219917</ele>
        <time>2020-08-29T18:44:09.522Z</time>
      </trkpt>
      <trkpt lat="61.78633" lon="17.13688">
        <ele>60.0046</ele>
        <time>2020-08-29T18:44:16.662Z</time>
      </trkpt>
      <trkpt lat="61.78626" lon="17.13699">
        <ele>59.964607</ele>
        <time>2020-08-29T18:44:18.065Z</time>
      </trkpt>
      <trkpt lat="61.78621" lon="17.13706">
        <ele>59.934045</ele>
        <time>2020-08-29T18:44:19.115Z</time>
      </trkpt>
      <trkpt lat="61.78598" lon="17.13716">
        <ele>59.822947</ele>
        <time>2020-08-29T18:44:22.998Z</time>
      </trkpt>
      <trkpt lat="61.78557" lon="17.13736">
        <ele>59.622238</ele>
        <time>2020-08-29T18:44:30.427Z</time>
      </trkpt>
      <trkpt lat="61.78509" lon="17.13721">
        <ele>59.453675</ele>
        <time>2020-08-29T18:44:39.396Z</time>
      </trkpt>
      <trkpt lat="61.78428" lon="17.13661">
        <ele>59.305276</ele>
        <time>2020-08-29T18:44:55.517Z</time>
      </trkpt>
      <trkpt lat="61.78403" lon="17.13655">
        <ele>59.260834</ele>
        <time>2020-08-29T18:45:00.320Z</time>
      </trkpt>
      <trkpt lat="61.78146" lon="17.13754">
        <ele>57.519696</ele>
        <time>2020-08-29T18:45:44.572Z</time>
      </trkpt>
      <trkpt lat="61.78015" lon="17.1376">
        <ele>55.510356</ele>
        <time>2020-08-29T18:46:04.919Z</time>
      </trkpt>
      <trkpt lat="61.77967" lon="17.1375">
        <ele>53.975377</ele>
        <time>2020-08-29T18:46:11.632Z</time>
      </trkpt>
      <trkpt lat="61.77883" lon="17.13732">
        <ele>50.620168</ele>
        <time>2020-08-29T18:46:22.847Z</time>
      </trkpt>
      <trkpt lat="61.77837" lon="17.13723">
        <ele>48.796959</ele>
        <time>2020-08-29T18:46:28.711Z</time>
      </trkpt>
      <trkpt lat="61.77819" lon="17.1372">
        <ele>48.111283</ele>
        <time>2020-08-29T18:46:30.957Z</time>
      </trkpt>
      <trkpt lat="61.77807" lon="17.13717">
        <ele>47.603831</ele>
        <time>2020-08-29T18:46:32.523Z</time>
      </trkpt>
      <trkpt lat="61.77758" lon="17.13708">
        <ele>45.674627</ele>
        <time>2020-08-29T18:46:38.831Z</time>
      </trkpt>
      <trkpt lat="61.7772" lon="17.13696">
        <ele>44.149795</ele>
        <time>2020-08-29T18:46:43.854Z</time>
      </trkpt>
      <trkpt lat="61.77703" lon="17.13688">
        <ele>43.493066</ele>
        <time>2020-08-29T18:46:45.979Z</time>
      </trkpt>
      <trkpt lat="61.77637" lon="17.1364">
        <ele>41.053955</ele>
        <time>2020-08-29T18:46:55.734Z</time>
      </trkpt>
      <trkpt lat="61.77578" lon="17.13584">
        <ele>40.75917</ele>
        <time>2020-08-29T18:47:05.628Z</time>
      </trkpt>
      <trkpt lat="61.77523" lon="17.13507">
        <ele>40.457989</ele>
        <time>2020-08-29T18:47:18.073Z</time>
      </trkpt>
      <trkpt lat="61.77446" lon="17.1334">
        <ele>41.846444</ele>
        <time>2020-08-29T18:47:43.870Z</time>
      </trkpt>
      <trkpt lat="61.77435" lon="17.13308">
        <ele>42.250758</ele>
        <time>2020-08-29T18:47:48.587Z</time>
      </trkpt>
      <trkpt lat="61.77411" lon="17.1323">
        <ele>43.238343</ele>
        <time>2020-08-29T18:48:00.266Z</time>
      </trkpt>
      <trkpt lat="61.77329" lon="17.12915">
        <ele>47.747569</ele>
        <time>2020-08-29T18:48:49.901Z</time>
      </trkpt>
      <trkpt lat="61.773" lon="17.12827">
        <ele>49.162168</ele>
        <time>2020-08-29T18:49:03.120Z</time>
      </trkpt>
      <trkpt lat="61.77272" lon="17.12743">
        <ele>49.133894</ele>
        <time>2020-08-29T18:49:14.608Z</time>
      </trkpt>
      <trkpt lat="61.77265" lon="17.12715">
        <ele>49.069695</ele>
        <time>2020-08-29T18:49:17.646Z</time>
      </trkpt>
      <trkpt lat="61.77256" lon="17.12664">
        <ele>48.958779</ele>
        <time>2020-08-29T18:49:22.861Z</time>
      </trkpt>
      <trkpt lat="61.77232" lon="17.12669">
        <ele>48.857056</ele>
        <time>2020-08-29T18:49:26.764Z</time>
      </trkpt>
      <trkpt lat="61.77178" lon="17.12666">
        <ele>48.624336</ele>
        <time>2020-08-29T18:49:34.762Z</time>
      </trkpt>
      <trkpt lat="61.7708" lon="17.12618">
        <ele>45.296781</ele>
        <time>2020-08-29T18:49:47.583Z</time>
      </trkpt>
      <trkpt lat="61.76857" lon="17.12496">
        <ele>36.466096</ele>
        <time>2020-08-29T18:50:15.942Z</time>
      </trkpt>
      <trkpt lat="61.76761" lon="17.12447">
        <ele>34.636614</ele>
        <time>2020-08-29T18:50:30.022Z</time>
      </trkpt>
      <trkpt lat="61.76731" lon="17.12434">
        <ele>34.599693</ele>
        <time>2020-08-29T18:50:35.224Z</time>
      </trkpt>
      <trkpt lat="61.76485" lon="17.12328">
        <ele>35.321988</ele>
        <time>2020-08-29T18:51:29.000Z</time>
      </trkpt>
      <trkpt lat="61.76122" lon="17.12251">
        <ele>29.710968</ele>
        <time>2020-08-29T18:52:21.990Z</time>
      </trkpt>
      <trkpt lat="61.76067" lon="17.12239">
        <ele>28.373374</ele>
        <time>2020-08-29T18:52:29.156Z</time>
      </trkpt>
      <trkpt lat="61.76018" lon="17.12229">
        <ele>27.040424</ele>
        <time>2020-08-29T18:52:35.553Z</time>
      </trkpt>
      <trkpt lat="61.7601" lon="17.12228">
        <ele>26.822163</ele>
        <time>2020-08-29T18:52:36.576Z</time>
      </trkpt>
      <trkpt lat="61.75794" lon="17.12185">
        <ele>22.211118</ele>
        <time>2020-08-29T18:53:06.356Z</time>
      </trkpt>
      <trkpt lat="61.75746" lon="17.12174">
        <ele>21.370373</ele>
        <time>2020-08-29T18:53:14.168Z</time>
      </trkpt>
      <trkpt lat="61.7564" lon="17.12156">
        <ele>21.73683</ele>
        <time>2020-08-29T18:53:33.481Z</time>
      </trkpt>
      <trkpt lat="61.75571" lon="17.12144">
        <ele>22.013197</ele>
        <time>2020-08-29T18:53:47.945Z</time>
      </trkpt>
      <trkpt lat="61.75554" lon="17.12062">
        <ele>22.472503</ele>
        <time>2020-08-29T18:53:57.420Z</time>
      </trkpt>
      <trkpt lat="61.75533" lon="17.11966">
        <ele>23.091854</ele>
        <time>2020-08-29T18:54:08.875Z</time>
      </trkpt>
      <trkpt lat="61.75523" lon="17.11918">
        <ele>23.405226</ele>
        <time>2020-08-29T18:54:14.641Z</time>
      </trkpt>
      <trkpt lat="61.75509" lon="17.11853">
        <ele>23.820832</ele>
        <time>2020-08-29T18:54:22.342Z</time>
      </trkpt>
      <trkpt lat="61.75502" lon="17.11825">
        <ele>24.00738</ele>
        <time>2020-08-29T18:54:25.864Z</time>
      </trkpt>
      <trkpt lat="61.75488" lon="17.11818">
        <ele>24.185277</ele>
        <time>2020-08-29T18:54:29.107Z</time>
      </trkpt>
      <trkpt lat="61.75475" lon="17.11821">
        <ele>24.337441</ele>
        <time>2020-08-29T18:54:31.814Z</time>
      </trkpt>
      <trkpt lat="61.7547" lon="17.11825">
        <ele>24.403653</ele>
        <time>2020-08-29T18:54:33.041Z</time>
      </trkpt>
      <trkpt lat="61.75479" lon="17.11795">
        <ele>24.609135</ele>
        <time>2020-08-29T18:54:36.708Z</time>
      </trkpt>
      <trkpt lat="61.75413" lon="17.11763">
        <ele>25.449983</ele>
        <time>2020-08-29T18:54:51.816Z</time>
      </trkpt>
      <trkpt lat="61.75386" lon="17.1175">
        <ele>25.797617</ele>
        <time>2020-08-29T18:54:58.091Z</time>
      </trkpt>
      <trkpt lat="61.75314" lon="17.11714">
        <ele>26.716068</ele>
        <time>2020-08-29T18:55:14.901Z</time>
      </trkpt>
      <trkpt lat="61.75302" lon="17.11703">
        <ele>26.872374</ele>
        <time>2020-08-29T18:55:17.959Z</time>
      </trkpt>
      <trkpt lat="61.75243" lon="17.1163">
        <ele>27.682005</ele>
        <time>2020-08-29T18:55:33.390Z</time>
      </trkpt>
      <trkpt lat="61.75176" lon="17.11522">
        <ele>28.668689</ele>
        <time>2020-08-29T18:55:52.136Z</time>
      </trkpt>
      <trkpt lat="61.75154" lon="17.11485">
        <ele>28.868736</ele>
        <time>2020-08-29T18:55:58.159Z</time>
      </trkpt>
      <trkpt lat="61.75107" lon="17.11412">
        <ele>29.28554</ele>
        <time>2020-08-29T18:56:10.085Z</time>
      </trkpt>
      <trkpt lat="61.75098" lon="17.11395">
        <ele>29.370444</ele>
        <time>2020-08-29T18:56:12.469Z</time>
      </trkpt>
      <trkpt lat="61.75073" lon="17.11308">
        <ele>29.717893</ele>
        <time>2020-08-29T18:56:21.953Z</time>
      </trkpt>
      <trkpt lat="61.75037" lon="17.11248">
        <ele>30.057352</ele>
        <time>2020-08-29T18:56:30.874Z</time>
      </trkpt>
      <trkpt lat="61.74987" lon="17.11191">
        <ele>30.506086</ele>
        <time>2020-08-29T18:56:41.792Z</time>
      </trkpt>
      <trkpt lat="61.74954" lon="17.11156">
        <ele>30.8009</ele>
        <time>2020-08-29T18:56:49.211Z</time>
      </trkpt>
      <trkpt lat="61.74932" lon="17.11135">
        <ele>30.995579</ele>
        <time>2020-08-29T18:56:54.336Z</time>
      </trkpt>
      <trkpt lat="61.74852" lon="17.11039">
        <ele>32.003376</ele>
        <time>2020-08-29T18:57:13.997Z</time>
      </trkpt>
      <trkpt lat="61.74806" lon="17.10983">
        <ele>32.757924</ele>
        <time>2020-08-29T18:57:26.436Z</time>
      </trkpt>
      <trkpt lat="61.74758" lon="17.10923">
        <ele>33.54901</ele>
        <time>2020-08-29T18:57:38.987Z</time>
      </trkpt>
      <trkpt lat="61.74728" lon="17.10892">
        <ele>33.983469</ele>
        <time>2020-08-29T18:57:46.275Z</time>
      </trkpt>
      <trkpt lat="61.74718" lon="17.10882">
        <ele>34.096106</ele>
        <time>2020-08-29T18:57:48.880Z</time>
      </trkpt>
      <trkpt lat="61.74703" lon="17.10874">
        <ele>34.260779</ele>
        <time>2020-08-29T18:57:52.395Z</time>
      </trkpt>
      <trkpt lat="61.74651" lon="17.10856">
        <ele>34.79379</ele>
        <time>2020-08-29T18:58:03.553Z</time>
      </trkpt>
      <trkpt lat="61.74634" lon="17.10775">
        <ele>35.2218</ele>
        <time>2020-08-29T18:58:12.184Z</time>
      </trkpt>
      <trkpt lat="61.74606" lon="17.10701">
        <ele>35.682772</ele>
        <time>2020-08-29T18:58:21.395Z</time>
      </trkpt>
      <trkpt lat="61.74514" lon="17.10578">
        <ele>36.588936</ele>
        <time>2020-08-29T18:58:43.434Z</time>
      </trkpt>
      <trkpt lat="61.74497" lon="17.10568">
        <ele>36.73422</ele>
        <time>2020-08-29T18:58:46.913Z</time>
      </trkpt>
      <trkpt lat="61.74493" lon="17.10584">
        <ele>36.803213</ele>
        <time>2020-08-29T18:58:48.692Z</time>
      </trkpt>
      <trkpt lat="61.74487" lon="17.10607">
        <ele>36.904596</ele>
        <time>2020-08-29T18:58:51.521Z</time>
      </trkpt>
      <trkpt lat="61.74456" lon="17.10673">
        <ele>37.218197</ele>
        <time>2020-08-29T18:59:00.974Z</time>
      </trkpt>
      <trkpt lat="61.7443" lon="17.10782">
        <ele>37.217397</ele>
        <time>2020-08-29T18:59:13.359Z</time>
      </trkpt>
      <trkpt lat="61.74403" lon="17.10854">
        <ele>37.216806</ele>
        <time>2020-08-29T18:59:22.398Z</time>
      </trkpt>
      <trkpt lat="61.74387" lon="17.10891">
        <ele>37.216474</ele>
        <time>2020-08-29T18:59:27.015Z</time>
      </trkpt>
      <trkpt lat="61.7438" lon="17.10882">
        <ele>37.21636</ele>
        <time>2020-08-29T18:59:28.476Z</time>
      </trkpt>
      <trkpt lat="61.74379" lon="17.10882">
        <ele>37.216352</ele>
        <time>2020-08-29T18:59:28.645Z</time>
      </trkpt>
      <trkpt lat="61.74312" lon="17.10789">
        <ele>35.749298</ele>
        <time>2020-08-29T18:59:40.797Z</time>
      </trkpt>
      <trkpt lat="61.74287" lon="17.10715">
        <ele>34.175342</ele>
        <time>2020-08-29T18:59:46.690Z</time>
      </trkpt>
      <trkpt lat="61.74276" lon="17.10707">
        <ele>33.741432</ele>
        <time>2020-08-29T18:59:48.308Z</time>
      </trkpt>
      <trkpt lat="61.74246" lon="17.1069">
        <ele>32.597718</ele>
        <time>2020-08-29T18:59:52.310Z</time>
      </trkpt>
      <trkpt lat="61.74225" lon="17.10676">
        <ele>31.78947</ele>
        <time>2020-08-29T18:59:55.075Z</time>
      </trkpt>
      <trkpt lat="61.7421" lon="17.10664">
        <ele>31.193441</ele>
        <time>2020-08-29T18:59:57.152Z</time>
      </trkpt>
      <trkpt lat="61.74196" lon="17.10656">
        <ele>30.674614</ele>
        <time>2020-08-29T18:59:58.926Z</time>
      </trkpt>
      <trkpt lat="61.74192" lon="17.10641">
        <ele>30.313864</ele>
        <time>2020-08-29T18:59:59.900Z</time>
      </trkpt>
      <trkpt lat="61.7418" lon="17.10615">
        <ele>29.466932</ele>
        <time>2020-08-29T19:00:02.129Z</time>
      </trkpt>
      <trkpt lat="61.74164" lon="17.10619">
        <ele>28.690302</ele>
        <time>2020-08-29T19:00:04.129Z</time>
      </trkpt>
      <trkpt lat="61.74145" lon="17.10646">
        <ele>27.621352</ele>
        <time>2020-08-29T19:00:06.913Z</time>
      </trkpt>
      <trkpt lat="61.74144" lon="17.10636">
        <ele>27.38959</ele>
        <time>2020-08-29T19:00:07.515Z</time>
      </trkpt>
      <trkpt lat="61.74144" lon="17.10615">
        <ele>26.914106</ele>
        <time>2020-08-29T19:00:08.749Z</time>
      </trkpt>
      <trkpt lat="61.74125" lon="17.10617">
        <ele>25.990358</ele>
        <time>2020-08-29T19:00:11.168Z</time>
      </trkpt>
      <trkpt lat="61.74112" lon="17.10611">
        <ele>25.392838</ele>
        <time>2020-08-29T19:00:12.749Z</time>
      </trkpt>
      <trkpt lat="61.74107" lon="17.10594">
        <ele>24.928555</ele>
        <time>2020-08-29T19:00:13.986Z</time>
      </trkpt>
      <trkpt lat="61.74104" lon="17.10488">
        <ele>22.521758</ele>
        <time>2020-08-29T19:00:20.529Z</time>
      </trkpt>
      <trkpt lat="61.74102" lon="17.1048">
        <ele>22.305412</ele>
        <time>2020-08-29T19:00:21.150Z</time>
      </trkpt>
      <trkpt lat="61.74095" lon="17.10453">
        <ele>21.852362</ele>
        <time>2020-08-29T19:00:23.343Z</time>
      </trkpt>
      <trkpt lat="61.74068" lon="17.10442">
        <ele>21.359448</ele>
        <time>2020-08-29T19:00:27.077Z</time>
      </trkpt>
      <trkpt lat="61.73991" lon="17.1047">
        <ele>19.944185</ele>
        <time>2020-08-29T19:00:38.959Z</time>
      </trkpt>
      <trkpt lat="61.73971" lon="17.10497">
        <ele>19.526322</ele>
        <time>2020-08-29T19:00:42.560Z</time>
      </trkpt>
      <trkpt lat="61.73949" lon="17.1051">
        <ele>19.102376</ele>
        <time>2020-08-29T19:00:46.511Z</time>
      </trkpt>
      <trkpt lat="61.73937" lon="17.10515">
        <ele>18.890663</ele>
        <time>2020-08-29T19:00:48.453Z</time>
      </trkpt>
      <trkpt lat="61.73934" lon="17.10528">
        <ele>18.766031</ele>
        <time>2020-08-29T19:00:49.619Z</time>
      </trkpt>
      <trkpt lat="61.73933" lon="17.10532">
        <ele>18.748228</ele>
        <time>2020-08-29T19:00:49.996Z</time>
      </trkpt>
      <trkpt lat="61.7393" lon="17.10545">
        <ele>18.711084</ele>
        <time>2020-08-29T19:00:51.266Z</time>
      </trkpt>
      <trkpt lat="61.73927" lon="17.10558">
        <ele>18.676501</ele>
        <time>2020-08-29T19:00:52.295Z</time>
      </trkpt>
      <trkpt lat="61.73845" lon="17.10509">
        <ele>18.240465</ele>
        <time>2020-08-29T19:01:06.021Z</time>
      </trkpt>
      <trkpt lat="61.73841" lon="17.10515">
        <ele>18.213839</ele>
        <time>2020-08-29T19:01:06.853Z</time>
      </trkpt>
      <trkpt lat="61.7383" lon="17.10507">
        <ele>18.152003</ele>
        <time>2020-08-29T19:01:09.041Z</time>
      </trkpt>
      <trkpt lat="61.73821" lon="17.10501">
        <ele>18.102328</ele>
        <time>2020-08-29T19:01:10.641Z</time>
      </trkpt>
      <trkpt lat="61.73817" lon="17.10488">
        <ele>18.064489</ele>
        <time>2020-08-29T19:01:11.904Z</time>
      </trkpt>
      <trkpt lat="61.73751" lon="17.10427">
        <ele>17.83561</ele>
        <time>2020-08-29T19:01:24.708Z</time>
      </trkpt>
      <trkpt lat="61.73581" lon="17.10221">
        <ele>18.111653</ele>
        <time>2020-08-29T19:02:01.856Z</time>
      </trkpt>
      <trkpt lat="61.7352" lon="17.10158">
        <ele>18.473863</ele>
        <time>2020-08-29T19:02:15.687Z</time>
      </trkpt>
      <trkpt lat="61.73483" lon="17.10128">
        <ele>18.684551</ele>
        <time>2020-08-29T19:02:23.983Z</time>
      </trkpt>
      <trkpt lat="61.73446" lon="17.10103">
        <ele>18.923066</ele>
        <time>2020-08-29T19:02:32.201Z</time>
      </trkpt>
      <trkpt lat="61.73435" lon="17.101">
        <ele>19.018023</ele>
        <time>2020-08-29T19:02:34.552Z</time>
      </trkpt>
      <trkpt lat="61.73425" lon="17.10107">
        <ele>19.109671</ele>
        <time>2020-08-29T19:02:36.741Z</time>
      </trkpt>
      <trkpt lat="61.7342" lon="17.1012">
        <ele>19.174767</ele>
        <time>2020-08-29T19:02:38.311Z</time>
      </trkpt>
      <trkpt lat="61.73418" lon="17.10115">
        <ele>19.206018</ele>
        <time>2020-08-29T19:02:39.072Z</time>
      </trkpt>
      <trkpt lat="61.7341" lon="17.1011">
        <ele>19.279663</ele>
        <time>2020-08-29T19:02:40.846Z</time>
      </trkpt>
      <trkpt lat="61.73405" lon="17.1011">
        <ele>19.321652</ele>
        <time>2020-08-29T19:02:41.918Z</time>
      </trkpt>
      <trkpt lat="61.73406" lon="17.10086">
        <ele>19.422731</ele>
        <time>2020-08-29T19:02:44.327Z</time>
      </trkpt>
      <trkpt lat="61.73401" lon="17.10069">
        <ele>19.504006</ele>
        <time>2020-08-29T19:02:46.278Z</time>
      </trkpt>
      <trkpt lat="61.73396" lon="17.10059">
        <ele>19.561417</ele>
        <time>2020-08-29T19:02:47.682Z</time>
      </trkpt>
      <trkpt lat="61.7338" lon="17.10042">
        <ele>19.717699</ele>
        <time>2020-08-29T19:02:51.317Z</time>
      </trkpt>
      <trkpt lat="61.7337" lon="17.10036">
        <ele>19.807878</ele>
        <time>2020-08-29T19:02:53.442Z</time>
      </trkpt>
      <trkpt lat="61.73363" lon="17.10033">
        <ele>19.870004</ele>
        <time>2020-08-29T19:02:54.891Z</time>
      </trkpt>
      <trkpt lat="61.73318" lon="17.10016">
        <ele>20.273241</ele>
        <time>2020-08-29T19:03:04.511Z</time>
      </trkpt>
      <trkpt lat="61.73236" lon="17.10022">
        <ele>21.282362</ele>
        <time>2020-08-29T19:03:22.103Z</time>
      </trkpt>
      <trkpt lat="61.73118" lon="17.10063">
        <ele>22.83308</ele>
        <time>2020-08-29T19:03:49.233Z</time>
      </trkpt>
      <trkpt lat="61.73105" lon="17.10062">
        <ele>22.92589</ele>
        <time>2020-08-29T19:03:52.192Z</time>
      </trkpt>
      <trkpt lat="61.73065" lon="17.10077">
        <ele>23.22148</ele>
        <time>2020-08-29T19:04:01.222Z</time>
      </trkpt>
      <trkpt lat="61.72954" lon="17.10107">
        <ele>24.039447</ele>
        <time>2020-08-29T19:04:23.309Z</time>
      </trkpt>
      <trkpt lat="61.72939" lon="17.1011">
        <ele>24.016261</ele>
        <time>2020-08-29T19:04:25.946Z</time>
      </trkpt>
      <trkpt lat="61.72911" lon="17.10123">
        <ele>23.656605</ele>
        <time>2020-08-29T19:04:30.642Z</time>
      </trkpt>
      <trkpt lat="61.72874" lon="17.10137">
        <ele>23.178767</ele>
        <time>2020-08-29T19:04:36.388Z</time>
      </trkpt>
      <trkpt lat="61.72842" lon="17.10147">
        <ele>22.761422</ele>
        <time>2020-08-29T19:04:41.202Z</time>
      </trkpt>
      <trkpt lat="61.72738" lon="17.10185">
        <ele>21.105016</ele>
        <time>2020-08-29T19:04:56.232Z</time>
      </trkpt>
      <trkpt lat="61.72736" lon="17.10188">
        <ele>21.049086</ele>
        <time>2020-08-29T19:04:56.512Z</time>
      </trkpt>
      <trkpt lat="61.72729" lon="17.10187">
        <ele>20.890315</ele>
        <time>2020-08-29T19:04:57.448Z</time>
      </trkpt>
      <trkpt lat="61.72727" lon="17.10184">
        <ele>20.842843</ele>
        <time>2020-08-29T19:04:57.701Z</time>
      </trkpt>
      <trkpt lat="61.72677" lon="17.10201">
        <ele>19.66826</ele>
        <time>2020-08-29T19:05:04.815Z</time>
      </trkpt>
      <trkpt lat="61.7267" lon="17.10215">
        <ele>19.438132</ele>
        <time>2020-08-29T19:05:06.227Z</time>
      </trkpt>
      <trkpt lat="61.72663" lon="17.10218">
        <ele>19.272928</ele>
        <time>2020-08-29T19:05:07.129Z</time>
      </trkpt>
      <trkpt lat="61.72654" lon="17.1022">
        <ele>19.07437</ele>
        <time>2020-08-29T19:05:08.294Z</time>
      </trkpt>
      <trkpt lat="61.72645" lon="17.10208">
        <ele>18.825634</ele>
        <time>2020-08-29T19:05:09.875Z</time>
      </trkpt>
      <trkpt lat="61.72614" lon="17.10221">
        <ele>18.105585</ele>
        <time>2020-08-29T19:05:14.111Z</time>
      </trkpt>
      <trkpt lat="61.7255" lon="17.10244">
        <ele>16.771082</ele>
        <time>2020-08-29T19:05:23.025Z</time>
      </trkpt>
      <trkpt lat="61.72501" lon="17.10259">
        <ele>15.809108</ele>
        <time>2020-08-29T19:05:29.969Z</time>
      </trkpt>
      <trkpt lat="61.72479" lon="17.10261">
        <ele>15.370023</ele>
        <time>2020-08-29T19:05:33.217Z</time>
      </trkpt>
      <trkpt lat="61.72455" lon="17.10257">
        <ele>14.900299</ele>
        <time>2020-08-29T19:05:36.592Z</time>
      </trkpt>
      <trkpt lat="61.72438" lon="17.10238">
        <ele>14.519283</ele>
        <time>2020-08-29T19:05:39.406Z</time>
      </trkpt>
      <trkpt lat="61.72379" lon="17.1018">
        <ele>13.501941</ele>
        <time>2020-08-29T19:05:48.868Z</time>
      </trkpt>
      <trkpt lat="61.72338" lon="17.1015">
        <ele>12.883446</ele>
        <time>2020-08-29T19:05:55.367Z</time>
      </trkpt>
      <trkpt lat="61.72292" lon="17.10121">
        <ele>12.206766</ele>
        <time>2020-08-29T19:06:02.522Z</time>
      </trkpt>
      <trkpt lat="61.72275" lon="17.10109">
        <ele>11.942489</ele>
        <time>2020-08-29T19:06:05.370Z</time>
      </trkpt>
      <trkpt lat="61.72206" lon="17.10063">
        <ele>11.040699</ele>
        <time>2020-08-29T19:06:16.097Z</time>
      </trkpt>
      <trkpt lat="61.72139" lon="17.10003">
        <ele>10.186438</ele>
        <time>2020-08-29T19:06:27.049Z</time>
      </trkpt>
      <trkpt lat="61.72139" lon="17.10003">
        <ele>10.180972</ele>
        <time>2020-08-29T19:06:27.111Z</time>
      </trkpt>
      <trkpt lat="61.72072" lon="17.09931">
        <ele>9.366241</ele>
        <time>2020-08-29T19:06:38.727Z</time>
      </trkpt>
      <trkpt lat="61.72008" lon="17.09862">
        <ele>8.798837</ele>
        <time>2020-08-29T19:06:50.158Z</time>
      </trkpt>
      <trkpt lat="61.71936" lon="17.09789">
        <ele>8.178011</ele>
        <time>2020-08-29T19:07:02.991Z</time>
      </trkpt>
      <trkpt lat="61.7193" lon="17.09789">
        <ele>8.130295</ele>
        <time>2020-08-29T19:07:03.937Z</time>
      </trkpt>
      <trkpt lat="61.7192" lon="17.09782">
        <ele>8.052022</ele>
        <time>2020-08-29T19:07:05.607Z</time>
      </trkpt>
      <trkpt lat="61.71914" lon="17.09778">
        <ele>8.001232</ele>
        <time>2020-08-29T19:07:06.764Z</time>
      </trkpt>
      <trkpt lat="61.71913" lon="17.09765">
        <ele>7.958406</ele>
        <time>2020-08-29T19:07:07.750Z</time>
      </trkpt>
      <trkpt lat="61.71908" lon="17.09757">
        <ele>7.91548</ele>
        <time>2020-08-29T19:07:08.731Z</time>
      </trkpt>
      <trkpt lat="61.71907" lon="17.09755">
        <ele>7.902978</ele>
        <time>2020-08-29T19:07:08.971Z</time>
      </trkpt>
      <trkpt lat="61.71735" lon="17.09572">
        <ele>6.68459</ele>
        <time>2020-08-29T19:07:39.740Z</time>
      </trkpt>
      <trkpt lat="61.71729" lon="17.09571">
        <ele>6.668834</ele>
        <time>2020-08-29T19:07:40.663Z</time>
      </trkpt>
      <trkpt lat="61.71724" lon="17.09577">
        <ele>6.655277</ele>
        <time>2020-08-29T19:07:41.559Z</time>
      </trkpt>
      <trkpt lat="61.71711" lon="17.09569">
        <ele>6.619148</ele>
        <time>2020-08-29T19:07:44.084Z</time>
      </trkpt>
      <trkpt lat="61.71706" lon="17.09561">
        <ele>6.603513</ele>
        <time>2020-08-29T19:07:45.132Z</time>
      </trkpt>
      <trkpt lat="61.71697" lon="17.09546">
        <ele>6.572311</ele>
        <time>2020-08-29T19:07:47.167Z</time>
      </trkpt>
      <trkpt lat="61.71693" lon="17.0954">
        <ele>6.561067</ele>
        <time>2020-08-29T19:07:47.918Z</time>
      </trkpt>
      <trkpt lat="61.71583" lon="17.09274">
        <ele>6.878986</ele>
        <time>2020-08-29T19:08:19.490Z</time>
      </trkpt>
      <trkpt lat="61.71552" lon="17.09182">
        <ele>7.287382</ele>
        <time>2020-08-29T19:08:31.512Z</time>
      </trkpt>
      <trkpt lat="61.71511" lon="17.09136">
        <ele>7.638466</ele>
        <time>2020-08-29T19:08:41.885Z</time>
      </trkpt>
      <trkpt lat="61.71497" lon="17.09127">
        <ele>7.795872</ele>
        <time>2020-08-29T19:08:45.225Z</time>
      </trkpt>
      <trkpt lat="61.71478" lon="17.09067">
        <ele>8.24921</ele>
        <time>2020-08-29T19:08:53.012Z</time>
      </trkpt>
      <trkpt lat="61.71473" lon="17.09053">
        <ele>8.363894</ele>
        <time>2020-08-29T19:08:55.089Z</time>
      </trkpt>
      <trkpt lat="61.71467" lon="17.0906">
        <ele>8.460079</ele>
        <time>2020-08-29T19:08:56.675Z</time>
      </trkpt>
      <trkpt lat="61.71446" lon="17.0907">
        <ele>8.749635</ele>
        <time>2020-08-29T19:09:01.531Z</time>
      </trkpt>
      <trkpt lat="61.71435" lon="17.0907">
        <ele>8.89781</ele>
        <time>2020-08-29T19:09:04.076Z</time>
      </trkpt>
      <trkpt lat="61.71408" lon="17.09047">
        <ele>9.283444</ele>
        <time>2020-08-29T19:09:10.595Z</time>
      </trkpt>
      <trkpt lat="61.71382" lon="17.09029">
        <ele>9.638635</ele>
        <time>2020-08-29T19:09:16.545Z</time>
      </trkpt>
      <trkpt lat="61.71338" lon="17.09007">
        <ele>10.177245</ele>
        <time>2020-08-29T19:09:26.578Z</time>
      </trkpt>
      <trkpt lat="61.71316" lon="17.08986">
        <ele>10.364347</ele>
        <time>2020-08-29T19:09:31.458Z</time>
      </trkpt>
      <trkpt lat="61.71262" lon="17.08949">
        <ele>10.809312</ele>
        <time>2020-08-29T19:09:42.994Z</time>
      </trkpt>
      <trkpt lat="61.71257" lon="17.08958">
        <ele>10.866194</ele>
        <time>2020-08-29T19:09:44.481Z</time>
      </trkpt>
      <trkpt lat="61.71249" lon="17.08948">
        <ele>10.937178</ele>
        <time>2020-08-29T19:09:46.421Z</time>
      </trkpt>
      <trkpt lat="61.71204" lon="17.08922">
        <ele>11.302702</ele>
        <time>2020-08-29T19:09:56.045Z</time>
      </trkpt>
      <trkpt lat="61.71147" lon="17.08877">
        <ele>11.685285</ele>
        <time>2020-08-29T19:10:08.262Z</time>
      </trkpt>
      <trkpt lat="61.71113" lon="17.08863">
        <ele>11.87533</ele>
        <time>2020-08-29T19:10:15.337Z</time>
      </trkpt>
      <trkpt lat="61.71088" lon="17.08864">
        <ele>12.009593</ele>
        <time>2020-08-29T19:10:20.357Z</time>
      </trkpt>
      <trkpt lat="61.71033" lon="17.08892">
        <ele>12.314888</ele>
        <time>2020-08-29T19:10:31.823Z</time>
      </trkpt>
      <trkpt lat="61.70994" lon="17.08908">
        <ele>12.551484</ele>
        <time>2020-08-29T19:10:39.969Z</time>
      </trkpt>
      <trkpt lat="61.70965" lon="17.08916">
        <ele>12.76026</ele>
        <time>2020-08-29T19:10:46.068Z</time>
      </trkpt>
      <trkpt lat="61.70882" lon="17.08855">
        <ele>13.373159</ele>
        <time>2020-08-29T19:11:04.192Z</time>
      </trkpt>
      <trkpt lat="61.70837" lon="17.08805">
        <ele>13.735252</ele>
        <time>2020-08-29T19:11:15.077Z</time>
      </trkpt>
      <trkpt lat="61.70678" lon="17.08721">
        <ele>15.215941</ele>
        <time>2020-08-29T19:11:50.245Z</time>
      </trkpt>
      <trkpt lat="61.70628" lon="17.08691">
        <ele>15.72684</ele>
        <time>2020-08-29T19:12:01.500Z</time>
      </trkpt>
      <trkpt lat="61.70585" lon="17.08627">
        <ele>16.264798</ele>
        <time>2020-08-29T19:12:12.498Z</time>
      </trkpt>
      <trkpt lat="61.70568" lon="17.08597">
        <ele>16.496409</ele>
        <time>2020-08-29T19:12:17.384Z</time>
      </trkpt>
      <trkpt lat="61.70545" lon="17.08561">
        <ele>16.789465</ele>
        <time>2020-08-29T19:12:23.526Z</time>
      </trkpt>
      <trkpt lat="61.70525" lon="17.08528">
        <ele>17.050639</ele>
        <time>2020-08-29T19:12:28.949Z</time>
      </trkpt>
      <trkpt lat="61.70503" lon="17.08483">
        <ele>17.359318</ele>
        <time>2020-08-29T19:12:35.231Z</time>
      </trkpt>
      <trkpt lat="61.705" lon="17.08474">
        <ele>17.416701</ele>
        <time>2020-08-29T19:12:36.507Z</time>
      </trkpt>
      <trkpt lat="61.70486" lon="17.08436">
        <ele>17.642118</ele>
        <time>2020-08-29T19:12:41.096Z</time>
      </trkpt>
      <trkpt lat="61.70473" lon="17.08386">
        <ele>17.914002</ele>
        <time>2020-08-29T19:12:46.782Z</time>
      </trkpt>
      <trkpt lat="61.70465" lon="17.08339">
        <ele>18.152789</ele>
        <time>2020-08-29T19:12:51.798Z</time>
      </trkpt>
      <trkpt lat="61.70434" lon="17.08044">
        <ele>20.198035</ele>
        <time>2020-08-29T19:13:21.851Z</time>
      </trkpt>
      <trkpt lat="61.704" lon="17.0774">
        <ele>23.72233</ele>
        <time>2020-08-29T19:13:59.812Z</time>
      </trkpt>
      <trkpt lat="61.70381" lon="17.07661">
        <ele>25.397645</ele>
        <time>2020-08-29T19:14:12.963Z</time>
      </trkpt>
      <trkpt lat="61.70368" lon="17.07632">
        <ele>26.169956</ele>
        <time>2020-08-29T19:14:18.907Z</time>
      </trkpt>
      <trkpt lat="61.70349" lon="17.07606">
        <ele>27.073766</ele>
        <time>2020-08-29T19:14:26.203Z</time>
      </trkpt>
      <trkpt lat="61.70327" lon="17.07581">
        <ele>28.055877</ele>
        <time>2020-08-29T19:14:34.025Z</time>
      </trkpt>
      <trkpt lat="61.70313" lon="17.07557">
        <ele>28.769069</ele>
        <time>2020-08-29T19:14:39.827Z</time>
      </trkpt>
      <trkpt lat="61.70243" lon="17.07394">
        <ele>32.204777</ele>
        <time>2020-08-29T19:15:13.873Z</time>
      </trkpt>
      <trkpt lat="61.7022" lon="17.07355">
        <ele>33.113334</ele>
        <time>2020-08-29T19:15:22.385Z</time>
      </trkpt>
      <trkpt lat="61.702" lon="17.07331">
        <ele>33.804144</ele>
        <time>2020-08-29T19:15:28.023Z</time>
      </trkpt>
      <trkpt lat="61.70175" lon="17.07306">
        <ele>34.65326</ele>
        <time>2020-08-29T19:15:34.306Z</time>
      </trkpt>
      <trkpt lat="61.70146" lon="17.07291">
        <ele>35.311314</ele>
        <time>2020-08-29T19:15:40.770Z</time>
      </trkpt>
      <trkpt lat="61.69998" lon="17.07272">
        <ele>35.414112</ele>
        <time>2020-08-29T19:16:08.042Z</time>
      </trkpt>
      <trkpt lat="61.69986" lon="17.07266">
        <ele>35.422739</ele>
        <time>2020-08-29T19:16:09.924Z</time>
      </trkpt>
      <trkpt lat="61.69973" lon="17.07245">
        <ele>35.352922</ele>
        <time>2020-08-29T19:16:12.445Z</time>
      </trkpt>
      <trkpt lat="61.69973" lon="17.07233">
        <ele>35.269888</ele>
        <time>2020-08-29T19:16:13.297Z</time>
      </trkpt>
      <trkpt lat="61.69973" lon="17.07218">
        <ele>35.161153</ele>
        <time>2020-08-29T19:16:14.362Z</time>
      </trkpt>
      <trkpt lat="61.69924" lon="17.07217">
        <ele>34.448444</ele>
        <time>2020-08-29T19:16:21.658Z</time>
      </trkpt>
      <trkpt lat="61.69797" lon="17.07246">
        <ele>32.762586</ele>
        <time>2020-08-29T19:16:39.760Z</time>
      </trkpt>
      <trkpt lat="61.69757" lon="17.07267">
        <ele>32.602352</ele>
        <time>2020-08-29T19:16:46.246Z</time>
      </trkpt>
      <trkpt lat="61.6968" lon="17.07327">
        <ele>32.288358</ele>
        <time>2020-08-29T19:17:00.068Z</time>
      </trkpt>
      <trkpt lat="61.69662" lon="17.07345">
        <ele>32.210208</ele>
        <time>2020-08-29T19:17:03.641Z</time>
      </trkpt>
      <trkpt lat="61.69652" lon="17.07356">
        <ele>32.165557</ele>
        <time>2020-08-29T19:17:06.259Z</time>
      </trkpt>
      <trkpt lat="61.69534" lon="17.07454">
        <ele>33.221946</ele>
        <time>2020-08-29T19:17:33.172Z</time>
      </trkpt>
      <trkpt lat="61.69501" lon="17.07471">
        <ele>33.545066</ele>
        <time>2020-08-29T19:17:40.890Z</time>
      </trkpt>
      <trkpt lat="61.69465" lon="17.07484">
        <ele>33.814919</ele>
        <time>2020-08-29T19:17:48.502Z</time>
      </trkpt>
      <trkpt lat="61.69365" lon="17.07508">
        <ele>33.733594</ele>
        <time>2020-08-29T19:18:06.951Z</time>
      </trkpt>
      <trkpt lat="61.69343" lon="17.07512">
        <ele>33.715486</ele>
        <time>2020-08-29T19:18:10.512Z</time>
      </trkpt>
      <trkpt lat="61.69335" lon="17.07514">
        <ele>33.709367</ele>
        <time>2020-08-29T19:18:11.687Z</time>
      </trkpt>
      <trkpt lat="61.69131" lon="17.07554">
        <ele>32.819034</ele>
        <time>2020-08-29T19:18:44.238Z</time>
      </trkpt>
      <trkpt lat="61.69063" lon="17.07566">
        <ele>33.207076</ele>
        <time>2020-08-29T19:18:57.730Z</time>
      </trkpt>
      <trkpt lat="61.6896" lon="17.0759">
        <ele>34.159476</ele>
        <time>2020-08-29T19:19:20.301Z</time>
      </trkpt>
      <trkpt lat="61.68874" lon="17.07622">
        <ele>34.75966</ele>
        <time>2020-08-29T19:19:39.256Z</time>
      </trkpt>
      <trkpt lat="61.6855" lon="17.07783">
        <ele>35.459407</ele>
        <time>2020-08-29T19:20:40.845Z</time>
      </trkpt>
      <trkpt lat="61.68474" lon="17.078">
        <ele>34.845491</ele>
        <time>2020-08-29T19:20:53.130Z</time>
      </trkpt>
      <trkpt lat="61.68172" lon="17.07829">
        <ele>31.146572</ele>
        <time>2020-08-29T19:21:37.715Z</time>
      </trkpt>
      <trkpt lat="61.68086" lon="17.07836">
        <ele>30.260778</ele>
        <time>2020-08-29T19:21:50.943Z</time>
      </trkpt>
      <trkpt lat="61.68042" lon="17.07839">
        <ele>29.852102</ele>
        <time>2020-08-29T19:21:57.986Z</time>
      </trkpt>
      <trkpt lat="61.67947" lon="17.07846">
        <ele>29.868704</ele>
        <time>2020-08-29T19:22:14.390Z</time>
      </trkpt>
      <trkpt lat="61.67877" lon="17.07853">
        <ele>29.880922</ele>
        <time>2020-08-29T19:22:27.627Z</time>
      </trkpt>
      <trkpt lat="61.67856" lon="17.07855">
        <ele>29.971528</ele>
        <time>2020-08-29T19:22:31.791Z</time>
      </trkpt>
      <trkpt lat="61.67813" lon="17.07859">
        <ele>30.320776</ele>
        <time>2020-08-29T19:22:40.531Z</time>
      </trkpt>
      <trkpt lat="61.67724" lon="17.07855">
        <ele>31.045619</ele>
        <time>2020-08-29T19:22:59.166Z</time>
      </trkpt>
      <trkpt lat="61.67709" lon="17.07852">
        <ele>31.172217</ele>
        <time>2020-08-29T19:23:02.559Z</time>
      </trkpt>
      <trkpt lat="61.67686" lon="17.07848">
        <ele>31.346048</ele>
        <time>2020-08-29T19:23:07.232Z</time>
      </trkpt>
      <trkpt lat="61.67637" lon="17.07834">
        <ele>31.359975</ele>
        <time>2020-08-29T19:23:17.194Z</time>
      </trkpt>
      <trkpt lat="61.67204" lon="17.07694">
        <ele>31.200904</ele>
        <time>2020-08-29T19:24:33.863Z</time>
      </trkpt>
      <trkpt lat="61.6714" lon="17.07683">
        <ele>31.102166</ele>
        <time>2020-08-29T19:24:44.456Z</time>
      </trkpt>
      <trkpt lat="61.6708" lon="17.07691">
        <ele>31.092238</ele>
        <time>2020-08-29T19:24:54.486Z</time>
      </trkpt>
      <trkpt lat="61.67045" lon="17.07705">
        <ele>31.086359</ele>
        <time>2020-08-29T19:25:00.594Z</time>
      </trkpt>
      <trkpt lat="61.66972" lon="17.07754">
        <ele>31.116082</ele>
        <time>2020-08-29T19:25:15.090Z</time>
      </trkpt>
      <trkpt lat="61.66939" lon="17.07786">
        <ele>31.38857</ele>
        <time>2020-08-29T19:25:22.708Z</time>
      </trkpt>
      <trkpt lat="61.6691" lon="17.07821">
        <ele>31.63639</ele>
        <time>2020-08-29T19:25:29.642Z</time>
      </trkpt>
      <trkpt lat="61.66904" lon="17.07829">
        <ele>31.687361</ele>
        <time>2020-08-29T19:25:31.115Z</time>
      </trkpt>
      <trkpt lat="61.66888" lon="17.07852">
        <ele>31.830331</ele>
        <time>2020-08-29T19:25:35.014Z</time>
      </trkpt>
      <trkpt lat="61.66872" lon="17.07875">
        <ele>31.972495</ele>
        <time>2020-08-29T19:25:39.098Z</time>
      </trkpt>
      <trkpt lat="61.6685" lon="17.07915">
        <ele>32.190157</ele>
        <time>2020-08-29T19:25:45.131Z</time>
      </trkpt>
      <trkpt lat="61.6684" lon="17.07933">
        <ele>32.284653</ele>
        <time>2020-08-29T19:25:47.785Z</time>
      </trkpt>
      <trkpt lat="61.66678" lon="17.083">
        <ele>33.740092</ele>
        <time>2020-08-29T19:26:33.673Z</time>
      </trkpt>
      <trkpt lat="61.66586" lon="17.08492">
        <ele>34.969844</ele>
        <time>2020-08-29T19:27:01.022Z</time>
      </trkpt>
      <trkpt lat="61.6651" lon="17.08604">
        <ele>36.477822</ele>
        <time>2020-08-29T19:27:22.393Z</time>
      </trkpt>
      <trkpt lat="61.66423" lon="17.08702">
        <ele>38.161992</ele>
        <time>2020-08-29T19:27:45.765Z</time>
      </trkpt>
      <trkpt lat="61.66374" lon="17.08747">
        <ele>39.277099</ele>
        <time>2020-08-29T19:27:58.814Z</time>
      </trkpt>
      <trkpt lat="61.6628" lon="17.08806">
        <ele>41.311743</ele>
        <time>2020-08-29T19:28:23.160Z</time>
      </trkpt>
      <trkpt lat="61.66188" lon="17.08835">
        <ele>42.521526</ele>
        <time>2020-08-29T19:28:45.760Z</time>
      </trkpt>
      <trkpt lat="61.66087" lon="17.08839">
        <ele>43.544376</ele>
        <time>2020-08-29T19:29:06.782Z</time>
      </trkpt>
      <trkpt lat="61.65992" lon="17.08817">
        <ele>42.41415</ele>
        <time>2020-08-29T19:29:21.463Z</time>
      </trkpt>
      <trkpt lat="61.65953" lon="17.08797">
        <ele>41.840113</ele>
        <time>2020-08-29T19:29:27.025Z</time>
      </trkpt>
      <trkpt lat="61.65846" lon="17.08726">
        <ele>40.09362</ele>
        <time>2020-08-29T19:29:42.513Z</time>
      </trkpt>
      <trkpt lat="61.65714" lon="17.08635">
        <ele>38.033794</ele>
        <time>2020-08-29T19:30:02.949Z</time>
      </trkpt>
      <trkpt lat="61.65571" lon="17.08539">
        <ele>37.674324</ele>
        <time>2020-08-29T19:30:29.530Z</time>
      </trkpt>
      <trkpt lat="61.65431" lon="17.08454">
        <ele>37.576852</ele>
        <time>2020-08-29T19:30:56.038Z</time>
      </trkpt>
      <trkpt lat="61.65377" lon="17.0842">
        <ele>37.475955</ele>
        <time>2020-08-29T19:31:05.801Z</time>
      </trkpt>
      <trkpt lat="61.6533" lon="17.08399">
        <ele>37.054336</ele>
        <time>2020-08-29T19:31:13.503Z</time>
      </trkpt>
      <trkpt lat="61.65336" lon="17.08368">
        <ele>36.918872</ele>
        <time>2020-08-29T19:31:16.125Z</time>
      </trkpt>
      <trkpt lat="61.65324" lon="17.08375">
        <ele>36.8137</ele>
        <time>2020-08-29T19:31:18.078Z</time>
      </trkpt>
      <trkpt lat="61.65299" lon="17.08369">
        <ele>36.58859</ele>
        <time>2020-08-29T19:31:22.298Z</time>
      </trkpt>
      <trkpt lat="61.6528" lon="17.08361">
        <ele>36.418528</ele>
        <time>2020-08-29T19:31:25.390Z</time>
      </trkpt>
      <trkpt lat="61.65252" lon="17.08353">
        <ele>36.166501</ele>
        <time>2020-08-29T19:31:29.940Z</time>
      </trkpt>
      <trkpt lat="61.65234" lon="17.0836">
        <ele>36.002458</ele>
        <time>2020-08-29T19:31:32.847Z</time>
      </trkpt>
      <trkpt lat="61.65129" lon="17.08354">
        <ele>33.64747</ele>
        <time>2020-08-29T19:31:48.582Z</time>
      </trkpt>
      <trkpt lat="61.65018" lon="17.0835">
        <ele>30.642572</ele>
        <time>2020-08-29T19:32:03.942Z</time>
      </trkpt>
      <trkpt lat="61.65004" lon="17.08349">
        <ele>30.099652</ele>
        <time>2020-08-29T19:32:05.793Z</time>
      </trkpt>
      <trkpt lat="61.64949" lon="17.08349">
        <ele>28.004192</ele>
        <time>2020-08-29T19:32:13.117Z</time>
      </trkpt>
      <trkpt lat="61.64939" lon="17.08349">
        <ele>27.616783</ele>
        <time>2020-08-29T19:32:14.404Z</time>
      </trkpt>
      <trkpt lat="61.64904" lon="17.08347">
        <ele>26.306674</ele>
        <time>2020-08-29T19:32:18.896Z</time>
      </trkpt>
      <trkpt lat="61.64885" lon="17.08343">
        <ele>25.585411</ele>
        <time>2020-08-29T19:32:21.493Z</time>
      </trkpt>
      <trkpt lat="61.64874" lon="17.08337">
        <ele>25.132819</ele>
        <time>2020-08-29T19:32:23.019Z</time>
      </trkpt>
      <trkpt lat="61.64872" lon="17.08353">
        <ele>24.882763</ele>
        <time>2020-08-29T19:32:23.997Z</time>
      </trkpt>
      <trkpt lat="61.64857" lon="17.08344">
        <ele>24.482281</ele>
        <time>2020-08-29T19:32:26.061Z</time>
      </trkpt>
      <trkpt lat="61.64843" lon="17.0833">
        <ele>24.074705</ele>
        <time>2020-08-29T19:32:28.048Z</time>
      </trkpt>
      <trkpt lat="61.64803" lon="17.08283">
        <ele>22.898559</ele>
        <time>2020-08-29T19:32:34.078Z</time>
      </trkpt>
      <trkpt lat="61.64796" lon="17.08276">
        <ele>22.700829</ele>
        <time>2020-08-29T19:32:35.106Z</time>
      </trkpt>
      <trkpt lat="61.64794" lon="17.08285">
        <ele>22.590258</ele>
        <time>2020-08-29T19:32:35.712Z</time>
      </trkpt>
      <trkpt lat="61.64791" lon="17.08306">
        <ele>22.311606</ele>
        <time>2020-08-29T19:32:37.162Z</time>
      </trkpt>
      <trkpt lat="61.64765" lon="17.0827">
        <ele>21.513414</ele>
        <time>2020-08-29T19:32:41.540Z</time>
      </trkpt>
      <trkpt lat="61.64691" lon="17.08202">
        <ele>20.275632</ele>
        <time>2020-08-29T19:32:53.845Z</time>
      </trkpt>
      <trkpt lat="61.64627" lon="17.08162">
        <ele>20.112999</ele>
        <time>2020-08-29T19:33:05.657Z</time>
      </trkpt>
      <trkpt lat="61.64627" lon="17.08156">
        <ele>20.105847</ele>
        <time>2020-08-29T19:33:06.249Z</time>
      </trkpt>
      <trkpt lat="61.64612" lon="17.08142">
        <ele>20.067218</ele>
        <time>2020-08-29T19:33:09.270Z</time>
      </trkpt>
      <trkpt lat="61.64589" lon="17.08135">
        <ele>20.011198</ele>
        <time>2020-08-29T19:33:13.485Z</time>
      </trkpt>
      <trkpt lat="61.64581" lon="17.08134">
        <ele>19.990025</ele>
        <time>2020-08-29T19:33:15.105Z</time>
      </trkpt>
      <trkpt lat="61.64574" lon="17.08128">
        <ele>19.971619</ele>
        <time>2020-08-29T19:33:16.593Z</time>
      </trkpt>
      <trkpt lat="61.6457" lon="17.08115">
        <ele>19.953664</ele>
        <time>2020-08-29T19:33:17.880Z</time>
      </trkpt>
      <trkpt lat="61.64559" lon="17.08106">
        <ele>19.925754</ele>
        <time>2020-08-29T19:33:20.007Z</time>
      </trkpt>
      <trkpt lat="61.64561" lon="17.08099">
        <ele>19.920078</ele>
        <time>2020-08-29T19:33:20.718Z</time>
      </trkpt>
      <trkpt lat="61.64564" lon="17.08083">
        <ele>19.907432</ele>
        <time>2020-08-29T19:33:22.341Z</time>
      </trkpt>
      <trkpt lat="61.64569" lon="17.08079">
        <ele>19.899444</ele>
        <time>2020-08-29T19:33:23.350Z</time>
      </trkpt>
      <trkpt lat="61.64546" lon="17.08066">
        <ele>19.863883</ele>
        <time>2020-08-29T19:33:27.632Z</time>
      </trkpt>
      <trkpt lat="61.64535" lon="17.0806">
        <ele>19.847254</ele>
        <time>2020-08-29T19:33:29.750Z</time>
      </trkpt>
      <trkpt lat="61.64519" lon="17.08045">
        <ele>19.82036</ele>
        <time>2020-08-29T19:33:32.923Z</time>
      </trkpt>
      <trkpt lat="61.64503" lon="17.08034">
        <ele>19.794877</ele>
        <time>2020-08-29T19:33:36.124Z</time>
      </trkpt>
      <trkpt lat="61.64487" lon="17.08029">
        <ele>19.770854</ele>
        <time>2020-08-29T19:33:38.855Z</time>
      </trkpt>
      <trkpt lat="61.64409" lon="17.07996">
        <ele>19.590384</ele>
        <time>2020-08-29T19:33:52.626Z</time>
      </trkpt>
      <trkpt lat="61.64362" lon="17.07986">
        <ele>18.829018</ele>
        <time>2020-08-29T19:33:59.773Z</time>
      </trkpt>
      <trkpt lat="61.64319" lon="17.07978">
        <ele>18.124993</ele>
        <time>2020-08-29T19:34:06.086Z</time>
      </trkpt>
      <trkpt lat="61.64316" lon="17.07977">
        <ele>18.074403</ele>
        <time>2020-08-29T19:34:06.544Z</time>
      </trkpt>
      <trkpt lat="61.64293" lon="17.07974">
        <ele>17.706701</ele>
        <time>2020-08-29T19:34:09.837Z</time>
      </trkpt>
      <trkpt lat="61.64293" lon="17.07987">
        <ele>17.604148</ele>
        <time>2020-08-29T19:34:10.692Z</time>
      </trkpt>
      <trkpt lat="61.64273" lon="17.07983">
        <ele>17.284624</ele>
        <time>2020-08-29T19:34:13.483Z</time>
      </trkpt>
      <trkpt lat="61.6426" lon="17.0798">
        <ele>17.066272</ele>
        <time>2020-08-29T19:34:15.349Z</time>
      </trkpt>
      <trkpt lat="61.64223" lon="17.07967">
        <ele>16.298322</ele>
        <time>2020-08-29T19:34:20.480Z</time>
      </trkpt>
      <trkpt lat="61.64188" lon="17.07952">
        <ele>15.39544</ele>
        <time>2020-08-29T19:34:25.224Z</time>
      </trkpt>
      <trkpt lat="61.6409" lon="17.07903">
        <ele>12.846164</ele>
        <time>2020-08-29T19:34:38.507Z</time>
      </trkpt>
      <trkpt lat="61.64047" lon="17.07882">
        <ele>12.468699</ele>
        <time>2020-08-29T19:34:44.758Z</time>
      </trkpt>
      <trkpt lat="61.64003" lon="17.07865">
        <ele>13.160477</ele>
        <time>2020-08-29T19:34:51.746Z</time>
      </trkpt>
      <trkpt lat="61.63954" lon="17.07848">
        <ele>13.919466</ele>
        <time>2020-08-29T19:35:02.967Z</time>
      </trkpt>
      <trkpt lat="61.63863" lon="17.07823">
        <ele>16.610172</ele>
        <time>2020-08-29T19:35:31.246Z</time>
      </trkpt>
      <trkpt lat="61.63822" lon="17.07803">
        <ele>19.466051</ele>
        <time>2020-08-29T19:35:48.541Z</time>
      </trkpt>
      <trkpt lat="61.63751" lon="17.07752">
        <ele>24.508387</ele>
        <time>2020-08-29T19:36:20.628Z</time>
      </trkpt>
      <trkpt lat="61.63718" lon="17.07719">
        <ele>27.002266</ele>
        <time>2020-08-29T19:36:36.348Z</time>
      </trkpt>
      <trkpt lat="61.63726" lon="17.0769">
        <ele>27.764974</ele>
        <time>2020-08-29T19:36:42.290Z</time>
      </trkpt>
      <trkpt lat="61.63719" lon="17.07693">
        <ele>28.077085</ele>
        <time>2020-08-29T19:36:45.956Z</time>
      </trkpt>
      <trkpt lat="61.63702" lon="17.07676">
        <ele>28.952153</ele>
        <time>2020-08-29T19:36:52.921Z</time>
      </trkpt>
      <trkpt lat="61.63665" lon="17.07618">
        <ele>31.092345</ele>
        <time>2020-08-29T19:37:09.214Z</time>
      </trkpt>
      <trkpt lat="61.6363" lon="17.07549">
        <ele>33.349266</ele>
        <time>2020-08-29T19:37:26.626Z</time>
      </trkpt>
      <trkpt lat="61.63544" lon="17.07342">
        <ele>35.876976</ele>
        <time>2020-08-29T19:37:56.298Z</time>
      </trkpt>
      <trkpt lat="61.63529" lon="17.07301">
        <ele>35.992218</ele>
        <time>2020-08-29T19:38:01.050Z</time>
      </trkpt>
      <trkpt lat="61.6352" lon="17.07277">
        <ele>36.059844</ele>
        <time>2020-08-29T19:38:03.530Z</time>
      </trkpt>
      <trkpt lat="61.63512" lon="17.07235">
        <ele>36.161203</ele>
        <time>2020-08-29T19:38:07.247Z</time>
      </trkpt>
      <trkpt lat="61.63499" lon="17.0707">
        <ele>35.981808</ele>
        <time>2020-08-29T19:38:20.236Z</time>
      </trkpt>
      <trkpt lat="61.63486" lon="17.06979">
        <ele>35.632739</ele>
        <time>2020-08-29T19:38:27.307Z</time>
      </trkpt>
      <trkpt lat="61.63479" lon="17.06967">
        <ele>35.562963</ele>
        <time>2020-08-29T19:38:28.649Z</time>
      </trkpt>
      <trkpt lat="61.63468" lon="17.06968">
        <ele>35.4729</ele>
        <time>2020-08-29T19:38:30.634Z</time>
      </trkpt>
      <trkpt lat="61.63454" lon="17.06979">
        <ele>35.355455</ele>
        <time>2020-08-29T19:38:33.208Z</time>
      </trkpt>
      <trkpt lat="61.63448" lon="17.06969">
        <ele>35.296248</ele>
        <time>2020-08-29T19:38:34.363Z</time>
      </trkpt>
      <trkpt lat="61.63402" lon="17.06532">
        <ele>35.138263</ele>
        <time>2020-08-29T19:39:13.570Z</time>
      </trkpt>
      <trkpt lat="61.63368" lon="17.06381">
        <ele>35.895916</ele>
        <time>2020-08-29T19:39:31.015Z</time>
      </trkpt>
      <trkpt lat="61.63316" lon="17.06234">
        <ele>36.894081</ele>
        <time>2020-08-29T19:39:51.141Z</time>
      </trkpt>
      <trkpt lat="61.6328" lon="17.0615">
        <ele>37.376435</ele>
        <time>2020-08-29T19:40:03.317Z</time>
      </trkpt>
      <trkpt lat="61.63239" lon="17.06074">
        <ele>37.726524</ele>
        <time>2020-08-29T19:40:15.117Z</time>
      </trkpt>
      <trkpt lat="61.63201" lon="17.06025">
        <ele>38.016771</ele>
        <time>2020-08-29T19:40:24.385Z</time>
      </trkpt>
      <trkpt lat="61.63144" lon="17.05971">
        <ele>38.359929</ele>
        <time>2020-08-29T19:40:36.080Z</time>
      </trkpt>
      <trkpt lat="61.6312" lon="17.05949">
        <ele>38.33126</ele>
        <time>2020-08-29T19:40:40.898Z</time>
      </trkpt>
      <trkpt lat="61.63095" lon="17.05929">
        <ele>38.301662</ele>
        <time>2020-08-29T19:40:45.759Z</time>
      </trkpt>
      <trkpt lat="61.6302" lon="17.0587">
        <ele>38.214231</ele>
        <time>2020-08-29T19:40:59.785Z</time>
      </trkpt>
      <trkpt lat="61.6282" lon="17.05729">
        <ele>38.535024</ele>
        <time>2020-08-29T19:41:39.694Z</time>
      </trkpt>
      <trkpt lat="61.62789" lon="17.05703">
        <ele>38.807771</ele>
        <time>2020-08-29T19:41:46.741Z</time>
      </trkpt>
      <trkpt lat="61.6257" lon="17.05528">
        <ele>40.79472</ele>
        <time>2020-08-29T19:42:39.026Z</time>
      </trkpt>
      <trkpt lat="61.62425" lon="17.0542">
        <ele>40.072755</ele>
        <time>2020-08-29T19:43:07.864Z</time>
      </trkpt>
      <trkpt lat="61.62404" lon="17.05406">
        <ele>39.542976</ele>
        <time>2020-08-29T19:43:11.559Z</time>
      </trkpt>
      <trkpt lat="61.62308" lon="17.05347">
        <ele>37.217682</ele>
        <time>2020-08-29T19:43:25.135Z</time>
      </trkpt>
      <trkpt lat="61.62262" lon="17.05326">
        <ele>34.297208</ele>
        <time>2020-08-29T19:43:31.054Z</time>
      </trkpt>
      <trkpt lat="61.62245" lon="17.0532">
        <ele>33.204753</ele>
        <time>2020-08-29T19:43:33.047Z</time>
      </trkpt>
      <trkpt lat="61.6223" lon="17.05313">
        <ele>32.183929</ele>
        <time>2020-08-29T19:43:34.927Z</time>
      </trkpt>
      <trkpt lat="61.62215" lon="17.05311">
        <ele>31.172867</ele>
        <time>2020-08-29T19:43:36.772Z</time>
      </trkpt>
      <trkpt lat="61.62185" lon="17.05316">
        <ele>29.232488</ele>
        <time>2020-08-29T19:43:40.324Z</time>
      </trkpt>
      <trkpt lat="61.62155" lon="17.05323">
        <ele>27.255191</ele>
        <time>2020-08-29T19:43:43.933Z</time>
      </trkpt>
      <trkpt lat="61.62079" lon="17.05337">
        <ele>22.631267</ele>
        <time>2020-08-29T19:43:52.988Z</time>
      </trkpt>
      <trkpt lat="61.61999" lon="17.05354">
        <ele>17.984232</ele>
        <time>2020-08-29T19:44:02.973Z</time>
      </trkpt>
      <trkpt lat="61.61935" lon="17.05365">
        <ele>14.750619</ele>
        <time>2020-08-29T19:44:11.274Z</time>
      </trkpt>
      <trkpt lat="61.61936" lon="17.0538">
        <ele>14.592886</ele>
        <time>2020-08-29T19:44:12.392Z</time>
      </trkpt>
      <trkpt lat="61.61937" lon="17.05391">
        <ele>14.479199</ele>
        <time>2020-08-29T19:44:13.057Z</time>
      </trkpt>
      <trkpt lat="61.61796" lon="17.05432">
        <ele>11.275528</ele>
        <time>2020-08-29T19:44:33.908Z</time>
      </trkpt>
      <trkpt lat="61.61774" lon="17.05461">
        <ele>10.945497</ele>
        <time>2020-08-29T19:44:38.174Z</time>
      </trkpt>
      <trkpt lat="61.61775" lon="17.05446">
        <ele>10.935284</ele>
        <time>2020-08-29T19:44:39.449Z</time>
      </trkpt>
      <trkpt lat="61.61775" lon="17.05423">
        <ele>10.92074</ele>
        <time>2020-08-29T19:44:41.221Z</time>
      </trkpt>
      <trkpt lat="61.61329" lon="17.05556">
        <ele>10.418615</ele>
        <time>2020-08-29T19:46:01.657Z</time>
      </trkpt>
      <trkpt lat="61.6127" lon="17.05569">
        <ele>10.391063</ele>
        <time>2020-08-29T19:46:12.155Z</time>
      </trkpt>
      <trkpt lat="61.61227" lon="17.05579">
        <ele>10.118507</ele>
        <time>2020-08-29T19:46:19.526Z</time>
      </trkpt>
      <trkpt lat="61.61222" lon="17.0558">
        <ele>10.088238</ele>
        <time>2020-08-29T19:46:20.293Z</time>
      </trkpt>
      <trkpt lat="61.61162" lon="17.05588">
        <ele>9.709021</ele>
        <time>2020-08-29T19:46:29.927Z</time>
      </trkpt>
      <trkpt lat="61.61091" lon="17.05596">
        <ele>9.261075</ele>
        <time>2020-08-29T19:46:41.007Z</time>
      </trkpt>
      <trkpt lat="61.61065" lon="17.05598">
        <ele>9.292516</ele>
        <time>2020-08-29T19:46:44.956Z</time>
      </trkpt>
      <trkpt lat="61.609" lon="17.05619">
        <ele>9.842462</ele>
        <time>2020-08-29T19:47:14.761Z</time>
      </trkpt>
      <trkpt lat="61.60885" lon="17.0562">
        <ele>10.338081</ele>
        <time>2020-08-29T19:47:18.439Z</time>
      </trkpt>
      <trkpt lat="61.60881" lon="17.0562">
        <ele>10.470811</ele>
        <time>2020-08-29T19:47:20.039Z</time>
      </trkpt>
      <trkpt lat="61.60803" lon="17.05614">
        <ele>12.994429</ele>
        <time>2020-08-29T19:47:42.129Z</time>
      </trkpt>
      <trkpt lat="61.60765" lon="17.056">
        <ele>14.22413</ele>
        <time>2020-08-29T19:47:54.345Z</time>
      </trkpt>
      <trkpt lat="61.6076" lon="17.05597">
        <ele>14.412306</ele>
        <time>2020-08-29T19:47:56.224Z</time>
      </trkpt>
      <trkpt lat="61.60725" lon="17.05579">
        <ele>15.588162</ele>
        <time>2020-08-29T19:48:08.054Z</time>
      </trkpt>
      <trkpt lat="61.60681" lon="17.05552">
        <ele>17.174043</ele>
        <time>2020-08-29T19:48:22.443Z</time>
      </trkpt>
      <trkpt lat="61.60628" lon="17.05517">
        <ele>19.094171</ele>
        <time>2020-08-29T19:48:39.555Z</time>
      </trkpt>
      <trkpt lat="61.60602" lon="17.05499">
        <ele>20.046444</ele>
        <time>2020-08-29T19:48:47.246Z</time>
      </trkpt>
      <trkpt lat="61.60594" lon="17.05494">
        <ele>20.329145</ele>
        <time>2020-08-29T19:48:49.575Z</time>
      </trkpt>
      <trkpt lat="61.60553" lon="17.05457">
        <ele>21.619618</ele>
        <time>2020-08-29T19:49:00.413Z</time>
      </trkpt>
      <trkpt lat="61.60531" lon="17.05435">
        <ele>21.854025</ele>
        <time>2020-08-29T19:49:05.944Z</time>
      </trkpt>
      <trkpt lat="61.6051" lon="17.05408">
        <ele>22.093245</ele>
        <time>2020-08-29T19:49:11.237Z</time>
      </trkpt>
      <trkpt lat="61.60466" lon="17.0534">
        <ele>22.624239</ele>
        <time>2020-08-29T19:49:22.075Z</time>
      </trkpt>
      <trkpt lat="61.60373" lon="17.05178">
        <ele>23.598752</ele>
        <time>2020-08-29T19:49:45.416Z</time>
      </trkpt>
      <trkpt lat="61.60347" lon="17.05132">
        <ele>23.797582</ele>
        <time>2020-08-29T19:49:51.953Z</time>
      </trkpt>
      <trkpt lat="61.6034" lon="17.05118">
        <ele>23.857561</ele>
        <time>2020-08-29T19:49:53.990Z</time>
      </trkpt>
      <trkpt lat="61.60302" lon="17.05054">
        <ele>24.143448</ele>
        <time>2020-08-29T19:50:03.567Z</time>
      </trkpt>
      <trkpt lat="61.60254" lon="17.04971">
        <ele>24.632409</ele>
        <time>2020-08-29T19:50:16.246Z</time>
      </trkpt>
      <trkpt lat="61.60237" lon="17.04942">
        <ele>24.846568</ele>
        <time>2020-08-29T19:50:20.634Z</time>
      </trkpt>
      <trkpt lat="61.60218" lon="17.04909">
        <ele>25.096495</ele>
        <time>2020-08-29T19:50:25.846Z</time>
      </trkpt>
      <trkpt lat="61.60183" lon="17.0485">
        <ele>25.536941</ele>
        <time>2020-08-29T19:50:35.036Z</time>
      </trkpt>
      <trkpt lat="61.60022" lon="17.0456">
        <ele>27.983332</ele>
        <time>2020-08-29T19:51:21.536Z</time>
      </trkpt>
      <trkpt lat="61.59923" lon="17.04362">
        <ele>28.859631</ele>
        <time>2020-08-29T19:51:50.973Z</time>
      </trkpt>
      <trkpt lat="61.59799" lon="17.04117">
        <ele>27.938951</ele>
        <time>2020-08-29T19:52:18.888Z</time>
      </trkpt>
      <trkpt lat="61.59789" lon="17.04099">
        <ele>27.779453</ele>
        <time>2020-08-29T19:52:20.566Z</time>
      </trkpt>
      <trkpt lat="61.59738" lon="17.03994">
        <ele>26.869031</ele>
        <time>2020-08-29T19:52:30.519Z</time>
      </trkpt>
      <trkpt lat="61.5968" lon="17.03876">
        <ele>25.828286</ele>
        <time>2020-08-29T19:52:42.015Z</time>
      </trkpt>
      <trkpt lat="61.59657" lon="17.0383">
        <ele>25.419975</ele>
        <time>2020-08-29T19:52:46.822Z</time>
      </trkpt>
      <trkpt lat="61.5964" lon="17.03796">
        <ele>25.119532</ele>
        <time>2020-08-29T19:52:50.399Z</time>
      </trkpt>
      <trkpt lat="61.59619" lon="17.03755">
        <ele>24.753404</ele>
        <time>2020-08-29T19:52:54.963Z</time>
      </trkpt>
      <trkpt lat="61.59185" lon="17.02899">
        <ele>27.277259</ele>
        <time>2020-08-29T19:54:51.405Z</time>
      </trkpt>
      <trkpt lat="61.59132" lon="17.0281">
        <ele>27.351136</ele>
        <time>2020-08-29T19:55:03.252Z</time>
      </trkpt>
      <trkpt lat="61.59105" lon="17.02774">
        <ele>27.385788</ele>
        <time>2020-08-29T19:55:08.743Z</time>
      </trkpt>
      <trkpt lat="61.59102" lon="17.0277">
        <ele>27.390021</ele>
        <time>2020-08-29T19:55:09.386Z</time>
      </trkpt>
      <trkpt lat="61.59085" lon="17.02749">
        <ele>27.411183</ele>
        <time>2020-08-29T19:55:12.739Z</time>
      </trkpt>
      <trkpt lat="61.59073" lon="17.02736">
        <ele>27.428845</ele>
        <time>2020-08-29T19:55:15.034Z</time>
      </trkpt>
      <trkpt lat="61.58966" lon="17.02637">
        <ele>27.821855</ele>
        <time>2020-08-29T19:55:36.777Z</time>
      </trkpt>
      <trkpt lat="61.58942" lon="17.02622">
        <ele>27.90658</ele>
        <time>2020-08-29T19:55:41.798Z</time>
      </trkpt>
      <trkpt lat="61.58916" lon="17.02607">
        <ele>27.997839</ele>
        <time>2020-08-29T19:55:47.266Z</time>
      </trkpt>
      <trkpt lat="61.58893" lon="17.02595">
        <ele>28.100288</ele>
        <time>2020-08-29T19:55:51.941Z</time>
      </trkpt>
      <trkpt lat="61.58859" lon="17.02584">
        <ele>28.277629</ele>
        <time>2020-08-29T19:55:58.996Z</time>
      </trkpt>
      <trkpt lat="61.58796" lon="17.02574">
        <ele>28.595892</ele>
        <time>2020-08-29T19:56:11.747Z</time>
      </trkpt>
      <trkpt lat="61.5854" lon="17.02567">
        <ele>28.532687</ele>
        <time>2020-08-29T19:56:58.333Z</time>
      </trkpt>
      <trkpt lat="61.57708" lon="17.02687">
        <ele>12.420092</ele>
        <time>2020-08-29T19:58:55.398Z</time>
      </trkpt>
      <trkpt lat="61.57535" lon="17.02732">
        <ele>10.573142</ele>
        <time>2020-08-29T19:59:22.373Z</time>
      </trkpt>
      <trkpt lat="61.57436" lon="17.02743">
        <ele>10.122243</ele>
        <time>2020-08-29T19:59:39.515Z</time>
      </trkpt>
      <trkpt lat="61.57408" lon="17.02742">
        <ele>10.129241</ele>
        <time>2020-08-29T19:59:44.583Z</time>
      </trkpt>
      <trkpt lat="61.57377" lon="17.02738">
        <ele>10.136973</ele>
        <time>2020-08-29T19:59:50.215Z</time>
      </trkpt>
      <trkpt lat="61.57253" lon="17.02694">
        <ele>10.149921</ele>
        <time>2020-08-29T20:00:12.973Z</time>
      </trkpt>
      <trkpt lat="61.56901" lon="17.02523">
        <ele>10.037173</ele>
        <time>2020-08-29T20:01:16.896Z</time>
      </trkpt>
      <trkpt lat="61.56867" lon="17.02505">
        <ele>10.045049</ele>
        <time>2020-08-29T20:01:22.989Z</time>
      </trkpt>
      <trkpt lat="61.56794" lon="17.02461">
        <ele>10.062553</ele>
        <time>2020-08-29T20:01:36.513Z</time>
      </trkpt>
      <trkpt lat="61.56479" lon="17.02279">
        <ele>11.347582</ele>
        <time>2020-08-29T20:02:36.640Z</time>
      </trkpt>
      <trkpt lat="61.56395" lon="17.02208">
        <ele>12.784515</ele>
        <time>2020-08-29T20:02:58.235Z</time>
      </trkpt>
      <trkpt lat="61.56356" lon="17.02168">
        <ele>14.108928</ele>
        <time>2020-08-29T20:03:09.767Z</time>
      </trkpt>
      <trkpt lat="61.56155" lon="17.01867">
        <ele>22.376885</ele>
        <time>2020-08-29T20:04:23.074Z</time>
      </trkpt>
      <trkpt lat="61.56093" lon="17.01785">
        <ele>24.602545</ele>
        <time>2020-08-29T20:04:43.787Z</time>
      </trkpt>
      <trkpt lat="61.55905" lon="17.01573">
        <ele>28.57486</ele>
        <time>2020-08-29T20:05:37.385Z</time>
      </trkpt>
      <trkpt lat="61.55828" lon="17.01478">
        <ele>29.031495</ele>
        <time>2020-08-29T20:05:53.030Z</time>
      </trkpt>
      <trkpt lat="61.55785" lon="17.01414">
        <ele>28.561452</ele>
        <time>2020-08-29T20:06:00.743Z</time>
      </trkpt>
      <trkpt lat="61.55756" lon="17.01372">
        <ele>27.921359</ele>
        <time>2020-08-29T20:06:05.588Z</time>
      </trkpt>
      <trkpt lat="61.55652" lon="17.01209">
        <ele>25.771102</ele>
        <time>2020-08-29T20:06:23.493Z</time>
      </trkpt>
      <trkpt lat="61.5507" lon="17.00307">
        <ele>24.486302</ele>
        <time>2020-08-29T20:08:28.860Z</time>
      </trkpt>
      <trkpt lat="61.55029" lon="17.00235">
        <ele>25.409948</ele>
        <time>2020-08-29T20:08:41.873Z</time>
      </trkpt>
      <trkpt lat="61.54999" lon="17.00179">
        <ele>26.090956</ele>
        <time>2020-08-29T20:08:51.813Z</time>
      </trkpt>
      <trkpt lat="61.54951" lon="17.00069">
        <ele>27.295616</ele>
        <time>2020-08-29T20:09:10.046Z</time>
      </trkpt>
      <trkpt lat="61.54878" lon="16.99914">
        <ele>28.571986</ele>
        <time>2020-08-29T20:09:34.040Z</time>
      </trkpt>
      <trkpt lat="61.5486" lon="16.99878">
        <ele>28.881792</ele>
        <time>2020-08-29T20:09:38.991Z</time>
      </trkpt>
      <trkpt lat="61.54801" lon="16.99761">
        <ele>29.473762</ele>
        <time>2020-08-29T20:09:54.015Z</time>
      </trkpt>
      <trkpt lat="61.54723" lon="16.99615">
        <ele>29.553995</ele>
        <time>2020-08-29T20:10:12.589Z</time>
      </trkpt>
      <trkpt lat="61.54594" lon="16.99351">
        <ele>29.806006</ele>
        <time>2020-08-29T20:10:45.614Z</time>
      </trkpt>
      <trkpt lat="61.54511" lon="16.99182">
        <ele>29.923573</ele>
        <time>2020-08-29T20:11:06.615Z</time>
      </trkpt>
      <trkpt lat="61.54372" lon="16.98903">
        <ele>30.123211</ele>
        <time>2020-08-29T20:11:41.106Z</time>
      </trkpt>
      <trkpt lat="61.54313" lon="16.98803">
        <ele>30.228295</ele>
        <time>2020-08-29T20:11:55.013Z</time>
      </trkpt>
      <trkpt lat="61.54295" lon="16.98777">
        <ele>30.309283</ele>
        <time>2020-08-29T20:11:59.143Z</time>
      </trkpt>
      <trkpt lat="61.54264" lon="16.98733">
        <ele>30.700792</ele>
        <time>2020-08-29T20:12:06.452Z</time>
      </trkpt>
      <trkpt lat="61.54205" lon="16.98661">
        <ele>31.413841</ele>
        <time>2020-08-29T20:12:20.278Z</time>
      </trkpt>
      <trkpt lat="61.53832" lon="16.98247">
        <ele>39.084651</ele>
        <time>2020-08-29T20:13:59.609Z</time>
      </trkpt>
      <trkpt lat="61.53773" lon="16.98157">
        <ele>41.94491</ele>
        <time>2020-08-29T20:14:23.154Z</time>
      </trkpt>
      <trkpt lat="61.53763" lon="16.98138">
        <ele>42.476589</ele>
        <time>2020-08-29T20:14:27.697Z</time>
      </trkpt>
      <trkpt lat="61.53749" lon="16.9811">
        <ele>43.259523</ele>
        <time>2020-08-29T20:14:33.904Z</time>
      </trkpt>
      <trkpt lat="61.53727" lon="16.98055">
        <ele>44.645238</ele>
        <time>2020-08-29T20:14:44.862Z</time>
      </trkpt>
      <trkpt lat="61.53701" lon="16.97978">
        <ele>46.482994</ele>
        <time>2020-08-29T20:14:59.033Z</time>
      </trkpt>
      <trkpt lat="61.53671" lon="16.97882">
        <ele>47.303022</ele>
        <time>2020-08-29T20:15:15.375Z</time>
      </trkpt>
      <trkpt lat="61.53647" lon="16.9782">
        <ele>47.852141</ele>
        <time>2020-08-29T20:15:24.450Z</time>
      </trkpt>
      <trkpt lat="61.5362" lon="16.97763">
        <ele>48.404691</ele>
        <time>2020-08-29T20:15:32.575Z</time>
      </trkpt>
      <trkpt lat="61.53307" lon="16.97228">
        <ele>44.909445</ele>
        <time>2020-08-29T20:16:33.895Z</time>
      </trkpt>
      <trkpt lat="61.5327" lon="16.97141">
        <ele>44.344638</ele>
        <time>2020-08-29T20:16:41.773Z</time>
      </trkpt>
      <trkpt lat="61.53252" lon="16.97077">
        <ele>43.99492</ele>
        <time>2020-08-29T20:16:46.887Z</time>
      </trkpt>
      <trkpt lat="61.53238" lon="16.97007">
        <ele>43.633742</ele>
        <time>2020-08-29T20:16:52.450Z</time>
      </trkpt>
      <trkpt lat="61.53188" lon="16.96757">
        <ele>43.658806</ele>
        <time>2020-08-29T20:17:15.415Z</time>
      </trkpt>
      <trkpt lat="61.53187" lon="16.9675">
        <ele>43.690003</ele>
        <time>2020-08-29T20:17:16.548Z</time>
      </trkpt>
      <trkpt lat="61.53122" lon="16.9641">
        <ele>44.902309</ele>
        <time>2020-08-29T20:17:55.407Z</time>
      </trkpt>
      <trkpt lat="61.53094" lon="16.96311">
        <ele>45.144915</ele>
        <time>2020-08-29T20:18:06.088Z</time>
      </trkpt>
      <trkpt lat="61.53056" lon="16.96208">
        <ele>45.311863</ele>
        <time>2020-08-29T20:18:16.542Z</time>
      </trkpt>
      <trkpt lat="61.52977" lon="16.96051">
        <ele>43.886512</ele>
        <time>2020-08-29T20:18:32.691Z</time>
      </trkpt>
      <trkpt lat="61.5293" lon="16.95967">
        <ele>43.075622</ele>
        <time>2020-08-29T20:18:41.629Z</time>
      </trkpt>
      <trkpt lat="61.52915" lon="16.95937">
        <ele>42.836509</ele>
        <time>2020-08-29T20:18:44.576Z</time>
      </trkpt>
      <trkpt lat="61.52826" lon="16.95786">
        <ele>41.51255</ele>
        <time>2020-08-29T20:19:01.777Z</time>
      </trkpt>
      <trkpt lat="61.52794" lon="16.95743">
        <ele>41.072552</ele>
        <time>2020-08-29T20:19:07.890Z</time>
      </trkpt>
      <trkpt lat="61.52747" lon="16.9569">
        <ele>40.790928</ele>
        <time>2020-08-29T20:19:16.737Z</time>
      </trkpt>
      <trkpt lat="61.5266" lon="16.95628">
        <ele>40.438887</ele>
        <time>2020-08-29T20:19:32.198Z</time>
      </trkpt>
      <trkpt lat="61.52617" lon="16.95611">
        <ele>40.274432</ele>
        <time>2020-08-29T20:19:39.571Z</time>
      </trkpt>
      <trkpt lat="61.52609" lon="16.95609">
        <ele>40.297908</ele>
        <time>2020-08-29T20:19:41.011Z</time>
      </trkpt>
      <trkpt lat="61.52585" lon="16.95603">
        <ele>40.399922</ele>
        <time>2020-08-29T20:19:45.317Z</time>
      </trkpt>
      <trkpt lat="61.52573" lon="16.95601">
        <ele>40.451402</ele>
        <time>2020-08-29T20:19:47.550Z</time>
      </trkpt>
      <trkpt lat="61.52549" lon="16.95599">
        <ele>40.551559</ele>
        <time>2020-08-29T20:19:51.929Z</time>
      </trkpt>
      <trkpt lat="61.52487" lon="16.95604">
        <ele>40.807389</ele>
        <time>2020-08-29T20:20:03.575Z</time>
      </trkpt>
      <trkpt lat="61.52452" lon="16.95616">
        <ele>40.958198</ele>
        <time>2020-08-29T20:20:10.741Z</time>
      </trkpt>
      <trkpt lat="61.52112" lon="16.9576">
        <ele>45.5281</ele>
        <time>2020-08-29T20:21:27.108Z</time>
      </trkpt>
      <trkpt lat="61.51927" lon="16.95823">
        <ele>49.273019</ele>
        <time>2020-08-29T20:22:12.860Z</time>
      </trkpt>
      <trkpt lat="61.51826" lon="16.95841">
        <ele>51.53773</ele>
        <time>2020-08-29T20:22:39.020Z</time>
      </trkpt>
      <trkpt lat="61.51733" lon="16.95819">
        <ele>53.696949</ele>
        <time>2020-08-29T20:23:03.043Z</time>
      </trkpt>
      <trkpt lat="61.51021" lon="16.9542">
        <ele>65.014189</ele>
        <time>2020-08-29T20:25:50.070Z</time>
      </trkpt>
      <trkpt lat="61.50892" lon="16.95333">
        <ele>67.108782</ele>
        <time>2020-08-29T20:26:20.681Z</time>
      </trkpt>
      <trkpt lat="61.50819" lon="16.95255">
        <ele>68.356384</ele>
        <time>2020-08-29T20:26:39.522Z</time>
      </trkpt>
      <trkpt lat="61.50287" lon="16.946">
        <ele>76.938884</ele>
        <time>2020-08-29T20:28:59.238Z</time>
      </trkpt>
      <trkpt lat="61.5024" lon="16.94552">
        <ele>77.445955</ele>
        <time>2020-08-29T20:29:08.775Z</time>
      </trkpt>
      <trkpt lat="61.50178" lon="16.94507">
        <ele>76.578482</ele>
        <time>2020-08-29T20:29:19.373Z</time>
      </trkpt>
      <trkpt lat="61.50101" lon="16.94475">
        <ele>75.518007</ele>
        <time>2020-08-29T20:29:30.848Z</time>
      </trkpt>
      <trkpt lat="61.50033" lon="16.94461">
        <ele>74.098457</ele>
        <time>2020-08-29T20:29:40.222Z</time>
      </trkpt>
      <trkpt lat="61.49845" lon="16.94439">
        <ele>68.591775</ele>
        <time>2020-08-29T20:30:05.007Z</time>
      </trkpt>
      <trkpt lat="61.49588" lon="16.94406">
        <ele>60.714536</ele>
        <time>2020-08-29T20:30:38.786Z</time>
      </trkpt>
      <trkpt lat="61.49366" lon="16.94402">
        <ele>54.671609</ele>
        <time>2020-08-29T20:31:08.462Z</time>
      </trkpt>
      <trkpt lat="61.49307" lon="16.94401">
        <ele>53.737523</ele>
        <time>2020-08-29T20:31:16.933Z</time>
      </trkpt>
      <trkpt lat="61.49306" lon="16.94362">
        <ele>53.536132</ele>
        <time>2020-08-29T20:31:19.754Z</time>
      </trkpt>
      <trkpt lat="61.49303" lon="16.94296">
        <ele>53.189053</ele>
        <time>2020-08-29T20:31:24.586Z</time>
      </trkpt>
      <trkpt lat="61.49301" lon="16.94276">
        <ele>53.082685</ele>
        <time>2020-08-29T20:31:26.159Z</time>
      </trkpt>
      <trkpt lat="61.49293" lon="16.94259">
        <ele>52.965294</ele>
        <time>2020-08-29T20:31:27.764Z</time>
      </trkpt>
      <trkpt lat="61.4924" lon="16.94185">
        <ele>52.269473</ele>
        <time>2020-08-29T20:31:38.331Z</time>
      </trkpt>
      <trkpt lat="61.49211" lon="16.94111">
        <ele>51.889899</ele>
        <time>2020-08-29T20:31:46.125Z</time>
      </trkpt>
      <trkpt lat="61.49133" lon="16.93985">
        <ele>51.106252</ele>
        <time>2020-08-29T20:32:02.039Z</time>
      </trkpt>
      <trkpt lat="61.49089" lon="16.93914">
        <ele>50.491226</ele>
        <time>2020-08-29T20:32:10.411Z</time>
      </trkpt>
      <trkpt lat="61.48997" lon="16.93794">
        <ele>48.293533</ele>
        <time>2020-08-29T20:32:25.764Z</time>
      </trkpt>
      <trkpt lat="61.48975" lon="16.9377">
        <ele>47.792122</ele>
        <time>2020-08-29T20:32:29.116Z</time>
      </trkpt>
      <trkpt lat="61.48935" lon="16.93729">
        <ele>46.854327</ele>
        <time>2020-08-29T20:32:35.111Z</time>
      </trkpt>
      <trkpt lat="61.48892" lon="16.93711">
        <ele>45.779491</ele>
        <time>2020-08-29T20:32:41.090Z</time>
      </trkpt>
      <trkpt lat="61.48844" lon="16.93707">
        <ele>44.621939</ele>
        <time>2020-08-29T20:32:47.509Z</time>
      </trkpt>
      <trkpt lat="61.48759" lon="16.93698">
        <ele>42.682412</ele>
        <time>2020-08-29T20:32:59.194Z</time>
      </trkpt>
      <trkpt lat="61.48657" lon="16.93605">
        <ele>41.452434</ele>
        <time>2020-08-29T20:33:15.630Z</time>
      </trkpt>
      <trkpt lat="61.48617" lon="16.93591">
        <ele>40.996886</ele>
        <time>2020-08-29T20:33:22.490Z</time>
      </trkpt>
      <trkpt lat="61.48588" lon="16.93603">
        <ele>40.944823</ele>
        <time>2020-08-29T20:33:27.716Z</time>
      </trkpt>
      <trkpt lat="61.48573" lon="16.93617">
        <ele>41.177561</ele>
        <time>2020-08-29T20:33:30.848Z</time>
      </trkpt>
      <trkpt lat="61.48554" lon="16.93642">
        <ele>41.484481</ele>
        <time>2020-08-29T20:33:35.274Z</time>
      </trkpt>
      <trkpt lat="61.48527" lon="16.93706">
        <ele>42.048539</ele>
        <time>2020-08-29T20:33:43.946Z</time>
      </trkpt>
      <trkpt lat="61.48512" lon="16.93773">
        <ele>42.53941</ele>
        <time>2020-08-29T20:33:52.166Z</time>
      </trkpt>
      <trkpt lat="61.48493" lon="16.93816">
        <ele>42.933333</ele>
        <time>2020-08-29T20:33:59.175Z</time>
      </trkpt>
      <trkpt lat="61.48451" lon="16.93836">
        <ele>43.830074</ele>
        <time>2020-08-29T20:34:10.496Z</time>
      </trkpt>
      <trkpt lat="61.48263" lon="16.93998">
        <ele>50.447261</ele>
        <time>2020-08-29T20:35:08.129Z</time>
      </trkpt>
      <trkpt lat="61.48126" lon="16.94033">
        <ele>55.422109</ele>
        <time>2020-08-29T20:35:49.142Z</time>
      </trkpt>
      <trkpt lat="61.48095" lon="16.94069">
        <ele>56.709225</ele>
        <time>2020-08-29T20:35:59.705Z</time>
      </trkpt>
      <trkpt lat="61.48093" lon="16.94085">
        <ele>56.993491</ele>
        <time>2020-08-29T20:36:02.196Z</time>
      </trkpt>
      <trkpt lat="61.48091" lon="16.94125">
        <ele>57.703429</ele>
        <time>2020-08-29T20:36:07.996Z</time>
      </trkpt>
      <trkpt lat="61.4781" lon="16.9416">
        <ele>67.379179</ele>
        <time>2020-08-29T20:37:30.448Z</time>
      </trkpt>
      <trkpt lat="61.47709" lon="16.94174">
        <ele>69.085872</ele>
        <time>2020-08-29T20:37:54.999Z</time>
      </trkpt>
      <trkpt lat="61.47655" lon="16.94182">
        <ele>69.832254</ele>
        <time>2020-08-29T20:38:06.626Z</time>
      </trkpt>
      <trkpt lat="61.46404" lon="16.94358">
        <ele>69.598208</ele>
        <time>2020-08-29T20:41:48.192Z</time>
      </trkpt>
      <trkpt lat="61.46295" lon="16.94404">
        <ele>68.663446</ele>
        <time>2020-08-29T20:42:05.725Z</time>
      </trkpt>
      <trkpt lat="61.45883" lon="16.94652">
        <ele>63.27517</ele>
        <time>2020-08-29T20:43:09.632Z</time>
      </trkpt>
      <trkpt lat="61.45726" lon="16.94749">
        <ele>61.719357</ele>
        <time>2020-08-29T20:43:35.294Z</time>
      </trkpt>
      <trkpt lat="61.45594" lon="16.94832">
        <ele>60.809654</ele>
        <time>2020-08-29T20:43:57.504Z</time>
      </trkpt>
      <trkpt lat="61.45585" lon="16.94837">
        <ele>60.761705</ele>
        <time>2020-08-29T20:43:59.027Z</time>
      </trkpt>
      <trkpt lat="61.4553" lon="16.94871">
        <ele>60.470371</ele>
        <time>2020-08-29T20:44:08.417Z</time>
      </trkpt>
      <trkpt lat="61.45113" lon="16.95124">
        <ele>59.643996</ele>
        <time>2020-08-29T20:45:23.876Z</time>
      </trkpt>
      <trkpt lat="61.44949" lon="16.95223">
        <ele>59.191861</ele>
        <time>2020-08-29T20:45:52.757Z</time>
      </trkpt>
      <trkpt lat="61.44806" lon="16.95316">
        <ele>58.72859</ele>
        <time>2020-08-29T20:46:18.285Z</time>
      </trkpt>
      <trkpt lat="61.44753" lon="16.95359">
        <ele>58.491478</ele>
        <time>2020-08-29T20:46:27.897Z</time>
      </trkpt>
      <trkpt lat="61.44687" lon="16.9544">
        <ele>58.167862</ele>
        <time>2020-08-29T20:46:40.585Z</time>
      </trkpt>
      <trkpt lat="61.44635" lon="16.95523">
        <ele>57.825084</ele>
        <time>2020-08-29T20:46:51.230Z</time>
      </trkpt>
      <trkpt lat="61.44557" lon="16.9565">
        <ele>56.998202</ele>
        <time>2020-08-29T20:47:06.927Z</time>
      </trkpt>
      <trkpt lat="61.44354" lon="16.95968">
        <ele>54.736028</ele>
        <time>2020-08-29T20:47:46.420Z</time>
      </trkpt>
      <trkpt lat="61.4422" lon="16.96186">
        <ele>53.867512</ele>
        <time>2020-08-29T20:48:14.485Z</time>
      </trkpt>
      <trkpt lat="61.44168" lon="16.96256">
        <ele>53.682267</ele>
        <time>2020-08-29T20:48:25.021Z</time>
      </trkpt>
      <trkpt lat="61.44113" lon="16.96308">
        <ele>53.503031</ele>
        <time>2020-08-29T20:48:35.353Z</time>
      </trkpt>
      <trkpt lat="61.44082" lon="16.96326">
        <ele>53.405908</ele>
        <time>2020-08-29T20:48:40.933Z</time>
      </trkpt>
      <trkpt lat="61.44051" lon="16.96333">
        <ele>53.321022</ele>
        <time>2020-08-29T20:48:46.058Z</time>
      </trkpt>
      <trkpt lat="61.44021" lon="16.96336">
        <ele>53.276901</ele>
        <time>2020-08-29T20:48:51.136Z</time>
      </trkpt>
      <trkpt lat="61.43951" lon="16.96319">
        <ele>53.174972</ele>
        <time>2020-08-29T20:49:03.143Z</time>
      </trkpt>
      <trkpt lat="61.43907" lon="16.96295">
        <ele>53.108622</ele>
        <time>2020-08-29T20:49:11.178Z</time>
      </trkpt>
      <trkpt lat="61.43892" lon="16.9629">
        <ele>53.086297</ele>
        <time>2020-08-29T20:49:13.914Z</time>
      </trkpt>
      <trkpt lat="61.43754" lon="16.96233">
        <ele>52.917292</ele>
        <time>2020-08-29T20:49:39.572Z</time>
      </trkpt>
      <trkpt lat="61.43641" lon="16.96212">
        <ele>51.776757</ele>
        <time>2020-08-29T20:49:58.155Z</time>
      </trkpt>
      <trkpt lat="61.4308" lon="16.96193">
        <ele>41.97478</ele>
        <time>2020-08-29T20:51:16.908Z</time>
      </trkpt>
      <trkpt lat="61.43026" lon="16.96203">
        <ele>41.502554</ele>
        <time>2020-08-29T20:51:25.872Z</time>
      </trkpt>
      <trkpt lat="61.42816" lon="16.96237">
        <ele>42.384416</ele>
        <time>2020-08-29T20:52:08.347Z</time>
      </trkpt>
      <trkpt lat="61.42635" lon="16.96269">
        <ele>44.07546</ele>
        <time>2020-08-29T20:52:46.789Z</time>
      </trkpt>
      <trkpt lat="61.42629" lon="16.9627">
        <ele>44.135107</ele>
        <time>2020-08-29T20:52:48.083Z</time>
      </trkpt>
      <trkpt lat="61.42557" lon="16.96283">
        <ele>44.177808</ele>
        <time>2020-08-29T20:53:02.431Z</time>
      </trkpt>
      <trkpt lat="61.41992" lon="16.96382">
        <ele>43.210935</ele>
        <time>2020-08-29T20:54:41.476Z</time>
      </trkpt>
      <trkpt lat="61.4194" lon="16.96375">
        <ele>42.713874</ele>
        <time>2020-08-29T20:54:48.968Z</time>
      </trkpt>
      <trkpt lat="61.41769" lon="16.96292">
        <ele>39.775691</ele>
        <time>2020-08-29T20:55:13.508Z</time>
      </trkpt>
      <trkpt lat="61.41748" lon="16.9628">
        <ele>39.380969</ele>
        <time>2020-08-29T20:55:16.619Z</time>
      </trkpt>
      <trkpt lat="61.41655" lon="16.96225">
        <ele>39.255379</ele>
        <time>2020-08-29T20:55:32.384Z</time>
      </trkpt>
      <trkpt lat="61.41575" lon="16.96165">
        <ele>39.440761</ele>
        <time>2020-08-29T20:55:49.682Z</time>
      </trkpt>
      <trkpt lat="61.41412" lon="16.95971">
        <ele>42.170669</ele>
        <time>2020-08-29T20:56:33.103Z</time>
      </trkpt>
      <trkpt lat="61.41351" lon="16.95928">
        <ele>42.949574</ele>
        <time>2020-08-29T20:56:47.659Z</time>
      </trkpt>
      <trkpt lat="61.40666" lon="16.95724">
        <ele>50.632403</ele>
        <time>2020-08-29T20:59:16.084Z</time>
      </trkpt>
      <trkpt lat="61.40505" lon="16.95679">
        <ele>51.004837</ele>
        <time>2020-08-29T20:59:45.285Z</time>
      </trkpt>
      <trkpt lat="61.40436" lon="16.95659">
        <ele>50.972581</ele>
        <time>2020-08-29T20:59:56.875Z</time>
      </trkpt>
      <trkpt lat="61.40313" lon="16.9561">
        <ele>51.220291</ele>
        <time>2020-08-29T21:00:19.357Z</time>
      </trkpt>
      <trkpt lat="61.39905" lon="16.95318">
        <ele>55.743268</ele>
        <time>2020-08-29T21:01:52.543Z</time>
      </trkpt>
      <trkpt lat="61.39484" lon="16.95009">
        <ele>59.467923</ele>
        <time>2020-08-29T21:03:24.071Z</time>
      </trkpt>
      <trkpt lat="61.39394" lon="16.94945">
        <ele>59.736804</ele>
        <time>2020-08-29T21:03:42.097Z</time>
      </trkpt>
      <trkpt lat="61.39272" lon="16.9488">
        <ele>59.928216</ele>
        <time>2020-08-29T21:04:04.566Z</time>
      </trkpt>
      <trkpt lat="61.39212" lon="16.94867">
        <ele>59.88901</ele>
        <time>2020-08-29T21:04:15.364Z</time>
      </trkpt>
      <trkpt lat="61.39148" lon="16.94868">
        <ele>59.847694</ele>
        <time>2020-08-29T21:04:26.667Z</time>
      </trkpt>
      <trkpt lat="61.37951" lon="16.95062">
        <ele>54.527712</ele>
        <time>2020-08-29T21:07:49.808Z</time>
      </trkpt>
      <trkpt lat="61.37897" lon="16.95065">
        <ele>53.613953</ele>
        <time>2020-08-29T21:07:56.696Z</time>
      </trkpt>
      <trkpt lat="61.37875" lon="16.95063">
        <ele>52.923907</ele>
        <time>2020-08-29T21:07:59.477Z</time>
      </trkpt>
      <trkpt lat="61.37872" lon="16.95081">
        <ele>52.410064</ele>
        <time>2020-08-29T21:08:00.589Z</time>
      </trkpt>
      <trkpt lat="61.37857" lon="16.95111">
        <ele>51.285596</ele>
        <time>2020-08-29T21:08:03.176Z</time>
      </trkpt>
      <trkpt lat="61.37807" lon="16.95144">
        <ele>48.469052</ele>
        <time>2020-08-29T21:08:09.321Z</time>
      </trkpt>
      <trkpt lat="61.37707" lon="16.95306">
        <ele>41.429628</ele>
        <time>2020-08-29T21:08:24.141Z</time>
      </trkpt>
      <trkpt lat="61.37666" lon="16.95327">
        <ele>38.925159</ele>
        <time>2020-08-29T21:08:29.170Z</time>
      </trkpt>
      <trkpt lat="61.37632" lon="16.95327">
        <ele>36.9533</ele>
        <time>2020-08-29T21:08:33.132Z</time>
      </trkpt>
      <trkpt lat="61.37591" lon="16.95309">
        <ele>34.511304</ele>
        <time>2020-08-29T21:08:38.091Z</time>
      </trkpt>
      <trkpt lat="61.37546" lon="16.95312">
        <ele>32.254798</ele>
        <time>2020-08-29T21:08:43.558Z</time>
      </trkpt>
      <trkpt lat="61.37511" lon="16.95328">
        <ele>30.830017</ele>
        <time>2020-08-29T21:08:47.957Z</time>
      </trkpt>
      <trkpt lat="61.37475" lon="16.95344">
        <ele>29.376779</ele>
        <time>2020-08-29T21:08:52.531Z</time>
      </trkpt>
      <trkpt lat="61.3739" lon="16.95405">
        <ele>25.833613</ele>
        <time>2020-08-29T21:09:04.198Z</time>
      </trkpt>
      <trkpt lat="61.37322" lon="16.95421">
        <ele>24.117699</ele>
        <time>2020-08-29T21:09:13.550Z</time>
      </trkpt>
      <trkpt lat="61.37257" lon="16.95398">
        <ele>22.489421</ele>
        <time>2020-08-29T21:09:22.653Z</time>
      </trkpt>
      <trkpt lat="61.37125" lon="16.9539">
        <ele>19.167461</ele>
        <time>2020-08-29T21:09:40.727Z</time>
      </trkpt>
      <trkpt lat="61.37064" lon="16.95364">
        <ele>17.627238</ele>
        <time>2020-08-29T21:09:49.002Z</time>
      </trkpt>
      <trkpt lat="61.37036" lon="16.95335">
        <ele>16.888657</ele>
        <time>2020-08-29T21:09:53.236Z</time>
      </trkpt>
      <trkpt lat="61.36992" lon="16.95322">
        <ele>16.251467</ele>
        <time>2020-08-29T21:09:59.410Z</time>
      </trkpt>
      <trkpt lat="61.36906" lon="16.95788">
        <ele>13.799745</ele>
        <time>2020-08-29T21:10:36.401Z</time>
      </trkpt>
      <trkpt lat="61.36857" lon="16.96077">
        <ele>13.493135</ele>
        <time>2020-08-29T21:11:03.240Z</time>
      </trkpt>
      <trkpt lat="61.36823" lon="16.96388">
        <ele>13.513815</ele>
        <time>2020-08-29T21:11:31.255Z</time>
      </trkpt>
      <trkpt lat="61.36717" lon="16.96807">
        <ele>12.740256</ele>
        <time>2020-08-29T21:12:09.586Z</time>
      </trkpt>
      <trkpt lat="61.36693" lon="16.96878">
        <ele>12.52425</ele>
        <time>2020-08-29T21:12:16.264Z</time>
      </trkpt>
      <trkpt lat="61.36587" lon="16.97198">
        <ele>11.359904</ele>
        <time>2020-08-29T21:12:46.204Z</time>
      </trkpt>
      <trkpt lat="61.36546" lon="16.97335">
        <ele>10.883124</ele>
        <time>2020-08-29T21:12:58.731Z</time>
      </trkpt>
      <trkpt lat="61.36467" lon="16.97522">
        <ele>10.184333</ele>
        <time>2020-08-29T21:13:18.238Z</time>
      </trkpt>
      <trkpt lat="61.36447" lon="16.97575">
        <ele>10.00996</ele>
        <time>2020-08-29T21:13:23.597Z</time>
      </trkpt>
      <trkpt lat="61.36424" lon="16.97648">
        <ele>9.822289</ele>
        <time>2020-08-29T21:13:30.468Z</time>
      </trkpt>
      <trkpt lat="61.36379" lon="16.97828">
        <ele>9.388401</ele>
        <time>2020-08-29T21:13:46.536Z</time>
      </trkpt>
      <trkpt lat="61.36363" lon="16.97895">
        <ele>9.261159</ele>
        <time>2020-08-29T21:13:52.702Z</time>
      </trkpt>
      <trkpt lat="61.36337" lon="16.98003">
        <ele>9.269762</ele>
        <time>2020-08-29T21:14:02.795Z</time>
      </trkpt>
      <trkpt lat="61.36247" lon="16.98332">
        <ele>9.418833</ele>
        <time>2020-08-29T21:14:36.066Z</time>
      </trkpt>
      <trkpt lat="61.36232" lon="16.98371">
        <ele>9.464643</ele>
        <time>2020-08-29T21:14:40.408Z</time>
      </trkpt>
      <trkpt lat="61.36218" lon="16.98391">
        <ele>9.498021</ele>
        <time>2020-08-29T21:14:43.633Z</time>
      </trkpt>
      <trkpt lat="61.36171" lon="16.98451">
        <ele>9.607249</ele>
        <time>2020-08-29T21:14:53.956Z</time>
      </trkpt>
      <trkpt lat="61.36147" lon="16.98472">
        <ele>9.647316</ele>
        <time>2020-08-29T21:14:58.842Z</time>
      </trkpt>
      <trkpt lat="61.36142" lon="16.98474">
        <ele>9.650573</ele>
        <time>2020-08-29T21:14:59.646Z</time>
      </trkpt>
      <trkpt lat="61.36061" lon="16.98543">
        <ele>9.715556</ele>
        <time>2020-08-29T21:15:15.655Z</time>
      </trkpt>
      <trkpt lat="61.36039" lon="16.98572">
        <ele>9.73472</ele>
        <time>2020-08-29T21:15:20.254Z</time>
      </trkpt>
      <trkpt lat="61.36009" lon="16.98634">
        <ele>9.766255</ele>
        <time>2020-08-29T21:15:27.808Z</time>
      </trkpt>
      <trkpt lat="61.35997" lon="16.98671">
        <ele>9.763968</ele>
        <time>2020-08-29T21:15:31.555Z</time>
      </trkpt>
      <trkpt lat="61.36009" lon="16.98696">
        <ele>9.749564</ele>
        <time>2020-08-29T21:15:34.487Z</time>
      </trkpt>
      <trkpt lat="61.36026" lon="16.98761">
        <ele>9.718619</ele>
        <time>2020-08-29T21:15:40.727Z</time>
      </trkpt>
      <trkpt lat="61.36033" lon="16.99078">
        <ele>9.563455</ele>
        <time>2020-08-29T21:16:07.438Z</time>
      </trkpt>
      <trkpt lat="61.36023" lon="16.99229">
        <ele>9.452518</ele>
        <time>2020-08-29T21:16:20.270Z</time>
      </trkpt>
      <trkpt lat="61.36011" lon="16.9928">
        <ele>9.411393</ele>
        <time>2020-08-29T21:16:24.980Z</time>
      </trkpt>
      <trkpt lat="61.35996" lon="16.99313">
        <ele>9.378709</ele>
        <time>2020-08-29T21:16:28.729Z</time>
      </trkpt>
      <trkpt lat="61.35971" lon="16.99357">
        <ele>9.326581</ele>
        <time>2020-08-29T21:16:34.451Z</time>
      </trkpt>
      <trkpt lat="61.35906" lon="16.99461">
        <ele>9.18926</ele>
        <time>2020-08-29T21:16:48.451Z</time>
      </trkpt>
      <trkpt lat="61.35888" lon="16.9951">
        <ele>9.138047</ele>
        <time>2020-08-29T21:16:53.691Z</time>
      </trkpt>
      <trkpt lat="61.35867" lon="16.99601">
        <ele>9.056465</ele>
        <time>2020-08-29T21:17:02.009Z</time>
      </trkpt>
      <trkpt lat="61.35867" lon="16.99686">
        <ele>9.048618</ele>
        <time>2020-08-29T21:17:09.140Z</time>
      </trkpt>
      <trkpt lat="61.3589" lon="16.99939">
        <ele>9.076543</ele>
        <time>2020-08-29T21:17:31.343Z</time>
      </trkpt>
      <trkpt lat="61.3589" lon="16.99981">
        <ele>9.081107</ele>
        <time>2020-08-29T21:17:35.076Z</time>
      </trkpt>
      <trkpt lat="61.35886" lon="16.99999">
        <ele>9.090056</ele>
        <time>2020-08-29T21:17:36.775Z</time>
      </trkpt>
      <trkpt lat="61.35846" lon="17.00153">
        <ele>9.226239</ele>
        <time>2020-08-29T21:17:52.184Z</time>
      </trkpt>
      <trkpt lat="61.35841" lon="17.00194">
        <ele>9.259422</ele>
        <time>2020-08-29T21:17:55.972Z</time>
      </trkpt>
      <trkpt lat="61.35822" lon="17.00401">
        <ele>9.433709</ele>
        <time>2020-08-29T21:18:14.468Z</time>
      </trkpt>
      <trkpt lat="61.35813" lon="17.0063">
        <ele>9.650576</ele>
        <time>2020-08-29T21:18:34.846Z</time>
      </trkpt>
      <trkpt lat="61.35818" lon="17.00775">
        <ele>9.759848</ele>
        <time>2020-08-29T21:18:47.863Z</time>
      </trkpt>
      <trkpt lat="61.35821" lon="17.00891">
        <ele>9.818964</ele>
        <time>2020-08-29T21:18:58.240Z</time>
      </trkpt>
      <trkpt lat="61.35826" lon="17.01098">
        <ele>9.908268</ele>
        <time>2020-08-29T21:19:15.965Z</time>
      </trkpt>
      <trkpt lat="61.35823" lon="17.01145">
        <ele>9.860334</ele>
        <time>2020-08-29T21:19:19.888Z</time>
      </trkpt>
      <trkpt lat="61.35819" lon="17.01194">
        <ele>9.809593</ele>
        <time>2020-08-29T21:19:23.921Z</time>
      </trkpt>
      <trkpt lat="61.35798" lon="17.01324">
        <ele>9.670992</ele>
        <time>2020-08-29T21:19:35.075Z</time>
      </trkpt>
      <trkpt lat="61.35771" lon="17.01444">
        <ele>9.540299</ele>
        <time>2020-08-29T21:19:46.134Z</time>
      </trkpt>
      <trkpt lat="61.35752" lon="17.01528">
        <ele>9.565885</ele>
        <time>2020-08-29T21:19:53.936Z</time>
      </trkpt>
      <trkpt lat="61.35742" lon="17.01595">
        <ele>9.585362</ele>
        <time>2020-08-29T21:19:59.996Z</time>
      </trkpt>
      <trkpt lat="61.35735" lon="17.01654">
        <ele>9.602293</ele>
        <time>2020-08-29T21:20:05.299Z</time>
      </trkpt>
      <trkpt lat="61.35729" lon="17.01722">
        <ele>9.621438</ele>
        <time>2020-08-29T21:20:11.444Z</time>
      </trkpt>
      <trkpt lat="61.35729" lon="17.01782">
        <ele>9.637782</ele>
        <time>2020-08-29T21:20:16.789Z</time>
      </trkpt>
      <trkpt lat="61.35733" lon="17.01944">
        <ele>9.480558</ele>
        <time>2020-08-29T21:20:30.744Z</time>
      </trkpt>
      <trkpt lat="61.35729" lon="17.01979">
        <ele>9.439312</ele>
        <time>2020-08-29T21:20:33.747Z</time>
      </trkpt>
      <trkpt lat="61.35701" lon="17.02064">
        <ele>9.322553</ele>
        <time>2020-08-29T21:20:41.986Z</time>
      </trkpt>
      <trkpt lat="61.35683" lon="17.02114">
        <ele>9.24994</ele>
        <time>2020-08-29T21:20:47.067Z</time>
      </trkpt>
      <trkpt lat="61.35674" lon="17.02139">
        <ele>9.216006</ele>
        <time>2020-08-29T21:20:49.329Z</time>
      </trkpt>
      <trkpt lat="61.35634" lon="17.02268">
        <ele>8.914378</ele>
        <time>2020-08-29T21:21:01.561Z</time>
      </trkpt>
      <trkpt lat="61.35595" lon="17.02456">
        <ele>8.515725</ele>
        <time>2020-08-29T21:21:18.007Z</time>
      </trkpt>
      <trkpt lat="61.3557" lon="17.0252">
        <ele>8.402021</ele>
        <time>2020-08-29T21:21:24.844Z</time>
      </trkpt>
      <trkpt lat="61.35563" lon="17.02553">
        <ele>8.358862</ele>
        <time>2020-08-29T21:21:27.737Z</time>
      </trkpt>
      <trkpt lat="61.35561" lon="17.02596">
        <ele>8.305812</ele>
        <time>2020-08-29T21:21:31.293Z</time>
      </trkpt>
      <trkpt lat="61.35558" lon="17.02666">
        <ele>8.221286</ele>
        <time>2020-08-29T21:21:36.972Z</time>
      </trkpt>
      <trkpt lat="61.35454" lon="17.02639">
        <ele>8.111878</ele>
        <time>2020-08-29T21:21:55.555Z</time>
      </trkpt>
      <trkpt lat="61.35332" lon="17.02729">
        <ele>8.50097</ele>
        <time>2020-08-29T21:22:20.480Z</time>
      </trkpt>
      <trkpt lat="61.35317" lon="17.02741">
        <ele>8.548373</ele>
        <time>2020-08-29T21:22:23.932Z</time>
      </trkpt>
      <trkpt lat="61.35306" lon="17.02743">
        <ele>8.679966</ele>
        <time>2020-08-29T21:22:26.405Z</time>
      </trkpt>
      <trkpt lat="61.3529" lon="17.02741">
        <ele>9.02824</ele>
        <time>2020-08-29T21:22:30.057Z</time>
      </trkpt>
      <trkpt lat="61.3528" lon="17.02741">
        <ele>9.236211</ele>
        <time>2020-08-29T21:22:32.254Z</time>
      </trkpt>
      <trkpt lat="61.35272" lon="17.02739">
        <ele>9.418808</ele>
        <time>2020-08-29T21:22:34.191Z</time>
      </trkpt>
      <trkpt lat="61.35233" lon="17.0273">
        <ele>10.276839</ele>
        <time>2020-08-29T21:22:43.780Z</time>
      </trkpt>
      <trkpt lat="61.35125" lon="17.02637">
        <ele>12.77697</ele>
        <time>2020-08-29T21:23:16.430Z</time>
      </trkpt>
      <trkpt lat="61.35099" lon="17.02625">
        <ele>13.23595</ele>
        <time>2020-08-29T21:23:23.885Z</time>
      </trkpt>
      <trkpt lat="61.35057" lon="17.02661">
        <ele>14.026038</ele>
        <time>2020-08-29T21:23:35.229Z</time>
      </trkpt>
      <trkpt lat="61.35029" lon="17.02661">
        <ele>14.523811</ele>
        <time>2020-08-29T21:23:42.385Z</time>
      </trkpt>
      <trkpt lat="61.34997" lon="17.0273">
        <ele>15.335388</ele>
        <time>2020-08-29T21:23:52.138Z</time>
      </trkpt>
      <trkpt lat="61.349" lon="17.02872">
        <ele>15.479746</ele>
        <time>2020-08-29T21:24:13.443Z</time>
      </trkpt>
      <trkpt lat="61.34798" lon="17.02947">
        <ele>15.331243</ele>
        <time>2020-08-29T21:24:30.641Z</time>
      </trkpt>
      <trkpt lat="61.34589" lon="17.0306">
        <ele>15.550876</ele>
        <time>2020-08-29T21:25:10.431Z</time>
      </trkpt>
      <trkpt lat="61.34375" lon="17.03175">
        <ele>16.705742</ele>
        <time>2020-08-29T21:25:53.704Z</time>
      </trkpt>
      <trkpt lat="61.34181" lon="17.03315">
        <ele>17.82708</ele>
        <time>2020-08-29T21:26:35.312Z</time>
      </trkpt>
      <trkpt lat="61.33772" lon="17.03758">
        <ele>17.058837</ele>
        <time>2020-08-29T21:27:55.203Z</time>
      </trkpt>
      <trkpt lat="61.33691" lon="17.03865">
        <ele>16.324546</ele>
        <time>2020-08-29T21:28:10.140Z</time>
      </trkpt>
      <trkpt lat="61.33678" lon="17.03889">
        <ele>16.185608</ele>
        <time>2020-08-29T21:28:12.945Z</time>
      </trkpt>
      <trkpt lat="61.33677" lon="17.03902">
        <ele>16.13984</ele>
        <time>2020-08-29T21:28:13.778Z</time>
      </trkpt>
      <trkpt lat="61.33632" lon="17.03995">
        <ele>15.354554</ele>
        <time>2020-08-29T21:28:23.407Z</time>
      </trkpt>
      <trkpt lat="61.33609" lon="17.04063">
        <ele>14.842518</ele>
        <time>2020-08-29T21:28:29.280Z</time>
      </trkpt>
      <trkpt lat="61.33594" lon="17.04076">
        <ele>14.63254</ele>
        <time>2020-08-29T21:28:31.657Z</time>
      </trkpt>
      <trkpt lat="61.33564" lon="17.04155">
        <ele>14.005428</ele>
        <time>2020-08-29T21:28:38.876Z</time>
      </trkpt>
      <trkpt lat="61.33508" lon="17.04269">
        <ele>13.04888</ele>
        <time>2020-08-29T21:28:50.775Z</time>
      </trkpt>
      <trkpt lat="61.33461" lon="17.0434">
        <ele>12.360149</ele>
        <time>2020-08-29T21:28:59.481Z</time>
      </trkpt>
      <trkpt lat="61.33328" lon="17.0452">
        <ele>11.039633</ele>
        <time>2020-08-29T21:29:24.140Z</time>
      </trkpt>
      <trkpt lat="61.33319" lon="17.04532">
        <ele>10.977339</ele>
        <time>2020-08-29T21:29:25.839Z</time>
      </trkpt>
      <trkpt lat="61.333" lon="17.04557">
        <ele>10.844359</ele>
        <time>2020-08-29T21:29:29.488Z</time>
      </trkpt>
      <trkpt lat="61.3329" lon="17.04587">
        <ele>10.737995</ele>
        <time>2020-08-29T21:29:32.451Z</time>
      </trkpt>
      <trkpt lat="61.33278" lon="17.04603">
        <ele>10.651997</ele>
        <time>2020-08-29T21:29:34.877Z</time>
      </trkpt>
      <trkpt lat="61.33262" lon="17.04609">
        <ele>10.551618</ele>
        <time>2020-08-29T21:29:37.745Z</time>
      </trkpt>
      <trkpt lat="61.33132" lon="17.04784">
        <ele>10.617704</ele>
        <time>2020-08-29T21:30:06.250Z</time>
      </trkpt>
      <trkpt lat="61.33093" lon="17.04838">
        <ele>10.525642</ele>
        <time>2020-08-29T21:30:14.699Z</time>
      </trkpt>
      <trkpt lat="61.33059" lon="17.04892">
        <ele>10.279714</ele>
        <time>2020-08-29T21:30:21.938Z</time>
      </trkpt>
      <trkpt lat="61.33006" lon="17.05111">
        <ele>9.596295</ele>
        <time>2020-08-29T21:30:40.619Z</time>
      </trkpt>
      <trkpt lat="61.32988" lon="17.05185">
        <ele>9.211525</ele>
        <time>2020-08-29T21:30:46.737Z</time>
      </trkpt>
      <trkpt lat="61.32967" lon="17.0527">
        <ele>8.769367</ele>
        <time>2020-08-29T21:30:53.568Z</time>
      </trkpt>
      <trkpt lat="61.32941" lon="17.05355">
        <ele>8.293164</ele>
        <time>2020-08-29T21:31:01.101Z</time>
      </trkpt>
      <trkpt lat="61.32912" lon="17.05418">
        <ele>7.886393</ele>
        <time>2020-08-29T21:31:07.700Z</time>
      </trkpt>
      <trkpt lat="61.32851" lon="17.05522">
        <ele>7.392195</ele>
        <time>2020-08-29T21:31:20.336Z</time>
      </trkpt>
      <trkpt lat="61.32806" lon="17.05595">
        <ele>7.050279</ele>
        <time>2020-08-29T21:31:29.648Z</time>
      </trkpt>
      <trkpt lat="61.32792" lon="17.05618">
        <ele>6.939769</ele>
        <time>2020-08-29T21:31:32.678Z</time>
      </trkpt>
      <trkpt lat="61.32788" lon="17.05632">
        <ele>6.893844</ele>
        <time>2020-08-29T21:31:33.940Z</time>
      </trkpt>
      <trkpt lat="61.32777" lon="17.05651">
        <ele>6.807365</ele>
        <time>2020-08-29T21:31:36.287Z</time>
      </trkpt>
      <trkpt lat="61.32768" lon="17.05657">
        <ele>6.751124</ele>
        <time>2020-08-29T21:31:37.865Z</time>
      </trkpt>
      <trkpt lat="61.32724" lon="17.05728">
        <ele>6.637652</ele>
        <time>2020-08-29T21:31:47.161Z</time>
      </trkpt>
      <trkpt lat="61.32645" lon="17.05834">
        <ele>6.447629</ele>
        <time>2020-08-29T21:32:03.207Z</time>
      </trkpt>
      <trkpt lat="61.32634" lon="17.05846">
        <ele>6.421841</ele>
        <time>2020-08-29T21:32:05.417Z</time>
      </trkpt>
      <trkpt lat="61.32632" lon="17.05858">
        <ele>6.409053</ele>
        <time>2020-08-29T21:32:06.535Z</time>
      </trkpt>
      <trkpt lat="61.32609" lon="17.05883">
        <ele>6.444142</ele>
        <time>2020-08-29T21:32:11.444Z</time>
      </trkpt>
      <trkpt lat="61.32588" lon="17.05904">
        <ele>6.531855</ele>
        <time>2020-08-29T21:32:15.764Z</time>
      </trkpt>
      <trkpt lat="61.32577" lon="17.05929">
        <ele>6.596115</ele>
        <time>2020-08-29T21:32:18.982Z</time>
      </trkpt>
      <trkpt lat="61.3257" lon="17.05936">
        <ele>6.628172</ele>
        <time>2020-08-29T21:32:20.549Z</time>
      </trkpt>
      <trkpt lat="61.32566" lon="17.05921">
        <ele>6.659956</ele>
        <time>2020-08-29T21:32:22.230Z</time>
      </trkpt>
      <trkpt lat="61.32533" lon="17.0596">
        <ele>6.809537</ele>
        <time>2020-08-29T21:32:29.701Z</time>
      </trkpt>
      <trkpt lat="61.32505" lon="17.05988">
        <ele>6.931654</ele>
        <time>2020-08-29T21:32:35.739Z</time>
      </trkpt>
      <trkpt lat="61.32483" lon="17.0601">
        <ele>7.025435</ele>
        <time>2020-08-29T21:32:40.411Z</time>
      </trkpt>
      <trkpt lat="61.32462" lon="17.06027">
        <ele>7.087721</ele>
        <time>2020-08-29T21:32:44.808Z</time>
      </trkpt>
      <trkpt lat="61.32444" lon="17.06038">
        <ele>7.084809</ele>
        <time>2020-08-29T21:32:48.174Z</time>
      </trkpt>
      <trkpt lat="61.3244" lon="17.06041">
        <ele>7.08412</ele>
        <time>2020-08-29T21:32:48.984Z</time>
      </trkpt>
      <trkpt lat="61.32423" lon="17.06052">
        <ele>7.081122</ele>
        <time>2020-08-29T21:32:52.541Z</time>
      </trkpt>
      <trkpt lat="61.32409" lon="17.06061">
        <ele>7.07881</ele>
        <time>2020-08-29T21:32:55.201Z</time>
      </trkpt>
      <trkpt lat="61.32356" lon="17.06096">
        <ele>7.069917</ele>
        <time>2020-08-29T21:33:05.025Z</time>
      </trkpt>
      <trkpt lat="61.32325" lon="17.06117">
        <ele>7.064666</ele>
        <time>2020-08-29T21:33:10.639Z</time>
      </trkpt>
      <trkpt lat="61.32307" lon="17.06128">
        <ele>7.061692</ele>
        <time>2020-08-29T21:33:13.781Z</time>
      </trkpt>
      <trkpt lat="61.32273" lon="17.06152">
        <ele>6.979641</ele>
        <time>2020-08-29T21:33:19.701Z</time>
      </trkpt>
      <trkpt lat="61.32258" lon="17.06162">
        <ele>6.927594</ele>
        <time>2020-08-29T21:33:22.324Z</time>
      </trkpt>
      <trkpt lat="61.32229" lon="17.06182">
        <ele>6.829299</ele>
        <time>2020-08-29T21:33:27.312Z</time>
      </trkpt>
      <trkpt lat="61.3223" lon="17.06191">
        <ele>6.815022</ele>
        <time>2020-08-29T21:33:28.068Z</time>
      </trkpt>
      <trkpt lat="61.3219" lon="17.06217">
        <ele>6.680084</ele>
        <time>2020-08-29T21:33:35.030Z</time>
      </trkpt>
      <trkpt lat="61.32178" lon="17.06225">
        <ele>6.63916</ele>
        <time>2020-08-29T21:33:37.173Z</time>
      </trkpt>
      <trkpt lat="61.32176" lon="17.06226">
        <ele>6.631326</ele>
        <time>2020-08-29T21:33:37.591Z</time>
      </trkpt>
      <trkpt lat="61.32161" lon="17.06235">
        <ele>6.582087</ele>
        <time>2020-08-29T21:33:40.181Z</time>
      </trkpt>
      <trkpt lat="61.32123" lon="17.06262">
        <ele>6.514087</ele>
        <time>2020-08-29T21:33:47.240Z</time>
      </trkpt>
      <trkpt lat="61.32077" lon="17.06293">
        <ele>6.724319</ele>
        <time>2020-08-29T21:33:56.090Z</time>
      </trkpt>
      <trkpt lat="61.32042" lon="17.06314">
        <ele>6.88212</ele>
        <time>2020-08-29T21:34:02.996Z</time>
      </trkpt>
      <trkpt lat="61.31981" lon="17.06333">
        <ele>7.1532</ele>
        <time>2020-08-29T21:34:15.342Z</time>
      </trkpt>
      <trkpt lat="61.31905" lon="17.06313">
        <ele>7.791038</ele>
        <time>2020-08-29T21:34:31.236Z</time>
      </trkpt>
      <trkpt lat="61.31845" lon="17.0628">
        <ele>8.420867</ele>
        <time>2020-08-29T21:34:44.292Z</time>
      </trkpt>
      <trkpt lat="61.31834" lon="17.06275">
        <ele>8.536045</ele>
        <time>2020-08-29T21:34:46.684Z</time>
      </trkpt>
      <trkpt lat="61.31817" lon="17.06264">
        <ele>8.717111</ele>
        <time>2020-08-29T21:34:50.474Z</time>
      </trkpt>
      <trkpt lat="61.31794" lon="17.06248">
        <ele>8.969921</ele>
        <time>2020-08-29T21:34:55.784Z</time>
      </trkpt>
      <trkpt lat="61.31772" lon="17.06232">
        <ele>9.229414</ele>
        <time>2020-08-29T21:35:00.821Z</time>
      </trkpt>
      <trkpt lat="61.31638" lon="17.06114">
        <ele>11.003385</ele>
        <time>2020-08-29T21:35:32.499Z</time>
      </trkpt>
      <trkpt lat="61.31579" lon="17.0605">
        <ele>11.833742</ele>
        <time>2020-08-29T21:35:46.990Z</time>
      </trkpt>
      <trkpt lat="61.31462" lon="17.05843">
        <ele>13.58498</ele>
        <time>2020-08-29T21:36:20.853Z</time>
      </trkpt>
      <trkpt lat="61.31448" lon="17.05813">
        <ele>13.594261</ele>
        <time>2020-08-29T21:36:25.100Z</time>
      </trkpt>
      <trkpt lat="61.31431" lon="17.05781">
        <ele>13.604682</ele>
        <time>2020-08-29T21:36:29.608Z</time>
      </trkpt>
      <trkpt lat="61.31416" lon="17.05754">
        <ele>13.613788</ele>
        <time>2020-08-29T21:36:33.314Z</time>
      </trkpt>
      <trkpt lat="61.314" lon="17.05732">
        <ele>13.622962</ele>
        <time>2020-08-29T21:36:37.118Z</time>
      </trkpt>
      <trkpt lat="61.31375" lon="17.05715">
        <ele>13.634995</ele>
        <time>2020-08-29T21:36:41.408Z</time>
      </trkpt>
      <trkpt lat="61.3134" lon="17.05705">
        <ele>13.650966</ele>
        <time>2020-08-29T21:36:47.017Z</time>
      </trkpt>
      <trkpt lat="61.31294" lon="17.05727">
        <ele>13.225836</ele>
        <time>2020-08-29T21:36:54.417Z</time>
      </trkpt>
      <trkpt lat="61.31255" lon="17.05783">
        <ele>12.456507</ele>
        <time>2020-08-29T21:37:01.381Z</time>
      </trkpt>
      <trkpt lat="61.31246" lon="17.05799">
        <ele>12.262328</ele>
        <time>2020-08-29T21:37:03.052Z</time>
      </trkpt>
      <trkpt lat="61.31208" lon="17.05869">
        <ele>11.447225</ele>
        <time>2020-08-29T21:37:10.316Z</time>
      </trkpt>
      <trkpt lat="61.31183" lon="17.05906">
        <ele>10.946896</ele>
        <time>2020-08-29T21:37:14.685Z</time>
      </trkpt>
      <trkpt lat="61.31139" lon="17.05969">
        <ele>9.92537</ele>
        <time>2020-08-29T21:37:22.143Z</time>
      </trkpt>
      <trkpt lat="61.31135" lon="17.05975">
        <ele>9.835205</ele>
        <time>2020-08-29T21:37:22.732Z</time>
      </trkpt>
      <trkpt lat="61.31116" lon="17.05999">
        <ele>9.389491</ele>
        <time>2020-08-29T21:37:25.956Z</time>
      </trkpt>
      <trkpt lat="61.3109" lon="17.06025">
        <ele>8.799014</ele>
        <time>2020-08-29T21:37:30.120Z</time>
      </trkpt>
      <trkpt lat="61.31066" lon="17.06041">
        <ele>8.301957</ele>
        <time>2020-08-29T21:37:33.566Z</time>
      </trkpt>
      <trkpt lat="61.3101" lon="17.06061">
        <ele>7.156926</ele>
        <time>2020-08-29T21:37:41.695Z</time>
      </trkpt>
      <trkpt lat="61.31008" lon="17.06061">
        <ele>7.111552</ele>
        <time>2020-08-29T21:37:41.984Z</time>
      </trkpt>
      <trkpt lat="61.31" lon="17.06061">
        <ele>6.966804</ele>
        <time>2020-08-29T21:37:42.977Z</time>
      </trkpt>
      <trkpt lat="61.30987" lon="17.0606">
        <ele>6.698751</ele>
        <time>2020-08-29T21:37:44.973Z</time>
      </trkpt>
      <trkpt lat="61.30948" lon="17.06055">
        <ele>5.950319</ele>
        <time>2020-08-29T21:37:50.312Z</time>
      </trkpt>
      <trkpt lat="61.30874" lon="17.06037">
        <ele>4.480223</ele>
        <time>2020-08-29T21:38:00.915Z</time>
      </trkpt>
      <trkpt lat="61.30824" lon="17.06032">
        <ele>3.549824</ele>
        <time>2020-08-29T21:38:07.944Z</time>
      </trkpt>
      <trkpt lat="61.308" lon="17.06046">
        <ele>3.231167</ele>
        <time>2020-08-29T21:38:11.535Z</time>
      </trkpt>
      <trkpt lat="61.30736" lon="17.06129">
        <ele>2.260456</ele>
        <time>2020-08-29T21:38:22.876Z</time>
      </trkpt>
      <trkpt lat="61.30717" lon="17.06157">
        <ele>1.959929</ele>
        <time>2020-08-29T21:38:26.450Z</time>
      </trkpt>
      <trkpt lat="61.30628" lon="17.0629">
        <ele>1.356127</ele>
        <time>2020-08-29T21:38:43.630Z</time>
      </trkpt>
      <trkpt lat="61.30619" lon="17.06304">
        <ele>1.363463</ele>
        <time>2020-08-29T21:38:45.555Z</time>
      </trkpt>
      <trkpt lat="61.30541" lon="17.06418">
        <ele>1.423064</ele>
        <time>2020-08-29T21:39:03.030Z</time>
      </trkpt>
      <trkpt lat="61.30512" lon="17.0646">
        <ele>1.860185</ele>
        <time>2020-08-29T21:39:11.246Z</time>
      </trkpt>
      <trkpt lat="61.30474" lon="17.06517">
        <ele>2.823303</ele>
        <time>2020-08-29T21:39:22.974Z</time>
      </trkpt>
      <trkpt lat="61.30454" lon="17.06546">
        <ele>3.307082</ele>
        <time>2020-08-29T21:39:28.780Z</time>
      </trkpt>
      <trkpt lat="61.30443" lon="17.06561">
        <ele>3.578705</ele>
        <time>2020-08-29T21:39:32.242Z</time>
      </trkpt>
      <trkpt lat="61.30414" lon="17.06601">
        <ele>4.28149</ele>
        <time>2020-08-29T21:39:40.859Z</time>
      </trkpt>
      <trkpt lat="61.30409" lon="17.06608">
        <ele>4.408989</ele>
        <time>2020-08-29T21:39:42.431Z</time>
      </trkpt>
      <trkpt lat="61.30381" lon="17.0664">
        <ele>5.053412</ele>
        <time>2020-08-29T21:39:50.944Z</time>
      </trkpt>
      <trkpt lat="61.30398" lon="17.06704">
        <ele>5.705653</ele>
        <time>2020-08-29T21:40:00.741Z</time>
      </trkpt>
      <trkpt lat="61.30434" lon="17.06842">
        <ele>7.105185</ele>
        <time>2020-08-29T21:40:21.317Z</time>
      </trkpt>
      <trkpt lat="61.30436" lon="17.0685">
        <ele>7.187948</ele>
        <time>2020-08-29T21:40:22.348Z</time>
      </trkpt>
      <trkpt lat="61.30446" lon="17.0689">
        <ele>7.591211</ele>
        <time>2020-08-29T21:40:27.819Z</time>
      </trkpt>
      <trkpt lat="61.30451" lon="17.0691">
        <ele>7.786424</ele>
        <time>2020-08-29T21:40:30.254Z</time>
      </trkpt>
      <trkpt lat="61.30456" lon="17.06928">
        <ele>7.974393</ele>
        <time>2020-08-29T21:40:32.453Z</time>
      </trkpt>
      <trkpt lat="61.30553" lon="17.07276">
        <ele>9.764481</ele>
        <time>2020-08-29T21:41:15.459Z</time>
      </trkpt>
      <trkpt lat="61.30605" lon="17.07468">
        <ele>10.441657</ele>
        <time>2020-08-29T21:41:38.801Z</time>
      </trkpt>
      <trkpt lat="61.30622" lon="17.07529">
        <ele>10.65035</ele>
        <time>2020-08-29T21:41:46.093Z</time>
      </trkpt>
      <trkpt lat="61.30647" lon="17.07635">
        <ele>11.009577</ele>
        <time>2020-08-29T21:41:57.209Z</time>
      </trkpt>
      <trkpt lat="61.30661" lon="17.07715">
        <ele>11.28942</ele>
        <time>2020-08-29T21:42:05.229Z</time>
      </trkpt>
      <trkpt lat="61.30675" lon="17.07836">
        <ele>11.699084</ele>
        <time>2020-08-29T21:42:17.225Z</time>
      </trkpt>
      <trkpt lat="61.30689" lon="17.07958">
        <ele>12.111156</ele>
        <time>2020-08-29T21:42:29.307Z</time>
      </trkpt>
      <trkpt lat="61.30686" lon="17.08043">
        <ele>12.593587</ele>
        <time>2020-08-29T21:42:37.678Z</time>
      </trkpt>
      <trkpt lat="61.30669" lon="17.08129">
        <ele>13.221877</ele>
        <time>2020-08-29T21:42:47.449Z</time>
      </trkpt>
      <trkpt lat="61.30653" lon="17.08177">
        <ele>13.624293</ele>
        <time>2020-08-29T21:42:54.024Z</time>
      </trkpt>
      <trkpt lat="61.30616" lon="17.08272">
        <ele>14.452776</ele>
        <time>2020-08-29T21:43:07.856Z</time>
      </trkpt>
      <trkpt lat="61.30598" lon="17.08297">
        <ele>14.761964</ele>
        <time>2020-08-29T21:43:12.716Z</time>
      </trkpt>
      <trkpt lat="61.30591" lon="17.08297">
        <ele>14.861597</ele>
        <time>2020-08-29T21:43:14.542Z</time>
      </trkpt>
      <trkpt lat="61.30579" lon="17.08294">
        <ele>15.044319</ele>
        <time>2020-08-29T21:43:17.129Z</time>
      </trkpt>
      <trkpt lat="61.30573" lon="17.08318">
        <ele>15.243301</ele>
        <time>2020-08-29T21:43:20.109Z</time>
      </trkpt>
      <trkpt lat="61.3057" lon="17.08339">
        <ele>15.405753</ele>
        <time>2020-08-29T21:43:22.998Z</time>
      </trkpt>
      <trkpt lat="61.30569" lon="17.08384">
        <ele>15.729442</ele>
        <time>2020-08-29T21:43:27.781Z</time>
      </trkpt>
      <trkpt lat="61.30612" lon="17.0856">
        <ele>17.16092</ele>
        <time>2020-08-29T21:43:50.345Z</time>
      </trkpt>
      <trkpt lat="61.30673" lon="17.08869">
        <ele>18.965042</ele>
        <time>2020-08-29T21:44:25.942Z</time>
      </trkpt>
      <trkpt lat="61.30684" lon="17.08925">
        <ele>19.27579</ele>
        <time>2020-08-29T21:44:32.127Z</time>
      </trkpt>
      <trkpt lat="61.30696" lon="17.09022">
        <ele>19.51428</ele>
        <time>2020-08-29T21:44:42.118Z</time>
      </trkpt>
      <trkpt lat="61.30706" lon="17.09119">
        <ele>19.677262</ele>
        <time>2020-08-29T21:44:51.768Z</time>
      </trkpt>
      <trkpt lat="61.30716" lon="17.09501">
        <ele>19.842208</ele>
        <time>2020-08-29T21:45:26.132Z</time>
      </trkpt>
      <trkpt lat="61.30712" lon="17.0973">
        <ele>19.487624</ele>
        <time>2020-08-29T21:45:45.713Z</time>
      </trkpt>
      <trkpt lat="61.30699" lon="17.09993">
        <ele>18.225262</ele>
        <time>2020-08-29T21:46:06.903Z</time>
      </trkpt>
      <trkpt lat="61.30671" lon="17.10309">
        <ele>15.186142</ele>
        <time>2020-08-29T21:46:29.603Z</time>
      </trkpt>
      <trkpt lat="61.30658" lon="17.10443">
        <ele>13.73631</ele>
        <time>2020-08-29T21:46:38.760Z</time>
      </trkpt>
      <trkpt lat="61.30645" lon="17.10587">
        <ele>12.382385</ele>
        <time>2020-08-29T21:46:48.795Z</time>
      </trkpt>
      <trkpt lat="61.3063" lon="17.10692">
        <ele>11.363786</ele>
        <time>2020-08-29T21:46:56.641Z</time>
      </trkpt>
      <trkpt lat="61.3061" lon="17.10754">
        <ele>10.676724</ele>
        <time>2020-08-29T21:47:02.152Z</time>
      </trkpt>
      <trkpt lat="61.3054" lon="17.109">
        <ele>10.121343</ele>
        <time>2020-08-29T21:47:19.279Z</time>
      </trkpt>
      <trkpt lat="61.30543" lon="17.10905">
        <ele>10.107613</ele>
        <time>2020-08-29T21:47:19.988Z</time>
      </trkpt>
      <trkpt lat="61.30496" lon="17.11006">
        <ele>9.886587</ele>
        <time>2020-08-29T21:47:32.226Z</time>
      </trkpt>
      <trkpt lat="61.30429" lon="17.11152">
        <ele>9.751807</ele>
        <time>2020-08-29T21:47:49.103Z</time>
      </trkpt>
      <trkpt lat="61.30394" lon="17.11232">
        <ele>9.712188</ele>
        <time>2020-08-29T21:47:57.999Z</time>
      </trkpt>
      <trkpt lat="61.30352" lon="17.11319">
        <ele>9.737614</ele>
        <time>2020-08-29T21:48:08.443Z</time>
      </trkpt>
      <trkpt lat="61.30313" lon="17.11409">
        <ele>10.598086</ele>
        <time>2020-08-29T21:48:19.177Z</time>
      </trkpt>
      <trkpt lat="61.30273" lon="17.11493">
        <ele>11.43174</ele>
        <time>2020-08-29T21:48:32.238Z</time>
      </trkpt>
      <trkpt lat="61.30242" lon="17.11558">
        <ele>12.080945</ele>
        <time>2020-08-29T21:48:43.517Z</time>
      </trkpt>
      <trkpt lat="61.30215" lon="17.11596">
        <ele>12.807745</ele>
        <time>2020-08-29T21:48:52.784Z</time>
      </trkpt>
      <trkpt lat="61.30199" lon="17.11604">
        <ele>13.289011</ele>
        <time>2020-08-29T21:48:56.845Z</time>
      </trkpt>
      <trkpt lat="61.30187" lon="17.11603">
        <ele>13.645</ele>
        <time>2020-08-29T21:49:01.282Z</time>
      </trkpt>
      <trkpt lat="61.30161" lon="17.11595">
        <ele>14.392802</ele>
        <time>2020-08-29T21:49:07.809Z</time>
      </trkpt>
      <trkpt lat="61.30134" lon="17.11562">
        <ele>15.309288</ele>
        <time>2020-08-29T21:49:16.424Z</time>
      </trkpt>
      <trkpt lat="61.30119" lon="17.11542">
        <ele>15.827359</ele>
        <time>2020-08-29T21:49:22.273Z</time>
      </trkpt>
      <trkpt lat="61.30097" lon="17.11506">
        <ele>16.651676</ele>
        <time>2020-08-29T21:49:29.638Z</time>
      </trkpt>
      <trkpt lat="61.30074" lon="17.11475">
        <ele>17.434605</ele>
        <time>2020-08-29T21:49:36.267Z</time>
      </trkpt>
      <trkpt lat="61.30059" lon="17.11459">
        <ele>17.788506</ele>
        <time>2020-08-29T21:49:41.815Z</time>
      </trkpt>
      <trkpt lat="61.30034" lon="17.11441">
        <ele>18.247938</ele>
        <time>2020-08-29T21:49:47.748Z</time>
      </trkpt>
      <trkpt lat="61.30014" lon="17.11431">
        <ele>18.609993</ele>
        <time>2020-08-29T21:49:52.455Z</time>
      </trkpt>
      <trkpt lat="61.29997" lon="17.11425">
        <ele>18.91434</ele>
        <time>2020-08-29T21:49:56.658Z</time>
      </trkpt>
      <trkpt lat="61.29985" lon="17.11422">
        <ele>19.128827</ele>
        <time>2020-08-29T21:49:59.616Z</time>
      </trkpt>
      <trkpt lat="61.29969" lon="17.1142">
        <ele>19.410077</ele>
        <time>2020-08-29T21:50:02.981Z</time>
      </trkpt>
      <trkpt lat="61.29946" lon="17.11428">
        <ele>19.803843</ele>
        <time>2020-08-29T21:50:07.944Z</time>
      </trkpt>
      <trkpt lat="61.29924" lon="17.11439">
        <ele>20.210576</ele>
        <time>2020-08-29T21:50:13.095Z</time>
      </trkpt>
      <trkpt lat="61.29859" lon="17.11476">
        <ele>21.131658</ele>
        <time>2020-08-29T21:50:27.978Z</time>
      </trkpt>
      <trkpt lat="61.29837" lon="17.11488">
        <ele>21.385219</ele>
        <time>2020-08-29T21:50:33.260Z</time>
      </trkpt>
      <trkpt lat="61.29817" lon="17.11501">
        <ele>21.616268</ele>
        <time>2020-08-29T21:50:38.017Z</time>
      </trkpt>
      <trkpt lat="61.29794" lon="17.11522">
        <ele>21.883795</ele>
        <time>2020-08-29T21:50:43.336Z</time>
      </trkpt>
      <trkpt lat="61.29776" lon="17.11542">
        <ele>22.109894</ele>
        <time>2020-08-29T21:50:47.854Z</time>
      </trkpt>
      <trkpt lat="61.2975" lon="17.11574">
        <ele>22.439108</ele>
        <time>2020-08-29T21:50:54.132Z</time>
      </trkpt>
      <trkpt lat="61.29724" lon="17.11614">
        <ele>22.60993</ele>
        <time>2020-08-29T21:51:00.683Z</time>
      </trkpt>
      <trkpt lat="61.29705" lon="17.11649">
        <ele>22.430183</ele>
        <time>2020-08-29T21:51:05.614Z</time>
      </trkpt>
      <trkpt lat="61.29616" lon="17.11828">
        <ele>21.554189</ele>
        <time>2020-08-29T21:51:24.721Z</time>
      </trkpt>
      <trkpt lat="61.29585" lon="17.11881">
        <ele>21.264225</ele>
        <time>2020-08-29T21:51:30.600Z</time>
      </trkpt>
      <trkpt lat="61.29549" lon="17.1193">
        <ele>20.958672</ele>
        <time>2020-08-29T21:51:36.891Z</time>
      </trkpt>
      <trkpt lat="61.29493" lon="17.11992">
        <ele>20.503374</ele>
        <time>2020-08-29T21:51:46.835Z</time>
      </trkpt>
      <trkpt lat="61.29305" lon="17.12207">
        <ele>20.620793</ele>
        <time>2020-08-29T21:52:27.267Z</time>
      </trkpt>
      <trkpt lat="61.29286" lon="17.12229">
        <ele>20.656165</ele>
        <time>2020-08-29T21:52:31.616Z</time>
      </trkpt>
      <trkpt lat="61.29259" lon="17.12259">
        <ele>20.380001</ele>
        <time>2020-08-29T21:52:37.700Z</time>
      </trkpt>
      <trkpt lat="61.29234" lon="17.12307">
        <ele>20.071193</ele>
        <time>2020-08-29T21:52:43.695Z</time>
      </trkpt>
      <trkpt lat="61.29219" lon="17.12357">
        <ele>19.813792</ele>
        <time>2020-08-29T21:52:48.272Z</time>
      </trkpt>
      <trkpt lat="61.29211" lon="17.12404">
        <ele>19.599143</ele>
        <time>2020-08-29T21:52:51.960Z</time>
      </trkpt>
      <trkpt lat="61.29203" lon="17.12475">
        <ele>19.281778</ele>
        <time>2020-08-29T21:52:57.269Z</time>
      </trkpt>
      <trkpt lat="61.29199" lon="17.12518">
        <ele>19.089381</ele>
        <time>2020-08-29T21:53:00.225Z</time>
      </trkpt>
      <trkpt lat="61.29186" lon="17.12622">
        <ele>17.356025</ele>
        <time>2020-08-29T21:53:06.821Z</time>
      </trkpt>
      <trkpt lat="61.29178" lon="17.12696">
        <ele>16.048949</ele>
        <time>2020-08-29T21:53:11.453Z</time>
      </trkpt>
      <trkpt lat="61.29161" lon="17.12788">
        <ele>14.324981</ele>
        <time>2020-08-29T21:53:17.548Z</time>
      </trkpt>
      <trkpt lat="61.29153" lon="17.12821">
        <ele>13.690677</ele>
        <time>2020-08-29T21:53:19.666Z</time>
      </trkpt>
      <trkpt lat="61.29136" lon="17.12874">
        <ele>12.591117</ele>
        <time>2020-08-29T21:53:23.459Z</time>
      </trkpt>
      <trkpt lat="61.29105" lon="17.12952">
        <ele>11.384637</ele>
        <time>2020-08-29T21:53:29.778Z</time>
      </trkpt>
      <trkpt lat="61.29049" lon="17.13029">
        <ele>9.733055</ele>
        <time>2020-08-29T21:53:38.660Z</time>
      </trkpt>
      <trkpt lat="61.29027" lon="17.13056">
        <ele>9.115262</ele>
        <time>2020-08-29T21:53:42.270Z</time>
      </trkpt>
      <trkpt lat="61.28987" lon="17.13104">
        <ele>8.093358</ele>
        <time>2020-08-29T21:53:49.722Z</time>
      </trkpt>
      <trkpt lat="61.28905" lon="17.13198">
        <ele>7.476144</ele>
        <time>2020-08-29T21:54:05.060Z</time>
      </trkpt>
      <trkpt lat="61.28804" lon="17.13295">
        <ele>6.783041</ele>
        <time>2020-08-29T21:54:23.197Z</time>
      </trkpt>
      <trkpt lat="61.28789" lon="17.13314">
        <ele>6.686876</ele>
        <time>2020-08-29T21:54:25.985Z</time>
      </trkpt>
      <trkpt lat="61.28771" lon="17.13337">
        <ele>6.573956</ele>
        <time>2020-08-29T21:54:29.258Z</time>
      </trkpt>
      <trkpt lat="61.28576" lon="17.13666">
        <ele>5.737539</ele>
        <time>2020-08-29T21:55:10.694Z</time>
      </trkpt>
      <trkpt lat="61.28548" lon="17.13722">
        <ele>5.680473</ele>
        <time>2020-08-29T21:55:18.339Z</time>
      </trkpt>
      <trkpt lat="61.28475" lon="17.13926">
        <ele>6.776367</ele>
        <time>2020-08-29T21:55:44.050Z</time>
      </trkpt>
      <trkpt lat="61.28382" lon="17.14235">
        <ele>8.070375</ele>
        <time>2020-08-29T21:56:20.943Z</time>
      </trkpt>
      <trkpt lat="61.28361" lon="17.14283">
        <ele>8.276576</ele>
        <time>2020-08-29T21:56:26.931Z</time>
      </trkpt>
      <trkpt lat="61.28315" lon="17.14328">
        <ele>8.358469</ele>
        <time>2020-08-29T21:56:36.199Z</time>
      </trkpt>
      <trkpt lat="61.28226" lon="17.14375">
        <ele>7.820118</ele>
        <time>2020-08-29T21:56:50.974Z</time>
      </trkpt>
      <trkpt lat="61.28206" lon="17.14386">
        <ele>7.699574</ele>
        <time>2020-08-29T21:56:54.248Z</time>
      </trkpt>
      <trkpt lat="61.2819" lon="17.144">
        <ele>7.597291</ele>
        <time>2020-08-29T21:56:56.818Z</time>
      </trkpt>
      <trkpt lat="61.28143" lon="17.1445">
        <ele>7.298372</ele>
        <time>2020-08-29T21:57:05.107Z</time>
      </trkpt>
      <trkpt lat="61.28063" lon="17.14585">
        <ele>6.757462</ele>
        <time>2020-08-29T21:57:21.150Z</time>
      </trkpt>
      <trkpt lat="61.27879" lon="17.14817">
        <ele>7.346098</ele>
        <time>2020-08-29T21:58:02.547Z</time>
      </trkpt>
      <trkpt lat="61.27845" lon="17.14865">
        <ele>7.688423</ele>
        <time>2020-08-29T21:58:11.491Z</time>
      </trkpt>
      <trkpt lat="61.27827" lon="17.1489">
        <ele>7.920415</ele>
        <time>2020-08-29T21:58:16.294Z</time>
      </trkpt>
      <trkpt lat="61.2778" lon="17.14938">
        <ele>8.476134</ele>
        <time>2020-08-29T21:58:27.557Z</time>
      </trkpt>
      <trkpt lat="61.27669" lon="17.15027">
        <ele>9.612507</ele>
        <time>2020-08-29T21:58:52.841Z</time>
      </trkpt>
      <trkpt lat="61.27653" lon="17.1504">
        <ele>9.734084</ele>
        <time>2020-08-29T21:58:56.354Z</time>
      </trkpt>
      <trkpt lat="61.27621" lon="17.1506">
        <ele>9.955924</ele>
        <time>2020-08-29T21:59:02.766Z</time>
      </trkpt>
      <trkpt lat="61.27455" lon="17.15119">
        <ele>10.593961</ele>
        <time>2020-08-29T21:59:35.709Z</time>
      </trkpt>
      <trkpt lat="61.27422" lon="17.15137">
        <ele>10.592511</ele>
        <time>2020-08-29T21:59:41.770Z</time>
      </trkpt>
      <trkpt lat="61.27386" lon="17.15166">
        <ele>10.590822</ele>
        <time>2020-08-29T21:59:48.590Z</time>
      </trkpt>
      <trkpt lat="61.27162" lon="17.15363">
        <ele>8.490485</ele>
        <time>2020-08-29T22:00:26.415Z</time>
      </trkpt>
      <trkpt lat="61.2713" lon="17.15385">
        <ele>8.079427</ele>
        <time>2020-08-29T22:00:31.340Z</time>
      </trkpt>
      <trkpt lat="61.27106" lon="17.15391">
        <ele>7.781618</ele>
        <time>2020-08-29T22:00:34.904Z</time>
      </trkpt>
      <trkpt lat="61.27021" lon="17.15408">
        <ele>6.711161</ele>
        <time>2020-08-29T22:00:47.742Z</time>
      </trkpt>
      <trkpt lat="61.26923" lon="17.15397">
        <ele>5.875295</ele>
        <time>2020-08-29T22:01:02.915Z</time>
      </trkpt>
      <trkpt lat="61.26917" lon="17.15395">
        <ele>5.823591</ele>
        <time>2020-08-29T22:01:03.836Z</time>
      </trkpt>
      <trkpt lat="61.2688" lon="17.1538">
        <ele>5.514999</ele>
        <time>2020-08-29T22:01:09.819Z</time>
      </trkpt>
      <trkpt lat="61.2684" lon="17.15352">
        <ele>5.157542</ele>
        <time>2020-08-29T22:01:16.870Z</time>
      </trkpt>
      <trkpt lat="61.26813" lon="17.15332">
        <ele>5.059513</ele>
        <time>2020-08-29T22:01:21.512Z</time>
      </trkpt>
      <trkpt lat="61.26809" lon="17.15328">
        <ele>5.044134</ele>
        <time>2020-08-29T22:01:22.293Z</time>
      </trkpt>
      <trkpt lat="61.26702" lon="17.15237">
        <ele>4.666282</ele>
        <time>2020-08-29T22:01:41.896Z</time>
      </trkpt>
      <trkpt lat="61.2668" lon="17.15202">
        <ele>4.574771</ele>
        <time>2020-08-29T22:01:46.685Z</time>
      </trkpt>
      <trkpt lat="61.26674" lon="17.15193">
        <ele>4.554778</ele>
        <time>2020-08-29T22:01:47.958Z</time>
      </trkpt>
      <trkpt lat="61.26667" lon="17.15181">
        <ele>4.53971</ele>
        <time>2020-08-29T22:01:49.448Z</time>
      </trkpt>
      <trkpt lat="61.2664" lon="17.15147">
        <ele>4.484496</ele>
        <time>2020-08-29T22:01:55.016Z</time>
      </trkpt>
      <trkpt lat="61.26618" lon="17.15132">
        <ele>4.444912</ele>
        <time>2020-08-29T22:01:58.982Z</time>
      </trkpt>
      <trkpt lat="61.26551" lon="17.15098">
        <ele>4.325673</ele>
        <time>2020-08-29T22:02:10.878Z</time>
      </trkpt>
      <trkpt lat="61.26499" lon="17.15061">
        <ele>4.254887</ele>
        <time>2020-08-29T22:02:20.362Z</time>
      </trkpt>
      <trkpt lat="61.26414" lon="17.14971">
        <ele>4.313436</ele>
        <time>2020-08-29T22:02:37.273Z</time>
      </trkpt>
      <trkpt lat="61.26404" lon="17.14959">
        <ele>4.320693</ele>
        <time>2020-08-29T22:02:39.411Z</time>
      </trkpt>
      <trkpt lat="61.26365" lon="17.14917">
        <ele>4.347415</ele>
        <time>2020-08-29T22:02:47.331Z</time>
      </trkpt>
      <trkpt lat="61.2629" lon="17.14835">
        <ele>4.758045</ele>
        <time>2020-08-29T22:03:03.572Z</time>
      </trkpt>
      <trkpt lat="61.26235" lon="17.14787">
        <ele>5.120659</ele>
        <time>2020-08-29T22:03:15.466Z</time>
      </trkpt>
      <trkpt lat="61.26196" lon="17.14762">
        <ele>5.372849</ele>
        <time>2020-08-29T22:03:23.820Z</time>
      </trkpt>
      <trkpt lat="61.2616" lon="17.14743">
        <ele>5.684714</ele>
        <time>2020-08-29T22:03:31.413Z</time>
      </trkpt>
      <trkpt lat="61.26104" lon="17.14721">
        <ele>6.251256</ele>
        <time>2020-08-29T22:03:43.537Z</time>
      </trkpt>
      <trkpt lat="61.26053" lon="17.14732">
        <ele>6.75246</ele>
        <time>2020-08-29T22:03:54.291Z</time>
      </trkpt>
      <trkpt lat="61.26047" lon="17.14737">
        <ele>6.821952</ele>
        <time>2020-08-29T22:03:55.897Z</time>
      </trkpt>
      <trkpt lat="61.26038" lon="17.14744">
        <ele>6.91788</ele>
        <time>2020-08-29T22:03:57.923Z</time>
      </trkpt>
      <trkpt lat="61.26024" lon="17.14757">
        <ele>7.061931</ele>
        <time>2020-08-29T22:04:00.947Z</time>
      </trkpt>
      <trkpt lat="61.2601" lon="17.14773">
        <ele>7.219827</ele>
        <time>2020-08-29T22:04:04.433Z</time>
      </trkpt>
      <trkpt lat="61.25995" lon="17.14704">
        <ele>7.523616</ele>
        <time>2020-08-29T22:04:12.114Z</time>
      </trkpt>
      <trkpt lat="61.25991" lon="17.14686">
        <ele>7.602955</ele>
        <time>2020-08-29T22:04:14.054Z</time>
      </trkpt>
      <trkpt lat="61.2598" lon="17.14697">
        <ele>7.700884</ele>
        <time>2020-08-29T22:04:16.491Z</time>
      </trkpt>
      <trkpt lat="61.25945" lon="17.1472">
        <ele>8.009434</ele>
        <time>2020-08-29T22:04:24.246Z</time>
      </trkpt>
      <trkpt lat="61.25916" lon="17.14742">
        <ele>8.264724</ele>
        <time>2020-08-29T22:04:30.678Z</time>
      </trkpt>
      <trkpt lat="61.25883" lon="17.14759">
        <ele>8.542707</ele>
        <time>2020-08-29T22:04:37.432Z</time>
      </trkpt>
      <trkpt lat="61.25599" lon="17.14952">
        <ele>9.774181</ele>
        <time>2020-08-29T22:05:34.454Z</time>
      </trkpt>
      <trkpt lat="61.25487" lon="17.14994">
        <ele>10.068521</ele>
        <time>2020-08-29T22:05:55.508Z</time>
      </trkpt>
      <trkpt lat="61.25475" lon="17.14998">
        <ele>10.093502</ele>
        <time>2020-08-29T22:05:57.624Z</time>
      </trkpt>
      <trkpt lat="61.25462" lon="17.15001">
        <ele>10.120885</ele>
        <time>2020-08-29T22:05:59.956Z</time>
      </trkpt>
      <trkpt lat="61.24783" lon="17.15148">
        <ele>11.640707</ele>
        <time>2020-08-29T22:08:06.738Z</time>
      </trkpt>
      <trkpt lat="61.24739" lon="17.15171">
        <ele>11.76792</ele>
        <time>2020-08-29T22:08:15.193Z</time>
      </trkpt>
      <trkpt lat="61.24653" lon="17.15238">
        <ele>12.027521</ele>
        <time>2020-08-29T22:08:32.536Z</time>
      </trkpt>
      <trkpt lat="61.24636" lon="17.15259">
        <ele>12.082826</ele>
        <time>2020-08-29T22:08:36.115Z</time>
      </trkpt>
      <trkpt lat="61.24624" lon="17.15275">
        <ele>12.081655</ele>
        <time>2020-08-29T22:08:38.833Z</time>
      </trkpt>
      <trkpt lat="61.24588" lon="17.15325">
        <ele>12.05181</ele>
        <time>2020-08-29T22:08:46.648Z</time>
      </trkpt>
      <trkpt lat="61.2456" lon="17.15382">
        <ele>12.024362</ele>
        <time>2020-08-29T22:08:53.701Z</time>
      </trkpt>
      <trkpt lat="61.24415" lon="17.15722">
        <ele>11.669347</ele>
        <time>2020-08-29T22:09:31.040Z</time>
      </trkpt>
      <trkpt lat="61.24351" lon="17.15826">
        <ele>11.708038</ele>
        <time>2020-08-29T22:09:45.237Z</time>
      </trkpt>
      <trkpt lat="61.24316" lon="17.15874">
        <ele>11.876659</ele>
        <time>2020-08-29T22:09:52.676Z</time>
      </trkpt>
      <trkpt lat="61.24078" lon="17.16082">
        <ele>13.55246</ele>
        <time>2020-08-29T22:10:45.097Z</time>
      </trkpt>
      <trkpt lat="61.24034" lon="17.16133">
        <ele>13.957191</ele>
        <time>2020-08-29T22:10:55.672Z</time>
      </trkpt>
      <trkpt lat="61.23965" lon="17.1618">
        <ele>14.529174</ele>
        <time>2020-08-29T22:11:10.558Z</time>
      </trkpt>
      <trkpt lat="61.23857" lon="17.16231">
        <ele>15.354859</ele>
        <time>2020-08-29T22:11:32.758Z</time>
      </trkpt>
      <trkpt lat="61.2352" lon="17.16336">
        <ele>17.431555</ele>
        <time>2020-08-29T22:12:39.915Z</time>
      </trkpt>
      <trkpt lat="61.23432" lon="17.16345">
        <ele>18.089008</ele>
        <time>2020-08-29T22:12:57.866Z</time>
      </trkpt>
      <trkpt lat="61.23321" lon="17.16328">
        <ele>18.809186</ele>
        <time>2020-08-29T22:13:20.795Z</time>
      </trkpt>
      <trkpt lat="61.23264" lon="17.16319">
        <ele>19.022204</ele>
        <time>2020-08-29T22:13:32.004Z</time>
      </trkpt>
      <trkpt lat="61.23192" lon="17.16298">
        <ele>19.296973</ele>
        <time>2020-08-29T22:13:45.786Z</time>
      </trkpt>
      <trkpt lat="61.22956" lon="17.16225">
        <ele>17.980771</ele>
        <time>2020-08-29T22:14:25.110Z</time>
      </trkpt>
      <trkpt lat="61.22722" lon="17.16065">
        <ele>14.358783</ele>
        <time>2020-08-29T22:15:00.710Z</time>
      </trkpt>
      <trkpt lat="61.22694" lon="17.16045">
        <ele>13.878334</ele>
        <time>2020-08-29T22:15:05.025Z</time>
      </trkpt>
      <trkpt lat="61.22671" lon="17.16028">
        <ele>13.487466</ele>
        <time>2020-08-29T22:15:08.546Z</time>
      </trkpt>
      <trkpt lat="61.22576" lon="17.15954">
        <ele>12.314545</ele>
        <time>2020-08-29T22:15:23.750Z</time>
      </trkpt>
      <trkpt lat="61.22504" lon="17.15878">
        <ele>11.48</ele>
        <time>2020-08-29T22:15:36.518Z</time>
      </trkpt>
      <trkpt lat="61.22445" lon="17.15792">
        <ele>10.961061</ele>
        <time>2020-08-29T22:15:48.240Z</time>
      </trkpt>
      <trkpt lat="61.22279" lon="17.155">
        <ele>10.240936</ele>
        <time>2020-08-29T22:16:23.865Z</time>
      </trkpt>
      <trkpt lat="61.22223" lon="17.15382">
        <ele>10.275266</ele>
        <time>2020-08-29T22:16:38.930Z</time>
      </trkpt>
      <trkpt lat="61.22167" lon="17.15241">
        <ele>11.937675</ele>
        <time>2020-08-29T22:16:58.176Z</time>
      </trkpt>
      <trkpt lat="61.22117" lon="17.15074">
        <ele>13.9265</ele>
        <time>2020-08-29T22:17:23.364Z</time>
      </trkpt>
      <trkpt lat="61.22089" lon="17.1496">
        <ele>16.042819</ele>
        <time>2020-08-29T22:17:41.126Z</time>
      </trkpt>
      <trkpt lat="61.22077" lon="17.149">
        <ele>17.169707</ele>
        <time>2020-08-29T22:17:50.522Z</time>
      </trkpt>
      <trkpt lat="61.22067" lon="17.14851">
        <ele>18.084258</ele>
        <time>2020-08-29T22:17:58.261Z</time>
      </trkpt>
      <trkpt lat="61.22051" lon="17.14772">
        <ele>19.560648</ele>
        <time>2020-08-29T22:18:10.696Z</time>
      </trkpt>
      <trkpt lat="61.22001" lon="17.14439">
        <ele>25.075521</ele>
        <time>2020-08-29T22:18:59.826Z</time>
      </trkpt>
      <trkpt lat="61.21977" lon="17.14315">
        <ele>26.629815</ele>
        <time>2020-08-29T22:19:16.708Z</time>
      </trkpt>
      <trkpt lat="61.21903" lon="17.14052">
        <ele>28.32171</ele>
        <time>2020-08-29T22:19:48.292Z</time>
      </trkpt>
      <trkpt lat="61.21782" lon="17.1367">
        <ele>26.338951</ele>
        <time>2020-08-29T22:20:22.231Z</time>
      </trkpt>
      <trkpt lat="61.21776" lon="17.13654">
        <ele>26.187597</ele>
        <time>2020-08-29T22:20:23.531Z</time>
      </trkpt>
      <trkpt lat="61.21742" lon="17.13542">
        <ele>25.173932</ele>
        <time>2020-08-29T22:20:32.687Z</time>
      </trkpt>
      <trkpt lat="61.21704" lon="17.13419">
        <ele>24.057687</ele>
        <time>2020-08-29T22:20:42.830Z</time>
      </trkpt>
      <trkpt lat="61.2169" lon="17.13372">
        <ele>23.719097</ele>
        <time>2020-08-29T22:20:46.704Z</time>
      </trkpt>
      <trkpt lat="61.21683" lon="17.13352">
        <ele>23.575309</ele>
        <time>2020-08-29T22:20:48.444Z</time>
      </trkpt>
      <trkpt lat="61.21603" lon="17.13098">
        <ele>21.798194</ele>
        <time>2020-08-29T22:21:10.747Z</time>
      </trkpt>
      <trkpt lat="61.2158" lon="17.13024">
        <ele>21.396562</ele>
        <time>2020-08-29T22:21:17.438Z</time>
      </trkpt>
      <trkpt lat="61.21567" lon="17.12976">
        <ele>21.136905</ele>
        <time>2020-08-29T22:21:21.742Z</time>
      </trkpt>
      <trkpt lat="61.2154" lon="17.12848">
        <ele>20.498784</ele>
        <time>2020-08-29T22:21:32.237Z</time>
      </trkpt>
      <trkpt lat="61.21487" lon="17.12468">
        <ele>18.312166</ele>
        <time>2020-08-29T22:22:01.256Z</time>
      </trkpt>
      <trkpt lat="61.21478" lon="17.12398">
        <ele>17.890632</ele>
        <time>2020-08-29T22:22:06.500Z</time>
      </trkpt>
      <trkpt lat="61.21455" lon="17.12225">
        <ele>16.889674</ele>
        <time>2020-08-29T22:22:19.411Z</time>
      </trkpt>
      <trkpt lat="61.21447" lon="17.12161">
        <ele>16.518705</ele>
        <time>2020-08-29T22:22:24.269Z</time>
      </trkpt>
      <trkpt lat="61.21436" lon="17.12071">
        <ele>16.002644</ele>
        <time>2020-08-29T22:22:31.127Z</time>
      </trkpt>
      <trkpt lat="61.21423" lon="17.11975">
        <ele>15.658581</ele>
        <time>2020-08-29T22:22:38.760Z</time>
      </trkpt>
      <trkpt lat="61.21395" lon="17.11825">
        <ele>15.23862</ele>
        <time>2020-08-29T22:22:51.425Z</time>
      </trkpt>
      <trkpt lat="61.21372" lon="17.11752">
        <ele>15.014806</ele>
        <time>2020-08-29T22:22:58.437Z</time>
      </trkpt>
      <trkpt lat="61.21344" lon="17.11685">
        <ele>14.834746</ele>
        <time>2020-08-29T22:23:05.914Z</time>
      </trkpt>
      <trkpt lat="61.21333" lon="17.11665">
        <ele>14.804048</ele>
        <time>2020-08-29T22:23:08.293Z</time>
      </trkpt>
      <trkpt lat="61.21318" lon="17.11636">
        <ele>14.758496</ele>
        <time>2020-08-29T22:23:11.881Z</time>
      </trkpt>
      <trkpt lat="61.21277" lon="17.11564">
        <ele>14.639224</ele>
        <time>2020-08-29T22:23:21.234Z</time>
      </trkpt>
      <trkpt lat="61.21157" lon="17.1141">
        <ele>13.808178</ele>
        <time>2020-08-29T22:23:45.193Z</time>
      </trkpt>
      <trkpt lat="61.21091" lon="17.11353">
        <ele>13.088068</ele>
        <time>2020-08-29T22:23:56.265Z</time>
      </trkpt>
      <trkpt lat="61.21034" lon="17.11316">
        <ele>12.165263</ele>
        <time>2020-08-29T22:24:04.912Z</time>
      </trkpt>
      <trkpt lat="61.21002" lon="17.11301">
        <ele>11.265872</ele>
        <time>2020-08-29T22:24:09.405Z</time>
      </trkpt>
      <trkpt lat="61.20982" lon="17.11291">
        <ele>10.693614</ele>
        <time>2020-08-29T22:24:12.187Z</time>
      </trkpt>
      <trkpt lat="61.20956" lon="17.1128">
        <ele>9.962074</ele>
        <time>2020-08-29T22:24:15.723Z</time>
      </trkpt>
      <trkpt lat="61.2092" lon="17.11268">
        <ele>8.954563</ele>
        <time>2020-08-29T22:24:20.464Z</time>
      </trkpt>
      <trkpt lat="61.20884" lon="17.11262">
        <ele>7.944448</ele>
        <time>2020-08-29T22:24:25.166Z</time>
      </trkpt>
      <trkpt lat="61.20848" lon="17.11256">
        <ele>7.053478</ele>
        <time>2020-08-29T22:24:29.738Z</time>
      </trkpt>
      <trkpt lat="61.20801" lon="17.11256">
        <ele>5.912572</ele>
        <time>2020-08-29T22:24:35.877Z</time>
      </trkpt>
      <trkpt lat="61.20768" lon="17.1126">
        <ele>5.122952</ele>
        <time>2020-08-29T22:24:40.264Z</time>
      </trkpt>
      <trkpt lat="61.20714" lon="17.11264">
        <ele>3.800061</ele>
        <time>2020-08-29T22:24:48.030Z</time>
      </trkpt>
      <trkpt lat="61.20648" lon="17.1128">
        <ele>3.668888</ele>
        <time>2020-08-29T22:24:58.595Z</time>
      </trkpt>
      <trkpt lat="61.20616" lon="17.11293">
        <ele>3.889279</ele>
        <time>2020-08-29T22:25:05.213Z</time>
      </trkpt>
      <trkpt lat="61.2055" lon="17.11321">
        <ele>4.335279</ele>
        <time>2020-08-29T22:25:20.063Z</time>
      </trkpt>
      <trkpt lat="61.20534" lon="17.11328">
        <ele>4.441174</ele>
        <time>2020-08-29T22:25:23.930Z</time>
      </trkpt>
      <trkpt lat="61.20492" lon="17.11351">
        <ele>4.931595</ele>
        <time>2020-08-29T22:25:34.299Z</time>
      </trkpt>
      <trkpt lat="61.20415" lon="17.11396">
        <ele>6.065611</ele>
        <time>2020-08-29T22:25:53.180Z</time>
      </trkpt>
      <trkpt lat="61.20269" lon="17.11503">
        <ele>7.48876</ele>
        <time>2020-08-29T22:26:25.390Z</time>
      </trkpt>
      <trkpt lat="61.20086" lon="17.11675">
        <ele>8.21176</ele>
        <time>2020-08-29T22:27:02.102Z</time>
      </trkpt>
      <trkpt lat="61.20049" lon="17.11718">
        <ele>8.320341</ele>
        <time>2020-08-29T22:27:09.961Z</time>
      </trkpt>
      <trkpt lat="61.19987" lon="17.11791">
        <ele>8.620951</ele>
        <time>2020-08-29T22:27:23.562Z</time>
      </trkpt>
      <trkpt lat="61.19897" lon="17.11923">
        <ele>9.257134</ele>
        <time>2020-08-29T22:27:45.416Z</time>
      </trkpt>
      <trkpt lat="61.19782" lon="17.1213">
        <ele>10.343677</ele>
        <time>2020-08-29T22:28:15.875Z</time>
      </trkpt>
      <trkpt lat="61.19747" lon="17.12204">
        <ele>10.724643</ele>
        <time>2020-08-29T22:28:26.220Z</time>
      </trkpt>
      <trkpt lat="61.19634" lon="17.12479">
        <ele>11.978293</ele>
        <time>2020-08-29T22:29:02.137Z</time>
      </trkpt>
      <trkpt lat="61.19618" lon="17.12518">
        <ele>12.070207</ele>
        <time>2020-08-29T22:29:06.675Z</time>
      </trkpt>
      <trkpt lat="61.19602" lon="17.12558">
        <ele>12.009627</ele>
        <time>2020-08-29T22:29:11.369Z</time>
      </trkpt>
      <trkpt lat="61.19564" lon="17.12649">
        <ele>11.870489</ele>
        <time>2020-08-29T22:29:21.451Z</time>
      </trkpt>
      <trkpt lat="61.19532" lon="17.1272">
        <ele>11.758964</ele>
        <time>2020-08-29T22:29:29.308Z</time>
      </trkpt>
      <trkpt lat="61.19524" lon="17.12737">
        <ele>11.731104</ele>
        <time>2020-08-29T22:29:31.113Z</time>
      </trkpt>
      <trkpt lat="61.19455" lon="17.12867">
        <ele>11.239545</ele>
        <time>2020-08-29T22:29:45.835Z</time>
      </trkpt>
      <trkpt lat="61.19368" lon="17.13001">
        <ele>10.519553</ele>
        <time>2020-08-29T22:30:03.243Z</time>
      </trkpt>
      <trkpt lat="61.19314" lon="17.13095">
        <ele>10.432044</ele>
        <time>2020-08-29T22:30:15.095Z</time>
      </trkpt>
      <trkpt lat="61.18677" lon="17.14382">
        <ele>10.065122</ele>
        <time>2020-08-29T22:32:53.259Z</time>
      </trkpt>
      <trkpt lat="61.18647" lon="17.14435">
        <ele>10.104308</ele>
        <time>2020-08-29T22:33:00.297Z</time>
      </trkpt>
      <trkpt lat="61.18607" lon="17.14487">
        <ele>10.151735</ele>
        <time>2020-08-29T22:33:08.898Z</time>
      </trkpt>
      <trkpt lat="61.18549" lon="17.14518">
        <ele>10.325039</ele>
        <time>2020-08-29T22:33:19.859Z</time>
      </trkpt>
      <trkpt lat="61.18537" lon="17.14525">
        <ele>10.40997</ele>
        <time>2020-08-29T22:33:22.152Z</time>
      </trkpt>
      <trkpt lat="61.18497" lon="17.14542">
        <ele>10.696307</ele>
        <time>2020-08-29T22:33:30.134Z</time>
      </trkpt>
      <trkpt lat="61.18414" lon="17.1458">
        <ele>11.294746</ele>
        <time>2020-08-29T22:33:47.623Z</time>
      </trkpt>
      <trkpt lat="61.18352" lon="17.14606">
        <ele>12.00755</ele>
        <time>2020-08-29T22:34:01.328Z</time>
      </trkpt>
      <trkpt lat="61.17921" lon="17.14795">
        <ele>17.695193</ele>
        <time>2020-08-29T22:35:39.904Z</time>
      </trkpt>
      <trkpt lat="61.17844" lon="17.14864">
        <ele>18.298252</ele>
        <time>2020-08-29T22:35:56.419Z</time>
      </trkpt>
      <trkpt lat="61.17632" lon="17.15085">
        <ele>17.548051</ele>
        <time>2020-08-29T22:36:36.683Z</time>
      </trkpt>
      <trkpt lat="61.17608" lon="17.15111">
        <ele>17.352395</ele>
        <time>2020-08-29T22:36:40.971Z</time>
      </trkpt>
      <trkpt lat="61.1759" lon="17.15131">
        <ele>17.203856</ele>
        <time>2020-08-29T22:36:44.122Z</time>
      </trkpt>
      <trkpt lat="61.17485" lon="17.15238">
        <ele>16.045093</ele>
        <time>2020-08-29T22:37:01.721Z</time>
      </trkpt>
      <trkpt lat="61.17417" lon="17.15287">
        <ele>15.18418</ele>
        <time>2020-08-29T22:37:12.516Z</time>
      </trkpt>
      <trkpt lat="61.1714" lon="17.1541">
        <ele>12.424069</ele>
        <time>2020-08-29T22:37:56.280Z</time>
      </trkpt>
      <trkpt lat="61.1709" lon="17.15417">
        <ele>12.074384</ele>
        <time>2020-08-29T22:38:04.630Z</time>
      </trkpt>
      <trkpt lat="61.17045" lon="17.15403">
        <ele>11.765771</ele>
        <time>2020-08-29T22:38:12.048Z</time>
      </trkpt>
      <trkpt lat="61.17032" lon="17.15394">
        <ele>11.669585</ele>
        <time>2020-08-29T22:38:14.413Z</time>
      </trkpt>
      <trkpt lat="61.17025" lon="17.1539">
        <ele>11.617092</ele>
        <time>2020-08-29T22:38:15.689Z</time>
      </trkpt>
      <trkpt lat="61.16372" lon="17.14906">
        <ele>6.45876</ele>
        <time>2020-08-29T22:40:06.442Z</time>
      </trkpt>
      <trkpt lat="61.16297" lon="17.14868">
        <ele>5.637767</ele>
        <time>2020-08-29T22:40:18.128Z</time>
      </trkpt>
      <trkpt lat="61.16081" lon="17.1481">
        <ele>3.24044</ele>
        <time>2020-08-29T22:40:51.027Z</time>
      </trkpt>
      <trkpt lat="61.16036" lon="17.14798">
        <ele>2.800245</ele>
        <time>2020-08-29T22:40:58.185Z</time>
      </trkpt>
      <trkpt lat="61.15962" lon="17.14778">
        <ele>2.29602</ele>
        <time>2020-08-29T22:41:10.181Z</time>
      </trkpt>
      <trkpt lat="61.15806" lon="17.14735">
        <ele>1.956999</ele>
        <time>2020-08-29T22:41:37.391Z</time>
      </trkpt>
      <trkpt lat="61.15782" lon="17.14724">
        <ele>2.010028</ele>
        <time>2020-08-29T22:41:41.894Z</time>
      </trkpt>
      <trkpt lat="61.15766" lon="17.14717">
        <ele>2.04503</ele>
        <time>2020-08-29T22:41:44.909Z</time>
      </trkpt>
      <trkpt lat="61.15643" lon="17.14649">
        <ele>2.312653</ele>
        <time>2020-08-29T22:42:08.556Z</time>
      </trkpt>
      <trkpt lat="61.1557" lon="17.14635">
        <ele>2.684543</ele>
        <time>2020-08-29T22:42:23.126Z</time>
      </trkpt>
      <trkpt lat="61.15486" lon="17.14631">
        <ele>3.130888</ele>
        <time>2020-08-29T22:42:39.646Z</time>
      </trkpt>
      <trkpt lat="61.15473" lon="17.14634">
        <ele>3.201196</ele>
        <time>2020-08-29T22:42:42.351Z</time>
      </trkpt>
      <trkpt lat="61.15022" lon="17.14716">
        <ele>4.755832</ele>
        <time>2020-08-29T22:44:07.103Z</time>
      </trkpt>
      <trkpt lat="61.14887" lon="17.14742">
        <ele>5.720163</ele>
        <time>2020-08-29T22:44:34.814Z</time>
      </trkpt>
      <trkpt lat="61.14756" lon="17.14755">
        <ele>7.137797</ele>
        <time>2020-08-29T22:45:02.989Z</time>
      </trkpt>
      <trkpt lat="61.1466" lon="17.14723">
        <ele>8.317489</ele>
        <time>2020-08-29T22:45:24.121Z</time>
      </trkpt>
      <trkpt lat="61.14032" lon="17.14259">
        <ele>15.920279</ele>
        <time>2020-08-29T22:47:49.450Z</time>
      </trkpt>
      <trkpt lat="61.13812" lon="17.1415">
        <ele>14.633971</ele>
        <time>2020-08-29T22:48:25.298Z</time>
      </trkpt>
      <trkpt lat="61.13353" lon="17.1376">
        <ele>9.659649</ele>
        <time>2020-08-29T22:49:41.557Z</time>
      </trkpt>
      <trkpt lat="61.13231" lon="17.13642">
        <ele>8.701046</ele>
        <time>2020-08-29T22:50:03.287Z</time>
      </trkpt>
      <trkpt lat="61.13122" lon="17.1352">
        <ele>7.905185</ele>
        <time>2020-08-29T22:50:23.536Z</time>
      </trkpt>
      <trkpt lat="61.1306" lon="17.13451">
        <ele>7.468227</ele>
        <time>2020-08-29T22:50:34.790Z</time>
      </trkpt>
      <trkpt lat="61.12988" lon="17.13371">
        <ele>7.024818</ele>
        <time>2020-08-29T22:50:48.073Z</time>
      </trkpt>
      <trkpt lat="61.12707" lon="17.13065">
        <ele>6.041317</ele>
        <time>2020-08-29T22:51:41.014Z</time>
      </trkpt>
      <trkpt lat="61.12381" lon="17.1283">
        <ele>8.256417</ele>
        <time>2020-08-29T22:52:51.099Z</time>
      </trkpt>
      <trkpt lat="61.12317" lon="17.12808">
        <ele>8.659147</ele>
        <time>2020-08-29T22:53:04.285Z</time>
      </trkpt>
      <trkpt lat="61.11909" lon="17.12758">
        <ele>10.526902</ele>
        <time>2020-08-29T22:54:23.149Z</time>
      </trkpt>
      <trkpt lat="61.1181" lon="17.12716">
        <ele>10.578095</ele>
        <time>2020-08-29T22:54:41.332Z</time>
      </trkpt>
      <trkpt lat="61.11655" lon="17.12614">
        <ele>10.355715</ele>
        <time>2020-08-29T22:55:09.207Z</time>
      </trkpt>
      <trkpt lat="61.11632" lon="17.12604">
        <ele>10.322594</ele>
        <time>2020-08-29T22:55:13.221Z</time>
      </trkpt>
      <trkpt lat="61.11609" lon="17.12593">
        <ele>10.289596</ele>
        <time>2020-08-29T22:55:17.286Z</time>
      </trkpt>
      <trkpt lat="61.11352" lon="17.12485">
        <ele>10.156686</ele>
        <time>2020-08-29T22:56:03.545Z</time>
      </trkpt>
      <trkpt lat="61.11302" lon="17.12477">
        <ele>10.225385</ele>
        <time>2020-08-29T22:56:12.931Z</time>
      </trkpt>
      <trkpt lat="61.11243" lon="17.12492">
        <ele>10.317069</ele>
        <time>2020-08-29T22:56:23.864Z</time>
      </trkpt>
      <trkpt lat="61.11228" lon="17.12499">
        <ele>10.340173</ele>
        <time>2020-08-29T22:56:26.674Z</time>
      </trkpt>
      <trkpt lat="61.11206" lon="17.12509">
        <ele>10.375624</ele>
        <time>2020-08-29T22:56:30.911Z</time>
      </trkpt>
      <trkpt lat="61.10977" lon="17.12632">
        <ele>10.588657</ele>
        <time>2020-08-29T22:57:13.988Z</time>
      </trkpt>
      <trkpt lat="61.10822" lon="17.12715">
        <ele>10.292616</ele>
        <time>2020-08-29T22:57:41.394Z</time>
      </trkpt>
      <trkpt lat="61.10802" lon="17.12724">
        <ele>10.262203</ele>
        <time>2020-08-29T22:57:44.845Z</time>
      </trkpt>
      <trkpt lat="61.1078" lon="17.12734">
        <ele>10.229004</ele>
        <time>2020-08-29T22:57:48.718Z</time>
      </trkpt>
      <trkpt lat="61.10753" lon="17.12741">
        <ele>10.189289</ele>
        <time>2020-08-29T22:57:53.377Z</time>
      </trkpt>
      <trkpt lat="61.10739" lon="17.12742">
        <ele>10.168412</ele>
        <time>2020-08-29T22:57:55.817Z</time>
      </trkpt>
      <trkpt lat="61.10715" lon="17.12743">
        <ele>10.133269</ele>
        <time>2020-08-29T22:57:59.982Z</time>
      </trkpt>
      <trkpt lat="61.10656" lon="17.1274">
        <ele>10.046239</ele>
        <time>2020-08-29T22:58:10.332Z</time>
      </trkpt>
      <trkpt lat="61.10081" lon="17.12691">
        <ele>10.01311</ele>
        <time>2020-08-29T22:59:53.028Z</time>
      </trkpt>
      <trkpt lat="61.09844" lon="17.12671">
        <ele>10.239549</ele>
        <time>2020-08-29T23:00:35.369Z</time>
      </trkpt>
      <trkpt lat="61.09732" lon="17.12676">
        <ele>10.5486</ele>
        <time>2020-08-29T23:00:56.466Z</time>
      </trkpt>
      <trkpt lat="61.09161" lon="17.12806">
        <ele>15.072219</ele>
        <time>2020-08-29T23:02:53.721Z</time>
      </trkpt>
      <trkpt lat="61.09128" lon="17.12813">
        <ele>15.368845</ele>
        <time>2020-08-29T23:03:00.745Z</time>
      </trkpt>
      <trkpt lat="61.09087" lon="17.12821">
        <ele>15.73939</ele>
        <time>2020-08-29T23:03:09.568Z</time>
      </trkpt>
      <trkpt lat="61.08787" lon="17.1289">
        <ele>17.596567</ele>
        <time>2020-08-29T23:04:09.811Z</time>
      </trkpt>
      <trkpt lat="61.08776" lon="17.12892">
        <ele>17.620531</ele>
        <time>2020-08-29T23:04:11.647Z</time>
      </trkpt>
      <trkpt lat="61.08728" lon="17.12902">
        <ele>17.726734</ele>
        <time>2020-08-29T23:04:20.171Z</time>
      </trkpt>
      <trkpt lat="61.08668" lon="17.12913">
        <ele>17.864884</ele>
        <time>2020-08-29T23:04:30.664Z</time>
      </trkpt>
      <trkpt lat="61.08294" lon="17.12997">
        <ele>20.024256</ele>
        <time>2020-08-29T23:05:44.395Z</time>
      </trkpt>
      <trkpt lat="61.08261" lon="17.13004">
        <ele>20.425721</ele>
        <time>2020-08-29T23:05:51.743Z</time>
      </trkpt>
      <trkpt lat="61.08161" lon="17.13039">
        <ele>21.649398</ele>
        <time>2020-08-29T23:06:14.585Z</time>
      </trkpt>
      <trkpt lat="61.07533" lon="17.1351">
        <ele>28.828351</ele>
        <time>2020-08-29T23:08:38.258Z</time>
      </trkpt>
      <trkpt lat="61.07404" lon="17.13561">
        <ele>28.606035</ele>
        <time>2020-08-29T23:09:01.536Z</time>
      </trkpt>
      <trkpt lat="61.06217" lon="17.13962">
        <ele>13.256306</ele>
        <time>2020-08-29T23:12:01.218Z</time>
      </trkpt>
      <trkpt lat="61.0601" lon="17.14034">
        <ele>11.101786</ele>
        <time>2020-08-29T23:12:33.321Z</time>
      </trkpt>
      <trkpt lat="61.05924" lon="17.14064">
        <ele>10.605637</ele>
        <time>2020-08-29T23:12:47.417Z</time>
      </trkpt>
      <trkpt lat="61.05889" lon="17.14076">
        <ele>10.403672</ele>
        <time>2020-08-29T23:12:53.346Z</time>
      </trkpt>
      <trkpt lat="61.05545" lon="17.14192">
        <ele>10.015261</ele>
        <time>2020-08-29T23:13:54.736Z</time>
      </trkpt>
      <trkpt lat="61.0493" lon="17.14408">
        <ele>9.860954</ele>
        <time>2020-08-29T23:15:45.775Z</time>
      </trkpt>
      <trkpt lat="61.0481" lon="17.14443">
        <ele>9.74375</ele>
        <time>2020-08-29T23:16:07.065Z</time>
      </trkpt>
      <trkpt lat="61.04731" lon="17.14452">
        <ele>9.453374</ele>
        <time>2020-08-29T23:16:20.348Z</time>
      </trkpt>
      <trkpt lat="61.04713" lon="17.14458">
        <ele>9.37162</ele>
        <time>2020-08-29T23:16:23.426Z</time>
      </trkpt>
      <trkpt lat="61.04656" lon="17.14467">
        <ele>9.122053</ele>
        <time>2020-08-29T23:16:32.802Z</time>
      </trkpt>
      <trkpt lat="61.04576" lon="17.14466">
        <ele>8.796444</ele>
        <time>2020-08-29T23:16:45.660Z</time>
      </trkpt>
      <trkpt lat="61.04519" lon="17.14461">
        <ele>8.573723</ele>
        <time>2020-08-29T23:16:55.202Z</time>
      </trkpt>
      <trkpt lat="61.04486" lon="17.14458">
        <ele>8.449028</ele>
        <time>2020-08-29T23:17:00.692Z</time>
      </trkpt>
      <trkpt lat="61.04453" lon="17.1445">
        <ele>8.321608</ele>
        <time>2020-08-29T23:17:06.404Z</time>
      </trkpt>
      <trkpt lat="61.04393" lon="17.14429">
        <ele>8.361269</ele>
        <time>2020-08-29T23:17:17.145Z</time>
      </trkpt>
      <trkpt lat="61.04376" lon="17.14423">
        <ele>8.406021</ele>
        <time>2020-08-29T23:17:20.417Z</time>
      </trkpt>
      <trkpt lat="61.04024" lon="17.14311">
        <ele>9.628423</ele>
        <time>2020-08-29T23:18:28.513Z</time>
      </trkpt>
      <trkpt lat="61.03946" lon="17.14294">
        <ele>9.866484</ele>
        <time>2020-08-29T23:18:43.213Z</time>
      </trkpt>
      <trkpt lat="61.03818" lon="17.14295">
        <ele>10.143241</ele>
        <time>2020-08-29T23:19:07.040Z</time>
      </trkpt>
      <trkpt lat="61.03543" lon="17.14377">
        <ele>10.454092</ele>
        <time>2020-08-29T23:19:57.489Z</time>
      </trkpt>
      <trkpt lat="61.03437" lon="17.1441">
        <ele>10.40907</ele>
        <time>2020-08-29T23:20:16.309Z</time>
      </trkpt>
      <trkpt lat="61.03397" lon="17.14423">
        <ele>10.392446</ele>
        <time>2020-08-29T23:20:23.176Z</time>
      </trkpt>
      <trkpt lat="61.03257" lon="17.14467">
        <ele>10.886614</ele>
        <time>2020-08-29T23:20:49.229Z</time>
      </trkpt>
      <trkpt lat="61.02459" lon="17.14714">
        <ele>18.376254</ele>
        <time>2020-08-29T23:23:39.095Z</time>
      </trkpt>
      <trkpt lat="61.02391" lon="17.14717">
        <ele>18.538988</ele>
        <time>2020-08-29T23:23:51.917Z</time>
      </trkpt>
      <trkpt lat="61.02349" lon="17.14708">
        <ele>18.639621</ele>
        <time>2020-08-29T23:23:59.523Z</time>
      </trkpt>
      <trkpt lat="61.02193" lon="17.14632">
        <ele>18.370717</ele>
        <time>2020-08-29T23:24:26.964Z</time>
      </trkpt>
      <trkpt lat="61.02176" lon="17.14623">
        <ele>18.308464</ele>
        <time>2020-08-29T23:24:29.875Z</time>
      </trkpt>
      <trkpt lat="61.01974" lon="17.14519">
        <ele>17.219724</ele>
        <time>2020-08-29T23:25:03.971Z</time>
      </trkpt>
      <trkpt lat="61.0192" lon="17.14492">
        <ele>16.707531</ele>
        <time>2020-08-29T23:25:12.798Z</time>
      </trkpt>
      <trkpt lat="61.01896" lon="17.14478">
        <ele>16.402716</ele>
        <time>2020-08-29T23:25:16.805Z</time>
      </trkpt>
      <trkpt lat="61.0185" lon="17.14453">
        <ele>15.828024</ele>
        <time>2020-08-29T23:25:24.026Z</time>
      </trkpt>
      <trkpt lat="61.0179" lon="17.14419">
        <ele>15.085068</ele>
        <time>2020-08-29T23:25:33.183Z</time>
      </trkpt>
      <trkpt lat="61.01727" lon="17.14382">
        <ele>14.010154</ele>
        <time>2020-08-29T23:25:42.744Z</time>
      </trkpt>
      <trkpt lat="61.01708" lon="17.14371">
        <ele>13.672203</ele>
        <time>2020-08-29T23:25:45.462Z</time>
      </trkpt>
      <trkpt lat="61.01631" lon="17.14322">
        <ele>12.258781</ele>
        <time>2020-08-29T23:25:56.951Z</time>
      </trkpt>
      <trkpt lat="61.01553" lon="17.14243">
        <ele>11.073144</ele>
        <time>2020-08-29T23:26:09.553Z</time>
      </trkpt>
      <trkpt lat="61.01542" lon="17.14229">
        <ele>10.915204</ele>
        <time>2020-08-29T23:26:11.512Z</time>
      </trkpt>
      <trkpt lat="61.01513" lon="17.14192">
        <ele>10.516626</ele>
        <time>2020-08-29T23:26:16.662Z</time>
      </trkpt>
      <trkpt lat="61.01422" lon="17.14066">
        <ele>9.557544</ele>
        <time>2020-08-29T23:26:34.028Z</time>
      </trkpt>
      <trkpt lat="61.01389" lon="17.1402">
        <ele>9.465565</ele>
        <time>2020-08-29T23:26:40.802Z</time>
      </trkpt>
      <trkpt lat="61.01353" lon="17.13971">
        <ele>9.3657</ele>
        <time>2020-08-29T23:26:48.372Z</time>
      </trkpt>
      <trkpt lat="61.00775" lon="17.13169">
        <ele>10.360266</ele>
        <time>2020-08-29T23:28:56.667Z</time>
      </trkpt>
      <trkpt lat="61.00524" lon="17.12807">
        <ele>10.715125</ele>
        <time>2020-08-29T23:29:52.143Z</time>
      </trkpt>
      <trkpt lat="61.00492" lon="17.12761">
        <ele>10.75854</ele>
        <time>2020-08-29T23:29:59.369Z</time>
      </trkpt>
      <trkpt lat="61.00463" lon="17.12722">
        <ele>10.796574</ele>
        <time>2020-08-29T23:30:05.696Z</time>
      </trkpt>
      <trkpt lat="61.00412" lon="17.12647">
        <ele>10.866867</ele>
        <time>2020-08-29T23:30:17.185Z</time>
      </trkpt>
      <trkpt lat="61.00402" lon="17.12631">
        <ele>10.858519</ele>
        <time>2020-08-29T23:30:19.469Z</time>
      </trkpt>
      <trkpt lat="61.00384" lon="17.12602">
        <ele>10.838078</ele>
        <time>2020-08-29T23:30:23.587Z</time>
      </trkpt>
      <trkpt lat="61.0037" lon="17.12582">
        <ele>10.823514</ele>
        <time>2020-08-29T23:30:26.638Z</time>
      </trkpt>
      <trkpt lat="61.00338" lon="17.12537">
        <ele>10.789403</ele>
        <time>2020-08-29T23:30:33.580Z</time>
      </trkpt>
      <trkpt lat="61.0031" lon="17.12482">
        <ele>10.755559</ele>
        <time>2020-08-29T23:30:40.317Z</time>
      </trkpt>
      <trkpt lat="61.00301" lon="17.12465">
        <ele>10.745036</ele>
        <time>2020-08-29T23:30:42.298Z</time>
      </trkpt>
      <trkpt lat="61.00267" lon="17.12366">
        <ele>10.676628</ele>
        <time>2020-08-29T23:30:52.434Z</time>
      </trkpt>
      <trkpt lat="61.00245" lon="17.12293">
        <ele>10.604012</ele>
        <time>2020-08-29T23:30:59.419Z</time>
      </trkpt>
      <trkpt lat="61.0024" lon="17.12278">
        <ele>10.589472</ele>
        <time>2020-08-29T23:31:00.753Z</time>
      </trkpt>
      <trkpt lat="61.00199" lon="17.1212">
        <ele>10.438735</ele>
        <time>2020-08-29T23:31:15.464Z</time>
      </trkpt>
      <trkpt lat="61.00126" lon="17.11776">
        <ele>11.366569</ele>
        <time>2020-08-29T23:31:50.535Z</time>
      </trkpt>
      <trkpt lat="61.00125" lon="17.11769">
        <ele>11.389418</ele>
        <time>2020-08-29T23:31:51.372Z</time>
      </trkpt>
      <trkpt lat="61.00122" lon="17.11754">
        <ele>11.437015</ele>
        <time>2020-08-29T23:31:53.057Z</time>
      </trkpt>
      <trkpt lat="61.00107" lon="17.11646">
        <ele>12.419969</ele>
        <time>2020-08-29T23:32:05.449Z</time>
      </trkpt>
      <trkpt lat="61.00063" lon="17.11274">
        <ele>16.54971</ele>
        <time>2020-08-29T23:32:53.008Z</time>
      </trkpt>
      <trkpt lat="61.0004" lon="17.11122">
        <ele>18.578469</ele>
        <time>2020-08-29T23:33:13.271Z</time>
      </trkpt>
      <trkpt lat="61.00028" lon="17.11072">
        <ele>19.28258</ele>
        <time>2020-08-29T23:33:20.258Z</time>
      </trkpt>
      <trkpt lat="61.00021" lon="17.11044">
        <ele>19.689678</ele>
        <time>2020-08-29T23:33:24.741Z</time>
      </trkpt>
      <trkpt lat="60.99956" lon="17.10825">
        <ele>22.788735</ele>
        <time>2020-08-29T23:33:57.886Z</time>
      </trkpt>
      <trkpt lat="60.9995" lon="17.10798">
        <ele>23.154055</ele>
        <time>2020-08-29T23:34:01.898Z</time>
      </trkpt>
      <trkpt lat="60.9994" lon="17.10752">
        <ele>23.763302</ele>
        <time>2020-08-29T23:34:07.759Z</time>
      </trkpt>
      <trkpt lat="60.99925" lon="17.10644">
        <ele>24.735098</ele>
        <time>2020-08-29T23:34:20.618Z</time>
      </trkpt>
      <trkpt lat="60.99921" lon="17.10527">
        <ele>25.38437</ele>
        <time>2020-08-29T23:34:33.525Z</time>
      </trkpt>
      <trkpt lat="60.99924" lon="17.10422">
        <ele>25.968145</ele>
        <time>2020-08-29T23:34:44.210Z</time>
      </trkpt>
      <trkpt lat="60.99945" lon="17.10189">
        <ele>26.566511</ele>
        <time>2020-08-29T23:35:05.958Z</time>
      </trkpt>
      <trkpt lat="60.99947" lon="17.10037">
        <ele>26.666494</ele>
        <time>2020-08-29T23:35:19.220Z</time>
      </trkpt>
      <trkpt lat="60.99935" lon="17.09802">
        <ele>26.551933</ele>
        <time>2020-08-29T23:35:39.270Z</time>
      </trkpt>
      <trkpt lat="60.99923" lon="17.09687">
        <ele>26.436829</ele>
        <time>2020-08-29T23:35:49.116Z</time>
      </trkpt>
      <trkpt lat="60.99874" lon="17.09455">
        <ele>26.020816</ele>
        <time>2020-08-29T23:36:09.816Z</time>
      </trkpt>
      <trkpt lat="60.99844" lon="17.0935">
        <ele>25.777879</ele>
        <time>2020-08-29T23:36:19.565Z</time>
      </trkpt>
      <trkpt lat="60.99728" lon="17.09097">
        <ele>24.954779</ele>
        <time>2020-08-29T23:36:47.427Z</time>
      </trkpt>
      <trkpt lat="60.9969" lon="17.0902">
        <ele>24.681473</ele>
        <time>2020-08-29T23:36:56.171Z</time>
      </trkpt>
      <trkpt lat="60.99656" lon="17.08951">
        <ele>24.384365</ele>
        <time>2020-08-29T23:37:04.016Z</time>
      </trkpt>
      <trkpt lat="60.99349" lon="17.08328">
        <ele>21.73665</ele>
        <time>2020-08-29T23:38:13.771Z</time>
      </trkpt>
      <trkpt lat="60.99295" lon="17.08238">
        <ele>21.351255</ele>
        <time>2020-08-29T23:38:25.010Z</time>
      </trkpt>
      <trkpt lat="60.99236" lon="17.0817">
        <ele>21.141722</ele>
        <time>2020-08-29T23:38:36.197Z</time>
      </trkpt>
      <trkpt lat="60.99177" lon="17.08123">
        <ele>20.943632</ele>
        <time>2020-08-29T23:38:46.979Z</time>
      </trkpt>
      <trkpt lat="60.98927" lon="17.07998">
        <ele>20.940712</ele>
        <time>2020-08-29T23:39:32.934Z</time>
      </trkpt>
      <trkpt lat="60.9886" lon="17.07964">
        <ele>21.152428</ele>
        <time>2020-08-29T23:39:45.814Z</time>
      </trkpt>
      <trkpt lat="60.98818" lon="17.07945">
        <ele>21.286113</ele>
        <time>2020-08-29T23:39:54.073Z</time>
      </trkpt>
      <trkpt lat="60.98697" lon="17.07886">
        <ele>21.892873</ele>
        <time>2020-08-29T23:40:18.531Z</time>
      </trkpt>
      <trkpt lat="60.98601" lon="17.07835">
        <ele>22.446204</ele>
        <time>2020-08-29T23:40:37.873Z</time>
      </trkpt>
      <trkpt lat="60.98543" lon="17.07783">
        <ele>22.890284</ele>
        <time>2020-08-29T23:40:50.425Z</time>
      </trkpt>
      <trkpt lat="60.98519" lon="17.07752">
        <ele>23.091014</ele>
        <time>2020-08-29T23:40:56.137Z</time>
      </trkpt>
      <trkpt lat="60.98489" lon="17.07705">
        <ele>23.354416</ele>
        <time>2020-08-29T23:41:03.707Z</time>
      </trkpt>
      <trkpt lat="60.98442" lon="17.07609">
        <ele>23.919352</ele>
        <time>2020-08-29T23:41:17.171Z</time>
      </trkpt>
      <trkpt lat="60.98382" lon="17.07401">
        <ele>25.153351</ele>
        <time>2020-08-29T23:41:42.331Z</time>
      </trkpt>
      <trkpt lat="60.98351" lon="17.07276">
        <ele>25.842183</ele>
        <time>2020-08-29T23:41:57.079Z</time>
      </trkpt>
      <trkpt lat="60.98342" lon="17.07241">
        <ele>26.031789</ele>
        <time>2020-08-29T23:42:01.387Z</time>
      </trkpt>
      <trkpt lat="60.98194" lon="17.06681">
        <ele>28.682662</ele>
        <time>2020-08-29T23:43:04.938Z</time>
      </trkpt>
      <trkpt lat="60.98164" lon="17.06592">
        <ele>28.851436</ele>
        <time>2020-08-29T23:43:14.809Z</time>
      </trkpt>
      <trkpt lat="60.98117" lon="17.0648">
        <ele>29.084816</ele>
        <time>2020-08-29T23:43:28.223Z</time>
      </trkpt>
      <trkpt lat="60.98088" lon="17.06431">
        <ele>29.205893</ele>
        <time>2020-08-29T23:43:35.084Z</time>
      </trkpt>
      <trkpt lat="60.98052" lon="17.06375">
        <ele>29.308652</ele>
        <time>2020-08-29T23:43:43.360Z</time>
      </trkpt>
      <trkpt lat="60.97836" lon="17.06055">
        <ele>29.668553</ele>
        <time>2020-08-29T23:44:32.423Z</time>
      </trkpt>
      <trkpt lat="60.97704" lon="17.0586">
        <ele>29.582707</ele>
        <time>2020-08-29T23:45:00.898Z</time>
      </trkpt>
      <trkpt lat="60.97676" lon="17.05828">
        <ele>29.539806</ele>
        <time>2020-08-29T23:45:06.379Z</time>
      </trkpt>
      <trkpt lat="60.9755" lon="17.05732">
        <ele>29.485151</ele>
        <time>2020-08-29T23:45:29.773Z</time>
      </trkpt>
      <trkpt lat="60.97454" lon="17.05631">
        <ele>29.521531</ele>
        <time>2020-08-29T23:45:49.474Z</time>
      </trkpt>
      <trkpt lat="60.97395" lon="17.05562">
        <ele>29.641464</ele>
        <time>2020-08-29T23:46:01.933Z</time>
      </trkpt>
      <trkpt lat="60.9733" lon="17.05491">
        <ele>29.772647</ele>
        <time>2020-08-29T23:46:15.567Z</time>
      </trkpt>
      <trkpt lat="60.97198" lon="17.05347">
        <ele>29.940528</ele>
        <time>2020-08-29T23:46:42.743Z</time>
      </trkpt>
      <trkpt lat="60.96984" lon="17.05221">
        <ele>29.999698</ele>
        <time>2020-08-29T23:47:22.493Z</time>
      </trkpt>
      <trkpt lat="60.9691" lon="17.0515">
        <ele>30.050978</ele>
        <time>2020-08-29T23:47:37.216Z</time>
      </trkpt>
      <trkpt lat="60.96893" lon="17.05128">
        <ele>30.065528</ele>
        <time>2020-08-29T23:47:40.768Z</time>
      </trkpt>
      <trkpt lat="60.9687" lon="17.05091">
        <ele>30.087412</ele>
        <time>2020-08-29T23:47:46.140Z</time>
      </trkpt>
      <trkpt lat="60.9673" lon="17.04819">
        <ele>30.418065</ele>
        <time>2020-08-29T23:48:21.318Z</time>
      </trkpt>
      <trkpt lat="60.96691" lon="17.04759">
        <ele>30.524998</ele>
        <time>2020-08-29T23:48:30.499Z</time>
      </trkpt>
      <trkpt lat="60.96655" lon="17.04718">
        <ele>30.701155</ele>
        <time>2020-08-29T23:48:38.354Z</time>
      </trkpt>
      <trkpt lat="60.9656" lon="17.04651">
        <ele>31.131506</ele>
        <time>2020-08-29T23:48:57.727Z</time>
      </trkpt>
      <trkpt lat="60.96507" lon="17.04599">
        <ele>31.388118</ele>
        <time>2020-08-29T23:49:08.992Z</time>
      </trkpt>
      <trkpt lat="60.96338" lon="17.04353">
        <ele>32.229544</ele>
        <time>2020-08-29T23:49:49.081Z</time>
      </trkpt>
      <trkpt lat="60.96309" lon="17.0432">
        <ele>32.286779</ele>
        <time>2020-08-29T23:49:55.236Z</time>
      </trkpt>
      <trkpt lat="60.96262" lon="17.04266">
        <ele>32.378671</ele>
        <time>2020-08-29T23:50:04.911Z</time>
      </trkpt>
      <trkpt lat="60.96217" lon="17.04199">
        <ele>32.45666</ele>
        <time>2020-08-29T23:50:14.896Z</time>
      </trkpt>
      <trkpt lat="60.96185" lon="17.04135">
        <ele>32.451223</ele>
        <time>2020-08-29T23:50:22.657Z</time>
      </trkpt>
      <trkpt lat="60.96118" lon="17.03942">
        <ele>32.437137</ele>
        <time>2020-08-29T23:50:43.140Z</time>
      </trkpt>
      <trkpt lat="60.96099" lon="17.03888">
        <ele>32.47804</ele>
        <time>2020-08-29T23:50:49.058Z</time>
      </trkpt>
      <trkpt lat="60.96078" lon="17.03829">
        <ele>32.545968</ele>
        <time>2020-08-29T23:50:55.635Z</time>
      </trkpt>
      <trkpt lat="60.96012" lon="17.03654">
        <ele>32.75004</ele>
        <time>2020-08-29T23:51:15.562Z</time>
      </trkpt>
      <trkpt lat="60.96007" lon="17.0366">
        <ele>32.762201</ele>
        <time>2020-08-29T23:51:16.752Z</time>
      </trkpt>
      <trkpt lat="60.95981" lon="17.0366">
        <ele>32.773519</ele>
        <time>2020-08-29T23:51:21.485Z</time>
      </trkpt>
      <trkpt lat="60.95917" lon="17.03628">
        <ele>32.752814</ele>
        <time>2020-08-29T23:51:33.422Z</time>
      </trkpt>
      <trkpt lat="60.95881" lon="17.03607">
        <ele>32.740896</ele>
        <time>2020-08-29T23:51:40.126Z</time>
      </trkpt>
      <trkpt lat="60.95872" lon="17.03602">
        <ele>32.738119</ele>
        <time>2020-08-29T23:51:41.626Z</time>
      </trkpt>
      <trkpt lat="60.95803" lon="17.03573">
        <ele>32.603468</ele>
        <time>2020-08-29T23:51:53.750Z</time>
      </trkpt>
      <trkpt lat="60.95737" lon="17.03563">
        <ele>32.21739</ele>
        <time>2020-08-29T23:52:04.774Z</time>
      </trkpt>
      <trkpt lat="60.95595" lon="17.03561">
        <ele>31.291923</ele>
        <time>2020-08-29T23:52:27.345Z</time>
      </trkpt>
      <trkpt lat="60.95471" lon="17.03526">
        <ele>30.302443</ele>
        <time>2020-08-29T23:52:47.028Z</time>
      </trkpt>
      <trkpt lat="60.95426" lon="17.03502">
        <ele>29.989307</ele>
        <time>2020-08-29T23:52:54.392Z</time>
      </trkpt>
      <trkpt lat="60.95059" lon="17.03236">
        <ele>27.435837</ele>
        <time>2020-08-29T23:53:57.638Z</time>
      </trkpt>
      <trkpt lat="60.94962" lon="17.0319">
        <ele>26.612193</ele>
        <time>2020-08-29T23:54:13.265Z</time>
      </trkpt>
      <trkpt lat="60.9481" lon="17.03166">
        <ele>24.895205</ele>
        <time>2020-08-29T23:54:36.375Z</time>
      </trkpt>
      <trkpt lat="60.94287" lon="17.03155">
        <ele>19.123462</ele>
        <time>2020-08-29T23:55:55.925Z</time>
      </trkpt>
      <trkpt lat="60.94224" lon="17.03153">
        <ele>18.630623</ele>
        <time>2020-08-29T23:56:06.416Z</time>
      </trkpt>
      <trkpt lat="60.94223" lon="17.03268">
        <ele>18.673893</ele>
        <time>2020-08-29T23:56:16.109Z</time>
      </trkpt>
      <trkpt lat="60.94212" lon="17.03385">
        <ele>18.718496</ele>
        <time>2020-08-29T23:56:26.694Z</time>
      </trkpt>
      <trkpt lat="60.94202" lon="17.03431">
        <ele>18.737362</ele>
        <time>2020-08-29T23:56:31.294Z</time>
      </trkpt>
      <trkpt lat="60.94184" lon="17.0349">
        <ele>18.766748</ele>
        <time>2020-08-29T23:56:37.838Z</time>
      </trkpt>
      <trkpt lat="60.94172" lon="17.03515">
        <ele>18.867263</ele>
        <time>2020-08-29T23:56:41.149Z</time>
      </trkpt>
      <trkpt lat="60.94158" lon="17.03529">
        <ele>18.957531</ele>
        <time>2020-08-29T23:56:44.082Z</time>
      </trkpt>
      <trkpt lat="60.9414" lon="17.03538">
        <ele>19.069453</ele>
        <time>2020-08-29T23:56:47.796Z</time>
      </trkpt>
      <trkpt lat="60.94109" lon="17.03537">
        <ele>19.24709</ele>
        <time>2020-08-29T23:56:53.699Z</time>
      </trkpt>
      <trkpt lat="60.94073" lon="17.0351">
        <ele>19.47312</ele>
        <time>2020-08-29T23:57:01.314Z</time>
      </trkpt>
      <trkpt lat="60.94023" lon="17.03417">
        <ele>19.84914</ele>
        <time>2020-08-29T23:57:15.028Z</time>
      </trkpt>
      <trkpt lat="60.93987" lon="17.03377">
        <ele>19.970027</ele>
        <time>2020-08-29T23:57:23.144Z</time>
      </trkpt>
      <trkpt lat="60.9389" lon="17.03345">
        <ele>20.262496</ele>
        <time>2020-08-29T23:57:41.760Z</time>
      </trkpt>
      <trkpt lat="60.93872" lon="17.0335">
        <ele>20.317508</ele>
        <time>2020-08-29T23:57:45.063Z</time>
      </trkpt>
      <trkpt lat="60.9383" lon="17.03385">
        <ele>20.097221</ele>
        <time>2020-08-29T23:57:52.800Z</time>
      </trkpt>
      <trkpt lat="60.93808" lon="17.03393">
        <ele>19.908676</ele>
        <time>2020-08-29T23:57:56.422Z</time>
      </trkpt>
      <trkpt lat="60.93725" lon="17.0339">
        <ele>19.200144</ele>
        <time>2020-08-29T23:58:09.309Z</time>
      </trkpt>
      <trkpt lat="60.93645" lon="17.03421">
        <ele>18.549771</ele>
        <time>2020-08-29T23:58:21.420Z</time>
      </trkpt>
      <trkpt lat="60.9359" lon="17.035">
        <ele>18.054908</ele>
        <time>2020-08-29T23:58:31.803Z</time>
      </trkpt>
      <trkpt lat="60.9355" lon="17.03543">
        <ele>17.719862</ele>
        <time>2020-08-29T23:58:39.212Z</time>
      </trkpt>
      <trkpt lat="60.93544" lon="17.03548">
        <ele>17.668566</ele>
        <time>2020-08-29T23:58:40.335Z</time>
      </trkpt>
      <trkpt lat="60.93482" lon="17.03599">
        <ele>17.661202</ele>
        <time>2020-08-29T23:58:52.288Z</time>
      </trkpt>
      <trkpt lat="60.93446" lon="17.03631">
        <ele>17.807737</ele>
        <time>2020-08-29T23:58:59.842Z</time>
      </trkpt>
      <trkpt lat="60.93362" lon="17.03685">
        <ele>18.134093</ele>
        <time>2020-08-29T23:59:17.699Z</time>
      </trkpt>
      <trkpt lat="60.93334" lon="17.03722">
        <ele>18.170812</ele>
        <time>2020-08-29T23:59:24.066Z</time>
      </trkpt>
      <trkpt lat="60.93242" lon="17.03849">
        <ele>18.195226</ele>
        <time>2020-08-29T23:59:43.632Z</time>
      </trkpt>
      <trkpt lat="60.93127" lon="17.03972">
        <ele>18.031431</ele>
        <time>2020-08-30T00:00:05.370Z</time>
      </trkpt>
      <trkpt lat="60.93091" lon="17.0401">
        <ele>17.94804</ele>
        <time>2020-08-30T00:00:12.244Z</time>
      </trkpt>
      <trkpt lat="60.93017" lon="17.0402">
        <ele>17.884681</ele>
        <time>2020-08-30T00:00:25.721Z</time>
      </trkpt>
      <trkpt lat="60.9293" lon="17.04074">
        <ele>18.1039</ele>
        <time>2020-08-30T00:00:43.213Z</time>
      </trkpt>
      <trkpt lat="60.92899" lon="17.04094">
        <ele>18.18195</ele>
        <time>2020-08-30T00:00:49.430Z</time>
      </trkpt>
      <trkpt lat="60.92871" lon="17.04109">
        <ele>18.25134</ele>
        <time>2020-08-30T00:00:54.913Z</time>
      </trkpt>
      <trkpt lat="60.92848" lon="17.04117">
        <ele>18.174413</ele>
        <time>2020-08-30T00:00:59.357Z</time>
      </trkpt>
      <trkpt lat="60.92813" lon="17.04099">
        <ele>17.947964</ele>
        <time>2020-08-30T00:01:05.776Z</time>
      </trkpt>
      <trkpt lat="60.92802" lon="17.04084">
        <ele>17.868379</ele>
        <time>2020-08-30T00:01:07.865Z</time>
      </trkpt>
      <trkpt lat="60.92792" lon="17.04124">
        <ele>17.73319</ele>
        <time>2020-08-30T00:01:11.544Z</time>
      </trkpt>
      <trkpt lat="60.92747" lon="17.04146">
        <ele>17.445438</ele>
        <time>2020-08-30T00:01:18.640Z</time>
      </trkpt>
      <trkpt lat="60.92725" lon="17.04158">
        <ele>17.306434</ele>
        <time>2020-08-30T00:01:22.236Z</time>
      </trkpt>
      <trkpt lat="60.92688" lon="17.04178">
        <ele>17.102829</ele>
        <time>2020-08-30T00:01:28.120Z</time>
      </trkpt>
      <trkpt lat="60.92665" lon="17.04223">
        <ele>16.974029</ele>
        <time>2020-08-30T00:01:33.148Z</time>
      </trkpt>
      <trkpt lat="60.92651" lon="17.0425">
        <ele>16.896972</ele>
        <time>2020-08-30T00:01:36.233Z</time>
      </trkpt>
      <trkpt lat="60.92625" lon="17.04298">
        <ele>16.757792</ele>
        <time>2020-08-30T00:01:41.880Z</time>
      </trkpt>
      <trkpt lat="60.92568" lon="17.04412">
        <ele>16.439547</ele>
        <time>2020-08-30T00:01:55.734Z</time>
      </trkpt>
      <trkpt lat="60.92555" lon="17.0444">
        <ele>16.51092</ele>
        <time>2020-08-30T00:01:59.270Z</time>
      </trkpt>
      <trkpt lat="60.9255" lon="17.04449">
        <ele>16.537019</ele>
        <time>2020-08-30T00:02:00.686Z</time>
      </trkpt>
      <trkpt lat="60.92512" lon="17.04514">
        <ele>16.730946</ele>
        <time>2020-08-30T00:02:10.813Z</time>
      </trkpt>
      <trkpt lat="60.92462" lon="17.04569">
        <ele>16.950988</ele>
        <time>2020-08-30T00:02:22.594Z</time>
      </trkpt>
      <trkpt lat="60.92332" lon="17.04688">
        <ele>16.698092</ele>
        <time>2020-08-30T00:02:49.841Z</time>
      </trkpt>
      <trkpt lat="60.92259" lon="17.04735">
        <ele>16.336915</ele>
        <time>2020-08-30T00:03:02.199Z</time>
      </trkpt>
      <trkpt lat="60.92236" lon="17.04737">
        <ele>16.089228</ele>
        <time>2020-08-30T00:03:05.871Z</time>
      </trkpt>
      <trkpt lat="60.92165" lon="17.04742">
        <ele>15.055735</ele>
        <time>2020-08-30T00:03:16.715Z</time>
      </trkpt>
      <trkpt lat="60.91859" lon="17.04703">
        <ele>10.78728</ele>
        <time>2020-08-30T00:04:03.838Z</time>
      </trkpt>
      <trkpt lat="60.91747" lon="17.04708">
        <ele>9.855441</ele>
        <time>2020-08-30T00:04:22.781Z</time>
      </trkpt>
      <trkpt lat="60.91657" lon="17.04733">
        <ele>9.288797</ele>
        <time>2020-08-30T00:04:38.310Z</time>
      </trkpt>
      <trkpt lat="60.91508" lon="17.04819">
        <ele>8.542433</ele>
        <time>2020-08-30T00:05:05.050Z</time>
      </trkpt>
      <trkpt lat="60.91431" lon="17.04909">
        <ele>8.195541</ele>
        <time>2020-08-30T00:05:20.493Z</time>
      </trkpt>
      <trkpt lat="60.91368" lon="17.05035">
        <ele>7.870172</ele>
        <time>2020-08-30T00:05:36.059Z</time>
      </trkpt>
      <trkpt lat="60.90788" lon="17.06516">
        <ele>4.784305</ele>
        <time>2020-08-30T00:08:19.308Z</time>
      </trkpt>
      <trkpt lat="60.90758" lon="17.06621">
        <ele>4.475659</ele>
        <time>2020-08-30T00:08:29.402Z</time>
      </trkpt>
      <trkpt lat="60.90749" lon="17.06679">
        <ele>4.319062</ele>
        <time>2020-08-30T00:08:34.489Z</time>
      </trkpt>
      <trkpt lat="60.90699" lon="17.06638">
        <ele>4.06987</ele>
        <time>2020-08-30T00:08:43.037Z</time>
      </trkpt>
      <trkpt lat="60.90627" lon="17.06598">
        <ele>3.830201</ele>
        <time>2020-08-30T00:08:55.486Z</time>
      </trkpt>
      <trkpt lat="60.90579" lon="17.06571">
        <ele>3.672355</ele>
        <time>2020-08-30T00:09:03.928Z</time>
      </trkpt>
      <trkpt lat="60.90556" lon="17.06561">
        <ele>3.597529</ele>
        <time>2020-08-30T00:09:08.055Z</time>
      </trkpt>
      <trkpt lat="60.90511" lon="17.0654">
        <ele>3.607055</ele>
        <time>2020-08-30T00:09:16.343Z</time>
      </trkpt>
      <trkpt lat="60.90368" lon="17.06475">
        <ele>3.937644</ele>
        <time>2020-08-30T00:09:43.717Z</time>
      </trkpt>
      <trkpt lat="60.90272" lon="17.0645">
        <ele>4.19733</ele>
        <time>2020-08-30T00:10:02.087Z</time>
      </trkpt>
      <trkpt lat="60.90279" lon="17.06479">
        <ele>4.239296</ele>
        <time>2020-08-30T00:10:05.024Z</time>
      </trkpt>
      <trkpt lat="60.90279" lon="17.0648">
        <ele>4.240382</ele>
        <time>2020-08-30T00:10:05.197Z</time>
      </trkpt>
      <trkpt lat="60.90193" lon="17.0647">
        <ele>4.444476</ele>
        <time>2020-08-30T00:10:21.844Z</time>
      </trkpt>
      <trkpt lat="60.90144" lon="17.06477">
        <ele>4.472578</ele>
        <time>2020-08-30T00:10:31.010Z</time>
      </trkpt>
      <trkpt lat="60.90089" lon="17.06472">
        <ele>4.504638</ele>
        <time>2020-08-30T00:10:41.388Z</time>
      </trkpt>
      <trkpt lat="60.90058" lon="17.06481">
        <ele>4.522559</ele>
        <time>2020-08-30T00:10:47.100Z</time>
      </trkpt>
      <trkpt lat="60.90018" lon="17.06511">
        <ele>4.525713</ele>
        <time>2020-08-30T00:10:54.996Z</time>
      </trkpt>
      <trkpt lat="60.89949" lon="17.06618">
        <ele>4.41264</ele>
        <time>2020-08-30T00:11:10.910Z</time>
      </trkpt>
      <trkpt lat="60.89939" lon="17.06616">
        <ele>4.400093</ele>
        <time>2020-08-30T00:11:12.640Z</time>
      </trkpt>
      <trkpt lat="60.89923" lon="17.0661">
        <ele>4.378487</ele>
        <time>2020-08-30T00:11:15.663Z</time>
      </trkpt>
      <trkpt lat="60.89878" lon="17.0667">
        <ele>4.309753</ele>
        <time>2020-08-30T00:11:25.158Z</time>
      </trkpt>
      <trkpt lat="60.89872" lon="17.06716">
        <ele>4.288268</ele>
        <time>2020-08-30T00:11:29.191Z</time>
      </trkpt>
      <trkpt lat="60.89859" lon="17.06765">
        <ele>4.26437</ele>
        <time>2020-08-30T00:11:33.880Z</time>
      </trkpt>
      <trkpt lat="60.89851" lon="17.06784">
        <ele>4.25337</ele>
        <time>2020-08-30T00:11:36.059Z</time>
      </trkpt>
      <trkpt lat="60.89807" lon="17.06879">
        <ele>4.197022</ele>
        <time>2020-08-30T00:11:47.194Z</time>
      </trkpt>
      <trkpt lat="60.89712" lon="17.07087">
        <ele>4.242468</ele>
        <time>2020-08-30T00:12:12.239Z</time>
      </trkpt>
      <trkpt lat="60.89668" lon="17.07205">
        <ele>4.324092</ele>
        <time>2020-08-30T00:12:25.452Z</time>
      </trkpt>
      <trkpt lat="60.89642" lon="17.07302">
        <ele>4.409922</ele>
        <time>2020-08-30T00:12:35.407Z</time>
      </trkpt>
      <trkpt lat="60.89577" lon="17.07586">
        <ele>4.709354</ele>
        <time>2020-08-30T00:13:03.459Z</time>
      </trkpt>
      <trkpt lat="60.89503" lon="17.07794">
        <ele>4.971547</ele>
        <time>2020-08-30T00:13:26.744Z</time>
      </trkpt>
      <trkpt lat="60.89468" lon="17.07909">
        <ele>5.094828</ele>
        <time>2020-08-30T00:13:39.016Z</time>
      </trkpt>
      <trkpt lat="60.89454" lon="17.08021">
        <ele>5.155588</ele>
        <time>2020-08-30T00:13:49.453Z</time>
      </trkpt>
      <trkpt lat="60.89453" lon="17.08121">
        <ele>5.20817</ele>
        <time>2020-08-30T00:13:58.326Z</time>
      </trkpt>
      <trkpt lat="60.89458" lon="17.08292">
        <ele>5.223956</ele>
        <time>2020-08-30T00:14:13.071Z</time>
      </trkpt>
      <trkpt lat="60.89468" lon="17.08415">
        <ele>5.086069</ele>
        <time>2020-08-30T00:14:23.592Z</time>
      </trkpt>
      <trkpt lat="60.895" lon="17.0865">
        <ele>4.795813</ele>
        <time>2020-08-30T00:14:43.676Z</time>
      </trkpt>
      <trkpt lat="60.89541" lon="17.08897">
        <ele>4.387897</ele>
        <time>2020-08-30T00:15:05.097Z</time>
      </trkpt>
      <trkpt lat="60.89551" lon="17.0902">
        <ele>4.279969</ele>
        <time>2020-08-30T00:15:15.543Z</time>
      </trkpt>
      <trkpt lat="60.89551" lon="17.09101">
        <ele>4.270477</ele>
        <time>2020-08-30T00:15:22.472Z</time>
      </trkpt>
      <trkpt lat="60.89542" lon="17.09307">
        <ele>4.246245</ele>
        <time>2020-08-30T00:15:40.576Z</time>
      </trkpt>
      <trkpt lat="60.89529" lon="17.09439">
        <ele>4.327019</ele>
        <time>2020-08-30T00:15:52.543Z</time>
      </trkpt>
      <trkpt lat="60.89458" lon="17.09889">
        <ele>4.997055</ele>
        <time>2020-08-30T00:16:34.993Z</time>
      </trkpt>
      <trkpt lat="60.89432" lon="17.10137">
        <ele>5.962282</ele>
        <time>2020-08-30T00:17:00.218Z</time>
      </trkpt>
      <trkpt lat="60.89391" lon="17.10369">
        <ele>7.4958</ele>
        <time>2020-08-30T00:17:27.140Z</time>
      </trkpt>
      <trkpt lat="60.89365" lon="17.10486">
        <ele>8.389744</ele>
        <time>2020-08-30T00:17:41.716Z</time>
      </trkpt>
      <trkpt lat="60.89258" lon="17.1086">
        <ele>10.608883</ele>
        <time>2020-08-30T00:18:28.513Z</time>
      </trkpt>
      <trkpt lat="60.88946" lon="17.12134">
        <ele>12.561255</ele>
        <time>2020-08-30T00:20:37.783Z</time>
      </trkpt>
      <trkpt lat="60.88871" lon="17.12407">
        <ele>11.454764</ele>
        <time>2020-08-30T00:21:01.445Z</time>
      </trkpt>
      <trkpt lat="60.8883" lon="17.12514">
        <ele>10.732938</ele>
        <time>2020-08-30T00:21:11.316Z</time>
      </trkpt>
      <trkpt lat="60.88732" lon="17.12743">
        <ele>9.409143</ele>
        <time>2020-08-30T00:21:34.400Z</time>
      </trkpt>
      <trkpt lat="60.88638" lon="17.12917">
        <ele>8.63938</ele>
        <time>2020-08-30T00:21:55.470Z</time>
      </trkpt>
      <trkpt lat="60.88491" lon="17.13146">
        <ele>7.995102</ele>
        <time>2020-08-30T00:22:26.671Z</time>
      </trkpt>
      <trkpt lat="60.88396" lon="17.13346">
        <ele>7.562576</ele>
        <time>2020-08-30T00:22:49.517Z</time>
      </trkpt>
      <trkpt lat="60.88326" lon="17.13546">
        <ele>7.483947</ele>
        <time>2020-08-30T00:23:10.168Z</time>
      </trkpt>
      <trkpt lat="60.88281" lon="17.13748">
        <ele>7.555049</ele>
        <time>2020-08-30T00:23:30.209Z</time>
      </trkpt>
      <trkpt lat="60.88241" lon="17.13989">
        <ele>7.942483</ele>
        <time>2020-08-30T00:23:53.979Z</time>
      </trkpt>
      <trkpt lat="60.88227" lon="17.14171">
        <ele>8.031534</ele>
        <time>2020-08-30T00:24:10.557Z</time>
      </trkpt>
      <trkpt lat="60.88205" lon="17.14364">
        <ele>7.993761</ele>
        <time>2020-08-30T00:24:27.461Z</time>
      </trkpt>
      <trkpt lat="60.88166" lon="17.14604">
        <ele>7.705181</ele>
        <time>2020-08-30T00:24:48.384Z</time>
      </trkpt>
      <trkpt lat="60.87985" lon="17.15453">
        <ele>6.379649</ele>
        <time>2020-08-30T00:26:05.193Z</time>
      </trkpt>
      <trkpt lat="60.8791" lon="17.15745">
        <ele>5.814195</ele>
        <time>2020-08-30T00:26:32.130Z</time>
      </trkpt>
      <trkpt lat="60.87831" lon="17.15948">
        <ele>5.482039</ele>
        <time>2020-08-30T00:26:53.472Z</time>
      </trkpt>
      <trkpt lat="60.87783" lon="17.16054">
        <ele>5.313563</ele>
        <time>2020-08-30T00:27:05.687Z</time>
      </trkpt>
      <trkpt lat="60.87717" lon="17.16169">
        <ele>5.343107</ele>
        <time>2020-08-30T00:27:20.945Z</time>
      </trkpt>
      <trkpt lat="60.8759" lon="17.1636">
        <ele>5.569259</ele>
        <time>2020-08-30T00:27:49.937Z</time>
      </trkpt>
      <trkpt lat="60.87358" lon="17.16584">
        <ele>6.487384</ele>
        <time>2020-08-30T00:28:38.622Z</time>
      </trkpt>
      <trkpt lat="60.87219" lon="17.16703">
        <ele>7.264104</ele>
        <time>2020-08-30T00:29:08.136Z</time>
      </trkpt>
      <trkpt lat="60.87146" lon="17.16766">
        <ele>7.671272</ele>
        <time>2020-08-30T00:29:23.709Z</time>
      </trkpt>
      <trkpt lat="60.87088" lon="17.16811">
        <ele>7.881104</ele>
        <time>2020-08-30T00:29:35.758Z</time>
      </trkpt>
      <trkpt lat="60.86549" lon="17.17229">
        <ele>9.705651</ele>
        <time>2020-08-30T00:31:24.021Z</time>
      </trkpt>
      <trkpt lat="60.8645" lon="17.17333">
        <ele>9.893853</ele>
        <time>2020-08-30T00:31:44.393Z</time>
      </trkpt>
      <trkpt lat="60.86394" lon="17.17427">
        <ele>9.949038</ele>
        <time>2020-08-30T00:31:57.508Z</time>
      </trkpt>
      <trkpt lat="60.86068" lon="17.18068">
        <ele>9.996387</ele>
        <time>2020-08-30T00:33:18.079Z</time>
      </trkpt>
      <trkpt lat="60.85947" lon="17.18262">
        <ele>9.975489</ele>
        <time>2020-08-30T00:33:45.350Z</time>
      </trkpt>
      <trkpt lat="60.85871" lon="17.18373">
        <ele>9.891725</ele>
        <time>2020-08-30T00:34:01.814Z</time>
      </trkpt>
      <trkpt lat="60.85522" lon="17.18782">
        <ele>9.583303</ele>
        <time>2020-08-30T00:35:12.178Z</time>
      </trkpt>
      <trkpt lat="60.85316" lon="17.1905">
        <ele>9.780301</ele>
        <time>2020-08-30T00:35:56.563Z</time>
      </trkpt>
      <trkpt lat="60.85031" lon="17.19455">
        <ele>9.953538</ele>
        <time>2020-08-30T00:36:59.049Z</time>
      </trkpt>
      <trkpt lat="60.84973" lon="17.19529">
        <ele>9.91626</ele>
        <time>2020-08-30T00:37:11.089Z</time>
      </trkpt>
      <trkpt lat="60.84921" lon="17.19582">
        <ele>9.884476</ele>
        <time>2020-08-30T00:37:21.302Z</time>
      </trkpt>
      <trkpt lat="60.84809" lon="17.19693">
        <ele>9.845893</ele>
        <time>2020-08-30T00:37:43.291Z</time>
      </trkpt>
      <trkpt lat="60.8469" lon="17.19794">
        <ele>9.888992</ele>
        <time>2020-08-30T00:38:06.105Z</time>
      </trkpt>
      <trkpt lat="60.84469" lon="17.19859">
        <ele>11.05612</ele>
        <time>2020-08-30T00:38:48.056Z</time>
      </trkpt>
      <trkpt lat="60.84066" lon="17.20056">
        <ele>16.091632</ele>
        <time>2020-08-30T00:40:20.331Z</time>
      </trkpt>
      <trkpt lat="60.83912" lon="17.20134">
        <ele>17.570545</ele>
        <time>2020-08-30T00:40:54.394Z</time>
      </trkpt>
      <trkpt lat="60.83873" lon="17.20154">
        <ele>17.863926</ele>
        <time>2020-08-30T00:41:02.286Z</time>
      </trkpt>
      <trkpt lat="60.83739" lon="17.20244">
        <ele>17.751115</ele>
        <time>2020-08-30T00:41:26.953Z</time>
      </trkpt>
      <trkpt lat="60.83647" lon="17.20339">
        <ele>17.205709</ele>
        <time>2020-08-30T00:41:43.307Z</time>
      </trkpt>
      <trkpt lat="60.83399" lon="17.20627">
        <ele>14.394718</ele>
        <time>2020-08-30T00:42:27.155Z</time>
      </trkpt>
      <trkpt lat="60.83267" lon="17.20766">
        <ele>13.084157</ele>
        <time>2020-08-30T00:42:50.651Z</time>
      </trkpt>
      <trkpt lat="60.83233" lon="17.20792">
        <ele>12.779506</ele>
        <time>2020-08-30T00:42:56.438Z</time>
      </trkpt>
      <trkpt lat="60.83149" lon="17.20856">
        <ele>12.057275</ele>
        <time>2020-08-30T00:43:10.611Z</time>
      </trkpt>
      <trkpt lat="60.83013" lon="17.20948">
        <ele>10.987891</ele>
        <time>2020-08-30T00:43:33.340Z</time>
      </trkpt>
      <trkpt lat="60.8287" lon="17.21044">
        <ele>10.301003</ele>
        <time>2020-08-30T00:43:58.210Z</time>
      </trkpt>
      <trkpt lat="60.8283" lon="17.21075">
        <ele>10.192433</ele>
        <time>2020-08-30T00:44:05.599Z</time>
      </trkpt>
      <trkpt lat="60.82816" lon="17.21085">
        <ele>10.176712</ele>
        <time>2020-08-30T00:44:08.193Z</time>
      </trkpt>
      <trkpt lat="60.82804" lon="17.21094">
        <ele>10.163339</ele>
        <time>2020-08-30T00:44:10.418Z</time>
      </trkpt>
      <trkpt lat="60.82785" lon="17.21108">
        <ele>10.142129</ele>
        <time>2020-08-30T00:44:13.942Z</time>
      </trkpt>
      <trkpt lat="60.82651" lon="17.21192">
        <ele>10.02447</ele>
        <time>2020-08-30T00:44:38.617Z</time>
      </trkpt>
      <trkpt lat="60.82576" lon="17.21219">
        <ele>10.011731</ele>
        <time>2020-08-30T00:44:52.295Z</time>
      </trkpt>
      <trkpt lat="60.82485" lon="17.21233">
        <ele>10.000012</ele>
        <time>2020-08-30T00:45:08.567Z</time>
      </trkpt>
      <trkpt lat="60.82439" lon="17.21234">
        <ele>10.000012</ele>
        <time>2020-08-30T00:45:16.681Z</time>
      </trkpt>
      <trkpt lat="60.82365" lon="17.21231">
        <ele>10.000012</ele>
        <time>2020-08-30T00:45:29.833Z</time>
      </trkpt>
      <trkpt lat="60.82227" lon="17.21218">
        <ele>10.092012</ele>
        <time>2020-08-30T00:45:54.530Z</time>
      </trkpt>
      <trkpt lat="60.82158" lon="17.21213">
        <ele>10.15672</ele>
        <time>2020-08-30T00:46:07.085Z</time>
      </trkpt>
      <trkpt lat="60.82086" lon="17.21204">
        <ele>10.607151</ele>
        <time>2020-08-30T00:46:20.513Z</time>
      </trkpt>
      <trkpt lat="60.81989" lon="17.21191">
        <ele>11.331543</ele>
        <time>2020-08-30T00:46:40.349Z</time>
      </trkpt>
      <trkpt lat="60.8183" lon="17.21132">
        <ele>13.924688</ele>
        <time>2020-08-30T00:47:17.550Z</time>
      </trkpt>
      <trkpt lat="60.81763" lon="17.21128">
        <ele>14.929011</ele>
        <time>2020-08-30T00:47:34.955Z</time>
      </trkpt>
      <trkpt lat="60.81698" lon="17.21143">
        <ele>15.622858</ele>
        <time>2020-08-30T00:47:49.836Z</time>
      </trkpt>
      <trkpt lat="60.81689" lon="17.21146">
        <ele>15.720309</ele>
        <time>2020-08-30T00:47:52.262Z</time>
      </trkpt>
      <trkpt lat="60.81637" lon="17.21166">
        <ele>16.293287</ele>
        <time>2020-08-30T00:48:02.581Z</time>
      </trkpt>
      <trkpt lat="60.8162" lon="17.21172">
        <ele>16.477629</ele>
        <time>2020-08-30T00:48:06.021Z</time>
      </trkpt>
      <trkpt lat="60.81565" lon="17.21188">
        <ele>15.789504</ele>
        <time>2020-08-30T00:48:14.802Z</time>
      </trkpt>
      <trkpt lat="60.81369" lon="17.21218">
        <ele>12.522268</ele>
        <time>2020-08-30T00:48:41.968Z</time>
      </trkpt>
      <trkpt lat="60.81218" lon="17.21241">
        <ele>10.544648</ele>
        <time>2020-08-30T00:49:04.706Z</time>
      </trkpt>
      <trkpt lat="60.81115" lon="17.21254">
        <ele>10.216729</ele>
        <time>2020-08-30T00:49:22.513Z</time>
      </trkpt>
      <trkpt lat="60.80947" lon="17.21265">
        <ele>10.764719</ele>
        <time>2020-08-30T00:49:54.401Z</time>
      </trkpt>
      <trkpt lat="60.80887" lon="17.21251">
        <ele>11.134398</ele>
        <time>2020-08-30T00:50:06.835Z</time>
      </trkpt>
      <trkpt lat="60.80751" lon="17.21202">
        <ele>12.825614</ele>
        <time>2020-08-30T00:50:37.263Z</time>
      </trkpt>
      <trkpt lat="60.8071" lon="17.21187">
        <ele>13.320129</ele>
        <time>2020-08-30T00:50:46.466Z</time>
      </trkpt>
      <trkpt lat="60.80596" lon="17.21137">
        <ele>14.475238</ele>
        <time>2020-08-30T00:51:11.247Z</time>
      </trkpt>
      <trkpt lat="60.8052" lon="17.21112">
        <ele>15.148454</ele>
        <time>2020-08-30T00:51:26.782Z</time>
      </trkpt>
      <trkpt lat="60.80391" lon="17.2109">
        <ele>15.84813</ele>
        <time>2020-08-30T00:51:52.093Z</time>
      </trkpt>
      <trkpt lat="60.8008" lon="17.20987">
        <ele>17.234515</ele>
        <time>2020-08-30T00:52:52.277Z</time>
      </trkpt>
      <trkpt lat="60.79882" lon="17.20889">
        <ele>18.269422</ele>
        <time>2020-08-30T00:53:31.982Z</time>
      </trkpt>
      <trkpt lat="60.798" lon="17.20836">
        <ele>18.701891</ele>
        <time>2020-08-30T00:53:48.977Z</time>
      </trkpt>
      <trkpt lat="60.79696" lon="17.208">
        <ele>19.176392</ele>
        <time>2020-08-30T00:54:09.629Z</time>
      </trkpt>
      <trkpt lat="60.79535" lon="17.20773">
        <ele>19.443276</ele>
        <time>2020-08-30T00:54:39.252Z</time>
      </trkpt>
      <trkpt lat="60.79498" lon="17.20764">
        <ele>19.470897</ele>
        <time>2020-08-30T00:54:45.756Z</time>
      </trkpt>
      <trkpt lat="60.79461" lon="17.20756">
        <ele>19.452866</ele>
        <time>2020-08-30T00:54:52.063Z</time>
      </trkpt>
      <trkpt lat="60.79302" lon="17.20689">
        <ele>19.119692</ele>
        <time>2020-08-30T00:55:20.068Z</time>
      </trkpt>
      <trkpt lat="60.79246" lon="17.20651">
        <ele>19.061667</ele>
        <time>2020-08-30T00:55:30.352Z</time>
      </trkpt>
      <trkpt lat="60.79121" lon="17.20538">
        <ele>18.958998</ele>
        <time>2020-08-30T00:55:54.405Z</time>
      </trkpt>
      <trkpt lat="60.78927" lon="17.20314">
        <ele>19.261974</ele>
        <time>2020-08-30T00:56:34.867Z</time>
      </trkpt>
      <trkpt lat="60.78906" lon="17.20293">
        <ele>19.315777</ele>
        <time>2020-08-30T00:56:39.233Z</time>
      </trkpt>
      <trkpt lat="60.78863" lon="17.20248">
        <ele>19.427001</ele>
        <time>2020-08-30T00:56:48.365Z</time>
      </trkpt>
      <trkpt lat="60.78762" lon="17.20177">
        <ele>19.650622</ele>
        <time>2020-08-30T00:57:08.370Z</time>
      </trkpt>
      <trkpt lat="60.78656" lon="17.20117">
        <ele>19.865072</ele>
        <time>2020-08-30T00:57:28.750Z</time>
      </trkpt>
      <trkpt lat="60.78513" lon="17.20072">
        <ele>19.908526</ele>
        <time>2020-08-30T00:57:54.651Z</time>
      </trkpt>
      <trkpt lat="60.78382" lon="17.20057">
        <ele>19.730707</ele>
        <time>2020-08-30T00:58:17.453Z</time>
      </trkpt>
      <trkpt lat="60.78179" lon="17.20059">
        <ele>19.229344</ele>
        <time>2020-08-30T00:58:52.024Z</time>
      </trkpt>
      <trkpt lat="60.78095" lon="17.20045">
        <ele>19.019092</ele>
        <time>2020-08-30T00:59:06.269Z</time>
      </trkpt>
      <trkpt lat="60.78051" lon="17.20025">
        <ele>18.961325</ele>
        <time>2020-08-30T00:59:14.003Z</time>
      </trkpt>
      <trkpt lat="60.77812" lon="17.19858">
        <ele>18.786663</ele>
        <time>2020-08-30T00:59:58.521Z</time>
      </trkpt>
      <trkpt lat="60.77734" lon="17.19796">
        <ele>18.844178</ele>
        <time>2020-08-30T01:00:13.802Z</time>
      </trkpt>
      <trkpt lat="60.77376" lon="17.19482">
        <ele>19.463826</ele>
        <time>2020-08-30T01:01:26.121Z</time>
      </trkpt>
      <trkpt lat="60.77151" lon="17.19305">
        <ele>18.698659</ele>
        <time>2020-08-30T01:02:06.751Z</time>
      </trkpt>
      <trkpt lat="60.77048" lon="17.19221">
        <ele>17.870295</ele>
        <time>2020-08-30T01:02:24.343Z</time>
      </trkpt>
      <trkpt lat="60.76991" lon="17.19182">
        <ele>17.266534</ele>
        <time>2020-08-30T01:02:33.519Z</time>
      </trkpt>
      <trkpt lat="60.76919" lon="17.19165">
        <ele>16.526053</ele>
        <time>2020-08-30T01:02:44.624Z</time>
      </trkpt>
      <trkpt lat="60.76849" lon="17.19149">
        <ele>15.781858</ele>
        <time>2020-08-30T01:02:55.306Z</time>
      </trkpt>
      <trkpt lat="60.7681" lon="17.19133">
        <ele>15.366365</ele>
        <time>2020-08-30T01:03:01.287Z</time>
      </trkpt>
      <trkpt lat="60.76778" lon="17.19115">
        <ele>15.013255</ele>
        <time>2020-08-30T01:03:06.484Z</time>
      </trkpt>
      <trkpt lat="60.76689" lon="17.19063">
        <ele>14.294593</ele>
        <time>2020-08-30T01:03:21.318Z</time>
      </trkpt>
      <trkpt lat="60.76681" lon="17.19057">
        <ele>14.240793</ele>
        <time>2020-08-30T01:03:22.634Z</time>
      </trkpt>
      <trkpt lat="60.76619" lon="17.19027">
        <ele>13.843063</ele>
        <time>2020-08-30T01:03:32.863Z</time>
      </trkpt>
      <trkpt lat="60.76608" lon="17.1901">
        <ele>13.755518</ele>
        <time>2020-08-30T01:03:35.077Z</time>
      </trkpt>
      <trkpt lat="60.76586" lon="17.19001">
        <ele>13.613767</ele>
        <time>2020-08-30T01:03:38.827Z</time>
      </trkpt>
      <trkpt lat="60.76582" lon="17.18999">
        <ele>13.587515</ele>
        <time>2020-08-30T01:03:39.466Z</time>
      </trkpt>
      <trkpt lat="60.76576" lon="17.18997">
        <ele>13.549272</ele>
        <time>2020-08-30T01:03:40.509Z</time>
      </trkpt>
      <trkpt lat="60.76575" lon="17.18953">
        <ele>13.461831</ele>
        <time>2020-08-30T01:03:44.150Z</time>
      </trkpt>
      <trkpt lat="60.76572" lon="17.18953">
        <ele>13.45001</ele>
        <time>2020-08-30T01:03:44.646Z</time>
      </trkpt>
      <trkpt lat="60.76569" lon="17.18954">
        <ele>13.436846</ele>
        <time>2020-08-30T01:03:45.157Z</time>
      </trkpt>
      <trkpt lat="60.76519" lon="17.18969">
        <ele>13.230684</ele>
        <time>2020-08-30T01:03:53.609Z</time>
      </trkpt>
      <trkpt lat="60.76454" lon="17.18941">
        <ele>12.959694</ele>
        <time>2020-08-30T01:04:04.747Z</time>
      </trkpt>
      <trkpt lat="60.76388" lon="17.18898">
        <ele>12.728249</ele>
        <time>2020-08-30T01:04:16.370Z</time>
      </trkpt>
      <trkpt lat="60.76345" lon="17.18871">
        <ele>12.609239</ele>
        <time>2020-08-30T01:04:23.994Z</time>
      </trkpt>
      <trkpt lat="60.763" lon="17.18842">
        <ele>12.483094</ele>
        <time>2020-08-30T01:04:32.092Z</time>
      </trkpt>
      <trkpt lat="60.76295" lon="17.1884">
        <ele>12.470435</ele>
        <time>2020-08-30T01:04:32.873Z</time>
      </trkpt>
      <trkpt lat="60.76236" lon="17.18819">
        <ele>12.329421</ele>
        <time>2020-08-30T01:04:43.134Z</time>
      </trkpt>
      <trkpt lat="60.76222" lon="17.18817">
        <ele>12.313225</ele>
        <time>2020-08-30T01:04:45.640Z</time>
      </trkpt>
      <trkpt lat="60.7614" lon="17.18805">
        <ele>12.223339</ele>
        <time>2020-08-30T01:04:59.805Z</time>
      </trkpt>
      <trkpt lat="60.76074" lon="17.18805">
        <ele>12.150693</ele>
        <time>2020-08-30T01:05:11.584Z</time>
      </trkpt>
      <trkpt lat="60.76002" lon="17.18823">
        <ele>12.391512</ele>
        <time>2020-08-30T01:05:24.864Z</time>
      </trkpt>
      <trkpt lat="60.75987" lon="17.18829">
        <ele>12.447367</ele>
        <time>2020-08-30T01:05:27.698Z</time>
      </trkpt>
      <trkpt lat="60.75737" lon="17.18816">
        <ele>13.82625</ele>
        <time>2020-08-30T01:06:16.734Z</time>
      </trkpt>
      <trkpt lat="60.75676" lon="17.18827">
        <ele>14.498386</ele>
        <time>2020-08-30T01:06:29.796Z</time>
      </trkpt>
      <trkpt lat="60.75628" lon="17.18835">
        <ele>15.20969</ele>
        <time>2020-08-30T01:06:40.621Z</time>
      </trkpt>
      <trkpt lat="60.75577" lon="17.18836">
        <ele>15.951832</ele>
        <time>2020-08-30T01:06:52.118Z</time>
      </trkpt>
      <trkpt lat="60.75491" lon="17.18814">
        <ele>17.103367</ele>
        <time>2020-08-30T01:07:12.790Z</time>
      </trkpt>
      <trkpt lat="60.75429" lon="17.1877">
        <ele>17.873463</ele>
        <time>2020-08-30T01:07:27.042Z</time>
      </trkpt>
      <trkpt lat="60.75429" lon="17.18769">
        <ele>17.884589</ele>
        <time>2020-08-30T01:07:27.584Z</time>
      </trkpt>
      <trkpt lat="60.75426" lon="17.18768">
        <ele>17.912796</ele>
        <time>2020-08-30T01:07:28.139Z</time>
      </trkpt>
      <trkpt lat="60.75407" lon="17.18765">
        <ele>18.143604</ele>
        <time>2020-08-30T01:07:32.143Z</time>
      </trkpt>
      <trkpt lat="60.7517" lon="17.18624">
        <ele>19.6753</ele>
        <time>2020-08-30T01:08:20.248Z</time>
      </trkpt>
      <trkpt lat="60.75075" lon="17.18588">
        <ele>19.808118</ele>
        <time>2020-08-30T01:08:37.576Z</time>
      </trkpt>
      <trkpt lat="60.74948" lon="17.18571">
        <ele>19.960604</ele>
        <time>2020-08-30T01:09:00.360Z</time>
      </trkpt>
      <trkpt lat="60.74746" lon="17.18576">
        <ele>20.133186</ele>
        <time>2020-08-30T01:09:37.256Z</time>
      </trkpt>
      <trkpt lat="60.74691" lon="17.18565">
        <ele>20.170152</ele>
        <time>2020-08-30T01:09:47.353Z</time>
      </trkpt>
      <trkpt lat="60.74689" lon="17.18559">
        <ele>20.172605</ele>
        <time>2020-08-30T01:09:48.018Z</time>
      </trkpt>
      <trkpt lat="60.74682" lon="17.18558">
        <ele>20.177003</ele>
        <time>2020-08-30T01:09:49.264Z</time>
      </trkpt>
      <trkpt lat="60.74678" lon="17.18555">
        <ele>20.179762</ele>
        <time>2020-08-30T01:09:49.970Z</time>
      </trkpt>
      <trkpt lat="60.74615" lon="17.1854">
        <ele>20.174424</ele>
        <time>2020-08-30T01:10:01.324Z</time>
      </trkpt>
      <trkpt lat="60.74607" lon="17.18536">
        <ele>20.168134</ele>
        <time>2020-08-30T01:10:02.899Z</time>
      </trkpt>
      <trkpt lat="60.74603" lon="17.18539">
        <ele>20.16545</ele>
        <time>2020-08-30T01:10:03.580Z</time>
      </trkpt>
      <trkpt lat="60.7458" lon="17.18534">
        <ele>20.148855</ele>
        <time>2020-08-30T01:10:07.731Z</time>
      </trkpt>
      <trkpt lat="60.74479" lon="17.18507">
        <ele>20.076806</ele>
        <time>2020-08-30T01:10:25.377Z</time>
      </trkpt>
      <trkpt lat="60.74429" lon="17.18494">
        <ele>20.02905</ele>
        <time>2020-08-30T01:10:34.070Z</time>
      </trkpt>
      <trkpt lat="60.74343" lon="17.18465">
        <ele>19.943257</ele>
        <time>2020-08-30T01:10:49.445Z</time>
      </trkpt>
      <trkpt lat="60.74275" lon="17.18419">
        <ele>19.831881</ele>
        <time>2020-08-30T01:11:02.092Z</time>
      </trkpt>
      <trkpt lat="60.74253" lon="17.18412">
        <ele>19.766155</ele>
        <time>2020-08-30T01:11:06.119Z</time>
      </trkpt>
      <trkpt lat="60.74141" lon="17.18414">
        <ele>19.439275</ele>
        <time>2020-08-30T01:11:25.461Z</time>
      </trkpt>
      <trkpt lat="60.74086" lon="17.18403">
        <ele>18.914208</ele>
        <time>2020-08-30T01:11:34.149Z</time>
      </trkpt>
      <trkpt lat="60.74043" lon="17.1839">
        <ele>18.304063</ele>
        <time>2020-08-30T01:11:40.609Z</time>
      </trkpt>
      <trkpt lat="60.73986" lon="17.18373">
        <ele>17.472232</ele>
        <time>2020-08-30T01:11:49.082Z</time>
      </trkpt>
      <trkpt lat="60.73941" lon="17.18352">
        <ele>16.816476</ele>
        <time>2020-08-30T01:11:55.594Z</time>
      </trkpt>
      <trkpt lat="60.73894" lon="17.18353">
        <ele>15.932048</ele>
        <time>2020-08-30T01:12:02.211Z</time>
      </trkpt>
      <trkpt lat="60.73718" lon="17.18285">
        <ele>13.334342</ele>
        <time>2020-08-30T01:12:27.717Z</time>
      </trkpt>
      <trkpt lat="60.73589" lon="17.18202">
        <ele>13.039014</ele>
        <time>2020-08-30T01:12:51.963Z</time>
      </trkpt>
      <trkpt lat="60.73532" lon="17.18148">
        <ele>14.43195</ele>
        <time>2020-08-30T01:13:07.332Z</time>
      </trkpt>
      <trkpt lat="60.73525" lon="17.18142">
        <ele>14.580351</ele>
        <time>2020-08-30T01:13:09.054Z</time>
      </trkpt>
      <trkpt lat="60.73507" lon="17.18121">
        <ele>15.037691</ele>
        <time>2020-08-30T01:13:15.716Z</time>
      </trkpt>
      <trkpt lat="60.73461" lon="17.18066">
        <ele>16.217432</ele>
        <time>2020-08-30T01:13:32.686Z</time>
      </trkpt>
      <trkpt lat="60.73442" lon="17.18036">
        <ele>16.761966</ele>
        <time>2020-08-30T01:13:40.774Z</time>
      </trkpt>
      <trkpt lat="60.73384" lon="17.17955">
        <ele>18.183873</ele>
        <time>2020-08-30T01:14:03.702Z</time>
      </trkpt>
      <trkpt lat="60.73366" lon="17.17928">
        <ele>18.62474</ele>
        <time>2020-08-30T01:14:10.237Z</time>
      </trkpt>
      <trkpt lat="60.73323" lon="17.17868">
        <ele>19.6636</ele>
        <time>2020-08-30T01:14:25.584Z</time>
      </trkpt>
      <trkpt lat="60.73317" lon="17.17857">
        <ele>19.818957</ele>
        <time>2020-08-30T01:14:27.721Z</time>
      </trkpt>
      <trkpt lat="60.73285" lon="17.17805">
        <ele>20.622204</ele>
        <time>2020-08-30T01:14:39.005Z</time>
      </trkpt>
      <trkpt lat="60.73233" lon="17.17711">
        <ele>21.512677</ele>
        <time>2020-08-30T01:14:57.519Z</time>
      </trkpt>
      <trkpt lat="60.73218" lon="17.17687">
        <ele>21.758472</ele>
        <time>2020-08-30T01:15:02.738Z</time>
      </trkpt>
      <trkpt lat="60.73189" lon="17.17636">
        <ele>22.255082</ele>
        <time>2020-08-30T01:15:13.371Z</time>
      </trkpt>
      <trkpt lat="60.73167" lon="17.1763">
        <ele>22.542412</ele>
        <time>2020-08-30T01:15:18.259Z</time>
      </trkpt>
      <trkpt lat="60.73158" lon="17.17618">
        <ele>22.676982</ele>
        <time>2020-08-30T01:15:20.634Z</time>
      </trkpt>
      <trkpt lat="60.73156" lon="17.17615">
        <ele>22.70736</ele>
        <time>2020-08-30T01:15:21.238Z</time>
      </trkpt>
      <trkpt lat="60.73153" lon="17.17588">
        <ele>22.883022</ele>
        <time>2020-08-30T01:15:24.205Z</time>
      </trkpt>
      <trkpt lat="60.73147" lon="17.17575">
        <ele>23.005815</ele>
        <time>2020-08-30T01:15:26.162Z</time>
      </trkpt>
      <trkpt lat="60.73092" lon="17.17473">
        <ele>24.123604</ele>
        <time>2020-08-30T01:15:43.280Z</time>
      </trkpt>
      <trkpt lat="60.73075" lon="17.17443">
        <ele>24.463257</ele>
        <time>2020-08-30T01:15:48.429Z</time>
      </trkpt>
      <trkpt lat="60.73051" lon="17.17403">
        <ele>24.922562</ele>
        <time>2020-08-30T01:15:55.355Z</time>
      </trkpt>
      <trkpt lat="60.73019" lon="17.17346">
        <ele>25.56975</ele>
        <time>2020-08-30T01:16:05.124Z</time>
      </trkpt>
      <trkpt lat="60.72952" lon="17.17246">
        <ele>26.276511</ele>
        <time>2020-08-30T01:16:23.182Z</time>
      </trkpt>
      <trkpt lat="60.72931" lon="17.17227">
        <ele>26.468842</ele>
        <time>2020-08-30T01:16:27.879Z</time>
      </trkpt>
      <trkpt lat="60.72918" lon="17.17216">
        <ele>26.589992</ele>
        <time>2020-08-30T01:16:30.836Z</time>
      </trkpt>
      <trkpt lat="60.729" lon="17.17194">
        <ele>26.762711</ele>
        <time>2020-08-30T01:16:34.831Z</time>
      </trkpt>
      <trkpt lat="60.72883" lon="17.17195">
        <ele>26.907752</ele>
        <time>2020-08-30T01:16:38.188Z</time>
      </trkpt>
      <trkpt lat="60.72877" lon="17.17191">
        <ele>26.960102</ele>
        <time>2020-08-30T01:16:39.388Z</time>
      </trkpt>
      <trkpt lat="60.72796" lon="17.17115">
        <ele>26.890838</ele>
        <time>2020-08-30T01:16:55.298Z</time>
      </trkpt>
      <trkpt lat="60.72738" lon="17.17058">
        <ele>26.688139</ele>
        <time>2020-08-30T01:17:06.110Z</time>
      </trkpt>
      <trkpt lat="60.72739" lon="17.17048">
        <ele>26.672553</ele>
        <time>2020-08-30T01:17:06.890Z</time>
      </trkpt>
      <trkpt lat="60.72739" lon="17.17035">
        <ele>26.653115</ele>
        <time>2020-08-30T01:17:07.840Z</time>
      </trkpt>
      <trkpt lat="60.7268" lon="17.1703">
        <ele>26.314057</ele>
        <time>2020-08-30T01:17:17.019Z</time>
      </trkpt>
      <trkpt lat="60.72647" lon="17.1703">
        <ele>25.994715</ele>
        <time>2020-08-30T01:17:22.162Z</time>
      </trkpt>
      <trkpt lat="60.72624" lon="17.17027">
        <ele>25.771374</ele>
        <time>2020-08-30T01:17:25.761Z</time>
      </trkpt>
      <trkpt lat="60.72602" lon="17.17022">
        <ele>25.56654</ele>
        <time>2020-08-30T01:17:29.060Z</time>
      </trkpt>
      <trkpt lat="60.72598" lon="17.17019">
        <ele>25.528036</ele>
        <time>2020-08-30T01:17:29.667Z</time>
      </trkpt>
      <trkpt lat="60.72595" lon="17.17015">
        <ele>25.491102</ele>
        <time>2020-08-30T01:17:30.262Z</time>
      </trkpt>
      <trkpt lat="60.72592" lon="17.17016">
        <ele>25.461185</ele>
        <time>2020-08-30T01:17:30.752Z</time>
      </trkpt>
      <trkpt lat="60.72589" lon="17.17018">
        <ele>25.428628</ele>
        <time>2020-08-30T01:17:31.292Z</time>
      </trkpt>
      <trkpt lat="60.72589" lon="17.1702">
        <ele>25.416472</ele>
        <time>2020-08-30T01:17:31.493Z</time>
      </trkpt>
      <trkpt lat="60.72583" lon="17.17023">
        <ele>25.362114</ele>
        <time>2020-08-30T01:17:32.362Z</time>
      </trkpt>
      <trkpt lat="60.72543" lon="17.17029">
        <ele>24.976833</ele>
        <time>2020-08-30T01:17:38.714Z</time>
      </trkpt>
      <trkpt lat="60.72504" lon="17.17037">
        <ele>24.632792</ele>
        <time>2020-08-30T01:17:44.862Z</time>
      </trkpt>
      <trkpt lat="60.72457" lon="17.17043">
        <ele>24.237846</ele>
        <time>2020-08-30T01:17:52.224Z</time>
      </trkpt>
      <trkpt lat="60.72444" lon="17.17046">
        <ele>24.126305</ele>
        <time>2020-08-30T01:17:54.332Z</time>
      </trkpt>
      <trkpt lat="60.72421" lon="17.17046">
        <ele>23.93138</ele>
        <time>2020-08-30T01:17:58.014Z</time>
      </trkpt>
      <trkpt lat="60.72362" lon="17.17042">
        <ele>23.433789</ele>
        <time>2020-08-30T01:18:07.405Z</time>
      </trkpt>
      <trkpt lat="60.72331" lon="17.17041">
        <ele>23.157318</ele>
        <time>2020-08-30T01:18:12.226Z</time>
      </trkpt>
      <trkpt lat="60.7227" lon="17.17046">
        <ele>22.577902</ele>
        <time>2020-08-30T01:18:21.703Z</time>
      </trkpt>
      <trkpt lat="60.72215" lon="17.17057">
        <ele>22.054144</ele>
        <time>2020-08-30T01:18:30.311Z</time>
      </trkpt>
      <trkpt lat="60.72208" lon="17.17058">
        <ele>21.986677</ele>
        <time>2020-08-30T01:18:31.398Z</time>
      </trkpt>
      <trkpt lat="60.72196" lon="17.1706">
        <ele>21.874524</ele>
        <time>2020-08-30T01:18:33.181Z</time>
      </trkpt>
      <trkpt lat="60.72181" lon="17.17063">
        <ele>21.731762</ele>
        <time>2020-08-30T01:18:35.580Z</time>
      </trkpt>
      <trkpt lat="60.72177" lon="17.17061">
        <ele>21.693303</ele>
        <time>2020-08-30T01:18:36.198Z</time>
      </trkpt>
      <trkpt lat="60.72161" lon="17.1706">
        <ele>21.562559</ele>
        <time>2020-08-30T01:18:38.635Z</time>
      </trkpt>
      <trkpt lat="60.72131" lon="17.17075">
        <ele>21.348096</ele>
        <time>2020-08-30T01:18:43.548Z</time>
      </trkpt>
      <trkpt lat="60.72087" lon="17.17073">
        <ele>21.041965</ele>
        <time>2020-08-30T01:18:50.537Z</time>
      </trkpt>
      <trkpt lat="60.72016" lon="17.1706">
        <ele>20.552662</ele>
        <time>2020-08-30T01:19:02.021Z</time>
      </trkpt>
      <trkpt lat="60.71956" lon="17.17033">
        <ele>20.310004</ele>
        <time>2020-08-30T01:19:12.373Z</time>
      </trkpt>
      <trkpt lat="60.71881" lon="17.16983">
        <ele>20.16367</ele>
        <time>2020-08-30T01:19:25.949Z</time>
      </trkpt>
      <trkpt lat="60.71808" lon="17.16888">
        <ele>20.067184</ele>
        <time>2020-08-30T01:19:41.191Z</time>
      </trkpt>
      <trkpt lat="60.71802" lon="17.16863">
        <ele>20.084235</ele>
        <time>2020-08-30T01:19:43.659Z</time>
      </trkpt>
      <trkpt lat="60.71777" lon="17.16831">
        <ele>20.119775</ele>
        <time>2020-08-30T01:19:48.805Z</time>
      </trkpt>
      <trkpt lat="60.71687" lon="17.16749">
        <ele>20.240122</ele>
        <time>2020-08-30T01:20:06.570Z</time>
      </trkpt>
      <trkpt lat="60.71656" lon="17.1672">
        <ele>20.463526</ele>
        <time>2020-08-30T01:20:13.188Z</time>
      </trkpt>
      <trkpt lat="60.71639" lon="17.16698">
        <ele>20.711936</ele>
        <time>2020-08-30T01:20:17.381Z</time>
      </trkpt>
      <trkpt lat="60.71635" lon="17.16695">
        <ele>20.760782</ele>
        <time>2020-08-30T01:20:18.152Z</time>
      </trkpt>
      <trkpt lat="60.71624" lon="17.16689">
        <ele>20.901215</ele>
        <time>2020-08-30T01:20:20.439Z</time>
      </trkpt>
      <trkpt lat="60.71589" lon="17.16666">
        <ele>21.339938</ele>
        <time>2020-08-30T01:20:27.962Z</time>
      </trkpt>
      <trkpt lat="60.71582" lon="17.16651">
        <ele>21.471125</ele>
        <time>2020-08-30T01:20:30.513Z</time>
      </trkpt>
      <trkpt lat="60.7151" lon="17.166">
        <ele>22.39844</ele>
        <time>2020-08-30T01:20:48.356Z</time>
      </trkpt>
      <trkpt lat="60.71456" lon="17.16586">
        <ele>23.236387</ele>
        <time>2020-08-30T01:21:01.365Z</time>
      </trkpt>
      <trkpt lat="60.71376" lon="17.16564">
        <ele>24.518387</ele>
        <time>2020-08-30T01:21:21.096Z</time>
      </trkpt>
      <trkpt lat="60.71307" lon="17.16538">
        <ele>25.085562</ele>
        <time>2020-08-30T01:21:35.817Z</time>
      </trkpt>
      <trkpt lat="60.71268" lon="17.1652">
        <ele>24.708601</ele>
        <time>2020-08-30T01:21:42.705Z</time>
      </trkpt>
      <trkpt lat="60.71235" lon="17.16506">
        <ele>24.387175</ele>
        <time>2020-08-30T01:21:47.960Z</time>
      </trkpt>
      <trkpt lat="60.71227" lon="17.16498">
        <ele>24.30353</ele>
        <time>2020-08-30T01:21:49.233Z</time>
      </trkpt>
      <trkpt lat="60.71204" lon="17.16485">
        <ele>24.072701</ele>
        <time>2020-08-30T01:21:52.734Z</time>
      </trkpt>
      <trkpt lat="60.71175" lon="17.1647">
        <ele>23.790723</ele>
        <time>2020-08-30T01:21:56.860Z</time>
      </trkpt>
      <trkpt lat="60.71047" lon="17.16366">
        <ele>21.101496</ele>
        <time>2020-08-30T01:22:15.741Z</time>
      </trkpt>
      <trkpt lat="60.7092" lon="17.16273">
        <ele>18.767027</ele>
        <time>2020-08-30T01:22:35.182Z</time>
      </trkpt>
      <trkpt lat="60.70905" lon="17.16263">
        <ele>18.554481</ele>
        <time>2020-08-30T01:22:37.571Z</time>
      </trkpt>
      <trkpt lat="60.70864" lon="17.16233">
        <ele>17.969158</ele>
        <time>2020-08-30T01:22:44.192Z</time>
      </trkpt>
      <trkpt lat="60.70854" lon="17.16229">
        <ele>17.821071</ele>
        <time>2020-08-30T01:22:45.894Z</time>
      </trkpt>
      <trkpt lat="60.70794" lon="17.1618">
        <ele>17.032407</ele>
        <time>2020-08-30T01:22:55.854Z</time>
      </trkpt>
      <trkpt lat="60.70775" lon="17.16165">
        <ele>16.833184</ele>
        <time>2020-08-30T01:22:58.896Z</time>
      </trkpt>
      <trkpt lat="60.70763" lon="17.16148">
        <ele>16.68133</ele>
        <time>2020-08-30T01:23:01.191Z</time>
      </trkpt>
      <trkpt lat="60.70737" lon="17.16127">
        <ele>16.401145</ele>
        <time>2020-08-30T01:23:05.493Z</time>
      </trkpt>
      <trkpt lat="60.70735" lon="17.16125">
        <ele>16.378963</ele>
        <time>2020-08-30T01:23:05.805Z</time>
      </trkpt>
      <trkpt lat="60.70718" lon="17.16122">
        <ele>16.204571</ele>
        <time>2020-08-30T01:23:08.510Z</time>
      </trkpt>
      <trkpt lat="60.70692" lon="17.16102">
        <ele>15.923108</ele>
        <time>2020-08-30T01:23:12.802Z</time>
      </trkpt>
      <trkpt lat="60.70548" lon="17.15993">
        <ele>14.31635</ele>
        <time>2020-08-30T01:23:36.546Z</time>
      </trkpt>
      <trkpt lat="60.70521" lon="17.15972">
        <ele>14.004531</ele>
        <time>2020-08-30T01:23:41.007Z</time>
      </trkpt>
      <trkpt lat="60.70485" lon="17.15944">
        <ele>13.594201</ele>
        <time>2020-08-30T01:23:46.867Z</time>
      </trkpt>
      <trkpt lat="60.7046" lon="17.15927">
        <ele>13.279832</ele>
        <time>2020-08-30T01:23:50.829Z</time>
      </trkpt>
      <trkpt lat="60.70393" lon="17.15878">
        <ele>12.431168</ele>
        <time>2020-08-30T01:24:01.404Z</time>
      </trkpt>
      <trkpt lat="60.70346" lon="17.15846">
        <ele>11.8221</ele>
        <time>2020-08-30T01:24:09.039Z</time>
      </trkpt>
      <trkpt lat="60.70337" lon="17.15841">
        <ele>11.719165</ele>
        <time>2020-08-30T01:24:10.290Z</time>
      </trkpt>
      <trkpt lat="60.70265" lon="17.15791">
        <ele>11.092265</ele>
        <time>2020-08-30T01:24:22.011Z</time>
      </trkpt>
      <trkpt lat="60.70258" lon="17.15783">
        <ele>11.039689</ele>
        <time>2020-08-30T01:24:23.410Z</time>
      </trkpt>
      <trkpt lat="60.70235" lon="17.15758">
        <ele>10.884488</ele>
        <time>2020-08-30T01:24:27.594Z</time>
      </trkpt>
      <trkpt lat="60.70201" lon="17.15701">
        <ele>10.626456</ele>
        <time>2020-08-30T01:24:34.631Z</time>
      </trkpt>
      <trkpt lat="60.70177" lon="17.15639">
        <ele>10.394028</ele>
        <time>2020-08-30T01:24:41.274Z</time>
      </trkpt>
      <trkpt lat="60.70143" lon="17.15552">
        <ele>10.290631</ele>
        <time>2020-08-30T01:24:50.771Z</time>
      </trkpt>
      <trkpt lat="60.7013" lon="17.15519">
        <ele>10.283378</ele>
        <time>2020-08-30T01:24:54.478Z</time>
      </trkpt>
      <trkpt lat="60.70127" lon="17.1551">
        <ele>10.281535</ele>
        <time>2020-08-30T01:24:55.417Z</time>
      </trkpt>
      <trkpt lat="60.70123" lon="17.15501">
        <ele>10.279474</ele>
        <time>2020-08-30T01:24:56.465Z</time>
      </trkpt>
      <trkpt lat="60.70117" lon="17.15484">
        <ele>10.275795</ele>
        <time>2020-08-30T01:24:58.343Z</time>
      </trkpt>
      <trkpt lat="60.7011" lon="17.15464">
        <ele>10.271564</ele>
        <time>2020-08-30T01:25:00.553Z</time>
      </trkpt>
      <trkpt lat="60.70108" lon="17.15455">
        <ele>10.269867</ele>
        <time>2020-08-30T01:25:01.414Z</time>
      </trkpt>
      <trkpt lat="60.70101" lon="17.1543">
        <ele>10.264955</ele>
        <time>2020-08-30T01:25:03.933Z</time>
      </trkpt>
      <trkpt lat="60.70096" lon="17.15416">
        <ele>10.26198</ele>
        <time>2020-08-30T01:25:05.442Z</time>
      </trkpt>
      <trkpt lat="60.7009" lon="17.15401">
        <ele>10.258684</ele>
        <time>2020-08-30T01:25:07.187Z</time>
      </trkpt>
      <trkpt lat="60.70079" lon="17.15382">
        <ele>10.253466</ele>
        <time>2020-08-30T01:25:09.867Z</time>
      </trkpt>
      <trkpt lat="60.70053" lon="17.15352">
        <ele>10.243097</ele>
        <time>2020-08-30T01:25:15.213Z</time>
      </trkpt>
      <trkpt lat="60.7004" lon="17.15349">
        <ele>10.244333</ele>
        <time>2020-08-30T01:25:17.586Z</time>
      </trkpt>
      <trkpt lat="60.70027" lon="17.15345">
        <ele>10.248515</ele>
        <time>2020-08-30T01:25:19.963Z</time>
      </trkpt>
      <trkpt lat="60.7002" lon="17.15349">
        <ele>10.250826</ele>
        <time>2020-08-30T01:25:21.230Z</time>
      </trkpt>
      <trkpt lat="60.6993" lon="17.15365">
        <ele>10.279657</ele>
        <time>2020-08-30T01:25:37.415Z</time>
      </trkpt>
      <trkpt lat="60.69902" lon="17.15367">
        <ele>10.28888</ele>
        <time>2020-08-30T01:25:42.578Z</time>
      </trkpt>
      <trkpt lat="60.69809" lon="17.15365">
        <ele>10.134872</ele>
        <time>2020-08-30T01:25:59.060Z</time>
      </trkpt>
      <trkpt lat="60.6979" lon="17.15363">
        <ele>10.082585</ele>
        <time>2020-08-30T01:26:02.346Z</time>
      </trkpt>
      <trkpt lat="60.69744" lon="17.15349">
        <ele>9.952617</ele>
        <time>2020-08-30T01:26:10.453Z</time>
      </trkpt>
      <trkpt lat="60.69702" lon="17.1533">
        <ele>9.834571</ele>
        <time>2020-08-30T01:26:17.655Z</time>
      </trkpt>
      <trkpt lat="60.69429" lon="17.1516">
        <ele>7.490387</ele>
        <time>2020-08-30T01:27:02.077Z</time>
      </trkpt>
      <trkpt lat="60.69367" lon="17.15117">
        <ele>7.002068</ele>
        <time>2020-08-30T01:27:12.552Z</time>
      </trkpt>
      <trkpt lat="60.69346" lon="17.15103">
        <ele>6.850347</ele>
        <time>2020-08-30T01:27:16.232Z</time>
      </trkpt>
      <trkpt lat="60.69329" lon="17.15072">
        <ele>6.799293</ele>
        <time>2020-08-30T01:27:20.129Z</time>
      </trkpt>
      <trkpt lat="60.69311" lon="17.15003">
        <ele>6.714184</ele>
        <time>2020-08-30T01:27:26.513Z</time>
      </trkpt>
      <trkpt lat="60.6931" lon="17.14934">
        <ele>6.638941</ele>
        <time>2020-08-30T01:27:32.239Z</time>
      </trkpt>
      <trkpt lat="60.69318" lon="17.14901">
        <ele>6.59894</ele>
        <time>2020-08-30T01:27:35.344Z</time>
      </trkpt>
      <trkpt lat="60.69326" lon="17.1489">
        <ele>6.577199</ele>
        <time>2020-08-30T01:27:37.037Z</time>
      </trkpt>
      <trkpt lat="60.69327" lon="17.14882">
        <ele>6.567768</ele>
        <time>2020-08-30T01:27:37.813Z</time>
      </trkpt>
      <trkpt lat="60.69329" lon="17.1487">
        <ele>6.553631</ele>
        <time>2020-08-30T01:27:38.981Z</time>
      </trkpt>
      <trkpt lat="60.6933" lon="17.14861">
        <ele>6.543636</ele>
        <time>2020-08-30T01:27:39.808Z</time>
      </trkpt>
      <trkpt lat="60.69325" lon="17.14849">
        <ele>6.52631</ele>
        <time>2020-08-30T01:27:41.196Z</time>
      </trkpt>
      <trkpt lat="60.69322" lon="17.14828">
        <ele>6.503173</ele>
        <time>2020-08-30T01:27:42.983Z</time>
      </trkpt>
      <trkpt lat="60.69317" lon="17.14822">
        <ele>6.488363</ele>
        <time>2020-08-30T01:27:44.178Z</time>
      </trkpt>
      <trkpt lat="60.69308" lon="17.14811">
        <ele>6.465472</ele>
        <time>2020-08-30T01:27:46.023Z</time>
      </trkpt>
      <trkpt lat="60.693" lon="17.14798">
        <ele>6.470593</ele>
        <time>2020-08-30T01:27:47.749Z</time>
      </trkpt>
      <trkpt lat="60.69295" lon="17.14818">
        <ele>6.511744</ele>
        <time>2020-08-30T01:27:49.677Z</time>
      </trkpt>
      <trkpt lat="60.69225" lon="17.14829">
        <ele>6.770931</ele>
        <time>2020-08-30T01:28:02.514Z</time>
      </trkpt>
      <trkpt lat="60.69203" lon="17.14853">
        <ele>6.863678</ele>
        <time>2020-08-30T01:28:07.318Z</time>
      </trkpt>
      <trkpt lat="60.69175" lon="17.14885">
        <ele>6.984482</ele>
        <time>2020-08-30T01:28:13.446Z</time>
      </trkpt>
      <trkpt lat="60.69166" lon="17.14883">
        <ele>7.019057</ele>
        <time>2020-08-30T01:28:15.248Z</time>
      </trkpt>
      <trkpt lat="60.69152" lon="17.14853">
        <ele>7.095836</ele>
        <time>2020-08-30T01:28:19.265Z</time>
      </trkpt>
      <trkpt lat="60.69138" lon="17.14822">
        <ele>7.253848</ele>
        <time>2020-08-30T01:28:23.501Z</time>
      </trkpt>
      <trkpt lat="60.69018" lon="17.14569">
        <ele>8.968668</ele>
        <time>2020-08-30T01:29:00.562Z</time>
      </trkpt>
      <trkpt lat="60.68823" lon="17.14179">
        <ele>10.516044</ele>
        <time>2020-08-30T01:29:54.793Z</time>
      </trkpt>
      <trkpt lat="60.68761" lon="17.14068">
        <ele>10.784858</ele>
        <time>2020-08-30T01:30:09.803Z</time>
      </trkpt>
      <trkpt lat="60.68655" lon="17.13902">
        <ele>10.326719</ele>
        <time>2020-08-30T01:30:32.163Z</time>
      </trkpt>
      <trkpt lat="60.68622" lon="17.13827">
        <ele>10.150019</ele>
        <time>2020-08-30T01:30:40.305Z</time>
      </trkpt>
      <trkpt lat="60.68618" lon="17.13832">
        <ele>10.125174</ele>
        <time>2020-08-30T01:30:41.097Z</time>
      </trkpt>
      <trkpt lat="60.68609" lon="17.13847">
        <ele>10.06548</ele>
        <time>2020-08-30T01:30:42.993Z</time>
      </trkpt>
      <trkpt lat="60.68598" lon="17.13862">
        <ele>10.000316</ele>
        <time>2020-08-30T01:30:45.058Z</time>
      </trkpt>
      <trkpt lat="60.6858" lon="17.13864">
        <ele>9.907554</ele>
        <time>2020-08-30T01:30:48.062Z</time>
      </trkpt>
      <trkpt lat="60.68539" lon="17.13841">
        <ele>9.688584</ele>
        <time>2020-08-30T01:30:55.056Z</time>
      </trkpt>
      <trkpt lat="60.68531" lon="17.13837">
        <ele>9.648098</ele>
        <time>2020-08-30T01:30:56.341Z</time>
      </trkpt>
      <trkpt lat="60.68521" lon="17.13833">
        <ele>9.592132</ele>
        <time>2020-08-30T01:30:58.168Z</time>
      </trkpt>
      <trkpt lat="60.6848" lon="17.13811">
        <ele>9.377523</ele>
        <time>2020-08-30T01:31:05.034Z</time>
      </trkpt>
      <trkpt lat="60.684" lon="17.13769">
        <ele>9.078014</ele>
        <time>2020-08-30T01:31:18.744Z</time>
      </trkpt>
      <trkpt lat="60.68349" lon="17.13742">
        <ele>8.918587</ele>
        <time>2020-08-30T01:31:27.868Z</time>
      </trkpt>
      <trkpt lat="60.68334" lon="17.13739">
        <ele>8.874714</ele>
        <time>2020-08-30T01:31:30.385Z</time>
      </trkpt>
      <trkpt lat="60.68321" lon="17.13733">
        <ele>8.834328</ele>
        <time>2020-08-30T01:31:32.699Z</time>
      </trkpt>
      <trkpt lat="60.68285" lon="17.13736">
        <ele>8.726047</ele>
        <time>2020-08-30T01:31:38.924Z</time>
      </trkpt>
      <trkpt lat="60.6826" lon="17.13736">
        <ele>8.664044</ele>
        <time>2020-08-30T01:31:43.136Z</time>
      </trkpt>
      <trkpt lat="60.68232" lon="17.13734">
        <ele>8.595617</ele>
        <time>2020-08-30T01:31:48.013Z</time>
      </trkpt>
      <trkpt lat="60.68115" lon="17.13732">
        <ele>8.313656</ele>
        <time>2020-08-30T01:32:08.044Z</time>
      </trkpt>
      <trkpt lat="60.68076" lon="17.13776">
        <ele>8.183053</ele>
        <time>2020-08-30T01:32:15.639Z</time>
      </trkpt>
      <trkpt lat="60.68064" lon="17.13789">
        <ele>8.139192</ele>
        <time>2020-08-30T01:32:17.899Z</time>
      </trkpt>
      <trkpt lat="60.6806" lon="17.13784">
        <ele>8.124058</ele>
        <time>2020-08-30T01:32:18.717Z</time>
      </trkpt>
      <trkpt lat="60.68055" lon="17.13778">
        <ele>8.105905</ele>
        <time>2020-08-30T01:32:19.686Z</time>
      </trkpt>
      <trkpt lat="60.6805" lon="17.13781">
        <ele>8.086493</ele>
        <time>2020-08-30T01:32:20.707Z</time>
      </trkpt>
      <trkpt lat="60.68044" lon="17.13784">
        <ele>8.066451</ele>
        <time>2020-08-30T01:32:21.750Z</time>
      </trkpt>
      <trkpt lat="60.68037" lon="17.13788">
        <ele>8.044939</ele>
        <time>2020-08-30T01:32:22.857Z</time>
      </trkpt>
      <trkpt lat="60.68035" lon="17.13793">
        <ele>8.03426</ele>
        <time>2020-08-30T01:32:23.404Z</time>
      </trkpt>
      <trkpt lat="60.68031" lon="17.1381">
        <ele>8.003861</ele>
        <time>2020-08-30T01:32:25.000Z</time>
      </trkpt>
      <trkpt lat="60.68029" lon="17.13831">
        <ele>7.970662</ele>
        <time>2020-08-30T01:32:26.742Z</time>
      </trkpt>
      <trkpt lat="60.6803" lon="17.13847">
        <ele>7.944534</ele>
        <time>2020-08-30T01:32:28.074Z</time>
      </trkpt>
      <trkpt lat="60.68006" lon="17.13851">
        <ele>7.867428</ele>
        <time>2020-08-30T01:32:32.038Z</time>
      </trkpt>
      <trkpt lat="60.67977" lon="17.13865">
        <ele>7.77043</ele>
        <time>2020-08-30T01:32:36.995Z</time>
      </trkpt>
      <trkpt lat="60.67973" lon="17.13869">
        <ele>7.755613</ele>
        <time>2020-08-30T01:32:37.784Z</time>
      </trkpt>
      <trkpt lat="60.67908" lon="17.1394">
        <ele>7.381102</ele>
        <time>2020-08-30T01:32:50.060Z</time>
      </trkpt>
      <trkpt lat="60.67897" lon="17.13951">
        <ele>7.307775</ele>
        <time>2020-08-30T01:32:52.169Z</time>
      </trkpt>
      <trkpt lat="60.67888" lon="17.13961">
        <ele>7.250883</ele>
        <time>2020-08-30T01:32:53.787Z</time>
      </trkpt>
      <trkpt lat="60.6782" lon="17.14033">
        <ele>6.808678</ele>
        <time>2020-08-30T01:33:06.294Z</time>
      </trkpt>
      <trkpt lat="60.67809" lon="17.14045">
        <ele>6.739243</ele>
        <time>2020-08-30T01:33:08.250Z</time>
      </trkpt>
      <trkpt lat="60.67734" lon="17.14133">
        <ele>6.083084</ele>
        <time>2020-08-30T01:33:22.023Z</time>
      </trkpt>
      <trkpt lat="60.67729" lon="17.14138">
        <ele>6.038192</ele>
        <time>2020-08-30T01:33:22.923Z</time>
      </trkpt>
      <trkpt lat="60.67719" lon="17.14148">
        <ele>5.947845</ele>
        <time>2020-08-30T01:33:24.729Z</time>
      </trkpt>
      <trkpt lat="60.67714" lon="17.14153">
        <ele>5.907376</ele>
        <time>2020-08-30T01:33:25.538Z</time>
      </trkpt>
      <trkpt lat="60.67642" lon="17.14229">
        <ele>5.260378</ele>
        <time>2020-08-30T01:33:38.309Z</time>
      </trkpt>
      <trkpt lat="60.67632" lon="17.14238">
        <ele>5.203216</ele>
        <time>2020-08-30T01:33:39.925Z</time>
      </trkpt>
      <trkpt lat="60.67561" lon="17.14312">
        <ele>4.839977</ele>
        <time>2020-08-30T01:33:52.664Z</time>
      </trkpt>
      <trkpt lat="60.67555" lon="17.14319">
        <ele>4.80677</ele>
        <time>2020-08-30T01:33:53.843Z</time>
      </trkpt>
      <trkpt lat="60.67549" lon="17.14324">
        <ele>4.775696</ele>
        <time>2020-08-30T01:33:54.952Z</time>
      </trkpt>
      <trkpt lat="60.67541" lon="17.14329">
        <ele>4.740148</ele>
        <time>2020-08-30T01:33:56.222Z</time>
      </trkpt>
      <trkpt lat="60.67534" lon="17.14336">
        <ele>4.705206</ele>
        <time>2020-08-30T01:33:57.481Z</time>
      </trkpt>
      <trkpt lat="60.67509" lon="17.14364">
        <ele>4.571534</ele>
        <time>2020-08-30T01:34:02.359Z</time>
      </trkpt>
      <trkpt lat="60.67475" lon="17.14401">
        <ele>4.462189</ele>
        <time>2020-08-30T01:34:09.092Z</time>
      </trkpt>
      <trkpt lat="60.67398" lon="17.1448">
        <ele>5.392426</ele>
        <time>2020-08-30T01:34:26.372Z</time>
      </trkpt>
      <trkpt lat="60.67393" lon="17.14485">
        <ele>5.448974</ele>
        <time>2020-08-30T01:34:27.479Z</time>
      </trkpt>
      <trkpt lat="60.6737" lon="17.1451">
        <ele>5.732584</ele>
        <time>2020-08-30T01:34:33.267Z</time>
      </trkpt>
      <trkpt lat="60.67368" lon="17.14502">
        <ele>5.7787</ele>
        <time>2020-08-30T01:34:34.217Z</time>
      </trkpt>
      <trkpt lat="60.67365" lon="17.14491">
        <ele>5.8419</ele>
        <time>2020-08-30T01:34:35.743Z</time>
      </trkpt>
      <trkpt lat="60.67353" lon="17.14503">
        <ele>5.985332</ele>
        <time>2020-08-30T01:34:38.902Z</time>
      </trkpt>
      <trkpt lat="60.67346" lon="17.14509">
        <ele>6.06404</ele>
        <time>2020-08-30T01:34:40.574Z</time>
      </trkpt>
      <trkpt lat="60.67346" lon="17.14511">
        <ele>6.078966</ele>
        <time>2020-08-30T01:34:40.888Z</time>
      </trkpt>
      <trkpt lat="60.67344" lon="17.14514">
        <ele>6.103095</ele>
        <time>2020-08-30T01:34:41.396Z</time>
      </trkpt>
      <trkpt lat="60.6732" lon="17.14541">
        <ele>6.423767</ele>
        <time>2020-08-30T01:34:47.951Z</time>
      </trkpt>
      <trkpt lat="60.6731" lon="17.14552">
        <ele>6.652486</ele>
        <time>2020-08-30T01:34:50.699Z</time>
      </trkpt>
      <trkpt lat="60.67241" lon="17.14624">
        <ele>8.15159</ele>
        <time>2020-08-30T01:35:09.631Z</time>
      </trkpt>
      <trkpt lat="60.67236" lon="17.14625">
        <ele>8.253384</ele>
        <time>2020-08-30T01:35:11.238Z</time>
      </trkpt>
      <trkpt lat="60.67224" lon="17.14637">
        <ele>8.508973</ele>
        <time>2020-08-30T01:35:14.417Z</time>
      </trkpt>
      <trkpt lat="60.67219" lon="17.14642">
        <ele>8.619452</ele>
        <time>2020-08-30T01:35:15.780Z</time>
      </trkpt>
      <trkpt lat="60.67216" lon="17.1465">
        <ele>8.711233</ele>
        <time>2020-08-30T01:35:16.932Z</time>
      </trkpt>
      <trkpt lat="60.6713" lon="17.1474">
        <ele>10.275415</ele>
        <time>2020-08-30T01:35:39.670Z</time>
      </trkpt>
      <trkpt lat="60.67115" lon="17.14756">
        <ele>10.457483</ele>
        <time>2020-08-30T01:35:43.208Z</time>
      </trkpt>
      <trkpt lat="60.67089" lon="17.14783">
        <ele>10.771147</ele>
        <time>2020-08-30T01:35:49.543Z</time>
      </trkpt>
      <trkpt lat="60.67075" lon="17.14798">
        <ele>10.940172</ele>
        <time>2020-08-30T01:35:52.688Z</time>
      </trkpt>
      <trkpt lat="60.6704" lon="17.14833">
        <ele>11.362791</ele>
        <time>2020-08-30T01:36:00.563Z</time>
      </trkpt>
      <trkpt lat="60.67036" lon="17.14833">
        <ele>11.401919</ele>
        <time>2020-08-30T01:36:01.310Z</time>
      </trkpt>
      <trkpt lat="60.6703" lon="17.1484">
        <ele>11.480403</ele>
        <time>2020-08-30T01:36:02.776Z</time>
      </trkpt>
      <trkpt lat="60.6702" lon="17.14851">
        <ele>11.60695</ele>
        <time>2020-08-30T01:36:05.168Z</time>
      </trkpt>
      <trkpt lat="60.67018" lon="17.14857">
        <ele>11.647615</ele>
        <time>2020-08-30T01:36:05.915Z</time>
      </trkpt>
      <trkpt lat="60.67012" lon="17.14869">
        <ele>11.73344</ele>
        <time>2020-08-30T01:36:07.498Z</time>
      </trkpt>
      <trkpt lat="60.67004" lon="17.14878">
        <ele>11.824496</ele>
        <time>2020-08-30T01:36:09.415Z</time>
      </trkpt>
      <trkpt lat="60.6698" lon="17.14901">
        <ele>11.998093</ele>
        <time>2020-08-30T01:36:14.707Z</time>
      </trkpt>
      <trkpt lat="60.66973" lon="17.14908">
        <ele>12.050123</ele>
        <time>2020-08-30T01:36:16.328Z</time>
      </trkpt>
      <trkpt lat="60.66965" lon="17.14916">
        <ele>12.111871</ele>
        <time>2020-08-30T01:36:18.180Z</time>
      </trkpt>
      <trkpt lat="60.66865" lon="17.1502">
        <ele>12.855045</ele>
        <time>2020-08-30T01:36:40.434Z</time>
      </trkpt>
      <trkpt lat="60.66858" lon="17.15028">
        <ele>12.907873</ele>
        <time>2020-08-30T01:36:42.047Z</time>
      </trkpt>
      <trkpt lat="60.66845" lon="17.1504">
        <ele>12.998795</ele>
        <time>2020-08-30T01:36:44.845Z</time>
      </trkpt>
      <trkpt lat="60.66831" lon="17.15055">
        <ele>13.082351</ele>
        <time>2020-08-30T01:36:48.066Z</time>
      </trkpt>
      <trkpt lat="60.66814" lon="17.15074">
        <ele>13.183869</ele>
        <time>2020-08-30T01:36:51.967Z</time>
      </trkpt>
      <trkpt lat="60.66754" lon="17.15129">
        <ele>13.525057</ele>
        <time>2020-08-30T01:37:04.728Z</time>
      </trkpt>
      <trkpt lat="60.66747" lon="17.15125">
        <ele>13.562835</ele>
        <time>2020-08-30T01:37:06.149Z</time>
      </trkpt>
      <trkpt lat="60.66742" lon="17.1513">
        <ele>13.588299</ele>
        <time>2020-08-30T01:37:07.117Z</time>
      </trkpt>
      <trkpt lat="60.66734" lon="17.15138">
        <ele>13.636689</ele>
        <time>2020-08-30T01:37:08.892Z</time>
      </trkpt>
      <trkpt lat="60.66726" lon="17.15149">
        <ele>13.686693</ele>
        <time>2020-08-30T01:37:10.723Z</time>
      </trkpt>
      <trkpt lat="60.66724" lon="17.15152">
        <ele>13.699592</ele>
        <time>2020-08-30T01:37:11.205Z</time>
      </trkpt>
      <trkpt lat="60.6671" lon="17.15171">
        <ele>13.78639</ele>
        <time>2020-08-30T01:37:14.493Z</time>
      </trkpt>
      <trkpt lat="60.66674" lon="17.15203">
        <ele>13.968341</ele>
        <time>2020-08-30T01:37:22.088Z</time>
      </trkpt>
      <trkpt lat="60.66628" lon="17.15241">
        <ele>14.120836</ele>
        <time>2020-08-30T01:37:31.464Z</time>
      </trkpt>
      <trkpt lat="60.66596" lon="17.15267">
        <ele>14.227595</ele>
        <time>2020-08-30T01:37:38.064Z</time>
      </trkpt>
      <trkpt lat="60.66587" lon="17.15275">
        <ele>14.258426</ele>
        <time>2020-08-30T01:37:39.982Z</time>
      </trkpt>
      <trkpt lat="60.66566" lon="17.15294">
        <ele>14.329294</ele>
        <time>2020-08-30T01:37:44.229Z</time>
      </trkpt>
      <trkpt lat="60.66555" lon="17.15304">
        <ele>14.365001</ele>
        <time>2020-08-30T01:37:46.394Z</time>
      </trkpt>
      <trkpt lat="60.66517" lon="17.15335">
        <ele>14.487261</ele>
        <time>2020-08-30T01:37:54.003Z</time>
      </trkpt>
      <trkpt lat="60.66495" lon="17.15353">
        <ele>14.453713</ele>
        <time>2020-08-30T01:37:58.315Z</time>
      </trkpt>
      <trkpt lat="60.6649" lon="17.15357">
        <ele>14.446716</ele>
        <time>2020-08-30T01:37:59.264Z</time>
      </trkpt>
      <trkpt lat="60.6648" lon="17.15361">
        <ele>14.431598</ele>
        <time>2020-08-30T01:38:01.213Z</time>
      </trkpt>
      <trkpt lat="60.66473" lon="17.15367">
        <ele>14.42154</ele>
        <time>2020-08-30T01:38:02.545Z</time>
      </trkpt>
      <trkpt lat="60.66467" lon="17.15374">
        <ele>14.410864</ele>
        <time>2020-08-30T01:38:03.871Z</time>
      </trkpt>
      <trkpt lat="60.66462" lon="17.15391">
        <ele>14.397328</ele>
        <time>2020-08-30T01:38:05.589Z</time>
      </trkpt>
      <trkpt lat="60.66448" lon="17.15408">
        <ele>14.373734</ele>
        <time>2020-08-30T01:38:08.527Z</time>
      </trkpt>
      <trkpt lat="60.6638" lon="17.15475">
        <ele>14.267743</ele>
        <time>2020-08-30T01:38:21.324Z</time>
      </trkpt>
      <trkpt lat="60.66338" lon="17.15514">
        <ele>14.054206</ele>
        <time>2020-08-30T01:38:28.950Z</time>
      </trkpt>
      <trkpt lat="60.6632" lon="17.15534">
        <ele>13.894</ele>
        <time>2020-08-30T01:38:32.282Z</time>
      </trkpt>
      <trkpt lat="60.66314" lon="17.15542">
        <ele>13.835386</ele>
        <time>2020-08-30T01:38:33.509Z</time>
      </trkpt>
      <trkpt lat="60.66283" lon="17.15582">
        <ele>13.550627</ele>
        <time>2020-08-30T01:38:39.312Z</time>
      </trkpt>
      <trkpt lat="60.66207" lon="17.15681">
        <ele>12.837565</ele>
        <time>2020-08-30T01:38:53.515Z</time>
      </trkpt>
      <trkpt lat="60.66174" lon="17.15723">
        <ele>12.444217</ele>
        <time>2020-08-30T01:38:59.456Z</time>
      </trkpt>
      <trkpt lat="60.66169" lon="17.15723">
        <ele>12.390701</ele>
        <time>2020-08-30T01:39:00.198Z</time>
      </trkpt>
      <trkpt lat="60.66167" lon="17.15734">
        <ele>12.330948</ele>
        <time>2020-08-30T01:39:01.101Z</time>
      </trkpt>
      <trkpt lat="60.66157" lon="17.15763">
        <ele>12.149656</ele>
        <time>2020-08-30T01:39:03.802Z</time>
      </trkpt>
      <trkpt lat="60.66145" lon="17.15775">
        <ele>12.016363</ele>
        <time>2020-08-30T01:39:05.738Z</time>
      </trkpt>
      <trkpt lat="60.66146" lon="17.15788">
        <ele>11.951342</ele>
        <time>2020-08-30T01:39:06.731Z</time>
      </trkpt>
      <trkpt lat="60.66145" lon="17.15801">
        <ele>11.887321</ele>
        <time>2020-08-30T01:39:07.695Z</time>
      </trkpt>
      <trkpt lat="60.6611" lon="17.15902">
        <ele>11.2609</ele>
        <time>2020-08-30T01:39:17.034Z</time>
      </trkpt>
      <trkpt lat="60.66098" lon="17.15936">
        <ele>11.050539</ele>
        <time>2020-08-30T01:39:20.269Z</time>
      </trkpt>
      <trkpt lat="60.66094" lon="17.15947">
        <ele>10.981892</ele>
        <time>2020-08-30T01:39:21.344Z</time>
      </trkpt>
      <trkpt lat="60.66092" lon="17.15954">
        <ele>10.951665</ele>
        <time>2020-08-30T01:39:21.964Z</time>
      </trkpt>
      <trkpt lat="60.66083" lon="17.15978">
        <ele>10.856443</ele>
        <time>2020-08-30T01:39:24.269Z</time>
      </trkpt>
      <trkpt lat="60.66077" lon="17.15998">
        <ele>10.78548</ele>
        <time>2020-08-30T01:39:26.008Z</time>
      </trkpt>
      <trkpt lat="60.66057" lon="17.16056">
        <ele>10.559919</ele>
        <time>2020-08-30T01:39:31.629Z</time>
      </trkpt>
      <trkpt lat="60.66045" lon="17.16088">
        <ele>10.432139</ele>
        <time>2020-08-30T01:39:34.819Z</time>
      </trkpt>
      <trkpt lat="60.6602" lon="17.16153">
        <ele>10.167434</ele>
        <time>2020-08-30T01:39:41.461Z</time>
      </trkpt>
      <trkpt lat="60.66003" lon="17.16192">
        <ele>10.003887</ele>
        <time>2020-08-30T01:39:45.611Z</time>
      </trkpt>
      <trkpt lat="60.65986" lon="17.16223">
        <ele>9.856901</ele>
        <time>2020-08-30T01:39:49.314Z</time>
      </trkpt>
      <trkpt lat="60.65967" lon="17.16254">
        <ele>9.752417</ele>
        <time>2020-08-30T01:39:53.394Z</time>
      </trkpt>
      <trkpt lat="60.65945" lon="17.16291">
        <ele>9.654408</ele>
        <time>2020-08-30T01:39:58.214Z</time>
      </trkpt>
      <trkpt lat="60.65925" lon="17.16315">
        <ele>9.575325</ele>
        <time>2020-08-30T01:40:02.089Z</time>
      </trkpt>
      <trkpt lat="60.65908" lon="17.16335">
        <ele>9.508628</ele>
        <time>2020-08-30T01:40:05.415Z</time>
      </trkpt>
      <trkpt lat="60.65892" lon="17.16356">
        <ele>9.441066</ele>
        <time>2020-08-30T01:40:08.737Z</time>
      </trkpt>
      <trkpt lat="60.65878" lon="17.16361">
        <ele>9.393824</ele>
        <time>2020-08-30T01:40:11.107Z</time>
      </trkpt>
      <trkpt lat="60.65873" lon="17.16366">
        <ele>9.374754</ele>
        <time>2020-08-30T01:40:12.010Z</time>
      </trkpt>
      <trkpt lat="60.65867" lon="17.16372">
        <ele>9.350651</ele>
        <time>2020-08-30T01:40:13.204Z</time>
      </trkpt>
      <trkpt lat="60.65859" lon="17.16388">
        <ele>9.31217</ele>
        <time>2020-08-30T01:40:15.123Z</time>
      </trkpt>
      <trkpt lat="60.65847" lon="17.16408">
        <ele>9.259478</ele>
        <time>2020-08-30T01:40:17.733Z</time>
      </trkpt>
      <trkpt lat="60.65791" lon="17.16458">
        <ele>9.149035</ele>
        <time>2020-08-30T01:40:28.170Z</time>
      </trkpt>
      <trkpt lat="60.65774" lon="17.16432">
        <ele>9.12675</ele>
        <time>2020-08-30T01:40:31.695Z</time>
      </trkpt>
      <trkpt lat="60.65769" lon="17.16435">
        <ele>9.120392</ele>
        <time>2020-08-30T01:40:32.722Z</time>
      </trkpt>
      <trkpt lat="60.65757" lon="17.16442">
        <ele>9.107553</ele>
        <time>2020-08-30T01:40:34.811Z</time>
      </trkpt>
      <trkpt lat="60.65748" lon="17.16448">
        <ele>9.097305</ele>
        <time>2020-08-30T01:40:36.452Z</time>
      </trkpt>
      <trkpt lat="60.65744" lon="17.16454">
        <ele>9.091566</ele>
        <time>2020-08-30T01:40:37.384Z</time>
      </trkpt>
      <trkpt lat="60.65731" lon="17.16524">
        <ele>9.051447</ele>
        <time>2020-08-30T01:40:43.991Z</time>
      </trkpt>
      <trkpt lat="60.6571" lon="17.16567">
        <ele>9.019028</ele>
        <time>2020-08-30T01:40:49.280Z</time>
      </trkpt>
      <trkpt lat="60.65666" lon="17.16626">
        <ele>9.001673</ele>
        <time>2020-08-30T01:40:58.538Z</time>
      </trkpt>
      <trkpt lat="60.65649" lon="17.1665">
        <ele>9.002647</ele>
        <time>2020-08-30T01:41:02.165Z</time>
      </trkpt>
      <trkpt lat="60.65632" lon="17.16671">
        <ele>9.003583</ele>
        <time>2020-08-30T01:41:05.686Z</time>
      </trkpt>
      <trkpt lat="60.6561" lon="17.16701">
        <ele>9.004857</ele>
        <time>2020-08-30T01:41:10.463Z</time>
      </trkpt>
      <trkpt lat="60.65602" lon="17.16717">
        <ele>9.005378</ele>
        <time>2020-08-30T01:41:12.411Z</time>
      </trkpt>
      <trkpt lat="60.65563" lon="17.16783">
        <ele>9.007785</ele>
        <time>2020-08-30T01:41:21.411Z</time>
      </trkpt>
      <trkpt lat="60.65539" lon="17.16824">
        <ele>9.073641</ele>
        <time>2020-08-30T01:41:27.066Z</time>
      </trkpt>
      <trkpt lat="60.65523" lon="17.16845">
        <ele>9.157137</ele>
        <time>2020-08-30T01:41:30.558Z</time>
      </trkpt>
      <trkpt lat="60.65502" lon="17.16874">
        <ele>9.2664</ele>
        <time>2020-08-30T01:41:35.200Z</time>
      </trkpt>
      <trkpt lat="60.65478" lon="17.16911">
        <ele>9.39721</ele>
        <time>2020-08-30T01:41:40.814Z</time>
      </trkpt>
      <trkpt lat="60.65451" lon="17.16963">
        <ele>9.558071</ele>
        <time>2020-08-30T01:41:47.810Z</time>
      </trkpt>
      <trkpt lat="60.65443" lon="17.16982">
        <ele>9.61297</ele>
        <time>2020-08-30T01:41:50.688Z</time>
      </trkpt>
      <trkpt lat="60.65436" lon="17.17001">
        <ele>9.66342</ele>
        <time>2020-08-30T01:41:52.935Z</time>
      </trkpt>
      <trkpt lat="60.65426" lon="17.17041">
        <ele>9.757139</ele>
        <time>2020-08-30T01:41:57.559Z</time>
      </trkpt>
      <trkpt lat="60.65413" lon="17.17081">
        <ele>9.967906</ele>
        <time>2020-08-30T01:42:02.390Z</time>
      </trkpt>
      <trkpt lat="60.65368" lon="17.17177">
        <ele>10.682888</ele>
        <time>2020-08-30T01:42:16.410Z</time>
      </trkpt>
      <trkpt lat="60.6536" lon="17.17183">
        <ele>10.779213</ele>
        <time>2020-08-30T01:42:18.165Z</time>
      </trkpt>
      <trkpt lat="60.65355" lon="17.17192">
        <ele>10.846364</ele>
        <time>2020-08-30T01:42:19.640Z</time>
      </trkpt>
      <trkpt lat="60.65352" lon="17.17202">
        <ele>10.91344</ele>
        <time>2020-08-30T01:42:21.128Z</time>
      </trkpt>
      <trkpt lat="60.65351" lon="17.17216">
        <ele>10.990733</ele>
        <time>2020-08-30T01:42:22.620Z</time>
      </trkpt>
      <trkpt lat="60.6534" lon="17.17246">
        <ele>11.197299</ele>
        <time>2020-08-30T01:42:26.465Z</time>
      </trkpt>
      <trkpt lat="60.6533" lon="17.17275">
        <ele>11.385072</ele>
        <time>2020-08-30T01:42:30.439Z</time>
      </trkpt>
      <trkpt lat="60.65333" lon="17.1728">
        <ele>11.43386</ele>
        <time>2020-08-30T01:42:31.257Z</time>
      </trkpt>
      <trkpt lat="60.65338" lon="17.17286">
        <ele>11.494765</ele>
        <time>2020-08-30T01:42:32.485Z</time>
      </trkpt>
      <trkpt lat="60.65308" lon="17.17387">
        <ele>11.981087</ele>
        <time>2020-08-30T01:42:44.862Z</time>
      </trkpt>
      <trkpt lat="60.65261" lon="17.1755">
        <ele>12.585831</ele>
        <time>2020-08-30T01:43:03.457Z</time>
      </trkpt>
      <trkpt lat="60.65258" lon="17.1757">
        <ele>12.651336</ele>
        <time>2020-08-30T01:43:05.290Z</time>
      </trkpt>
      <trkpt lat="60.65255" lon="17.17596">
        <ele>12.737545</ele>
        <time>2020-08-30T01:43:07.781Z</time>
      </trkpt>
      <trkpt lat="60.65254" lon="17.17602">
        <ele>12.757032</ele>
        <time>2020-08-30T01:43:08.285Z</time>
      </trkpt>
      <trkpt lat="60.65246" lon="17.17618">
        <ele>12.828798</ele>
        <time>2020-08-30T01:43:10.396Z</time>
      </trkpt>
      <trkpt lat="60.6522" lon="17.17692">
        <ele>13.025189</ele>
        <time>2020-08-30T01:43:18.782Z</time>
      </trkpt>
      <trkpt lat="60.65197" lon="17.1778">
        <ele>13.178507</ele>
        <time>2020-08-30T01:43:28.028Z</time>
      </trkpt>
      <trkpt lat="60.6518" lon="17.17874">
        <ele>13.333477</ele>
        <time>2020-08-30T01:43:37.228Z</time>
      </trkpt>
      <trkpt lat="60.65165" lon="17.17965">
        <ele>13.481596</ele>
        <time>2020-08-30T01:43:46.146Z</time>
      </trkpt>
      <trkpt lat="60.65161" lon="17.1799">
        <ele>13.541061</ele>
        <time>2020-08-30T01:43:48.608Z</time>
      </trkpt>
      <trkpt lat="60.65161" lon="17.1801">
        <ele>13.601366</ele>
        <time>2020-08-30T01:43:50.432Z</time>
      </trkpt>
      <trkpt lat="60.65147" lon="17.18088">
        <ele>13.850604</ele>
        <time>2020-08-30T01:43:58.074Z</time>
      </trkpt>
      <trkpt lat="60.65132" lon="17.18121">
        <ele>13.985109</ele>
        <time>2020-08-30T01:44:02.253Z</time>
      </trkpt>
      <trkpt lat="60.65091" lon="17.18254">
        <ele>14.454178</ele>
        <time>2020-08-30T01:44:17.668Z</time>
      </trkpt>
      <trkpt lat="60.65071" lon="17.1832">
        <ele>14.794783</ele>
        <time>2020-08-30T01:44:25.651Z</time>
      </trkpt>
      <trkpt lat="60.6507" lon="17.18409">
        <ele>15.401694</ele>
        <time>2020-08-30T01:44:35.126Z</time>
      </trkpt>
      <trkpt lat="60.65067" lon="17.18431">
        <ele>15.558713</ele>
        <time>2020-08-30T01:44:37.625Z</time>
      </trkpt>
      <trkpt lat="60.65039" lon="17.18516">
        <ele>16.251671</ele>
        <time>2020-08-30T01:44:48.982Z</time>
      </trkpt>
      <trkpt lat="60.65015" lon="17.18612">
        <ele>16.978738</ele>
        <time>2020-08-30T01:45:01.058Z</time>
      </trkpt>
      <trkpt lat="60.64986" lon="17.18784">
        <ele>18.161359</ele>
        <time>2020-08-30T01:45:21.994Z</time>
      </trkpt>
      <trkpt lat="60.64958" lon="17.19034">
        <ele>19.62629</ele>
        <time>2020-08-30T01:45:48.525Z</time>
      </trkpt>
      <trkpt lat="60.64951" lon="17.19121">
        <ele>19.8945</ele>
        <time>2020-08-30T01:45:57.160Z</time>
      </trkpt>
      <trkpt lat="60.64942" lon="17.19356">
        <ele>20.613783</ele>
        <time>2020-08-30T01:46:19.674Z</time>
      </trkpt>
      <trkpt lat="60.6495" lon="17.19579">
        <ele>21.349243</ele>
        <time>2020-08-30T01:46:41.035Z</time>
      </trkpt>
      <trkpt lat="60.64962" lon="17.19835">
        <ele>22.559502</ele>
        <time>2020-08-30T01:47:06.940Z</time>
      </trkpt>
      <trkpt lat="60.64977" lon="17.20127">
        <ele>24.493706</ele>
        <time>2020-08-30T01:47:39.367Z</time>
      </trkpt>
      <trkpt lat="60.6498" lon="17.20189">
        <ele>25.012942</ele>
        <time>2020-08-30T01:47:46.558Z</time>
      </trkpt>
      <trkpt lat="60.64986" lon="17.20305">
        <ele>25.988532</ele>
        <time>2020-08-30T01:48:00.149Z</time>
      </trkpt>
      <trkpt lat="60.65001" lon="17.20604">
        <ele>28.121249</ele>
        <time>2020-08-30T01:48:34.733Z</time>
      </trkpt>
      <trkpt lat="60.65007" lon="17.20729">
        <ele>28.880051</ele>
        <time>2020-08-30T01:48:47.941Z</time>
      </trkpt>
      <trkpt lat="60.65023" lon="17.2105">
        <ele>29.640683</ele>
        <time>2020-08-30T01:49:18.487Z</time>
      </trkpt>
      <trkpt lat="60.65034" lon="17.21252">
        <ele>29.58968</ele>
        <time>2020-08-30T01:49:35.535Z</time>
      </trkpt>
      <trkpt lat="60.65042" lon="17.21378">
        <ele>29.284475</ele>
        <time>2020-08-30T01:49:45.842Z</time>
      </trkpt>
      <trkpt lat="60.65054" lon="17.21504">
        <ele>28.974412</ele>
        <time>2020-08-30T01:49:56.113Z</time>
      </trkpt>
      <trkpt lat="60.65116" lon="17.22055">
        <ele>27.389774</ele>
        <time>2020-08-30T01:50:40.906Z</time>
      </trkpt>
      <trkpt lat="60.65132" lon="17.22181">
        <ele>27.121548</ele>
        <time>2020-08-30T01:50:51.632Z</time>
      </trkpt>
      <trkpt lat="60.6514" lon="17.22261">
        <ele>26.992354</ele>
        <time>2020-08-30T01:50:58.566Z</time>
      </trkpt>
      <trkpt lat="60.65147" lon="17.2235">
        <ele>27.058409</ele>
        <time>2020-08-30T01:51:06.453Z</time>
      </trkpt>
      <trkpt lat="60.65154" lon="17.22426">
        <ele>27.114411</ele>
        <time>2020-08-30T01:51:13.323Z</time>
      </trkpt>
      <trkpt lat="60.65157" lon="17.22512">
        <ele>27.177257</ele>
        <time>2020-08-30T01:51:21.139Z</time>
      </trkpt>
      <trkpt lat="60.65152" lon="17.22572">
        <ele>27.221679</ele>
        <time>2020-08-30T01:51:26.757Z</time>
      </trkpt>
      <trkpt lat="60.65135" lon="17.22641">
        <ele>27.329808</ele>
        <time>2020-08-30T01:51:33.955Z</time>
      </trkpt>
      <trkpt lat="60.65076" lon="17.22842">
        <ele>27.815429</ele>
        <time>2020-08-30T01:51:56.144Z</time>
      </trkpt>
      <trkpt lat="60.65072" lon="17.22857">
        <ele>27.850712</ele>
        <time>2020-08-30T01:51:57.784Z</time>
      </trkpt>
      <trkpt lat="60.65041" lon="17.22971">
        <ele>28.127943</ele>
        <time>2020-08-30T01:52:10.091Z</time>
      </trkpt>
      <trkpt lat="60.64957" lon="17.23642">
        <ele>29.621233</ele>
        <time>2020-08-30T01:53:15.521Z</time>
      </trkpt>
      <trkpt lat="60.64947" lon="17.23747">
        <ele>29.691693</ele>
        <time>2020-08-30T01:53:25.415Z</time>
      </trkpt>
      <trkpt lat="60.64903" lon="17.24197">
        <ele>29.853337</ele>
        <time>2020-08-30T01:54:05.784Z</time>
      </trkpt>
      <trkpt lat="60.64898" lon="17.24248">
        <ele>29.853149</ele>
        <time>2020-08-30T01:54:10.259Z</time>
      </trkpt>
      <trkpt lat="60.6485" lon="17.24718">
        <ele>29.718008</ele>
        <time>2020-08-30T01:54:51.643Z</time>
      </trkpt>
      <trkpt lat="60.64821" lon="17.24893">
        <ele>29.653861</ele>
        <time>2020-08-30T01:55:07.873Z</time>
      </trkpt>
      <trkpt lat="60.64817" lon="17.24914">
        <ele>29.645983</ele>
        <time>2020-08-30T01:55:09.856Z</time>
      </trkpt>
      <trkpt lat="60.64796" lon="17.25024">
        <ele>29.604802</ele>
        <time>2020-08-30T01:55:20.133Z</time>
      </trkpt>
      <trkpt lat="60.64758" lon="17.25213">
        <ele>29.391552</ele>
        <time>2020-08-30T01:55:37.440Z</time>
      </trkpt>
      <trkpt lat="60.64702" lon="17.25462">
        <ele>29.105019</ele>
        <time>2020-08-30T01:56:00.177Z</time>
      </trkpt>
      <trkpt lat="60.64693" lon="17.25504">
        <ele>29.07264</ele>
        <time>2020-08-30T01:56:04.030Z</time>
      </trkpt>
      <trkpt lat="60.64691" lon="17.25511">
        <ele>29.067391</ele>
        <time>2020-08-30T01:56:04.670Z</time>
      </trkpt>
      <trkpt lat="60.64686" lon="17.25536">
        <ele>29.048137</ele>
        <time>2020-08-30T01:56:07.010Z</time>
      </trkpt>
      <trkpt lat="60.64664" lon="17.2563">
        <ele>28.974948</ele>
        <time>2020-08-30T01:56:15.882Z</time>
      </trkpt>
      <trkpt lat="60.64657" lon="17.25659">
        <ele>28.952256</ele>
        <time>2020-08-30T01:56:18.701Z</time>
      </trkpt>
      <trkpt lat="60.64613" lon="17.25863">
        <ele>29.045911</ele>
        <time>2020-08-30T01:56:38.507Z</time>
      </trkpt>
      <trkpt lat="60.64589" lon="17.26038">
        <ele>29.216831</ele>
        <time>2020-08-30T01:56:55.184Z</time>
      </trkpt>
      <trkpt lat="60.64584" lon="17.26169">
        <ele>29.387056</ele>
        <time>2020-08-30T01:57:07.335Z</time>
      </trkpt>
      <trkpt lat="60.64557" lon="17.26338">
        <ele>29.638751</ele>
        <time>2020-08-30T01:57:23.724Z</time>
      </trkpt>
      <trkpt lat="60.64543" lon="17.26565">
        <ele>29.822797</ele>
        <time>2020-08-30T01:57:44.499Z</time>
      </trkpt>
      <trkpt lat="60.64542" lon="17.26604">
        <ele>29.838204</ele>
        <time>2020-08-30T01:57:47.944Z</time>
      </trkpt>
      <trkpt lat="60.64543" lon="17.26782">
        <ele>29.909427</ele>
        <time>2020-08-30T01:58:03.700Z</time>
      </trkpt>
      <trkpt lat="60.64549" lon="17.27029">
        <ele>29.431681</ele>
        <time>2020-08-30T01:58:24.441Z</time>
      </trkpt>
      <trkpt lat="60.64783" lon="17.29221">
        <ele>20.95972</ele>
        <time>2020-08-30T02:01:18.705Z</time>
      </trkpt>
      <trkpt lat="60.64926" lon="17.30452">
        <ele>19.754685</ele>
        <time>2020-08-30T02:03:06.972Z</time>
      </trkpt>
      <trkpt lat="60.64955" lon="17.30689">
        <ele>19.221681</ele>
        <time>2020-08-30T02:03:26.737Z</time>
      </trkpt>
      <trkpt lat="60.64961" lon="17.30748">
        <ele>19.07886</ele>
        <time>2020-08-30T02:03:31.425Z</time>
      </trkpt>
      <trkpt lat="60.64978" lon="17.30984">
        <ele>18.306814</ele>
        <time>2020-08-30T02:03:50.153Z</time>
      </trkpt>
      <trkpt lat="60.64997" lon="17.31094">
        <ele>17.930074</ele>
        <time>2020-08-30T02:03:59.385Z</time>
      </trkpt>
      <trkpt lat="60.65004" lon="17.31204">
        <ele>17.537387</ele>
        <time>2020-08-30T02:04:08.362Z</time>
      </trkpt>
      <trkpt lat="60.65019" lon="17.31295">
        <ele>17.196152</ele>
        <time>2020-08-30T02:04:15.888Z</time>
      </trkpt>
      <trkpt lat="60.65025" lon="17.31344">
        <ele>17.016993</ele>
        <time>2020-08-30T02:04:19.850Z</time>
      </trkpt>
      <trkpt lat="60.65032" lon="17.31396">
        <ele>16.828038</ele>
        <time>2020-08-30T02:04:24.091Z</time>
      </trkpt>
      <trkpt lat="60.65041" lon="17.3145">
        <ele>16.625274</ele>
        <time>2020-08-30T02:04:28.419Z</time>
      </trkpt>
      <trkpt lat="60.65035" lon="17.31471">
        <ele>16.496726</ele>
        <time>2020-08-30T02:04:30.414Z</time>
      </trkpt>
      <trkpt lat="60.65026" lon="17.31479">
        <ele>16.395728</ele>
        <time>2020-08-30T02:04:31.811Z</time>
      </trkpt>
      <trkpt lat="60.65015" lon="17.31484">
        <ele>16.274432</ele>
        <time>2020-08-30T02:04:33.712Z</time>
      </trkpt>
      <trkpt lat="60.65002" lon="17.31497">
        <ele>16.122031</ele>
        <time>2020-08-30T02:04:36.179Z</time>
      </trkpt>
      <trkpt lat="60.64999" lon="17.31511">
        <ele>16.043337</ele>
        <time>2020-08-30T02:04:37.308Z</time>
      </trkpt>
      <trkpt lat="60.64988" lon="17.31602">
        <ele>15.560247</ele>
        <time>2020-08-30T02:04:44.680Z</time>
      </trkpt>
      <trkpt lat="60.64993" lon="17.31642">
        <ele>15.349503</ele>
        <time>2020-08-30T02:04:47.945Z</time>
      </trkpt>
      <trkpt lat="60.65002" lon="17.31673">
        <ele>15.162415</ele>
        <time>2020-08-30T02:04:50.708Z</time>
      </trkpt>
      <trkpt lat="60.65033" lon="17.3174">
        <ele>14.68521</ele>
        <time>2020-08-30T02:04:57.931Z</time>
      </trkpt>
      <trkpt lat="60.65044" lon="17.31748">
        <ele>14.565808</ele>
        <time>2020-08-30T02:04:59.760Z</time>
      </trkpt>
      <trkpt lat="60.65108" lon="17.32243">
        <ele>12.082535</ele>
        <time>2020-08-30T02:05:40.377Z</time>
      </trkpt>
      <trkpt lat="60.65109" lon="17.3254">
        <ele>10.942256</ele>
        <time>2020-08-30T02:06:04.466Z</time>
      </trkpt>
      <trkpt lat="60.65058" lon="17.32743">
        <ele>10.296293</ele>
        <time>2020-08-30T02:06:23.789Z</time>
      </trkpt>
      <trkpt lat="60.65048" lon="17.32805">
        <ele>10.190682</ele>
        <time>2020-08-30T02:06:29.539Z</time>
      </trkpt>
      <trkpt lat="60.64997" lon="17.32867">
        <ele>10.121624</ele>
        <time>2020-08-30T02:06:40.197Z</time>
      </trkpt>
      <trkpt lat="60.64997" lon="17.32918">
        <ele>10.09208</ele>
        <time>2020-08-30T02:06:44.793Z</time>
      </trkpt>
      <trkpt lat="60.64997" lon="17.32945">
        <ele>10.076818</ele>
        <time>2020-08-30T02:06:47.187Z</time>
      </trkpt>
      <trkpt lat="60.65002" lon="17.32994">
        <ele>10.047532</ele>
        <time>2020-08-30T02:06:51.787Z</time>
      </trkpt>
      <trkpt lat="60.6502" lon="17.33043">
        <ele>10.01278</ele>
        <time>2020-08-30T02:06:57.277Z</time>
      </trkpt>
      <trkpt lat="60.65062" lon="17.33131">
        <ele>10.005277</ele>
        <time>2020-08-30T02:07:08.502Z</time>
      </trkpt>
      <trkpt lat="60.65063" lon="17.33164">
        <ele>10.007035</ele>
        <time>2020-08-30T02:07:11.574Z</time>
      </trkpt>
      <trkpt lat="60.65056" lon="17.33241">
        <ele>10.011078</ele>
        <time>2020-08-30T02:07:18.647Z</time>
      </trkpt>
      <trkpt lat="60.65056" lon="17.33251">
        <ele>10.011606</ele>
        <time>2020-08-30T02:07:19.576Z</time>
      </trkpt>
      <trkpt lat="60.65096" lon="17.33253">
        <ele>10.015829</ele>
        <time>2020-08-30T02:07:26.983Z</time>
      </trkpt>
      <trkpt lat="60.65103" lon="17.33254">
        <ele>10.016629</ele>
        <time>2020-08-30T02:07:28.385Z</time>
      </trkpt>
      <trkpt lat="60.65108" lon="17.33257">
        <ele>10.017164</ele>
        <time>2020-08-30T02:07:29.324Z</time>
      </trkpt>
      <trkpt lat="60.65116" lon="17.33256">
        <ele>10.017984</ele>
        <time>2020-08-30T02:07:30.772Z</time>
      </trkpt>
      <trkpt lat="60.65128" lon="17.33257">
        <ele>10.019699</ele>
        <time>2020-08-30T02:07:33.038Z</time>
      </trkpt>
      <trkpt lat="60.65132" lon="17.33253">
        <ele>10.021602</ele>
        <time>2020-08-30T02:07:33.833Z</time>
      </trkpt>
      <trkpt lat="60.65135" lon="17.3329">
        <ele>10.029823</ele>
        <time>2020-08-30T02:07:37.271Z</time>
      </trkpt>
      <trkpt lat="60.65123" lon="17.33417">
        <ele>10.058391</ele>
        <time>2020-08-30T02:07:49.252Z</time>
      </trkpt>
      <trkpt lat="60.65101" lon="17.33664">
        <ele>10.096725</ele>
        <time>2020-08-30T02:08:12.096Z</time>
      </trkpt>
      <trkpt lat="60.65095" lon="17.33702">
        <ele>10.09457</ele>
        <time>2020-08-30T02:08:15.749Z</time>
      </trkpt>
      <trkpt lat="60.65084" lon="17.33791">
        <ele>10.089636</ele>
        <time>2020-08-30T02:08:24.135Z</time>
      </trkpt>
      <trkpt lat="60.65062" lon="17.33926">
        <ele>10.082065</ele>
        <time>2020-08-30T02:08:36.922Z</time>
      </trkpt>
      <trkpt lat="60.65012" lon="17.3423">
        <ele>10.020728</ele>
        <time>2020-08-30T02:09:06.031Z</time>
      </trkpt>
      <trkpt lat="60.65014" lon="17.34293">
        <ele>10.007737</ele>
        <time>2020-08-30T02:09:11.779Z</time>
      </trkpt>
      <trkpt lat="60.65023" lon="17.34365">
        <ele>10.004006</ele>
        <time>2020-08-30T02:09:18.538Z</time>
      </trkpt>
      <trkpt lat="60.6503" lon="17.34437">
        <ele>10.003045</ele>
        <time>2020-08-30T02:09:25.275Z</time>
      </trkpt>
      <trkpt lat="60.65037" lon="17.34509">
        <ele>10.00209</ele>
        <time>2020-08-30T02:09:31.980Z</time>
      </trkpt>
      <trkpt lat="60.65033" lon="17.346">
        <ele>10.000908</ele>
        <time>2020-08-30T02:09:40.264Z</time>
      </trkpt>
      <trkpt lat="60.65026" lon="17.34704">
        <ele>10.000012</ele>
        <time>2020-08-30T02:09:49.813Z</time>
      </trkpt>
      <trkpt lat="60.65007" lon="17.3504">
        <ele>10.000874</ele>
        <time>2020-08-30T02:10:20.684Z</time>
      </trkpt>
      <trkpt lat="60.65009" lon="17.35143">
        <ele>10.012763</ele>
        <time>2020-08-30T02:10:30.135Z</time>
      </trkpt>
      <trkpt lat="60.65008" lon="17.35224">
        <ele>10.021994</ele>
        <time>2020-08-30T02:10:37.480Z</time>
      </trkpt>
      <trkpt lat="60.64993" lon="17.35221">
        <ele>10.025544</ele>
        <time>2020-08-30T02:10:40.299Z</time>
      </trkpt>
      <trkpt lat="60.64988" lon="17.35237">
        <ele>10.027789</ele>
        <time>2020-08-30T02:10:42.084Z</time>
      </trkpt>
      <trkpt lat="60.64973" lon="17.35274">
        <ele>10.033212</ele>
        <time>2020-08-30T02:10:46.404Z</time>
      </trkpt>
      <trkpt lat="60.64948" lon="17.35481">
        <ele>10.05658</ele>
        <time>2020-08-30T02:11:06.006Z</time>
      </trkpt>
      <trkpt lat="60.64957" lon="17.35551">
        <ele>10.064245</ele>
        <time>2020-08-30T02:11:12.640Z</time>
      </trkpt>
      <trkpt lat="60.64899" lon="17.36397">
        <ele>9.794368</ele>
        <time>2020-08-30T02:12:30.113Z</time>
      </trkpt>
      <trkpt lat="60.64897" lon="17.36447">
        <ele>9.732883</ele>
        <time>2020-08-30T02:12:34.391Z</time>
      </trkpt>
      <trkpt lat="60.64893" lon="17.36513">
        <ele>9.546969</ele>
        <time>2020-08-30T02:12:39.869Z</time>
      </trkpt>
      <trkpt lat="60.64888" lon="17.36568">
        <ele>9.390565</ele>
        <time>2020-08-30T02:12:44.417Z</time>
      </trkpt>
      <trkpt lat="60.64885" lon="17.36679">
        <ele>9.07714</ele>
        <time>2020-08-30T02:12:53.583Z</time>
      </trkpt>
      <trkpt lat="60.64888" lon="17.36771">
        <ele>8.818599</ele>
        <time>2020-08-30T02:13:01.202Z</time>
      </trkpt>
      <trkpt lat="60.64869" lon="17.36927">
        <ele>8.549795</ele>
        <time>2020-08-30T02:13:15.232Z</time>
      </trkpt>
      <trkpt lat="60.64889" lon="17.36998">
        <ele>8.436243</ele>
        <time>2020-08-30T02:13:22.481Z</time>
      </trkpt>
      <trkpt lat="60.64946" lon="17.37177">
        <ele>8.105379</ele>
        <time>2020-08-30T02:13:40.824Z</time>
      </trkpt>
      <trkpt lat="60.64954" lon="17.372">
        <ele>8.0503</ele>
        <time>2020-08-30T02:13:43.329Z</time>
      </trkpt>
      <trkpt lat="60.64968" lon="17.37241">
        <ele>7.951298</ele>
        <time>2020-08-30T02:13:47.653Z</time>
      </trkpt>
      <trkpt lat="60.64981" lon="17.37301">
        <ele>7.82373</ele>
        <time>2020-08-30T02:13:53.211Z</time>
      </trkpt>
      <trkpt lat="60.64949" lon="17.3733">
        <ele>7.684394</ele>
        <time>2020-08-30T02:13:59.020Z</time>
      </trkpt>
      <trkpt lat="60.64909" lon="17.37363">
        <ele>7.514896</ele>
        <time>2020-08-30T02:14:06.084Z</time>
      </trkpt>
      <trkpt lat="60.64904" lon="17.37368">
        <ele>7.499715</ele>
        <time>2020-08-30T02:14:07.089Z</time>
      </trkpt>
      <trkpt lat="60.64894" lon="17.37376">
        <ele>7.487888</ele>
        <time>2020-08-30T02:14:08.885Z</time>
      </trkpt>
      <trkpt lat="60.64875" lon="17.37396">
        <ele>7.463937</ele>
        <time>2020-08-30T02:14:12.441Z</time>
      </trkpt>
      <trkpt lat="60.64725" lon="17.37558">
        <ele>7.350883</ele>
        <time>2020-08-30T02:14:42.561Z</time>
      </trkpt>
      <trkpt lat="60.64683" lon="17.37612">
        <ele>7.445232</ele>
        <time>2020-08-30T02:14:51.754Z</time>
      </trkpt>
      <trkpt lat="60.6467" lon="17.37628">
        <ele>7.472461</ele>
        <time>2020-08-30T02:14:54.370Z</time>
      </trkpt>
      <trkpt lat="60.64668" lon="17.37631">
        <ele>7.478251</ele>
        <time>2020-08-30T02:14:54.950Z</time>
      </trkpt>
      <trkpt lat="60.64659" lon="17.37638">
        <ele>7.495969</ele>
        <time>2020-08-30T02:14:56.711Z</time>
      </trkpt>
      <trkpt lat="60.64615" lon="17.37712">
        <ele>7.603519</ele>
        <time>2020-08-30T02:15:07.356Z</time>
      </trkpt>
      <trkpt lat="60.64599" lon="17.37712">
        <ele>7.634219</ele>
        <time>2020-08-30T02:15:10.584Z</time>
      </trkpt>
      <trkpt lat="60.64568" lon="17.37718">
        <ele>7.782095</ele>
        <time>2020-08-30T02:15:16.774Z</time>
      </trkpt>
      <trkpt lat="60.64538" lon="17.37738">
        <ele>7.947284</ele>
        <time>2020-08-30T02:15:23.034Z</time>
      </trkpt>
      <trkpt lat="60.64517" lon="17.37757">
        <ele>8.068499</ele>
        <time>2020-08-30T02:15:27.699Z</time>
      </trkpt>
      <trkpt lat="60.64507" lon="17.37774">
        <ele>8.133311</ele>
        <time>2020-08-30T02:15:30.137Z</time>
      </trkpt>
      <trkpt lat="60.6449" lon="17.378">
        <ele>8.246947</ele>
        <time>2020-08-30T02:15:34.688Z</time>
      </trkpt>
      <trkpt lat="60.64469" lon="17.37816">
        <ele>8.364791</ele>
        <time>2020-08-30T02:15:39.307Z</time>
      </trkpt>
      <trkpt lat="60.64464" lon="17.37825">
        <ele>8.40002</ele>
        <time>2020-08-30T02:15:40.767Z</time>
      </trkpt>
      <trkpt lat="60.64453" lon="17.37818">
        <ele>8.458345</ele>
        <time>2020-08-30T02:15:43.069Z</time>
      </trkpt>
      <trkpt lat="60.64445" lon="17.37808">
        <ele>8.506611</ele>
        <time>2020-08-30T02:15:44.875Z</time>
      </trkpt>
      <trkpt lat="60.64429" lon="17.37863">
        <ele>8.637535</ele>
        <time>2020-08-30T02:15:51.304Z</time>
      </trkpt>
      <trkpt lat="60.64417" lon="17.37936">
        <ele>8.758663</ele>
        <time>2020-08-30T02:15:59.054Z</time>
      </trkpt>
      <trkpt lat="60.64407" lon="17.37992">
        <ele>8.851998</ele>
        <time>2020-08-30T02:16:04.986Z</time>
      </trkpt>
      <trkpt lat="60.64399" lon="17.38032">
        <ele>8.918449</ele>
        <time>2020-08-30T02:16:09.090Z</time>
      </trkpt>
      <trkpt lat="60.64341" lon="17.3854">
        <ele>9.254356</ele>
        <time>2020-08-30T02:16:57.133Z</time>
      </trkpt>
      <trkpt lat="60.64321" lon="17.38699">
        <ele>9.195879</ele>
        <time>2020-08-30T02:17:11.776Z</time>
      </trkpt>
      <trkpt lat="60.64281" lon="17.38879">
        <ele>9.124821</ele>
        <time>2020-08-30T02:17:29.506Z</time>
      </trkpt>
      <trkpt lat="60.64269" lon="17.38937">
        <ele>9.148239</ele>
        <time>2020-08-30T02:17:35.191Z</time>
      </trkpt>
      <trkpt lat="60.64252" lon="17.3902">
        <ele>9.187199</ele>
        <time>2020-08-30T02:17:43.385Z</time>
      </trkpt>
      <trkpt lat="60.64225" lon="17.39158">
        <ele>9.25201</ele>
        <time>2020-08-30T02:17:57.334Z</time>
      </trkpt>
      <trkpt lat="60.64175" lon="17.3932">
        <ele>9.359551</ele>
        <time>2020-08-30T02:18:15.589Z</time>
      </trkpt>
      <trkpt lat="60.64161" lon="17.39332">
        <ele>9.379595</ele>
        <time>2020-08-30T02:18:18.487Z</time>
      </trkpt>
      <trkpt lat="60.6416" lon="17.39335">
        <ele>9.382075</ele>
        <time>2020-08-30T02:18:18.948Z</time>
      </trkpt>
      <trkpt lat="60.64159" lon="17.39339">
        <ele>9.385005</ele>
        <time>2020-08-30T02:18:19.438Z</time>
      </trkpt>
      <trkpt lat="60.6416" lon="17.39351">
        <ele>9.392598</ele>
        <time>2020-08-30T02:18:20.533Z</time>
      </trkpt>
      <trkpt lat="60.64144" lon="17.39397">
        <ele>9.428717</ele>
        <time>2020-08-30T02:18:25.812Z</time>
      </trkpt>
      <trkpt lat="60.6412" lon="17.39464">
        <ele>9.481923</ele>
        <time>2020-08-30T02:18:33.591Z</time>
      </trkpt>
      <trkpt lat="60.64006" lon="17.39778">
        <ele>9.168589</ele>
        <time>2020-08-30T02:19:08.075Z</time>
      </trkpt>
      <trkpt lat="60.63951" lon="17.39899">
        <ele>8.812283</ele>
        <time>2020-08-30T02:19:22.006Z</time>
      </trkpt>
      <trkpt lat="60.63943" lon="17.39938">
        <ele>8.710599</ele>
        <time>2020-08-30T02:19:25.546Z</time>
      </trkpt>
      <trkpt lat="60.63932" lon="17.39974">
        <ele>8.60778</ele>
        <time>2020-08-30T02:19:29.150Z</time>
      </trkpt>
      <trkpt lat="60.63882" lon="17.40109">
        <ele>8.20166</ele>
        <time>2020-08-30T02:19:43.534Z</time>
      </trkpt>
      <trkpt lat="60.63855" lon="17.40167">
        <ele>8.030909</ele>
        <time>2020-08-30T02:19:50.163Z</time>
      </trkpt>
      <trkpt lat="60.63781" lon="17.40287">
        <ele>7.611955</ele>
        <time>2020-08-30T02:20:06.569Z</time>
      </trkpt>
      <trkpt lat="60.63754" lon="17.40315">
        <ele>7.47873</ele>
        <time>2020-08-30T02:20:11.853Z</time>
      </trkpt>
      <trkpt lat="60.63641" lon="17.40436">
        <ele>6.837803</ele>
        <time>2020-08-30T02:20:33.918Z</time>
      </trkpt>
      <trkpt lat="60.63626" lon="17.40454">
        <ele>6.747259</ele>
        <time>2020-08-30T02:20:36.950Z</time>
      </trkpt>
      <trkpt lat="60.63621" lon="17.40455">
        <ele>6.725028</ele>
        <time>2020-08-30T02:20:37.693Z</time>
      </trkpt>
      <trkpt lat="60.6361" lon="17.40451">
        <ele>6.668404</ele>
        <time>2020-08-30T02:20:39.644Z</time>
      </trkpt>
      <trkpt lat="60.63601" lon="17.40455">
        <ele>6.618621</ele>
        <time>2020-08-30T02:20:41.297Z</time>
      </trkpt>
      <trkpt lat="60.63595" lon="17.40467">
        <ele>6.576941</ele>
        <time>2020-08-30T02:20:42.718Z</time>
      </trkpt>
      <trkpt lat="60.63588" lon="17.40492">
        <ele>6.49964</ele>
        <time>2020-08-30T02:20:45.167Z</time>
      </trkpt>
      <trkpt lat="60.63574" lon="17.40514">
        <ele>6.396737</ele>
        <time>2020-08-30T02:20:48.146Z</time>
      </trkpt>
      <trkpt lat="60.63528" lon="17.40559">
        <ele>6.105449</ele>
        <time>2020-08-30T02:20:56.718Z</time>
      </trkpt>
      <trkpt lat="60.63515" lon="17.40575">
        <ele>6.018576</ele>
        <time>2020-08-30T02:20:59.211Z</time>
      </trkpt>
      <trkpt lat="60.63223" lon="17.40932">
        <ele>4.119774</ele>
        <time>2020-08-30T02:21:57.420Z</time>
      </trkpt>
      <trkpt lat="60.632" lon="17.40958">
        <ele>3.982914</ele>
        <time>2020-08-30T02:22:01.921Z</time>
      </trkpt>
      <trkpt lat="60.63179" lon="17.40982">
        <ele>3.856864</ele>
        <time>2020-08-30T02:22:06.066Z</time>
      </trkpt>
      <trkpt lat="60.62997" lon="17.41192">
        <ele>2.89951</ele>
        <time>2020-08-30T02:22:42.488Z</time>
      </trkpt>
      <trkpt lat="60.62986" lon="17.41205">
        <ele>2.845534</ele>
        <time>2020-08-30T02:22:44.533Z</time>
      </trkpt>
      <trkpt lat="60.62976" lon="17.412">
        <ele>2.801649</ele>
        <time>2020-08-30T02:22:46.344Z</time>
      </trkpt>
      <trkpt lat="60.62966" lon="17.41198">
        <ele>2.763777</ele>
        <time>2020-08-30T02:22:48.121Z</time>
      </trkpt>
      <trkpt lat="60.62959" lon="17.41204">
        <ele>2.739117</ele>
        <time>2020-08-30T02:22:49.471Z</time>
      </trkpt>
      <trkpt lat="60.62952" lon="17.4121">
        <ele>2.714221</ele>
        <time>2020-08-30T02:22:50.691Z</time>
      </trkpt>
      <trkpt lat="60.62948" lon="17.41239">
        <ele>2.665174</ele>
        <time>2020-08-30T02:22:53.394Z</time>
      </trkpt>
      <trkpt lat="60.6295" lon="17.41248">
        <ele>2.649471</ele>
        <time>2020-08-30T02:22:54.277Z</time>
      </trkpt>
      <trkpt lat="60.62944" lon="17.41255">
        <ele>2.626166</ele>
        <time>2020-08-30T02:22:55.568Z</time>
      </trkpt>
      <trkpt lat="60.62946" lon="17.41266">
        <ele>2.607293</ele>
        <time>2020-08-30T02:22:56.491Z</time>
      </trkpt>
      <trkpt lat="60.62949" lon="17.41281">
        <ele>2.581529</ele>
        <time>2020-08-30T02:22:57.851Z</time>
      </trkpt>
      <trkpt lat="60.62819" lon="17.41378">
        <ele>2.188287</ele>
        <time>2020-08-30T02:23:22.285Z</time>
      </trkpt>
      <trkpt lat="60.62743" lon="17.41435">
        <ele>2.157941</ele>
        <time>2020-08-30T02:23:37.279Z</time>
      </trkpt>
      <trkpt lat="60.62658" lon="17.41509">
        <ele>2.153844</ele>
        <time>2020-08-30T02:23:54.654Z</time>
      </trkpt>
      <trkpt lat="60.62605" lon="17.41569">
        <ele>2.281818</ele>
        <time>2020-08-30T02:24:06.273Z</time>
      </trkpt>
      <trkpt lat="60.62566" lon="17.41613">
        <ele>2.375052</ele>
        <time>2020-08-30T02:24:14.814Z</time>
      </trkpt>
      <trkpt lat="60.62539" lon="17.41647">
        <ele>2.441155</ele>
        <time>2020-08-30T02:24:20.910Z</time>
      </trkpt>
      <trkpt lat="60.62389" lon="17.4185">
        <ele>3.092886</ele>
        <time>2020-08-30T02:24:56.419Z</time>
      </trkpt>
      <trkpt lat="60.6225" lon="17.42029">
        <ele>4.052551</ele>
        <time>2020-08-30T02:25:29.961Z</time>
      </trkpt>
      <trkpt lat="60.62244" lon="17.42047">
        <ele>4.123286</ele>
        <time>2020-08-30T02:25:32.244Z</time>
      </trkpt>
      <trkpt lat="60.62237" lon="17.42056">
        <ele>4.171435</ele>
        <time>2020-08-30T02:25:33.851Z</time>
      </trkpt>
      <trkpt lat="60.62224" lon="17.42064">
        <ele>4.261225</ele>
        <time>2020-08-30T02:25:36.894Z</time>
      </trkpt>
      <trkpt lat="60.62118" lon="17.42175">
        <ele>5.301477</ele>
        <time>2020-08-30T02:26:02.227Z</time>
      </trkpt>
      <trkpt lat="60.62004" lon="17.42294">
        <ele>6.613794</ele>
        <time>2020-08-30T02:26:30.113Z</time>
      </trkpt>
      <trkpt lat="60.61959" lon="17.4234">
        <ele>7.222994</ele>
        <time>2020-08-30T02:26:41.664Z</time>
      </trkpt>
      <trkpt lat="60.6193" lon="17.42371">
        <ele>7.620535</ele>
        <time>2020-08-30T02:26:49.209Z</time>
      </trkpt>
      <trkpt lat="60.61926" lon="17.4239">
        <ele>7.742626</ele>
        <time>2020-08-30T02:26:51.456Z</time>
      </trkpt>
      <trkpt lat="60.61916" lon="17.42399">
        <ele>7.868431</ele>
        <time>2020-08-30T02:26:53.911Z</time>
      </trkpt>
      <trkpt lat="60.61848" lon="17.4246">
        <ele>8.631781</ele>
        <time>2020-08-30T02:27:10.535Z</time>
      </trkpt>
      <trkpt lat="60.61833" lon="17.42473">
        <ele>8.784854</ele>
        <time>2020-08-30T02:27:14.040Z</time>
      </trkpt>
      <trkpt lat="60.61816" lon="17.4249">
        <ele>8.962364</ele>
        <time>2020-08-30T02:27:18.184Z</time>
      </trkpt>
      <trkpt lat="60.61755" lon="17.42553">
        <ele>9.614497</ele>
        <time>2020-08-30T02:27:33.036Z</time>
      </trkpt>
      <trkpt lat="60.61745" lon="17.42568">
        <ele>9.731804</ele>
        <time>2020-08-30T02:27:35.597Z</time>
      </trkpt>
      <trkpt lat="60.61739" lon="17.42573">
        <ele>9.794545</ele>
        <time>2020-08-30T02:27:36.997Z</time>
      </trkpt>
      <trkpt lat="60.61651" lon="17.42656">
        <ele>10.200905</ele>
        <time>2020-08-30T02:27:56.261Z</time>
      </trkpt>
      <trkpt lat="60.61631" lon="17.42681">
        <ele>10.293541</ele>
        <time>2020-08-30T02:28:00.868Z</time>
      </trkpt>
      <trkpt lat="60.61594" lon="17.42731">
        <ele>10.467374</ele>
        <time>2020-08-30T02:28:09.449Z</time>
      </trkpt>
      <trkpt lat="60.6158" lon="17.42732">
        <ele>10.520518</ele>
        <time>2020-08-30T02:28:12.068Z</time>
      </trkpt>
      <trkpt lat="60.61577" lon="17.42716">
        <ele>10.547104</ele>
        <time>2020-08-30T02:28:13.629Z</time>
      </trkpt>
      <trkpt lat="60.61574" lon="17.42705">
        <ele>10.556982</ele>
        <time>2020-08-30T02:28:14.887Z</time>
      </trkpt>
      <trkpt lat="60.61527" lon="17.42746">
        <ele>10.635724</ele>
        <time>2020-08-30T02:28:24.664Z</time>
      </trkpt>
      <trkpt lat="60.61509" lon="17.42751">
        <ele>10.663672</ele>
        <time>2020-08-30T02:28:28.098Z</time>
      </trkpt>
      <trkpt lat="60.61461" lon="17.42809">
        <ele>10.74932</ele>
        <time>2020-08-30T02:28:38.646Z</time>
      </trkpt>
      <trkpt lat="60.61305" lon="17.4293">
        <ele>10.921781</ele>
        <time>2020-08-30T02:29:10.234Z</time>
      </trkpt>
      <trkpt lat="60.61236" lon="17.4298">
        <ele>10.981798</ele>
        <time>2020-08-30T02:29:23.959Z</time>
      </trkpt>
      <trkpt lat="60.61083" lon="17.43076">
        <ele>11.104833</ele>
        <time>2020-08-30T02:29:52.804Z</time>
      </trkpt>
      <trkpt lat="60.60972" lon="17.43157">
        <ele>11.165292</ele>
        <time>2020-08-30T02:30:14.431Z</time>
      </trkpt>
      <trkpt lat="60.60841" lon="17.43293">
        <ele>11.16268</ele>
        <time>2020-08-30T02:30:40.552Z</time>
      </trkpt>
      <trkpt lat="60.60832" lon="17.43273">
        <ele>11.156811</ele>
        <time>2020-08-30T02:30:42.811Z</time>
      </trkpt>
      <trkpt lat="60.60822" lon="17.43258">
        <ele>11.150773</ele>
        <time>2020-08-30T02:30:45.150Z</time>
      </trkpt>
      <trkpt lat="60.60803" lon="17.43249">
        <ele>11.142013</ele>
        <time>2020-08-30T02:30:48.533Z</time>
      </trkpt>
      <trkpt lat="60.60778" lon="17.4326">
        <ele>11.130328</ele>
        <time>2020-08-30T02:30:53.043Z</time>
      </trkpt>
      <trkpt lat="60.60692" lon="17.43311">
        <ele>11.077906</ele>
        <time>2020-08-30T02:31:08.625Z</time>
      </trkpt>
      <trkpt lat="60.60565" lon="17.4339">
        <ele>11.000012</ele>
        <time>2020-08-30T02:31:32.193Z</time>
      </trkpt>
      <trkpt lat="60.60546" lon="17.43401">
        <ele>11.000012</ele>
        <time>2020-08-30T02:31:35.606Z</time>
      </trkpt>
      <trkpt lat="60.60315" lon="17.43537">
        <ele>11.000012</ele>
        <time>2020-08-30T02:32:18.475Z</time>
      </trkpt>
      <trkpt lat="60.60086" lon="17.43686">
        <ele>10.970752</ele>
        <time>2020-08-30T02:33:01.408Z</time>
      </trkpt>
      <trkpt lat="60.5998" lon="17.43742">
        <ele>10.858284</ele>
        <time>2020-08-30T02:33:20.769Z</time>
      </trkpt>
      <trkpt lat="60.59909" lon="17.43769">
        <ele>10.765443</ele>
        <time>2020-08-30T02:33:33.177Z</time>
      </trkpt>
      <trkpt lat="60.59866" lon="17.43771">
        <ele>10.686979</ele>
        <time>2020-08-30T02:33:40.481Z</time>
      </trkpt>
      <trkpt lat="60.59818" lon="17.43762">
        <ele>10.560775</ele>
        <time>2020-08-30T02:33:48.795Z</time>
      </trkpt>
      <trkpt lat="60.59694" lon="17.43703">
        <ele>10.249032</ele>
        <time>2020-08-30T02:34:10.408Z</time>
      </trkpt>
      <trkpt lat="60.59571" lon="17.43654">
        <ele>10.069296</ele>
        <time>2020-08-30T02:34:32.185Z</time>
      </trkpt>
      <trkpt lat="60.59555" lon="17.43648">
        <ele>10.04569</ele>
        <time>2020-08-30T02:34:35.079Z</time>
      </trkpt>
      <trkpt lat="60.59352" lon="17.43603">
        <ele>10.000014</ele>
        <time>2020-08-30T02:35:11.382Z</time>
      </trkpt>
      <trkpt lat="60.59309" lon="17.43607">
        <ele>10.005796</ele>
        <time>2020-08-30T02:35:19.042Z</time>
      </trkpt>
      <trkpt lat="60.59249" lon="17.43619">
        <ele>10.014021</ele>
        <time>2020-08-30T02:35:29.929Z</time>
      </trkpt>
      <trkpt lat="60.59164" lon="17.43635">
        <ele>10.038165</ele>
        <time>2020-08-30T02:35:45.209Z</time>
      </trkpt>
      <trkpt lat="60.59147" lon="17.43646">
        <ele>10.063811</ele>
        <time>2020-08-30T02:35:48.367Z</time>
      </trkpt>
      <trkpt lat="60.59113" lon="17.43683">
        <ele>10.120281</ele>
        <time>2020-08-30T02:35:55.358Z</time>
      </trkpt>
      <trkpt lat="60.59083" lon="17.43721">
        <ele>10.172164</ele>
        <time>2020-08-30T02:36:01.790Z</time>
      </trkpt>
      <trkpt lat="60.58926" lon="17.4385">
        <ele>10.549688</ele>
        <time>2020-08-30T02:36:33.228Z</time>
      </trkpt>
      <trkpt lat="60.58753" lon="17.43858">
        <ele>10.898465</ele>
        <time>2020-08-30T02:37:05.868Z</time>
      </trkpt>
      <trkpt lat="60.58721" lon="17.43874">
        <ele>10.933602</ele>
        <time>2020-08-30T02:37:11.940Z</time>
      </trkpt>
      <trkpt lat="60.58661" lon="17.43935">
        <ele>10.990525</ele>
        <time>2020-08-30T02:37:23.687Z</time>
      </trkpt>
      <trkpt lat="60.58603" lon="17.44013">
        <ele>10.820727</ele>
        <time>2020-08-30T02:37:35.530Z</time>
      </trkpt>
      <trkpt lat="60.5859" lon="17.44032">
        <ele>10.781334</ele>
        <time>2020-08-30T02:37:38.173Z</time>
      </trkpt>
      <trkpt lat="60.58562" lon="17.4407">
        <ele>10.700661</ele>
        <time>2020-08-30T02:37:43.714Z</time>
      </trkpt>
      <trkpt lat="60.58467" lon="17.44203">
        <ele>10.599298</ele>
        <time>2020-08-30T02:38:03.621Z</time>
      </trkpt>
      <trkpt lat="60.58436" lon="17.44247">
        <ele>10.625067</ele>
        <time>2020-08-30T02:38:10.515Z</time>
      </trkpt>
      <trkpt lat="60.58376" lon="17.44317">
        <ele>10.671809</ele>
        <time>2020-08-30T02:38:23.396Z</time>
      </trkpt>
      <trkpt lat="60.58292" lon="17.44408">
        <ele>10.721025</ele>
        <time>2020-08-30T02:38:41.560Z</time>
      </trkpt>
      <trkpt lat="60.58251" lon="17.44438">
        <ele>10.742438</ele>
        <time>2020-08-30T02:38:49.491Z</time>
      </trkpt>
      <trkpt lat="60.58214" lon="17.44455">
        <ele>10.760718</ele>
        <time>2020-08-30T02:38:55.813Z</time>
      </trkpt>
      <trkpt lat="60.582" lon="17.44463">
        <ele>10.768089</ele>
        <time>2020-08-30T02:38:58.238Z</time>
      </trkpt>
      <trkpt lat="60.58182" lon="17.4447">
        <ele>10.674609</ele>
        <time>2020-08-30T02:39:01.255Z</time>
      </trkpt>
      <trkpt lat="60.58123" lon="17.4449">
        <ele>10.278495</ele>
        <time>2020-08-30T02:39:11.068Z</time>
      </trkpt>
      <trkpt lat="60.58103" lon="17.44496">
        <ele>10.145421</ele>
        <time>2020-08-30T02:39:14.384Z</time>
      </trkpt>
      <trkpt lat="60.58096" lon="17.44497">
        <ele>10.103971</ele>
        <time>2020-08-30T02:39:15.311Z</time>
      </trkpt>
      <trkpt lat="60.58044" lon="17.44498">
        <ele>9.75891</ele>
        <time>2020-08-30T02:39:23.629Z</time>
      </trkpt>
      <trkpt lat="60.57986" lon="17.44478">
        <ele>9.453941</ele>
        <time>2020-08-30T02:39:32.775Z</time>
      </trkpt>
      <trkpt lat="60.57926" lon="17.44446">
        <ele>9.194612</ele>
        <time>2020-08-30T02:39:43.022Z</time>
      </trkpt>
      <trkpt lat="60.57837" lon="17.44365">
        <ele>8.855588</ele>
        <time>2020-08-30T02:39:59.994Z</time>
      </trkpt>
      <trkpt lat="60.57806" lon="17.44355">
        <ele>8.89685</ele>
        <time>2020-08-30T02:40:05.665Z</time>
      </trkpt>
      <trkpt lat="60.57742" lon="17.44355">
        <ele>8.979286</ele>
        <time>2020-08-30T02:40:17.263Z</time>
      </trkpt>
      <trkpt lat="60.57739" lon="17.44355">
        <ele>8.984245</ele>
        <time>2020-08-30T02:40:17.886Z</time>
      </trkpt>
      <trkpt lat="60.5771" lon="17.44346">
        <ele>9.021352</ele>
        <time>2020-08-30T02:40:23.199Z</time>
      </trkpt>
      <trkpt lat="60.57654" lon="17.44317">
        <ele>9.12193</ele>
        <time>2020-08-30T02:40:34.039Z</time>
      </trkpt>
      <trkpt lat="60.57404" lon="17.44007">
        <ele>10.055884</ele>
        <time>2020-08-30T02:41:28.693Z</time>
      </trkpt>
      <trkpt lat="60.57354" lon="17.43964">
        <ele>10.306777</ele>
        <time>2020-08-30T02:41:39.292Z</time>
      </trkpt>
      <trkpt lat="60.57322" lon="17.43942">
        <ele>10.706471</ele>
        <time>2020-08-30T02:41:46.210Z</time>
      </trkpt>
      <trkpt lat="60.57033" lon="17.43811">
        <ele>14.788867</ele>
        <time>2020-08-30T02:42:51.958Z</time>
      </trkpt>
      <trkpt lat="60.56884" lon="17.43668">
        <ele>18.077889</ele>
        <time>2020-08-30T02:43:33.670Z</time>
      </trkpt>
      <trkpt lat="60.5684" lon="17.43637">
        <ele>18.924446</ele>
        <time>2020-08-30T02:43:44.635Z</time>
      </trkpt>
      <trkpt lat="60.56832" lon="17.43631">
        <ele>18.965544</ele>
        <time>2020-08-30T02:43:46.572Z</time>
      </trkpt>
      <trkpt lat="60.56786" lon="17.43607">
        <ele>19.190948</ele>
        <time>2020-08-30T02:43:56.830Z</time>
      </trkpt>
      <trkpt lat="60.56769" lon="17.43603">
        <ele>19.27357</ele>
        <time>2020-08-30T02:44:00.401Z</time>
      </trkpt>
      <trkpt lat="60.56719" lon="17.43599">
        <ele>19.513561</ele>
        <time>2020-08-30T02:44:09.955Z</time>
      </trkpt>
      <trkpt lat="60.56679" lon="17.43614">
        <ele>19.707988</ele>
        <time>2020-08-30T02:44:16.814Z</time>
      </trkpt>
      <trkpt lat="60.5664" lon="17.43642">
        <ele>19.266738</ele>
        <time>2020-08-30T02:44:23.064Z</time>
      </trkpt>
      <trkpt lat="60.56591" lon="17.43701">
        <ele>18.403984</ele>
        <time>2020-08-30T02:44:31.368Z</time>
      </trkpt>
      <trkpt lat="60.56588" lon="17.43706">
        <ele>18.34129</ele>
        <time>2020-08-30T02:44:31.903Z</time>
      </trkpt>
      <trkpt lat="60.56576" lon="17.43729">
        <ele>18.090515</ele>
        <time>2020-08-30T02:44:34.320Z</time>
      </trkpt>
      <trkpt lat="60.56566" lon="17.43749">
        <ele>17.876895</ele>
        <time>2020-08-30T02:44:36.338Z</time>
      </trkpt>
      <trkpt lat="60.56539" lon="17.43797">
        <ele>17.342632</ele>
        <time>2020-08-30T02:44:41.374Z</time>
      </trkpt>
      <trkpt lat="60.56531" lon="17.4381">
        <ele>17.187938</ele>
        <time>2020-08-30T02:44:42.770Z</time>
      </trkpt>
      <trkpt lat="60.56507" lon="17.43854">
        <ele>16.881338</ele>
        <time>2020-08-30T02:44:47.461Z</time>
      </trkpt>
      <trkpt lat="60.56492" lon="17.43879">
        <ele>16.747264</ele>
        <time>2020-08-30T02:44:50.471Z</time>
      </trkpt>
      <trkpt lat="60.56484" lon="17.43891">
        <ele>16.683584</ele>
        <time>2020-08-30T02:44:51.878Z</time>
      </trkpt>
      <trkpt lat="60.56462" lon="17.43928">
        <ele>16.489186</ele>
        <time>2020-08-30T02:44:56.176Z</time>
      </trkpt>
      <trkpt lat="60.56449" lon="17.43946">
        <ele>16.383573</ele>
        <time>2020-08-30T02:44:58.688Z</time>
      </trkpt>
      <trkpt lat="60.56434" lon="17.43968">
        <ele>16.256692</ele>
        <time>2020-08-30T02:45:01.716Z</time>
      </trkpt>
      <trkpt lat="60.56421" lon="17.43987">
        <ele>16.148986</ele>
        <time>2020-08-30T02:45:04.397Z</time>
      </trkpt>
      <trkpt lat="60.56411" lon="17.44006">
        <ele>16.056487</ele>
        <time>2020-08-30T02:45:06.722Z</time>
      </trkpt>
      <trkpt lat="60.56355" lon="17.44121">
        <ele>16.327005</ele>
        <time>2020-08-30T02:45:22.209Z</time>
      </trkpt>
      <trkpt lat="60.56344" lon="17.44129">
        <ele>16.459625</ele>
        <time>2020-08-30T02:45:24.748Z</time>
      </trkpt>
      <trkpt lat="60.56195" lon="17.44098">
        <ele>18.227999</ele>
        <time>2020-08-30T02:45:58.876Z</time>
      </trkpt>
      <trkpt lat="60.56176" lon="17.44101">
        <ele>18.446869</ele>
        <time>2020-08-30T02:46:02.925Z</time>
      </trkpt>
      <trkpt lat="60.56141" lon="17.44129">
        <ele>18.888963</ele>
        <time>2020-08-30T02:46:11.202Z</time>
      </trkpt>
      <trkpt lat="60.5614" lon="17.44136">
        <ele>18.9335</ele>
        <time>2020-08-30T02:46:12.280Z</time>
      </trkpt>
      <trkpt lat="60.5614" lon="17.44143">
        <ele>18.971647</ele>
        <time>2020-08-30T02:46:12.953Z</time>
      </trkpt>
      <trkpt lat="60.56141" lon="17.44223">
        <ele>19.434377</ele>
        <time>2020-08-30T02:46:21.390Z</time>
      </trkpt>
      <trkpt lat="60.56138" lon="17.44264">
        <ele>19.674821</ele>
        <time>2020-08-30T02:46:25.554Z</time>
      </trkpt>
      <trkpt lat="60.56135" lon="17.44324">
        <ele>20.02267</ele>
        <time>2020-08-30T02:46:31.739Z</time>
      </trkpt>
      <trkpt lat="60.56133" lon="17.44352">
        <ele>20.099889</ele>
        <time>2020-08-30T02:46:34.686Z</time>
      </trkpt>
      <trkpt lat="60.56131" lon="17.4438">
        <ele>20.168601</ele>
        <time>2020-08-30T02:46:37.552Z</time>
      </trkpt>
      <trkpt lat="60.56135" lon="17.4438">
        <ele>20.185589</ele>
        <time>2020-08-30T02:46:38.239Z</time>
      </trkpt>
      <trkpt lat="60.56143" lon="17.44382">
        <ele>20.226379</ele>
        <time>2020-08-30T02:46:39.916Z</time>
      </trkpt>
      <trkpt lat="60.56143" lon="17.44394">
        <ele>20.255913</ele>
        <time>2020-08-30T02:46:41.204Z</time>
      </trkpt>
      <trkpt lat="60.56153" lon="17.44534">
        <ele>20.593708</ele>
        <time>2020-08-30T02:46:55.326Z</time>
      </trkpt>
      <trkpt lat="60.56215" lon="17.44669">
        <ele>20.925793</ele>
        <time>2020-08-30T02:47:12.665Z</time>
      </trkpt>
      <trkpt lat="60.56239" lon="17.44693">
        <ele>20.938731</ele>
        <time>2020-08-30T02:47:17.732Z</time>
      </trkpt>
      <trkpt lat="60.56335" lon="17.44746">
        <ele>20.985966</ele>
        <time>2020-08-30T02:47:36.161Z</time>
      </trkpt>
      <trkpt lat="60.56355" lon="17.44766">
        <ele>20.996583</ele>
        <time>2020-08-30T02:47:40.295Z</time>
      </trkpt>
      <trkpt lat="60.56351" lon="17.44772">
        <ele>20.998729</ele>
        <time>2020-08-30T02:47:41.140Z</time>
      </trkpt>
      <trkpt lat="60.56361" lon="17.44791">
        <ele>21.000012</ele>
        <time>2020-08-30T02:47:43.481Z</time>
      </trkpt>
      <trkpt lat="60.56385" lon="17.44836">
        <ele>21.000012</ele>
        <time>2020-08-30T02:47:49.275Z</time>
      </trkpt>
      <trkpt lat="60.56371" lon="17.44927">
        <ele>21.000012</ele>
        <time>2020-08-30T02:47:57.941Z</time>
      </trkpt>
      <trkpt lat="60.56367" lon="17.44973">
        <ele>21.000012</ele>
        <time>2020-08-30T02:48:02.246Z</time>
      </trkpt>
      <trkpt lat="60.56325" lon="17.45377">
        <ele>21.000012</ele>
        <time>2020-08-30T02:48:40.034Z</time>
      </trkpt>
      <trkpt lat="60.56286" lon="17.45753">
        <ele>20.891632</ele>
        <time>2020-08-30T02:49:15.037Z</time>
      </trkpt>
      <trkpt lat="60.56259" lon="17.4601">
        <ele>20.586419</ele>
        <time>2020-08-30T02:49:37.992Z</time>
      </trkpt>
      <trkpt lat="60.56245" lon="17.46138">
        <ele>20.394566</ele>
        <time>2020-08-30T02:49:49.419Z</time>
      </trkpt>
      <trkpt lat="60.56241" lon="17.46178">
        <ele>20.335322</ele>
        <time>2020-08-30T02:49:52.967Z</time>
      </trkpt>
      <trkpt lat="60.56164" lon="17.46264">
        <ele>20.172938</ele>
        <time>2020-08-30T02:50:07.841Z</time>
      </trkpt>
      <trkpt lat="60.56151" lon="17.46278">
        <ele>20.14737</ele>
        <time>2020-08-30T02:50:10.268Z</time>
      </trkpt>
      <trkpt lat="60.56147" lon="17.46282">
        <ele>20.13941</ele>
        <time>2020-08-30T02:50:11.021Z</time>
      </trkpt>
      <trkpt lat="60.56137" lon="17.46291">
        <ele>20.117964</ele>
        <time>2020-08-30T02:50:13.044Z</time>
      </trkpt>
      <trkpt lat="60.56133" lon="17.46289">
        <ele>20.110974</ele>
        <time>2020-08-30T02:50:13.702Z</time>
      </trkpt>
      <trkpt lat="60.5612" lon="17.46298">
        <ele>20.085492</ele>
        <time>2020-08-30T02:50:16.179Z</time>
      </trkpt>
      <trkpt lat="60.56073" lon="17.46376">
        <ele>20.002121</ele>
        <time>2020-08-30T02:50:26.901Z</time>
      </trkpt>
      <trkpt lat="60.56067" lon="17.46387">
        <ele>20.002009</ele>
        <time>2020-08-30T02:50:28.470Z</time>
      </trkpt>
      <trkpt lat="60.55929" lon="17.46644">
        <ele>20.000012</ele>
        <time>2020-08-30T02:51:01.785Z</time>
      </trkpt>
      <trkpt lat="60.55814" lon="17.469">
        <ele>20.000012</ele>
        <time>2020-08-30T02:51:32.275Z</time>
      </trkpt>
      <trkpt lat="60.55653" lon="17.47336">
        <ele>20.000012</ele>
        <time>2020-08-30T02:52:20.043Z</time>
      </trkpt>
      <trkpt lat="60.55547" lon="17.4772">
        <ele>20.000012</ele>
        <time>2020-08-30T02:52:58.670Z</time>
      </trkpt>
      <trkpt lat="60.55503" lon="17.47905">
        <ele>20.000012</ele>
        <time>2020-08-30T02:53:16.752Z</time>
      </trkpt>
      <trkpt lat="60.55476" lon="17.48042">
        <ele>20.000012</ele>
        <time>2020-08-30T02:53:29.625Z</time>
      </trkpt>
      <trkpt lat="60.55325" lon="17.48895">
        <ele>20.002504</ele>
        <time>2020-08-30T02:54:49.206Z</time>
      </trkpt>
      <trkpt lat="60.55322" lon="17.48913">
        <ele>20.003034</ele>
        <time>2020-08-30T02:54:50.938Z</time>
      </trkpt>
      <trkpt lat="60.55275" lon="17.49185">
        <ele>20.020469</ele>
        <time>2020-08-30T02:55:16.224Z</time>
      </trkpt>
      <trkpt lat="60.55028" lon="17.50629">
        <ele>20.963628</ele>
        <time>2020-08-30T02:57:32.138Z</time>
      </trkpt>
      <trkpt lat="60.55023" lon="17.50661">
        <ele>21.116353</ele>
        <time>2020-08-30T02:57:35.538Z</time>
      </trkpt>
      <trkpt lat="60.54738" lon="17.52288">
        <ele>28.75664</ele>
        <time>2020-08-30T03:00:33.773Z</time>
      </trkpt>
      <trkpt lat="60.54577" lon="17.53156">
        <ele>29.495202</ele>
        <time>2020-08-30T03:01:57.567Z</time>
      </trkpt>
      <trkpt lat="60.54542" lon="17.53328">
        <ele>29.233288</ele>
        <time>2020-08-30T03:02:13.135Z</time>
      </trkpt>
      <trkpt lat="60.54509" lon="17.53493">
        <ele>28.331132</ele>
        <time>2020-08-30T03:02:27.066Z</time>
      </trkpt>
      <trkpt lat="60.5445" lon="17.53781">
        <ele>25.960629</ele>
        <time>2020-08-30T03:02:49.333Z</time>
      </trkpt>
      <trkpt lat="60.5436" lon="17.54181">
        <ele>21.606774</ele>
        <time>2020-08-30T03:03:19.460Z</time>
      </trkpt>
      <trkpt lat="60.54271" lon="17.54542">
        <ele>18.162068</ele>
        <time>2020-08-30T03:03:48.119Z</time>
      </trkpt>
      <trkpt lat="60.54254" lon="17.54613">
        <ele>17.532948</ele>
        <time>2020-08-30T03:03:53.902Z</time>
      </trkpt>
      <trkpt lat="60.54207" lon="17.54797">
        <ele>16.479147</ele>
        <time>2020-08-30T03:04:09.278Z</time>
      </trkpt>
      <trkpt lat="60.54192" lon="17.54859">
        <ele>16.123327</ele>
        <time>2020-08-30T03:04:14.623Z</time>
      </trkpt>
      <trkpt lat="60.54182" lon="17.54896">
        <ele>15.91499</ele>
        <time>2020-08-30T03:04:17.813Z</time>
      </trkpt>
      <trkpt lat="60.53604" lon="17.57172">
        <ele>10.559996</ele>
        <time>2020-08-30T03:07:48.201Z</time>
      </trkpt>
      <trkpt lat="60.53541" lon="17.57418">
        <ele>10.277013</ele>
        <time>2020-08-30T03:08:11.637Z</time>
      </trkpt>
      <trkpt lat="60.53389" lon="17.58004">
        <ele>10.027311</ele>
        <time>2020-08-30T03:09:09.206Z</time>
      </trkpt>
      <trkpt lat="60.53337" lon="17.58182">
        <ele>10.000012</ele>
        <time>2020-08-30T03:09:27.409Z</time>
      </trkpt>
      <trkpt lat="60.53351" lon="17.58203">
        <ele>10.000012</ele>
        <time>2020-08-30T03:09:30.444Z</time>
      </trkpt>
      <trkpt lat="60.5336" lon="17.58232">
        <ele>10.000012</ele>
        <time>2020-08-30T03:09:33.577Z</time>
      </trkpt>
      <trkpt lat="60.5336" lon="17.58255">
        <ele>10.000012</ele>
        <time>2020-08-30T03:09:35.587Z</time>
      </trkpt>
      <trkpt lat="60.53246" lon="17.58862">
        <ele>10.000012</ele>
        <time>2020-08-30T03:10:32.653Z</time>
      </trkpt>
      <trkpt lat="60.53213" lon="17.58948">
        <ele>10.000012</ele>
        <time>2020-08-30T03:10:42.216Z</time>
      </trkpt>
      <trkpt lat="60.53145" lon="17.5906">
        <ele>10.000012</ele>
        <time>2020-08-30T03:10:57.812Z</time>
      </trkpt>
      <trkpt lat="60.53049" lon="17.59426">
        <ele>10.000012</ele>
        <time>2020-08-30T03:11:34.314Z</time>
      </trkpt>
      <trkpt lat="60.53001" lon="17.59561">
        <ele>10.000012</ele>
        <time>2020-08-30T03:11:48.932Z</time>
      </trkpt>
      <trkpt lat="60.5296" lon="17.59633">
        <ele>10.000012</ele>
        <time>2020-08-30T03:11:58.545Z</time>
      </trkpt>
      <trkpt lat="60.52937" lon="17.5966">
        <ele>10.000012</ele>
        <time>2020-08-30T03:12:03.324Z</time>
      </trkpt>
      <trkpt lat="60.52908" lon="17.59693">
        <ele>10.000012</ele>
        <time>2020-08-30T03:12:09.275Z</time>
      </trkpt>
      <trkpt lat="60.52848" lon="17.59774">
        <ele>10.000012</ele>
        <time>2020-08-30T03:12:22.099Z</time>
      </trkpt>
      <trkpt lat="60.52758" lon="17.59868">
        <ele>10.000012</ele>
        <time>2020-08-30T03:12:40.172Z</time>
      </trkpt>
      <trkpt lat="60.52731" lon="17.59897">
        <ele>10.000012</ele>
        <time>2020-08-30T03:12:45.633Z</time>
      </trkpt>
      <trkpt lat="60.52653" lon="17.59971">
        <ele>10.000012</ele>
        <time>2020-08-30T03:13:00.920Z</time>
      </trkpt>
      <trkpt lat="60.52566" lon="17.60083">
        <ele>9.991595</ele>
        <time>2020-08-30T03:13:19.228Z</time>
      </trkpt>
      <trkpt lat="60.5252" lon="17.60187">
        <ele>9.977469</ele>
        <time>2020-08-30T03:13:31.566Z</time>
      </trkpt>
      <trkpt lat="60.52505" lon="17.60233">
        <ele>9.971989</ele>
        <time>2020-08-30T03:13:36.361Z</time>
      </trkpt>
      <trkpt lat="60.52493" lon="17.60276">
        <ele>9.966983</ele>
        <time>2020-08-30T03:13:40.711Z</time>
      </trkpt>
      <trkpt lat="60.5248" lon="17.60276">
        <ele>9.964369</ele>
        <time>2020-08-30T03:13:42.982Z</time>
      </trkpt>
      <trkpt lat="60.52468" lon="17.6028">
        <ele>9.94845</ele>
        <time>2020-08-30T03:13:45.196Z</time>
      </trkpt>
      <trkpt lat="60.52435" lon="17.60295">
        <ele>9.880087</ele>
        <time>2020-08-30T03:13:51.028Z</time>
      </trkpt>
      <trkpt lat="60.52405" lon="17.6031">
        <ele>9.815306</ele>
        <time>2020-08-30T03:13:56.503Z</time>
      </trkpt>
      <trkpt lat="60.52385" lon="17.60309">
        <ele>9.774229</ele>
        <time>2020-08-30T03:13:59.962Z</time>
      </trkpt>
      <trkpt lat="60.52368" lon="17.60274">
        <ele>9.724688</ele>
        <time>2020-08-30T03:14:04.105Z</time>
      </trkpt>
      <trkpt lat="60.52356" lon="17.60244">
        <ele>9.685583</ele>
        <time>2020-08-30T03:14:07.352Z</time>
      </trkpt>
      <trkpt lat="60.52337" lon="17.60208">
        <ele>9.632537</ele>
        <time>2020-08-30T03:14:11.745Z</time>
      </trkpt>
      <trkpt lat="60.52322" lon="17.60196">
        <ele>9.5985</ele>
        <time>2020-08-30T03:14:14.537Z</time>
      </trkpt>
      <trkpt lat="60.52306" lon="17.60196">
        <ele>9.535461</ele>
        <time>2020-08-30T03:14:17.242Z</time>
      </trkpt>
      <trkpt lat="60.52277" lon="17.60221">
        <ele>9.403431</ele>
        <time>2020-08-30T03:14:22.480Z</time>
      </trkpt>
      <trkpt lat="60.52113" lon="17.60417">
        <ele>8.742496</ele>
        <time>2020-08-30T03:14:54.008Z</time>
      </trkpt>
      <trkpt lat="60.52082" lon="17.60445">
        <ele>8.683191</ele>
        <time>2020-08-30T03:14:59.904Z</time>
      </trkpt>
      <trkpt lat="60.51986" lon="17.60504">
        <ele>8.542339</ele>
        <time>2020-08-30T03:15:17.617Z</time>
      </trkpt>
      <trkpt lat="60.51931" lon="17.60534">
        <ele>8.620614</ele>
        <time>2020-08-30T03:15:27.993Z</time>
      </trkpt>
      <trkpt lat="60.51894" lon="17.60545">
        <ele>8.672145</ele>
        <time>2020-08-30T03:15:34.882Z</time>
      </trkpt>
      <trkpt lat="60.51859" lon="17.60554">
        <ele>8.721072</ele>
        <time>2020-08-30T03:15:41.432Z</time>
      </trkpt>
      <trkpt lat="60.51842" lon="17.6056">
        <ele>8.744645</ele>
        <time>2020-08-30T03:15:44.620Z</time>
      </trkpt>
      <trkpt lat="60.5183" lon="17.60554">
        <ele>8.761429</ele>
        <time>2020-08-30T03:15:46.843Z</time>
      </trkpt>
      <trkpt lat="60.51756" lon="17.60516">
        <ele>8.804299</ele>
        <time>2020-08-30T03:16:00.943Z</time>
      </trkpt>
      <trkpt lat="60.51701" lon="17.60459">
        <ele>8.829901</ele>
        <time>2020-08-30T03:16:11.985Z</time>
      </trkpt>
      <trkpt lat="60.51406" lon="17.60055">
        <ele>8.536281</ele>
        <time>2020-08-30T03:17:14.575Z</time>
      </trkpt>
      <trkpt lat="60.51353" lon="17.59995">
        <ele>8.444087</ele>
        <time>2020-08-30T03:17:25.004Z</time>
      </trkpt>
      <trkpt lat="60.51178" lon="17.59901">
        <ele>7.803472</ele>
        <time>2020-08-30T03:17:55.324Z</time>
      </trkpt>
      <trkpt lat="60.51147" lon="17.59893">
        <ele>7.678122</ele>
        <time>2020-08-30T03:18:00.539Z</time>
      </trkpt>
      <trkpt lat="60.51078" lon="17.59895">
        <ele>7.404355</ele>
        <time>2020-08-30T03:18:11.949Z</time>
      </trkpt>
      <trkpt lat="60.51046" lon="17.59902">
        <ele>7.275672</ele>
        <time>2020-08-30T03:18:17.321Z</time>
      </trkpt>
      <trkpt lat="60.51004" lon="17.59925">
        <ele>7.101543</ele>
        <time>2020-08-30T03:18:24.675Z</time>
      </trkpt>
      <trkpt lat="60.50597" lon="17.60231">
        <ele>5.802932</ele>
        <time>2020-08-30T03:19:38.112Z</time>
      </trkpt>
      <trkpt lat="60.50559" lon="17.60249">
        <ele>5.72956</ele>
        <time>2020-08-30T03:19:44.900Z</time>
      </trkpt>
      <trkpt lat="60.50523" lon="17.60255">
        <ele>5.66292</ele>
        <time>2020-08-30T03:19:51.126Z</time>
      </trkpt>
      <trkpt lat="60.50493" lon="17.60255">
        <ele>5.608733</ele>
        <time>2020-08-30T03:19:56.508Z</time>
      </trkpt>
      <trkpt lat="60.50442" lon="17.60235">
        <ele>5.640398</ele>
        <time>2020-08-30T03:20:05.729Z</time>
      </trkpt>
      <trkpt lat="60.50241" lon="17.60086">
        <ele>5.689349</ele>
        <time>2020-08-30T03:20:44.798Z</time>
      </trkpt>
      <trkpt lat="60.50173" lon="17.60049">
        <ele>5.665913</ele>
        <time>2020-08-30T03:20:56.968Z</time>
      </trkpt>
      <trkpt lat="60.50141" lon="17.6004">
        <ele>5.63237</ele>
        <time>2020-08-30T03:21:02.435Z</time>
      </trkpt>
      <trkpt lat="60.50105" lon="17.60142">
        <ele>5.4614</ele>
        <time>2020-08-30T03:21:12.867Z</time>
      </trkpt>
      <trkpt lat="60.50066" lon="17.60256">
        <ele>5.271279</ele>
        <time>2020-08-30T03:21:24.399Z</time>
      </trkpt>
      <trkpt lat="60.50021" lon="17.60512">
        <ele>5.290676</ele>
        <time>2020-08-30T03:21:47.696Z</time>
      </trkpt>
      <trkpt lat="60.49968" lon="17.60753">
        <ele>5.666579</ele>
        <time>2020-08-30T03:22:12.736Z</time>
      </trkpt>
      <trkpt lat="60.49883" lon="17.60991">
        <ele>6.486429</ele>
        <time>2020-08-30T03:22:42.015Z</time>
      </trkpt>
      <trkpt lat="60.49725" lon="17.61462">
        <ele>6.888738</ele>
        <time>2020-08-30T03:23:34.302Z</time>
      </trkpt>
      <trkpt lat="60.49658" lon="17.61648">
        <ele>6.631422</ele>
        <time>2020-08-30T03:23:52.404Z</time>
      </trkpt>
      <trkpt lat="60.49571" lon="17.61811">
        <ele>6.165093</ele>
        <time>2020-08-30T03:24:11.803Z</time>
      </trkpt>
      <trkpt lat="60.49514" lon="17.61893">
        <ele>6.541742</ele>
        <time>2020-08-30T03:24:25.519Z</time>
      </trkpt>
      <trkpt lat="60.49456" lon="17.61941">
        <ele>7.082675</ele>
        <time>2020-08-30T03:24:38.610Z</time>
      </trkpt>
      <trkpt lat="60.49422" lon="17.61972">
        <ele>7.410391</ele>
        <time>2020-08-30T03:24:46.856Z</time>
      </trkpt>
      <trkpt lat="60.49345" lon="17.61992">
        <ele>8.059159</ele>
        <time>2020-08-30T03:25:03.867Z</time>
      </trkpt>
      <trkpt lat="60.49106" lon="17.6197">
        <ele>9.592004</ele>
        <time>2020-08-30T03:25:51.132Z</time>
      </trkpt>
      <trkpt lat="60.48982" lon="17.61925">
        <ele>9.932712</ele>
        <time>2020-08-30T03:26:14.270Z</time>
      </trkpt>
      <trkpt lat="60.48819" lon="17.61905">
        <ele>10.000012</ele>
        <time>2020-08-30T03:26:43.427Z</time>
      </trkpt>
      <trkpt lat="60.4877" lon="17.61884">
        <ele>10.000012</ele>
        <time>2020-08-30T03:26:52.407Z</time>
      </trkpt>
      <trkpt lat="60.4862" lon="17.61711">
        <ele>10.000012</ele>
        <time>2020-08-30T03:27:23.170Z</time>
      </trkpt>
      <trkpt lat="60.48569" lon="17.61683">
        <ele>10.000012</ele>
        <time>2020-08-30T03:27:32.543Z</time>
      </trkpt>
      <trkpt lat="60.48467" lon="17.61708">
        <ele>10.000012</ele>
        <time>2020-08-30T03:27:50.877Z</time>
      </trkpt>
      <trkpt lat="60.48402" lon="17.61715">
        <ele>10.000012</ele>
        <time>2020-08-30T03:28:02.390Z</time>
      </trkpt>
      <trkpt lat="60.48339" lon="17.61695">
        <ele>10.000012</ele>
        <time>2020-08-30T03:28:13.806Z</time>
      </trkpt>
      <trkpt lat="60.48332" lon="17.61692">
        <ele>10.000012</ele>
        <time>2020-08-30T03:28:15.159Z</time>
      </trkpt>
      <trkpt lat="60.48247" lon="17.61657">
        <ele>10.000012</ele>
        <time>2020-08-30T03:28:30.551Z</time>
      </trkpt>
      <trkpt lat="60.48145" lon="17.61618">
        <ele>10.000012</ele>
        <time>2020-08-30T03:28:49.053Z</time>
      </trkpt>
      <trkpt lat="60.48078" lon="17.61572">
        <ele>10.000012</ele>
        <time>2020-08-30T03:29:01.605Z</time>
      </trkpt>
      <trkpt lat="60.48001" lon="17.61457">
        <ele>10.000012</ele>
        <time>2020-08-30T03:29:18.671Z</time>
      </trkpt>
      <trkpt lat="60.47988" lon="17.61439">
        <ele>10.000012</ele>
        <time>2020-08-30T03:29:21.469Z</time>
      </trkpt>
      <trkpt lat="60.47957" lon="17.61396">
        <ele>10.000012</ele>
        <time>2020-08-30T03:29:28.252Z</time>
      </trkpt>
      <trkpt lat="60.47884" lon="17.6132">
        <ele>10.000012</ele>
        <time>2020-08-30T03:29:42.882Z</time>
      </trkpt>
      <trkpt lat="60.47792" lon="17.61254">
        <ele>10.000012</ele>
        <time>2020-08-30T03:30:00.305Z</time>
      </trkpt>
      <trkpt lat="60.47744" lon="17.61239">
        <ele>10.000012</ele>
        <time>2020-08-30T03:30:08.899Z</time>
      </trkpt>
      <trkpt lat="60.47654" lon="17.61232">
        <ele>10.000012</ele>
        <time>2020-08-30T03:30:24.887Z</time>
      </trkpt>
      <trkpt lat="60.47594" lon="17.61238">
        <ele>10.000012</ele>
        <time>2020-08-30T03:30:35.572Z</time>
      </trkpt>
      <trkpt lat="60.47569" lon="17.61251">
        <ele>10.000012</ele>
        <time>2020-08-30T03:30:40.255Z</time>
      </trkpt>
      <trkpt lat="60.47555" lon="17.61258">
        <ele>10.000012</ele>
        <time>2020-08-30T03:30:42.750Z</time>
      </trkpt>
      <trkpt lat="60.46996" lon="17.61708">
        <ele>10.008494</ele>
        <time>2020-08-30T03:32:30.024Z</time>
      </trkpt>
      <trkpt lat="60.46942" lon="17.61728">
        <ele>10.072902</ele>
        <time>2020-08-30T03:32:39.939Z</time>
      </trkpt>
      <trkpt lat="60.46604" lon="17.61785">
        <ele>10.81032</ele>
        <time>2020-08-30T03:33:42.348Z</time>
      </trkpt>
      <trkpt lat="60.46458" lon="17.61738">
        <ele>11.726483</ele>
        <time>2020-08-30T03:34:11.930Z</time>
      </trkpt>
      <trkpt lat="60.463" lon="17.61673">
        <ele>13.033164</ele>
        <time>2020-08-30T03:34:45.346Z</time>
      </trkpt>
      <trkpt lat="60.46169" lon="17.61651">
        <ele>13.781021</ele>
        <time>2020-08-30T03:35:11.281Z</time>
      </trkpt>
      <trkpt lat="60.46103" lon="17.61621">
        <ele>14.145584</ele>
        <time>2020-08-30T03:35:24.197Z</time>
      </trkpt>
      <trkpt lat="60.45975" lon="17.6152">
        <ele>14.78888</ele>
        <time>2020-08-30T03:35:50.761Z</time>
      </trkpt>
      <trkpt lat="60.45966" lon="17.61491">
        <ele>14.867898</ele>
        <time>2020-08-30T03:35:54.033Z</time>
      </trkpt>
      <trkpt lat="60.45893" lon="17.6147">
        <ele>15.086348</ele>
        <time>2020-08-30T03:36:08.096Z</time>
      </trkpt>
      <trkpt lat="60.45838" lon="17.61462">
        <ele>15.219091</ele>
        <time>2020-08-30T03:36:18.618Z</time>
      </trkpt>
      <trkpt lat="60.45202" lon="17.61518">
        <ele>15.569851</ele>
        <time>2020-08-30T03:38:12.051Z</time>
      </trkpt>
      <trkpt lat="60.45165" lon="17.61529">
        <ele>15.815653</ele>
        <time>2020-08-30T03:38:19.492Z</time>
      </trkpt>
      <trkpt lat="60.4514" lon="17.6156">
        <ele>16.006012</ele>
        <time>2020-08-30T03:38:25.334Z</time>
      </trkpt>
      <trkpt lat="60.45129" lon="17.61584">
        <ele>16.113236</ele>
        <time>2020-08-30T03:38:28.692Z</time>
      </trkpt>
      <trkpt lat="60.45113" lon="17.61557">
        <ele>16.248226</ele>
        <time>2020-08-30T03:38:32.889Z</time>
      </trkpt>
      <trkpt lat="60.45074" lon="17.61517">
        <ele>16.531272</ele>
        <time>2020-08-30T03:38:41.993Z</time>
      </trkpt>
      <trkpt lat="60.44977" lon="17.61452">
        <ele>17.400413</ele>
        <time>2020-08-30T03:39:03.346Z</time>
      </trkpt>
      <trkpt lat="60.44961" lon="17.6144">
        <ele>17.551409</ele>
        <time>2020-08-30T03:39:06.962Z</time>
      </trkpt>
      <trkpt lat="60.44944" lon="17.61427">
        <ele>17.702772</ele>
        <time>2020-08-30T03:39:10.422Z</time>
      </trkpt>
      <trkpt lat="60.44927" lon="17.61414">
        <ele>17.865096</ele>
        <time>2020-08-30T03:39:14.310Z</time>
      </trkpt>
      <trkpt lat="60.44899" lon="17.61398">
        <ele>18.11441</ele>
        <time>2020-08-30T03:39:20.136Z</time>
      </trkpt>
      <trkpt lat="60.44862" lon="17.61383">
        <ele>18.356928</ele>
        <time>2020-08-30T03:39:27.635Z</time>
      </trkpt>
      <trkpt lat="60.44781" lon="17.61348">
        <ele>18.896882</ele>
        <time>2020-08-30T03:39:44.209Z</time>
      </trkpt>
      <trkpt lat="60.44776" lon="17.61346">
        <ele>18.928082</ele>
        <time>2020-08-30T03:39:45.169Z</time>
      </trkpt>
      <trkpt lat="60.44666" lon="17.61304">
        <ele>19.473167</ele>
        <time>2020-08-30T03:40:07.157Z</time>
      </trkpt>
      <trkpt lat="60.44563" lon="17.61258">
        <ele>19.815296</ele>
        <time>2020-08-30T03:40:26.894Z</time>
      </trkpt>
      <trkpt lat="60.44543" lon="17.61249">
        <ele>19.873859</ele>
        <time>2020-08-30T03:40:30.601Z</time>
      </trkpt>
      <trkpt lat="60.44511" lon="17.61235">
        <ele>19.897307</ele>
        <time>2020-08-30T03:40:36.600Z</time>
      </trkpt>
      <trkpt lat="60.44455" lon="17.61186">
        <ele>19.940722</ele>
        <time>2020-08-30T03:40:47.599Z</time>
      </trkpt>
      <trkpt lat="60.44347" lon="17.61059">
        <ele>20.018088</ele>
        <time>2020-08-30T03:41:09.796Z</time>
      </trkpt>
      <trkpt lat="60.44291" lon="17.61006">
        <ele>20.045619</ele>
        <time>2020-08-30T03:41:20.842Z</time>
      </trkpt>
      <trkpt lat="60.44108" lon="17.60879">
        <ele>20.372669</ele>
        <time>2020-08-30T03:41:55.965Z</time>
      </trkpt>
      <trkpt lat="60.44104" lon="17.60874">
        <ele>20.385017</ele>
        <time>2020-08-30T03:41:56.893Z</time>
      </trkpt>
      <trkpt lat="60.44097" lon="17.60866">
        <ele>20.4038</ele>
        <time>2020-08-30T03:41:58.308Z</time>
      </trkpt>
      <trkpt lat="60.44082" lon="17.60847">
        <ele>20.448353</ele>
        <time>2020-08-30T03:42:01.681Z</time>
      </trkpt>
      <trkpt lat="60.44068" lon="17.60828">
        <ele>20.490873</ele>
        <time>2020-08-30T03:42:04.926Z</time>
      </trkpt>
      <trkpt lat="60.43835" lon="17.60489">
        <ele>22.457274</ele>
        <time>2020-08-30T03:43:03.566Z</time>
      </trkpt>
      <trkpt lat="60.43824" lon="17.60478">
        <ele>22.524382</ele>
        <time>2020-08-30T03:43:06.222Z</time>
      </trkpt>
      <trkpt lat="60.43816" lon="17.60471">
        <ele>22.579313</ele>
        <time>2020-08-30T03:43:07.976Z</time>
      </trkpt>
      <trkpt lat="60.43769" lon="17.60446">
        <ele>22.853181</ele>
        <time>2020-08-30T03:43:16.914Z</time>
      </trkpt>
      <trkpt lat="60.43755" lon="17.60442">
        <ele>22.932784</ele>
        <time>2020-08-30T03:43:19.849Z</time>
      </trkpt>
      <trkpt lat="60.43746" lon="17.6044">
        <ele>22.948229</ele>
        <time>2020-08-30T03:43:21.350Z</time>
      </trkpt>
      <trkpt lat="60.43645" lon="17.60433">
        <ele>22.606603</ele>
        <time>2020-08-30T03:43:38.817Z</time>
      </trkpt>
      <trkpt lat="60.43627" lon="17.60432">
        <ele>22.547803</ele>
        <time>2020-08-30T03:43:41.518Z</time>
      </trkpt>
      <trkpt lat="60.43589" lon="17.60429">
        <ele>22.419454</ele>
        <time>2020-08-30T03:43:47.658Z</time>
      </trkpt>
      <trkpt lat="60.43532" lon="17.60422">
        <ele>22.267083</ele>
        <time>2020-08-30T03:43:57.123Z</time>
      </trkpt>
      <trkpt lat="60.43511" lon="17.60418">
        <ele>22.218233</ele>
        <time>2020-08-30T03:44:00.644Z</time>
      </trkpt>
      <trkpt lat="60.43496" lon="17.60414">
        <ele>22.182657</ele>
        <time>2020-08-30T03:44:03.208Z</time>
      </trkpt>
      <trkpt lat="60.43479" lon="17.60407">
        <ele>22.142588</ele>
        <time>2020-08-30T03:44:06.145Z</time>
      </trkpt>
      <trkpt lat="60.43451" lon="17.60388">
        <ele>22.074067</ele>
        <time>2020-08-30T03:44:11.290Z</time>
      </trkpt>
      <trkpt lat="60.4344" lon="17.60378">
        <ele>22.04464</ele>
        <time>2020-08-30T03:44:13.543Z</time>
      </trkpt>
      <trkpt lat="60.43433" lon="17.60373">
        <ele>22.028509</ele>
        <time>2020-08-30T03:44:14.769Z</time>
      </trkpt>
      <trkpt lat="60.43414" lon="17.60353">
        <ele>21.977669</ele>
        <time>2020-08-30T03:44:18.637Z</time>
      </trkpt>
      <trkpt lat="60.43393" lon="17.60335">
        <ele>21.936507</ele>
        <time>2020-08-30T03:44:22.620Z</time>
      </trkpt>
      <trkpt lat="60.43389" lon="17.60331">
        <ele>21.9357</ele>
        <time>2020-08-30T03:44:23.482Z</time>
      </trkpt>
      <trkpt lat="60.4336" lon="17.60312">
        <ele>21.930439</ele>
        <time>2020-08-30T03:44:28.848Z</time>
      </trkpt>
      <trkpt lat="60.43343" lon="17.60304">
        <ele>21.927237</ele>
        <time>2020-08-30T03:44:32.218Z</time>
      </trkpt>
      <trkpt lat="60.43325" lon="17.60298">
        <ele>21.924017</ele>
        <time>2020-08-30T03:44:35.508Z</time>
      </trkpt>
      <trkpt lat="60.43292" lon="17.60292">
        <ele>21.918224</ele>
        <time>2020-08-30T03:44:41.536Z</time>
      </trkpt>
      <trkpt lat="60.43281" lon="17.60292">
        <ele>21.916381</ele>
        <time>2020-08-30T03:44:43.408Z</time>
      </trkpt>
      <trkpt lat="60.43248" lon="17.60295">
        <ele>21.910637</ele>
        <time>2020-08-30T03:44:49.170Z</time>
      </trkpt>
      <trkpt lat="60.43246" lon="17.60295">
        <ele>21.910215</ele>
        <time>2020-08-30T03:44:49.591Z</time>
      </trkpt>
      <trkpt lat="60.4321" lon="17.60297">
        <ele>21.885251</ele>
        <time>2020-08-30T03:44:55.714Z</time>
      </trkpt>
      <trkpt lat="60.43188" lon="17.60298">
        <ele>21.843772</ele>
        <time>2020-08-30T03:44:59.525Z</time>
      </trkpt>
      <trkpt lat="60.43173" lon="17.60299">
        <ele>21.815874</ele>
        <time>2020-08-30T03:45:02.070Z</time>
      </trkpt>
      <trkpt lat="60.43165" lon="17.603">
        <ele>21.800436</ele>
        <time>2020-08-30T03:45:03.463Z</time>
      </trkpt>
      <trkpt lat="60.43146" lon="17.60299">
        <ele>21.764728</ele>
        <time>2020-08-30T03:45:06.757Z</time>
      </trkpt>
      <trkpt lat="60.43136" lon="17.60298">
        <ele>21.746678</ele>
        <time>2020-08-30T03:45:08.396Z</time>
      </trkpt>
      <trkpt lat="60.43126" lon="17.60297">
        <ele>21.728438</ele>
        <time>2020-08-30T03:45:10.059Z</time>
      </trkpt>
      <trkpt lat="60.43116" lon="17.60296">
        <ele>21.710216</ele>
        <time>2020-08-30T03:45:11.755Z</time>
      </trkpt>
      <trkpt lat="60.43081" lon="17.60289">
        <ele>21.644608</ele>
        <time>2020-08-30T03:45:17.855Z</time>
      </trkpt>
      <trkpt lat="60.42992" lon="17.60269">
        <ele>21.587303</ele>
        <time>2020-08-30T03:45:33.621Z</time>
      </trkpt>
      <trkpt lat="60.42955" lon="17.60262">
        <ele>21.598826</ele>
        <time>2020-08-30T03:45:40.176Z</time>
      </trkpt>
      <trkpt lat="60.42952" lon="17.60261">
        <ele>21.599635</ele>
        <time>2020-08-30T03:45:40.664Z</time>
      </trkpt>
      <trkpt lat="60.42873" lon="17.60244">
        <ele>21.624383</ele>
        <time>2020-08-30T03:45:55.219Z</time>
      </trkpt>
      <trkpt lat="60.42827" lon="17.60235">
        <ele>21.662542</ele>
        <time>2020-08-30T03:46:03.693Z</time>
      </trkpt>
      <trkpt lat="60.42793" lon="17.60225">
        <ele>21.69535</ele>
        <time>2020-08-30T03:46:09.979Z</time>
      </trkpt>
      <trkpt lat="60.42782" lon="17.60222">
        <ele>21.706225</ele>
        <time>2020-08-30T03:46:12.066Z</time>
      </trkpt>
      <trkpt lat="60.42763" lon="17.60217">
        <ele>21.724331</ele>
        <time>2020-08-30T03:46:15.502Z</time>
      </trkpt>
      <trkpt lat="60.42738" lon="17.6021">
        <ele>21.748451</ele>
        <time>2020-08-30T03:46:20.095Z</time>
      </trkpt>
      <trkpt lat="60.42722" lon="17.60207">
        <ele>21.764272</ele>
        <time>2020-08-30T03:46:23.068Z</time>
      </trkpt>
      <trkpt lat="60.42574" lon="17.60124">
        <ele>21.626002</ele>
        <time>2020-08-30T03:46:50.164Z</time>
      </trkpt>
      <trkpt lat="60.42388" lon="17.60003">
        <ele>21.04388</ele>
        <time>2020-08-30T03:47:22.888Z</time>
      </trkpt>
      <trkpt lat="60.42368" lon="17.59981">
        <ele>20.959062</ele>
        <time>2020-08-30T03:47:26.654Z</time>
      </trkpt>
      <trkpt lat="60.42366" lon="17.59979">
        <ele>20.949061</ele>
        <time>2020-08-30T03:47:27.043Z</time>
      </trkpt>
      <trkpt lat="60.42308" lon="17.59891">
        <ele>20.937688</ele>
        <time>2020-08-30T03:47:39.386Z</time>
      </trkpt>
      <trkpt lat="60.4226" lon="17.59797">
        <ele>21.038629</ele>
        <time>2020-08-30T03:47:51.334Z</time>
      </trkpt>
      <trkpt lat="60.42257" lon="17.5979">
        <ele>21.045816</ele>
        <time>2020-08-30T03:47:52.185Z</time>
      </trkpt>
      <trkpt lat="60.42238" lon="17.59755">
        <ele>21.084488</ele>
        <time>2020-08-30T03:47:57.024Z</time>
      </trkpt>
      <trkpt lat="60.4223" lon="17.5974">
        <ele>21.100256</ele>
        <time>2020-08-30T03:47:59.189Z</time>
      </trkpt>
      <trkpt lat="60.4218" lon="17.59655">
        <ele>21.597834</ele>
        <time>2020-08-30T03:48:12.588Z</time>
      </trkpt>
      <trkpt lat="60.42134" lon="17.59604">
        <ele>22.164041</ele>
        <time>2020-08-30T03:48:23.845Z</time>
      </trkpt>
      <trkpt lat="60.4208" lon="17.59565">
        <ele>22.784217</ele>
        <time>2020-08-30T03:48:36.563Z</time>
      </trkpt>
      <trkpt lat="60.41891" lon="17.59463">
        <ele>24.832365</ele>
        <time>2020-08-30T03:49:18.621Z</time>
      </trkpt>
      <trkpt lat="60.41784" lon="17.59375">
        <ele>24.78531</ele>
        <time>2020-08-30T03:49:41.032Z</time>
      </trkpt>
      <trkpt lat="60.41711" lon="17.5929">
        <ele>24.529118</ele>
        <time>2020-08-30T03:49:53.915Z</time>
      </trkpt>
      <trkpt lat="60.41688" lon="17.59259">
        <ele>24.095612</ele>
        <time>2020-08-30T03:49:57.887Z</time>
      </trkpt>
      <trkpt lat="60.41665" lon="17.59316">
        <ele>23.509038</ele>
        <time>2020-08-30T03:50:03.242Z</time>
      </trkpt>
      <trkpt lat="60.41658" lon="17.59335">
        <ele>23.320847</ele>
        <time>2020-08-30T03:50:05.041Z</time>
      </trkpt>
      <trkpt lat="60.4165" lon="17.59341">
        <ele>23.185108</ele>
        <time>2020-08-30T03:50:06.174Z</time>
      </trkpt>
      <trkpt lat="60.41632" lon="17.59341">
        <ele>22.906095</ele>
        <time>2020-08-30T03:50:08.721Z</time>
      </trkpt>
      <trkpt lat="60.41587" lon="17.5932">
        <ele>22.16691</ele>
        <time>2020-08-30T03:50:15.418Z</time>
      </trkpt>
      <trkpt lat="60.41551" lon="17.59325">
        <ele>21.669134</ele>
        <time>2020-08-30T03:50:20.548Z</time>
      </trkpt>
      <trkpt lat="60.4153" lon="17.59343">
        <ele>21.448906</ele>
        <time>2020-08-30T03:50:23.753Z</time>
      </trkpt>
      <trkpt lat="60.41441" lon="17.59521">
        <ele>20.253582</ele>
        <time>2020-08-30T03:50:43.608Z</time>
      </trkpt>
      <trkpt lat="60.41396" lon="17.59584">
        <ele>20.038971</ele>
        <time>2020-08-30T03:50:53.079Z</time>
      </trkpt>
      <trkpt lat="60.41361" lon="17.59619">
        <ele>20.011584</ele>
        <time>2020-08-30T03:50:59.824Z</time>
      </trkpt>
      <trkpt lat="60.41292" lon="17.59648">
        <ele>19.961041</ele>
        <time>2020-08-30T03:51:12.516Z</time>
      </trkpt>
      <trkpt lat="60.41259" lon="17.5964">
        <ele>19.937142</ele>
        <time>2020-08-30T03:51:18.609Z</time>
      </trkpt>
      <trkpt lat="60.41194" lon="17.59592">
        <ele>20.105597</ele>
        <time>2020-08-30T03:51:31.308Z</time>
      </trkpt>
      <trkpt lat="60.41147" lon="17.59511">
        <ele>20.260155</ele>
        <time>2020-08-30T03:51:42.752Z</time>
      </trkpt>
      <trkpt lat="60.41093" lon="17.59321">
        <ele>20.658183</ele>
        <time>2020-08-30T03:52:03.339Z</time>
      </trkpt>
      <trkpt lat="60.41071" lon="17.5927">
        <ele>20.814744</ele>
        <time>2020-08-30T03:52:09.827Z</time>
      </trkpt>
      <trkpt lat="60.40965" lon="17.59057">
        <ele>21.507186</ele>
        <time>2020-08-30T03:52:39.250Z</time>
      </trkpt>
      <trkpt lat="60.40903" lon="17.58957">
        <ele>21.864491</ele>
        <time>2020-08-30T03:52:54.473Z</time>
      </trkpt>
      <trkpt lat="60.40794" lon="17.58684">
        <ele>22.178615</ele>
        <time>2020-08-30T03:53:26.334Z</time>
      </trkpt>
      <trkpt lat="60.40743" lon="17.58613">
        <ele>22.198418</ele>
        <time>2020-08-30T03:53:37.328Z</time>
      </trkpt>
      <trkpt lat="60.40712" lon="17.58555">
        <ele>22.123597</ele>
        <time>2020-08-30T03:53:44.741Z</time>
      </trkpt>
      <trkpt lat="60.40645" lon="17.58454">
        <ele>21.974877</ele>
        <time>2020-08-30T03:53:59.170Z</time>
      </trkpt>
      <trkpt lat="60.40618" lon="17.58437">
        <ele>21.925911</ele>
        <time>2020-08-30T03:54:03.898Z</time>
      </trkpt>
      <trkpt lat="60.40569" lon="17.58425">
        <ele>21.784916</ele>
        <time>2020-08-30T03:54:12.380Z</time>
      </trkpt>
      <trkpt lat="60.40566" lon="17.58423">
        <ele>21.772851</ele>
        <time>2020-08-30T03:54:12.992Z</time>
      </trkpt>
      <trkpt lat="60.40558" lon="17.58419">
        <ele>21.746763</ele>
        <time>2020-08-30T03:54:14.413Z</time>
      </trkpt>
      <trkpt lat="60.40547" lon="17.58412">
        <ele>21.709313</ele>
        <time>2020-08-30T03:54:16.462Z</time>
      </trkpt>
      <trkpt lat="60.40538" lon="17.58406">
        <ele>21.681576</ele>
        <time>2020-08-30T03:54:17.966Z</time>
      </trkpt>
      <trkpt lat="60.40504" lon="17.58359">
        <ele>21.55053</ele>
        <time>2020-08-30T03:54:24.966Z</time>
      </trkpt>
      <trkpt lat="60.40496" lon="17.58325">
        <ele>21.490861</ele>
        <time>2020-08-30T03:54:28.171Z</time>
      </trkpt>
      <trkpt lat="60.40494" lon="17.58294">
        <ele>21.442459</ele>
        <time>2020-08-30T03:54:30.752Z</time>
      </trkpt>
      <trkpt lat="60.40496" lon="17.58281">
        <ele>21.421634</ele>
        <time>2020-08-30T03:54:31.846Z</time>
      </trkpt>
      <trkpt lat="60.40482" lon="17.58273">
        <ele>21.375903</ele>
        <time>2020-08-30T03:54:34.243Z</time>
      </trkpt>
      <trkpt lat="60.4046" lon="17.58254">
        <ele>21.293959</ele>
        <time>2020-08-30T03:54:38.172Z</time>
      </trkpt>
      <trkpt lat="60.40427" lon="17.58223">
        <ele>21.157104</ele>
        <time>2020-08-30T03:54:44.253Z</time>
      </trkpt>
      <trkpt lat="60.40422" lon="17.5822">
        <ele>21.137288</ele>
        <time>2020-08-30T03:54:45.164Z</time>
      </trkpt>
      <trkpt lat="60.40405" lon="17.58208">
        <ele>21.070994</ele>
        <time>2020-08-30T03:54:47.976Z</time>
      </trkpt>
      <trkpt lat="60.40353" lon="17.58189">
        <ele>20.872838</ele>
        <time>2020-08-30T03:54:56.867Z</time>
      </trkpt>
      <trkpt lat="60.40343" lon="17.58191">
        <ele>20.836448</ele>
        <time>2020-08-30T03:54:58.433Z</time>
      </trkpt>
      <trkpt lat="60.40337" lon="17.58195">
        <ele>20.81286</ele>
        <time>2020-08-30T03:54:59.431Z</time>
      </trkpt>
      <trkpt lat="60.40272" lon="17.58249">
        <ele>20.83501</ele>
        <time>2020-08-30T03:55:11.553Z</time>
      </trkpt>
      <trkpt lat="60.40268" lon="17.58255">
        <ele>20.862741</ele>
        <time>2020-08-30T03:55:12.407Z</time>
      </trkpt>
      <trkpt lat="60.40256" lon="17.58276">
        <ele>20.951853</ele>
        <time>2020-08-30T03:55:15.459Z</time>
      </trkpt>
      <trkpt lat="60.40251" lon="17.58283">
        <ele>20.986208</ele>
        <time>2020-08-30T03:55:16.578Z</time>
      </trkpt>
      <trkpt lat="60.40245" lon="17.5829">
        <ele>21.024338</ele>
        <time>2020-08-30T03:55:17.826Z</time>
      </trkpt>
      <trkpt lat="60.40229" lon="17.58297">
        <ele>21.111985</ele>
        <time>2020-08-30T03:55:20.833Z</time>
      </trkpt>
      <trkpt lat="60.40221" lon="17.58297">
        <ele>21.159949</ele>
        <time>2020-08-30T03:55:22.395Z</time>
      </trkpt>
      <trkpt lat="60.402" lon="17.5829">
        <ele>21.276791</ele>
        <time>2020-08-30T03:55:26.497Z</time>
      </trkpt>
      <trkpt lat="60.40193" lon="17.58288">
        <ele>21.316799</ele>
        <time>2020-08-30T03:55:27.897Z</time>
      </trkpt>
      <trkpt lat="60.40185" lon="17.58287">
        <ele>21.359906</ele>
        <time>2020-08-30T03:55:29.338Z</time>
      </trkpt>
      <trkpt lat="60.40177" lon="17.58287">
        <ele>21.407861</ele>
        <time>2020-08-30T03:55:31.015Z</time>
      </trkpt>
      <trkpt lat="60.40165" lon="17.58293">
        <ele>21.475835</ele>
        <time>2020-08-30T03:55:33.671Z</time>
      </trkpt>
      <trkpt lat="60.40153" lon="17.583">
        <ele>21.54334</ele>
        <time>2020-08-30T03:55:36.283Z</time>
      </trkpt>
      <trkpt lat="60.40147" lon="17.58305">
        <ele>21.581307</ele>
        <time>2020-08-30T03:55:38.062Z</time>
      </trkpt>
      <trkpt lat="60.40142" lon="17.58313">
        <ele>21.617392</ele>
        <time>2020-08-30T03:55:39.390Z</time>
      </trkpt>
      <trkpt lat="60.40137" lon="17.58322">
        <ele>21.651493</ele>
        <time>2020-08-30T03:55:40.658Z</time>
      </trkpt>
      <trkpt lat="60.40134" lon="17.58334">
        <ele>21.757434</ele>
        <time>2020-08-30T03:55:42.458Z</time>
      </trkpt>
      <trkpt lat="60.40128" lon="17.58371">
        <ele>22.13972</ele>
        <time>2020-08-30T03:55:46.862Z</time>
      </trkpt>
      <trkpt lat="60.40127" lon="17.58386">
        <ele>22.298012</ele>
        <time>2020-08-30T03:55:48.590Z</time>
      </trkpt>
      <trkpt lat="60.40139" lon="17.58416">
        <ele>22.693809</ele>
        <time>2020-08-30T03:55:53.253Z</time>
      </trkpt>
      <trkpt lat="60.40145" lon="17.58444">
        <ele>22.992605</ele>
        <time>2020-08-30T03:55:56.839Z</time>
      </trkpt>
      <trkpt lat="60.40145" lon="17.58451">
        <ele>23.060942</ele>
        <time>2020-08-30T03:55:57.576Z</time>
      </trkpt>
      <trkpt lat="60.40145" lon="17.58457">
        <ele>23.127736</ele>
        <time>2020-08-30T03:55:58.539Z</time>
      </trkpt>
      <trkpt lat="60.40121" lon="17.58511">
        <ele>23.849177</ele>
        <time>2020-08-30T03:56:07.311Z</time>
      </trkpt>
      <trkpt lat="60.40111" lon="17.5853">
        <ele>24.123853</ele>
        <time>2020-08-30T03:56:10.554Z</time>
      </trkpt>
      <trkpt lat="60.40107" lon="17.58538">
        <ele>24.246159</ele>
        <time>2020-08-30T03:56:12.359Z</time>
      </trkpt>
      <trkpt lat="60.40061" lon="17.58601">
        <ele>25.374245</ele>
        <time>2020-08-30T03:56:25.945Z</time>
      </trkpt>
      <trkpt lat="60.40036" lon="17.5865">
        <ele>26.198042</ele>
        <time>2020-08-30T03:56:34.965Z</time>
      </trkpt>
      <trkpt lat="60.3999" lon="17.58667">
        <ele>27.289256</ele>
        <time>2020-08-30T03:56:47.194Z</time>
      </trkpt>
      <trkpt lat="60.39949" lon="17.58697">
        <ele>28.312694</ele>
        <time>2020-08-30T03:56:58.382Z</time>
      </trkpt>
      <trkpt lat="60.39919" lon="17.58708">
        <ele>29.019361</ele>
        <time>2020-08-30T03:57:05.780Z</time>
      </trkpt>
      <trkpt lat="60.39897" lon="17.58703">
        <ele>29.556742</ele>
        <time>2020-08-30T03:57:11.377Z</time>
      </trkpt>
      <trkpt lat="60.39887" lon="17.58702">
        <ele>29.780559</ele>
        <time>2020-08-30T03:57:13.839Z</time>
      </trkpt>
      <trkpt lat="60.39873" lon="17.58704">
        <ele>30.111121</ele>
        <time>2020-08-30T03:57:17.299Z</time>
      </trkpt>
      <trkpt lat="60.39863" lon="17.58715">
        <ele>30.367657</ele>
        <time>2020-08-30T03:57:19.996Z</time>
      </trkpt>
      <trkpt lat="60.39803" lon="17.58837">
        <ele>32.314839</ele>
        <time>2020-08-30T03:57:41.203Z</time>
      </trkpt>
      <trkpt lat="60.39763" lon="17.58954">
        <ele>33.924096</ele>
        <time>2020-08-30T03:57:59.713Z</time>
      </trkpt>
      <trkpt lat="60.39743" lon="17.58983">
        <ele>34.454959</ele>
        <time>2020-08-30T03:58:05.988Z</time>
      </trkpt>
      <trkpt lat="60.39685" lon="17.58995">
        <ele>35.712716</ele>
        <time>2020-08-30T03:58:20.681Z</time>
      </trkpt>
      <trkpt lat="60.39623" lon="17.59001">
        <ele>37.042088</ele>
        <time>2020-08-30T03:58:35.764Z</time>
      </trkpt>
      <trkpt lat="60.39563" lon="17.59018">
        <ele>37.941563</ele>
        <time>2020-08-30T03:58:49.957Z</time>
      </trkpt>
      <trkpt lat="60.39549" lon="17.59031">
        <ele>38.103156</ele>
        <time>2020-08-30T03:58:53.366Z</time>
      </trkpt>
      <trkpt lat="60.39532" lon="17.59072">
        <ele>38.391046</ele>
        <time>2020-08-30T03:58:59.197Z</time>
      </trkpt>
      <trkpt lat="60.3951" lon="17.59189">
        <ele>39.052705</ele>
        <time>2020-08-30T03:59:11.588Z</time>
      </trkpt>
      <trkpt lat="60.39487" lon="17.59241">
        <ele>39.424789</ele>
        <time>2020-08-30T03:59:18.247Z</time>
      </trkpt>
      <trkpt lat="60.39464" lon="17.59267">
        <ele>39.673141</ele>
        <time>2020-08-30T03:59:23.356Z</time>
      </trkpt>
      <trkpt lat="60.39428" lon="17.59292">
        <ele>40.020967</ele>
        <time>2020-08-30T03:59:30.951Z</time>
      </trkpt>
      <trkpt lat="60.39334" lon="17.59314">
        <ele>40.899175</ele>
        <time>2020-08-30T03:59:50.840Z</time>
      </trkpt>
      <trkpt lat="60.39278" lon="17.59336">
        <ele>41.63078</ele>
        <time>2020-08-30T04:00:03.219Z</time>
      </trkpt>
      <trkpt lat="60.3925" lon="17.59366">
        <ele>42.145688</ele>
        <time>2020-08-30T04:00:10.554Z</time>
      </trkpt>
      <trkpt lat="60.3918" lon="17.5949">
        <ele>43.635002</ele>
        <time>2020-08-30T04:00:32.774Z</time>
      </trkpt>
      <trkpt lat="60.38997" lon="17.59621">
        <ele>46.295007</ele>
        <time>2020-08-30T04:01:16.520Z</time>
      </trkpt>
      <trkpt lat="60.38947" lon="17.59637">
        <ele>46.503941</ele>
        <time>2020-08-30T04:01:26.367Z</time>
      </trkpt>
      <trkpt lat="60.38912" lon="17.59665">
        <ele>46.575011</ele>
        <time>2020-08-30T04:01:33.209Z</time>
      </trkpt>
      <trkpt lat="60.389" lon="17.59675">
        <ele>46.599171</ele>
        <time>2020-08-30T04:01:35.157Z</time>
      </trkpt>
      <trkpt lat="60.3889" lon="17.59692">
        <ele>46.624507</ele>
        <time>2020-08-30T04:01:37.757Z</time>
      </trkpt>
      <trkpt lat="60.38859" lon="17.59788">
        <ele>46.73114</ele>
        <time>2020-08-30T04:01:47.205Z</time>
      </trkpt>
      <trkpt lat="60.3881" lon="17.60106">
        <ele>47.919933</ele>
        <time>2020-08-30T04:02:19.643Z</time>
      </trkpt>
      <trkpt lat="60.38807" lon="17.60133">
        <ele>48.027783</ele>
        <time>2020-08-30T04:02:22.758Z</time>
      </trkpt>
      <trkpt lat="60.38799" lon="17.60189">
        <ele>48.386324</ele>
        <time>2020-08-30T04:02:29.450Z</time>
      </trkpt>
      <trkpt lat="60.38788" lon="17.60252">
        <ele>49.115517</ele>
        <time>2020-08-30T04:02:37.220Z</time>
      </trkpt>
      <trkpt lat="60.3876" lon="17.60347">
        <ele>50.324431</ele>
        <time>2020-08-30T04:02:50.674Z</time>
      </trkpt>
      <trkpt lat="60.38708" lon="17.60513">
        <ele>52.58715</ele>
        <time>2020-08-30T04:03:16.222Z</time>
      </trkpt>
      <trkpt lat="60.38674" lon="17.60601">
        <ele>54.222572</ele>
        <time>2020-08-30T04:03:31.246Z</time>
      </trkpt>
      <trkpt lat="60.38655" lon="17.6072">
        <ele>56.076401</ele>
        <time>2020-08-30T04:03:48.534Z</time>
      </trkpt>
      <trkpt lat="60.38637" lon="17.60791">
        <ele>57.258208</ele>
        <time>2020-08-30T04:03:59.910Z</time>
      </trkpt>
      <trkpt lat="60.38634" lon="17.60916">
        <ele>58.652558</ele>
        <time>2020-08-30T04:04:16.352Z</time>
      </trkpt>
      <trkpt lat="60.38645" lon="17.61055">
        <ele>60.133579</ele>
        <time>2020-08-30T04:04:33.278Z</time>
      </trkpt>
      <trkpt lat="60.38644" lon="17.61067">
        <ele>60.267801</ele>
        <time>2020-08-30T04:04:35.207Z</time>
      </trkpt>
      <trkpt lat="60.38629" lon="17.61193">
        <ele>61.463006</ele>
        <time>2020-08-30T04:04:49.263Z</time>
      </trkpt>
      <trkpt lat="60.38617" lon="17.61281">
        <ele>61.787263</ele>
        <time>2020-08-30T04:04:59.210Z</time>
      </trkpt>
      <trkpt lat="60.38607" lon="17.61321">
        <ele>61.94841</ele>
        <time>2020-08-30T04:05:03.448Z</time>
      </trkpt>
      <trkpt lat="60.38595" lon="17.6134">
        <ele>62.06197</ele>
        <time>2020-08-30T04:05:06.954Z</time>
      </trkpt>
      <trkpt lat="60.38559" lon="17.6137">
        <ele>62.340966</ele>
        <time>2020-08-30T04:05:14.031Z</time>
      </trkpt>
      <trkpt lat="60.3854" lon="17.6143">
        <ele>62.598781</ele>
        <time>2020-08-30T04:05:20.678Z</time>
      </trkpt>
      <trkpt lat="60.38516" lon="17.61555">
        <ele>62.424803</ele>
        <time>2020-08-30T04:05:32.968Z</time>
      </trkpt>
      <trkpt lat="60.3846" lon="17.6163">
        <ele>62.113685</ele>
        <time>2020-08-30T04:05:44.423Z</time>
      </trkpt>
      <trkpt lat="60.38438" lon="17.61685">
        <ele>61.952483</ele>
        <time>2020-08-30T04:05:49.839Z</time>
      </trkpt>
      <trkpt lat="60.38428" lon="17.61725">
        <ele>61.847971</ele>
        <time>2020-08-30T04:05:53.244Z</time>
      </trkpt>
      <trkpt lat="60.38407" lon="17.61867">
        <ele>60.545497</ele>
        <time>2020-08-30T04:06:03.804Z</time>
      </trkpt>
      <trkpt lat="60.38389" lon="17.61931">
        <ele>59.899508</ele>
        <time>2020-08-30T04:06:08.886Z</time>
      </trkpt>
      <trkpt lat="60.38363" lon="17.61952">
        <ele>59.39306</ele>
        <time>2020-08-30T04:06:12.808Z</time>
      </trkpt>
      <trkpt lat="60.38305" lon="17.61967">
        <ele>58.497314</ele>
        <time>2020-08-30T04:06:20.901Z</time>
      </trkpt>
      <trkpt lat="60.38191" lon="17.6191">
        <ele>57.502689</ele>
        <time>2020-08-30T04:06:39.088Z</time>
      </trkpt>
      <trkpt lat="60.38163" lon="17.61906">
        <ele>57.268017</ele>
        <time>2020-08-30T04:06:43.893Z</time>
      </trkpt>
      <trkpt lat="60.38139" lon="17.6192">
        <ele>57.172382</ele>
        <time>2020-08-30T04:06:48.689Z</time>
      </trkpt>
      <trkpt lat="60.38134" lon="17.61924">
        <ele>57.215382</ele>
        <time>2020-08-30T04:06:49.486Z</time>
      </trkpt>
      <trkpt lat="60.38124" lon="17.61935">
        <ele>57.313585</ele>
        <time>2020-08-30T04:06:52.352Z</time>
      </trkpt>
      <trkpt lat="60.381" lon="17.61972">
        <ele>57.567298</ele>
        <time>2020-08-30T04:06:58.209Z</time>
      </trkpt>
      <trkpt lat="60.38068" lon="17.62046">
        <ele>57.976448</ele>
        <time>2020-08-30T04:07:08.647Z</time>
      </trkpt>
      <trkpt lat="60.38038" lon="17.62092">
        <ele>58.291387</ele>
        <time>2020-08-30T04:07:16.762Z</time>
      </trkpt>
      <trkpt lat="60.38029" lon="17.62116">
        <ele>58.415524</ele>
        <time>2020-08-30T04:07:19.635Z</time>
      </trkpt>
      <trkpt lat="60.38015" lon="17.62169">
        <ele>58.659801</ele>
        <time>2020-08-30T04:07:26.591Z</time>
      </trkpt>
      <trkpt lat="60.37999" lon="17.62274">
        <ele>59.004675</ele>
        <time>2020-08-30T04:07:37.410Z</time>
      </trkpt>
      <trkpt lat="60.37972" lon="17.62343">
        <ele>59.280164</ele>
        <time>2020-08-30T04:07:45.756Z</time>
      </trkpt>
      <trkpt lat="60.37922" lon="17.62389">
        <ele>59.631981</ele>
        <time>2020-08-30T04:07:56.371Z</time>
      </trkpt>
      <trkpt lat="60.37852" lon="17.62477">
        <ele>59.964348</ele>
        <time>2020-08-30T04:08:12.800Z</time>
      </trkpt>
      <trkpt lat="60.37844" lon="17.62509">
        <ele>60.018209</ele>
        <time>2020-08-30T04:08:16.237Z</time>
      </trkpt>
      <trkpt lat="60.37849" lon="17.62627">
        <ele>60.200316</ele>
        <time>2020-08-30T04:08:27.833Z</time>
      </trkpt>
      <trkpt lat="60.37843" lon="17.62687">
        <ele>60.293931</ele>
        <time>2020-08-30T04:08:33.381Z</time>
      </trkpt>
      <trkpt lat="60.37764" lon="17.62807">
        <ele>58.629925</ele>
        <time>2020-08-30T04:08:48.803Z</time>
      </trkpt>
      <trkpt lat="60.37729" lon="17.62904">
        <ele>57.452216</ele>
        <time>2020-08-30T04:08:56.823Z</time>
      </trkpt>
      <trkpt lat="60.37708" lon="17.63002">
        <ele>56.0763</ele>
        <time>2020-08-30T04:09:03.646Z</time>
      </trkpt>
      <trkpt lat="60.3766" lon="17.6307">
        <ele>53.88939</ele>
        <time>2020-08-30T04:09:10.867Z</time>
      </trkpt>
      <trkpt lat="60.37598" lon="17.63114">
        <ele>51.394203</ele>
        <time>2020-08-30T04:09:19.112Z</time>
      </trkpt>
      <trkpt lat="60.37528" lon="17.63217">
        <ele>49.454875</ele>
        <time>2020-08-30T04:09:30.562Z</time>
      </trkpt>
      <trkpt lat="60.37512" lon="17.63263">
        <ele>49.159427</ele>
        <time>2020-08-30T04:09:34.505Z</time>
      </trkpt>
      <trkpt lat="60.37483" lon="17.63405">
        <ele>48.341092</ele>
        <time>2020-08-30T04:09:46.905Z</time>
      </trkpt>
      <trkpt lat="60.37469" lon="17.63444">
        <ele>48.081927</ele>
        <time>2020-08-30T04:09:51.780Z</time>
      </trkpt>
      <trkpt lat="60.37443" lon="17.63473">
        <ele>48.633787</ele>
        <time>2020-08-30T04:09:58.531Z</time>
      </trkpt>
      <trkpt lat="60.37371" lon="17.63515">
        <ele>50.287721</ele>
        <time>2020-08-30T04:10:18.077Z</time>
      </trkpt>
      <trkpt lat="60.37221" lon="17.63595">
        <ele>53.496125</ele>
        <time>2020-08-30T04:10:58.616Z</time>
      </trkpt>
      <trkpt lat="60.37158" lon="17.63622">
        <ele>54.745416</ele>
        <time>2020-08-30T04:11:13.951Z</time>
      </trkpt>
      <trkpt lat="60.37045" lon="17.63695">
        <ele>56.337896</ele>
        <time>2020-08-30T04:11:38.590Z</time>
      </trkpt>
      <trkpt lat="60.37011" lon="17.63727">
        <ele>56.737194</ele>
        <time>2020-08-30T04:11:46.468Z</time>
      </trkpt>
      <trkpt lat="60.36971" lon="17.63791">
        <ele>57.272572</ele>
        <time>2020-08-30T04:11:57.503Z</time>
      </trkpt>
      <trkpt lat="60.36947" lon="17.6386">
        <ele>57.653043</ele>
        <time>2020-08-30T04:12:06.538Z</time>
      </trkpt>
      <trkpt lat="60.36903" lon="17.64027">
        <ele>58.454251</ele>
        <time>2020-08-30T04:12:26.413Z</time>
      </trkpt>
      <trkpt lat="60.3679" lon="17.64372">
        <ele>59.32265</ele>
        <time>2020-08-30T04:13:05.775Z</time>
      </trkpt>
      <trkpt lat="60.36774" lon="17.64412">
        <ele>59.390198</ele>
        <time>2020-08-30T04:13:10.205Z</time>
      </trkpt>
      <trkpt lat="60.36718" lon="17.64499">
        <ele>58.666193</ele>
        <time>2020-08-30T04:13:21.759Z</time>
      </trkpt>
      <trkpt lat="60.36666" lon="17.64553">
        <ele>57.99054</ele>
        <time>2020-08-30T04:13:30.779Z</time>
      </trkpt>
      <trkpt lat="60.36658" lon="17.64556">
        <ele>57.901606</ele>
        <time>2020-08-30T04:13:31.927Z</time>
      </trkpt>
      <trkpt lat="60.36633" lon="17.64563">
        <ele>57.614234</ele>
        <time>2020-08-30T04:13:35.597Z</time>
      </trkpt>
      <trkpt lat="60.36356" lon="17.64582">
        <ele>51.975312</ele>
        <time>2020-08-30T04:14:13.559Z</time>
      </trkpt>
      <trkpt lat="60.36295" lon="17.64571">
        <ele>50.982774</ele>
        <time>2020-08-30T04:14:22.510Z</time>
      </trkpt>
      <trkpt lat="60.36225" lon="17.64544">
        <ele>50.345571</ele>
        <time>2020-08-30T04:14:33.853Z</time>
      </trkpt>
      <trkpt lat="60.36229" lon="17.64278">
        <ele>50.707877</ele>
        <time>2020-08-30T04:15:14.941Z</time>
      </trkpt>
      <trkpt lat="60.36226" lon="17.64199">
        <ele>50.819926</ele>
        <time>2020-08-30T04:15:27.899Z</time>
      </trkpt>
      <trkpt lat="60.3622" lon="17.64163">
        <ele>50.874412</ele>
        <time>2020-08-30T04:15:33.954Z</time>
      </trkpt>
      <trkpt lat="60.36181" lon="17.64066">
        <ele>51.056202</ele>
        <time>2020-08-30T04:15:53.591Z</time>
      </trkpt>
      <trkpt lat="60.36174" lon="17.64021">
        <ele>51.125775</ele>
        <time>2020-08-30T04:16:00.835Z</time>
      </trkpt>
      <trkpt lat="60.36159" lon="17.63826">
        <ele>51.059607</ele>
        <time>2020-08-30T04:16:28.968Z</time>
      </trkpt>
      <trkpt lat="60.36152" lon="17.63804">
        <ele>50.979462</ele>
        <time>2020-08-30T04:16:32.604Z</time>
      </trkpt>
      <trkpt lat="60.36145" lon="17.6379">
        <ele>50.918034</ele>
        <time>2020-08-30T04:16:35.400Z</time>
      </trkpt>
      <trkpt lat="60.36061" lon="17.63705">
        <ele>50.345119</ele>
        <time>2020-08-30T04:17:01.188Z</time>
      </trkpt>
      <trkpt lat="60.36021" lon="17.63681">
        <ele>50.112434</ele>
        <time>2020-08-30T04:17:12.733Z</time>
      </trkpt>
      <trkpt lat="60.3595" lon="17.63588">
        <ele>49.713417</ele>
        <time>2020-08-30T04:17:36.309Z</time>
      </trkpt>
      <trkpt lat="60.35914" lon="17.63552">
        <ele>49.521693</ele>
        <time>2020-08-30T04:17:47.969Z</time>
      </trkpt>
      <trkpt lat="60.35809" lon="17.6344">
        <ele>49.363914</ele>
        <time>2020-08-30T04:18:22.710Z</time>
      </trkpt>
      <trkpt lat="60.35914" lon="17.63552">
        <ele>49.487537</ele>
        <time>2020-08-30T04:18:58.207Z</time>
      </trkpt>
      <trkpt lat="60.3595" lon="17.63588">
        <ele>49.700273</ele>
        <time>2020-08-30T04:19:10.717Z</time>
      </trkpt>
      <trkpt lat="60.36021" lon="17.63681">
        <ele>50.143021</ele>
        <time>2020-08-30T04:19:37.508Z</time>
      </trkpt>
      <trkpt lat="60.36061" lon="17.63705">
        <ele>50.365528</ele>
        <time>2020-08-30T04:19:51.051Z</time>
      </trkpt>
      <trkpt lat="60.36145" lon="17.6379">
        <ele>50.890679</ele>
        <time>2020-08-30T04:20:21.152Z</time>
      </trkpt>
      <trkpt lat="60.36152" lon="17.63804">
        <ele>50.946986</ele>
        <time>2020-08-30T04:20:24.340Z</time>
      </trkpt>
      <trkpt lat="60.36159" lon="17.63826">
        <ele>51.020449</ele>
        <time>2020-08-30T04:20:28.508Z</time>
      </trkpt>
      <trkpt lat="60.36174" lon="17.64021">
        <ele>51.16079</ele>
        <time>2020-08-30T04:20:58.360Z</time>
      </trkpt>
      <trkpt lat="60.36181" lon="17.64066">
        <ele>51.054349</ele>
        <time>2020-08-30T04:21:05.186Z</time>
      </trkpt>
      <trkpt lat="60.3622" lon="17.64163">
        <ele>50.77623</ele>
        <time>2020-08-30T04:21:22.383Z</time>
      </trkpt>
      <trkpt lat="60.36226" lon="17.64199">
        <ele>50.692872</ele>
        <time>2020-08-30T04:21:27.443Z</time>
      </trkpt>
      <trkpt lat="60.36229" lon="17.64278">
        <ele>50.50096</ele>
        <time>2020-08-30T04:21:38.115Z</time>
      </trkpt>
      <trkpt lat="60.36225" lon="17.64544">
        <ele>49.373779</ele>
        <time>2020-08-30T04:22:13.785Z</time>
      </trkpt>
      <trkpt lat="60.36203" lon="17.64542">
        <ele>49.178922</ele>
        <time>2020-08-30T04:22:17.440Z</time>
      </trkpt>
      <trkpt lat="60.36127" lon="17.64543">
        <ele>48.852876</ele>
        <time>2020-08-30T04:22:29.891Z</time>
      </trkpt>
      <trkpt lat="60.36067" lon="17.64522">
        <ele>48.696914</ele>
        <time>2020-08-30T04:22:40.574Z</time>
      </trkpt>
      <trkpt lat="60.35996" lon="17.64539">
        <ele>48.50598</ele>
        <time>2020-08-30T04:22:53.260Z</time>
      </trkpt>
      <trkpt lat="60.35918" lon="17.6459">
        <ele>48.143816</ele>
        <time>2020-08-30T04:23:07.088Z</time>
      </trkpt>
      <trkpt lat="60.35881" lon="17.6459">
        <ele>47.984548</ele>
        <time>2020-08-30T04:23:13.008Z</time>
      </trkpt>
      <trkpt lat="60.35861" lon="17.64585">
        <ele>47.893085</ele>
        <time>2020-08-30T04:23:16.449Z</time>
      </trkpt>
      <trkpt lat="60.35838" lon="17.64579">
        <ele>47.793677</ele>
        <time>2020-08-30T04:23:20.069Z</time>
      </trkpt>
      <trkpt lat="60.3581" lon="17.64568">
        <ele>47.704923</ele>
        <time>2020-08-30T04:23:24.730Z</time>
      </trkpt>
      <trkpt lat="60.35765" lon="17.64501">
        <ele>47.578822</ele>
        <time>2020-08-30T04:23:34.022Z</time>
      </trkpt>
      <trkpt lat="60.35742" lon="17.64483">
        <ele>47.525998</ele>
        <time>2020-08-30T04:23:37.820Z</time>
      </trkpt>
      <trkpt lat="60.35602" lon="17.64451">
        <ele>47.722969</ele>
        <time>2020-08-30T04:24:03.763Z</time>
      </trkpt>
      <trkpt lat="60.35371" lon="17.64342">
        <ele>49.225365</ele>
        <time>2020-08-30T04:24:53.172Z</time>
      </trkpt>
      <trkpt lat="60.35338" lon="17.64336">
        <ele>49.421692</ele>
        <time>2020-08-30T04:24:59.147Z</time>
      </trkpt>
      <trkpt lat="60.35283" lon="17.64307">
        <ele>49.757367</ele>
        <time>2020-08-30T04:25:08.978Z</time>
      </trkpt>
      <trkpt lat="60.35247" lon="17.64298">
        <ele>49.97094</ele>
        <time>2020-08-30T04:25:15.544Z</time>
      </trkpt>
      <trkpt lat="60.35235" lon="17.64283">
        <ele>50.055528</ele>
        <time>2020-08-30T04:25:18.288Z</time>
      </trkpt>
      <trkpt lat="60.35214" lon="17.64168">
        <ele>50.409615</ele>
        <time>2020-08-30T04:25:29.543Z</time>
      </trkpt>
      <trkpt lat="60.35199" lon="17.64134">
        <ele>50.540607</ele>
        <time>2020-08-30T04:25:34.108Z</time>
      </trkpt>
      <trkpt lat="60.3509" lon="17.64068">
        <ele>52.722498</ele>
        <time>2020-08-30T04:26:02.519Z</time>
      </trkpt>
      <trkpt lat="60.35055" lon="17.63989">
        <ele>53.872321</ele>
        <time>2020-08-30T04:26:17.396Z</time>
      </trkpt>
      <trkpt lat="60.35" lon="17.63945">
        <ele>54.727227</ele>
        <time>2020-08-30T04:26:31.026Z</time>
      </trkpt>
      <trkpt lat="60.34987" lon="17.6394">
        <ele>54.773618</ele>
        <time>2020-08-30T04:26:35.083Z</time>
      </trkpt>
      <trkpt lat="60.34976" lon="17.63937">
        <ele>54.812507</ele>
        <time>2020-08-30T04:26:36.744Z</time>
      </trkpt>
      <trkpt lat="60.3496" lon="17.63939">
        <ele>54.869163</ele>
        <time>2020-08-30T04:26:40.229Z</time>
      </trkpt>
      <trkpt lat="60.34941" lon="17.63955">
        <ele>54.943855</ele>
        <time>2020-08-30T04:26:44.476Z</time>
      </trkpt>
      <trkpt lat="60.34887" lon="17.64072">
        <ele>55.227201</ele>
        <time>2020-08-30T04:26:58.405Z</time>
      </trkpt>
      <trkpt lat="60.34783" lon="17.64208">
        <ele>52.900714</ele>
        <time>2020-08-30T04:27:15.810Z</time>
      </trkpt>
      <trkpt lat="60.34701" lon="17.64291">
        <ele>50.873715</ele>
        <time>2020-08-30T04:27:28.166Z</time>
      </trkpt>
      <trkpt lat="60.34696" lon="17.64301">
        <ele>50.698186</ele>
        <time>2020-08-30T04:27:29.280Z</time>
      </trkpt>
      <trkpt lat="60.34692" lon="17.64315">
        <ele>50.508282</ele>
        <time>2020-08-30T04:27:30.199Z</time>
      </trkpt>
      <trkpt lat="60.34654" lon="17.64547">
        <ele>47.674676</ele>
        <time>2020-08-30T04:27:46.696Z</time>
      </trkpt>
      <trkpt lat="60.34651" lon="17.64579">
        <ele>47.28975</ele>
        <time>2020-08-30T04:27:49.181Z</time>
      </trkpt>
      <trkpt lat="60.34653" lon="17.64607">
        <ele>47.14311</ele>
        <time>2020-08-30T04:27:50.952Z</time>
      </trkpt>
      <trkpt lat="60.34674" lon="17.64657">
        <ele>47.171526</ele>
        <time>2020-08-30T04:27:56.389Z</time>
      </trkpt>
      <trkpt lat="60.34738" lon="17.64731">
        <ele>47.236333</ele>
        <time>2020-08-30T04:28:10.360Z</time>
      </trkpt>
      <trkpt lat="60.34746" lon="17.64755">
        <ele>47.248498</ele>
        <time>2020-08-30T04:28:13.273Z</time>
      </trkpt>
      <trkpt lat="60.34755" lon="17.64825">
        <ele>47.279819</ele>
        <time>2020-08-30T04:28:20.752Z</time>
      </trkpt>
      <trkpt lat="60.34784" lon="17.64924">
        <ele>47.368498</ele>
        <time>2020-08-30T04:28:32.817Z</time>
      </trkpt>
      <trkpt lat="60.34796" lon="17.64959">
        <ele>47.406101</ele>
        <time>2020-08-30T04:28:37.146Z</time>
      </trkpt>
      <trkpt lat="60.34832" lon="17.65012">
        <ele>47.486646</ele>
        <time>2020-08-30T04:28:45.953Z</time>
      </trkpt>
      <trkpt lat="60.34842" lon="17.6504">
        <ele>47.517053</ele>
        <time>2020-08-30T04:28:49.087Z</time>
      </trkpt>
      <trkpt lat="60.34841" lon="17.65245">
        <ele>46.971892</ele>
        <time>2020-08-30T04:29:05.104Z</time>
      </trkpt>
      <trkpt lat="60.34831" lon="17.65384">
        <ele>45.986367</ele>
        <time>2020-08-30T04:29:15.197Z</time>
      </trkpt>
      <trkpt lat="60.34828" lon="17.65443">
        <ele>45.569066</ele>
        <time>2020-08-30T04:29:19.407Z</time>
      </trkpt>
      <trkpt lat="60.34807" lon="17.65603">
        <ele>44.483991</ele>
        <time>2020-08-30T04:29:31.267Z</time>
      </trkpt>
      <trkpt lat="60.34797" lon="17.6574">
        <ele>43.625118</ele>
        <time>2020-08-30T04:29:41.333Z</time>
      </trkpt>
      <trkpt lat="60.34778" lon="17.65878">
        <ele>42.82547</ele>
        <time>2020-08-30T04:29:52.510Z</time>
      </trkpt>
      <trkpt lat="60.34772" lon="17.661">
        <ele>43.125577</ele>
        <time>2020-08-30T04:30:11.950Z</time>
      </trkpt>
      <trkpt lat="60.34755" lon="17.66177">
        <ele>43.240566</ele>
        <time>2020-08-30T04:30:20.493Z</time>
      </trkpt>
      <trkpt lat="60.34749" lon="17.66298">
        <ele>44.097289</ele>
        <time>2020-08-30T04:30:33.658Z</time>
      </trkpt>
      <trkpt lat="60.3472" lon="17.66548">
        <ele>46.770199</ele>
        <time>2020-08-30T04:31:06.089Z</time>
      </trkpt>
      <trkpt lat="60.34742" lon="17.66696">
        <ele>48.031407</ele>
        <time>2020-08-30T04:31:25.784Z</time>
      </trkpt>
      <trkpt lat="60.34742" lon="17.66709">
        <ele>48.132734</ele>
        <time>2020-08-30T04:31:27.757Z</time>
      </trkpt>
      <trkpt lat="60.34743" lon="17.66719">
        <ele>48.208935</ele>
        <time>2020-08-30T04:31:29.171Z</time>
      </trkpt>
      <trkpt lat="60.34735" lon="17.66822">
        <ele>48.999179</ele>
        <time>2020-08-30T04:31:40.973Z</time>
      </trkpt>
      <trkpt lat="60.34731" lon="17.6707">
        <ele>48.812999</ele>
        <time>2020-08-30T04:32:03.728Z</time>
      </trkpt>
      <trkpt lat="60.34764" lon="17.67271">
        <ele>47.186632</ele>
        <time>2020-08-30T04:32:18.080Z</time>
      </trkpt>
      <trkpt lat="60.34764" lon="17.67431">
        <ele>45.137643</ele>
        <time>2020-08-30T04:32:28.376Z</time>
      </trkpt>
      <trkpt lat="60.34797" lon="17.67608">
        <ele>42.605332</ele>
        <time>2020-08-30T04:32:40.898Z</time>
      </trkpt>
      <trkpt lat="60.34824" lon="17.67801">
        <ele>41.796852</ele>
        <time>2020-08-30T04:32:55.688Z</time>
      </trkpt>
      <trkpt lat="60.34849" lon="17.68073">
        <ele>41.68168</ele>
        <time>2020-08-30T04:33:22.354Z</time>
      </trkpt>
      <trkpt lat="60.34853" lon="17.6816">
        <ele>42.048859</ele>
        <time>2020-08-30T04:33:31.667Z</time>
      </trkpt>
      <trkpt lat="60.34854" lon="17.68221">
        <ele>42.303823</ele>
        <time>2020-08-30T04:33:38.044Z</time>
      </trkpt>
      <trkpt lat="60.34837" lon="17.68337">
        <ele>42.813599</ele>
        <time>2020-08-30T04:33:50.534Z</time>
      </trkpt>
      <trkpt lat="60.34843" lon="17.68401">
        <ele>42.812888</ele>
        <time>2020-08-30T04:33:56.932Z</time>
      </trkpt>
      <trkpt lat="60.34834" lon="17.68477">
        <ele>42.747025</ele>
        <time>2020-08-30T04:34:04.352Z</time>
      </trkpt>
      <trkpt lat="60.34831" lon="17.68556">
        <ele>42.680074</ele>
        <time>2020-08-30T04:34:11.255Z</time>
      </trkpt>
      <trkpt lat="60.34824" lon="17.68605">
        <ele>42.637475</ele>
        <time>2020-08-30T04:34:15.397Z</time>
      </trkpt>
      <trkpt lat="60.3479" lon="17.68735">
        <ele>42.352411</ele>
        <time>2020-08-30T04:34:26.764Z</time>
      </trkpt>
      <trkpt lat="60.34779" lon="17.68796">
        <ele>42.079287</ele>
        <time>2020-08-30T04:34:31.549Z</time>
      </trkpt>
      <trkpt lat="60.34776" lon="17.68922">
        <ele>41.53994</ele>
        <time>2020-08-30T04:34:40.842Z</time>
      </trkpt>
      <trkpt lat="60.34787" lon="17.69223">
        <ele>41.504586</ele>
        <time>2020-08-30T04:35:06.532Z</time>
      </trkpt>
      <trkpt lat="60.34788" lon="17.69252">
        <ele>41.586954</ele>
        <time>2020-08-30T04:35:09.193Z</time>
      </trkpt>
      <trkpt lat="60.34789" lon="17.69277">
        <ele>41.66028</ele>
        <time>2020-08-30T04:35:12.576Z</time>
      </trkpt>
      <trkpt lat="60.34785" lon="17.69323">
        <ele>41.791586</ele>
        <time>2020-08-30T04:35:17.062Z</time>
      </trkpt>
      <trkpt lat="60.34763" lon="17.69398">
        <ele>42.04566</ele>
        <time>2020-08-30T04:35:27.190Z</time>
      </trkpt>
      <trkpt lat="60.34764" lon="17.69454">
        <ele>42.401498</ele>
        <time>2020-08-30T04:35:33.208Z</time>
      </trkpt>
      <trkpt lat="60.3477" lon="17.69527">
        <ele>42.87305</ele>
        <time>2020-08-30T04:35:41.750Z</time>
      </trkpt>
      <trkpt lat="60.34722" lon="17.69433">
        <ele>43.737017</ele>
        <time>2020-08-30T04:35:57.766Z</time>
      </trkpt>
      <trkpt lat="60.34681" lon="17.69363">
        <ele>44.356968</ele>
        <time>2020-08-30T04:36:09.130Z</time>
      </trkpt>
      <trkpt lat="60.34677" lon="17.69358">
        <ele>44.349911</ele>
        <time>2020-08-30T04:36:09.991Z</time>
      </trkpt>
      <trkpt lat="60.34665" lon="17.69344">
        <ele>44.326877</ele>
        <time>2020-08-30T04:36:12.945Z</time>
      </trkpt>
      <trkpt lat="60.34607" lon="17.69299">
        <ele>44.227959</ele>
        <time>2020-08-30T04:36:23.776Z</time>
      </trkpt>
      <trkpt lat="60.34566" lon="17.69281">
        <ele>44.160156</ele>
        <time>2020-08-30T04:36:31.097Z</time>
      </trkpt>
      <trkpt lat="60.34405" lon="17.69325">
        <ele>44.09968</ele>
        <time>2020-08-30T04:36:59.413Z</time>
      </trkpt>
      <trkpt lat="60.34354" lon="17.69315">
        <ele>44.110526</ele>
        <time>2020-08-30T04:37:09.375Z</time>
      </trkpt>
      <trkpt lat="60.34323" lon="17.69299">
        <ele>44.304631</ele>
        <time>2020-08-30T04:37:16.341Z</time>
      </trkpt>
      <trkpt lat="60.34314" lon="17.69293">
        <ele>44.436333</ele>
        <time>2020-08-30T04:37:18.067Z</time>
      </trkpt>
      <trkpt lat="60.34307" lon="17.69288">
        <ele>44.526081</ele>
        <time>2020-08-30T04:37:20.153Z</time>
      </trkpt>
      <trkpt lat="60.34277" lon="17.69243">
        <ele>45.037204</ele>
        <time>2020-08-30T04:37:28.561Z</time>
      </trkpt>
      <trkpt lat="60.34247" lon="17.69116">
        <ele>45.994801</ele>
        <time>2020-08-30T04:37:45.173Z</time>
      </trkpt>
      <trkpt lat="60.34221" lon="17.69071">
        <ele>46.464224</ele>
        <time>2020-08-30T04:37:53.435Z</time>
      </trkpt>
      <trkpt lat="60.34147" lon="17.69002">
        <ele>47.38101</ele>
        <time>2020-08-30T04:38:12.565Z</time>
      </trkpt>
      <trkpt lat="60.34075" lon="17.68958">
        <ele>48.200803</ele>
        <time>2020-08-30T04:38:28.925Z</time>
      </trkpt>
      <trkpt lat="60.34044" lon="17.68921">
        <ele>48.533776</ele>
        <time>2020-08-30T04:38:36.181Z</time>
      </trkpt>
      <trkpt lat="60.34005" lon="17.68843">
        <ele>48.368311</ele>
        <time>2020-08-30T04:38:46.793Z</time>
      </trkpt>
      <trkpt lat="60.33977" lon="17.68803">
        <ele>48.265602</ele>
        <time>2020-08-30T04:38:53.052Z</time>
      </trkpt>
      <trkpt lat="60.33776" lon="17.68584">
        <ele>46.603538</ele>
        <time>2020-08-30T04:39:30.377Z</time>
      </trkpt>
      <trkpt lat="60.33738" lon="17.68561">
        <ele>46.224784</ele>
        <time>2020-08-30T04:39:36.586Z</time>
      </trkpt>
      <trkpt lat="60.33687" lon="17.6855">
        <ele>46.024296</ele>
        <time>2020-08-30T04:39:44.746Z</time>
      </trkpt>
      <trkpt lat="60.33648" lon="17.68558">
        <ele>45.869136</ele>
        <time>2020-08-30T04:39:51.339Z</time>
      </trkpt>
      <trkpt lat="60.3356" lon="17.68593">
        <ele>45.548804</ele>
        <time>2020-08-30T04:40:07.822Z</time>
      </trkpt>
      <trkpt lat="60.33441" lon="17.68667">
        <ele>46.910032</ele>
        <time>2020-08-30T04:40:35.321Z</time>
      </trkpt>
      <trkpt lat="60.33385" lon="17.68711">
        <ele>47.604001</ele>
        <time>2020-08-30T04:40:49.585Z</time>
      </trkpt>
      <trkpt lat="60.3322" lon="17.69006">
        <ele>50.949626</ele>
        <time>2020-08-30T04:41:41.595Z</time>
      </trkpt>
      <trkpt lat="60.3304" lon="17.69305">
        <ele>52.995617</ele>
        <time>2020-08-30T04:42:34.128Z</time>
      </trkpt>
      <trkpt lat="60.33" lon="17.69358">
        <ele>53.140306</ele>
        <time>2020-08-30T04:42:42.603Z</time>
      </trkpt>
      <trkpt lat="60.32954" lon="17.69393">
        <ele>52.909282</ele>
        <time>2020-08-30T04:42:50.498Z</time>
      </trkpt>
      <trkpt lat="60.32797" lon="17.69441">
        <ele>49.957505</ele>
        <time>2020-08-30T04:43:13.732Z</time>
      </trkpt>
      <trkpt lat="60.32721" lon="17.6949">
        <ele>49.060036</ele>
        <time>2020-08-30T04:43:25.626Z</time>
      </trkpt>
      <trkpt lat="60.32651" lon="17.69553">
        <ele>48.21794</ele>
        <time>2020-08-30T04:43:38.246Z</time>
      </trkpt>
      <trkpt lat="60.32587" lon="17.69653">
        <ele>48.48242</ele>
        <time>2020-08-30T04:43:53.891Z</time>
      </trkpt>
      <trkpt lat="60.32539" lon="17.697">
        <ele>49.034996</ele>
        <time>2020-08-30T04:44:05.780Z</time>
      </trkpt>
      <trkpt lat="60.32495" lon="17.69715">
        <ele>49.50139</ele>
        <time>2020-08-30T04:44:16.502Z</time>
      </trkpt>
      <trkpt lat="60.32423" lon="17.69713">
        <ele>50.643881</ele>
        <time>2020-08-30T04:44:34.246Z</time>
      </trkpt>
      <trkpt lat="60.3237" lon="17.69738">
        <ele>51.689397</ele>
        <time>2020-08-30T04:44:47.769Z</time>
      </trkpt>
      <trkpt lat="60.32339" lon="17.69764">
        <ele>52.34042</ele>
        <time>2020-08-30T04:44:56.143Z</time>
      </trkpt>
      <trkpt lat="60.323" lon="17.69822">
        <ele>53.260822</ele>
        <time>2020-08-30T04:45:07.901Z</time>
      </trkpt>
      <trkpt lat="60.32235" lon="17.70024">
        <ele>55.338191</ele>
        <time>2020-08-30T04:45:36.927Z</time>
      </trkpt>
      <trkpt lat="60.3221" lon="17.70085">
        <ele>56.009885</ele>
        <time>2020-08-30T04:45:46.193Z</time>
      </trkpt>
      <trkpt lat="60.322" lon="17.70098">
        <ele>56.22537</ele>
        <time>2020-08-30T04:45:49.146Z</time>
      </trkpt>
      <trkpt lat="60.32116" lon="17.70142">
        <ele>57.348881</ele>
        <time>2020-08-30T04:46:09.888Z</time>
      </trkpt>
      <trkpt lat="60.32078" lon="17.70182">
        <ele>57.891008</ele>
        <time>2020-08-30T04:46:20.039Z</time>
      </trkpt>
      <trkpt lat="60.31994" lon="17.70338">
        <ele>58.288132</ele>
        <time>2020-08-30T04:46:43.781Z</time>
      </trkpt>
      <trkpt lat="60.31749" lon="17.70663">
        <ele>55.228895</ele>
        <time>2020-08-30T04:47:29.905Z</time>
      </trkpt>
      <trkpt lat="60.3171" lon="17.70739">
        <ele>54.173736</ele>
        <time>2020-08-30T04:47:38.018Z</time>
      </trkpt>
      <trkpt lat="60.31682" lon="17.70817">
        <ele>53.156958</ele>
        <time>2020-08-30T04:47:45.050Z</time>
      </trkpt>
      <trkpt lat="60.31648" lon="17.70883">
        <ele>52.161378</ele>
        <time>2020-08-30T04:47:51.852Z</time>
      </trkpt>
      <trkpt lat="60.31635" lon="17.70903">
        <ele>51.817766</ele>
        <time>2020-08-30T04:47:54.323Z</time>
      </trkpt>
      <trkpt lat="60.31616" lon="17.70925">
        <ele>51.359899</ele>
        <time>2020-08-30T04:47:57.323Z</time>
      </trkpt>
      <trkpt lat="60.31576" lon="17.70956">
        <ele>50.151091</ele>
        <time>2020-08-30T04:48:03.572Z</time>
      </trkpt>
      <trkpt lat="60.31536" lon="17.70975">
        <ele>48.997374</ele>
        <time>2020-08-30T04:48:09.304Z</time>
      </trkpt>
      <trkpt lat="60.31518" lon="17.70978">
        <ele>48.466432</ele>
        <time>2020-08-30T04:48:11.852Z</time>
      </trkpt>
      <trkpt lat="60.31461" lon="17.70966">
        <ele>46.85728</ele>
        <time>2020-08-30T04:48:19.647Z</time>
      </trkpt>
      <trkpt lat="60.31409" lon="17.7093">
        <ele>45.310633</ele>
        <time>2020-08-30T04:48:27.359Z</time>
      </trkpt>
      <trkpt lat="60.31325" lon="17.70819">
        <ele>42.555054</ele>
        <time>2020-08-30T04:48:41.371Z</time>
      </trkpt>
      <trkpt lat="60.31289" lon="17.70789">
        <ele>41.491402</ele>
        <time>2020-08-30T04:48:46.888Z</time>
      </trkpt>
      <trkpt lat="60.31239" lon="17.70771">
        <ele>40.889033</ele>
        <time>2020-08-30T04:48:54.278Z</time>
      </trkpt>
      <trkpt lat="60.31171" lon="17.70792">
        <ele>40.331741</ele>
        <time>2020-08-30T04:49:04.869Z</time>
      </trkpt>
      <trkpt lat="60.31076" lon="17.70839">
        <ele>40.510625</ele>
        <time>2020-08-30T04:49:24.562Z</time>
      </trkpt>
      <trkpt lat="60.31029" lon="17.70857">
        <ele>41.785923</ele>
        <time>2020-08-30T04:49:36.868Z</time>
      </trkpt>
      <trkpt lat="60.30956" lon="17.70867">
        <ele>43.76796</ele>
        <time>2020-08-30T04:49:58.514Z</time>
      </trkpt>
      <trkpt lat="60.30896" lon="17.70856">
        <ele>45.647715</ele>
        <time>2020-08-30T04:50:18.028Z</time>
      </trkpt>
      <trkpt lat="60.30672" lon="17.70756">
        <ele>52.474241</ele>
        <time>2020-08-30T04:51:26.491Z</time>
      </trkpt>
      <trkpt lat="60.30551" lon="17.70653">
        <ele>53.884953</ele>
        <time>2020-08-30T04:51:52.755Z</time>
      </trkpt>
      <trkpt lat="60.30425" lon="17.70503">
        <ele>52.431679</ele>
        <time>2020-08-30T04:52:15.612Z</time>
      </trkpt>
      <trkpt lat="60.3039" lon="17.70454">
        <ele>51.908196</ele>
        <time>2020-08-30T04:52:22.057Z</time>
      </trkpt>
      <trkpt lat="60.30312" lon="17.70301">
        <ele>50.54444</ele>
        <time>2020-08-30T04:52:38.891Z</time>
      </trkpt>
      <trkpt lat="60.30254" lon="17.70221">
        <ele>50.119587</ele>
        <time>2020-08-30T04:52:50.840Z</time>
      </trkpt>
      <trkpt lat="60.30182" lon="17.70161">
        <ele>50.067521</ele>
        <time>2020-08-30T04:53:05.539Z</time>
      </trkpt>
      <trkpt lat="60.3011" lon="17.70135">
        <ele>50.012025</ele>
        <time>2020-08-30T04:53:20.261Z</time>
      </trkpt>
      <trkpt lat="60.29646" lon="17.70099">
        <ele>48.469258</ele>
        <time>2020-08-30T04:54:43.830Z</time>
      </trkpt>
      <trkpt lat="60.29595" lon="17.70104">
        <ele>47.994747</ele>
        <time>2020-08-30T04:54:51.428Z</time>
      </trkpt>
      <trkpt lat="60.29563" lon="17.70123">
        <ele>47.533449</ele>
        <time>2020-08-30T04:54:56.152Z</time>
      </trkpt>
      <trkpt lat="60.29528" lon="17.70156">
        <ele>46.837111</ele>
        <time>2020-08-30T04:55:01.808Z</time>
      </trkpt>
      <trkpt lat="60.2948" lon="17.70233">
        <ele>45.754743</ele>
        <time>2020-08-30T04:55:10.637Z</time>
      </trkpt>
      <trkpt lat="60.29445" lon="17.7027">
        <ele>45.049854</ele>
        <time>2020-08-30T04:55:16.545Z</time>
      </trkpt>
      <trkpt lat="60.28898" lon="17.70481">
        <ele>42.952414</ele>
        <time>2020-08-30T04:56:55.996Z</time>
      </trkpt>
      <trkpt lat="60.2889" lon="17.70491">
        <ele>42.871894</ele>
        <time>2020-08-30T04:56:58.162Z</time>
      </trkpt>
      <trkpt lat="60.2888" lon="17.7051">
        <ele>42.704584</ele>
        <time>2020-08-30T04:57:00.131Z</time>
      </trkpt>
      <trkpt lat="60.28777" lon="17.70803">
        <ele>40.586105</ele>
        <time>2020-08-30T04:57:27.882Z</time>
      </trkpt>
      <trkpt lat="60.28745" lon="17.70868">
        <ele>40.169839</ele>
        <time>2020-08-30T04:57:35.086Z</time>
      </trkpt>
      <trkpt lat="60.28712" lon="17.70893">
        <ele>39.840976</ele>
        <time>2020-08-30T04:57:40.921Z</time>
      </trkpt>
      <trkpt lat="60.28616" lon="17.70899">
        <ele>38.988405</ele>
        <time>2020-08-30T04:57:57.157Z</time>
      </trkpt>
      <trkpt lat="60.28594" lon="17.70911">
        <ele>38.83229</ele>
        <time>2020-08-30T04:58:00.987Z</time>
      </trkpt>
      <trkpt lat="60.28564" lon="17.7095">
        <ele>38.577327</ele>
        <time>2020-08-30T04:58:07.052Z</time>
      </trkpt>
      <trkpt lat="60.28497" lon="17.71124">
        <ele>37.816829</ele>
        <time>2020-08-30T04:58:25.226Z</time>
      </trkpt>
      <trkpt lat="60.28459" lon="17.71176">
        <ele>37.678999</ele>
        <time>2020-08-30T04:58:32.868Z</time>
      </trkpt>
      <trkpt lat="60.28251" lon="17.71337">
        <ele>37.818525</ele>
        <time>2020-08-30T04:59:13.405Z</time>
      </trkpt>
      <trkpt lat="60.28204" lon="17.71349">
        <ele>38.102155</ele>
        <time>2020-08-30T04:59:23.508Z</time>
      </trkpt>
      <trkpt lat="60.28181" lon="17.71349">
        <ele>38.237095</ele>
        <time>2020-08-30T04:59:28.747Z</time>
      </trkpt>
      <trkpt lat="60.2816" lon="17.71344">
        <ele>38.409568</ele>
        <time>2020-08-30T04:59:33.703Z</time>
      </trkpt>
      <trkpt lat="60.28104" lon="17.71327">
        <ele>39.736364</ele>
        <time>2020-08-30T04:59:47.740Z</time>
      </trkpt>
      <trkpt lat="60.28032" lon="17.71312">
        <ele>41.464467</ele>
        <time>2020-08-30T05:00:07.438Z</time>
      </trkpt>
      <trkpt lat="60.27974" lon="17.71325">
        <ele>42.776996</ele>
        <time>2020-08-30T05:00:23.671Z</time>
      </trkpt>
      <trkpt lat="60.27936" lon="17.71364">
        <ele>43.469</ele>
        <time>2020-08-30T05:00:35.285Z</time>
      </trkpt>
      <trkpt lat="60.27905" lon="17.71422">
        <ele>44.150919</ele>
        <time>2020-08-30T05:00:45.975Z</time>
      </trkpt>
      <trkpt lat="60.2788" lon="17.71453">
        <ele>44.622004</ele>
        <time>2020-08-30T05:00:52.985Z</time>
      </trkpt>
      <trkpt lat="60.27849" lon="17.71466">
        <ele>45.135498</ele>
        <time>2020-08-30T05:00:59.920Z</time>
      </trkpt>
      <trkpt lat="60.27737" lon="17.71452">
        <ele>44.74749</ele>
        <time>2020-08-30T05:01:19.767Z</time>
      </trkpt>
      <trkpt lat="60.27656" lon="17.71409">
        <ele>44.001938</ele>
        <time>2020-08-30T05:01:32.549Z</time>
      </trkpt>
      <trkpt lat="60.27616" lon="17.71409">
        <ele>43.476317</ele>
        <time>2020-08-30T05:01:38.563Z</time>
      </trkpt>
      <trkpt lat="60.27581" lon="17.71421">
        <ele>42.962255</ele>
        <time>2020-08-30T05:01:44.010Z</time>
      </trkpt>
      <trkpt lat="60.27528" lon="17.71472">
        <ele>42.128355</ele>
        <time>2020-08-30T05:01:52.967Z</time>
      </trkpt>
      <trkpt lat="60.27454" lon="17.7158">
        <ele>41.080066</ele>
        <time>2020-08-30T05:02:07.558Z</time>
      </trkpt>
      <trkpt lat="60.27341" lon="17.71716">
        <ele>40.101336</ele>
        <time>2020-08-30T05:02:29.679Z</time>
      </trkpt>
      <trkpt lat="60.27209" lon="17.71945">
        <ele>39.458577</ele>
        <time>2020-08-30T05:03:00.303Z</time>
      </trkpt>
      <trkpt lat="60.27179" lon="17.71974">
        <ele>39.399502</ele>
        <time>2020-08-30T05:03:06.449Z</time>
      </trkpt>
      <trkpt lat="60.27092" lon="17.72002">
        <ele>39.38662</ele>
        <time>2020-08-30T05:03:22.834Z</time>
      </trkpt>
      <trkpt lat="60.27007" lon="17.72069">
        <ele>39.387642</ele>
        <time>2020-08-30T05:03:40.055Z</time>
      </trkpt>
      <trkpt lat="60.26694" lon="17.72086">
        <ele>39.68871</ele>
        <time>2020-08-30T05:04:38.473Z</time>
      </trkpt>
      <trkpt lat="60.26576" lon="17.72141">
        <ele>40.290684</ele>
        <time>2020-08-30T05:05:02.637Z</time>
      </trkpt>
      <trkpt lat="60.26564" lon="17.72147">
        <ele>40.365002</ele>
        <time>2020-08-30T05:05:05.298Z</time>
      </trkpt>
      <trkpt lat="60.26557" lon="17.7215">
        <ele>40.410721</ele>
        <time>2020-08-30T05:05:06.771Z</time>
      </trkpt>
      <trkpt lat="60.26528" lon="17.72149">
        <ele>40.587828</ele>
        <time>2020-08-30T05:05:12.712Z</time>
      </trkpt>
      <trkpt lat="60.2647" lon="17.72121">
        <ele>41.144532</ele>
        <time>2020-08-30T05:05:25.320Z</time>
      </trkpt>
      <trkpt lat="60.26379" lon="17.72065">
        <ele>42.686532</ele>
        <time>2020-08-30T05:05:47.464Z</time>
      </trkpt>
      <trkpt lat="60.26211" lon="17.71943">
        <ele>46.0241</ele>
        <time>2020-08-30T05:06:33.101Z</time>
      </trkpt>
      <trkpt lat="60.2605" lon="17.71753">
        <ele>48.57506</ele>
        <time>2020-08-30T05:07:18.287Z</time>
      </trkpt>
      <trkpt lat="60.26007" lon="17.71713">
        <ele>49.049248</ele>
        <time>2020-08-30T05:07:27.046Z</time>
      </trkpt>
      <trkpt lat="60.2599" lon="17.71696">
        <ele>49.083213</ele>
        <time>2020-08-30T05:07:30.445Z</time>
      </trkpt>
      <trkpt lat="60.25969" lon="17.71683">
        <ele>48.715506</ele>
        <time>2020-08-30T05:07:33.851Z</time>
      </trkpt>
      <trkpt lat="60.25926" lon="17.71666">
        <ele>47.969573</ele>
        <time>2020-08-30T05:07:40.625Z</time>
      </trkpt>
      <trkpt lat="60.25914" lon="17.71663">
        <ele>47.768995</ele>
        <time>2020-08-30T05:07:42.365Z</time>
      </trkpt>
      <trkpt lat="60.259" lon="17.7166">
        <ele>47.541415</ele>
        <time>2020-08-30T05:07:44.212Z</time>
      </trkpt>
      <trkpt lat="60.25848" lon="17.71651">
        <ele>46.664178</ele>
        <time>2020-08-30T05:07:51.404Z</time>
      </trkpt>
      <trkpt lat="60.25765" lon="17.71632">
        <ele>45.064967</ele>
        <time>2020-08-30T05:08:02.812Z</time>
      </trkpt>
      <trkpt lat="60.25704" lon="17.71619">
        <ele>43.824044</ele>
        <time>2020-08-30T05:08:11.359Z</time>
      </trkpt>
      <trkpt lat="60.25624" lon="17.716">
        <ele>42.268494</ele>
        <time>2020-08-30T05:08:23.047Z</time>
      </trkpt>
      <trkpt lat="60.25494" lon="17.71544">
        <ele>40.326332</ele>
        <time>2020-08-30T05:08:42.840Z</time>
      </trkpt>
      <trkpt lat="60.25407" lon="17.71529">
        <ele>39.016298</ele>
        <time>2020-08-30T05:08:55.567Z</time>
      </trkpt>
      <trkpt lat="60.25361" lon="17.71538">
        <ele>38.312777</ele>
        <time>2020-08-30T05:09:02.198Z</time>
      </trkpt>
      <trkpt lat="60.25232" lon="17.71585">
        <ele>36.965269</ele>
        <time>2020-08-30T05:09:21.780Z</time>
      </trkpt>
      <trkpt lat="60.25108" lon="17.71584">
        <ele>36.541564</ele>
        <time>2020-08-30T05:09:43.954Z</time>
      </trkpt>
      <trkpt lat="60.25008" lon="17.71645">
        <ele>36.80109</ele>
        <time>2020-08-30T05:10:04.501Z</time>
      </trkpt>
      <trkpt lat="60.24929" lon="17.71626">
        <ele>36.999444</ele>
        <time>2020-08-30T05:10:18.973Z</time>
      </trkpt>
      <trkpt lat="60.24898" lon="17.7163">
        <ele>36.930734</ele>
        <time>2020-08-30T05:10:24.263Z</time>
      </trkpt>
      <trkpt lat="60.24861" lon="17.71658">
        <ele>36.841839</ele>
        <time>2020-08-30T05:10:31.012Z</time>
      </trkpt>
      <trkpt lat="60.24827" lon="17.71712">
        <ele>36.746495</ele>
        <time>2020-08-30T05:10:38.171Z</time>
      </trkpt>
      <trkpt lat="60.24786" lon="17.71818">
        <ele>36.614821</ele>
        <time>2020-08-30T05:10:49.567Z</time>
      </trkpt>
      <trkpt lat="60.24752" lon="17.71951">
        <ele>36.894232</ele>
        <time>2020-08-30T05:11:03.057Z</time>
      </trkpt>
      <trkpt lat="60.24728" lon="17.71997">
        <ele>37.017146</ele>
        <time>2020-08-30T05:11:09.392Z</time>
      </trkpt>
      <trkpt lat="60.24701" lon="17.72019">
        <ele>37.127793</ele>
        <time>2020-08-30T05:11:15.274Z</time>
      </trkpt>
      <trkpt lat="60.24544" lon="17.72041">
        <ele>38.257748</ele>
        <time>2020-08-30T05:11:47.746Z</time>
      </trkpt>
      <trkpt lat="60.24462" lon="17.72027">
        <ele>38.870875</ele>
        <time>2020-08-30T05:12:04.613Z</time>
      </trkpt>
      <trkpt lat="60.24405" lon="17.72027">
        <ele>39.109747</ele>
        <time>2020-08-30T05:12:15.817Z</time>
      </trkpt>
      <trkpt lat="60.24321" lon="17.72048">
        <ele>39.460803</ele>
        <time>2020-08-30T05:12:31.663Z</time>
      </trkpt>
      <trkpt lat="60.24269" lon="17.72072">
        <ele>39.468727</ele>
        <time>2020-08-30T05:12:41.375Z</time>
      </trkpt>
      <trkpt lat="60.24183" lon="17.72087">
        <ele>39.290174</ele>
        <time>2020-08-30T05:12:56.296Z</time>
      </trkpt>
      <trkpt lat="60.24072" lon="17.72123">
        <ele>38.843586</ele>
        <time>2020-08-30T05:13:14.629Z</time>
      </trkpt>
      <trkpt lat="60.23907" lon="17.72134">
        <ele>37.881472</ele>
        <time>2020-08-30T05:13:41.308Z</time>
      </trkpt>
      <trkpt lat="60.23874" lon="17.72166">
        <ele>37.707884</ele>
        <time>2020-08-30T05:13:47.351Z</time>
      </trkpt>
      <trkpt lat="60.23817" lon="17.72317">
        <ele>37.257369</ele>
        <time>2020-08-30T05:14:03.126Z</time>
      </trkpt>
      <trkpt lat="60.23795" lon="17.72343">
        <ele>37.125017</ele>
        <time>2020-08-30T05:14:07.505Z</time>
      </trkpt>
      <trkpt lat="60.23769" lon="17.72359">
        <ele>36.98339</ele>
        <time>2020-08-30T05:14:11.802Z</time>
      </trkpt>
      <trkpt lat="60.2376" lon="17.72361">
        <ele>36.936768</ele>
        <time>2020-08-30T05:14:13.471Z</time>
      </trkpt>
      <trkpt lat="60.23754" lon="17.72362">
        <ele>36.901815</ele>
        <time>2020-08-30T05:14:14.588Z</time>
      </trkpt>
      <trkpt lat="60.2374" lon="17.72362">
        <ele>36.832236</ele>
        <time>2020-08-30T05:14:16.597Z</time>
      </trkpt>
      <trkpt lat="60.23696" lon="17.7236">
        <ele>36.598121</ele>
        <time>2020-08-30T05:14:23.928Z</time>
      </trkpt>
      <trkpt lat="60.23679" lon="17.72367">
        <ele>36.504278</ele>
        <time>2020-08-30T05:14:26.929Z</time>
      </trkpt>
      <trkpt lat="60.2362" lon="17.72443">
        <ele>36.194143</ele>
        <time>2020-08-30T05:14:38.192Z</time>
      </trkpt>
      <trkpt lat="60.23479" lon="17.72531">
        <ele>35.778758</ele>
        <time>2020-08-30T05:15:03.113Z</time>
      </trkpt>
      <trkpt lat="60.23445" lon="17.72577">
        <ele>35.932319</ele>
        <time>2020-08-30T05:15:10.718Z</time>
      </trkpt>
      <trkpt lat="60.23385" lon="17.72682">
        <ele>36.38809</ele>
        <time>2020-08-30T05:15:26.361Z</time>
      </trkpt>
      <trkpt lat="60.23352" lon="17.72722">
        <ele>36.60578</ele>
        <time>2020-08-30T05:15:34.384Z</time>
      </trkpt>
      <trkpt lat="60.23231" lon="17.72809">
        <ele>37.7875</ele>
        <time>2020-08-30T05:16:01.054Z</time>
      </trkpt>
      <trkpt lat="60.2322" lon="17.72817">
        <ele>37.90577</ele>
        <time>2020-08-30T05:16:03.573Z</time>
      </trkpt>
      <trkpt lat="60.23168" lon="17.72856">
        <ele>38.480204</ele>
        <time>2020-08-30T05:16:15.215Z</time>
      </trkpt>
      <trkpt lat="60.23123" lon="17.72893">
        <ele>38.98062</ele>
        <time>2020-08-30T05:16:26.158Z</time>
      </trkpt>
      <trkpt lat="60.23075" lon="17.72929">
        <ele>39.503399</ele>
        <time>2020-08-30T05:16:37.059Z</time>
      </trkpt>
      <trkpt lat="60.22995" lon="17.72995">
        <ele>40.390157</ele>
        <time>2020-08-30T05:16:54.632Z</time>
      </trkpt>
      <trkpt lat="60.22989" lon="17.73">
        <ele>40.463697</ele>
        <time>2020-08-30T05:16:56.294Z</time>
      </trkpt>
      <trkpt lat="60.22933" lon="17.7305">
        <ele>40.72792</ele>
        <time>2020-08-30T05:17:09.042Z</time>
      </trkpt>
      <trkpt lat="60.22926" lon="17.73057">
        <ele>40.764428</ele>
        <time>2020-08-30T05:17:10.874Z</time>
      </trkpt>
      <trkpt lat="60.22862" lon="17.73107">
        <ele>41.053903</ele>
        <time>2020-08-30T05:17:23.970Z</time>
      </trkpt>
      <trkpt lat="60.22847" lon="17.73119">
        <ele>41.120692</ele>
        <time>2020-08-30T05:17:27.024Z</time>
      </trkpt>
      <trkpt lat="60.22502" lon="17.7341">
        <ele>39.601579</ele>
        <time>2020-08-30T05:18:28.064Z</time>
      </trkpt>
      <trkpt lat="60.22497" lon="17.73414">
        <ele>39.579598</ele>
        <time>2020-08-30T05:18:28.782Z</time>
      </trkpt>
      <trkpt lat="60.22492" lon="17.73418">
        <ele>39.556059</ele>
        <time>2020-08-30T05:18:30.016Z</time>
      </trkpt>
      <trkpt lat="60.2233" lon="17.7355">
        <ele>39.813407</ele>
        <time>2020-08-30T05:19:02.739Z</time>
      </trkpt>
      <trkpt lat="60.22141" lon="17.73638">
        <ele>40.28036</ele>
        <time>2020-08-30T05:19:38.813Z</time>
      </trkpt>
      <trkpt lat="60.22125" lon="17.73646">
        <ele>40.322317</ele>
        <time>2020-08-30T05:19:41.967Z</time>
      </trkpt>
      <trkpt lat="60.2209" lon="17.73667">
        <ele>40.408898</ele>
        <time>2020-08-30T05:19:48.469Z</time>
      </trkpt>
      <trkpt lat="60.21981" lon="17.73687">
        <ele>40.673978</ele>
        <time>2020-08-30T05:20:08.819Z</time>
      </trkpt>
      <trkpt lat="60.21934" lon="17.73691">
        <ele>40.883827</ele>
        <time>2020-08-30T05:20:17.749Z</time>
      </trkpt>
      <trkpt lat="60.21758" lon="17.73705">
        <ele>41.848883</ele>
        <time>2020-08-30T05:20:52.311Z</time>
      </trkpt>
      <trkpt lat="60.2166" lon="17.73712">
        <ele>42.533223</ele>
        <time>2020-08-30T05:21:11.683Z</time>
      </trkpt>
      <trkpt lat="60.21656" lon="17.73858">
        <ele>43.171135</ele>
        <time>2020-08-30T05:21:26.691Z</time>
      </trkpt>
      <trkpt lat="60.21637" lon="17.74217">
        <ele>45.441918</ele>
        <time>2020-08-30T05:22:06.214Z</time>
      </trkpt>
      <trkpt lat="60.21604" lon="17.74518">
        <ele>47.647452</ele>
        <time>2020-08-30T05:22:40.913Z</time>
      </trkpt>
      <trkpt lat="60.21584" lon="17.74653">
        <ele>48.449143</ele>
        <time>2020-08-30T05:22:56.285Z</time>
      </trkpt>
      <trkpt lat="60.21529" lon="17.74946">
        <ele>50.036109</ele>
        <time>2020-08-30T05:23:29.276Z</time>
      </trkpt>
      <trkpt lat="60.21415" lon="17.75486">
        <ele>51.812535</ele>
        <time>2020-08-30T05:24:26.817Z</time>
      </trkpt>
      <trkpt lat="60.21371" lon="17.75676">
        <ele>52.133938</ele>
        <time>2020-08-30T05:24:46.241Z</time>
      </trkpt>
      <trkpt lat="60.21368" lon="17.75689">
        <ele>52.150162</ele>
        <time>2020-08-30T05:24:48.179Z</time>
      </trkpt>
      <trkpt lat="60.2123" lon="17.76362">
        <ele>52.0038</ele>
        <time>2020-08-30T05:25:52.311Z</time>
      </trkpt>
      <trkpt lat="60.212" lon="17.76511">
        <ele>51.705778</ele>
        <time>2020-08-30T05:26:05.585Z</time>
      </trkpt>
      <trkpt lat="60.21178" lon="17.76621">
        <ele>51.12269</ele>
        <time>2020-08-30T05:26:14.714Z</time>
      </trkpt>
      <trkpt lat="60.21135" lon="17.76847">
        <ele>49.707936</ele>
        <time>2020-08-30T05:26:32.512Z</time>
      </trkpt>
      <trkpt lat="60.21108" lon="17.76976">
        <ele>49.452992</ele>
        <time>2020-08-30T05:26:43.288Z</time>
      </trkpt>
      <trkpt lat="60.21152" lon="17.77011">
        <ele>49.379496</ele>
        <time>2020-08-30T05:26:51.603Z</time>
      </trkpt>
      <trkpt lat="60.21113" lon="17.7715">
        <ele>49.280247</ele>
        <time>2020-08-30T05:27:06.773Z</time>
      </trkpt>
      <trkpt lat="60.21067" lon="17.77288">
        <ele>50.361801</ele>
        <time>2020-08-30T05:27:25.564Z</time>
      </trkpt>
      <trkpt lat="60.21039" lon="17.77406">
        <ele>51.215325</ele>
        <time>2020-08-30T05:27:40.218Z</time>
      </trkpt>
      <trkpt lat="60.21014" lon="17.77622">
        <ele>51.76118</ele>
        <time>2020-08-30T05:28:04.033Z</time>
      </trkpt>
      <trkpt lat="60.2099" lon="17.77918">
        <ele>51.230251</ele>
        <time>2020-08-30T05:28:28.344Z</time>
      </trkpt>
      <trkpt lat="60.20965" lon="17.78168">
        <ele>49.399578</ele>
        <time>2020-08-30T05:28:46.408Z</time>
      </trkpt>
      <trkpt lat="60.20958" lon="17.78255">
        <ele>49.043767</ele>
        <time>2020-08-30T05:28:52.678Z</time>
      </trkpt>
      <trkpt lat="60.20919" lon="17.78693">
        <ele>47.702254</ele>
        <time>2020-08-30T05:29:29.732Z</time>
      </trkpt>
      <trkpt lat="60.20896" lon="17.7884">
        <ele>47.426659</ele>
        <time>2020-08-30T05:29:42.939Z</time>
      </trkpt>
      <trkpt lat="60.20703" lon="17.79445">
        <ele>46.58035</ele>
        <time>2020-08-30T05:30:41.677Z</time>
      </trkpt>
      <trkpt lat="60.20662" lon="17.79561">
        <ele>47.858324</ele>
        <time>2020-08-30T05:30:59.677Z</time>
      </trkpt>
      <trkpt lat="60.20626" lon="17.79631">
        <ele>49.260487</ele>
        <time>2020-08-30T05:31:13.937Z</time>
      </trkpt>
      <trkpt lat="60.20552" lon="17.79759">
        <ele>51.820127</ele>
        <time>2020-08-30T05:31:42.377Z</time>
      </trkpt>
      <trkpt lat="60.20297" lon="17.8007">
        <ele>55.530409</ele>
        <time>2020-08-30T05:32:48.424Z</time>
      </trkpt>
      <trkpt lat="60.2027" lon="17.80089">
        <ele>55.714715</ele>
        <time>2020-08-30T05:32:53.021Z</time>
      </trkpt>
      <trkpt lat="60.20251" lon="17.80098">
        <ele>55.835982</ele>
        <time>2020-08-30T05:32:55.824Z</time>
      </trkpt>
      <trkpt lat="60.20234" lon="17.80098">
        <ele>55.70548</ele>
        <time>2020-08-30T05:32:58.647Z</time>
      </trkpt>
      <trkpt lat="60.20217" lon="17.80084">
        <ele>55.560799</ele>
        <time>2020-08-30T05:33:01.302Z</time>
      </trkpt>
      <trkpt lat="60.20193" lon="17.80054">
        <ele>55.333074</ele>
        <time>2020-08-30T05:33:05.646Z</time>
      </trkpt>
      <trkpt lat="60.2015" lon="17.80172">
        <ele>54.755788</ele>
        <time>2020-08-30T05:33:16.580Z</time>
      </trkpt>
      <trkpt lat="60.19956" lon="17.80677">
        <ele>53.627662</ele>
        <time>2020-08-30T05:34:13.518Z</time>
      </trkpt>
      <trkpt lat="60.19893" lon="17.80839">
        <ele>52.45576</ele>
        <time>2020-08-30T05:34:28.464Z</time>
      </trkpt>
      <trkpt lat="60.19784" lon="17.81136">
        <ele>47.640936</ele>
        <time>2020-08-30T05:34:52.822Z</time>
      </trkpt>
      <trkpt lat="60.19703" lon="17.81403">
        <ele>43.850758</ele>
        <time>2020-08-30T05:35:14.057Z</time>
      </trkpt>
      <trkpt lat="60.1968" lon="17.81496">
        <ele>43.15717</ele>
        <time>2020-08-30T05:35:21.520Z</time>
      </trkpt>
      <trkpt lat="60.19659" lon="17.81582">
        <ele>42.564213</ele>
        <time>2020-08-30T05:35:28.777Z</time>
      </trkpt>
      <trkpt lat="60.19597" lon="17.81908">
        <ele>40.682233</ele>
        <time>2020-08-30T05:35:56.259Z</time>
      </trkpt>
      <trkpt lat="60.19568" lon="17.82106">
        <ele>39.741011</ele>
        <time>2020-08-30T05:36:12.065Z</time>
      </trkpt>
      <trkpt lat="60.19544" lon="17.82327">
        <ele>38.964681</ele>
        <time>2020-08-30T05:36:29.421Z</time>
      </trkpt>
      <trkpt lat="60.19532" lon="17.82478">
        <ele>38.597612</ele>
        <time>2020-08-30T05:36:42.822Z</time>
      </trkpt>
      <trkpt lat="60.19593" lon="17.82541">
        <ele>38.684447</ele>
        <time>2020-08-30T05:36:55.758Z</time>
      </trkpt>
      <trkpt lat="60.19623" lon="17.82577">
        <ele>38.728592</ele>
        <time>2020-08-30T05:37:02.269Z</time>
      </trkpt>
      <trkpt lat="60.19672" lon="17.8266">
        <ele>38.716564</ele>
        <time>2020-08-30T05:37:14.376Z</time>
      </trkpt>
      <trkpt lat="60.197" lon="17.8276">
        <ele>37.993324</ele>
        <time>2020-08-30T05:37:23.704Z</time>
      </trkpt>
      <trkpt lat="60.19707" lon="17.82816">
        <ele>37.629175</ele>
        <time>2020-08-30T05:37:27.927Z</time>
      </trkpt>
      <trkpt lat="60.19727" lon="17.83169">
        <ele>35.231812</ele>
        <time>2020-08-30T05:37:52.903Z</time>
      </trkpt>
      <trkpt lat="60.19722" lon="17.8346">
        <ele>33.862013</ele>
        <time>2020-08-30T05:38:15.597Z</time>
      </trkpt>
      <trkpt lat="60.19743" lon="17.83801">
        <ele>33.947608</ele>
        <time>2020-08-30T05:38:47.220Z</time>
      </trkpt>
      <trkpt lat="60.19752" lon="17.84014">
        <ele>34.501691</ele>
        <time>2020-08-30T05:39:08.149Z</time>
      </trkpt>
      <trkpt lat="60.19753" lon="17.84086">
        <ele>34.721595</ele>
        <time>2020-08-30T05:39:15.372Z</time>
      </trkpt>
      <trkpt lat="60.19727" lon="17.84431">
        <ele>36.441368</ele>
        <time>2020-08-30T05:39:51.777Z</time>
      </trkpt>
      <trkpt lat="60.19733" lon="17.84533">
        <ele>37.131992</ele>
        <time>2020-08-30T05:40:03.120Z</time>
      </trkpt>
      <trkpt lat="60.19759" lon="17.84709">
        <ele>38.365234</ele>
        <time>2020-08-30T05:40:23.483Z</time>
      </trkpt>
      <trkpt lat="60.19765" lon="17.84733">
        <ele>38.541173</ele>
        <time>2020-08-30T05:40:26.387Z</time>
      </trkpt>
      <trkpt lat="60.1977" lon="17.84757">
        <ele>38.717523</ele>
        <time>2020-08-30T05:40:29.474Z</time>
      </trkpt>
      <trkpt lat="60.19791" lon="17.84791">
        <ele>39.103558</ele>
        <time>2020-08-30T05:40:35.481Z</time>
      </trkpt>
      <trkpt lat="60.19839" lon="17.8484">
        <ele>39.906562</ele>
        <time>2020-08-30T05:40:47.750Z</time>
      </trkpt>
      <trkpt lat="60.19862" lon="17.84873">
        <ele>40.320513</ele>
        <time>2020-08-30T05:40:54.223Z</time>
      </trkpt>
      <trkpt lat="60.1992" lon="17.84985">
        <ele>41.518177</ele>
        <time>2020-08-30T05:41:12.420Z</time>
      </trkpt>
      <trkpt lat="60.19952" lon="17.85087">
        <ele>41.954931</ele>
        <time>2020-08-30T05:41:25.299Z</time>
      </trkpt>
      <trkpt lat="60.1996" lon="17.8513">
        <ele>42.119315</ele>
        <time>2020-08-30T05:41:30.147Z</time>
      </trkpt>
      <trkpt lat="60.19965" lon="17.85201">
        <ele>42.376947</ele>
        <time>2020-08-30T05:41:37.506Z</time>
      </trkpt>
      <trkpt lat="60.19961" lon="17.85469">
        <ele>42.47254</ele>
        <time>2020-08-30T05:42:01.535Z</time>
      </trkpt>
      <trkpt lat="60.19966" lon="17.85542">
        <ele>42.291655</ele>
        <time>2020-08-30T05:42:07.476Z</time>
      </trkpt>
      <trkpt lat="60.19975" lon="17.85619">
        <ele>42.094064</ele>
        <time>2020-08-30T05:42:13.784Z</time>
      </trkpt>
      <trkpt lat="60.19985" lon="17.85672">
        <ele>41.954188</ele>
        <time>2020-08-30T05:42:18.119Z</time>
      </trkpt>
      <trkpt lat="60.19994" lon="17.85725">
        <ele>41.580221</ele>
        <time>2020-08-30T05:42:22.309Z</time>
      </trkpt>
      <trkpt lat="60.19997" lon="17.85788">
        <ele>41.096416</ele>
        <time>2020-08-30T05:42:26.973Z</time>
      </trkpt>
      <trkpt lat="60.19996" lon="17.8581">
        <ele>40.930549</ele>
        <time>2020-08-30T05:42:28.536Z</time>
      </trkpt>
      <trkpt lat="60.19992" lon="17.85836">
        <ele>40.727902</ele>
        <time>2020-08-30T05:42:30.459Z</time>
      </trkpt>
      <trkpt lat="60.19983" lon="17.85876">
        <ele>40.388511</ele>
        <time>2020-08-30T05:42:33.647Z</time>
      </trkpt>
      <trkpt lat="60.1992" lon="17.86062">
        <ele>38.849116</ele>
        <time>2020-08-30T05:42:49.805Z</time>
      </trkpt>
      <trkpt lat="60.19885" lon="17.86228">
        <ele>37.947789</ele>
        <time>2020-08-30T05:43:03.151Z</time>
      </trkpt>
      <trkpt lat="60.1987" lon="17.86278">
        <ele>37.654252</ele>
        <time>2020-08-30T05:43:07.933Z</time>
      </trkpt>
      <trkpt lat="60.19815" lon="17.86401">
        <ele>38.047469</ele>
        <time>2020-08-30T05:43:23.176Z</time>
      </trkpt>
      <trkpt lat="60.19797" lon="17.86458">
        <ele>38.466228</ele>
        <time>2020-08-30T05:43:30.366Z</time>
      </trkpt>
      <trkpt lat="60.19773" lon="17.86582">
        <ele>39.311351</ele>
        <time>2020-08-30T05:43:46.233Z</time>
      </trkpt>
      <trkpt lat="60.19757" lon="17.86676">
        <ele>40.04034</ele>
        <time>2020-08-30T05:43:58.549Z</time>
      </trkpt>
      <trkpt lat="60.19753" lon="17.86705">
        <ele>40.3029</ele>
        <time>2020-08-30T05:44:02.040Z</time>
      </trkpt>
      <trkpt lat="60.1975" lon="17.86743">
        <ele>40.639857</ele>
        <time>2020-08-30T05:44:07.224Z</time>
      </trkpt>
      <trkpt lat="60.1975" lon="17.86816">
        <ele>41.269196</ele>
        <time>2020-08-30T05:44:16.158Z</time>
      </trkpt>
      <trkpt lat="60.19762" lon="17.86947">
        <ele>42.424008</ele>
        <time>2020-08-30T05:44:31.264Z</time>
      </trkpt>
      <trkpt lat="60.19763" lon="17.87068">
        <ele>42.880084</ele>
        <time>2020-08-30T05:44:44.011Z</time>
      </trkpt>
      <trkpt lat="60.19754" lon="17.87122">
        <ele>42.944441</ele>
        <time>2020-08-30T05:44:49.174Z</time>
      </trkpt>
      <trkpt lat="60.19723" lon="17.8721">
        <ele>43.067753</ele>
        <time>2020-08-30T05:44:58.833Z</time>
      </trkpt>
      <trkpt lat="60.19691" lon="17.87343">
        <ele>43.121262</ele>
        <time>2020-08-30T05:45:11.419Z</time>
      </trkpt>
      <trkpt lat="60.19686" lon="17.87387">
        <ele>42.99888</ele>
        <time>2020-08-30T05:45:15.133Z</time>
      </trkpt>
      <trkpt lat="60.19686" lon="17.87435">
        <ele>42.86816</ele>
        <time>2020-08-30T05:45:19.127Z</time>
      </trkpt>
      <trkpt lat="60.19697" lon="17.87525">
        <ele>42.617237</ele>
        <time>2020-08-30T05:45:26.479Z</time>
      </trkpt>
      <trkpt lat="60.19742" lon="17.87669">
        <ele>42.136967</ele>
        <time>2020-08-30T05:45:40.148Z</time>
      </trkpt>
      <trkpt lat="60.1975" lon="17.87714">
        <ele>41.974682</ele>
        <time>2020-08-30T05:45:44.034Z</time>
      </trkpt>
      <trkpt lat="60.19748" lon="17.87774">
        <ele>41.768475</ele>
        <time>2020-08-30T05:45:48.977Z</time>
      </trkpt>
      <trkpt lat="60.19747" lon="17.87857">
        <ele>41.486545</ele>
        <time>2020-08-30T05:45:55.834Z</time>
      </trkpt>
      <trkpt lat="60.19755" lon="17.8789">
        <ele>41.357611</ele>
        <time>2020-08-30T05:45:58.840Z</time>
      </trkpt>
      <trkpt lat="60.19789" lon="17.88098">
        <ele>40.329835</ele>
        <time>2020-08-30T05:46:15.626Z</time>
      </trkpt>
      <trkpt lat="60.19795" lon="17.88138">
        <ele>40.081812</ele>
        <time>2020-08-30T05:46:18.857Z</time>
      </trkpt>
      <trkpt lat="60.19802" lon="17.88213">
        <ele>39.624416</ele>
        <time>2020-08-30T05:46:24.790Z</time>
      </trkpt>
      <trkpt lat="60.19806" lon="17.88252">
        <ele>39.386401</ele>
        <time>2020-08-30T05:46:27.814Z</time>
      </trkpt>
      <trkpt lat="60.19811" lon="17.88295">
        <ele>39.123293</ele>
        <time>2020-08-30T05:46:31.099Z</time>
      </trkpt>
      <trkpt lat="60.19814" lon="17.88326">
        <ele>38.935645</ele>
        <time>2020-08-30T05:46:33.363Z</time>
      </trkpt>
      <trkpt lat="60.19815" lon="17.88344">
        <ele>38.829515</ele>
        <time>2020-08-30T05:46:34.654Z</time>
      </trkpt>
      <trkpt lat="60.19815" lon="17.88362">
        <ele>38.691054</ele>
        <time>2020-08-30T05:46:35.932Z</time>
      </trkpt>
      <trkpt lat="60.19812" lon="17.88388">
        <ele>38.480304</ele>
        <time>2020-08-30T05:46:37.815Z</time>
      </trkpt>
      <trkpt lat="60.19802" lon="17.88437">
        <ele>38.065227</ele>
        <time>2020-08-30T05:46:41.550Z</time>
      </trkpt>
      <trkpt lat="60.19766" lon="17.88533">
        <ele>37.122351</ele>
        <time>2020-08-30T05:46:50.129Z</time>
      </trkpt>
      <trkpt lat="60.19809" lon="17.88595">
        <ele>36.278191</ele>
        <time>2020-08-30T05:46:58.512Z</time>
      </trkpt>
      <trkpt lat="60.19776" lon="17.88719">
        <ele>35.765204</ele>
        <time>2020-08-30T05:47:09.792Z</time>
      </trkpt>
      <trkpt lat="60.19793" lon="17.88738">
        <ele>35.677309</ele>
        <time>2020-08-30T05:47:12.980Z</time>
      </trkpt>
      <trkpt lat="60.19785" lon="17.88782">
        <ele>35.575403</ele>
        <time>2020-08-30T05:47:16.633Z</time>
      </trkpt>
      <trkpt lat="60.19781" lon="17.88912">
        <ele>35.289819</ele>
        <time>2020-08-30T05:47:27.717Z</time>
      </trkpt>
      <trkpt lat="60.19777" lon="17.88924">
        <ele>35.259283</ele>
        <time>2020-08-30T05:47:29.025Z</time>
      </trkpt>
      <trkpt lat="60.19782" lon="17.88941">
        <ele>35.21837</ele>
        <time>2020-08-30T05:47:30.792Z</time>
      </trkpt>
      <trkpt lat="60.19789" lon="17.89028">
        <ele>35.840758</ele>
        <time>2020-08-30T05:47:40.271Z</time>
      </trkpt>
      <trkpt lat="60.1979" lon="17.89096">
        <ele>36.366946</ele>
        <time>2020-08-30T05:47:48.439Z</time>
      </trkpt>
      <trkpt lat="60.1979" lon="17.89143">
        <ele>36.729692</ele>
        <time>2020-08-30T05:47:54.466Z</time>
      </trkpt>
      <trkpt lat="60.19784" lon="17.89245">
        <ele>37.528684</ele>
        <time>2020-08-30T05:48:07.071Z</time>
      </trkpt>
      <trkpt lat="60.19764" lon="17.89425">
        <ele>38.956119</ele>
        <time>2020-08-30T05:48:29.954Z</time>
      </trkpt>
      <trkpt lat="60.19814" lon="17.89448">
        <ele>39.751461</ele>
        <time>2020-08-30T05:48:42.924Z</time>
      </trkpt>
      <trkpt lat="60.19867" lon="17.89475">
        <ele>40.593543</ele>
        <time>2020-08-30T05:48:55.618Z</time>
      </trkpt>
      <trkpt lat="60.19875" lon="17.89484">
        <ele>40.73674</ele>
        <time>2020-08-30T05:48:57.646Z</time>
      </trkpt>
      <trkpt lat="60.1989" lon="17.89508">
        <ele>40.78176</ele>
        <time>2020-08-30T05:49:01.054Z</time>
      </trkpt>
      <trkpt lat="60.19903" lon="17.89542">
        <ele>40.739593</ele>
        <time>2020-08-30T05:49:04.906Z</time>
      </trkpt>
      <trkpt lat="60.19945" lon="17.89636">
        <ele>40.617976</ele>
        <time>2020-08-30T05:49:15.302Z</time>
      </trkpt>
      <trkpt lat="60.19956" lon="17.89636">
        <ele>40.597249</ele>
        <time>2020-08-30T05:49:16.949Z</time>
      </trkpt>
      <trkpt lat="60.19991" lon="17.89642">
        <ele>40.529036</ele>
        <time>2020-08-30T05:49:23.020Z</time>
      </trkpt>
      <trkpt lat="60.20025" lon="17.89664">
        <ele>40.468806</ele>
        <time>2020-08-30T05:49:29.353Z</time>
      </trkpt>
      <trkpt lat="60.20041" lon="17.89675">
        <ele>40.596879</ele>
        <time>2020-08-30T05:49:32.640Z</time>
      </trkpt>
      <trkpt lat="60.20048" lon="17.89679">
        <ele>40.649423</ele>
        <time>2020-08-30T05:49:33.866Z</time>
      </trkpt>
      <trkpt lat="60.20098" lon="17.89722">
        <ele>41.059233</ele>
        <time>2020-08-30T05:49:43.838Z</time>
      </trkpt>
      <trkpt lat="60.20103" lon="17.89728">
        <ele>41.103554</ele>
        <time>2020-08-30T05:49:45.233Z</time>
      </trkpt>
      <trkpt lat="60.20148" lon="17.8977">
        <ele>41.481436</ele>
        <time>2020-08-30T05:49:55.687Z</time>
      </trkpt>
      <trkpt lat="60.20192" lon="17.89808">
        <ele>41.846539</ele>
        <time>2020-08-30T05:50:06.720Z</time>
      </trkpt>
      <trkpt lat="60.20265" lon="17.90012">
        <ele>43.031644</ele>
        <time>2020-08-30T05:50:34.871Z</time>
      </trkpt>
      <trkpt lat="60.20391" lon="17.90121">
        <ele>43.909414</ele>
        <time>2020-08-30T05:51:00.881Z</time>
      </trkpt>
      <trkpt lat="60.20436" lon="17.90157">
        <ele>44.127118</ele>
        <time>2020-08-30T05:51:09.865Z</time>
      </trkpt>
      <trkpt lat="60.20466" lon="17.90179">
        <ele>44.26718</ele>
        <time>2020-08-30T05:51:16.317Z</time>
      </trkpt>
      <trkpt lat="60.20558" lon="17.90213">
        <ele>46.701579</ele>
        <time>2020-08-30T05:51:39.725Z</time>
      </trkpt>
      <trkpt lat="60.20539" lon="17.90317">
        <ele>48.337262</ele>
        <time>2020-08-30T05:51:56.147Z</time>
      </trkpt>
      <trkpt lat="60.20523" lon="17.90382">
        <ele>49.415031</ele>
        <time>2020-08-30T05:52:07.653Z</time>
      </trkpt>
      <trkpt lat="60.20505" lon="17.90441">
        <ele>50.853445</ele>
        <time>2020-08-30T05:52:19.113Z</time>
      </trkpt>
      <trkpt lat="60.2047" lon="17.90533">
        <ele>53.517365</ele>
        <time>2020-08-30T05:52:39.298Z</time>
      </trkpt>
      <trkpt lat="60.20461" lon="17.90649">
        <ele>56.197466</ele>
        <time>2020-08-30T05:52:59.354Z</time>
      </trkpt>
      <trkpt lat="60.20495" lon="17.90767">
        <ele>58.735627</ele>
        <time>2020-08-30T05:53:21.417Z</time>
      </trkpt>
      <trkpt lat="60.20534" lon="17.90863">
        <ele>60.322413</ele>
        <time>2020-08-30T05:53:38.836Z</time>
      </trkpt>
      <trkpt lat="60.20573" lon="17.90888">
        <ele>61.368244</ele>
        <time>2020-08-30T05:53:49.123Z</time>
      </trkpt>
      <trkpt lat="60.20597" lon="17.9096">
        <ele>62.478654</ele>
        <time>2020-08-30T05:53:59.126Z</time>
      </trkpt>
      <trkpt lat="60.20644" lon="17.91039">
        <ele>62.682807</ele>
        <time>2020-08-30T05:54:11.905Z</time>
      </trkpt>
      <trkpt lat="60.20691" lon="17.91092">
        <ele>62.731454</ele>
        <time>2020-08-30T05:54:21.768Z</time>
      </trkpt>
      <trkpt lat="60.20711" lon="17.91158">
        <ele>62.765721</ele>
        <time>2020-08-30T05:54:28.363Z</time>
      </trkpt>
      <trkpt lat="60.2071" lon="17.91218">
        <ele>62.792671</ele>
        <time>2020-08-30T05:54:33.457Z</time>
      </trkpt>
      <trkpt lat="60.20695" lon="17.91291">
        <ele>62.737423</ele>
        <time>2020-08-30T05:54:40.103Z</time>
      </trkpt>
      <trkpt lat="60.20691" lon="17.91344">
        <ele>62.694882</ele>
        <time>2020-08-30T05:54:44.656Z</time>
      </trkpt>
      <trkpt lat="60.20706" lon="17.91489">
        <ele>62.579416</ele>
        <time>2020-08-30T05:54:57.952Z</time>
      </trkpt>
      <trkpt lat="60.20689" lon="17.91551">
        <ele>62.523718</ele>
        <time>2020-08-30T05:55:04.824Z</time>
      </trkpt>
      <trkpt lat="60.2068" lon="17.91606">
        <ele>62.648105</ele>
        <time>2020-08-30T05:55:10.516Z</time>
      </trkpt>
      <trkpt lat="60.20688" lon="17.91667">
        <ele>62.851121</ele>
        <time>2020-08-30T05:55:16.822Z</time>
      </trkpt>
      <trkpt lat="60.20708" lon="17.9169">
        <ele>63.002788</ele>
        <time>2020-08-30T05:55:21.954Z</time>
      </trkpt>
      <trkpt lat="60.20768" lon="17.91776">
        <ele>63.477153</ele>
        <time>2020-08-30T05:55:37.351Z</time>
      </trkpt>
      <trkpt lat="60.20799" lon="17.91844">
        <ele>63.6464</ele>
        <time>2020-08-30T05:55:46.911Z</time>
      </trkpt>
      <trkpt lat="60.2081" lon="17.91897">
        <ele>63.58589</ele>
        <time>2020-08-30T05:55:53.120Z</time>
      </trkpt>
      <trkpt lat="60.20825" lon="17.92071">
        <ele>63.397215</ele>
        <time>2020-08-30T05:56:09.145Z</time>
      </trkpt>
      <trkpt lat="60.20826" lon="17.92259">
        <ele>62.570141</ele>
        <time>2020-08-30T05:56:23.930Z</time>
      </trkpt>
      <trkpt lat="60.20822" lon="17.92326">
        <ele>62.033317</ele>
        <time>2020-08-30T05:56:29.023Z</time>
      </trkpt>
      <trkpt lat="60.20824" lon="17.92361">
        <ele>61.7549</ele>
        <time>2020-08-30T05:56:31.623Z</time>
      </trkpt>
      <trkpt lat="60.20848" lon="17.92481">
        <ele>60.720534</ele>
        <time>2020-08-30T05:56:41.257Z</time>
      </trkpt>
      <trkpt lat="60.20858" lon="17.92538">
        <ele>60.289614</ele>
        <time>2020-08-30T05:56:45.777Z</time>
      </trkpt>
      <trkpt lat="60.20869" lon="17.92565">
        <ele>60.093515</ele>
        <time>2020-08-30T05:56:48.392Z</time>
      </trkpt>
      <trkpt lat="60.20925" lon="17.92652">
        <ele>59.294691</ele>
        <time>2020-08-30T05:56:59.278Z</time>
      </trkpt>
      <trkpt lat="60.20985" lon="17.92816">
        <ele>58.337579</ele>
        <time>2020-08-30T05:57:16.445Z</time>
      </trkpt>
      <trkpt lat="60.20999" lon="17.92904">
        <ele>58.264826</ele>
        <time>2020-08-30T05:57:24.574Z</time>
      </trkpt>
      <trkpt lat="60.21001" lon="17.92984">
        <ele>58.201946</ele>
        <time>2020-08-30T05:57:31.805Z</time>
      </trkpt>
      <trkpt lat="60.21005" lon="17.93098">
        <ele>58.111998</ele>
        <time>2020-08-30T05:57:42.404Z</time>
      </trkpt>
      <trkpt lat="60.21007" lon="17.93163">
        <ele>58.150714</ele>
        <time>2020-08-30T05:57:48.553Z</time>
      </trkpt>
      <trkpt lat="60.21008" lon="17.93281">
        <ele>58.42139</ele>
        <time>2020-08-30T05:57:59.914Z</time>
      </trkpt>
      <trkpt lat="60.20961" lon="17.93416">
        <ele>58.799495</ele>
        <time>2020-08-30T05:58:17.088Z</time>
      </trkpt>
      <trkpt lat="60.20957" lon="17.93458">
        <ele>58.896625</ele>
        <time>2020-08-30T05:58:21.490Z</time>
      </trkpt>
      <trkpt lat="60.20965" lon="17.93544">
        <ele>59.018272</ele>
        <time>2020-08-30T05:58:30.211Z</time>
      </trkpt>
      <trkpt lat="60.20975" lon="17.9358">
        <ele>59.072835</ele>
        <time>2020-08-30T05:58:34.545Z</time>
      </trkpt>
      <trkpt lat="60.20978" lon="17.93589">
        <ele>59.086581</ele>
        <time>2020-08-30T05:58:35.556Z</time>
      </trkpt>
      <trkpt lat="60.21001" lon="17.93633">
        <ele>59.170962</ele>
        <time>2020-08-30T05:58:41.400Z</time>
      </trkpt>
      <trkpt lat="60.21016" lon="17.93675">
        <ele>59.238369</ele>
        <time>2020-08-30T05:58:46.222Z</time>
      </trkpt>
      <trkpt lat="60.21052" lon="17.93847">
        <ele>59.41163</ele>
        <time>2020-08-30T05:59:04.053Z</time>
      </trkpt>
      <trkpt lat="60.21066" lon="17.93891">
        <ele>59.428174</ele>
        <time>2020-08-30T05:59:08.563Z</time>
      </trkpt>
      <trkpt lat="60.21096" lon="17.93961">
        <ele>59.457496</ele>
        <time>2020-08-30T05:59:17.239Z</time>
      </trkpt>
      <trkpt lat="60.21113" lon="17.93997">
        <ele>59.473173</ele>
        <time>2020-08-30T05:59:21.672Z</time>
      </trkpt>
      <trkpt lat="60.21117" lon="17.94039">
        <ele>59.486517</ele>
        <time>2020-08-30T05:59:25.771Z</time>
      </trkpt>
      <trkpt lat="60.2111" lon="17.94131">
        <ele>59.52593</ele>
        <time>2020-08-30T05:59:34.527Z</time>
      </trkpt>
      <trkpt lat="60.2111" lon="17.94194">
        <ele>59.561461</ele>
        <time>2020-08-30T05:59:40.972Z</time>
      </trkpt>
      <trkpt lat="60.21115" lon="17.9423">
        <ele>59.582271</ele>
        <time>2020-08-30T05:59:44.765Z</time>
      </trkpt>
      <trkpt lat="60.21152" lon="17.94299">
        <ele>59.639076</ele>
        <time>2020-08-30T05:59:54.669Z</time>
      </trkpt>
      <trkpt lat="60.21188" lon="17.94423">
        <ele>59.647906</ele>
        <time>2020-08-30T06:00:07.383Z</time>
      </trkpt>
      <trkpt lat="60.21195" lon="17.94488">
        <ele>59.490169</ele>
        <time>2020-08-30T06:00:13.102Z</time>
      </trkpt>
      <trkpt lat="60.2119" lon="17.94565">
        <ele>59.307385</ele>
        <time>2020-08-30T06:00:19.698Z</time>
      </trkpt>
      <trkpt lat="60.21194" lon="17.94602">
        <ele>59.217873</ele>
        <time>2020-08-30T06:00:23.021Z</time>
      </trkpt>
      <trkpt lat="60.21201" lon="17.94626">
        <ele>59.153537</ele>
        <time>2020-08-30T06:00:25.206Z</time>
      </trkpt>
      <trkpt lat="60.21272" lon="17.94727">
        <ele>58.800722</ele>
        <time>2020-08-30T06:00:40.199Z</time>
      </trkpt>
      <trkpt lat="60.21291" lon="17.94792">
        <ele>58.720567</ele>
        <time>2020-08-30T06:00:46.675Z</time>
      </trkpt>
      <trkpt lat="60.21317" lon="17.9491">
        <ele>58.583348</ele>
        <time>2020-08-30T06:00:58.235Z</time>
      </trkpt>
      <trkpt lat="60.21346" lon="17.94953">
        <ele>58.506208</ele>
        <time>2020-08-30T06:01:04.953Z</time>
      </trkpt>
      <trkpt lat="60.21358" lon="17.94984">
        <ele>58.469344</ele>
        <time>2020-08-30T06:01:08.545Z</time>
      </trkpt>
      <trkpt lat="60.21362" lon="17.95074">
        <ele>58.6617</ele>
        <time>2020-08-30T06:01:17.172Z</time>
      </trkpt>
      <trkpt lat="60.21348" lon="17.9521">
        <ele>58.959266</ele>
        <time>2020-08-30T06:01:30.901Z</time>
      </trkpt>
      <trkpt lat="60.21351" lon="17.95253">
        <ele>59.051905</ele>
        <time>2020-08-30T06:01:35.194Z</time>
      </trkpt>
      <trkpt lat="60.21362" lon="17.95292">
        <ele>59.149251</ele>
        <time>2020-08-30T06:01:39.870Z</time>
      </trkpt>
      <trkpt lat="60.21424" lon="17.95427">
        <ele>59.718319</ele>
        <time>2020-08-30T06:01:59.074Z</time>
      </trkpt>
      <trkpt lat="60.21441" lon="17.95478">
        <ele>59.930658</ele>
        <time>2020-08-30T06:02:05.623Z</time>
      </trkpt>
      <trkpt lat="60.21449" lon="17.95514">
        <ele>60.063281</ele>
        <time>2020-08-30T06:02:09.705Z</time>
      </trkpt>
      <trkpt lat="60.21456" lon="17.95617">
        <ele>60.41499</ele>
        <time>2020-08-30T06:02:20.495Z</time>
      </trkpt>
      <trkpt lat="60.21456" lon="17.95697">
        <ele>60.52115</ele>
        <time>2020-08-30T06:02:28.522Z</time>
      </trkpt>
      <trkpt lat="60.21456" lon="17.95708">
        <ele>60.530157</ele>
        <time>2020-08-30T06:02:29.535Z</time>
      </trkpt>
      <trkpt lat="60.21448" lon="17.95753">
        <ele>60.565916</ele>
        <time>2020-08-30T06:02:34.098Z</time>
      </trkpt>
      <trkpt lat="60.21404" lon="17.95862">
        <ele>60.674998</ele>
        <time>2020-08-30T06:02:47.279Z</time>
      </trkpt>
      <trkpt lat="60.21319" lon="17.95976">
        <ele>60.816803</ele>
        <time>2020-08-30T06:03:05.804Z</time>
      </trkpt>
      <trkpt lat="60.21299" lon="17.96009">
        <ele>60.848423</ele>
        <time>2020-08-30T06:03:10.575Z</time>
      </trkpt>
      <trkpt lat="60.21287" lon="17.96045">
        <ele>60.87485</ele>
        <time>2020-08-30T06:03:14.616Z</time>
      </trkpt>
      <trkpt lat="60.21284" lon="17.96087">
        <ele>60.900761</ele>
        <time>2020-08-30T06:03:18.624Z</time>
      </trkpt>
      <trkpt lat="60.21291" lon="17.96278">
        <ele>61.17477</ele>
        <time>2020-08-30T06:03:37.572Z</time>
      </trkpt>
      <trkpt lat="60.21291" lon="17.96643">
        <ele>62.220224</ele>
        <time>2020-08-30T06:04:14.800Z</time>
      </trkpt>
      <trkpt lat="60.21286" lon="17.96678">
        <ele>62.337682</ele>
        <time>2020-08-30T06:04:18.451Z</time>
      </trkpt>
      <trkpt lat="60.21255" lon="17.9678">
        <ele>62.730507</ele>
        <time>2020-08-30T06:04:30.732Z</time>
      </trkpt>
      <trkpt lat="60.21249" lon="17.96833">
        <ele>62.90768</ele>
        <time>2020-08-30T06:04:36.336Z</time>
      </trkpt>
      <trkpt lat="60.21262" lon="17.97007">
        <ele>63.373809</ele>
        <time>2020-08-30T06:04:54.686Z</time>
      </trkpt>
      <trkpt lat="60.21262" lon="17.97062">
        <ele>63.492798</ele>
        <time>2020-08-30T06:05:00.405Z</time>
      </trkpt>
      <trkpt lat="60.21257" lon="17.971">
        <ele>63.5782</ele>
        <time>2020-08-30T06:05:04.494Z</time>
      </trkpt>
      <trkpt lat="60.21222" lon="17.972">
        <ele>63.844945</ele>
        <time>2020-08-30T06:05:16.300Z</time>
      </trkpt>
      <trkpt lat="60.21211" lon="17.97312">
        <ele>63.771674</ele>
        <time>2020-08-30T06:05:27.061Z</time>
      </trkpt>
      <trkpt lat="60.21197" lon="17.97351">
        <ele>63.65666</ele>
        <time>2020-08-30T06:05:31.274Z</time>
      </trkpt>
      <trkpt lat="60.2119" lon="17.97364">
        <ele>63.608719</ele>
        <time>2020-08-30T06:05:33.084Z</time>
      </trkpt>
      <trkpt lat="60.21181" lon="17.97382">
        <ele>63.548866</ele>
        <time>2020-08-30T06:05:35.080Z</time>
      </trkpt>
      <trkpt lat="60.21174" lon="17.97419">
        <ele>63.454095</ele>
        <time>2020-08-30T06:05:38.595Z</time>
      </trkpt>
      <trkpt lat="60.21179" lon="17.9746">
        <ele>63.351287</ele>
        <time>2020-08-30T06:05:42.083Z</time>
      </trkpt>
      <trkpt lat="60.21196" lon="17.97536">
        <ele>63.150478</ele>
        <time>2020-08-30T06:05:48.965Z</time>
      </trkpt>
      <trkpt lat="60.21263" lon="17.97739">
        <ele>61.978283</ele>
        <time>2020-08-30T06:06:08.423Z</time>
      </trkpt>
      <trkpt lat="60.21315" lon="17.97829">
        <ele>61.25359</ele>
        <time>2020-08-30T06:06:19.444Z</time>
      </trkpt>
      <trkpt lat="60.21329" lon="17.9787">
        <ele>61.056028</ele>
        <time>2020-08-30T06:06:23.371Z</time>
      </trkpt>
      <trkpt lat="60.21336" lon="17.97908">
        <ele>60.916165</ele>
        <time>2020-08-30T06:06:26.575Z</time>
      </trkpt>
      <trkpt lat="60.21338" lon="17.98018">
        <ele>60.535821</ele>
        <time>2020-08-30T06:06:35.499Z</time>
      </trkpt>
      <trkpt lat="60.21324" lon="17.98082">
        <ele>60.292842</ele>
        <time>2020-08-30T06:06:41.418Z</time>
      </trkpt>
      <trkpt lat="60.21311" lon="17.98188">
        <ele>59.929395</ele>
        <time>2020-08-30T06:06:50.960Z</time>
      </trkpt>
      <trkpt lat="60.21313" lon="17.98229">
        <ele>60.008776</ele>
        <time>2020-08-30T06:06:54.797Z</time>
      </trkpt>
      <trkpt lat="60.21317" lon="17.98254">
        <ele>60.06017</ele>
        <time>2020-08-30T06:06:57.120Z</time>
      </trkpt>
      <trkpt lat="60.21335" lon="17.98278">
        <ele>60.143722</ele>
        <time>2020-08-30T06:07:01.359Z</time>
      </trkpt>
      <trkpt lat="60.21347" lon="17.98296">
        <ele>60.203858</ele>
        <time>2020-08-30T06:07:04.206Z</time>
      </trkpt>
      <trkpt lat="60.21373" lon="17.98422">
        <ele>60.469716</ele>
        <time>2020-08-30T06:07:18.155Z</time>
      </trkpt>
      <trkpt lat="60.21397" lon="17.98483">
        <ele>60.621833</ele>
        <time>2020-08-30T06:07:26.480Z</time>
      </trkpt>
      <trkpt lat="60.21509" lon="17.98653">
        <ele>61.429358</ele>
        <time>2020-08-30T06:07:55.764Z</time>
      </trkpt>
      <trkpt lat="60.21523" lon="17.98771">
        <ele>61.621198</ele>
        <time>2020-08-30T06:08:07.519Z</time>
      </trkpt>
      <trkpt lat="60.21565" lon="17.98906">
        <ele>61.419889</ele>
        <time>2020-08-30T06:08:21.643Z</time>
      </trkpt>
      <trkpt lat="60.21615" lon="17.98987">
        <ele>61.255098</ele>
        <time>2020-08-30T06:08:32.705Z</time>
      </trkpt>
      <trkpt lat="60.21622" lon="17.99073">
        <ele>61.119793</ele>
        <time>2020-08-30T06:08:40.120Z</time>
      </trkpt>
      <trkpt lat="60.21609" lon="17.99142">
        <ele>60.990148</ele>
        <time>2020-08-30T06:08:46.450Z</time>
      </trkpt>
      <trkpt lat="60.21601" lon="17.9922">
        <ele>60.85153</ele>
        <time>2020-08-30T06:08:57.664Z</time>
      </trkpt>
      <trkpt lat="60.21593" lon="17.99266">
        <ele>60.765662</ele>
        <time>2020-08-30T06:09:04.664Z</time>
      </trkpt>
      <trkpt lat="60.21557" lon="17.99345">
        <ele>60.577995</ele>
        <time>2020-08-30T06:09:20.115Z</time>
      </trkpt>
      <trkpt lat="60.21522" lon="17.99394">
        <ele>60.623481</ele>
        <time>2020-08-30T06:09:32.844Z</time>
      </trkpt>
      <trkpt lat="60.21508" lon="17.99426">
        <ele>60.647081</ele>
        <time>2020-08-30T06:09:39.416Z</time>
      </trkpt>
      <trkpt lat="60.21496" lon="17.99486">
        <ele>60.682189</ele>
        <time>2020-08-30T06:09:49.184Z</time>
      </trkpt>
      <trkpt lat="60.21481" lon="17.99596">
        <ele>60.744353</ele>
        <time>2020-08-30T06:10:06.351Z</time>
      </trkpt>
      <trkpt lat="60.21447" lon="17.99767">
        <ele>60.542727</ele>
        <time>2020-08-30T06:10:33.877Z</time>
      </trkpt>
      <trkpt lat="60.21442" lon="17.99951">
        <ele>60.212554</ele>
        <time>2020-08-30T06:11:00.030Z</time>
      </trkpt>
      <trkpt lat="60.21429" lon="18.00144">
        <ele>59.168546</ele>
        <time>2020-08-30T06:11:26.135Z</time>
      </trkpt>
      <trkpt lat="60.21394" lon="18.00269">
        <ele>58.235588</ele>
        <time>2020-08-30T06:11:44.677Z</time>
      </trkpt>
      <trkpt lat="60.21393" lon="18.00308">
        <ele>57.978039</ele>
        <time>2020-08-30T06:11:49.747Z</time>
      </trkpt>
      <trkpt lat="60.21415" lon="18.00371">
        <ele>57.510494</ele>
        <time>2020-08-30T06:11:59.706Z</time>
      </trkpt>
      <trkpt lat="60.21469" lon="18.00469">
        <ele>56.680226</ele>
        <time>2020-08-30T06:12:18.609Z</time>
      </trkpt>
      <trkpt lat="60.21478" lon="18.00503">
        <ele>56.460449</ele>
        <time>2020-08-30T06:12:23.725Z</time>
      </trkpt>
      <trkpt lat="60.21486" lon="18.00592">
        <ele>55.940547</ele>
        <time>2020-08-30T06:12:36.017Z</time>
      </trkpt>
      <trkpt lat="60.21554" lon="18.00704">
        <ele>55.691779</ele>
        <time>2020-08-30T06:13:00.777Z</time>
      </trkpt>
      <trkpt lat="60.21575" lon="18.0075">
        <ele>55.691649</ele>
        <time>2020-08-30T06:13:10.130Z</time>
      </trkpt>
      <trkpt lat="60.216" lon="18.00843">
        <ele>55.691429</ele>
        <time>2020-08-30T06:13:26.335Z</time>
      </trkpt>
      <trkpt lat="60.21598" lon="18.00899">
        <ele>55.691311</ele>
        <time>2020-08-30T06:13:35.154Z</time>
      </trkpt>
      <trkpt lat="60.21609" lon="18.00986">
        <ele>55.921972</ele>
        <time>2020-08-30T06:13:49.299Z</time>
      </trkpt>
      <trkpt lat="60.21612" lon="18.01026">
        <ele>56.031617</ele>
        <time>2020-08-30T06:13:55.653Z</time>
      </trkpt>
      <trkpt lat="60.21613" lon="18.01047">
        <ele>56.089952</ele>
        <time>2020-08-30T06:13:59.009Z</time>
      </trkpt>
      <trkpt lat="60.21614" lon="18.0106">
        <ele>56.127536</ele>
        <time>2020-08-30T06:14:01.236Z</time>
      </trkpt>
      <trkpt lat="60.21619" lon="18.01121">
        <ele>56.294113</ele>
        <time>2020-08-30T06:14:10.842Z</time>
      </trkpt>
      <trkpt lat="60.21639" lon="18.01213">
        <ele>56.568007</ele>
        <time>2020-08-30T06:14:26.684Z</time>
      </trkpt>
      <trkpt lat="60.21675" lon="18.01424">
        <ele>56.588831</ele>
        <time>2020-08-30T06:15:00.242Z</time>
      </trkpt>
      <trkpt lat="60.21668" lon="18.01783">
        <ele>55.82697</ele>
        <time>2020-08-30T06:15:51.086Z</time>
      </trkpt>
      <trkpt lat="60.21654" lon="18.01948">
        <ele>55.20102</ele>
        <time>2020-08-30T06:16:13.696Z</time>
      </trkpt>
      <trkpt lat="60.21652" lon="18.02001">
        <ele>54.877799</ele>
        <time>2020-08-30T06:16:20.845Z</time>
      </trkpt>
      <trkpt lat="60.21658" lon="18.02046">
        <ele>54.56368</ele>
        <time>2020-08-30T06:16:26.835Z</time>
      </trkpt>
      <trkpt lat="60.21709" lon="18.02246">
        <ele>53.007521</ele>
        <time>2020-08-30T06:16:56.029Z</time>
      </trkpt>
      <trkpt lat="60.21751" lon="18.02333">
        <ele>52.292923</ele>
        <time>2020-08-30T06:17:11.801Z</time>
      </trkpt>
      <trkpt lat="60.21758" lon="18.02363">
        <ele>52.121527</ele>
        <time>2020-08-30T06:17:16.226Z</time>
      </trkpt>
      <trkpt lat="60.2177" lon="18.02492">
        <ele>51.456097</ele>
        <time>2020-08-30T06:17:33.837Z</time>
      </trkpt>
      <trkpt lat="60.21784" lon="18.02515">
        <ele>51.269523</ele>
        <time>2020-08-30T06:17:38.841Z</time>
      </trkpt>
      <trkpt lat="60.21801" lon="18.02528">
        <ele>51.080932</ele>
        <time>2020-08-30T06:17:43.927Z</time>
      </trkpt>
      <trkpt lat="60.21811" lon="18.02548">
        <ele>50.939367</ele>
        <time>2020-08-30T06:17:47.794Z</time>
      </trkpt>
      <trkpt lat="60.21822" lon="18.02602">
        <ele>50.731399</ele>
        <time>2020-08-30T06:17:55.918Z</time>
      </trkpt>
      <trkpt lat="60.21828" lon="18.02743">
        <ele>50.417694</ele>
        <time>2020-08-30T06:18:15.847Z</time>
      </trkpt>
      <trkpt lat="60.21817" lon="18.02858">
        <ele>50.156176</ele>
        <time>2020-08-30T06:18:32.693Z</time>
      </trkpt>
      <trkpt lat="60.21806" lon="18.03061">
        <ele>49.806294</ele>
        <time>2020-08-30T06:19:01.713Z</time>
      </trkpt>
      <trkpt lat="60.21789" lon="18.03216">
        <ele>49.576738</ele>
        <time>2020-08-30T06:19:24.370Z</time>
      </trkpt>
      <trkpt lat="60.2179" lon="18.03307">
        <ele>49.478412</ele>
        <time>2020-08-30T06:19:37.593Z</time>
      </trkpt>
      <trkpt lat="60.21797" lon="18.03367">
        <ele>49.490529</ele>
        <time>2020-08-30T06:19:46.601Z</time>
      </trkpt>
      <trkpt lat="60.21819" lon="18.03419">
        <ele>49.504184</ele>
        <time>2020-08-30T06:19:56.786Z</time>
      </trkpt>
      <trkpt lat="60.21849" lon="18.03461">
        <ele>49.518824</ele>
        <time>2020-08-30T06:20:07.748Z</time>
      </trkpt>
      <trkpt lat="60.21865" lon="18.03508">
        <ele>49.529939</ele>
        <time>2020-08-30T06:20:16.083Z</time>
      </trkpt>
      <trkpt lat="60.21885" lon="18.03545">
        <ele>49.540827</ele>
        <time>2020-08-30T06:20:24.287Z</time>
      </trkpt>
      <trkpt lat="60.21938" lon="18.0374">
        <ele>50.079145</ele>
        <time>2020-08-30T06:20:58.387Z</time>
      </trkpt>
      <trkpt lat="60.21942" lon="18.03783">
        <ele>50.198099</ele>
        <time>2020-08-30T06:21:05.231Z</time>
      </trkpt>
      <trkpt lat="60.21928" lon="18.03897">
        <ele>50.516197</ele>
        <time>2020-08-30T06:21:24.035Z</time>
      </trkpt>
      <trkpt lat="60.21929" lon="18.03944">
        <ele>50.796058</ele>
        <time>2020-08-30T06:21:31.888Z</time>
      </trkpt>
      <trkpt lat="60.21919" lon="18.04004">
        <ele>51.195405</ele>
        <time>2020-08-30T06:21:42.358Z</time>
      </trkpt>
      <trkpt lat="60.21904" lon="18.04064">
        <ele>51.623943</ele>
        <time>2020-08-30T06:21:53.756Z</time>
      </trkpt>
      <trkpt lat="60.21904" lon="18.04104">
        <ele>51.882692</ele>
        <time>2020-08-30T06:22:00.731Z</time>
      </trkpt>
      <trkpt lat="60.2192" lon="18.0425">
        <ele>52.832636</ele>
        <time>2020-08-30T06:22:26.142Z</time>
      </trkpt>
      <trkpt lat="60.21946" lon="18.04356">
        <ele>53.356728</ele>
        <time>2020-08-30T06:22:45.885Z</time>
      </trkpt>
      <trkpt lat="60.21949" lon="18.0439">
        <ele>53.507826</ele>
        <time>2020-08-30T06:22:51.557Z</time>
      </trkpt>
      <trkpt lat="60.21941" lon="18.04458">
        <ele>53.817397</ele>
        <time>2020-08-30T06:23:02.868Z</time>
      </trkpt>
      <trkpt lat="60.2193" lon="18.04565">
        <ele>54.303181</ele>
        <time>2020-08-30T06:23:20.129Z</time>
      </trkpt>
      <trkpt lat="60.2193" lon="18.046">
        <ele>54.449986</ele>
        <time>2020-08-30T06:23:25.571Z</time>
      </trkpt>
      <trkpt lat="60.21953" lon="18.04712">
        <ele>54.747997</ele>
        <time>2020-08-30T06:23:44.189Z</time>
      </trkpt>
      <trkpt lat="60.21967" lon="18.04829">
        <ele>55.044978</ele>
        <time>2020-08-30T06:24:02.841Z</time>
      </trkpt>
      <trkpt lat="60.21998" lon="18.04991">
        <ele>55.41297</ele>
        <time>2020-08-30T06:24:29.974Z</time>
      </trkpt>
      <trkpt lat="60.22023" lon="18.05047">
        <ele>55.517764</ele>
        <time>2020-08-30T06:24:41.787Z</time>
      </trkpt>
      <trkpt lat="60.22061" lon="18.05084">
        <ele>55.635885</ele>
        <time>2020-08-30T06:24:55.008Z</time>
      </trkpt>
      <trkpt lat="60.2214" lon="18.05236">
        <ele>55.526709</ele>
        <time>2020-08-30T06:25:27.470Z</time>
      </trkpt>
      <trkpt lat="60.22144" lon="18.05275">
        <ele>55.358964</ele>
        <time>2020-08-30T06:25:33.043Z</time>
      </trkpt>
      <trkpt lat="60.22142" lon="18.05368">
        <ele>54.967881</ele>
        <time>2020-08-30T06:25:45.680Z</time>
      </trkpt>
      <trkpt lat="60.22148" lon="18.0539">
        <ele>54.862229</ele>
        <time>2020-08-30T06:25:49.029Z</time>
      </trkpt>
      <trkpt lat="60.22186" lon="18.0544">
        <ele>54.478343</ele>
        <time>2020-08-30T06:26:01.023Z</time>
      </trkpt>
      <trkpt lat="60.22196" lon="18.05476">
        <ele>54.305799</ele>
        <time>2020-08-30T06:26:06.286Z</time>
      </trkpt>
      <trkpt lat="60.22227" lon="18.05707">
        <ele>53.055002</ele>
        <time>2020-08-30T06:26:37.721Z</time>
      </trkpt>
      <trkpt lat="60.22226" lon="18.0575">
        <ele>52.831159</ele>
        <time>2020-08-30T06:26:43.584Z</time>
      </trkpt>
      <trkpt lat="60.22217" lon="18.05803">
        <ele>52.541821</ele>
        <time>2020-08-30T06:26:51.318Z</time>
      </trkpt>
      <trkpt lat="60.22183" lon="18.05927">
        <ele>52.550508</ele>
        <time>2020-08-30T06:27:11.989Z</time>
      </trkpt>
      <trkpt lat="60.22179" lon="18.05963">
        <ele>52.586957</ele>
        <time>2020-08-30T06:27:17.544Z</time>
      </trkpt>
      <trkpt lat="60.22185" lon="18.0606">
        <ele>52.685291</ele>
        <time>2020-08-30T06:27:32.841Z</time>
      </trkpt>
      <trkpt lat="60.22191" lon="18.06094">
        <ele>52.72076</ele>
        <time>2020-08-30T06:27:38.485Z</time>
      </trkpt>
      <trkpt lat="60.22271" lon="18.06349">
        <ele>52.886755</ele>
        <time>2020-08-30T06:28:25.499Z</time>
      </trkpt>
      <trkpt lat="60.22285" lon="18.06422">
        <ele>52.919308</ele>
        <time>2020-08-30T06:28:37.188Z</time>
      </trkpt>
      <trkpt lat="60.22299" lon="18.06582">
        <ele>51.948622</ele>
        <time>2020-08-30T06:28:58.881Z</time>
      </trkpt>
      <trkpt lat="60.2233" lon="18.06766">
        <ele>50.187893</ele>
        <time>2020-08-30T06:29:23.223Z</time>
      </trkpt>
      <trkpt lat="60.22333" lon="18.0677">
        <ele>50.122629</ele>
        <time>2020-08-30T06:29:24.004Z</time>
      </trkpt>
      <trkpt lat="60.22342" lon="18.06787">
        <ele>49.888669</ele>
        <time>2020-08-30T06:29:27.019Z</time>
      </trkpt>
      <trkpt lat="60.22372" lon="18.06813">
        <ele>49.164858</ele>
        <time>2020-08-30T06:29:34.898Z</time>
      </trkpt>
      <trkpt lat="60.2239" lon="18.06846">
        <ele>48.557943</ele>
        <time>2020-08-30T06:29:40.946Z</time>
      </trkpt>
      <trkpt lat="60.2242" lon="18.06948">
        <ele>47.085094</ele>
        <time>2020-08-30T06:29:55.054Z</time>
      </trkpt>
      <trkpt lat="60.22436" lon="18.0704">
        <ele>45.877334</ele>
        <time>2020-08-30T06:30:06.842Z</time>
      </trkpt>
      <trkpt lat="60.22452" lon="18.07074">
        <ele>45.300902</ele>
        <time>2020-08-30T06:30:12.727Z</time>
      </trkpt>
      <trkpt lat="60.22485" lon="18.07105">
        <ele>44.77515</ele>
        <time>2020-08-30T06:30:21.999Z</time>
      </trkpt>
      <trkpt lat="60.22505" lon="18.07115">
        <ele>44.511898</ele>
        <time>2020-08-30T06:30:27.409Z</time>
      </trkpt>
      <trkpt lat="60.22785" lon="18.07033">
        <ele>41.566407</ele>
        <time>2020-08-30T06:31:44.062Z</time>
      </trkpt>
      <trkpt lat="60.2288" lon="18.07124">
        <ele>41.631467</ele>
        <time>2020-08-30T06:32:14.613Z</time>
      </trkpt>
      <trkpt lat="60.2289" lon="18.07143">
        <ele>41.681383</ele>
        <time>2020-08-30T06:32:19.045Z</time>
      </trkpt>
      <trkpt lat="60.22896" lon="18.07183">
        <ele>41.754625</ele>
        <time>2020-08-30T06:32:25.612Z</time>
      </trkpt>
      <trkpt lat="60.2289" lon="18.07223">
        <ele>41.826272</ele>
        <time>2020-08-30T06:32:32.202Z</time>
      </trkpt>
      <trkpt lat="60.22859" lon="18.07288">
        <ele>41.986227</ele>
        <time>2020-08-30T06:32:46.997Z</time>
      </trkpt>
      <trkpt lat="60.22821" lon="18.07452">
        <ele>43.033373</ele>
        <time>2020-08-30T06:33:17.575Z</time>
      </trkpt>
      <trkpt lat="60.22815" lon="18.07506">
        <ele>43.352552</ele>
        <time>2020-08-30T06:33:26.963Z</time>
      </trkpt>
      <trkpt lat="60.22821" lon="18.07556">
        <ele>43.649826</ele>
        <time>2020-08-30T06:33:35.610Z</time>
      </trkpt>
      <trkpt lat="60.22851" lon="18.07674">
        <ele>44.072583</ele>
        <time>2020-08-30T06:33:57.320Z</time>
      </trkpt>
      <trkpt lat="60.22875" lon="18.07734">
        <ele>44.05664</ele>
        <time>2020-08-30T06:34:09.072Z</time>
      </trkpt>
      <trkpt lat="60.22982" lon="18.07914">
        <ele>43.934029</ele>
        <time>2020-08-30T06:34:48.493Z</time>
      </trkpt>
      <trkpt lat="60.23002" lon="18.08019">
        <ele>43.774023</ele>
        <time>2020-08-30T06:35:04.036Z</time>
      </trkpt>
      <trkpt lat="60.23012" lon="18.08047">
        <ele>43.725328</ele>
        <time>2020-08-30T06:35:08.823Z</time>
      </trkpt>
      <trkpt lat="60.2312" lon="18.0831">
        <ele>44.107393</ele>
        <time>2020-08-30T06:35:59.814Z</time>
      </trkpt>
      <trkpt lat="60.232" lon="18.08431">
        <ele>44.860786</ele>
        <time>2020-08-30T06:36:33.310Z</time>
      </trkpt>
      <trkpt lat="60.23223" lon="18.08485">
        <ele>45.373397</ele>
        <time>2020-08-30T06:36:45.607Z</time>
      </trkpt>
      <trkpt lat="60.23237" lon="18.08536">
        <ele>45.776734</ele>
        <time>2020-08-30T06:36:55.353Z</time>
      </trkpt>
      <trkpt lat="60.23248" lon="18.08617">
        <ele>46.3794</ele>
        <time>2020-08-30T06:37:09.958Z</time>
      </trkpt>
      <trkpt lat="60.2326" lon="18.08644">
        <ele>46.633125</ele>
        <time>2020-08-30T06:37:16.098Z</time>
      </trkpt>
      <trkpt lat="60.23311" lon="18.08701">
        <ele>47.394044</ele>
        <time>2020-08-30T06:37:36.245Z</time>
      </trkpt>
      <trkpt lat="60.23344" lon="18.0875">
        <ele>47.7086</ele>
        <time>2020-08-30T06:37:50.276Z</time>
      </trkpt>
      <trkpt lat="60.2337" lon="18.08769">
        <ele>47.920977</ele>
        <time>2020-08-30T06:37:59.518Z</time>
      </trkpt>
      <trkpt lat="60.23391" lon="18.08772">
        <ele>48.079552</ele>
        <time>2020-08-30T06:38:06.288Z</time>
      </trkpt>
      <trkpt lat="60.23464" lon="18.0873">
        <ele>48.663548</ele>
        <time>2020-08-30T06:38:29.805Z</time>
      </trkpt>
      <trkpt lat="60.23497" lon="18.08731">
        <ele>48.454947</ele>
        <time>2020-08-30T06:38:39.318Z</time>
      </trkpt>
      <trkpt lat="60.23548" lon="18.08717">
        <ele>48.064218</ele>
        <time>2020-08-30T06:38:53.845Z</time>
      </trkpt>
      <trkpt lat="60.23593" lon="18.08721">
        <ele>47.721063</ele>
        <time>2020-08-30T06:39:06.156Z</time>
      </trkpt>
      <trkpt lat="60.23641" lon="18.08743">
        <ele>47.346946</ele>
        <time>2020-08-30T06:39:19.234Z</time>
      </trkpt>
      <trkpt lat="60.2367" lon="18.08768">
        <ele>46.75316</ele>
        <time>2020-08-30T06:39:27.562Z</time>
      </trkpt>
      <trkpt lat="60.2372" lon="18.0886">
        <ele>45.401873</ele>
        <time>2020-08-30T06:39:44.733Z</time>
      </trkpt>
      <trkpt lat="60.23737" lon="18.08865">
        <ele>45.065969</ele>
        <time>2020-08-30T06:39:48.945Z</time>
      </trkpt>
      <trkpt lat="60.23794" lon="18.0883">
        <ele>43.86425</ele>
        <time>2020-08-30T06:40:03.881Z</time>
      </trkpt>
      <trkpt lat="60.23818" lon="18.08851">
        <ele>43.1972</ele>
        <time>2020-08-30T06:40:10.154Z</time>
      </trkpt>
      <trkpt lat="60.23869" lon="18.08954">
        <ele>41.130321</ele>
        <time>2020-08-30T06:40:27.418Z</time>
      </trkpt>
      <trkpt lat="60.23905" lon="18.09002">
        <ele>39.874489</ele>
        <time>2020-08-30T06:40:37.680Z</time>
      </trkpt>
      <trkpt lat="60.23976" lon="18.09054">
        <ele>38.203166</ele>
        <time>2020-08-30T06:40:55.942Z</time>
      </trkpt>
      <trkpt lat="60.24008" lon="18.0907">
        <ele>37.795916</ele>
        <time>2020-08-30T06:41:04.213Z</time>
      </trkpt>
      <trkpt lat="60.24004" lon="18.09195">
        <ele>37.022116</ele>
        <time>2020-08-30T06:41:20.840Z</time>
      </trkpt>
      <trkpt lat="60.23994" lon="18.09292">
        <ele>36.415895</ele>
        <time>2020-08-30T06:41:34.911Z</time>
      </trkpt>
      <trkpt lat="60.23972" lon="18.09389">
        <ele>36.875264</ele>
        <time>2020-08-30T06:41:51.932Z</time>
      </trkpt>
      <trkpt lat="60.23881" lon="18.09533">
        <ele>38.171919</ele>
        <time>2020-08-30T06:42:32.032Z</time>
      </trkpt>
      <trkpt lat="60.23835" lon="18.09636">
        <ele>38.694067</ele>
        <time>2020-08-30T06:42:55.330Z</time>
      </trkpt>
      <trkpt lat="60.23811" lon="18.09756">
        <ele>39.101498</ele>
        <time>2020-08-30T06:43:16.099Z</time>
      </trkpt>
      <trkpt lat="60.23775" lon="18.09845">
        <ele>39.463339</ele>
        <time>2020-08-30T06:43:33.418Z</time>
      </trkpt>
      <trkpt lat="60.23728" lon="18.09886">
        <ele>39.072945</ele>
        <time>2020-08-30T06:43:48.065Z</time>
      </trkpt>
      <trkpt lat="60.23631" lon="18.09907">
        <ele>38.12986</ele>
        <time>2020-08-30T06:44:14.145Z</time>
      </trkpt>
      <trkpt lat="60.23594" lon="18.09929">
        <ele>37.761329</ele>
        <time>2020-08-30T06:44:24.090Z</time>
      </trkpt>
      <trkpt lat="60.23529" lon="18.1003">
        <ele>36.73064</ele>
        <time>2020-08-30T06:44:45.627Z</time>
      </trkpt>
      <trkpt lat="60.23521" lon="18.10073">
        <ele>36.441943</ele>
        <time>2020-08-30T06:44:51.714Z</time>
      </trkpt>
      <trkpt lat="60.23511" lon="18.10279">
        <ele>35.136867</ele>
        <time>2020-08-30T06:45:19.359Z</time>
      </trkpt>
      <trkpt lat="60.23514" lon="18.10323">
        <ele>34.848035</ele>
        <time>2020-08-30T06:45:25.396Z</time>
      </trkpt>
      <trkpt lat="60.23554" lon="18.10549">
        <ele>33.289862</ele>
        <time>2020-08-30T06:45:57.134Z</time>
      </trkpt>
      <trkpt lat="60.2356" lon="18.10683">
        <ele>31.991778</ele>
        <time>2020-08-30T06:46:13.960Z</time>
      </trkpt>
      <trkpt lat="60.23556" lon="18.10818">
        <ele>30.606129</ele>
        <time>2020-08-30T06:46:30.363Z</time>
      </trkpt>
      <trkpt lat="60.23545" lon="18.10952">
        <ele>29.510458</ele>
        <time>2020-08-30T06:46:47.232Z</time>
      </trkpt>
      <trkpt lat="60.23541" lon="18.11072">
        <ele>29.869608</ele>
        <time>2020-08-30T06:47:03.519Z</time>
      </trkpt>
      <trkpt lat="60.23541" lon="18.11072">
        <ele>29.869608</ele>
        <time>2020-08-30T06:47:03.528Z</time>
      </trkpt>
      <trkpt lat="60.23541" lon="18.11072">
        <ele>29.869608</ele>
        <time>2020-08-30T06:47:03.610Z</time>
      </trkpt>
      <trkpt lat="60.2354" lon="18.11156">
        <ele>30.120208</ele>
        <time>2020-08-30T06:47:11.845Z</time>
      </trkpt>
      <trkpt lat="60.23534" lon="18.11343">
        <ele>31.442406</ele>
        <time>2020-08-30T06:47:36.502Z</time>
      </trkpt>
      <trkpt lat="60.23539" lon="18.11547">
        <ele>35.096766</ele>
        <time>2020-08-30T06:48:09.761Z</time>
      </trkpt>
      <trkpt lat="60.23543" lon="18.11645">
        <ele>36.854117</ele>
        <time>2020-08-30T06:48:24.745Z</time>
      </trkpt>
      <trkpt lat="60.23549" lon="18.11748">
        <ele>37.461003</ele>
        <time>2020-08-30T06:48:44.430Z</time>
      </trkpt>
      <trkpt lat="60.2357" lon="18.11928">
        <ele>38.348274</ele>
        <time>2020-08-30T06:49:15.157Z</time>
      </trkpt>
      <trkpt lat="60.23576" lon="18.12057">
        <ele>38.284912</ele>
        <time>2020-08-30T06:49:31.833Z</time>
      </trkpt>
      <trkpt lat="60.2357" lon="18.1212">
        <ele>37.675289</ele>
        <time>2020-08-30T06:49:39.869Z</time>
      </trkpt>
      <trkpt lat="60.23548" lon="18.12245">
        <ele>36.399805</ele>
        <time>2020-08-30T06:49:56.515Z</time>
      </trkpt>
      <trkpt lat="60.23522" lon="18.1257">
        <ele>32.844684</ele>
        <time>2020-08-30T06:50:37.157Z</time>
      </trkpt>
      <trkpt lat="60.235" lon="18.12704">
        <ele>31.224601</ele>
        <time>2020-08-30T06:50:54.733Z</time>
      </trkpt>
      <trkpt lat="60.23503" lon="18.12739">
        <ele>30.719146</ele>
        <time>2020-08-30T06:50:59.069Z</time>
      </trkpt>
      <trkpt lat="60.23514" lon="18.12769">
        <ele>30.163039</ele>
        <time>2020-08-30T06:51:03.405Z</time>
      </trkpt>
      <trkpt lat="60.23576" lon="18.1283">
        <ele>28.055991</ele>
        <time>2020-08-30T06:51:19.904Z</time>
      </trkpt>
      <trkpt lat="60.23613" lon="18.12893">
        <ele>26.584635</ele>
        <time>2020-08-30T06:51:31.431Z</time>
      </trkpt>
      <trkpt lat="60.23619" lon="18.129">
        <ele>26.372684</ele>
        <time>2020-08-30T06:51:33.062Z</time>
      </trkpt>
      <trkpt lat="60.23617" lon="18.12922">
        <ele>26.028297</ele>
        <time>2020-08-30T06:51:34.539Z</time>
      </trkpt>
      <trkpt lat="60.23617" lon="18.1306">
        <ele>23.76526</ele>
        <time>2020-08-30T06:51:43.841Z</time>
      </trkpt>
      <trkpt lat="60.23626" lon="18.1328">
        <ele>20.090178</ele>
        <time>2020-08-30T06:51:58.587Z</time>
      </trkpt>
      <trkpt lat="60.23643" lon="18.13519">
        <ele>17.496479</ele>
        <time>2020-08-30T06:52:15.695Z</time>
      </trkpt>
      <trkpt lat="60.23718" lon="18.13918">
        <ele>14.817745</ele>
        <time>2020-08-30T06:52:49.784Z</time>
      </trkpt>
      <trkpt lat="60.23805" lon="18.14301">
        <ele>14.069648</ele>
        <time>2020-08-30T06:53:27.280Z</time>
      </trkpt>
      <trkpt lat="60.23867" lon="18.14508">
        <ele>14.092949</ele>
        <time>2020-08-30T06:53:49.476Z</time>
      </trkpt>
      <trkpt lat="60.23887" lon="18.14559">
        <ele>14.109648</ele>
        <time>2020-08-30T06:53:55.615Z</time>
      </trkpt>
      <trkpt lat="60.23925" lon="18.14575">
        <ele>14.129156</ele>
        <time>2020-08-30T06:54:02.835Z</time>
      </trkpt>
      <trkpt lat="60.23987" lon="18.1465">
        <ele>14.486693</ele>
        <time>2020-08-30T06:54:17.000Z</time>
      </trkpt>
      <trkpt lat="60.24054" lon="18.14774">
        <ele>14.946874</ele>
        <time>2020-08-30T06:54:35.608Z</time>
      </trkpt>
      <trkpt lat="60.24097" lon="18.1489">
        <ele>15.614241</ele>
        <time>2020-08-30T06:54:51.136Z</time>
      </trkpt>
      <trkpt lat="60.24125" lon="18.14919">
        <ele>15.9528</ele>
        <time>2020-08-30T06:54:58.125Z</time>
      </trkpt>
      <trkpt lat="60.24186" lon="18.14944">
        <ele>16.622596</ele>
        <time>2020-08-30T06:55:12.137Z</time>
      </trkpt>
      <trkpt lat="60.24235" lon="18.14943">
        <ele>17.104261</ele>
        <time>2020-08-30T06:55:23.284Z</time>
      </trkpt>
      <trkpt lat="60.24274" lon="18.14959">
        <ele>17.410015</ele>
        <time>2020-08-30T06:55:32.077Z</time>
      </trkpt>
      <trkpt lat="60.2438" lon="18.14952">
        <ele>18.220919</ele>
        <time>2020-08-30T06:55:53.915Z</time>
      </trkpt>
      <trkpt lat="60.24425" lon="18.14964">
        <ele>18.477432</ele>
        <time>2020-08-30T06:56:02.859Z</time>
      </trkpt>
      <trkpt lat="60.24468" lon="18.15018">
        <ele>18.702827</ele>
        <time>2020-08-30T06:56:12.861Z</time>
      </trkpt>
      <trkpt lat="60.24513" lon="18.15059">
        <ele>18.921167</ele>
        <time>2020-08-30T06:56:22.601Z</time>
      </trkpt>
      <trkpt lat="60.2453" lon="18.15173">
        <ele>19.190317</ele>
        <time>2020-08-30T06:56:34.400Z</time>
      </trkpt>
      <trkpt lat="60.24541" lon="18.1518">
        <ele>19.25458</ele>
        <time>2020-08-30T06:56:36.811Z</time>
      </trkpt>
      <trkpt lat="60.24582" lon="18.15161">
        <ele>19.486908</ele>
        <time>2020-08-30T06:56:45.637Z</time>
      </trkpt>
      <trkpt lat="60.24657" lon="18.15101">
        <ele>19.92823</ele>
        <time>2020-08-30T06:57:02.558Z</time>
      </trkpt>
      <trkpt lat="60.24687" lon="18.15095">
        <ele>20.093287</ele>
        <time>2020-08-30T06:57:08.372Z</time>
      </trkpt>
      <trkpt lat="60.24696" lon="18.15097">
        <ele>20.138451</ele>
        <time>2020-08-30T06:57:10.604Z</time>
      </trkpt>
      <trkpt lat="60.24692" lon="18.15119">
        <ele>20.123488</ele>
        <time>2020-08-30T06:57:12.481Z</time>
      </trkpt>
      <trkpt lat="60.24676" lon="18.15435">
        <ele>19.920961</ele>
        <time>2020-08-30T06:57:40.053Z</time>
      </trkpt>
      <trkpt lat="60.24677" lon="18.15643">
        <ele>19.217294</ele>
        <time>2020-08-30T06:57:56.607Z</time>
      </trkpt>
      <trkpt lat="60.24668" lon="18.15956">
        <ele>18.351462</ele>
        <time>2020-08-30T06:58:21.032Z</time>
      </trkpt>
      <trkpt lat="60.24661" lon="18.16017">
        <ele>18.249079</ele>
        <time>2020-08-30T06:58:26.179Z</time>
      </trkpt>
      <trkpt lat="60.24645" lon="18.16108">
        <ele>18.089958</ele>
        <time>2020-08-30T06:58:34.606Z</time>
      </trkpt>
      <trkpt lat="60.24631" lon="18.1615">
        <ele>18.007013</ele>
        <time>2020-08-30T06:58:39.266Z</time>
      </trkpt>
      <trkpt lat="60.24566" lon="18.16302">
        <ele>18.75953</ele>
        <time>2020-08-30T06:58:59.224Z</time>
      </trkpt>
      <trkpt lat="60.24537" lon="18.16388">
        <ele>19.189421</ele>
        <time>2020-08-30T06:59:10.240Z</time>
      </trkpt>
      <trkpt lat="60.24507" lon="18.16536">
        <ele>19.869065</ele>
        <time>2020-08-30T06:59:27.265Z</time>
      </trkpt>
      <trkpt lat="60.245" lon="18.16598">
        <ele>20.141791</ele>
        <time>2020-08-30T06:59:33.829Z</time>
      </trkpt>
      <trkpt lat="60.24503" lon="18.16632">
        <ele>20.289263</ele>
        <time>2020-08-30T06:59:37.327Z</time>
      </trkpt>
      <trkpt lat="60.2452" lon="18.16691">
        <ele>20.583552</ele>
        <time>2020-08-30T06:59:44.207Z</time>
      </trkpt>
      <trkpt lat="60.24526" lon="18.16757">
        <ele>20.871228</ele>
        <time>2020-08-30T06:59:50.985Z</time>
      </trkpt>
      <trkpt lat="60.24522" lon="18.16816">
        <ele>21.107613</ele>
        <time>2020-08-30T06:59:56.972Z</time>
      </trkpt>
      <trkpt lat="60.24496" lon="18.16942">
        <ele>21.553504</ele>
        <time>2020-08-30T07:00:10.461Z</time>
      </trkpt>
      <trkpt lat="60.24483" lon="18.1697">
        <ele>21.67825</ele>
        <time>2020-08-30T07:00:14.194Z</time>
      </trkpt>
      <trkpt lat="60.24472" lon="18.16991">
        <ele>21.779423</ele>
        <time>2020-08-30T07:00:17.184Z</time>
      </trkpt>
      <trkpt lat="60.24442" lon="18.17069">
        <ele>22.097577</ele>
        <time>2020-08-30T07:00:26.750Z</time>
      </trkpt>
      <trkpt lat="60.24436" lon="18.17126">
        <ele>22.33894</ele>
        <time>2020-08-30T07:00:32.475Z</time>
      </trkpt>
      <trkpt lat="60.24437" lon="18.17147">
        <ele>22.4728</ele>
        <time>2020-08-30T07:00:34.760Z</time>
      </trkpt>
      <trkpt lat="60.24439" lon="18.17189">
        <ele>22.730759</ele>
        <time>2020-08-30T07:00:38.957Z</time>
      </trkpt>
      <trkpt lat="60.24436" lon="18.17232">
        <ele>23.002005</ele>
        <time>2020-08-30T07:00:43.572Z</time>
      </trkpt>
      <trkpt lat="60.24428" lon="18.1725">
        <ele>23.146538</ele>
        <time>2020-08-30T07:00:46.037Z</time>
      </trkpt>
      <trkpt lat="60.24415" lon="18.17262">
        <ele>23.333943</ele>
        <time>2020-08-30T07:00:49.312Z</time>
      </trkpt>
      <trkpt lat="60.24392" lon="18.17271">
        <ele>23.626053</ele>
        <time>2020-08-30T07:00:54.271Z</time>
      </trkpt>
      <trkpt lat="60.24319" lon="18.17274">
        <ele>24.581345</ele>
        <time>2020-08-30T07:01:10.873Z</time>
      </trkpt>
      <trkpt lat="60.2428" lon="18.17376">
        <ele>26.048238</ele>
        <time>2020-08-30T07:01:26.784Z</time>
      </trkpt>
      <trkpt lat="60.24186" lon="18.17519">
        <ele>28.697097</ele>
        <time>2020-08-30T07:01:57.568Z</time>
      </trkpt>
      <trkpt lat="60.24047" lon="18.17599">
        <ele>31.056563</ele>
        <time>2020-08-30T07:02:32.233Z</time>
      </trkpt>
      <trkpt lat="60.24001" lon="18.17639">
        <ele>31.251611</ele>
        <time>2020-08-30T07:02:41.831Z</time>
      </trkpt>
      <trkpt lat="60.23981" lon="18.17684">
        <ele>30.88467</ele>
        <time>2020-08-30T07:02:46.934Z</time>
      </trkpt>
      <trkpt lat="60.23948" lon="18.17797">
        <ele>30.082775</ele>
        <time>2020-08-30T07:02:56.821Z</time>
      </trkpt>
      <trkpt lat="60.23924" lon="18.17841">
        <ele>29.683093</ele>
        <time>2020-08-30T07:03:01.330Z</time>
      </trkpt>
      <trkpt lat="60.23859" lon="18.17924">
        <ele>27.921007</ele>
        <time>2020-08-30T07:03:11.559Z</time>
      </trkpt>
      <trkpt lat="60.23837" lon="18.17963">
        <ele>27.044138</ele>
        <time>2020-08-30T07:03:15.369Z</time>
      </trkpt>
      <trkpt lat="60.23779" lon="18.18119">
        <ele>24.141504</ele>
        <time>2020-08-30T07:03:28.025Z</time>
      </trkpt>
      <trkpt lat="60.23769" lon="18.18177">
        <ele>23.418535</ele>
        <time>2020-08-30T07:03:32.153Z</time>
      </trkpt>
      <trkpt lat="60.23766" lon="18.18221">
        <ele>22.960511</ele>
        <time>2020-08-30T07:03:35.084Z</time>
      </trkpt>
      <trkpt lat="60.23763" lon="18.18339">
        <ele>21.721644</ele>
        <time>2020-08-30T07:03:43.248Z</time>
      </trkpt>
      <trkpt lat="60.23767" lon="18.18425">
        <ele>20.81221</ele>
        <time>2020-08-30T07:03:49.457Z</time>
      </trkpt>
      <trkpt lat="60.23764" lon="18.18452">
        <ele>20.517046</ele>
        <time>2020-08-30T07:03:51.512Z</time>
      </trkpt>
      <trkpt lat="60.23749" lon="18.18492">
        <ele>20.047511</ele>
        <time>2020-08-30T07:03:55.181Z</time>
      </trkpt>
      <trkpt lat="60.23694" lon="18.18532">
        <ele>19.400977</ele>
        <time>2020-08-30T07:04:03.906Z</time>
      </trkpt>
      <trkpt lat="60.23657" lon="18.186">
        <ele>18.840718</ele>
        <time>2020-08-30T07:04:11.609Z</time>
      </trkpt>
      <trkpt lat="60.23643" lon="18.18609">
        <ele>18.680812</ele>
        <time>2020-08-30T07:04:13.834Z</time>
      </trkpt>
      <trkpt lat="60.23572" lon="18.18612">
        <ele>18.205759</ele>
        <time>2020-08-30T07:04:25.041Z</time>
      </trkpt>
      <trkpt lat="60.2353" lon="18.18641">
        <ele>18.425401</ele>
        <time>2020-08-30T07:04:32.306Z</time>
      </trkpt>
      <trkpt lat="60.23477" lon="18.18657">
        <ele>18.684584</ele>
        <time>2020-08-30T07:04:42.340Z</time>
      </trkpt>
      <trkpt lat="60.23453" lon="18.18697">
        <ele>18.838473</ele>
        <time>2020-08-30T07:04:49.297Z</time>
      </trkpt>
      <trkpt lat="60.23401" lon="18.18844">
        <ele>20.453712</ele>
        <time>2020-08-30T07:05:10.752Z</time>
      </trkpt>
      <trkpt lat="60.23394" lon="18.18851">
        <ele>20.656658</ele>
        <time>2020-08-30T07:05:13.019Z</time>
      </trkpt>
      <trkpt lat="60.23387" lon="18.18851">
        <ele>20.842604</ele>
        <time>2020-08-30T07:05:15.385Z</time>
      </trkpt>
      <trkpt lat="60.23304" lon="18.18766">
        <ele>23.17256</ele>
        <time>2020-08-30T07:05:40.412Z</time>
      </trkpt>
      <trkpt lat="60.23203" lon="18.18707">
        <ele>25.063458</ele>
        <time>2020-08-30T07:06:07.890Z</time>
      </trkpt>
      <trkpt lat="60.2313" lon="18.18648">
        <ele>26.410068</ele>
        <time>2020-08-30T07:06:24.494Z</time>
      </trkpt>
      <trkpt lat="60.23114" lon="18.18629">
        <ele>26.519368</ele>
        <time>2020-08-30T07:06:28.282Z</time>
      </trkpt>
      <trkpt lat="60.23101" lon="18.18615">
        <ele>26.445738</ele>
        <time>2020-08-30T07:06:30.637Z</time>
      </trkpt>
      <trkpt lat="60.23057" lon="18.18586">
        <ele>26.19701</ele>
        <time>2020-08-30T07:06:38.866Z</time>
      </trkpt>
      <trkpt lat="60.23023" lon="18.18594">
        <ele>26.016022</ele>
        <time>2020-08-30T07:06:44.395Z</time>
      </trkpt>
      <trkpt lat="60.22956" lon="18.18664">
        <ele>25.612736</ele>
        <time>2020-08-30T07:06:56.091Z</time>
      </trkpt>
      <trkpt lat="60.22816" lon="18.18757">
        <ele>22.298688</ele>
        <time>2020-08-30T07:07:16.687Z</time>
      </trkpt>
      <trkpt lat="60.22755" lon="18.18797">
        <ele>20.67248</ele>
        <time>2020-08-30T07:07:25.176Z</time>
      </trkpt>
      <trkpt lat="60.22741" lon="18.18805">
        <ele>20.287882</ele>
        <time>2020-08-30T07:07:26.910Z</time>
      </trkpt>
      <trkpt lat="60.22634" lon="18.18881">
        <ele>17.118153</ele>
        <time>2020-08-30T07:07:41.973Z</time>
      </trkpt>
      <trkpt lat="60.22604" lon="18.18902">
        <ele>16.44832</ele>
        <time>2020-08-30T07:07:46.254Z</time>
      </trkpt>
      <trkpt lat="60.22427" lon="18.19063">
        <ele>14.752036</ele>
        <time>2020-08-30T07:08:17.348Z</time>
      </trkpt>
      <trkpt lat="60.22347" lon="18.19137">
        <ele>14.701273</ele>
        <time>2020-08-30T07:08:33.070Z</time>
      </trkpt>
      <trkpt lat="60.22282" lon="18.19197">
        <ele>14.687998</ele>
        <time>2020-08-30T07:08:46.070Z</time>
      </trkpt>
      <trkpt lat="60.2202" lon="18.19435">
        <ele>16.755969</ele>
        <time>2020-08-30T07:09:41.854Z</time>
      </trkpt>
      <trkpt lat="60.2181" lon="18.1963">
        <ele>20.619591</ele>
        <time>2020-08-30T07:10:39.861Z</time>
      </trkpt>
      <trkpt lat="60.21612" lon="18.19807">
        <ele>20.909862</ele>
        <time>2020-08-30T07:11:19.712Z</time>
      </trkpt>
      <trkpt lat="60.21586" lon="18.19828">
        <ele>20.363025</ele>
        <time>2020-08-30T07:11:24.013Z</time>
      </trkpt>
      <trkpt lat="60.2159" lon="18.19849">
        <ele>20.140776</ele>
        <time>2020-08-30T07:11:25.526Z</time>
      </trkpt>
      <trkpt lat="60.21642" lon="18.20119">
        <ele>17.494295</ele>
        <time>2020-08-30T07:11:44.789Z</time>
      </trkpt>
      <trkpt lat="60.21652" lon="18.20192">
        <ele>16.992064</ele>
        <time>2020-08-30T07:11:50.067Z</time>
      </trkpt>
      <trkpt lat="60.21658" lon="18.20256">
        <ele>16.565773</ele>
        <time>2020-08-30T07:11:54.794Z</time>
      </trkpt>
      <trkpt lat="60.2166" lon="18.20282">
        <ele>16.393107</ele>
        <time>2020-08-30T07:11:56.693Z</time>
      </trkpt>
      <trkpt lat="60.21664" lon="18.20338">
        <ele>16.020483</ele>
        <time>2020-08-30T07:12:01.367Z</time>
      </trkpt>
      <trkpt lat="60.21665" lon="18.20384">
        <ele>15.716073</ele>
        <time>2020-08-30T07:12:05.341Z</time>
      </trkpt>
      <trkpt lat="60.21664" lon="18.20443">
        <ele>15.502782</ele>
        <time>2020-08-30T07:12:10.220Z</time>
      </trkpt>
      <trkpt lat="60.21664" lon="18.20464">
        <ele>15.606728</ele>
        <time>2020-08-30T07:12:12.547Z</time>
      </trkpt>
      <trkpt lat="60.21662" lon="18.20516">
        <ele>15.860704</ele>
        <time>2020-08-30T07:12:17.043Z</time>
      </trkpt>
      <trkpt lat="60.2166" lon="18.20585">
        <ele>16.200434</ele>
        <time>2020-08-30T07:12:23.987Z</time>
      </trkpt>
      <trkpt lat="60.21658" lon="18.20633">
        <ele>16.432032</ele>
        <time>2020-08-30T07:12:29.142Z</time>
      </trkpt>
      <trkpt lat="60.21657" lon="18.20652">
        <ele>16.529569</ele>
        <time>2020-08-30T07:12:30.959Z</time>
      </trkpt>
      <trkpt lat="60.21657" lon="18.2066">
        <ele>16.565826</ele>
        <time>2020-08-30T07:12:31.626Z</time>
      </trkpt>
      <trkpt lat="60.21657" lon="18.20665">
        <ele>16.592806</ele>
        <time>2020-08-30T07:12:32.382Z</time>
      </trkpt>
      <trkpt lat="60.21648" lon="18.20867">
        <ele>17.518496</ele>
        <time>2020-08-30T07:12:56.785Z</time>
      </trkpt>
      <trkpt lat="60.21648" lon="18.20916">
        <ele>17.717402</ele>
        <time>2020-08-30T07:13:02.480Z</time>
      </trkpt>
      <trkpt lat="60.21651" lon="18.20962">
        <ele>17.902493</ele>
        <time>2020-08-30T07:13:06.865Z</time>
      </trkpt>
      <trkpt lat="60.2166" lon="18.21038">
        <ele>18.222456</ele>
        <time>2020-08-30T07:13:14.285Z</time>
      </trkpt>
      <trkpt lat="60.21664" lon="18.21068">
        <ele>18.350391</ele>
        <time>2020-08-30T07:13:17.514Z</time>
      </trkpt>
      <trkpt lat="60.21673" lon="18.21112">
        <ele>18.539233</ele>
        <time>2020-08-30T07:13:21.513Z</time>
      </trkpt>
      <trkpt lat="60.21685" lon="18.21158">
        <ele>18.552767</ele>
        <time>2020-08-30T07:13:26.222Z</time>
      </trkpt>
      <trkpt lat="60.21698" lon="18.21197">
        <ele>18.297633</ele>
        <time>2020-08-30T07:13:30.598Z</time>
      </trkpt>
      <trkpt lat="60.21713" lon="18.21241">
        <ele>17.99933</ele>
        <time>2020-08-30T07:13:35.051Z</time>
      </trkpt>
      <trkpt lat="60.21785" lon="18.21395">
        <ele>16.83926</ele>
        <time>2020-08-30T07:13:50.419Z</time>
      </trkpt>
      <trkpt lat="60.21829" lon="18.21495">
        <ele>15.962852</ele>
        <time>2020-08-30T07:13:59.660Z</time>
      </trkpt>
      <trkpt lat="60.2186" lon="18.21569">
        <ele>15.299537</ele>
        <time>2020-08-30T07:14:06.579Z</time>
      </trkpt>
      <trkpt lat="60.21901" lon="18.21704">
        <ele>14.21281</ele>
        <time>2020-08-30T07:14:18.409Z</time>
      </trkpt>
      <trkpt lat="60.22004" lon="18.22275">
        <ele>15.866658</ele>
        <time>2020-08-30T07:15:17.097Z</time>
      </trkpt>
      <trkpt lat="60.2202" lon="18.2237">
        <ele>16.34726</ele>
        <time>2020-08-30T07:15:28.487Z</time>
      </trkpt>
      <trkpt lat="60.22012" lon="18.22379">
        <ele>16.435888</ele>
        <time>2020-08-30T07:15:31.325Z</time>
      </trkpt>
      <trkpt lat="60.21958" lon="18.22482">
        <ele>17.351956</ele>
        <time>2020-08-30T07:15:48.916Z</time>
      </trkpt>
      <trkpt lat="60.21942" lon="18.22495">
        <ele>17.569641</ele>
        <time>2020-08-30T07:15:52.572Z</time>
      </trkpt>
      <trkpt lat="60.21875" lon="18.22466">
        <ele>18.413841</ele>
        <time>2020-08-30T07:16:07.786Z</time>
      </trkpt>
      <trkpt lat="60.21835" lon="18.22437">
        <ele>18.602629</ele>
        <time>2020-08-30T07:16:15.410Z</time>
      </trkpt>
      <trkpt lat="60.21808" lon="18.22443">
        <ele>18.543323</ele>
        <time>2020-08-30T07:16:20.013Z</time>
      </trkpt>
      <trkpt lat="60.2176" lon="18.22502">
        <ele>18.417655</ele>
        <time>2020-08-30T07:16:29.491Z</time>
      </trkpt>
      <trkpt lat="60.2168" lon="18.22551">
        <ele>18.213964</ele>
        <time>2020-08-30T07:16:43.142Z</time>
      </trkpt>
      <trkpt lat="60.21581" lon="18.2267">
        <ele>17.746846</ele>
        <time>2020-08-30T07:17:02.354Z</time>
      </trkpt>
      <trkpt lat="60.2156" lon="18.22681">
        <ele>17.65795</ele>
        <time>2020-08-30T07:17:06.061Z</time>
      </trkpt>
      <trkpt lat="60.21511" lon="18.22681">
        <ele>17.478402</ele>
        <time>2020-08-30T07:17:14.342Z</time>
      </trkpt>
      <trkpt lat="60.21492" lon="18.22691">
        <ele>17.421881</ele>
        <time>2020-08-30T07:17:17.737Z</time>
      </trkpt>
      <trkpt lat="60.21472" lon="18.22727">
        <ele>17.345907</ele>
        <time>2020-08-30T07:17:22.228Z</time>
      </trkpt>
      <trkpt lat="60.2144" lon="18.22821">
        <ele>17.183874</ele>
        <time>2020-08-30T07:17:31.825Z</time>
      </trkpt>
      <trkpt lat="60.21414" lon="18.23049">
        <ele>17.204018</ele>
        <time>2020-08-30T07:17:51.694Z</time>
      </trkpt>
      <trkpt lat="60.21419" lon="18.23208">
        <ele>17.47964</ele>
        <time>2020-08-30T07:18:06.672Z</time>
      </trkpt>
      <trkpt lat="60.21414" lon="18.23324">
        <ele>17.865825</ele>
        <time>2020-08-30T07:18:18.660Z</time>
      </trkpt>
      <trkpt lat="60.21373" lon="18.23439">
        <ele>19.140206</ele>
        <time>2020-08-30T07:18:34.480Z</time>
      </trkpt>
      <trkpt lat="60.21355" lon="18.23643">
        <ele>21.061198</ele>
        <time>2020-08-30T07:19:00.177Z</time>
      </trkpt>
      <trkpt lat="60.21318" lon="18.23814">
        <ele>23.482826</ele>
        <time>2020-08-30T07:19:24.810Z</time>
      </trkpt>
      <trkpt lat="60.21303" lon="18.23956">
        <ele>25.383038</ele>
        <time>2020-08-30T07:19:44.156Z</time>
      </trkpt>
      <trkpt lat="60.21269" lon="18.24066">
        <ele>26.366645</ele>
        <time>2020-08-30T07:20:00.584Z</time>
      </trkpt>
      <trkpt lat="60.21266" lon="18.24087">
        <ele>26.515402</ele>
        <time>2020-08-30T07:20:03.248Z</time>
      </trkpt>
      <trkpt lat="60.21272" lon="18.24278">
        <ele>27.789252</ele>
        <time>2020-08-30T07:20:23.405Z</time>
      </trkpt>
      <trkpt lat="60.21265" lon="18.24326">
        <ele>28.008868</ele>
        <time>2020-08-30T07:20:27.880Z</time>
      </trkpt>
      <trkpt lat="60.21243" lon="18.24388">
        <ele>27.728657</ele>
        <time>2020-08-30T07:20:34.259Z</time>
      </trkpt>
      <trkpt lat="60.21184" lon="18.24586">
        <ele>26.881144</ele>
        <time>2020-08-30T07:20:51.862Z</time>
      </trkpt>
      <trkpt lat="60.21181" lon="18.2461">
        <ele>26.791746</ele>
        <time>2020-08-30T07:20:53.668Z</time>
      </trkpt>
      <trkpt lat="60.21179" lon="18.24849">
        <ele>26.099907</ele>
        <time>2020-08-30T07:21:12.503Z</time>
      </trkpt>
      <trkpt lat="60.21168" lon="18.2494">
        <ele>25.834461</ele>
        <time>2020-08-30T07:21:20.670Z</time>
      </trkpt>
      <trkpt lat="60.21164" lon="18.2501">
        <ele>25.671678</ele>
        <time>2020-08-30T07:21:26.723Z</time>
      </trkpt>
      <trkpt lat="60.21149" lon="18.25113">
        <ele>25.532824</ele>
        <time>2020-08-30T07:21:36.086Z</time>
      </trkpt>
      <trkpt lat="60.21142" lon="18.25227">
        <ele>25.385566</ele>
        <time>2020-08-30T07:21:45.996Z</time>
      </trkpt>
      <trkpt lat="60.21114" lon="18.25395">
        <ele>25.153191</ele>
        <time>2020-08-30T07:22:00.453Z</time>
      </trkpt>
      <trkpt lat="60.2108" lon="18.25658">
        <ele>24.776567</ele>
        <time>2020-08-30T07:22:23.318Z</time>
      </trkpt>
      <trkpt lat="60.21065" lon="18.25725">
        <ele>24.77981</ele>
        <time>2020-08-30T07:22:30.082Z</time>
      </trkpt>
      <trkpt lat="60.21047" lon="18.25776">
        <ele>24.845859</ele>
        <time>2020-08-30T07:22:35.838Z</time>
      </trkpt>
      <trkpt lat="60.21035" lon="18.25822">
        <ele>24.900464</ele>
        <time>2020-08-30T07:22:40.907Z</time>
      </trkpt>
      <trkpt lat="60.21033" lon="18.25829">
        <ele>24.909783</ele>
        <time>2020-08-30T07:22:41.640Z</time>
      </trkpt>
      <trkpt lat="60.21009" lon="18.25936">
        <ele>25.034111</ele>
        <time>2020-08-30T07:22:52.955Z</time>
      </trkpt>
      <trkpt lat="60.20992" lon="18.25989">
        <ele>25.100743</ele>
        <time>2020-08-30T07:22:58.951Z</time>
      </trkpt>
      <trkpt lat="60.20903" lon="18.26161">
        <ele>24.189128</ele>
        <time>2020-08-30T07:23:19.539Z</time>
      </trkpt>
      <trkpt lat="60.20882" lon="18.26219">
        <ele>23.901241</ele>
        <time>2020-08-30T07:23:24.875Z</time>
      </trkpt>
      <trkpt lat="60.20863" lon="18.26298">
        <ele>23.418177</ele>
        <time>2020-08-30T07:23:31.098Z</time>
      </trkpt>
      <trkpt lat="60.20851" lon="18.26382">
        <ele>22.675358</ele>
        <time>2020-08-30T07:23:37.164Z</time>
      </trkpt>
      <trkpt lat="60.20843" lon="18.26484">
        <ele>21.799293</ele>
        <time>2020-08-30T07:23:44.349Z</time>
      </trkpt>
      <trkpt lat="60.20842" lon="18.26558">
        <ele>21.17307</ele>
        <time>2020-08-30T07:23:49.573Z</time>
      </trkpt>
      <trkpt lat="60.20849" lon="18.26642">
        <ele>20.600484</ele>
        <time>2020-08-30T07:23:55.716Z</time>
      </trkpt>
      <trkpt lat="60.20916" lon="18.27283">
        <ele>21.546767</ele>
        <time>2020-08-30T07:24:56.768Z</time>
      </trkpt>
      <trkpt lat="60.2092" lon="18.27366">
        <ele>22.119753</ele>
        <time>2020-08-30T07:25:06.572Z</time>
      </trkpt>
      <trkpt lat="60.20913" lon="18.27447">
        <ele>23.203862</ele>
        <time>2020-08-30T07:25:16.832Z</time>
      </trkpt>
      <trkpt lat="60.20901" lon="18.27502">
        <ele>23.982835</ele>
        <time>2020-08-30T07:25:24.650Z</time>
      </trkpt>
      <trkpt lat="60.20875" lon="18.27641">
        <ele>25.932521</ele>
        <time>2020-08-30T07:25:45.249Z</time>
      </trkpt>
      <trkpt lat="60.20823" lon="18.27979">
        <ele>31.635704</ele>
        <time>2020-08-30T07:26:36.384Z</time>
      </trkpt>
      <trkpt lat="60.20833" lon="18.28045">
        <ele>32.609939</ele>
        <time>2020-08-30T07:26:45.648Z</time>
      </trkpt>
      <trkpt lat="60.20853" lon="18.28115">
        <ele>33.339373</ele>
        <time>2020-08-30T07:26:55.947Z</time>
      </trkpt>
      <trkpt lat="60.20854" lon="18.28127">
        <ele>33.447715</ele>
        <time>2020-08-30T07:26:57.719Z</time>
      </trkpt>
      <trkpt lat="60.20856" lon="18.28145">
        <ele>33.604477</ele>
        <time>2020-08-30T07:26:59.762Z</time>
      </trkpt>
      <trkpt lat="60.20857" lon="18.28177">
        <ele>33.895887</ele>
        <time>2020-08-30T07:27:03.493Z</time>
      </trkpt>
      <trkpt lat="60.20846" lon="18.28281">
        <ele>34.847161</ele>
        <time>2020-08-30T07:27:15.696Z</time>
      </trkpt>
      <trkpt lat="60.20848" lon="18.28411">
        <ele>35.719148</ele>
        <time>2020-08-30T07:27:29.293Z</time>
      </trkpt>
      <trkpt lat="60.20873" lon="18.28557">
        <ele>35.924436</ele>
        <time>2020-08-30T07:27:43.321Z</time>
      </trkpt>
      <trkpt lat="60.20868" lon="18.28642">
        <ele>36.038964</ele>
        <time>2020-08-30T07:27:51.038Z</time>
      </trkpt>
      <trkpt lat="60.20871" lon="18.28695">
        <ele>36.109471</ele>
        <time>2020-08-30T07:27:55.758Z</time>
      </trkpt>
      <trkpt lat="60.20883" lon="18.28766">
        <ele>36.045488</ele>
        <time>2020-08-30T07:28:02.417Z</time>
      </trkpt>
      <trkpt lat="60.20916" lon="18.28895">
        <ele>35.7109</ele>
        <time>2020-08-30T07:28:14.949Z</time>
      </trkpt>
      <trkpt lat="60.20923" lon="18.28948">
        <ele>35.584892</ele>
        <time>2020-08-30T07:28:19.457Z</time>
      </trkpt>
      <trkpt lat="60.20975" lon="18.2916">
        <ele>34.329802</ele>
        <time>2020-08-30T07:28:37.687Z</time>
      </trkpt>
      <trkpt lat="60.20983" lon="18.29334">
        <ele>32.885694</ele>
        <time>2020-08-30T07:28:50.164Z</time>
      </trkpt>
      <trkpt lat="60.20998" lon="18.29389">
        <ele>32.360278</ele>
        <time>2020-08-30T07:28:54.512Z</time>
      </trkpt>
      <trkpt lat="60.21025" lon="18.29438">
        <ele>31.318775</ele>
        <time>2020-08-30T07:28:59.409Z</time>
      </trkpt>
      <trkpt lat="60.21031" lon="18.29479">
        <ele>30.693046</ele>
        <time>2020-08-30T07:29:02.249Z</time>
      </trkpt>
      <trkpt lat="60.21022" lon="18.29554">
        <ele>29.557762</ele>
        <time>2020-08-30T07:29:07.385Z</time>
      </trkpt>
      <trkpt lat="60.21006" lon="18.29635">
        <ele>28.272324</ele>
        <time>2020-08-30T07:29:12.996Z</time>
      </trkpt>
      <trkpt lat="60.20993" lon="18.2967">
        <ele>27.639286</ele>
        <time>2020-08-30T07:29:15.741Z</time>
      </trkpt>
      <trkpt lat="60.2093" lon="18.29799">
        <ele>25.356687</ele>
        <time>2020-08-30T07:29:27.631Z</time>
      </trkpt>
      <trkpt lat="60.20913" lon="18.29843">
        <ele>24.69825</ele>
        <time>2020-08-30T07:29:31.328Z</time>
      </trkpt>
      <trkpt lat="60.20908" lon="18.29877">
        <ele>24.271267</ele>
        <time>2020-08-30T07:29:33.797Z</time>
      </trkpt>
      <trkpt lat="60.20907" lon="18.30038">
        <ele>22.583511</ele>
        <time>2020-08-30T07:29:45.322Z</time>
      </trkpt>
      <trkpt lat="60.20889" lon="18.30167">
        <ele>22.07153</ele>
        <time>2020-08-30T07:29:55.708Z</time>
      </trkpt>
      <trkpt lat="60.20839" lon="18.30285">
        <ele>21.478035</ele>
        <time>2020-08-30T07:30:08.662Z</time>
      </trkpt>
      <trkpt lat="60.20795" lon="18.30345">
        <ele>21.137973</ele>
        <time>2020-08-30T07:30:17.512Z</time>
      </trkpt>
      <trkpt lat="60.20766" lon="18.30414">
        <ele>20.893849</ele>
        <time>2020-08-30T07:30:24.950Z</time>
      </trkpt>
      <trkpt lat="60.20763" lon="18.30427">
        <ele>20.852872</ele>
        <time>2020-08-30T07:30:26.055Z</time>
      </trkpt>
      <trkpt lat="60.20762" lon="18.30441">
        <ele>20.81565</ele>
        <time>2020-08-30T07:30:27.903Z</time>
      </trkpt>
      <trkpt lat="60.20768" lon="18.30475">
        <ele>20.718657</ele>
        <time>2020-08-30T07:30:33.146Z</time>
      </trkpt>
      <trkpt lat="60.20797" lon="18.30532">
        <ele>20.498549</ele>
        <time>2020-08-30T07:30:44.468Z</time>
      </trkpt>
      <trkpt lat="60.20806" lon="18.30577">
        <ele>20.365248</ele>
        <time>2020-08-30T07:30:51.213Z</time>
      </trkpt>
      <trkpt lat="60.20814" lon="18.30821">
        <ele>19.572742</ele>
        <time>2020-08-30T07:31:24.957Z</time>
      </trkpt>
      <trkpt lat="60.20806" lon="18.30882">
        <ele>19.365167</ele>
        <time>2020-08-30T07:31:33.810Z</time>
      </trkpt>
      <trkpt lat="60.20786" lon="18.30908">
        <ele>19.212389</ele>
        <time>2020-08-30T07:31:40.295Z</time>
      </trkpt>
      <trkpt lat="60.20771" lon="18.30951">
        <ele>19.125403</ele>
        <time>2020-08-30T07:31:47.742Z</time>
      </trkpt>
      <trkpt lat="60.20771" lon="18.31048">
        <ele>19.087869</ele>
        <time>2020-08-30T07:32:01.482Z</time>
      </trkpt>
      <trkpt lat="60.20798" lon="18.31244">
        <ele>19.009684</ele>
        <time>2020-08-30T07:32:31.114Z</time>
      </trkpt>
      <trkpt lat="60.20848" lon="18.31488">
        <ele>20.150876</ele>
        <time>2020-08-30T07:33:13.988Z</time>
      </trkpt>
      <trkpt lat="60.20848" lon="18.31539">
        <ele>20.403829</ele>
        <time>2020-08-30T07:33:22.723Z</time>
      </trkpt>
      <trkpt lat="60.20822" lon="18.31615">
        <ele>20.85827</ele>
        <time>2020-08-30T07:33:38.571Z</time>
      </trkpt>
      <trkpt lat="60.20802" lon="18.31657">
        <ele>21.121743</ele>
        <time>2020-08-30T07:33:48.302Z</time>
      </trkpt>
      <trkpt lat="60.20724" lon="18.31707">
        <ele>21.876911</ele>
        <time>2020-08-30T07:34:15.620Z</time>
      </trkpt>
      <trkpt lat="60.20684" lon="18.31747">
        <ele>22.28439</ele>
        <time>2020-08-30T07:34:29.772Z</time>
      </trkpt>
      <trkpt lat="60.20666" lon="18.31771">
        <ele>22.445278</ele>
        <time>2020-08-30T07:34:36.659Z</time>
      </trkpt>
      <trkpt lat="60.20593" lon="18.31914">
        <ele>22.441434</ele>
        <time>2020-08-30T07:35:06.611Z</time>
      </trkpt>
      <trkpt lat="60.20479" lon="18.32002">
        <ele>22.556332</ele>
        <time>2020-08-30T07:35:42.293Z</time>
      </trkpt>
      <trkpt lat="60.20439" lon="18.32063">
        <ele>22.677162</ele>
        <time>2020-08-30T07:35:57.329Z</time>
      </trkpt>
      <trkpt lat="60.20427" lon="18.32106">
        <ele>22.736805</ele>
        <time>2020-08-30T07:36:04.928Z</time>
      </trkpt>
      <trkpt lat="60.20436" lon="18.32214">
        <ele>22.86756</ele>
        <time>2020-08-30T07:36:22.079Z</time>
      </trkpt>
      <trkpt lat="60.20426" lon="18.32276">
        <ele>23.118883</ele>
        <time>2020-08-30T07:36:32.754Z</time>
      </trkpt>
      <trkpt lat="60.20406" lon="18.3234">
        <ele>23.41866</ele>
        <time>2020-08-30T07:36:45.050Z</time>
      </trkpt>
      <trkpt lat="60.20401" lon="18.3249">
        <ele>24.014657</ele>
        <time>2020-08-30T07:37:09.485Z</time>
      </trkpt>
      <trkpt lat="60.20386" lon="18.3262">
        <ele>24.375938</ele>
        <time>2020-08-30T07:37:30.658Z</time>
      </trkpt>
      <trkpt lat="60.20356" lon="18.32683">
        <ele>24.471589</ele>
        <time>2020-08-30T07:37:44.079Z</time>
      </trkpt>
      <trkpt lat="60.20306" lon="18.32727">
        <ele>24.592804</ele>
        <time>2020-08-30T07:38:00.550Z</time>
      </trkpt>
      <trkpt lat="60.20257" lon="18.32799">
        <ele>24.699554</ele>
        <time>2020-08-30T07:38:18.526Z</time>
      </trkpt>
      <trkpt lat="60.20237" lon="18.32858">
        <ele>24.659391</ele>
        <time>2020-08-30T07:38:28.779Z</time>
      </trkpt>
      <trkpt lat="60.20234" lon="18.32901">
        <ele>24.634251</ele>
        <time>2020-08-30T07:38:35.180Z</time>
      </trkpt>
      <trkpt lat="60.20254" lon="18.33084">
        <ele>24.52761</ele>
        <time>2020-08-30T07:39:02.529Z</time>
      </trkpt>
      <trkpt lat="60.20243" lon="18.33214">
        <ele>24.41533</ele>
        <time>2020-08-30T07:39:21.780Z</time>
      </trkpt>
      <trkpt lat="60.20266" lon="18.33313">
        <ele>24.305865</ele>
        <time>2020-08-30T07:39:37.870Z</time>
      </trkpt>
      <trkpt lat="60.20275" lon="18.33391">
        <ele>24.226664</ele>
        <time>2020-08-30T07:39:49.402Z</time>
      </trkpt>
      <trkpt lat="60.20287" lon="18.33416">
        <ele>24.191012</ele>
        <time>2020-08-30T07:39:54.545Z</time>
      </trkpt>
      <trkpt lat="60.20345" lon="18.33477">
        <ele>23.88436</ele>
        <time>2020-08-30T07:40:13.128Z</time>
      </trkpt>
      <trkpt lat="60.20361" lon="18.33505">
        <ele>23.751774</ele>
        <time>2020-08-30T07:40:19.081Z</time>
      </trkpt>
      <trkpt lat="60.20364" lon="18.33527">
        <ele>23.681896</ele>
        <time>2020-08-30T07:40:22.190Z</time>
      </trkpt>
      <trkpt lat="60.20364" lon="18.33562">
        <ele>23.572922</ele>
        <time>2020-08-30T07:40:27.031Z</time>
      </trkpt>
      <trkpt lat="60.20354" lon="18.33668">
        <ele>23.236092</ele>
        <time>2020-08-30T07:40:41.923Z</time>
      </trkpt>
      <trkpt lat="60.2032" lon="18.33778">
        <ele>22.794789</ele>
        <time>2020-08-30T07:40:59.751Z</time>
      </trkpt>
      <trkpt lat="60.20313" lon="18.33824">
        <ele>22.618929</ele>
        <time>2020-08-30T07:41:06.241Z</time>
      </trkpt>
      <trkpt lat="60.20319" lon="18.33866">
        <ele>22.456608</ele>
        <time>2020-08-30T07:41:12.214Z</time>
      </trkpt>
      <trkpt lat="60.20332" lon="18.33905">
        <ele>22.2816</ele>
        <time>2020-08-30T07:41:18.649Z</time>
      </trkpt>
      <trkpt lat="60.20357" lon="18.34017">
        <ele>21.82303</ele>
        <time>2020-08-30T07:41:35.592Z</time>
      </trkpt>
      <trkpt lat="60.20388" lon="18.34104">
        <ele>21.497876</ele>
        <time>2020-08-30T07:41:50.375Z</time>
      </trkpt>
      <trkpt lat="60.20394" lon="18.34166">
        <ele>21.328658</ele>
        <time>2020-08-30T07:41:59.336Z</time>
      </trkpt>
      <trkpt lat="60.2039" lon="18.34262">
        <ele>21.073863</ele>
        <time>2020-08-30T07:42:12.955Z</time>
      </trkpt>
      <trkpt lat="60.2038" lon="18.34326">
        <ele>20.895499</ele>
        <time>2020-08-30T07:42:22.519Z</time>
      </trkpt>
      <trkpt lat="60.20299" lon="18.34474">
        <ele>20.132942</ele>
        <time>2020-08-30T07:42:53.299Z</time>
      </trkpt>
      <trkpt lat="60.2027" lon="18.3454">
        <ele>19.79368</ele>
        <time>2020-08-30T07:43:05.399Z</time>
      </trkpt>
      <trkpt lat="60.20225" lon="18.34722">
        <ele>18.930833</ele>
        <time>2020-08-30T07:43:32.719Z</time>
      </trkpt>
      <trkpt lat="60.20209" lon="18.34765">
        <ele>18.672175</ele>
        <time>2020-08-30T07:43:39.790Z</time>
      </trkpt>
      <trkpt lat="60.2018" lon="18.34821">
        <ele>18.283809</ele>
        <time>2020-08-30T07:43:50.421Z</time>
      </trkpt>
      <trkpt lat="60.20149" lon="18.34911">
        <ele>17.751517</ele>
        <time>2020-08-30T07:44:05.112Z</time>
      </trkpt>
      <trkpt lat="60.2015" lon="18.34946">
        <ele>17.585224</ele>
        <time>2020-08-30T07:44:09.881Z</time>
      </trkpt>
      <trkpt lat="60.20164" lon="18.34996">
        <ele>17.606663</ele>
        <time>2020-08-30T07:44:17.971Z</time>
      </trkpt>
      <trkpt lat="60.20235" lon="18.35156">
        <ele>17.768286</ele>
        <time>2020-08-30T07:44:50.215Z</time>
      </trkpt>
      <trkpt lat="60.20241" lon="18.35177">
        <ele>17.786165</ele>
        <time>2020-08-30T07:44:54.087Z</time>
      </trkpt>
      <trkpt lat="60.20262" lon="18.35241">
        <ele>17.865592</ele>
        <time>2020-08-30T07:45:02.136Z</time>
      </trkpt>
      <trkpt lat="60.20332" lon="18.35336">
        <ele>18.415389</ele>
        <time>2020-08-30T07:45:20.141Z</time>
      </trkpt>
      <trkpt lat="60.20389" lon="18.35383">
        <ele>18.822858</ele>
        <time>2020-08-30T07:45:33.297Z</time>
      </trkpt>
      <trkpt lat="60.20414" lon="18.35471">
        <ele>19.036742</ele>
        <time>2020-08-30T07:45:42.865Z</time>
      </trkpt>
      <trkpt lat="60.20436" lon="18.35497">
        <ele>19.059162</ele>
        <time>2020-08-30T07:45:47.748Z</time>
      </trkpt>
      <trkpt lat="60.20455" lon="18.35546">
        <ele>19.085269</ele>
        <time>2020-08-30T07:45:53.346Z</time>
      </trkpt>
      <trkpt lat="60.20471" lon="18.356">
        <ele>19.111964</ele>
        <time>2020-08-30T07:45:59.096Z</time>
      </trkpt>
      <trkpt lat="60.20487" lon="18.35757">
        <ele>19.227344</ele>
        <time>2020-08-30T07:46:13.798Z</time>
      </trkpt>
      <trkpt lat="60.20559" lon="18.36237">
        <ele>21.757292</ele>
        <time>2020-08-30T07:47:06.172Z</time>
      </trkpt>
      <trkpt lat="60.20643" lon="18.36747">
        <ele>28.277538</ele>
        <time>2020-08-30T07:48:18.823Z</time>
      </trkpt>
      <trkpt lat="60.20697" lon="18.37163">
        <ele>34.897524</ele>
        <time>2020-08-30T07:49:21.125Z</time>
      </trkpt>
      <trkpt lat="60.20704" lon="18.37195">
        <ele>35.27243</ele>
        <time>2020-08-30T07:49:26.180Z</time>
      </trkpt>
      <trkpt lat="60.20669" lon="18.37239">
        <ele>36.163306</ele>
        <time>2020-08-30T07:49:36.909Z</time>
      </trkpt>
      <trkpt lat="60.20598" lon="18.3732">
        <ele>37.917153</ele>
        <time>2020-08-30T07:49:56.353Z</time>
      </trkpt>
      <trkpt lat="60.20562" lon="18.37353">
        <ele>38.411197</ele>
        <time>2020-08-30T07:50:05.053Z</time>
      </trkpt>
      <trkpt lat="60.20533" lon="18.37376">
        <ele>38.472405</ele>
        <time>2020-08-30T07:50:10.990Z</time>
      </trkpt>
      <trkpt lat="60.20433" lon="18.37432">
        <ele>38.680732</ele>
        <time>2020-08-30T07:50:29.776Z</time>
      </trkpt>
      <trkpt lat="60.20048" lon="18.37608">
        <ele>36.076858</ele>
        <time>2020-08-30T07:51:32.953Z</time>
      </trkpt>
      <trkpt lat="60.1997" lon="18.37644">
        <ele>35.071872</ele>
        <time>2020-08-30T07:51:45.163Z</time>
      </trkpt>
      <trkpt lat="60.19899" lon="18.37676">
        <ele>34.152286</ele>
        <time>2020-08-30T07:51:56.065Z</time>
      </trkpt>
      <trkpt lat="60.19768" lon="18.37753">
        <ele>31.802102</ele>
        <time>2020-08-30T07:52:15.711Z</time>
      </trkpt>
      <trkpt lat="60.1968" lon="18.37834">
        <ele>30.27118</ele>
        <time>2020-08-30T07:52:29.184Z</time>
      </trkpt>
      <trkpt lat="60.19633" lon="18.3789">
        <ele>29.588966</ele>
        <time>2020-08-30T07:52:37.576Z</time>
      </trkpt>
      <trkpt lat="60.19621" lon="18.37904">
        <ele>29.427871</ele>
        <time>2020-08-30T07:52:39.354Z</time>
      </trkpt>
      <trkpt lat="60.19617" lon="18.37948">
        <ele>29.156502</ele>
        <time>2020-08-30T07:52:43.224Z</time>
      </trkpt>
      <trkpt lat="60.19566" lon="18.38055">
        <ele>28.472721</ele>
        <time>2020-08-30T07:52:55.520Z</time>
      </trkpt>
      <trkpt lat="60.19526" lon="18.38114">
        <ele>28.449691</ele>
        <time>2020-08-30T07:53:03.964Z</time>
      </trkpt>
      <trkpt lat="60.19467" lon="18.38225">
        <ele>28.412156</ele>
        <time>2020-08-30T07:53:19.614Z</time>
      </trkpt>
      <trkpt lat="60.19431" lon="18.38301">
        <ele>28.606143</ele>
        <time>2020-08-30T07:53:30.172Z</time>
      </trkpt>
      <trkpt lat="60.194" lon="18.3839">
        <ele>29.104792</ele>
        <time>2020-08-30T07:53:41.730Z</time>
      </trkpt>
      <trkpt lat="60.19386" lon="18.38422">
        <ele>29.299984</ele>
        <time>2020-08-30T07:53:46.295Z</time>
      </trkpt>
      <trkpt lat="60.19356" lon="18.3846">
        <ele>29.626466</ele>
        <time>2020-08-30T07:53:54.012Z</time>
      </trkpt>
      <trkpt lat="60.19298" lon="18.38521">
        <ele>30.246835</ele>
        <time>2020-08-30T07:54:08.628Z</time>
      </trkpt>
      <trkpt lat="60.19288" lon="18.38539">
        <ele>30.372005</ele>
        <time>2020-08-30T07:54:11.768Z</time>
      </trkpt>
      <trkpt lat="60.1926" lon="18.38647">
        <ele>30.955737</ele>
        <time>2020-08-30T07:54:25.370Z</time>
      </trkpt>
      <trkpt lat="60.19244" lon="18.38741">
        <ele>31.434726</ele>
        <time>2020-08-30T07:54:36.326Z</time>
      </trkpt>
      <trkpt lat="60.19209" lon="18.3887">
        <ele>31.857439</ele>
        <time>2020-08-30T07:54:50.863Z</time>
      </trkpt>
      <trkpt lat="60.19157" lon="18.38956">
        <ele>31.962244</ele>
        <time>2020-08-30T07:55:03.740Z</time>
      </trkpt>
      <trkpt lat="60.19082" lon="18.39019">
        <ele>32.047319</ele>
        <time>2020-08-30T07:55:18.984Z</time>
      </trkpt>
      <trkpt lat="60.19021" lon="18.39102">
        <ele>31.326113</ele>
        <time>2020-08-30T07:55:31.600Z</time>
      </trkpt>
      <trkpt lat="60.18985" lon="18.39127">
        <ele>30.948392</ele>
        <time>2020-08-30T07:55:37.844Z</time>
      </trkpt>
      <trkpt lat="60.18889" lon="18.39162">
        <ele>29.638014</ele>
        <time>2020-08-30T07:55:52.681Z</time>
      </trkpt>
      <trkpt lat="60.18758" lon="18.39262">
        <ele>26.742921</ele>
        <time>2020-08-30T07:56:12.764Z</time>
      </trkpt>
      <trkpt lat="60.18737" lon="18.39266">
        <ele>26.419547</ele>
        <time>2020-08-30T07:56:16.138Z</time>
      </trkpt>
      <trkpt lat="60.18716" lon="18.39258">
        <ele>26.15147</ele>
        <time>2020-08-30T07:56:19.413Z</time>
      </trkpt>
      <trkpt lat="60.18677" lon="18.39285">
        <ele>25.650749</ele>
        <time>2020-08-30T07:56:25.800Z</time>
      </trkpt>
      <trkpt lat="60.18595" lon="18.39362">
        <ele>24.531534</ele>
        <time>2020-08-30T07:56:40.524Z</time>
      </trkpt>
      <trkpt lat="60.18583" lon="18.39369">
        <ele>24.380371</ele>
        <time>2020-08-30T07:56:42.507Z</time>
      </trkpt>
      <trkpt lat="60.18558" lon="18.39418">
        <ele>24.091525</ele>
        <time>2020-08-30T07:56:48.672Z</time>
      </trkpt>
      <trkpt lat="60.18365" lon="18.39712">
        <ele>21.745467</ele>
        <time>2020-08-30T07:57:26.430Z</time>
      </trkpt>
      <trkpt lat="60.18248" lon="18.39874">
        <ele>19.882641</ele>
        <time>2020-08-30T07:57:47.372Z</time>
      </trkpt>
      <trkpt lat="60.18209" lon="18.39926">
        <ele>19.16919</ele>
        <time>2020-08-30T07:57:54.329Z</time>
      </trkpt>
      <trkpt lat="60.18217" lon="18.39942">
        <ele>19.00138</ele>
        <time>2020-08-30T07:57:55.918Z</time>
      </trkpt>
      <trkpt lat="60.18285" lon="18.39988">
        <ele>17.968621</ele>
        <time>2020-08-30T07:58:07.202Z</time>
      </trkpt>
      <trkpt lat="60.1832" lon="18.4001">
        <ele>17.622918</ele>
        <time>2020-08-30T07:58:12.885Z</time>
      </trkpt>
      <trkpt lat="60.18328" lon="18.40016">
        <ele>17.542015</ele>
        <time>2020-08-30T07:58:14.240Z</time>
      </trkpt>
      <trkpt lat="60.18335" lon="18.40028">
        <ele>17.45574</ele>
        <time>2020-08-30T07:58:15.810Z</time>
      </trkpt>
      <trkpt lat="60.18337" lon="18.40076">
        <ele>17.229915</ele>
        <time>2020-08-30T07:58:19.441Z</time>
      </trkpt>
      <trkpt lat="60.18321" lon="18.40201">
        <ele>16.621858</ele>
        <time>2020-08-30T07:58:30.348Z</time>
      </trkpt>
      <trkpt lat="60.18326" lon="18.40226">
        <ele>16.492123</ele>
        <time>2020-08-30T07:58:32.796Z</time>
      </trkpt>
      <trkpt lat="60.18333" lon="18.40233">
        <ele>16.417106</ele>
        <time>2020-08-30T07:58:34.269Z</time>
      </trkpt>
      <trkpt lat="60.18383" lon="18.40264">
        <ele>16.047656</ele>
        <time>2020-08-30T07:58:43.434Z</time>
      </trkpt>
      <trkpt lat="60.18387" lon="18.40272">
        <ele>16.009263</ele>
        <time>2020-08-30T07:58:44.474Z</time>
      </trkpt>
      <trkpt lat="60.18389" lon="18.40304">
        <ele>15.901438</ele>
        <time>2020-08-30T07:58:47.197Z</time>
      </trkpt>
      <trkpt lat="60.18367" lon="18.40463">
        <ele>15.348151</ele>
        <time>2020-08-30T07:59:00.808Z</time>
      </trkpt>
      <trkpt lat="60.18321" lon="18.4078">
        <ele>14.236759</ele>
        <time>2020-08-30T07:59:27.819Z</time>
      </trkpt>
      <trkpt lat="60.18316" lon="18.40818">
        <ele>14.103135</ele>
        <time>2020-08-30T07:59:30.981Z</time>
      </trkpt>
      <trkpt lat="60.1831" lon="18.40833">
        <ele>14.041696</ele>
        <time>2020-08-30T07:59:32.692Z</time>
      </trkpt>
      <trkpt lat="60.18151" lon="18.41248">
        <ele>14.02755</ele>
        <time>2020-08-30T08:00:21.990Z</time>
      </trkpt>
      <trkpt lat="60.18117" lon="18.41356">
        <ele>14.101459</ele>
        <time>2020-08-30T08:00:34.051Z</time>
      </trkpt>
      <trkpt lat="60.18097" lon="18.4142">
        <ele>14.145509</ele>
        <time>2020-08-30T08:00:41.130Z</time>
      </trkpt>
      <trkpt lat="60.18013" lon="18.41718">
        <ele>14.521808</ele>
        <time>2020-08-30T08:01:12.977Z</time>
      </trkpt>
      <trkpt lat="60.17994" lon="18.41771">
        <ele>14.712711</ele>
        <time>2020-08-30T08:01:19.563Z</time>
      </trkpt>
      <trkpt lat="60.17977" lon="18.41845">
        <ele>15.315174</ele>
        <time>2020-08-30T08:01:28.819Z</time>
      </trkpt>
      <trkpt lat="60.17974" lon="18.41871">
        <ele>15.511965</ele>
        <time>2020-08-30T08:01:32.097Z</time>
      </trkpt>
      <trkpt lat="60.17965" lon="18.41915">
        <ele>15.86324</ele>
        <time>2020-08-30T08:01:38.113Z</time>
      </trkpt>
      <trkpt lat="60.17958" lon="18.41976">
        <ele>16.328659</ele>
        <time>2020-08-30T08:01:45.257Z</time>
      </trkpt>
      <trkpt lat="60.17957" lon="18.41987">
        <ele>16.414007</ele>
        <time>2020-08-30T08:01:47.312Z</time>
      </trkpt>
      <trkpt lat="60.17947" lon="18.42054">
        <ele>16.930237</ele>
        <time>2020-08-30T08:01:55.512Z</time>
      </trkpt>
      <trkpt lat="60.17937" lon="18.42069">
        <ele>17.116425</ele>
        <time>2020-08-30T08:01:58.458Z</time>
      </trkpt>
      <trkpt lat="60.17913" lon="18.42079">
        <ele>17.317085</ele>
        <time>2020-08-30T08:02:04.464Z</time>
      </trkpt>
      <trkpt lat="60.17874" lon="18.42084">
        <ele>17.470863</ele>
        <time>2020-08-30T08:02:13.432Z</time>
      </trkpt>
      <trkpt lat="60.17875" lon="18.42121">
        <ele>17.543054</ele>
        <time>2020-08-30T08:02:16.958Z</time>
      </trkpt>
      <trkpt lat="60.17872" lon="18.42199">
        <ele>17.698598</ele>
        <time>2020-08-30T08:02:25.358Z</time>
      </trkpt>
      <trkpt lat="60.17858" lon="18.42332">
        <ele>17.96711</ele>
        <time>2020-08-30T08:02:37.120Z</time>
      </trkpt>
      <trkpt lat="60.17844" lon="18.42416">
        <ele>17.41558</ele>
        <time>2020-08-30T08:02:43.855Z</time>
      </trkpt>
      <trkpt lat="60.17806" lon="18.42533">
        <ele>16.520334</ele>
        <time>2020-08-30T08:02:53.987Z</time>
      </trkpt>
      <trkpt lat="60.17746" lon="18.42675">
        <ele>15.848262</ele>
        <time>2020-08-30T08:03:09.321Z</time>
      </trkpt>
      <trkpt lat="60.17741" lon="18.42688">
        <ele>15.911926</ele>
        <time>2020-08-30T08:03:10.517Z</time>
      </trkpt>
      <trkpt lat="60.17725" lon="18.42734">
        <ele>16.132109</ele>
        <time>2020-08-30T08:03:17.112Z</time>
      </trkpt>
      <trkpt lat="60.17711" lon="18.42814">
        <ele>16.457426</ele>
        <time>2020-08-30T08:03:26.321Z</time>
      </trkpt>
      <trkpt lat="60.17707" lon="18.42908">
        <ele>16.819281</ele>
        <time>2020-08-30T08:03:37.061Z</time>
      </trkpt>
      <trkpt lat="60.17707" lon="18.43076">
        <ele>17.371268</ele>
        <time>2020-08-30T08:03:56.805Z</time>
      </trkpt>
      <trkpt lat="60.17707" lon="18.43119">
        <ele>17.496843</ele>
        <time>2020-08-30T08:04:01.170Z</time>
      </trkpt>
      <trkpt lat="60.17707" lon="18.43242">
        <ele>17.861171</ele>
        <time>2020-08-30T08:04:13.672Z</time>
      </trkpt>
      <trkpt lat="60.17697" lon="18.4336">
        <ele>18.262299</ele>
        <time>2020-08-30T08:04:23.861Z</time>
      </trkpt>
      <trkpt lat="60.17684" lon="18.43426">
        <ele>18.575925</ele>
        <time>2020-08-30T08:04:29.516Z</time>
      </trkpt>
      <trkpt lat="60.176" lon="18.43643">
        <ele>19.939182</ele>
        <time>2020-08-30T08:05:00.997Z</time>
      </trkpt>
      <trkpt lat="60.17597" lon="18.43648">
        <ele>20.038111</ele>
        <time>2020-08-30T08:05:02.340Z</time>
      </trkpt>
      <trkpt lat="60.17564" lon="18.43705">
        <ele>21.198182</ele>
        <time>2020-08-30T08:05:14.271Z</time>
      </trkpt>
      <trkpt lat="60.17553" lon="18.43721">
        <ele>21.54905</ele>
        <time>2020-08-30T08:05:18.328Z</time>
      </trkpt>
      <trkpt lat="60.17519" lon="18.43762">
        <ele>22.601125</ele>
        <time>2020-08-30T08:05:29.492Z</time>
      </trkpt>
      <trkpt lat="60.17491" lon="18.43794">
        <ele>23.432764</ele>
        <time>2020-08-30T08:05:38.797Z</time>
      </trkpt>
      <trkpt lat="60.17437" lon="18.43855">
        <ele>24.644902</ele>
        <time>2020-08-30T08:05:55.949Z</time>
      </trkpt>
      <trkpt lat="60.17314" lon="18.43999">
        <ele>25.830569</ele>
        <time>2020-08-30T08:06:25.114Z</time>
      </trkpt>
      <trkpt lat="60.1709" lon="18.44284">
        <ele>24.420979</ele>
        <time>2020-08-30T08:07:09.074Z</time>
      </trkpt>
      <trkpt lat="60.17073" lon="18.44285">
        <ele>24.356251</ele>
        <time>2020-08-30T08:07:12.033Z</time>
      </trkpt>
      <trkpt lat="60.1706" lon="18.44276">
        <ele>24.303389</ele>
        <time>2020-08-30T08:07:14.323Z</time>
      </trkpt>
      <trkpt lat="60.17042" lon="18.44315">
        <ele>24.202523</ele>
        <time>2020-08-30T08:07:18.826Z</time>
      </trkpt>
      <trkpt lat="60.16751" lon="18.44947">
        <ele>24.324639</ele>
        <time>2020-08-30T08:08:37.917Z</time>
      </trkpt>
      <trkpt lat="60.16716" lon="18.45027">
        <ele>23.636154</ele>
        <time>2020-08-30T08:08:46.505Z</time>
      </trkpt>
      <trkpt lat="60.16735" lon="18.45062">
        <ele>23.300755</ele>
        <time>2020-08-30T08:08:50.414Z</time>
      </trkpt>
      <trkpt lat="60.16769" lon="18.45136">
        <ele>22.651263</ele>
        <time>2020-08-30T08:08:57.763Z</time>
      </trkpt>
      <trkpt lat="60.16796" lon="18.45221">
        <ele>21.682555</ele>
        <time>2020-08-30T08:09:04.744Z</time>
      </trkpt>
      <trkpt lat="60.1686" lon="18.45481">
        <ele>17.125666</ele>
        <time>2020-08-30T08:09:23.321Z</time>
      </trkpt>
      <trkpt lat="60.16877" lon="18.45551">
        <ele>16.068696</ele>
        <time>2020-08-30T08:09:28.425Z</time>
      </trkpt>
      <trkpt lat="60.16905" lon="18.45663">
        <ele>14.623801</ele>
        <time>2020-08-30T08:09:36.795Z</time>
      </trkpt>
      <trkpt lat="60.16971" lon="18.45746">
        <ele>12.81255</ele>
        <time>2020-08-30T08:09:47.659Z</time>
      </trkpt>
      <trkpt lat="60.17004" lon="18.45783">
        <ele>12.27413</ele>
        <time>2020-08-30T08:09:53.295Z</time>
      </trkpt>
      <trkpt lat="60.17033" lon="18.45817">
        <ele>12.098372</ele>
        <time>2020-08-30T08:09:58.594Z</time>
      </trkpt>
      <trkpt lat="60.17048" lon="18.45834">
        <ele>12.00465</ele>
        <time>2020-08-30T08:10:01.581Z</time>
      </trkpt>
      <trkpt lat="60.17065" lon="18.45871">
        <ele>11.870635</ele>
        <time>2020-08-30T08:10:05.887Z</time>
      </trkpt>
      <trkpt lat="60.17072" lon="18.45929">
        <ele>11.714757</ele>
        <time>2020-08-30T08:10:10.909Z</time>
      </trkpt>
      <trkpt lat="60.17069" lon="18.45998">
        <ele>11.530293</ele>
        <time>2020-08-30T08:10:16.897Z</time>
      </trkpt>
      <trkpt lat="60.17066" lon="18.46063">
        <ele>11.455554</ele>
        <time>2020-08-30T08:10:22.536Z</time>
      </trkpt>
      <trkpt lat="60.17058" lon="18.46224">
        <ele>11.718115</ele>
        <time>2020-08-30T08:10:37.359Z</time>
      </trkpt>
      <trkpt lat="60.17043" lon="18.46464">
        <ele>12.142471</ele>
        <time>2020-08-30T08:11:01.197Z</time>
      </trkpt>
      <trkpt lat="60.1703" lon="18.46541">
        <ele>12.315522</ele>
        <time>2020-08-30T08:11:09.160Z</time>
      </trkpt>
      <trkpt lat="60.17003" lon="18.46636">
        <ele>12.548097</ele>
        <time>2020-08-30T08:11:19.621Z</time>
      </trkpt>
      <trkpt lat="60.1696" lon="18.46799">
        <ele>12.73958</ele>
        <time>2020-08-30T08:11:36.699Z</time>
      </trkpt>
      <trkpt lat="60.16934" lon="18.469">
        <ele>12.690637</ele>
        <time>2020-08-30T08:11:46.493Z</time>
      </trkpt>
      <trkpt lat="60.16925" lon="18.46952">
        <ele>12.666902</ele>
        <time>2020-08-30T08:11:51.192Z</time>
      </trkpt>
      <trkpt lat="60.1691" lon="18.47103">
        <ele>12.649212</ele>
        <time>2020-08-30T08:12:04.478Z</time>
      </trkpt>
      <trkpt lat="60.16898" lon="18.47138">
        <ele>12.683067</ele>
        <time>2020-08-30T08:12:08.033Z</time>
      </trkpt>
      <trkpt lat="60.16876" lon="18.47145">
        <ele>12.719072</ele>
        <time>2020-08-30T08:12:11.924Z</time>
      </trkpt>
      <trkpt lat="60.16844" lon="18.47155">
        <ele>12.771766</ele>
        <time>2020-08-30T08:12:17.648Z</time>
      </trkpt>
      <trkpt lat="60.16821" lon="18.47169">
        <ele>12.810936</ele>
        <time>2020-08-30T08:12:22.015Z</time>
      </trkpt>
      <trkpt lat="60.1671" lon="18.47222">
        <ele>13.616594</ele>
        <time>2020-08-30T08:12:44.403Z</time>
      </trkpt>
      <trkpt lat="60.16662" lon="18.47245">
        <ele>14.272773</ele>
        <time>2020-08-30T08:12:55.359Z</time>
      </trkpt>
      <trkpt lat="60.16567" lon="18.47296">
        <ele>15.634829</ele>
        <time>2020-08-30T08:13:18.693Z</time>
      </trkpt>
      <trkpt lat="60.16497" lon="18.47333">
        <ele>16.805386</ele>
        <time>2020-08-30T08:13:36.256Z</time>
      </trkpt>
      <trkpt lat="60.1633" lon="18.47413">
        <ele>18.684607</ele>
        <time>2020-08-30T08:14:13.953Z</time>
      </trkpt>
      <trkpt lat="60.16023" lon="18.47565">
        <ele>18.823226</ele>
        <time>2020-08-30T08:15:09.417Z</time>
      </trkpt>
      <trkpt lat="60.15833" lon="18.47668">
        <ele>17.699997</ele>
        <time>2020-08-30T08:15:41.411Z</time>
      </trkpt>
      <trkpt lat="60.15732" lon="18.47748">
        <ele>16.747928</ele>
        <time>2020-08-30T08:15:57.991Z</time>
      </trkpt>
      <trkpt lat="60.1568" lon="18.47819">
        <ele>16.829777</ele>
        <time>2020-08-30T08:16:08.051Z</time>
      </trkpt>
      <trkpt lat="60.15627" lon="18.4789">
        <ele>17.064881</ele>
        <time>2020-08-30T08:16:19.517Z</time>
      </trkpt>
      <trkpt lat="60.15605" lon="18.47918">
        <ele>17.158985</ele>
        <time>2020-08-30T08:16:24.750Z</time>
      </trkpt>
      <trkpt lat="60.1531" lon="18.48333">
        <ele>23.213476</ele>
        <time>2020-08-30T08:17:52.409Z</time>
      </trkpt>
      <trkpt lat="60.15263" lon="18.48398">
        <ele>23.816028</ele>
        <time>2020-08-30T08:18:04.524Z</time>
      </trkpt>
      <trkpt lat="60.15178" lon="18.48515">
        <ele>23.461656</ele>
        <time>2020-08-30T08:18:22.578Z</time>
      </trkpt>
      <trkpt lat="60.15101" lon="18.48607">
        <ele>22.625041</ele>
        <time>2020-08-30T08:18:35.859Z</time>
      </trkpt>
      <trkpt lat="60.15042" lon="18.48661">
        <ele>21.309394</ele>
        <time>2020-08-30T08:18:44.979Z</time>
      </trkpt>
      <trkpt lat="60.14934" lon="18.48847">
        <ele>18.353331</ele>
        <time>2020-08-30T08:19:04.604Z</time>
      </trkpt>
      <trkpt lat="60.14827" lon="18.48997">
        <ele>15.651171</ele>
        <time>2020-08-30T08:19:22.718Z</time>
      </trkpt>
      <trkpt lat="60.14716" lon="18.49214">
        <ele>13.776421</ele>
        <time>2020-08-30T08:19:46.125Z</time>
      </trkpt>
      <trkpt lat="60.14681" lon="18.49311">
        <ele>13.472575</ele>
        <time>2020-08-30T08:19:56.240Z</time>
      </trkpt>
      <trkpt lat="60.14669" lon="18.49353">
        <ele>13.41185</ele>
        <time>2020-08-30T08:20:00.418Z</time>
      </trkpt>
      <trkpt lat="60.1465" lon="18.4942">
        <ele>13.315646</ele>
        <time>2020-08-30T08:20:07.098Z</time>
      </trkpt>
      <trkpt lat="60.14631" lon="18.49479">
        <ele>13.228206</ele>
        <time>2020-08-30T08:20:13.263Z</time>
      </trkpt>
      <trkpt lat="60.14619" lon="18.49519">
        <ele>13.169284</ele>
        <time>2020-08-30T08:20:17.474Z</time>
      </trkpt>
      <trkpt lat="60.1451" lon="18.49798">
        <ele>12.795672</ele>
        <time>2020-08-30T08:20:47.853Z</time>
      </trkpt>
      <trkpt lat="60.14491" lon="18.49869">
        <ele>12.727216</ele>
        <time>2020-08-30T08:20:54.788Z</time>
      </trkpt>
      <trkpt lat="60.14476" lon="18.49951">
        <ele>12.668703</ele>
        <time>2020-08-30T08:21:02.247Z</time>
      </trkpt>
      <trkpt lat="60.14468" lon="18.49998">
        <ele>12.634971</ele>
        <time>2020-08-30T08:21:06.754Z</time>
      </trkpt>
      <trkpt lat="60.14426" lon="18.50227">
        <ele>12.489969</ele>
        <time>2020-08-30T08:21:27.964Z</time>
      </trkpt>
      <trkpt lat="60.14389" lon="18.50393">
        <ele>12.425937</ele>
        <time>2020-08-30T08:21:43.522Z</time>
      </trkpt>
      <trkpt lat="60.14366" lon="18.50484">
        <ele>12.389407</ele>
        <time>2020-08-30T08:21:52.280Z</time>
      </trkpt>
      <trkpt lat="60.14341" lon="18.5057">
        <ele>12.842328</ele>
        <time>2020-08-30T08:22:01.957Z</time>
      </trkpt>
      <trkpt lat="60.14286" lon="18.50705">
        <ele>13.790244</ele>
        <time>2020-08-30T08:22:20.294Z</time>
      </trkpt>
      <trkpt lat="60.14256" lon="18.50782">
        <ele>14.320942</ele>
        <time>2020-08-30T08:22:32.040Z</time>
      </trkpt>
      <trkpt lat="60.14206" lon="18.50909">
        <ele>15.625446</ele>
        <time>2020-08-30T08:22:51.283Z</time>
      </trkpt>
      <trkpt lat="60.14175" lon="18.50991">
        <ele>16.466638</ele>
        <time>2020-08-30T08:23:03.520Z</time>
      </trkpt>
      <trkpt lat="60.14172" lon="18.50999">
        <ele>16.546577</ele>
        <time>2020-08-30T08:23:04.607Z</time>
      </trkpt>
      <trkpt lat="60.14112" lon="18.5109">
        <ele>17.537079</ele>
        <time>2020-08-30T08:23:20.873Z</time>
      </trkpt>
      <trkpt lat="60.14085" lon="18.51115">
        <ele>17.77706</ele>
        <time>2020-08-30T08:23:27.093Z</time>
      </trkpt>
      <trkpt lat="60.1404" lon="18.51136">
        <ele>18.145935</ele>
        <time>2020-08-30T08:23:36.211Z</time>
      </trkpt>
      <trkpt lat="60.13999" lon="18.51153">
        <ele>18.478967</ele>
        <time>2020-08-30T08:23:44.217Z</time>
      </trkpt>
      <trkpt lat="60.13966" lon="18.51177">
        <ele>18.767244</ele>
        <time>2020-08-30T08:23:50.991Z</time>
      </trkpt>
      <trkpt lat="60.13889" lon="18.51282">
        <ele>19.799145</ele>
        <time>2020-08-30T08:24:10.691Z</time>
      </trkpt>
      <trkpt lat="60.13877" lon="18.51317">
        <ele>20.033189</ele>
        <time>2020-08-30T08:24:15.450Z</time>
      </trkpt>
      <trkpt lat="60.13878" lon="18.51414">
        <ele>20.565682</ele>
        <time>2020-08-30T08:24:26.175Z</time>
      </trkpt>
      <trkpt lat="60.13878" lon="18.51424">
        <ele>20.619447</ele>
        <time>2020-08-30T08:24:27.299Z</time>
      </trkpt>
      <trkpt lat="60.13877" lon="18.51572">
        <ele>21.386346</ele>
        <time>2020-08-30T08:24:43.714Z</time>
      </trkpt>
      <trkpt lat="60.13869" lon="18.51735">
        <ele>22.228281</ele>
        <time>2020-08-30T08:25:01.119Z</time>
      </trkpt>
      <trkpt lat="60.13859" lon="18.51778">
        <ele>22.468885</ele>
        <time>2020-08-30T08:25:05.904Z</time>
      </trkpt>
      <trkpt lat="60.13841" lon="18.51804">
        <ele>22.582494</ele>
        <time>2020-08-30T08:25:10.216Z</time>
      </trkpt>
      <trkpt lat="60.13775" lon="18.51832">
        <ele>22.61659</ele>
        <time>2020-08-30T08:25:22.253Z</time>
      </trkpt>
      <trkpt lat="60.13732" lon="18.51901">
        <ele>22.644111</ele>
        <time>2020-08-30T08:25:31.533Z</time>
      </trkpt>
      <trkpt lat="60.13709" lon="18.51963">
        <ele>22.663747</ele>
        <time>2020-08-30T08:25:38.106Z</time>
      </trkpt>
      <trkpt lat="60.13699" lon="18.52015">
        <ele>22.750075</ele>
        <time>2020-08-30T08:25:43.292Z</time>
      </trkpt>
      <trkpt lat="60.13672" lon="18.52081">
        <ele>22.916704</ele>
        <time>2020-08-30T08:25:51.579Z</time>
      </trkpt>
      <trkpt lat="60.13659" lon="18.52139">
        <ele>23.043117</ele>
        <time>2020-08-30T08:25:57.978Z</time>
      </trkpt>
      <trkpt lat="60.13648" lon="18.52249">
        <ele>23.262965</ele>
        <time>2020-08-30T08:26:08.897Z</time>
      </trkpt>
      <trkpt lat="60.13648" lon="18.52256">
        <ele>23.275435</ele>
        <time>2020-08-30T08:26:09.774Z</time>
      </trkpt>
      <trkpt lat="60.13645" lon="18.52308">
        <ele>23.371849</ele>
        <time>2020-08-30T08:26:14.723Z</time>
      </trkpt>
      <trkpt lat="60.13633" lon="18.52375">
        <ele>23.08927</ele>
        <time>2020-08-30T08:26:21.367Z</time>
      </trkpt>
      <trkpt lat="60.13582" lon="18.52503">
        <ele>22.435001</ele>
        <time>2020-08-30T08:26:35.229Z</time>
      </trkpt>
      <trkpt lat="60.13524" lon="18.52557">
        <ele>21.912176</ele>
        <time>2020-08-30T08:26:44.287Z</time>
      </trkpt>
      <trkpt lat="60.13499" lon="18.52627">
        <ele>20.865493</ele>
        <time>2020-08-30T08:26:50.102Z</time>
      </trkpt>
      <trkpt lat="60.13486" lon="18.52647">
        <ele>20.477166</ele>
        <time>2020-08-30T08:26:52.184Z</time>
      </trkpt>
      <trkpt lat="60.13463" lon="18.5266">
        <ele>19.909092</ele>
        <time>2020-08-30T08:26:55.380Z</time>
      </trkpt>
      <trkpt lat="60.13449" lon="18.52692">
        <ele>19.391328</ele>
        <time>2020-08-30T08:26:58.274Z</time>
      </trkpt>
      <trkpt lat="60.13442" lon="18.52721">
        <ele>19.000621</ele>
        <time>2020-08-30T08:27:00.456Z</time>
      </trkpt>
      <trkpt lat="60.13448" lon="18.52845">
        <ele>17.577098</ele>
        <time>2020-08-30T08:27:09.049Z</time>
      </trkpt>
      <trkpt lat="60.13438" lon="18.52871">
        <ele>17.440386</ele>
        <time>2020-08-30T08:27:11.264Z</time>
      </trkpt>
      <trkpt lat="60.13409" lon="18.52872">
        <ele>17.206153</ele>
        <time>2020-08-30T08:27:15.477Z</time>
      </trkpt>
      <trkpt lat="60.13391" lon="18.529">
        <ele>17.013293</ele>
        <time>2020-08-30T08:27:19.022Z</time>
      </trkpt>
      <trkpt lat="60.13378" lon="18.52951">
        <ele>16.775325</ele>
        <time>2020-08-30T08:27:23.457Z</time>
      </trkpt>
      <trkpt lat="60.13312" lon="18.5301">
        <ele>16.181085</ele>
        <time>2020-08-30T08:27:35.893Z</time>
      </trkpt>
      <trkpt lat="60.13277" lon="18.53163">
        <ele>16.612257</ele>
        <time>2020-08-30T08:27:52.670Z</time>
      </trkpt>
      <trkpt lat="60.13258" lon="18.532">
        <ele>16.784254</ele>
        <time>2020-08-30T08:27:58.032Z</time>
      </trkpt>
      <trkpt lat="60.13238" lon="18.5322">
        <ele>16.926533</ele>
        <time>2020-08-30T08:28:02.530Z</time>
      </trkpt>
      <trkpt lat="60.13197" lon="18.53239">
        <ele>17.201014</ele>
        <time>2020-08-30T08:28:11.390Z</time>
      </trkpt>
      <trkpt lat="60.13171" lon="18.5326">
        <ele>17.368997</ele>
        <time>2020-08-30T08:28:16.988Z</time>
      </trkpt>
      <trkpt lat="60.13136" lon="18.53314">
        <ele>17.621252</ele>
        <time>2020-08-30T08:28:25.469Z</time>
      </trkpt>
      <trkpt lat="60.1311" lon="18.53411">
        <ele>17.932588</ele>
        <time>2020-08-30T08:28:35.868Z</time>
      </trkpt>
      <trkpt lat="60.13104" lon="18.53421">
        <ele>17.97687</ele>
        <time>2020-08-30T08:28:37.465Z</time>
      </trkpt>
      <trkpt lat="60.13074" lon="18.53516">
        <ele>18.296679</ele>
        <time>2020-08-30T08:28:48.405Z</time>
      </trkpt>
      <trkpt lat="60.13058" lon="18.53571">
        <ele>18.80117</ele>
        <time>2020-08-30T08:28:54.964Z</time>
      </trkpt>
      <trkpt lat="60.13025" lon="18.53621">
        <ele>19.480525</ele>
        <time>2020-08-30T08:29:03.872Z</time>
      </trkpt>
      <trkpt lat="60.13007" lon="18.53668">
        <ele>19.964946</ele>
        <time>2020-08-30T08:29:10.512Z</time>
      </trkpt>
      <trkpt lat="60.12982" lon="18.53698">
        <ele>20.437684</ele>
        <time>2020-08-30T08:29:17.321Z</time>
      </trkpt>
      <trkpt lat="60.12929" lon="18.53707">
        <ele>21.344925</ele>
        <time>2020-08-30T08:29:31.013Z</time>
      </trkpt>
      <trkpt lat="60.1291" lon="18.53728">
        <ele>21.913863</ele>
        <time>2020-08-30T08:29:36.964Z</time>
      </trkpt>
      <trkpt lat="60.12882" lon="18.53788">
        <ele>22.972234</ele>
        <time>2020-08-30T08:29:48.176Z</time>
      </trkpt>
      <trkpt lat="60.12855" lon="18.53823">
        <ele>23.789093</ele>
        <time>2020-08-30T08:29:56.836Z</time>
      </trkpt>
      <trkpt lat="60.12839" lon="18.53827">
        <ele>24.212455</ele>
        <time>2020-08-30T08:30:01.310Z</time>
      </trkpt>
      <trkpt lat="60.12813" lon="18.53799">
        <ele>24.977916</ele>
        <time>2020-08-30T08:30:09.117Z</time>
      </trkpt>
      <trkpt lat="60.12789" lon="18.53791">
        <ele>25.616311</ele>
        <time>2020-08-30T08:30:15.395Z</time>
      </trkpt>
      <trkpt lat="60.12761" lon="18.53797">
        <ele>26.012566</ele>
        <time>2020-08-30T08:30:22.071Z</time>
      </trkpt>
      <trkpt lat="60.12735" lon="18.53773">
        <ele>26.196286</ele>
        <time>2020-08-30T08:30:28.574Z</time>
      </trkpt>
      <trkpt lat="60.12695" lon="18.53722">
        <ele>26.502874</ele>
        <time>2020-08-30T08:30:38.544Z</time>
      </trkpt>
      <trkpt lat="60.12595" lon="18.53553">
        <ele>26.777407</ele>
        <time>2020-08-30T08:31:00.785Z</time>
      </trkpt>
      <trkpt lat="60.12583" lon="18.5351">
        <ele>26.614431</ele>
        <time>2020-08-30T08:31:04.734Z</time>
      </trkpt>
      <trkpt lat="60.12564" lon="18.53473">
        <ele>26.444268</ele>
        <time>2020-08-30T08:31:08.829Z</time>
      </trkpt>
      <trkpt lat="60.12531" lon="18.53443">
        <ele>26.207708</ele>
        <time>2020-08-30T08:31:14.581Z</time>
      </trkpt>
      <trkpt lat="60.12499" lon="18.53428">
        <ele>25.98922</ele>
        <time>2020-08-30T08:31:19.940Z</time>
      </trkpt>
      <trkpt lat="60.12442" lon="18.53445">
        <ele>25.447216</ele>
        <time>2020-08-30T08:31:29.080Z</time>
      </trkpt>
      <trkpt lat="60.12367" lon="18.53495">
        <ele>24.623777</ele>
        <time>2020-08-30T08:31:41.321Z</time>
      </trkpt>
      <trkpt lat="60.12318" lon="18.53529">
        <ele>24.088342</ele>
        <time>2020-08-30T08:31:49.141Z</time>
      </trkpt>
      <trkpt lat="60.12304" lon="18.53539">
        <ele>23.892659</ele>
        <time>2020-08-30T08:31:51.361Z</time>
      </trkpt>
      <trkpt lat="60.12216" lon="18.53643">
        <ele>22.355035</ele>
        <time>2020-08-30T08:32:06.500Z</time>
      </trkpt>
      <trkpt lat="60.12202" lon="18.53652">
        <ele>22.130667</ele>
        <time>2020-08-30T08:32:08.605Z</time>
      </trkpt>
      <trkpt lat="60.12196" lon="18.53656">
        <ele>22.0374</ele>
        <time>2020-08-30T08:32:09.549Z</time>
      </trkpt>
      <trkpt lat="60.12133" lon="18.53617">
        <ele>21.029467</ele>
        <time>2020-08-30T08:32:19.053Z</time>
      </trkpt>
      <trkpt lat="60.12103" lon="18.53616">
        <ele>20.543975</ele>
        <time>2020-08-30T08:32:23.432Z</time>
      </trkpt>
      <trkpt lat="60.12087" lon="18.53628">
        <ele>20.262184</ele>
        <time>2020-08-30T08:32:25.943Z</time>
      </trkpt>
      <trkpt lat="60.12037" lon="18.53712">
        <ele>19.21333</ele>
        <time>2020-08-30T08:32:35.281Z</time>
      </trkpt>
      <trkpt lat="60.11907" lon="18.53831">
        <ele>17.267643</ele>
        <time>2020-08-30T08:32:56.205Z</time>
      </trkpt>
      <trkpt lat="60.11881" lon="18.53868">
        <ele>16.886729</ele>
        <time>2020-08-30T08:33:00.991Z</time>
      </trkpt>
      <trkpt lat="60.11841" lon="18.53968">
        <ele>16.224095</ele>
        <time>2020-08-30T08:33:11.267Z</time>
      </trkpt>
      <trkpt lat="60.11808" lon="18.54017">
        <ele>16.334739</ele>
        <time>2020-08-30T08:33:18.236Z</time>
      </trkpt>
      <trkpt lat="60.11752" lon="18.5407">
        <ele>16.502175</ele>
        <time>2020-08-30T08:33:29.705Z</time>
      </trkpt>
      <trkpt lat="60.11506" lon="18.54154">
        <ele>18.197841</ele>
        <time>2020-08-30T08:34:21.230Z</time>
      </trkpt>
      <trkpt lat="60.11388" lon="18.54205">
        <ele>19.15828</ele>
        <time>2020-08-30T08:34:45.630Z</time>
      </trkpt>
      <trkpt lat="60.1132" lon="18.5423">
        <ele>19.705995</ele>
        <time>2020-08-30T08:34:59.630Z</time>
      </trkpt>
      <trkpt lat="60.1131" lon="18.54249">
        <ele>19.802811</ele>
        <time>2020-08-30T08:35:02.361Z</time>
      </trkpt>
      <trkpt lat="60.11286" lon="18.54305">
        <ele>20.071582</ele>
        <time>2020-08-30T08:35:09.912Z</time>
      </trkpt>
      <trkpt lat="60.11244" lon="18.54342">
        <ele>20.399629</ele>
        <time>2020-08-30T08:35:19.176Z</time>
      </trkpt>
      <trkpt lat="60.11209" lon="18.54395">
        <ele>20.717032</ele>
        <time>2020-08-30T08:35:28.123Z</time>
      </trkpt>
      <trkpt lat="60.11167" lon="18.54429">
        <ele>20.976171</ele>
        <time>2020-08-30T08:35:37.051Z</time>
      </trkpt>
      <trkpt lat="60.11144" lon="18.54468">
        <ele>21.06963</ele>
        <time>2020-08-30T08:35:43.027Z</time>
      </trkpt>
      <trkpt lat="60.11113" lon="18.54581">
        <ele>21.26725</ele>
        <time>2020-08-30T08:35:55.305Z</time>
      </trkpt>
      <trkpt lat="60.11083" lon="18.54722">
        <ele>21.460772</ele>
        <time>2020-08-30T08:36:09.093Z</time>
      </trkpt>
      <trkpt lat="60.11059" lon="18.54799">
        <ele>21.322551</ele>
        <time>2020-08-30T08:36:17.090Z</time>
      </trkpt>
      <trkpt lat="60.11008" lon="18.54928">
        <ele>21.077003</ele>
        <time>2020-08-30T08:36:30.846Z</time>
      </trkpt>
      <trkpt lat="60.10972" lon="18.55066">
        <ele>20.72244</ele>
        <time>2020-08-30T08:36:43.651Z</time>
      </trkpt>
      <trkpt lat="60.10951" lon="18.55105">
        <ele>20.527405</ele>
        <time>2020-08-30T08:36:48.317Z</time>
      </trkpt>
      <trkpt lat="60.10926" lon="18.55134">
        <ele>20.331012</ele>
        <time>2020-08-30T08:36:52.966Z</time>
      </trkpt>
      <trkpt lat="60.10851" lon="18.55183">
        <ele>19.795404</ele>
        <time>2020-08-30T08:37:05.485Z</time>
      </trkpt>
      <trkpt lat="60.10828" lon="18.55211">
        <ele>19.615412</ele>
        <time>2020-08-30T08:37:09.774Z</time>
      </trkpt>
      <trkpt lat="60.1077" lon="18.55358">
        <ele>19.01068</ele>
        <time>2020-08-30T08:37:24.621Z</time>
      </trkpt>
      <trkpt lat="60.10739" lon="18.55426">
        <ele>18.712537</ele>
        <time>2020-08-30T08:37:32.106Z</time>
      </trkpt>
      <trkpt lat="60.10698" lon="18.55492">
        <ele>18.482129</ele>
        <time>2020-08-30T08:37:40.845Z</time>
      </trkpt>
      <trkpt lat="60.1065" lon="18.55603">
        <ele>18.304716</ele>
        <time>2020-08-30T08:37:53.336Z</time>
      </trkpt>
      <trkpt lat="60.10631" lon="18.55631">
        <ele>18.249437</ele>
        <time>2020-08-30T08:37:57.291Z</time>
      </trkpt>
      <trkpt lat="60.10598" lon="18.55658">
        <ele>18.162049</ele>
        <time>2020-08-30T08:38:03.613Z</time>
      </trkpt>
      <trkpt lat="60.10524" lon="18.55786">
        <ele>18.099476</ele>
        <time>2020-08-30T08:38:21.013Z</time>
      </trkpt>
      <trkpt lat="60.10484" lon="18.55834">
        <ele>18.091205</ele>
        <time>2020-08-30T08:38:29.441Z</time>
      </trkpt>
      <trkpt lat="60.10436" lon="18.55873">
        <ele>18.081984</ele>
        <time>2020-08-30T08:38:38.889Z</time>
      </trkpt>
      <trkpt lat="60.10403" lon="18.55957">
        <ele>17.798972</ele>
        <time>2020-08-30T08:38:47.816Z</time>
      </trkpt>
      <trkpt lat="60.10396" lon="18.56">
        <ele>17.667864</ele>
        <time>2020-08-30T08:38:51.814Z</time>
      </trkpt>
      <trkpt lat="60.10386" lon="18.56028">
        <ele>17.569922</ele>
        <time>2020-08-30T08:38:54.467Z</time>
      </trkpt>
      <trkpt lat="60.10371" lon="18.56057">
        <ele>17.450457</ele>
        <time>2020-08-30T08:38:58.057Z</time>
      </trkpt>
      <trkpt lat="60.10368" lon="18.56062">
        <ele>17.428144</ele>
        <time>2020-08-30T08:38:58.580Z</time>
      </trkpt>
      <trkpt lat="60.10347" lon="18.56116">
        <ele>17.232913</ele>
        <time>2020-08-30T08:39:04.073Z</time>
      </trkpt>
      <trkpt lat="60.10278" lon="18.56188">
        <ele>16.576369</ele>
        <time>2020-08-30T08:39:16.103Z</time>
      </trkpt>
      <trkpt lat="60.102" lon="18.56209">
        <ele>15.766911</ele>
        <time>2020-08-30T08:39:28.024Z</time>
      </trkpt>
      <trkpt lat="60.10159" lon="18.56236">
        <ele>15.322108</ele>
        <time>2020-08-30T08:39:34.686Z</time>
      </trkpt>
      <trkpt lat="60.10145" lon="18.56262">
        <ele>15.134361</ele>
        <time>2020-08-30T08:39:37.634Z</time>
      </trkpt>
      <trkpt lat="60.1014" lon="18.56298">
        <ele>14.961763</ele>
        <time>2020-08-30T08:39:40.611Z</time>
      </trkpt>
      <trkpt lat="60.10141" lon="18.56348">
        <ele>14.734402</ele>
        <time>2020-08-30T08:39:44.551Z</time>
      </trkpt>
      <trkpt lat="60.10137" lon="18.56388">
        <ele>14.547896</ele>
        <time>2020-08-30T08:39:47.799Z</time>
      </trkpt>
      <trkpt lat="60.10121" lon="18.56426">
        <ele>14.318933</ele>
        <time>2020-08-30T08:39:51.772Z</time>
      </trkpt>
      <trkpt lat="60.10019" lon="18.56514">
        <ele>13.23586</ele>
        <time>2020-08-30T08:40:09.186Z</time>
      </trkpt>
      <trkpt lat="60.09891" lon="18.56709">
        <ele>11.445478</ele>
        <time>2020-08-30T08:40:33.432Z</time>
      </trkpt>
      <trkpt lat="60.09864" lon="18.56746">
        <ele>11.227035</ele>
        <time>2020-08-30T08:40:38.390Z</time>
      </trkpt>
      <trkpt lat="60.09851" lon="18.56763">
        <ele>11.122559</ele>
        <time>2020-08-30T08:40:40.787Z</time>
      </trkpt>
      <trkpt lat="60.09801" lon="18.5685">
        <ele>10.681035</ele>
        <time>2020-08-30T08:40:51.220Z</time>
      </trkpt>
      <trkpt lat="60.09774" lon="18.56915">
        <ele>10.394301</ele>
        <time>2020-08-30T08:40:58.233Z</time>
      </trkpt>
      <trkpt lat="60.09646" lon="18.57284">
        <ele>10.976209</ele>
        <time>2020-08-30T08:41:40.769Z</time>
      </trkpt>
      <trkpt lat="60.09639" lon="18.57298">
        <ele>11.020187</ele>
        <time>2020-08-30T08:41:43.051Z</time>
      </trkpt>
      <trkpt lat="60.09629" lon="18.5731">
        <ele>11.067507</ele>
        <time>2020-08-30T08:41:45.244Z</time>
      </trkpt>
      <trkpt lat="60.09618" lon="18.57325">
        <ele>11.124077</ele>
        <time>2020-08-30T08:41:47.741Z</time>
      </trkpt>
      <trkpt lat="60.09598" lon="18.57339">
        <ele>11.214668</ele>
        <time>2020-08-30T08:41:52.178Z</time>
      </trkpt>
      <trkpt lat="60.09465" lon="18.57415">
        <ele>11.585888</ele>
        <time>2020-08-30T08:42:18.118Z</time>
      </trkpt>
      <trkpt lat="60.09413" lon="18.57428">
        <ele>11.539794</ele>
        <time>2020-08-30T08:42:26.864Z</time>
      </trkpt>
      <trkpt lat="60.09393" lon="18.57448">
        <ele>11.520593</ele>
        <time>2020-08-30T08:42:30.583Z</time>
      </trkpt>
      <trkpt lat="60.09333" lon="18.57539">
        <ele>11.59884</ele>
        <time>2020-08-30T08:42:43.690Z</time>
      </trkpt>
      <trkpt lat="60.09316" lon="18.57541">
        <ele>11.765597</ele>
        <time>2020-08-30T08:42:46.699Z</time>
      </trkpt>
      <trkpt lat="60.09155" lon="18.57415">
        <ele>13.612886</ele>
        <time>2020-08-30T08:43:24.074Z</time>
      </trkpt>
      <trkpt lat="60.09136" lon="18.57412">
        <ele>13.920619</ele>
        <time>2020-08-30T08:43:28.733Z</time>
      </trkpt>
      <trkpt lat="60.09087" lon="18.57432">
        <ele>14.755696</ele>
        <time>2020-08-30T08:43:41.174Z</time>
      </trkpt>
      <trkpt lat="60.09" lon="18.57432">
        <ele>16.171649</ele>
        <time>2020-08-30T08:44:01.471Z</time>
      </trkpt>
      <trkpt lat="60.08989" lon="18.5744">
        <ele>16.212566</ele>
        <time>2020-08-30T08:44:04.106Z</time>
      </trkpt>
      <trkpt lat="60.08967" lon="18.57478">
        <ele>16.278524</ele>
        <time>2020-08-30T08:44:09.998Z</time>
      </trkpt>
      <trkpt lat="60.08924" lon="18.57451">
        <ele>16.380339</ele>
        <time>2020-08-30T08:44:18.500Z</time>
      </trkpt>
      <trkpt lat="60.08867" lon="18.57517">
        <ele>16.528805</ele>
        <time>2020-08-30T08:44:30.016Z</time>
      </trkpt>
      <trkpt lat="60.08846" lon="18.57594">
        <ele>16.495889</ele>
        <time>2020-08-30T08:44:37.047Z</time>
      </trkpt>
      <trkpt lat="60.08837" lon="18.57621">
        <ele>16.38315</ele>
        <time>2020-08-30T08:44:39.698Z</time>
      </trkpt>
      <trkpt lat="60.08823" lon="18.57634">
        <ele>16.275362</ele>
        <time>2020-08-30T08:44:42.100Z</time>
      </trkpt>
      <trkpt lat="60.08777" lon="18.57641">
        <ele>15.947093</ele>
        <time>2020-08-30T08:44:49.486Z</time>
      </trkpt>
      <trkpt lat="60.08756" lon="18.57653">
        <ele>15.798934</ele>
        <time>2020-08-30T08:44:52.849Z</time>
      </trkpt>
      <trkpt lat="60.08727" lon="18.57691">
        <ele>15.554642</ele>
        <time>2020-08-30T08:44:58.350Z</time>
      </trkpt>
      <trkpt lat="60.08684" lon="18.57794">
        <ele>15.133447</ele>
        <time>2020-08-30T08:45:09.317Z</time>
      </trkpt>
      <trkpt lat="60.08666" lon="18.57819">
        <ele>15.010663</ele>
        <time>2020-08-30T08:45:12.872Z</time>
      </trkpt>
      <trkpt lat="60.08628" lon="18.57848">
        <ele>14.784087</ele>
        <time>2020-08-30T08:45:19.391Z</time>
      </trkpt>
      <trkpt lat="60.08587" lon="18.5786">
        <ele>14.548221</ele>
        <time>2020-08-30T08:45:26.270Z</time>
      </trkpt>
      <trkpt lat="60.08558" lon="18.57855">
        <ele>14.383186</ele>
        <time>2020-08-30T08:45:31.131Z</time>
      </trkpt>
      <trkpt lat="60.0848" lon="18.57883">
        <ele>13.982316</ele>
        <time>2020-08-30T08:45:44.157Z</time>
      </trkpt>
      <trkpt lat="60.08456" lon="18.57884">
        <ele>13.863252</ele>
        <time>2020-08-30T08:45:48.105Z</time>
      </trkpt>
      <trkpt lat="60.08398" lon="18.57914">
        <ele>13.566656</ele>
        <time>2020-08-30T08:45:57.960Z</time>
      </trkpt>
      <trkpt lat="60.08386" lon="18.57915">
        <ele>13.505369</ele>
        <time>2020-08-30T08:45:59.995Z</time>
      </trkpt>
      <trkpt lat="60.08346" lon="18.57885">
        <ele>13.283458</ele>
        <time>2020-08-30T08:46:06.881Z</time>
      </trkpt>
      <trkpt lat="60.08325" lon="18.57894">
        <ele>13.164465</ele>
        <time>2020-08-30T08:46:10.627Z</time>
      </trkpt>
      <trkpt lat="60.08284" lon="18.57894">
        <ele>12.940138</ele>
        <time>2020-08-30T08:46:17.454Z</time>
      </trkpt>
      <trkpt lat="60.08277" lon="18.57894">
        <ele>12.900996</ele>
        <time>2020-08-30T08:46:18.534Z</time>
      </trkpt>
      <trkpt lat="60.08253" lon="18.57891">
        <ele>12.774142</ele>
        <time>2020-08-30T08:46:22.499Z</time>
      </trkpt>
      <trkpt lat="60.08186" lon="18.5789">
        <ele>12.398307</ele>
        <time>2020-08-30T08:46:33.366Z</time>
      </trkpt>
      <trkpt lat="60.08135" lon="18.57937">
        <ele>12.011074</ele>
        <time>2020-08-30T08:46:42.308Z</time>
      </trkpt>
      <trkpt lat="60.08111" lon="18.57944">
        <ele>11.84138</ele>
        <time>2020-08-30T08:46:46.334Z</time>
      </trkpt>
      <trkpt lat="60.08075" lon="18.57945">
        <ele>11.589291</ele>
        <time>2020-08-30T08:46:52.198Z</time>
      </trkpt>
      <trkpt lat="60.08022" lon="18.57917">
        <ele>11.211575</ele>
        <time>2020-08-30T08:47:00.859Z</time>
      </trkpt>
      <trkpt lat="60.07995" lon="18.57923">
        <ele>11.015261</ele>
        <time>2020-08-30T08:47:05.190Z</time>
      </trkpt>
      <trkpt lat="60.07936" lon="18.57992">
        <ele>10.530406</ele>
        <time>2020-08-30T08:47:15.798Z</time>
      </trkpt>
      <trkpt lat="60.07898" lon="18.57999">
        <ele>10.255911</ele>
        <time>2020-08-30T08:47:21.838Z</time>
      </trkpt>
      <trkpt lat="60.0774" lon="18.58096">
        <ele>9.949199</ele>
        <time>2020-08-30T08:47:49.321Z</time>
      </trkpt>
      <trkpt lat="60.07696" lon="18.58109">
        <ele>9.960562</ele>
        <time>2020-08-30T08:47:58.057Z</time>
      </trkpt>
      <trkpt lat="60.07643" lon="18.5812">
        <ele>10.534635</ele>
        <time>2020-08-30T08:48:09.347Z</time>
      </trkpt>
      <trkpt lat="60.07619" lon="18.58124">
        <ele>10.923961</ele>
        <time>2020-08-30T08:48:14.931Z</time>
      </trkpt>
      <trkpt lat="60.07564" lon="18.58122">
        <ele>11.815866</ele>
        <time>2020-08-30T08:48:27.912Z</time>
      </trkpt>
      <trkpt lat="60.07538" lon="18.58109">
        <ele>12.245692</ele>
        <time>2020-08-30T08:48:34.367Z</time>
      </trkpt>
      <trkpt lat="60.07503" lon="18.58117">
        <ele>12.808117</ele>
        <time>2020-08-30T08:48:42.944Z</time>
      </trkpt>
      <trkpt lat="60.0745" lon="18.58104">
        <ele>13.661778</ele>
        <time>2020-08-30T08:48:55.971Z</time>
      </trkpt>
      <trkpt lat="60.07363" lon="18.58127">
        <ele>15.037831</ele>
        <time>2020-08-30T08:49:15.739Z</time>
      </trkpt>
      <trkpt lat="60.0732" lon="18.58121">
        <ele>15.711887</ele>
        <time>2020-08-30T08:49:25.137Z</time>
      </trkpt>
      <trkpt lat="60.07309" lon="18.58128">
        <ele>15.830224</ele>
        <time>2020-08-30T08:49:27.686Z</time>
      </trkpt>
      <trkpt lat="60.07253" lon="18.58201">
        <ele>16.488118</ele>
        <time>2020-08-30T08:49:42.109Z</time>
      </trkpt>
      <trkpt lat="60.07231" lon="18.58208">
        <ele>16.708465</ele>
        <time>2020-08-30T08:49:46.843Z</time>
      </trkpt>
      <trkpt lat="60.07217" lon="18.58204">
        <ele>16.846578</ele>
        <time>2020-08-30T08:49:50.008Z</time>
      </trkpt>
      <trkpt lat="60.07174" lon="18.58161">
        <ele>17.323051</ele>
        <time>2020-08-30T08:49:59.795Z</time>
      </trkpt>
      <trkpt lat="60.07137" lon="18.58151">
        <ele>17.413294</ele>
        <time>2020-08-30T08:50:07.064Z</time>
      </trkpt>
      <trkpt lat="60.07112" lon="18.58127">
        <ele>17.32922</ele>
        <time>2020-08-30T08:50:12.400Z</time>
      </trkpt>
      <trkpt lat="60.07099" lon="18.58125">
        <ele>17.290691</ele>
        <time>2020-08-30T08:50:14.434Z</time>
      </trkpt>
      <trkpt lat="60.0708" lon="18.5814">
        <ele>17.228053</ele>
        <time>2020-08-30T08:50:18.245Z</time>
      </trkpt>
      <trkpt lat="60.07054" lon="18.58178">
        <ele>17.130684</ele>
        <time>2020-08-30T08:50:23.555Z</time>
      </trkpt>
      <trkpt lat="60.07013" lon="18.58227">
        <ele>16.984847</ele>
        <time>2020-08-30T08:50:31.189Z</time>
      </trkpt>
      <trkpt lat="60.06912" lon="18.58317">
        <ele>15.849489</ele>
        <time>2020-08-30T08:50:47.637Z</time>
      </trkpt>
      <trkpt lat="60.06864" lon="18.58328">
        <ele>15.291347</ele>
        <time>2020-08-30T08:50:54.965Z</time>
      </trkpt>
      <trkpt lat="60.06821" lon="18.58358">
        <ele>14.788864</ele>
        <time>2020-08-30T08:51:02.114Z</time>
      </trkpt>
      <trkpt lat="60.06783" lon="18.58371">
        <ele>14.418525</ele>
        <time>2020-08-30T08:51:08.332Z</time>
      </trkpt>
      <trkpt lat="60.06727" lon="18.58365">
        <ele>13.886194</ele>
        <time>2020-08-30T08:51:17.026Z</time>
      </trkpt>
      <trkpt lat="60.06709" lon="18.58358">
        <ele>13.708688</ele>
        <time>2020-08-30T08:51:20.034Z</time>
      </trkpt>
      <trkpt lat="60.06668" lon="18.58366">
        <ele>13.315798</ele>
        <time>2020-08-30T08:51:26.311Z</time>
      </trkpt>
      <trkpt lat="60.06633" lon="18.58372">
        <ele>13.00694</ele>
        <time>2020-08-30T08:51:31.634Z</time>
      </trkpt>
      <trkpt lat="60.06597" lon="18.58387">
        <ele>12.696428</ele>
        <time>2020-08-30T08:51:37.349Z</time>
      </trkpt>
      <trkpt lat="60.06545" lon="18.58414">
        <ele>12.247673</ele>
        <time>2020-08-30T08:51:45.558Z</time>
      </trkpt>
      <trkpt lat="60.06474" lon="18.58449">
        <ele>11.64695</ele>
        <time>2020-08-30T08:51:56.890Z</time>
      </trkpt>
      <trkpt lat="60.06297" lon="18.58489">
        <ele>12.541142</ele>
        <time>2020-08-30T08:52:31.669Z</time>
      </trkpt>
      <trkpt lat="60.06229" lon="18.58519">
        <ele>13.703811</ele>
        <time>2020-08-30T08:52:47.800Z</time>
      </trkpt>
      <trkpt lat="60.06188" lon="18.58523">
        <ele>14.379621</ele>
        <time>2020-08-30T08:52:57.810Z</time>
      </trkpt>
      <trkpt lat="60.06155" lon="18.58537">
        <ele>14.950997</ele>
        <time>2020-08-30T08:53:06.173Z</time>
      </trkpt>
      <trkpt lat="60.06095" lon="18.58521">
        <ele>15.723646</ele>
        <time>2020-08-30T08:53:20.437Z</time>
      </trkpt>
      <trkpt lat="60.06075" lon="18.58517">
        <ele>15.854007</ele>
        <time>2020-08-30T08:53:25.080Z</time>
      </trkpt>
      <trkpt lat="60.06065" lon="18.5852">
        <ele>15.920289</ele>
        <time>2020-08-30T08:53:27.113Z</time>
      </trkpt>
      <trkpt lat="60.06035" lon="18.58533">
        <ele>16.126428</ele>
        <time>2020-08-30T08:53:33.805Z</time>
      </trkpt>
      <trkpt lat="60.05917" lon="18.58591">
        <ele>16.426222</ele>
        <time>2020-08-30T08:53:55.644Z</time>
      </trkpt>
      <trkpt lat="60.05884" lon="18.58598">
        <ele>16.017092</ele>
        <time>2020-08-30T08:54:00.645Z</time>
      </trkpt>
      <trkpt lat="60.0585" lon="18.58628">
        <ele>15.548465</ele>
        <time>2020-08-30T08:54:06.196Z</time>
      </trkpt>
      <trkpt lat="60.05831" lon="18.58655">
        <ele>15.255721</ele>
        <time>2020-08-30T08:54:09.592Z</time>
      </trkpt>
      <trkpt lat="60.05791" lon="18.58662">
        <ele>14.756444</ele>
        <time>2020-08-30T08:54:15.361Z</time>
      </trkpt>
      <trkpt lat="60.05779" lon="18.5865">
        <ele>14.586722</ele>
        <time>2020-08-30T08:54:17.351Z</time>
      </trkpt>
      <trkpt lat="60.05766" lon="18.58647">
        <ele>14.390448</ele>
        <time>2020-08-30T08:54:19.074Z</time>
      </trkpt>
      <trkpt lat="60.05731" lon="18.58664">
        <ele>13.703073</ele>
        <time>2020-08-30T08:54:24.253Z</time>
      </trkpt>
      <trkpt lat="60.05646" lon="18.58739">
        <ele>11.967136</ele>
        <time>2020-08-30T08:54:37.526Z</time>
      </trkpt>
      <trkpt lat="60.05588" lon="18.58767">
        <ele>10.923331</ele>
        <time>2020-08-30T08:54:45.884Z</time>
      </trkpt>
      <trkpt lat="60.0552" lon="18.58782">
        <ele>9.941561</ele>
        <time>2020-08-30T08:54:55.838Z</time>
      </trkpt>
      <trkpt lat="60.05476" lon="18.58784">
        <ele>9.325764</ele>
        <time>2020-08-30T08:55:02.276Z</time>
      </trkpt>
      <trkpt lat="60.05418" lon="18.58777">
        <ele>8.538488</ele>
        <time>2020-08-30T08:55:11.384Z</time>
      </trkpt>
      <trkpt lat="60.05418" lon="18.58789">
        <ele>8.500764</ele>
        <time>2020-08-30T08:55:12.255Z</time>
      </trkpt>
      <trkpt lat="60.05352" lon="18.58786">
        <ele>8.08502</ele>
        <time>2020-08-30T08:55:23.321Z</time>
      </trkpt>
      <trkpt lat="60.05249" lon="18.58781">
        <ele>7.441706</ele>
        <time>2020-08-30T08:55:41.126Z</time>
      </trkpt>
      <trkpt lat="60.05193" lon="18.58775">
        <ele>7.306619</ele>
        <time>2020-08-30T08:55:51.023Z</time>
      </trkpt>
      <trkpt lat="60.05152" lon="18.58773">
        <ele>7.205079</ele>
        <time>2020-08-30T08:55:58.543Z</time>
      </trkpt>
      <trkpt lat="60.05057" lon="18.58762">
        <ele>6.996189</ele>
        <time>2020-08-30T08:56:15.484Z</time>
      </trkpt>
      <trkpt lat="60.05002" lon="18.58756">
        <ele>6.950504</ele>
        <time>2020-08-30T08:56:25.384Z</time>
      </trkpt>
      <trkpt lat="60.04988" lon="18.58757">
        <ele>6.939148</ele>
        <time>2020-08-30T08:56:27.846Z</time>
      </trkpt>
      <trkpt lat="60.04979" lon="18.58763">
        <ele>6.931417</ele>
        <time>2020-08-30T08:56:29.506Z</time>
      </trkpt>
      <trkpt lat="60.04987" lon="18.58871">
        <ele>6.886938</ele>
        <time>2020-08-30T08:56:39.326Z</time>
      </trkpt>
      <trkpt lat="60.04996" lon="18.58987">
        <ele>7.282189</ele>
        <time>2020-08-30T08:56:50.802Z</time>
      </trkpt>
      <trkpt lat="60.05" lon="18.59037">
        <ele>7.706446</ele>
        <time>2020-08-30T08:56:56.091Z</time>
      </trkpt>
      <trkpt lat="60.05003" lon="18.59093">
        <ele>8.171897</ele>
        <time>2020-08-30T08:57:02.085Z</time>
      </trkpt>
      <trkpt lat="60.05036" lon="18.5946">
        <ele>12.094137</ele>
        <time>2020-08-30T08:57:51.958Z</time>
      </trkpt>
      <trkpt lat="60.05038" lon="18.59468">
        <ele>12.214097</ele>
        <time>2020-08-30T08:57:53.450Z</time>
      </trkpt>
      <trkpt lat="60.05047" lon="18.59479">
        <ele>12.471147</ele>
        <time>2020-08-30T08:57:56.233Z</time>
      </trkpt>
      <trkpt lat="60.05049" lon="18.59506">
        <ele>12.839939</ele>
        <time>2020-08-30T08:58:00.217Z</time>
      </trkpt>
      <trkpt lat="60.05051" lon="18.59518">
        <ele>13.000131</ele>
        <time>2020-08-30T08:58:01.903Z</time>
      </trkpt>
      <trkpt lat="60.0505" lon="18.59519">
        <ele>13.040756</ele>
        <time>2020-08-30T08:58:02.392Z</time>
      </trkpt>
      <trkpt lat="60.05046" lon="18.59531">
        <ele>13.227528</ele>
        <time>2020-08-30T08:58:04.462Z</time>
      </trkpt>
      <trkpt lat="60.05044" lon="18.59534">
        <ele>13.288052</ele>
        <time>2020-08-30T08:58:05.172Z</time>
      </trkpt>
      <trkpt lat="60.05059" lon="18.59708">
        <ele>15.232813</ele>
        <time>2020-08-30T08:58:28.117Z</time>
      </trkpt>
      <trkpt lat="60.0507" lon="18.59734">
        <ele>15.523675</ele>
        <time>2020-08-30T08:58:32.495Z</time>
      </trkpt>
      <trkpt lat="60.05072" lon="18.59749">
        <ele>15.650066</ele>
        <time>2020-08-30T08:58:34.435Z</time>
      </trkpt>
      <trkpt lat="60.05073" lon="18.59756">
        <ele>15.711846</ele>
        <time>2020-08-30T08:58:35.252Z</time>
      </trkpt>
      <trkpt lat="60.05074" lon="18.59762">
        <ele>15.757893</ele>
        <time>2020-08-30T08:58:35.919Z</time>
      </trkpt>
      <trkpt lat="60.05074" lon="18.59767">
        <ele>15.806884</ele>
        <time>2020-08-30T08:58:36.625Z</time>
      </trkpt>
      <trkpt lat="60.0507" lon="18.5977">
        <ele>15.882532</ele>
        <time>2020-08-30T08:58:37.704Z</time>
      </trkpt>
      <trkpt lat="60.05068" lon="18.59776">
        <ele>15.939904</ele>
        <time>2020-08-30T08:58:38.501Z</time>
      </trkpt>
      <trkpt lat="60.05067" lon="18.59785">
        <ele>16.016814</ele>
        <time>2020-08-30T08:58:39.627Z</time>
      </trkpt>
      <trkpt lat="60.05063" lon="18.59788">
        <ele>16.085764</ele>
        <time>2020-08-30T08:58:40.489Z</time>
      </trkpt>
      <trkpt lat="60.05056" lon="18.59792">
        <ele>16.215782</ele>
        <time>2020-08-30T08:58:42.442Z</time>
      </trkpt>
      <trkpt lat="60.05052" lon="18.59793">
        <ele>16.283217</ele>
        <time>2020-08-30T08:58:43.234Z</time>
      </trkpt>
      <trkpt lat="60.05044" lon="18.5978">
        <ele>16.454003</ele>
        <time>2020-08-30T08:58:45.391Z</time>
      </trkpt>
      <trkpt lat="60.05008" lon="18.59775">
        <ele>17.05045</ele>
        <time>2020-08-30T08:58:53.496Z</time>
      </trkpt>
      <trkpt lat="60.04968" lon="18.5977">
        <ele>17.734857</ele>
        <time>2020-08-30T08:59:02.539Z</time>
      </trkpt>
      <trkpt lat="60.0493" lon="18.59764">
        <ele>18.462181</ele>
        <time>2020-08-30T08:59:11.183Z</time>
      </trkpt>
      <trkpt lat="60.04892" lon="18.59764">
        <ele>19.187271</ele>
        <time>2020-08-30T08:59:20.019Z</time>
      </trkpt>
      <trkpt lat="60.04878" lon="18.59766">
        <ele>19.461165</ele>
        <time>2020-08-30T08:59:23.335Z</time>
      </trkpt>
      <trkpt lat="60.04857" lon="18.59774">
        <ele>19.877099</ele>
        <time>2020-08-30T08:59:29.022Z</time>
      </trkpt>
      <trkpt lat="60.04773" lon="18.59839">
        <ele>21.561912</ele>
        <time>2020-08-30T08:59:53.349Z</time>
      </trkpt>
      <trkpt lat="60.04766" lon="18.59838">
        <ele>21.67657</ele>
        <time>2020-08-30T08:59:55.401Z</time>
      </trkpt>
      <trkpt lat="60.04756" lon="18.59847">
        <ele>21.878793</ele>
        <time>2020-08-30T08:59:58.390Z</time>
      </trkpt>
      <trkpt lat="60.04736" lon="18.59864">
        <ele>22.262035</ele>
        <time>2020-08-30T09:00:03.887Z</time>
      </trkpt>
      <trkpt lat="60.04689" lon="18.59909">
        <ele>23.182391</ele>
        <time>2020-08-30T09:00:16.350Z</time>
      </trkpt>
      <trkpt lat="60.04664" lon="18.5993">
        <ele>23.67764</ele>
        <time>2020-08-30T09:00:22.420Z</time>
      </trkpt>
      <trkpt lat="60.04655" lon="18.59941">
        <ele>23.870195</ele>
        <time>2020-08-30T09:00:24.618Z</time>
      </trkpt>
      <trkpt lat="60.04626" lon="18.5995">
        <ele>24.175237</ele>
        <time>2020-08-30T09:00:30.516Z</time>
      </trkpt>
      <trkpt lat="60.04606" lon="18.59949">
        <ele>24.077257</ele>
        <time>2020-08-30T09:00:34.080Z</time>
      </trkpt>
      <trkpt lat="60.04585" lon="18.59937">
        <ele>23.973265</ele>
        <time>2020-08-30T09:00:37.663Z</time>
      </trkpt>
      <trkpt lat="60.04563" lon="18.59917">
        <ele>23.855589</ele>
        <time>2020-08-30T09:00:41.543Z</time>
      </trkpt>
      <trkpt lat="60.04555" lon="18.59911">
        <ele>23.814034</ele>
        <time>2020-08-30T09:00:42.915Z</time>
      </trkpt>
      <trkpt lat="60.04524" lon="18.59883">
        <ele>23.648085</ele>
        <time>2020-08-30T09:00:48.215Z</time>
      </trkpt>
      <trkpt lat="60.04499" lon="18.59865">
        <ele>23.51374</ele>
        <time>2020-08-30T09:00:52.449Z</time>
      </trkpt>
      <trkpt lat="60.04471" lon="18.59853">
        <ele>23.373245</ele>
        <time>2020-08-30T09:00:56.889Z</time>
      </trkpt>
      <trkpt lat="60.04445" lon="18.59842">
        <ele>23.256201</ele>
        <time>2020-08-30T09:01:00.939Z</time>
      </trkpt>
      <trkpt lat="60.04429" lon="18.59835">
        <ele>23.188895</ele>
        <time>2020-08-30T09:01:03.428Z</time>
      </trkpt>
      <trkpt lat="60.0441" lon="18.59831">
        <ele>23.106615</ele>
        <time>2020-08-30T09:01:06.426Z</time>
      </trkpt>
      <trkpt lat="60.04397" lon="18.59832">
        <ele>23.051827</ele>
        <time>2020-08-30T09:01:08.486Z</time>
      </trkpt>
      <trkpt lat="60.04376" lon="18.59843">
        <ele>22.962215</ele>
        <time>2020-08-30T09:01:11.857Z</time>
      </trkpt>
      <trkpt lat="60.04352" lon="18.5986">
        <ele>22.852301</ele>
        <time>2020-08-30T09:01:16.188Z</time>
      </trkpt>
      <trkpt lat="60.04331" lon="18.59876">
        <ele>22.759204</ele>
        <time>2020-08-30T09:01:20.091Z</time>
      </trkpt>
      <trkpt lat="60.04325" lon="18.59882">
        <ele>22.727544</ele>
        <time>2020-08-30T09:01:21.453Z</time>
      </trkpt>
      <trkpt lat="60.04305" lon="18.59888">
        <ele>22.643204</ele>
        <time>2020-08-30T09:01:25.054Z</time>
      </trkpt>
      <trkpt lat="60.04236" lon="18.59892">
        <ele>22.811242</ele>
        <time>2020-08-30T09:01:38.465Z</time>
      </trkpt>
      <trkpt lat="60.04209" lon="18.59901">
        <ele>22.932722</ele>
        <time>2020-08-30T09:01:43.819Z</time>
      </trkpt>
      <trkpt lat="60.04188" lon="18.59916">
        <ele>23.028029</ele>
        <time>2020-08-30T09:01:48.062Z</time>
      </trkpt>
      <trkpt lat="60.04171" lon="18.59938">
        <ele>23.117841</ele>
        <time>2020-08-30T09:01:51.957Z</time>
      </trkpt>
      <trkpt lat="60.04134" lon="18.59989">
        <ele>23.314563</ele>
        <time>2020-08-30T09:02:00.703Z</time>
      </trkpt>
      <trkpt lat="60.04123" lon="18.60007">
        <ele>23.372159</ele>
        <time>2020-08-30T09:02:03.460Z</time>
      </trkpt>
      <trkpt lat="60.04039" lon="18.60094">
        <ele>23.654411</ele>
        <time>2020-08-30T09:02:21.840Z</time>
      </trkpt>
      <trkpt lat="60.03985" lon="18.60152">
        <ele>23.83471</ele>
        <time>2020-08-30T09:02:32.775Z</time>
      </trkpt>
      <trkpt lat="60.03938" lon="18.60191">
        <ele>23.866664</ele>
        <time>2020-08-30T09:02:42.108Z</time>
      </trkpt>
      <trkpt lat="60.03895" lon="18.60215">
        <ele>23.819042</ele>
        <time>2020-08-30T09:02:50.051Z</time>
      </trkpt>
      <trkpt lat="60.03848" lon="18.60219">
        <ele>23.767027</ele>
        <time>2020-08-30T09:02:58.671Z</time>
      </trkpt>
      <trkpt lat="60.03796" lon="18.60225">
        <ele>23.711026</ele>
        <time>2020-08-30T09:03:07.735Z</time>
      </trkpt>
      <trkpt lat="60.03737" lon="18.60254">
        <ele>23.131925</ele>
        <time>2020-08-30T09:03:17.242Z</time>
      </trkpt>
      <trkpt lat="60.03673" lon="18.60319">
        <ele>22.376623</ele>
        <time>2020-08-30T09:03:28.097Z</time>
      </trkpt>
      <trkpt lat="60.03649" lon="18.60329">
        <ele>22.114341</ele>
        <time>2020-08-30T09:03:31.746Z</time>
      </trkpt>
      <trkpt lat="60.03574" lon="18.60317">
        <ele>21.267292</ele>
        <time>2020-08-30T09:03:42.903Z</time>
      </trkpt>
      <trkpt lat="60.03406" lon="18.60285">
        <ele>19.498363</ele>
        <time>2020-08-30T09:04:08.668Z</time>
      </trkpt>
      <trkpt lat="60.0338" lon="18.60285">
        <ele>19.367619</ele>
        <time>2020-08-30T09:04:12.931Z</time>
      </trkpt>
      <trkpt lat="60.03339" lon="18.60301">
        <ele>19.152728</ele>
        <time>2020-08-30T09:04:19.869Z</time>
      </trkpt>
      <trkpt lat="60.03305" lon="18.60322">
        <ele>18.96973</ele>
        <time>2020-08-30T09:04:25.787Z</time>
      </trkpt>
      <trkpt lat="60.03172" lon="18.60472">
        <ele>19.275463</ele>
        <time>2020-08-30T09:04:52.568Z</time>
      </trkpt>
      <trkpt lat="60.03119" lon="18.60517">
        <ele>19.545754</ele>
        <time>2020-08-30T09:05:04.562Z</time>
      </trkpt>
      <trkpt lat="60.0302" lon="18.6057">
        <ele>21.87976</ele>
        <time>2020-08-30T09:05:29.966Z</time>
      </trkpt>
      <trkpt lat="60.0296" lon="18.60598">
        <ele>23.403011</ele>
        <time>2020-08-30T09:05:46.651Z</time>
      </trkpt>
      <trkpt lat="60.02934" lon="18.6061">
        <ele>24.079093</ele>
        <time>2020-08-30T09:05:54.351Z</time>
      </trkpt>
      <trkpt lat="60.0292" lon="18.60616">
        <ele>24.470568</ele>
        <time>2020-08-30T09:05:57.933Z</time>
      </trkpt>
      <trkpt lat="60.02907" lon="18.60618">
        <ele>24.815367</ele>
        <time>2020-08-30T09:06:01.733Z</time>
      </trkpt>
      <trkpt lat="60.02911" lon="18.60632">
        <ele>25.023162</ele>
        <time>2020-08-30T09:06:04.011Z</time>
      </trkpt>
      <trkpt lat="60.02941" lon="18.6076">
        <ele>26.980998</ele>
        <time>2020-08-30T09:06:23.454Z</time>
      </trkpt>
      <trkpt lat="60.0295" lon="18.60835">
        <ele>28.037279</ele>
        <time>2020-08-30T09:06:33.493Z</time>
      </trkpt>
      <trkpt lat="60.02952" lon="18.60899">
        <ele>28.915066</ele>
        <time>2020-08-30T09:06:41.757Z</time>
      </trkpt>
      <trkpt lat="60.02935" lon="18.61035">
        <ele>30.369761</ele>
        <time>2020-08-30T09:06:58.421Z</time>
      </trkpt>
      <trkpt lat="60.02929" lon="18.61096">
        <ele>30.997146</ele>
        <time>2020-08-30T09:07:05.688Z</time>
      </trkpt>
      <trkpt lat="60.02928" lon="18.61149">
        <ele>31.532197</ele>
        <time>2020-08-30T09:07:11.977Z</time>
      </trkpt>
      <trkpt lat="60.02933" lon="18.61185">
        <ele>31.911618</ele>
        <time>2020-08-30T09:07:16.645Z</time>
      </trkpt>
      <trkpt lat="60.02978" lon="18.61405">
        <ele>34.683489</ele>
        <time>2020-08-30T09:07:46.455Z</time>
      </trkpt>
      <trkpt lat="60.03037" lon="18.61673">
        <ele>38.289923</ele>
        <time>2020-08-30T09:08:25.201Z</time>
      </trkpt>
      <trkpt lat="60.03064" lon="18.61787">
        <ele>39.813043</ele>
        <time>2020-08-30T09:08:41.876Z</time>
      </trkpt>
      <trkpt lat="60.03089" lon="18.61856">
        <ele>40.843257</ele>
        <time>2020-08-30T09:08:52.637Z</time>
      </trkpt>
      <trkpt lat="60.03124" lon="18.61917">
        <ele>41.705192</ele>
        <time>2020-08-30T09:09:03.788Z</time>
      </trkpt>
      <trkpt lat="60.03166" lon="18.61963">
        <ele>42.199077</ele>
        <time>2020-08-30T09:09:14.400Z</time>
      </trkpt>
      <trkpt lat="60.03206" lon="18.6203">
        <ele>42.741738</ele>
        <time>2020-08-30T09:09:25.391Z</time>
      </trkpt>
      <trkpt lat="60.03289" lon="18.62226">
        <ele>43.433448</ele>
        <time>2020-08-30T09:09:49.718Z</time>
      </trkpt>
      <trkpt lat="60.03323" lon="18.62326">
        <ele>43.491673</ele>
        <time>2020-08-30T09:10:00.257Z</time>
      </trkpt>
      <trkpt lat="60.03354" lon="18.6245">
        <ele>43.537546</ele>
        <time>2020-08-30T09:10:12.386Z</time>
      </trkpt>
      <trkpt lat="60.03379" lon="18.62578">
        <ele>43.525215</ele>
        <time>2020-08-30T09:10:24.628Z</time>
      </trkpt>
      <trkpt lat="60.03384" lon="18.62694">
        <ele>43.514798</ele>
        <time>2020-08-30T09:10:35.052Z</time>
      </trkpt>
      <trkpt lat="60.03368" lon="18.62813">
        <ele>43.520802</ele>
        <time>2020-08-30T09:10:46.174Z</time>
      </trkpt>
      <trkpt lat="60.03301" lon="18.63044">
        <ele>43.583849</ele>
        <time>2020-08-30T09:11:10.361Z</time>
      </trkpt>
      <trkpt lat="60.03288" lon="18.63182">
        <ele>43.622684</ele>
        <time>2020-08-30T09:11:22.701Z</time>
      </trkpt>
      <trkpt lat="60.0333" lon="18.63699">
        <ele>43.815588</ele>
        <time>2020-08-30T09:12:09.985Z</time>
      </trkpt>
      <trkpt lat="60.03349" lon="18.63863">
        <ele>43.955324</ele>
        <time>2020-08-30T09:12:25.455Z</time>
      </trkpt>
      <trkpt lat="60.03357" lon="18.63905">
        <ele>44.01496</ele>
        <time>2020-08-30T09:12:29.413Z</time>
      </trkpt>
      <trkpt lat="60.03385" lon="18.64022">
        <ele>44.189638</ele>
        <time>2020-08-30T09:12:41.654Z</time>
      </trkpt>
      <trkpt lat="60.03546" lon="18.64373">
        <ele>44.963948</ele>
        <time>2020-08-30T09:13:27.049Z</time>
      </trkpt>
      <trkpt lat="60.03641" lon="18.64519">
        <ele>44.689882</ele>
        <time>2020-08-30T09:13:48.138Z</time>
      </trkpt>
      <trkpt lat="60.03727" lon="18.64785">
        <ele>44.184708</ele>
        <time>2020-08-30T09:14:13.893Z</time>
      </trkpt>
      <trkpt lat="60.03746" lon="18.64878">
        <ele>43.997296</ele>
        <time>2020-08-30T09:14:22.331Z</time>
      </trkpt>
      <trkpt lat="60.0375" lon="18.64931">
        <ele>43.898534</ele>
        <time>2020-08-30T09:14:26.949Z</time>
      </trkpt>
      <trkpt lat="60.03756" lon="18.65141">
        <ele>44.183365</ele>
        <time>2020-08-30T09:14:46.617Z</time>
      </trkpt>
      <trkpt lat="60.03764" lon="18.65276">
        <ele>44.381691</ele>
        <time>2020-08-30T09:15:00.007Z</time>
      </trkpt>
      <trkpt lat="60.03777" lon="18.65407">
        <ele>44.512234</ele>
        <time>2020-08-30T09:15:12.922Z</time>
      </trkpt>
      <trkpt lat="60.03787" lon="18.65635">
        <ele>44.715824</ele>
        <time>2020-08-30T09:15:33.335Z</time>
      </trkpt>
      <trkpt lat="60.03791" lon="18.65843">
        <ele>44.439819</ele>
        <time>2020-08-30T09:15:51.359Z</time>
      </trkpt>
      <trkpt lat="60.03796" lon="18.66133">
        <ele>43.583594</ele>
        <time>2020-08-30T09:16:15.455Z</time>
      </trkpt>
      <trkpt lat="60.03781" lon="18.6626">
        <ele>42.936958</ele>
        <time>2020-08-30T09:16:25.606Z</time>
      </trkpt>
      <trkpt lat="60.03757" lon="18.66382">
        <ele>42.228304</ele>
        <time>2020-08-30T09:16:35.232Z</time>
      </trkpt>
      <trkpt lat="60.03744" lon="18.66602">
        <ele>40.498415</ele>
        <time>2020-08-30T09:16:51.140Z</time>
      </trkpt>
      <trkpt lat="60.03743" lon="18.66674">
        <ele>39.938509</ele>
        <time>2020-08-30T09:16:56.356Z</time>
      </trkpt>
      <trkpt lat="60.03779" lon="18.66922">
        <ele>38.653443</ele>
        <time>2020-08-30T09:17:16.471Z</time>
      </trkpt>
      <trkpt lat="60.03782" lon="18.66989">
        <ele>38.358312</ele>
        <time>2020-08-30T09:17:21.973Z</time>
      </trkpt>
      <trkpt lat="60.03767" lon="18.67174">
        <ele>37.166932</ele>
        <time>2020-08-30T09:17:37.092Z</time>
      </trkpt>
      <trkpt lat="60.03792" lon="18.67387">
        <ele>35.446273</ele>
        <time>2020-08-30T09:17:53.136Z</time>
      </trkpt>
      <trkpt lat="60.03812" lon="18.67459">
        <ele>34.242427</ele>
        <time>2020-08-30T09:17:58.635Z</time>
      </trkpt>
      <trkpt lat="60.0395" lon="18.67756">
        <ele>26.58115</ele>
        <time>2020-08-30T09:18:23.863Z</time>
      </trkpt>
      <trkpt lat="60.03967" lon="18.67832">
        <ele>25.178938</ele>
        <time>2020-08-30T09:18:29.147Z</time>
      </trkpt>
      <trkpt lat="60.03976" lon="18.67886">
        <ele>24.221639</ele>
        <time>2020-08-30T09:18:32.781Z</time>
      </trkpt>
      <trkpt lat="60.03986" lon="18.67934">
        <ele>23.345735</ele>
        <time>2020-08-30T09:18:36.235Z</time>
      </trkpt>
      <trkpt lat="60.04032" lon="18.68184">
        <ele>20.928672</ele>
        <time>2020-08-30T09:18:55.184Z</time>
      </trkpt>
      <trkpt lat="60.04075" lon="18.68408">
        <ele>19.719506</ele>
        <time>2020-08-30T09:19:15.448Z</time>
      </trkpt>
      <trkpt lat="60.04103" lon="18.68641">
        <ele>19.140761</ele>
        <time>2020-08-30T09:19:34.726Z</time>
      </trkpt>
      <trkpt lat="60.04103" lon="18.6869">
        <ele>19.027463</ele>
        <time>2020-08-30T09:19:38.665Z</time>
      </trkpt>
      <trkpt lat="60.04103" lon="18.68744">
        <ele>19.110781</ele>
        <time>2020-08-30T09:19:43.364Z</time>
      </trkpt>
      <trkpt lat="60.04086" lon="18.69044">
        <ele>19.570469</ele>
        <time>2020-08-30T09:20:12.230Z</time>
      </trkpt>
      <trkpt lat="60.04073" lon="18.69184">
        <ele>20.054425</ele>
        <time>2020-08-30T09:20:27.571Z</time>
      </trkpt>
      <trkpt lat="60.04047" lon="18.69274">
        <ele>20.410435</ele>
        <time>2020-08-30T09:20:38.600Z</time>
      </trkpt>
      <trkpt lat="60.03964" lon="18.69466">
        <ele>20.813104</ele>
        <time>2020-08-30T09:21:01.704Z</time>
      </trkpt>
      <trkpt lat="60.03938" lon="18.69539">
        <ele>20.813592</ele>
        <time>2020-08-30T09:21:09.136Z</time>
      </trkpt>
      <trkpt lat="60.03929" lon="18.69606">
        <ele>20.813981</ele>
        <time>2020-08-30T09:21:15.144Z</time>
      </trkpt>
      <trkpt lat="60.03914" lon="18.69717">
        <ele>21.096808</ele>
        <time>2020-08-30T09:21:25.554Z</time>
      </trkpt>
      <trkpt lat="60.03896" lon="18.69843">
        <ele>21.819763</ele>
        <time>2020-08-30T09:21:38.711Z</time>
      </trkpt>
      <trkpt lat="60.03877" lon="18.69912">
        <ele>22.257722</ele>
        <time>2020-08-30T09:21:47.362Z</time>
      </trkpt>
      <trkpt lat="60.0385" lon="18.69987">
        <ele>22.766189</ele>
        <time>2020-08-30T09:21:58.575Z</time>
      </trkpt>
      <trkpt lat="60.03811" lon="18.70079">
        <ele>23.843931</ele>
        <time>2020-08-30T09:22:14.051Z</time>
      </trkpt>
      <trkpt lat="60.03718" lon="18.70315">
        <ele>26.066195</ele>
        <time>2020-08-30T09:22:49.258Z</time>
      </trkpt>
      <trkpt lat="60.03699" lon="18.70365">
        <ele>26.038638</ele>
        <time>2020-08-30T09:22:55.275Z</time>
      </trkpt>
      <trkpt lat="60.03695" lon="18.704">
        <ele>26.022622</ele>
        <time>2020-08-30T09:22:58.559Z</time>
      </trkpt>
      <trkpt lat="60.03695" lon="18.704">
        <ele>26.022622</ele>
        <time>2020-08-30T09:22:58.599Z</time>
      </trkpt>
      <trkpt lat="60.03692" lon="18.70417">
        <ele>26.015012</ele>
        <time>2020-08-30T09:23:00.116Z</time>
      </trkpt>
      <trkpt lat="60.03698" lon="18.70477">
        <ele>25.98789</ele>
        <time>2020-08-30T09:23:05.381Z</time>
      </trkpt>
      <trkpt lat="60.03786" lon="18.70906">
        <ele>23.776531</ele>
        <time>2020-08-30T09:23:39.679Z</time>
      </trkpt>
      <trkpt lat="60.03795" lon="18.70999">
        <ele>23.877089</ele>
        <time>2020-08-30T09:23:47.310Z</time>
      </trkpt>
      <trkpt lat="60.03792" lon="18.71089">
        <ele>24.211926</ele>
        <time>2020-08-30T09:23:55.513Z</time>
      </trkpt>
      <trkpt lat="60.03782" lon="18.71163">
        <ele>24.4967</ele>
        <time>2020-08-30T09:24:03.429Z</time>
      </trkpt>
      <trkpt lat="60.03779" lon="18.71174">
        <ele>24.5392</ele>
        <time>2020-08-30T09:24:04.734Z</time>
      </trkpt>
      <trkpt lat="60.03753" lon="18.71284">
        <ele>25.099346</ele>
        <time>2020-08-30T09:24:19.280Z</time>
      </trkpt>
      <trkpt lat="60.03751" lon="18.71344">
        <ele>25.982106</ele>
        <time>2020-08-30T09:24:27.269Z</time>
      </trkpt>
      <trkpt lat="60.03755" lon="18.71393">
        <ele>26.704899</ele>
        <time>2020-08-30T09:24:34.139Z</time>
      </trkpt>
      <trkpt lat="60.03768" lon="18.7145">
        <ele>27.627172</ele>
        <time>2020-08-30T09:24:43.200Z</time>
      </trkpt>
      <trkpt lat="60.03833" lon="18.71658">
        <ele>30.791462</ele>
        <time>2020-08-30T09:25:17.596Z</time>
      </trkpt>
      <trkpt lat="60.03855" lon="18.71752">
        <ele>31.650002</ele>
        <time>2020-08-30T09:25:30.504Z</time>
      </trkpt>
      <trkpt lat="60.03861" lon="18.71834">
        <ele>32.338141</ele>
        <time>2020-08-30T09:25:39.966Z</time>
      </trkpt>
      <trkpt lat="60.03859" lon="18.72082">
        <ele>32.730743</ele>
        <time>2020-08-30T09:26:02.794Z</time>
      </trkpt>
      <trkpt lat="60.03845" lon="18.72516">
        <ele>30.443005</ele>
        <time>2020-08-30T09:26:35.383Z</time>
      </trkpt>
      <trkpt lat="60.03842" lon="18.72626">
        <ele>29.652773</ele>
        <time>2020-08-30T09:26:43.430Z</time>
      </trkpt>
      <trkpt lat="60.0384" lon="18.7275">
        <ele>28.53082</ele>
        <time>2020-08-30T09:26:52.412Z</time>
      </trkpt>
      <trkpt lat="60.03852" lon="18.72922">
        <ele>26.842188</ele>
        <time>2020-08-30T09:27:04.791Z</time>
      </trkpt>
      <trkpt lat="60.03851" lon="18.72993">
        <ele>26.154818</ele>
        <time>2020-08-30T09:27:09.737Z</time>
      </trkpt>
      <trkpt lat="60.03843" lon="18.73049">
        <ele>25.528934</ele>
        <time>2020-08-30T09:27:13.752Z</time>
      </trkpt>
      <trkpt lat="60.03758" lon="18.73443">
        <ele>20.814653</ele>
        <time>2020-08-30T09:27:43.207Z</time>
      </trkpt>
      <trkpt lat="60.03713" lon="18.73606">
        <ele>19.133235</ele>
        <time>2020-08-30T09:27:56.420Z</time>
      </trkpt>
      <trkpt lat="60.03705" lon="18.73663">
        <ele>18.600446</ele>
        <time>2020-08-30T09:28:00.725Z</time>
      </trkpt>
      <trkpt lat="60.03676" lon="18.74025">
        <ele>18.280502</ele>
        <time>2020-08-30T09:28:32.392Z</time>
      </trkpt>
      <trkpt lat="60.03672" lon="18.7415">
        <ele>19.512447</ele>
        <time>2020-08-30T09:28:47.041Z</time>
      </trkpt>
      <trkpt lat="60.03665" lon="18.742">
        <ele>20.039963</ele>
        <time>2020-08-30T09:28:53.520Z</time>
      </trkpt>
      <trkpt lat="60.03648" lon="18.74255">
        <ele>20.705105</ele>
        <time>2020-08-30T09:29:02.035Z</time>
      </trkpt>
      <trkpt lat="60.03594" lon="18.74368">
        <ele>22.16952</ele>
        <time>2020-08-30T09:29:23.025Z</time>
      </trkpt>
      <trkpt lat="60.03563" lon="18.74449">
        <ele>22.78448</ele>
        <time>2020-08-30T09:29:35.550Z</time>
      </trkpt>
      <trkpt lat="60.03544" lon="18.74523">
        <ele>23.291798</ele>
        <time>2020-08-30T09:29:45.141Z</time>
      </trkpt>
      <trkpt lat="60.0347" lon="18.7495">
        <ele>23.501483</ele>
        <time>2020-08-30T09:30:24.170Z</time>
      </trkpt>
      <trkpt lat="60.03452" lon="18.7501">
        <ele>23.255413</ele>
        <time>2020-08-30T09:30:29.404Z</time>
      </trkpt>
      <trkpt lat="60.03397" lon="18.75098">
        <ele>22.254112</ele>
        <time>2020-08-30T09:30:39.810Z</time>
      </trkpt>
      <trkpt lat="60.03337" lon="18.75243">
        <ele>20.918897</ele>
        <time>2020-08-30T09:30:53.445Z</time>
      </trkpt>
      <trkpt lat="60.03271" lon="18.75429">
        <ele>19.243838</ele>
        <time>2020-08-30T09:31:10.310Z</time>
      </trkpt>
      <trkpt lat="60.03254" lon="18.7549">
        <ele>18.73368</ele>
        <time>2020-08-30T09:31:15.433Z</time>
      </trkpt>
      <trkpt lat="60.03224" lon="18.7564">
        <ele>17.909603</ele>
        <time>2020-08-30T09:31:27.521Z</time>
      </trkpt>
      <trkpt lat="60.03208" lon="18.75688">
        <ele>17.717331</ele>
        <time>2020-08-30T09:31:32.089Z</time>
      </trkpt>
      <trkpt lat="60.03161" lon="18.75777">
        <ele>17.296115</ele>
        <time>2020-08-30T09:31:42.575Z</time>
      </trkpt>
      <trkpt lat="60.03141" lon="18.75826">
        <ele>17.089019</ele>
        <time>2020-08-30T09:31:48.062Z</time>
      </trkpt>
      <trkpt lat="60.03106" lon="18.75923">
        <ele>17.321618</ele>
        <time>2020-08-30T09:31:59.112Z</time>
      </trkpt>
      <trkpt lat="60.02949" lon="18.76295">
        <ele>18.957475</ele>
        <time>2020-08-30T09:32:49.269Z</time>
      </trkpt>
      <trkpt lat="60.02925" lon="18.76415">
        <ele>19.434324</ele>
        <time>2020-08-30T09:33:02.094Z</time>
      </trkpt>
      <trkpt lat="60.02907" lon="18.76436">
        <ele>19.487165</ele>
        <time>2020-08-30T09:33:06.103Z</time>
      </trkpt>
      <trkpt lat="60.02854" lon="18.76523">
        <ele>19.61619</ele>
        <time>2020-08-30T09:33:18.958Z</time>
      </trkpt>
      <trkpt lat="60.02818" lon="18.76587">
        <ele>19.707579</ele>
        <time>2020-08-30T09:33:27.791Z</time>
      </trkpt>
      <trkpt lat="60.02804" lon="18.76625">
        <ele>19.752468</ele>
        <time>2020-08-30T09:33:32.024Z</time>
      </trkpt>
      <trkpt lat="60.02771" lon="18.7676">
        <ele>19.536576</ele>
        <time>2020-08-30T09:33:44.808Z</time>
      </trkpt>
      <trkpt lat="60.02749" lon="18.76793">
        <ele>19.404209</ele>
        <time>2020-08-30T09:33:49.434Z</time>
      </trkpt>
      <trkpt lat="60.02707" lon="18.76813">
        <ele>19.195997</ele>
        <time>2020-08-30T09:33:56.634Z</time>
      </trkpt>
      <trkpt lat="60.02682" lon="18.76825">
        <ele>19.074162</ele>
        <time>2020-08-30T09:34:00.761Z</time>
      </trkpt>
      <trkpt lat="60.02628" lon="18.769">
        <ele>18.68689</ele>
        <time>2020-08-30T09:34:11.212Z</time>
      </trkpt>
      <trkpt lat="60.02558" lon="18.7696">
        <ele>18.172188</ele>
        <time>2020-08-30T09:34:22.787Z</time>
      </trkpt>
      <trkpt lat="60.02516" lon="18.77046">
        <ele>17.76509</ele>
        <time>2020-08-30T09:34:32.604Z</time>
      </trkpt>
      <trkpt lat="60.02506" lon="18.77067">
        <ele>17.790914</ele>
        <time>2020-08-30T09:34:35.188Z</time>
      </trkpt>
      <trkpt lat="60.02483" lon="18.77097">
        <ele>18.089744</ele>
        <time>2020-08-30T09:34:40.318Z</time>
      </trkpt>
      <trkpt lat="60.02471" lon="18.77107">
        <ele>18.232876</ele>
        <time>2020-08-30T09:34:42.939Z</time>
      </trkpt>
      <trkpt lat="60.02458" lon="18.77113">
        <ele>18.378772</ele>
        <time>2020-08-30T09:34:45.688Z</time>
      </trkpt>
      <trkpt lat="60.02409" lon="18.77117">
        <ele>18.915801</ele>
        <time>2020-08-30T09:34:56.118Z</time>
      </trkpt>
      <trkpt lat="60.02304" lon="18.77138">
        <ele>20.42902</ele>
        <time>2020-08-30T09:35:21.162Z</time>
      </trkpt>
      <trkpt lat="60.02262" lon="18.77172">
        <ele>21.39345</ele>
        <time>2020-08-30T09:35:32.869Z</time>
      </trkpt>
      <trkpt lat="60.02157" lon="18.77311">
        <ele>23.748506</ele>
        <time>2020-08-30T09:36:04.473Z</time>
      </trkpt>
      <trkpt lat="60.02095" lon="18.77413">
        <ele>24.493496</ele>
        <time>2020-08-30T09:36:21.836Z</time>
      </trkpt>
      <trkpt lat="60.02069" lon="18.77462">
        <ele>24.828665</ele>
        <time>2020-08-30T09:36:29.056Z</time>
      </trkpt>
      <trkpt lat="60.02046" lon="18.77515">
        <ele>25.155848</ele>
        <time>2020-08-30T09:36:35.767Z</time>
      </trkpt>
      <trkpt lat="60.01974" lon="18.77848">
        <ele>22.641076</ele>
        <time>2020-08-30T09:37:02.932Z</time>
      </trkpt>
      <trkpt lat="60.01824" lon="18.78076">
        <ele>16.150012</ele>
        <time>2020-08-30T09:37:26.885Z</time>
      </trkpt>
      <trkpt lat="60.01735" lon="18.78184">
        <ele>12.865233</ele>
        <time>2020-08-30T09:37:40.138Z</time>
      </trkpt>
      <trkpt lat="60.01715" lon="18.78198">
        <ele>12.203418</ele>
        <time>2020-08-30T09:37:42.787Z</time>
      </trkpt>
      <trkpt lat="60.01692" lon="18.78211">
        <ele>11.450677</ele>
        <time>2020-08-30T09:37:46.018Z</time>
      </trkpt>
      <trkpt lat="60.01688" lon="18.78213">
        <ele>11.303428</ele>
        <time>2020-08-30T09:37:46.665Z</time>
      </trkpt>
      <trkpt lat="60.0165" lon="18.78233">
        <ele>10.70032</ele>
        <time>2020-08-30T09:37:52.158Z</time>
      </trkpt>
      <trkpt lat="60.01558" lon="18.78283">
        <ele>10.664742</ele>
        <time>2020-08-30T09:38:08.180Z</time>
      </trkpt>
      <trkpt lat="60.01535" lon="18.78288">
        <ele>10.656189</ele>
        <time>2020-08-30T09:38:13.827Z</time>
      </trkpt>
      <trkpt lat="60.01487" lon="18.78276">
        <ele>10.742967</ele>
        <time>2020-08-30T09:38:24.345Z</time>
      </trkpt>
      <trkpt lat="60.01441" lon="18.78281">
        <ele>11.423309</ele>
        <time>2020-08-30T09:38:34.552Z</time>
      </trkpt>
      <trkpt lat="60.01424" lon="18.78287">
        <ele>11.693417</ele>
        <time>2020-08-30T09:38:39.083Z</time>
      </trkpt>
      <trkpt lat="60.01381" lon="18.78323">
        <ele>12.382859</ele>
        <time>2020-08-30T09:38:49.935Z</time>
      </trkpt>
      <trkpt lat="60.01328" lon="18.78373">
        <ele>13.253014</ele>
        <time>2020-08-30T09:39:03.232Z</time>
      </trkpt>
      <trkpt lat="60.01301" lon="18.78387">
        <ele>13.561176</ele>
        <time>2020-08-30T09:39:09.110Z</time>
      </trkpt>
      <trkpt lat="60.01226" lon="18.78411">
        <ele>14.379384</ele>
        <time>2020-08-30T09:39:24.643Z</time>
      </trkpt>
      <trkpt lat="60.01152" lon="18.78453">
        <ele>15.202055</ele>
        <time>2020-08-30T09:39:40.559Z</time>
      </trkpt>
      <trkpt lat="60.01116" lon="18.78473">
        <ele>16.118155</ele>
        <time>2020-08-30T09:39:48.800Z</time>
      </trkpt>
      <trkpt lat="60.01008" lon="18.78521">
        <ele>18.970628</ele>
        <time>2020-08-30T09:40:17.389Z</time>
      </trkpt>
      <trkpt lat="60.00978" lon="18.78523">
        <ele>19.735033</ele>
        <time>2020-08-30T09:40:26.135Z</time>
      </trkpt>
      <trkpt lat="60.00876" lon="18.78449">
        <ele>24.030645</ele>
        <time>2020-08-30T09:41:01.005Z</time>
      </trkpt>
      <trkpt lat="60.0076" lon="18.78411">
        <ele>27.727184</ele>
        <time>2020-08-30T09:41:36.689Z</time>
      </trkpt>
      <trkpt lat="60.00734" lon="18.78425">
        <ele>28.156745</ele>
        <time>2020-08-30T09:41:43.854Z</time>
      </trkpt>
      <trkpt lat="60.0071" lon="18.78453">
        <ele>28.58281</ele>
        <time>2020-08-30T09:41:50.408Z</time>
      </trkpt>
      <trkpt lat="60.0066" lon="18.7855">
        <ele>29.667094</ele>
        <time>2020-08-30T09:42:04.284Z</time>
      </trkpt>
      <trkpt lat="60.00626" lon="18.78597">
        <ele>29.385024</ele>
        <time>2020-08-30T09:42:10.429Z</time>
      </trkpt>
      <trkpt lat="60.00612" lon="18.78606">
        <ele>29.103712</ele>
        <time>2020-08-30T09:42:12.489Z</time>
      </trkpt>
      <trkpt lat="60.00578" lon="18.786">
        <ele>28.45385</ele>
        <time>2020-08-30T09:42:17.272Z</time>
      </trkpt>
      <trkpt lat="60.00555" lon="18.78606">
        <ele>28.004838</ele>
        <time>2020-08-30T09:42:20.552Z</time>
      </trkpt>
      <trkpt lat="60.0053" lon="18.7863">
        <ele>27.474709</ele>
        <time>2020-08-30T09:42:24.358Z</time>
      </trkpt>
      <trkpt lat="60.00511" lon="18.78664">
        <ele>26.988645</ele>
        <time>2020-08-30T09:42:27.757Z</time>
      </trkpt>
      <trkpt lat="60.00481" lon="18.78761">
        <ele>26.078012</ele>
        <time>2020-08-30T09:42:35.590Z</time>
      </trkpt>
      <trkpt lat="60.0044" lon="18.78798">
        <ele>25.490828</ele>
        <time>2020-08-30T09:42:41.921Z</time>
      </trkpt>
      <trkpt lat="60.00396" lon="18.788">
        <ele>24.920167</ele>
        <time>2020-08-30T09:42:48.408Z</time>
      </trkpt>
      <trkpt lat="60.00341" lon="18.78793">
        <ele>24.210453</ele>
        <time>2020-08-30T09:42:57.668Z</time>
      </trkpt>
      <trkpt lat="60.00202" lon="18.78781">
        <ele>24.774392</ele>
        <time>2020-08-30T09:43:24.656Z</time>
      </trkpt>
      <trkpt lat="60.00126" lon="18.78718">
        <ele>25.283423</ele>
        <time>2020-08-30T09:43:41.788Z</time>
      </trkpt>
      <trkpt lat="60.0007" lon="18.78704">
        <ele>25.724481</ele>
        <time>2020-08-30T09:43:53.003Z</time>
      </trkpt>
      <trkpt lat="60.00052" lon="18.78689">
        <ele>25.872359</ele>
        <time>2020-08-30T09:43:56.985Z</time>
      </trkpt>
      <trkpt lat="59.99996" lon="18.78584">
        <ele>26.47774</ele>
        <time>2020-08-30T09:44:12.554Z</time>
      </trkpt>
      <trkpt lat="59.9999" lon="18.7858">
        <ele>26.532536</ele>
        <time>2020-08-30T09:44:13.808Z</time>
      </trkpt>
      <trkpt lat="59.9994" lon="18.78552">
        <ele>26.948187</ele>
        <time>2020-08-30T09:44:24.463Z</time>
      </trkpt>
      <trkpt lat="59.99893" lon="18.78486">
        <ele>27.418313</ele>
        <time>2020-08-30T09:44:36.148Z</time>
      </trkpt>
      <trkpt lat="59.99868" lon="18.7847">
        <ele>27.63269</ele>
        <time>2020-08-30T09:44:41.630Z</time>
      </trkpt>
      <trkpt lat="59.99854" lon="18.7847">
        <ele>27.744583</ele>
        <time>2020-08-30T09:44:44.539Z</time>
      </trkpt>
      <trkpt lat="59.99841" lon="18.78473">
        <ele>27.852602</ele>
        <time>2020-08-30T09:44:47.277Z</time>
      </trkpt>
      <trkpt lat="59.99828" lon="18.78478">
        <ele>27.888339</ele>
        <time>2020-08-30T09:44:50.026Z</time>
      </trkpt>
      <trkpt lat="59.99802" lon="18.78486">
        <ele>27.92502</ele>
        <time>2020-08-30T09:44:55.335Z</time>
      </trkpt>
      <trkpt lat="59.99777" lon="18.785">
        <ele>27.962535</ele>
        <time>2020-08-30T09:45:00.630Z</time>
      </trkpt>
      <trkpt lat="59.99762" lon="18.78514">
        <ele>27.986653</ele>
        <time>2020-08-30T09:45:03.594Z</time>
      </trkpt>
      <trkpt lat="59.9975" lon="18.78518">
        <ele>28.003389</ele>
        <time>2020-08-30T09:45:06.212Z</time>
      </trkpt>
      <trkpt lat="59.99684" lon="18.78493">
        <ele>28.100631</ele>
        <time>2020-08-30T09:45:18.040Z</time>
      </trkpt>
      <trkpt lat="59.99657" lon="18.78492">
        <ele>28.041827</ele>
        <time>2020-08-30T09:45:22.056Z</time>
      </trkpt>
      <trkpt lat="59.99645" lon="18.78498">
        <ele>27.835315</ele>
        <time>2020-08-30T09:45:24.432Z</time>
      </trkpt>
      <trkpt lat="59.99631" lon="18.78513">
        <ele>27.57971</ele>
        <time>2020-08-30T09:45:26.639Z</time>
      </trkpt>
      <trkpt lat="59.99606" lon="18.78561">
        <ele>27.011668</ele>
        <time>2020-08-30T09:45:31.919Z</time>
      </trkpt>
      <trkpt lat="59.99575" lon="18.78667">
        <ele>26.009903</ele>
        <time>2020-08-30T09:45:40.960Z</time>
      </trkpt>
      <trkpt lat="59.99562" lon="18.78695">
        <ele>25.699923</ele>
        <time>2020-08-30T09:45:43.488Z</time>
      </trkpt>
      <trkpt lat="59.99539" lon="18.78726">
        <ele>25.247168</ele>
        <time>2020-08-30T09:45:47.278Z</time>
      </trkpt>
      <trkpt lat="59.99524" lon="18.78744">
        <ele>24.802588</ele>
        <time>2020-08-30T09:45:49.734Z</time>
      </trkpt>
      <trkpt lat="59.99509" lon="18.78759">
        <ele>24.367146</ele>
        <time>2020-08-30T09:45:51.926Z</time>
      </trkpt>
      <trkpt lat="59.99492" lon="18.78775">
        <ele>23.845597</ele>
        <time>2020-08-30T09:45:54.518Z</time>
      </trkpt>
      <trkpt lat="59.99477" lon="18.78786">
        <ele>23.423759</ele>
        <time>2020-08-30T09:45:56.594Z</time>
      </trkpt>
      <trkpt lat="59.99404" lon="18.7882">
        <ele>21.398253</ele>
        <time>2020-08-30T09:46:06.465Z</time>
      </trkpt>
      <trkpt lat="59.99378" lon="18.78846">
        <ele>20.60268</ele>
        <time>2020-08-30T09:46:10.414Z</time>
      </trkpt>
      <trkpt lat="59.99322" lon="18.78884">
        <ele>19.574768</ele>
        <time>2020-08-30T09:46:18.476Z</time>
      </trkpt>
      <trkpt lat="59.99284" lon="18.78909">
        <ele>18.960849</ele>
        <time>2020-08-30T09:46:24.128Z</time>
      </trkpt>
      <trkpt lat="59.9924" lon="18.78921">
        <ele>18.290057</ele>
        <time>2020-08-30T09:46:30.634Z</time>
      </trkpt>
      <trkpt lat="59.99205" lon="18.78904">
        <ele>17.740536</ele>
        <time>2020-08-30T09:46:36.159Z</time>
      </trkpt>
      <trkpt lat="59.98998" lon="18.78762">
        <ele>19.217178</ele>
        <time>2020-08-30T09:47:20.034Z</time>
      </trkpt>
      <trkpt lat="59.98931" lon="18.78704">
        <ele>20.659664</ele>
        <time>2020-08-30T09:47:37.996Z</time>
      </trkpt>
      <trkpt lat="59.98914" lon="18.78693">
        <ele>21.007686</ele>
        <time>2020-08-30T09:47:42.668Z</time>
      </trkpt>
      <trkpt lat="59.98889" lon="18.78678">
        <ele>21.535846</ele>
        <time>2020-08-30T09:47:49.586Z</time>
      </trkpt>
      <trkpt lat="59.98875" lon="18.78671">
        <ele>21.823636</ele>
        <time>2020-08-30T09:47:53.465Z</time>
      </trkpt>
      <trkpt lat="59.98816" lon="18.78646">
        <ele>22.816298</ele>
        <time>2020-08-30T09:48:09.217Z</time>
      </trkpt>
      <trkpt lat="59.98794" lon="18.78633">
        <ele>23.154946</ele>
        <time>2020-08-30T09:48:14.641Z</time>
      </trkpt>
      <trkpt lat="59.98746" lon="18.78601">
        <ele>23.899775</ele>
        <time>2020-08-30T09:48:26.558Z</time>
      </trkpt>
      <trkpt lat="59.98727" lon="18.78595">
        <ele>24.184784</ele>
        <time>2020-08-30T09:48:30.403Z</time>
      </trkpt>
      <trkpt lat="59.98713" lon="18.78601">
        <ele>24.38705</ele>
        <time>2020-08-30T09:48:33.236Z</time>
      </trkpt>
      <trkpt lat="59.98711" lon="18.78604">
        <ele>24.425926</ele>
        <time>2020-08-30T09:48:34.077Z</time>
      </trkpt>
      <trkpt lat="59.98705" lon="18.78611">
        <ele>24.524956</ele>
        <time>2020-08-30T09:48:35.127Z</time>
      </trkpt>
      <trkpt lat="59.98695" lon="18.78641">
        <ele>24.796249</ele>
        <time>2020-08-30T09:48:38.749Z</time>
      </trkpt>
      <trkpt lat="59.98675" lon="18.78749">
        <ele>24.647413</ele>
        <time>2020-08-30T09:48:48.628Z</time>
      </trkpt>
      <trkpt lat="59.9866" lon="18.78789">
        <ele>24.542269</ele>
        <time>2020-08-30T09:48:52.902Z</time>
      </trkpt>
      <trkpt lat="59.98603" lon="18.78892">
        <ele>24.219173</ele>
        <time>2020-08-30T09:49:04.929Z</time>
      </trkpt>
      <trkpt lat="59.98594" lon="18.78931">
        <ele>24.127217</ele>
        <time>2020-08-30T09:49:08.388Z</time>
      </trkpt>
      <trkpt lat="59.98593" lon="18.78938">
        <ele>24.112514</ele>
        <time>2020-08-30T09:49:08.994Z</time>
      </trkpt>
      <trkpt lat="59.98586" lon="18.7899">
        <ele>24.059897</ele>
        <time>2020-08-30T09:49:13.429Z</time>
      </trkpt>
      <trkpt lat="59.98579" lon="18.79047">
        <ele>24.003271</ele>
        <time>2020-08-30T09:49:18.347Z</time>
      </trkpt>
      <trkpt lat="59.98582" lon="18.79132">
        <ele>23.919927</ele>
        <time>2020-08-30T09:49:25.728Z</time>
      </trkpt>
      <trkpt lat="59.98582" lon="18.7919">
        <ele>23.864361</ele>
        <time>2020-08-30T09:49:30.807Z</time>
      </trkpt>
      <trkpt lat="59.98551" lon="18.79484">
        <ele>23.815992</ele>
        <time>2020-08-30T09:49:58.864Z</time>
      </trkpt>
      <trkpt lat="59.98543" lon="18.79543">
        <ele>23.832598</ele>
        <time>2020-08-30T09:50:04.516Z</time>
      </trkpt>
      <trkpt lat="59.98528" lon="18.79587">
        <ele>23.847097</ele>
        <time>2020-08-30T09:50:09.385Z</time>
      </trkpt>
      <trkpt lat="59.9851" lon="18.79611">
        <ele>23.858568</ele>
        <time>2020-08-30T09:50:13.000Z</time>
      </trkpt>
      <trkpt lat="59.98488" lon="18.79638">
        <ele>23.613085</ele>
        <time>2020-08-30T09:50:17.251Z</time>
      </trkpt>
      <trkpt lat="59.9843" lon="18.79776">
        <ele>22.633531</ele>
        <time>2020-08-30T09:50:31.346Z</time>
      </trkpt>
      <trkpt lat="59.98413" lon="18.79805">
        <ele>22.393824</ele>
        <time>2020-08-30T09:50:34.816Z</time>
      </trkpt>
      <trkpt lat="59.98397" lon="18.79825">
        <ele>22.191999</ele>
        <time>2020-08-30T09:50:37.410Z</time>
      </trkpt>
      <trkpt lat="59.98316" lon="18.79901">
        <ele>20.585716</ele>
        <time>2020-08-30T09:50:50.363Z</time>
      </trkpt>
      <trkpt lat="59.98313" lon="18.79904">
        <ele>20.51407</ele>
        <time>2020-08-30T09:50:50.769Z</time>
      </trkpt>
      <trkpt lat="59.98295" lon="18.79927">
        <ele>20.083058</ele>
        <time>2020-08-30T09:50:53.609Z</time>
      </trkpt>
      <trkpt lat="59.98263" lon="18.80007">
        <ele>19.017617</ele>
        <time>2020-08-30T09:51:00.664Z</time>
      </trkpt>
      <trkpt lat="59.98251" lon="18.80034">
        <ele>18.648716</ele>
        <time>2020-08-30T09:51:03.217Z</time>
      </trkpt>
      <trkpt lat="59.9824" lon="18.80079">
        <ele>18.174427</ele>
        <time>2020-08-30T09:51:06.756Z</time>
      </trkpt>
      <trkpt lat="59.9822" lon="18.80153">
        <ele>17.859334</ele>
        <time>2020-08-30T09:51:12.792Z</time>
      </trkpt>
      <trkpt lat="59.98213" lon="18.80178">
        <ele>17.753642</ele>
        <time>2020-08-30T09:51:14.878Z</time>
      </trkpt>
      <trkpt lat="59.98195" lon="18.80232">
        <ele>17.512369</ele>
        <time>2020-08-30T09:51:19.956Z</time>
      </trkpt>
      <trkpt lat="59.9818" lon="18.80249">
        <ele>17.382289</ele>
        <time>2020-08-30T09:51:22.806Z</time>
      </trkpt>
      <trkpt lat="59.98121" lon="18.80286">
        <ele>16.918595</ele>
        <time>2020-08-30T09:51:33.548Z</time>
      </trkpt>
      <trkpt lat="59.98081" lon="18.80307">
        <ele>17.258062</ele>
        <time>2020-08-30T09:51:41.743Z</time>
      </trkpt>
      <trkpt lat="59.97991" lon="18.80368">
        <ele>18.434668</ele>
        <time>2020-08-30T09:52:03.051Z</time>
      </trkpt>
      <trkpt lat="59.97887" lon="18.8044">
        <ele>19.620078</ele>
        <time>2020-08-30T09:52:28.721Z</time>
      </trkpt>
      <trkpt lat="59.97782" lon="18.80563">
        <ele>20.752948</ele>
        <time>2020-08-30T09:52:53.025Z</time>
      </trkpt>
      <trkpt lat="59.97749" lon="18.80592">
        <ele>20.807596</ele>
        <time>2020-08-30T09:52:59.380Z</time>
      </trkpt>
      <trkpt lat="59.97711" lon="18.8061">
        <ele>20.86519</ele>
        <time>2020-08-30T09:53:06.502Z</time>
      </trkpt>
      <trkpt lat="59.97692" lon="18.80619">
        <ele>20.893961</ele>
        <time>2020-08-30T09:53:10.110Z</time>
      </trkpt>
      <trkpt lat="59.97685" lon="18.80624">
        <ele>20.904597</ele>
        <time>2020-08-30T09:53:11.645Z</time>
      </trkpt>
      <trkpt lat="59.97666" lon="18.8064">
        <ele>20.934064</ele>
        <time>2020-08-30T09:53:15.181Z</time>
      </trkpt>
      <trkpt lat="59.97644" lon="18.80665">
        <ele>20.971772</ele>
        <time>2020-08-30T09:53:20.129Z</time>
      </trkpt>
      <trkpt lat="59.97628" lon="18.80685">
        <ele>20.999658</ele>
        <time>2020-08-30T09:53:23.537Z</time>
      </trkpt>
      <trkpt lat="59.97608" lon="18.8071">
        <ele>21.046918</ele>
        <time>2020-08-30T09:53:27.358Z</time>
      </trkpt>
      <trkpt lat="59.97587" lon="18.80721">
        <ele>21.109528</ele>
        <time>2020-08-30T09:53:31.421Z</time>
      </trkpt>
      <trkpt lat="59.97565" lon="18.80729">
        <ele>21.171936</ele>
        <time>2020-08-30T09:53:34.984Z</time>
      </trkpt>
      <trkpt lat="59.97557" lon="18.80732">
        <ele>21.195756</ele>
        <time>2020-08-30T09:53:36.775Z</time>
      </trkpt>
      <trkpt lat="59.97547" lon="18.80736">
        <ele>21.223597</ele>
        <time>2020-08-30T09:53:38.372Z</time>
      </trkpt>
      <trkpt lat="59.97488" lon="18.80739">
        <ele>21.39189</ele>
        <time>2020-08-30T09:53:49.569Z</time>
      </trkpt>
      <trkpt lat="59.97481" lon="18.80741">
        <ele>21.410162</ele>
        <time>2020-08-30T09:53:50.954Z</time>
      </trkpt>
      <trkpt lat="59.97474" lon="18.80743">
        <ele>21.429593</ele>
        <time>2020-08-30T09:53:52.059Z</time>
      </trkpt>
      <trkpt lat="59.97439" lon="18.80769">
        <ele>21.551964</ele>
        <time>2020-08-30T09:54:00.013Z</time>
      </trkpt>
      <trkpt lat="59.97437" lon="18.8077">
        <ele>21.569734</ele>
        <time>2020-08-30T09:54:00.469Z</time>
      </trkpt>
      <trkpt lat="59.9742" lon="18.8078">
        <ele>21.707</ele>
        <time>2020-08-30T09:54:04.275Z</time>
      </trkpt>
      <trkpt lat="59.97382" lon="18.80797">
        <ele>22.011653</ele>
        <time>2020-08-30T09:54:12.166Z</time>
      </trkpt>
      <trkpt lat="59.97335" lon="18.808">
        <ele>22.369678</ele>
        <time>2020-08-30T09:54:21.028Z</time>
      </trkpt>
      <trkpt lat="59.97298" lon="18.80801">
        <ele>22.655505</ele>
        <time>2020-08-30T09:54:28.513Z</time>
      </trkpt>
      <trkpt lat="59.97272" lon="18.80804">
        <ele>22.863465</ele>
        <time>2020-08-30T09:54:34.211Z</time>
      </trkpt>
      <trkpt lat="59.97176" lon="18.80806">
        <ele>23.896814</ele>
        <time>2020-08-30T09:54:54.687Z</time>
      </trkpt>
      <trkpt lat="59.97144" lon="18.808">
        <ele>24.248264</ele>
        <time>2020-08-30T09:55:01.505Z</time>
      </trkpt>
      <trkpt lat="59.97103" lon="18.80797">
        <ele>24.702731</ele>
        <time>2020-08-30T09:55:10.224Z</time>
      </trkpt>
      <trkpt lat="59.97094" lon="18.80799">
        <ele>24.800783</ele>
        <time>2020-08-30T09:55:12.106Z</time>
      </trkpt>
      <trkpt lat="59.97086" lon="18.80813">
        <ele>24.92071</ele>
        <time>2020-08-30T09:55:14.382Z</time>
      </trkpt>
      <trkpt lat="59.9708" lon="18.8082">
        <ele>25.020235</ele>
        <time>2020-08-30T09:55:15.822Z</time>
      </trkpt>
      <trkpt lat="59.97027" lon="18.80784">
        <ele>25.839425</ele>
        <time>2020-08-30T09:55:28.326Z</time>
      </trkpt>
      <trkpt lat="59.96991" lon="18.80757">
        <ele>26.388786</ele>
        <time>2020-08-30T09:55:36.894Z</time>
      </trkpt>
      <trkpt lat="59.96975" lon="18.80745">
        <ele>26.633591</ele>
        <time>2020-08-30T09:55:40.774Z</time>
      </trkpt>
      <trkpt lat="59.96928" lon="18.8072">
        <ele>27.339917</ele>
        <time>2020-08-30T09:55:52.129Z</time>
      </trkpt>
      <trkpt lat="59.96881" lon="18.80697">
        <ele>27.893944</ele>
        <time>2020-08-30T09:56:03.550Z</time>
      </trkpt>
      <trkpt lat="59.96859" lon="18.80686">
        <ele>28.128482</ele>
        <time>2020-08-30T09:56:08.599Z</time>
      </trkpt>
      <trkpt lat="59.96849" lon="18.80681">
        <ele>28.238064</ele>
        <time>2020-08-30T09:56:10.882Z</time>
      </trkpt>
      <trkpt lat="59.96754" lon="18.80635">
        <ele>29.251418</ele>
        <time>2020-08-30T09:56:30.792Z</time>
      </trkpt>
      <trkpt lat="59.96725" lon="18.80621">
        <ele>29.334837</ele>
        <time>2020-08-30T09:56:36.422Z</time>
      </trkpt>
      <trkpt lat="59.96683" lon="18.80599">
        <ele>29.230076</ele>
        <time>2020-08-30T09:56:44.602Z</time>
      </trkpt>
      <trkpt lat="59.96664" lon="18.8059">
        <ele>29.182456</ele>
        <time>2020-08-30T09:56:47.890Z</time>
      </trkpt>
      <trkpt lat="59.9666" lon="18.80587">
        <ele>29.171305</ele>
        <time>2020-08-30T09:56:48.722Z</time>
      </trkpt>
      <trkpt lat="59.96619" lon="18.80564">
        <ele>29.069429</ele>
        <time>2020-08-30T09:56:55.809Z</time>
      </trkpt>
      <trkpt lat="59.96602" lon="18.8055">
        <ele>29.023946</ele>
        <time>2020-08-30T09:56:58.761Z</time>
      </trkpt>
      <trkpt lat="59.96575" lon="18.80528">
        <ele>28.954425</ele>
        <time>2020-08-30T09:57:03.320Z</time>
      </trkpt>
      <trkpt lat="59.96551" lon="18.80502">
        <ele>28.647256</ele>
        <time>2020-08-30T09:57:07.675Z</time>
      </trkpt>
      <trkpt lat="59.96539" lon="18.80526">
        <ele>28.429124</ele>
        <time>2020-08-30T09:57:10.254Z</time>
      </trkpt>
      <trkpt lat="59.96469" lon="18.80607">
        <ele>27.373518</ele>
        <time>2020-08-30T09:57:22.947Z</time>
      </trkpt>
      <trkpt lat="59.96432" lon="18.80635">
        <ele>26.867768</ele>
        <time>2020-08-30T09:57:28.897Z</time>
      </trkpt>
      <trkpt lat="59.96381" lon="18.80681">
        <ele>26.349017</ele>
        <time>2020-08-30T09:57:37.548Z</time>
      </trkpt>
      <trkpt lat="59.96351" lon="18.80718">
        <ele>26.09959</ele>
        <time>2020-08-30T09:57:43.141Z</time>
      </trkpt>
      <trkpt lat="59.96349" lon="18.80747">
        <ele>25.997579</ele>
        <time>2020-08-30T09:57:45.472Z</time>
      </trkpt>
      <trkpt lat="59.96356" lon="18.80783">
        <ele>25.860577</ele>
        <time>2020-08-30T09:57:48.632Z</time>
      </trkpt>
      <trkpt lat="59.96356" lon="18.80809">
        <ele>25.76946</ele>
        <time>2020-08-30T09:57:50.777Z</time>
      </trkpt>
      <trkpt lat="59.96324" lon="18.80905">
        <ele>25.362968</ele>
        <time>2020-08-30T09:58:00.980Z</time>
      </trkpt>
      <trkpt lat="59.96305" lon="18.81008">
        <ele>25.867724</ele>
        <time>2020-08-30T09:58:12.623Z</time>
      </trkpt>
      <trkpt lat="59.96251" lon="18.81199">
        <ele>27.050216</ele>
        <time>2020-08-30T09:58:37.859Z</time>
      </trkpt>
      <trkpt lat="59.96225" lon="18.81237">
        <ele>27.416109</ele>
        <time>2020-08-30T09:58:45.456Z</time>
      </trkpt>
      <trkpt lat="59.96215" lon="18.8124">
        <ele>27.54111</ele>
        <time>2020-08-30T09:58:47.852Z</time>
      </trkpt>
      <trkpt lat="59.96205" lon="18.81227">
        <ele>27.674232</ele>
        <time>2020-08-30T09:58:50.412Z</time>
      </trkpt>
      <trkpt lat="59.96181" lon="18.81179">
        <ele>28.083894</ele>
        <time>2020-08-30T09:58:58.245Z</time>
      </trkpt>
      <trkpt lat="59.9616" lon="18.8115">
        <ele>28.396528</ele>
        <time>2020-08-30T09:59:04.172Z</time>
      </trkpt>
      <trkpt lat="59.96128" lon="18.81153">
        <ele>28.779251</ele>
        <time>2020-08-30T09:59:11.349Z</time>
      </trkpt>
      <trkpt lat="59.96107" lon="18.81129">
        <ele>29.066022</ele>
        <time>2020-08-30T09:59:16.749Z</time>
      </trkpt>
      <trkpt lat="59.96092" lon="18.81084">
        <ele>29.390639</ele>
        <time>2020-08-30T09:59:22.380Z</time>
      </trkpt>
      <trkpt lat="59.96094" lon="18.81026">
        <ele>29.651146</ele>
        <time>2020-08-30T09:59:28.329Z</time>
      </trkpt>
      <trkpt lat="59.96086" lon="18.80991">
        <ele>29.81252</ele>
        <time>2020-08-30T09:59:32.245Z</time>
      </trkpt>
      <trkpt lat="59.96071" lon="18.80981">
        <ele>29.948212</ele>
        <time>2020-08-30T09:59:35.581Z</time>
      </trkpt>
      <trkpt lat="59.96012" lon="18.81004">
        <ele>30.461795</ele>
        <time>2020-08-30T09:59:48.446Z</time>
      </trkpt>
      <trkpt lat="59.95979" lon="18.80993">
        <ele>30.744778</ele>
        <time>2020-08-30T09:59:55.619Z</time>
      </trkpt>
      <trkpt lat="59.95962" lon="18.80998">
        <ele>30.893597</ele>
        <time>2020-08-30T09:59:59.386Z</time>
      </trkpt>
      <trkpt lat="59.95896" lon="18.81073">
        <ele>31.583782</ele>
        <time>2020-08-30T10:00:15.871Z</time>
      </trkpt>
      <trkpt lat="59.95855" lon="18.81068">
        <ele>31.962139</ele>
        <time>2020-08-30T10:00:24.801Z</time>
      </trkpt>
      <trkpt lat="59.95811" lon="18.81006">
        <ele>32.452437</ele>
        <time>2020-08-30T10:00:36.247Z</time>
      </trkpt>
      <trkpt lat="59.95782" lon="18.80999">
        <ele>32.710852</ele>
        <time>2020-08-30T10:00:42.482Z</time>
      </trkpt>
      <trkpt lat="59.95729" lon="18.81039">
        <ele>33.174722</ele>
        <time>2020-08-30T10:00:54.314Z</time>
      </trkpt>
      <trkpt lat="59.95708" lon="18.81039">
        <ele>33.349518</ele>
        <time>2020-08-30T10:00:58.761Z</time>
      </trkpt>
      <trkpt lat="59.95678" lon="18.81023">
        <ele>33.611014</ele>
        <time>2020-08-30T10:01:05.538Z</time>
      </trkpt>
      <trkpt lat="59.95654" lon="18.80994">
        <ele>33.84094</ele>
        <time>2020-08-30T10:01:11.504Z</time>
      </trkpt>
      <trkpt lat="59.95628" lon="18.80925">
        <ele>34.170552</ele>
        <time>2020-08-30T10:01:20.652Z</time>
      </trkpt>
      <trkpt lat="59.95601" lon="18.8088">
        <ele>34.377407</ele>
        <time>2020-08-30T10:01:27.963Z</time>
      </trkpt>
      <trkpt lat="59.95572" lon="18.80861">
        <ele>34.557663</ele>
        <time>2020-08-30T10:01:34.278Z</time>
      </trkpt>
      <trkpt lat="59.95555" lon="18.8085">
        <ele>34.664847</ele>
        <time>2020-08-30T10:01:38.046Z</time>
      </trkpt>
      <trkpt lat="59.95527" lon="18.80815">
        <ele>34.855931</ele>
        <time>2020-08-30T10:01:44.659Z</time>
      </trkpt>
      <trkpt lat="59.95498" lon="18.80809">
        <ele>35.029228</ele>
        <time>2020-08-30T10:01:50.547Z</time>
      </trkpt>
      <trkpt lat="59.95382" lon="18.80882">
        <ele>35.5224</ele>
        <time>2020-08-30T10:02:14.411Z</time>
      </trkpt>
      <trkpt lat="59.95345" lon="18.80888">
        <ele>35.655433</ele>
        <time>2020-08-30T10:02:21.637Z</time>
      </trkpt>
      <trkpt lat="59.95316" lon="18.80886">
        <ele>35.763088</ele>
        <time>2020-08-30T10:02:27.546Z</time>
      </trkpt>
      <trkpt lat="59.95251" lon="18.80833">
        <ele>35.500973</ele>
        <time>2020-08-30T10:02:41.627Z</time>
      </trkpt>
      <trkpt lat="59.95213" lon="18.80839">
        <ele>35.282812</ele>
        <time>2020-08-30T10:02:48.359Z</time>
      </trkpt>
      <trkpt lat="59.9517" lon="18.80905">
        <ele>34.978039</ele>
        <time>2020-08-30T10:02:57.260Z</time>
      </trkpt>
      <trkpt lat="59.95137" lon="18.80932">
        <ele>34.706304</ele>
        <time>2020-08-30T10:03:02.707Z</time>
      </trkpt>
      <trkpt lat="59.95103" lon="18.80962">
        <ele>33.812095</ele>
        <time>2020-08-30T10:03:08.291Z</time>
      </trkpt>
      <trkpt lat="59.95042" lon="18.80997">
        <ele>32.308139</ele>
        <time>2020-08-30T10:03:17.389Z</time>
      </trkpt>
      <trkpt lat="59.95001" lon="18.81042">
        <ele>31.203793</ele>
        <time>2020-08-30T10:03:23.871Z</time>
      </trkpt>
      <trkpt lat="59.94964" lon="18.81109">
        <ele>30.151903</ele>
        <time>2020-08-30T10:03:30.690Z</time>
      </trkpt>
      <trkpt lat="59.94882" lon="18.81315">
        <ele>27.76502</ele>
        <time>2020-08-30T10:03:50.682Z</time>
      </trkpt>
      <trkpt lat="59.94859" lon="18.81339">
        <ele>27.298862</ele>
        <time>2020-08-30T10:03:54.860Z</time>
      </trkpt>
      <trkpt lat="59.94815" lon="18.81366">
        <ele>26.935265</ele>
        <time>2020-08-30T10:04:02.485Z</time>
      </trkpt>
      <trkpt lat="59.94763" lon="18.81392">
        <ele>26.522063</ele>
        <time>2020-08-30T10:04:11.338Z</time>
      </trkpt>
      <trkpt lat="59.94718" lon="18.8139">
        <ele>26.16855</ele>
        <time>2020-08-30T10:04:18.974Z</time>
      </trkpt>
      <trkpt lat="59.94692" lon="18.81399">
        <ele>25.965363</ele>
        <time>2020-08-30T10:04:23.136Z</time>
      </trkpt>
      <trkpt lat="59.94647" lon="18.8144">
        <ele>25.985749</ele>
        <time>2020-08-30T10:04:31.762Z</time>
      </trkpt>
      <trkpt lat="59.94632" lon="18.81444">
        <ele>26.020581</ele>
        <time>2020-08-30T10:04:34.637Z</time>
      </trkpt>
      <trkpt lat="59.94566" lon="18.81432">
        <ele>26.16702</ele>
        <time>2020-08-30T10:04:47.416Z</time>
      </trkpt>
      <trkpt lat="59.94553" lon="18.81442">
        <ele>26.199251</ele>
        <time>2020-08-30T10:04:50.049Z</time>
      </trkpt>
      <trkpt lat="59.94492" lon="18.81487">
        <ele>26.500587</ele>
        <time>2020-08-30T10:05:04.254Z</time>
      </trkpt>
      <trkpt lat="59.94376" lon="18.81671">
        <ele>27.953984</ele>
        <time>2020-08-30T10:05:38.272Z</time>
      </trkpt>
      <trkpt lat="59.94253" lon="18.81772">
        <ele>26.713454</ele>
        <time>2020-08-30T10:06:00.802Z</time>
      </trkpt>
      <trkpt lat="59.94205" lon="18.81797">
        <ele>26.163486</ele>
        <time>2020-08-30T10:06:08.019Z</time>
      </trkpt>
      <trkpt lat="59.94194" lon="18.81799">
        <ele>25.982312</ele>
        <time>2020-08-30T10:06:09.550Z</time>
      </trkpt>
      <trkpt lat="59.94158" lon="18.81804">
        <ele>24.932102</ele>
        <time>2020-08-30T10:06:14.598Z</time>
      </trkpt>
      <trkpt lat="59.94135" lon="18.81814">
        <ele>24.247882</ele>
        <time>2020-08-30T10:06:17.933Z</time>
      </trkpt>
      <trkpt lat="59.94114" lon="18.81823">
        <ele>23.625844</ele>
        <time>2020-08-30T10:06:20.802Z</time>
      </trkpt>
      <trkpt lat="59.93991" lon="18.81794">
        <ele>20.144749</ele>
        <time>2020-08-30T10:06:37.916Z</time>
      </trkpt>
      <trkpt lat="59.9393" lon="18.81737">
        <ele>18.523524</ele>
        <time>2020-08-30T10:06:47.554Z</time>
      </trkpt>
      <trkpt lat="59.93902" lon="18.81731">
        <ele>17.8173</ele>
        <time>2020-08-30T10:06:51.823Z</time>
      </trkpt>
      <trkpt lat="59.93864" lon="18.81766">
        <ele>16.806646</ele>
        <time>2020-08-30T10:06:57.902Z</time>
      </trkpt>
      <trkpt lat="59.93812" lon="18.81796">
        <ele>15.773423</ele>
        <time>2020-08-30T10:07:05.569Z</time>
      </trkpt>
      <trkpt lat="59.93784" lon="18.8184">
        <ele>15.158834</ele>
        <time>2020-08-30T10:07:10.797Z</time>
      </trkpt>
      <trkpt lat="59.93724" lon="18.81864">
        <ele>14.11002</ele>
        <time>2020-08-30T10:07:20.034Z</time>
      </trkpt>
      <trkpt lat="59.93689" lon="18.8188">
        <ele>13.480701</ele>
        <time>2020-08-30T10:07:25.868Z</time>
      </trkpt>
      <trkpt lat="59.93676" lon="18.81831">
        <ele>13.412545</ele>
        <time>2020-08-30T10:07:30.467Z</time>
      </trkpt>
      <trkpt lat="59.93629" lon="18.81637">
        <ele>13.690494</ele>
        <time>2020-08-30T10:07:49.968Z</time>
      </trkpt>
      <trkpt lat="59.93574" lon="18.81412">
        <ele>15.227737</ele>
        <time>2020-08-30T10:08:20.432Z</time>
      </trkpt>
      <trkpt lat="59.93566" lon="18.81381">
        <ele>15.55311</ele>
        <time>2020-08-30T10:08:24.823Z</time>
      </trkpt>
      <trkpt lat="59.93531" lon="18.81239">
        <ele>17.053779</ele>
        <time>2020-08-30T10:08:44.947Z</time>
      </trkpt>
      <trkpt lat="59.93512" lon="18.81147">
        <ele>17.891384</ele>
        <time>2020-08-30T10:08:57.454Z</time>
      </trkpt>
      <trkpt lat="59.93495" lon="18.81065">
        <ele>18.610657</ele>
        <time>2020-08-30T10:09:08.030Z</time>
      </trkpt>
      <trkpt lat="59.93472" lon="18.80899">
        <ele>20.005976</ele>
        <time>2020-08-30T10:09:27.458Z</time>
      </trkpt>
      <trkpt lat="59.93466" lon="18.80811">
        <ele>21.316894</ele>
        <time>2020-08-30T10:09:37.730Z</time>
      </trkpt>
      <trkpt lat="59.9346" lon="18.80744">
        <ele>22.423141</ele>
        <time>2020-08-30T10:09:46.941Z</time>
      </trkpt>
      <trkpt lat="59.93415" lon="18.80759">
        <ele>23.909062</ele>
        <time>2020-08-30T10:10:00.744Z</time>
      </trkpt>
      <trkpt lat="59.9338" lon="18.8077">
        <ele>25.054116</ele>
        <time>2020-08-30T10:10:12.015Z</time>
      </trkpt>
      <trkpt lat="59.93357" lon="18.80777">
        <ele>25.818471</ele>
        <time>2020-08-30T10:10:19.833Z</time>
      </trkpt>
      <trkpt lat="59.9335" lon="18.80779">
        <ele>26.061224</ele>
        <time>2020-08-30T10:10:22.086Z</time>
      </trkpt>
      <trkpt lat="59.93299" lon="18.80795">
        <ele>28.275756</ele>
        <time>2020-08-30T10:10:40.053Z</time>
      </trkpt>
      <trkpt lat="59.93218" lon="18.80812">
        <ele>31.811071</ele>
        <time>2020-08-30T10:11:08.351Z</time>
      </trkpt>
      <trkpt lat="59.93137" lon="18.80851">
        <ele>34.232312</ele>
        <time>2020-08-30T10:11:32.059Z</time>
      </trkpt>
      <trkpt lat="59.9303" lon="18.80804">
        <ele>35.692548</ele>
        <time>2020-08-30T10:11:55.436Z</time>
      </trkpt>
      <trkpt lat="59.93003" lon="18.80772">
        <ele>36.113552</ele>
        <time>2020-08-30T10:12:01.528Z</time>
      </trkpt>
      <trkpt lat="59.9298" lon="18.80762">
        <ele>36.080503</ele>
        <time>2020-08-30T10:12:05.851Z</time>
      </trkpt>
      <trkpt lat="59.929" lon="18.80774">
        <ele>35.967675</ele>
        <time>2020-08-30T10:12:20.576Z</time>
      </trkpt>
      <trkpt lat="59.92847" lon="18.80772">
        <ele>35.892983</ele>
        <time>2020-08-30T10:12:30.049Z</time>
      </trkpt>
      <trkpt lat="59.92798" lon="18.80795">
        <ele>35.621174</ele>
        <time>2020-08-30T10:12:38.629Z</time>
      </trkpt>
      <trkpt lat="59.92743" lon="18.8086">
        <ele>35.050658</ele>
        <time>2020-08-30T10:12:49.280Z</time>
      </trkpt>
      <trkpt lat="59.92609" lon="18.80912">
        <ele>33.881749</ele>
        <time>2020-08-30T10:13:11.042Z</time>
      </trkpt>
      <trkpt lat="59.92578" lon="18.80904">
        <ele>33.640851</ele>
        <time>2020-08-30T10:13:15.914Z</time>
      </trkpt>
      <trkpt lat="59.92532" lon="18.8087">
        <ele>33.262088</ele>
        <time>2020-08-30T10:13:23.897Z</time>
      </trkpt>
      <trkpt lat="59.92488" lon="18.8079">
        <ele>32.891305</ele>
        <time>2020-08-30T10:13:34.604Z</time>
      </trkpt>
      <trkpt lat="59.92457" lon="18.80708">
        <ele>33.127452</ele>
        <time>2020-08-30T10:13:44.535Z</time>
      </trkpt>
      <trkpt lat="59.92433" lon="18.80661">
        <ele>33.283216</ele>
        <time>2020-08-30T10:13:51.440Z</time>
      </trkpt>
      <trkpt lat="59.92383" lon="18.80624">
        <ele>33.528525</ele>
        <time>2020-08-30T10:14:02.578Z</time>
      </trkpt>
      <trkpt lat="59.92288" lon="18.80642">
        <ele>33.966932</ele>
        <time>2020-08-30T10:14:22.853Z</time>
      </trkpt>
      <trkpt lat="59.92253" lon="18.80669">
        <ele>34.136445</ele>
        <time>2020-08-30T10:14:30.305Z</time>
      </trkpt>
      <trkpt lat="59.9221" lon="18.80685">
        <ele>34.340885</ele>
        <time>2020-08-30T10:14:38.936Z</time>
      </trkpt>
      <trkpt lat="59.92174" lon="18.80718">
        <ele>34.519881</ele>
        <time>2020-08-30T10:14:46.278Z</time>
      </trkpt>
      <trkpt lat="59.9214" lon="18.80716">
        <ele>34.680663</ele>
        <time>2020-08-30T10:14:52.743Z</time>
      </trkpt>
      <trkpt lat="59.92116" lon="18.80691">
        <ele>34.806674</ele>
        <time>2020-08-30T10:14:57.878Z</time>
      </trkpt>
      <trkpt lat="59.92073" lon="18.8059">
        <ele>35.114678</ele>
        <time>2020-08-30T10:15:10.987Z</time>
      </trkpt>
      <trkpt lat="59.92033" lon="18.80538">
        <ele>35.333351</ele>
        <time>2020-08-30T10:15:20.809Z</time>
      </trkpt>
      <trkpt lat="59.9194" lon="18.80452">
        <ele>36.70602</ele>
        <time>2020-08-30T10:15:44.189Z</time>
      </trkpt>
      <trkpt lat="59.91804" lon="18.8022">
        <ele>38.85527</ele>
        <time>2020-08-30T10:16:26.673Z</time>
      </trkpt>
      <trkpt lat="59.9174" lon="18.80084">
        <ele>39.655265</ele>
        <time>2020-08-30T10:16:45.846Z</time>
      </trkpt>
      <trkpt lat="59.91684" lon="18.80019">
        <ele>39.3814</ele>
        <time>2020-08-30T10:16:57.566Z</time>
      </trkpt>
      <trkpt lat="59.91663" lon="18.80016">
        <ele>39.290827</ele>
        <time>2020-08-30T10:17:01.237Z</time>
      </trkpt>
      <trkpt lat="59.91521" lon="18.8006">
        <ele>38.170639</ele>
        <time>2020-08-30T10:17:24.611Z</time>
      </trkpt>
      <trkpt lat="59.91489" lon="18.80053">
        <ele>37.768386</ele>
        <time>2020-08-30T10:17:29.518Z</time>
      </trkpt>
      <trkpt lat="59.91415" lon="18.79987">
        <ele>36.764273</ele>
        <time>2020-08-30T10:17:42.111Z</time>
      </trkpt>
      <trkpt lat="59.91376" lon="18.79934">
        <ele>36.494996</ele>
        <time>2020-08-30T10:17:49.631Z</time>
      </trkpt>
      <trkpt lat="59.91326" lon="18.79864">
        <ele>36.18611</ele>
        <time>2020-08-30T10:18:00.004Z</time>
      </trkpt>
      <trkpt lat="59.91263" lon="18.79771">
        <ele>35.804131</ele>
        <time>2020-08-30T10:18:13.986Z</time>
      </trkpt>
      <trkpt lat="59.9123" lon="18.79719">
        <ele>35.883754</ele>
        <time>2020-08-30T10:18:22.832Z</time>
      </trkpt>
      <trkpt lat="59.91184" lon="18.79633">
        <ele>36.000796</ele>
        <time>2020-08-30T10:18:35.436Z</time>
      </trkpt>
      <trkpt lat="59.91089" lon="18.7955">
        <ele>35.920218</ele>
        <time>2020-08-30T10:18:54.617Z</time>
      </trkpt>
      <trkpt lat="59.91073" lon="18.79526">
        <ele>35.782682</ele>
        <time>2020-08-30T10:18:58.068Z</time>
      </trkpt>
      <trkpt lat="59.91033" lon="18.79468">
        <ele>35.44438</ele>
        <time>2020-08-30T10:19:06.388Z</time>
      </trkpt>
      <trkpt lat="59.91021" lon="18.79446">
        <ele>35.332228</ele>
        <time>2020-08-30T10:19:09.066Z</time>
      </trkpt>
      <trkpt lat="59.91019" lon="18.79441">
        <ele>35.307044</ele>
        <time>2020-08-30T10:19:09.655Z</time>
      </trkpt>
      <trkpt lat="59.91014" lon="18.79435">
        <ele>35.269102</ele>
        <time>2020-08-30T10:19:10.537Z</time>
      </trkpt>
      <trkpt lat="59.90991" lon="18.79421">
        <ele>35.107027</ele>
        <time>2020-08-30T10:19:14.414Z</time>
      </trkpt>
      <trkpt lat="59.90953" lon="18.79406">
        <ele>34.794755</ele>
        <time>2020-08-30T10:19:20.580Z</time>
      </trkpt>
      <trkpt lat="59.90922" lon="18.79377">
        <ele>34.36924</ele>
        <time>2020-08-30T10:19:26.046Z</time>
      </trkpt>
      <trkpt lat="59.90894" lon="18.79356">
        <ele>34.001696</ele>
        <time>2020-08-30T10:19:30.744Z</time>
      </trkpt>
      <trkpt lat="59.90887" lon="18.79354">
        <ele>33.910194</ele>
        <time>2020-08-30T10:19:31.921Z</time>
      </trkpt>
      <trkpt lat="59.90858" lon="18.79347">
        <ele>33.559423</ele>
        <time>2020-08-30T10:19:36.412Z</time>
      </trkpt>
      <trkpt lat="59.90848" lon="18.79344">
        <ele>33.427994</ele>
        <time>2020-08-30T10:19:38.092Z</time>
      </trkpt>
      <trkpt lat="59.90807" lon="18.79306">
        <ele>32.880467</ele>
        <time>2020-08-30T10:19:45.129Z</time>
      </trkpt>
      <trkpt lat="59.90777" lon="18.79289">
        <ele>32.544492</ele>
        <time>2020-08-30T10:19:50.000Z</time>
      </trkpt>
      <trkpt lat="59.90724" lon="18.7928">
        <ele>32.05806</ele>
        <time>2020-08-30T10:19:58.575Z</time>
      </trkpt>
      <trkpt lat="59.90654" lon="18.7922">
        <ele>31.354062</ele>
        <time>2020-08-30T10:20:11.105Z</time>
      </trkpt>
      <trkpt lat="59.90639" lon="18.79225">
        <ele>31.217784</ele>
        <time>2020-08-30T10:20:13.475Z</time>
      </trkpt>
      <trkpt lat="59.90631" lon="18.79228">
        <ele>31.136561</ele>
        <time>2020-08-30T10:20:15.100Z</time>
      </trkpt>
      <trkpt lat="59.9061" lon="18.7926">
        <ele>31.023601</ele>
        <time>2020-08-30T10:20:19.509Z</time>
      </trkpt>
      <trkpt lat="59.9058" lon="18.79331">
        <ele>30.967387</ele>
        <time>2020-08-30T10:20:27.864Z</time>
      </trkpt>
      <trkpt lat="59.90542" lon="18.79434">
        <ele>30.891082</ele>
        <time>2020-08-30T10:20:39.391Z</time>
      </trkpt>
      <trkpt lat="59.90517" lon="18.79466">
        <ele>30.85499</ele>
        <time>2020-08-30T10:20:45.167Z</time>
      </trkpt>
      <trkpt lat="59.90486" lon="18.7947">
        <ele>30.878292</ele>
        <time>2020-08-30T10:20:50.979Z</time>
      </trkpt>
      <trkpt lat="59.90388" lon="18.7944">
        <ele>31.607839</ele>
        <time>2020-08-30T10:21:11.234Z</time>
      </trkpt>
      <trkpt lat="59.90355" lon="18.79358">
        <ele>31.990138</ele>
        <time>2020-08-30T10:21:22.826Z</time>
      </trkpt>
      <trkpt lat="59.90302" lon="18.79299">
        <ele>32.511747</ele>
        <time>2020-08-30T10:21:36.435Z</time>
      </trkpt>
      <trkpt lat="59.90254" lon="18.79248">
        <ele>33.022546</ele>
        <time>2020-08-30T10:21:48.527Z</time>
      </trkpt>
      <trkpt lat="59.90247" lon="18.79242">
        <ele>33.091765</ele>
        <time>2020-08-30T10:21:50.321Z</time>
      </trkpt>
      <trkpt lat="59.90224" lon="18.79197">
        <ele>33.387692</ele>
        <time>2020-08-30T10:21:57.144Z</time>
      </trkpt>
      <trkpt lat="59.90209" lon="18.79139">
        <ele>33.693457</ele>
        <time>2020-08-30T10:22:04.090Z</time>
      </trkpt>
      <trkpt lat="59.90182" lon="18.79072">
        <ele>33.782707</ele>
        <time>2020-08-30T10:22:12.925Z</time>
      </trkpt>
      <trkpt lat="59.90166" lon="18.79059">
        <ele>33.764951</ele>
        <time>2020-08-30T10:22:16.055Z</time>
      </trkpt>
      <trkpt lat="59.90079" lon="18.79029">
        <ele>33.674678</ele>
        <time>2020-08-30T10:22:31.392Z</time>
      </trkpt>
      <trkpt lat="59.90051" lon="18.79008">
        <ele>33.643966</ele>
        <time>2020-08-30T10:22:36.627Z</time>
      </trkpt>
      <trkpt lat="59.9004" lon="18.78995">
        <ele>33.630687</ele>
        <time>2020-08-30T10:22:38.749Z</time>
      </trkpt>
      <trkpt lat="59.90026" lon="18.78977">
        <ele>33.694352</ele>
        <time>2020-08-30T10:22:41.875Z</time>
      </trkpt>
      <trkpt lat="59.90024" lon="18.78975">
        <ele>33.705687</ele>
        <time>2020-08-30T10:22:42.348Z</time>
      </trkpt>
      <trkpt lat="59.89971" lon="18.78905">
        <ele>33.971104</ele>
        <time>2020-08-30T10:22:54.461Z</time>
      </trkpt>
      <trkpt lat="59.89962" lon="18.78872">
        <ele>34.049389</ele>
        <time>2020-08-30T10:22:58.147Z</time>
      </trkpt>
      <trkpt lat="59.8996" lon="18.78835">
        <ele>34.127729</ele>
        <time>2020-08-30T10:23:01.913Z</time>
      </trkpt>
      <trkpt lat="59.89956" lon="18.78744">
        <ele>34.320889</ele>
        <time>2020-08-30T10:23:11.383Z</time>
      </trkpt>
      <trkpt lat="59.89944" lon="18.78724">
        <ele>34.391554</ele>
        <time>2020-08-30T10:23:15.198Z</time>
      </trkpt>
      <trkpt lat="59.89834" lon="18.78671">
        <ele>35.477774</ele>
        <time>2020-08-30T10:23:40.482Z</time>
      </trkpt>
      <trkpt lat="59.89805" lon="18.78665">
        <ele>35.761382</ele>
        <time>2020-08-30T10:23:46.906Z</time>
      </trkpt>
      <trkpt lat="59.89777" lon="18.78677">
        <ele>36.040092</ele>
        <time>2020-08-30T10:23:52.835Z</time>
      </trkpt>
      <trkpt lat="59.89611" lon="18.78786">
        <ele>36.664643</ele>
        <time>2020-08-30T10:24:26.893Z</time>
      </trkpt>
      <trkpt lat="59.89564" lon="18.78798">
        <ele>36.723647</ele>
        <time>2020-08-30T10:24:36.073Z</time>
      </trkpt>
      <trkpt lat="59.8954" lon="18.78784">
        <ele>36.734347</ele>
        <time>2020-08-30T10:24:40.848Z</time>
      </trkpt>
      <trkpt lat="59.8952" lon="18.78762">
        <ele>36.744051</ele>
        <time>2020-08-30T10:24:45.146Z</time>
      </trkpt>
      <trkpt lat="59.89483" lon="18.78697">
        <ele>36.76538</ele>
        <time>2020-08-30T10:24:54.462Z</time>
      </trkpt>
      <trkpt lat="59.8945" lon="18.78671">
        <ele>36.781053</ele>
        <time>2020-08-30T10:25:01.078Z</time>
      </trkpt>
      <trkpt lat="59.89409" lon="18.78661">
        <ele>36.644732</ele>
        <time>2020-08-30T10:25:08.303Z</time>
      </trkpt>
      <trkpt lat="59.89361" lon="18.78664">
        <ele>36.405282</ele>
        <time>2020-08-30T10:25:16.377Z</time>
      </trkpt>
      <trkpt lat="59.89306" lon="18.78725">
        <ele>36.083271</ele>
        <time>2020-08-30T10:25:27.158Z</time>
      </trkpt>
      <trkpt lat="59.89273" lon="18.78723">
        <ele>35.920261</ele>
        <time>2020-08-30T10:25:32.634Z</time>
      </trkpt>
      <trkpt lat="59.89218" lon="18.78687">
        <ele>35.592772</ele>
        <time>2020-08-30T10:25:42.535Z</time>
      </trkpt>
      <trkpt lat="59.89124" lon="18.78601">
        <ele>35.000026</ele>
        <time>2020-08-30T10:26:00.342Z</time>
      </trkpt>
      <trkpt lat="59.89043" lon="18.78486">
        <ele>34.205765</ele>
        <time>2020-08-30T10:26:16.889Z</time>
      </trkpt>
      <trkpt lat="59.88959" lon="18.78315">
        <ele>33.304101</ele>
        <time>2020-08-30T10:26:36.173Z</time>
      </trkpt>
      <trkpt lat="59.88931" lon="18.78274">
        <ele>33.435718</ele>
        <time>2020-08-30T10:26:42.068Z</time>
      </trkpt>
      <trkpt lat="59.8886" lon="18.78245">
        <ele>33.711016</ele>
        <time>2020-08-30T10:26:55.937Z</time>
      </trkpt>
      <trkpt lat="59.88816" lon="18.78217">
        <ele>33.884791</ele>
        <time>2020-08-30T10:27:06.263Z</time>
      </trkpt>
      <trkpt lat="59.88778" lon="18.78227">
        <ele>34.495123</ele>
        <time>2020-08-30T10:27:15.552Z</time>
      </trkpt>
      <trkpt lat="59.88717" lon="18.78308">
        <ele>36.218535</ele>
        <time>2020-08-30T10:27:35.490Z</time>
      </trkpt>
      <trkpt lat="59.88623" lon="18.78387">
        <ele>38.282423</ele>
        <time>2020-08-30T10:28:02.915Z</time>
      </trkpt>
      <trkpt lat="59.88586" lon="18.78408">
        <ele>38.583627</ele>
        <time>2020-08-30T10:28:12.427Z</time>
      </trkpt>
      <trkpt lat="59.88502" lon="18.78396">
        <ele>39.229763</ele>
        <time>2020-08-30T10:28:30.078Z</time>
      </trkpt>
      <trkpt lat="59.88319" lon="18.78308">
        <ele>37.857678</ele>
        <time>2020-08-30T10:29:00.009Z</time>
      </trkpt>
      <trkpt lat="59.88221" lon="18.78193">
        <ele>37.046888</ele>
        <time>2020-08-30T10:29:17.974Z</time>
      </trkpt>
      <trkpt lat="59.88154" lon="18.78096">
        <ele>36.570429</ele>
        <time>2020-08-30T10:29:32.588Z</time>
      </trkpt>
      <trkpt lat="59.88136" lon="18.78088">
        <ele>36.54923</ele>
        <time>2020-08-30T10:29:36.298Z</time>
      </trkpt>
      <trkpt lat="59.88106" lon="18.78098">
        <ele>36.777124</ele>
        <time>2020-08-30T10:29:42.429Z</time>
      </trkpt>
      <trkpt lat="59.88077" lon="18.78096">
        <ele>37.002794</ele>
        <time>2020-08-30T10:29:48.759Z</time>
      </trkpt>
      <trkpt lat="59.8802" lon="18.78059">
        <ele>37.465878</ele>
        <time>2020-08-30T10:30:01.957Z</time>
      </trkpt>
      <trkpt lat="59.87975" lon="18.7805">
        <ele>37.815501</ele>
        <time>2020-08-30T10:30:11.801Z</time>
      </trkpt>
      <trkpt lat="59.87948" lon="18.78057">
        <ele>37.916555</ele>
        <time>2020-08-30T10:30:17.626Z</time>
      </trkpt>
      <trkpt lat="59.87902" lon="18.78082">
        <ele>38.002607</ele>
        <time>2020-08-30T10:30:27.517Z</time>
      </trkpt>
      <trkpt lat="59.87859" lon="18.78124">
        <ele>38.08939</ele>
        <time>2020-08-30T10:30:36.827Z</time>
      </trkpt>
      <trkpt lat="59.878" lon="18.78219">
        <ele>38.093499</ele>
        <time>2020-08-30T10:30:50.123Z</time>
      </trkpt>
      <trkpt lat="59.87768" lon="18.78238">
        <ele>37.675801</ele>
        <time>2020-08-30T10:30:55.766Z</time>
      </trkpt>
      <trkpt lat="59.87635" lon="18.78231">
        <ele>36.046184</ele>
        <time>2020-08-30T10:31:16.459Z</time>
      </trkpt>
      <trkpt lat="59.87603" lon="18.78209">
        <ele>35.573669</ele>
        <time>2020-08-30T10:31:21.478Z</time>
      </trkpt>
      <trkpt lat="59.87565" lon="18.78215">
        <ele>35.033452</ele>
        <time>2020-08-30T10:31:27.170Z</time>
      </trkpt>
      <trkpt lat="59.87512" lon="18.78252">
        <ele>34.235598</ele>
        <time>2020-08-30T10:31:35.681Z</time>
      </trkpt>
      <trkpt lat="59.8746" lon="18.78275">
        <ele>33.477913</ele>
        <time>2020-08-30T10:31:44.063Z</time>
      </trkpt>
      <trkpt lat="59.87422" lon="18.78281">
        <ele>33.614404</ele>
        <time>2020-08-30T10:31:50.610Z</time>
      </trkpt>
      <trkpt lat="59.87389" lon="18.78276">
        <ele>33.768017</ele>
        <time>2020-08-30T10:31:56.550Z</time>
      </trkpt>
      <trkpt lat="59.87326" lon="18.78229">
        <ele>34.084181</ele>
        <time>2020-08-30T10:32:10.609Z</time>
      </trkpt>
      <trkpt lat="59.87269" lon="18.78172">
        <ele>34.41749</ele>
        <time>2020-08-30T10:32:26.235Z</time>
      </trkpt>
      <trkpt lat="59.87202" lon="18.78088">
        <ele>34.927012</ele>
        <time>2020-08-30T10:32:44.117Z</time>
      </trkpt>
      <trkpt lat="59.87197" lon="18.78077">
        <ele>34.974233</ele>
        <time>2020-08-30T10:32:46.308Z</time>
      </trkpt>
      <trkpt lat="59.87193" lon="18.78062">
        <ele>35.029027</ele>
        <time>2020-08-30T10:32:47.885Z</time>
      </trkpt>
      <trkpt lat="59.87175" lon="18.77963">
        <ele>35.367939</ele>
        <time>2020-08-30T10:32:57.501Z</time>
      </trkpt>
      <trkpt lat="59.87144" lon="18.77877">
        <ele>34.3837</ele>
        <time>2020-08-30T10:33:06.360Z</time>
      </trkpt>
      <trkpt lat="59.87064" lon="18.77732">
        <ele>31.671545</ele>
        <time>2020-08-30T10:33:21.249Z</time>
      </trkpt>
      <trkpt lat="59.87019" lon="18.77623">
        <ele>29.564854</ele>
        <time>2020-08-30T10:33:30.784Z</time>
      </trkpt>
      <trkpt lat="59.86938" lon="18.77463">
        <ele>25.853838</ele>
        <time>2020-08-30T10:33:46.214Z</time>
      </trkpt>
      <trkpt lat="59.86898" lon="18.77359">
        <ele>24.405049</ele>
        <time>2020-08-30T10:33:55.552Z</time>
      </trkpt>
      <trkpt lat="59.86846" lon="18.77112">
        <ele>22.33664</ele>
        <time>2020-08-30T10:34:16.506Z</time>
      </trkpt>
      <trkpt lat="59.86853" lon="18.77054">
        <ele>22.369733</ele>
        <time>2020-08-30T10:34:21.867Z</time>
      </trkpt>
      <trkpt lat="59.86899" lon="18.76959">
        <ele>22.663681</ele>
        <time>2020-08-30T10:34:34.875Z</time>
      </trkpt>
      <trkpt lat="59.86907" lon="18.76932">
        <ele>22.732568</ele>
        <time>2020-08-30T10:34:38.098Z</time>
      </trkpt>
      <trkpt lat="59.86922" lon="18.76833">
        <ele>22.961742</ele>
        <time>2020-08-30T10:34:49.397Z</time>
      </trkpt>
      <trkpt lat="59.86957" lon="18.7666">
        <ele>24.308194</ele>
        <time>2020-08-30T10:35:10.995Z</time>
      </trkpt>
      <trkpt lat="59.86959" lon="18.76604">
        <ele>24.798266</ele>
        <time>2020-08-30T10:35:18.255Z</time>
      </trkpt>
      <trkpt lat="59.86935" lon="18.76453">
        <ele>26.159096</ele>
        <time>2020-08-30T10:35:38.356Z</time>
      </trkpt>
      <trkpt lat="59.86938" lon="18.7639">
        <ele>26.453147</ele>
        <time>2020-08-30T10:35:45.859Z</time>
      </trkpt>
      <trkpt lat="59.86938" lon="18.76358">
        <ele>26.603832</ele>
        <time>2020-08-30T10:35:49.813Z</time>
      </trkpt>
      <trkpt lat="59.86935" lon="18.76328">
        <ele>26.745355</ele>
        <time>2020-08-30T10:35:53.141Z</time>
      </trkpt>
      <trkpt lat="59.86925" lon="18.76266">
        <ele>27.050676</ele>
        <time>2020-08-30T10:36:00.337Z</time>
      </trkpt>
      <trkpt lat="59.86919" lon="18.76245">
        <ele>27.166146</ele>
        <time>2020-08-30T10:36:03.027Z</time>
      </trkpt>
      <trkpt lat="59.86907" lon="18.76218">
        <ele>27.333339</ele>
        <time>2020-08-30T10:36:06.788Z</time>
      </trkpt>
      <trkpt lat="59.86888" lon="18.76153">
        <ele>27.685302</ele>
        <time>2020-08-30T10:36:14.272Z</time>
      </trkpt>
      <trkpt lat="59.86876" lon="18.76066">
        <ele>27.552606</ele>
        <time>2020-08-30T10:36:22.608Z</time>
      </trkpt>
      <trkpt lat="59.86865" lon="18.76026">
        <ele>27.336121</ele>
        <time>2020-08-30T10:36:26.451Z</time>
      </trkpt>
      <trkpt lat="59.86816" lon="18.75946">
        <ele>26.747899</ele>
        <time>2020-08-30T10:36:36.457Z</time>
      </trkpt>
      <trkpt lat="59.8678" lon="18.75856">
        <ele>26.213232</ele>
        <time>2020-08-30T10:36:45.450Z</time>
      </trkpt>
      <trkpt lat="59.86728" lon="18.7578">
        <ele>25.472705</ele>
        <time>2020-08-30T10:36:55.650Z</time>
      </trkpt>
      <trkpt lat="59.86702" lon="18.75723">
        <ele>25.025695</ele>
        <time>2020-08-30T10:37:01.754Z</time>
      </trkpt>
      <trkpt lat="59.86666" lon="18.75602">
        <ele>24.193774</ele>
        <time>2020-08-30T10:37:13.165Z</time>
      </trkpt>
      <trkpt lat="59.86621" lon="18.75418">
        <ele>22.815871</ele>
        <time>2020-08-30T10:37:29.534Z</time>
      </trkpt>
      <trkpt lat="59.8661" lon="18.75396">
        <ele>22.604836</ele>
        <time>2020-08-30T10:37:31.948Z</time>
      </trkpt>
      <trkpt lat="59.86562" lon="18.75343">
        <ele>21.85455</ele>
        <time>2020-08-30T10:37:40.418Z</time>
      </trkpt>
      <trkpt lat="59.86529" lon="18.75293">
        <ele>21.234806</ele>
        <time>2020-08-30T10:37:46.669Z</time>
      </trkpt>
      <trkpt lat="59.86458" lon="18.75122">
        <ele>19.463467</ele>
        <time>2020-08-30T10:38:03.420Z</time>
      </trkpt>
      <trkpt lat="59.86442" lon="18.75084">
        <ele>19.05994</ele>
        <time>2020-08-30T10:38:07.346Z</time>
      </trkpt>
      <trkpt lat="59.8643" lon="18.75046">
        <ele>18.723505</ele>
        <time>2020-08-30T10:38:10.800Z</time>
      </trkpt>
      <trkpt lat="59.86411" lon="18.7499">
        <ele>18.51536</ele>
        <time>2020-08-30T10:38:16.232Z</time>
      </trkpt>
      <trkpt lat="59.86371" lon="18.74919">
        <ele>18.184123</ele>
        <time>2020-08-30T10:38:25.128Z</time>
      </trkpt>
      <trkpt lat="59.86353" lon="18.74873">
        <ele>18.005075</ele>
        <time>2020-08-30T10:38:30.093Z</time>
      </trkpt>
      <trkpt lat="59.86334" lon="18.7468">
        <ele>17.78321</ele>
        <time>2020-08-30T10:38:48.420Z</time>
      </trkpt>
      <trkpt lat="59.86329" lon="18.74573">
        <ele>18.004928</ele>
        <time>2020-08-30T10:38:58.938Z</time>
      </trkpt>
      <trkpt lat="59.86319" lon="18.74518">
        <ele>18.124489</ele>
        <time>2020-08-30T10:39:04.734Z</time>
      </trkpt>
      <trkpt lat="59.86308" lon="18.74494">
        <ele>18.190833</ele>
        <time>2020-08-30T10:39:08.020Z</time>
      </trkpt>
      <trkpt lat="59.86296" lon="18.74477">
        <ele>18.252395</ele>
        <time>2020-08-30T10:39:11.170Z</time>
      </trkpt>
      <trkpt lat="59.8628" lon="18.74458">
        <ele>18.328631</ele>
        <time>2020-08-30T10:39:15.114Z</time>
      </trkpt>
      <trkpt lat="59.86252" lon="18.74417">
        <ele>18.777307</ele>
        <time>2020-08-30T10:39:22.602Z</time>
      </trkpt>
      <trkpt lat="59.86209" lon="18.74329">
        <ele>19.79596</ele>
        <time>2020-08-30T10:39:36.907Z</time>
      </trkpt>
      <trkpt lat="59.86098" lon="18.742">
        <ele>22.053243</ele>
        <time>2020-08-30T10:40:09.028Z</time>
      </trkpt>
      <trkpt lat="59.86059" lon="18.74189">
        <ele>22.854999</ele>
        <time>2020-08-30T10:40:19.385Z</time>
      </trkpt>
      <trkpt lat="59.85912" lon="18.74218">
        <ele>25.44036</ele>
        <time>2020-08-30T10:40:56.296Z</time>
      </trkpt>
      <trkpt lat="59.8589" lon="18.74225">
        <ele>25.658954</ele>
        <time>2020-08-30T10:41:01.244Z</time>
      </trkpt>
      <trkpt lat="59.85867" lon="18.74237">
        <ele>25.890974</ele>
        <time>2020-08-30T10:41:06.578Z</time>
      </trkpt>
      <trkpt lat="59.85716" lon="18.74322">
        <ele>26.426101</ele>
        <time>2020-08-30T10:41:37.258Z</time>
      </trkpt>
      <trkpt lat="59.8569" lon="18.74327">
        <ele>26.284621</ele>
        <time>2020-08-30T10:41:42.008Z</time>
      </trkpt>
      <trkpt lat="59.85662" lon="18.74316">
        <ele>26.13067</ele>
        <time>2020-08-30T10:41:47.260Z</time>
      </trkpt>
      <trkpt lat="59.85651" lon="18.74307">
        <ele>26.063697</ele>
        <time>2020-08-30T10:41:48.996Z</time>
      </trkpt>
      <trkpt lat="59.85639" lon="18.7429">
        <ele>25.983558</ele>
        <time>2020-08-30T10:41:51.978Z</time>
      </trkpt>
      <trkpt lat="59.85593" lon="18.74194">
        <ele>24.840547</ele>
        <time>2020-08-30T10:42:01.848Z</time>
      </trkpt>
      <trkpt lat="59.85584" lon="18.74177">
        <ele>24.487422</ele>
        <time>2020-08-30T10:42:03.915Z</time>
      </trkpt>
      <trkpt lat="59.85571" lon="18.7416">
        <ele>24.029997</ele>
        <time>2020-08-30T10:42:05.866Z</time>
      </trkpt>
      <trkpt lat="59.8548" lon="18.74075">
        <ele>21.122815</ele>
        <time>2020-08-30T10:42:19.851Z</time>
      </trkpt>
      <trkpt lat="59.85476" lon="18.74072">
        <ele>20.99453</ele>
        <time>2020-08-30T10:42:20.351Z</time>
      </trkpt>
      <trkpt lat="59.8546" lon="18.74056">
        <ele>20.491759</ele>
        <time>2020-08-30T10:42:22.962Z</time>
      </trkpt>
      <trkpt lat="59.85447" lon="18.74043">
        <ele>20.133988</ele>
        <time>2020-08-30T10:42:24.920Z</time>
      </trkpt>
      <trkpt lat="59.85415" lon="18.74019">
        <ele>19.322153</ele>
        <time>2020-08-30T10:42:29.482Z</time>
      </trkpt>
      <trkpt lat="59.85385" lon="18.74011">
        <ele>18.590734</ele>
        <time>2020-08-30T10:42:33.576Z</time>
      </trkpt>
      <trkpt lat="59.85252" lon="18.74016">
        <ele>16.191884</ele>
        <time>2020-08-30T10:42:53.908Z</time>
      </trkpt>
      <trkpt lat="59.85219" lon="18.74025">
        <ele>16.128894</ele>
        <time>2020-08-30T10:43:00.265Z</time>
      </trkpt>
      <trkpt lat="59.85197" lon="18.74052">
        <ele>16.081549</ele>
        <time>2020-08-30T10:43:05.189Z</time>
      </trkpt>
      <trkpt lat="59.85189" lon="18.74073">
        <ele>16.057066</ele>
        <time>2020-08-30T10:43:07.684Z</time>
      </trkpt>
      <trkpt lat="59.85183" lon="18.74115">
        <ele>16.015468</ele>
        <time>2020-08-30T10:43:12.092Z</time>
      </trkpt>
      <trkpt lat="59.85182" lon="18.74216">
        <ele>15.912113</ele>
        <time>2020-08-30T10:43:22.298Z</time>
      </trkpt>
      <trkpt lat="59.85169" lon="18.74265">
        <ele>15.748163</ele>
        <time>2020-08-30T10:43:27.955Z</time>
      </trkpt>
      <trkpt lat="59.85148" lon="18.74296">
        <ele>15.595891</ele>
        <time>2020-08-30T10:43:32.570Z</time>
      </trkpt>
      <trkpt lat="59.85043" lon="18.74394">
        <ele>14.918093</ele>
        <time>2020-08-30T10:43:51.610Z</time>
      </trkpt>
      <trkpt lat="59.85017" lon="18.74417">
        <ele>14.682613</ele>
        <time>2020-08-30T10:43:56.002Z</time>
      </trkpt>
      <trkpt lat="59.85007" lon="18.74425">
        <ele>14.579557</ele>
        <time>2020-08-30T10:43:57.702Z</time>
      </trkpt>
      <trkpt lat="59.8493" lon="18.74476">
        <ele>13.81841</ele>
        <time>2020-08-30T10:44:10.334Z</time>
      </trkpt>
      <trkpt lat="59.84846" lon="18.74498">
        <ele>13.398639</ele>
        <time>2020-08-30T10:44:24.344Z</time>
      </trkpt>
      <trkpt lat="59.84707" lon="18.74627">
        <ele>15.356464</ele>
        <time>2020-08-30T10:44:59.686Z</time>
      </trkpt>
      <trkpt lat="59.84641" lon="18.74639">
        <ele>17.170596</ele>
        <time>2020-08-30T10:45:18.734Z</time>
      </trkpt>
      <trkpt lat="59.84597" lon="18.7463">
        <ele>18.474861</ele>
        <time>2020-08-30T10:45:31.676Z</time>
      </trkpt>
      <trkpt lat="59.8457" lon="18.74605">
        <ele>19.341676</ele>
        <time>2020-08-30T10:45:40.324Z</time>
      </trkpt>
      <trkpt lat="59.84557" lon="18.74574">
        <ele>19.937719</ele>
        <time>2020-08-30T10:45:46.228Z</time>
      </trkpt>
      <trkpt lat="59.84563" lon="18.74468">
        <ele>21.305343</ele>
        <time>2020-08-30T10:46:01.204Z</time>
      </trkpt>
      <trkpt lat="59.84561" lon="18.74405">
        <ele>21.969536</ele>
        <time>2020-08-30T10:46:09.616Z</time>
      </trkpt>
      <trkpt lat="59.84547" lon="18.74318">
        <ele>22.916615</ele>
        <time>2020-08-30T10:46:21.088Z</time>
      </trkpt>
      <trkpt lat="59.84532" lon="18.74262">
        <ele>23.589577</ele>
        <time>2020-08-30T10:46:28.873Z</time>
      </trkpt>
      <trkpt lat="59.8451" lon="18.74214">
        <ele>24.260469</ele>
        <time>2020-08-30T10:46:36.366Z</time>
      </trkpt>
      <trkpt lat="59.84465" lon="18.74151">
        <ele>25.002153</ele>
        <time>2020-08-30T10:46:49.318Z</time>
      </trkpt>
      <trkpt lat="59.84402" lon="18.74046">
        <ele>25.903749</ele>
        <time>2020-08-30T10:47:07.307Z</time>
      </trkpt>
      <trkpt lat="59.84378" lon="18.74026">
        <ele>26.191128</ele>
        <time>2020-08-30T10:47:12.873Z</time>
      </trkpt>
      <trkpt lat="59.84355" lon="18.74036">
        <ele>26.453903</ele>
        <time>2020-08-30T10:47:17.686Z</time>
      </trkpt>
      <trkpt lat="59.84342" lon="18.74054">
        <ele>26.570785</ele>
        <time>2020-08-30T10:47:21.525Z</time>
      </trkpt>
      <trkpt lat="59.8433" lon="18.74075">
        <ele>26.642893</ele>
        <time>2020-08-30T10:47:24.577Z</time>
      </trkpt>
      <trkpt lat="59.84303" lon="18.74102">
        <ele>26.779257</ele>
        <time>2020-08-30T10:47:31.005Z</time>
      </trkpt>
      <trkpt lat="59.84288" lon="18.7411">
        <ele>26.851841</ele>
        <time>2020-08-30T10:47:34.285Z</time>
      </trkpt>
      <trkpt lat="59.84278" lon="18.74114">
        <ele>26.90057</ele>
        <time>2020-08-30T10:47:36.623Z</time>
      </trkpt>
      <trkpt lat="59.84231" lon="18.74107">
        <ele>27.112611</ele>
        <time>2020-08-30T10:47:45.800Z</time>
      </trkpt>
      <trkpt lat="59.8417" lon="18.74049">
        <ele>27.262092</ele>
        <time>2020-08-30T10:47:58.371Z</time>
      </trkpt>
      <trkpt lat="59.84082" lon="18.74034">
        <ele>26.79854</ele>
        <time>2020-08-30T10:48:14.089Z</time>
      </trkpt>
      <trkpt lat="59.84054" lon="18.74038">
        <ele>26.647366</ele>
        <time>2020-08-30T10:48:19.100Z</time>
      </trkpt>
      <trkpt lat="59.84018" lon="18.74056">
        <ele>26.451489</ele>
        <time>2020-08-30T10:48:25.377Z</time>
      </trkpt>
      <trkpt lat="59.83895" lon="18.74151">
        <ele>23.798502</ele>
        <time>2020-08-30T10:48:45.134Z</time>
      </trkpt>
      <trkpt lat="59.83869" lon="18.74161">
        <ele>23.226097</ele>
        <time>2020-08-30T10:48:48.961Z</time>
      </trkpt>
      <trkpt lat="59.83857" lon="18.74166">
        <ele>22.97979</ele>
        <time>2020-08-30T10:48:50.560Z</time>
      </trkpt>
      <trkpt lat="59.83845" lon="18.74171">
        <ele>22.714948</ele>
        <time>2020-08-30T10:48:52.192Z</time>
      </trkpt>
      <trkpt lat="59.83828" lon="18.74174">
        <ele>22.236125</ele>
        <time>2020-08-30T10:48:54.559Z</time>
      </trkpt>
      <trkpt lat="59.8382" lon="18.74175">
        <ele>21.952714</ele>
        <time>2020-08-30T10:48:55.699Z</time>
      </trkpt>
      <trkpt lat="59.83804" lon="18.74173">
        <ele>21.428752</ele>
        <time>2020-08-30T10:48:57.732Z</time>
      </trkpt>
      <trkpt lat="59.83756" lon="18.7416">
        <ele>19.794888</ele>
        <time>2020-08-30T10:49:04.408Z</time>
      </trkpt>
      <trkpt lat="59.83721" lon="18.74136">
        <ele>18.58303</ele>
        <time>2020-08-30T10:49:09.249Z</time>
      </trkpt>
      <trkpt lat="59.83702" lon="18.7412">
        <ele>17.882447</ele>
        <time>2020-08-30T10:49:11.952Z</time>
      </trkpt>
      <trkpt lat="59.83672" lon="18.74096">
        <ele>16.810507</ele>
        <time>2020-08-30T10:49:16.395Z</time>
      </trkpt>
      <trkpt lat="59.83608" lon="18.74044">
        <ele>15.933221</ele>
        <time>2020-08-30T10:49:26.573Z</time>
      </trkpt>
      <trkpt lat="59.83565" lon="18.74009">
        <ele>15.459882</ele>
        <time>2020-08-30T10:49:33.805Z</time>
      </trkpt>
      <trkpt lat="59.83482" lon="18.73942">
        <ele>14.729888</ele>
        <time>2020-08-30T10:49:51.829Z</time>
      </trkpt>
      <trkpt lat="59.8337" lon="18.73854">
        <ele>14.802195</ele>
        <time>2020-08-30T10:50:15.586Z</time>
      </trkpt>
      <trkpt lat="59.83256" lon="18.73765">
        <ele>14.154805</ele>
        <time>2020-08-30T10:50:36.051Z</time>
      </trkpt>
      <trkpt lat="59.83158" lon="18.73686">
        <ele>13.289113</ele>
        <time>2020-08-30T10:50:52.973Z</time>
      </trkpt>
      <trkpt lat="59.83076" lon="18.73623">
        <ele>12.642365</ele>
        <time>2020-08-30T10:51:07.816Z</time>
      </trkpt>
      <trkpt lat="59.83039" lon="18.73593">
        <ele>12.344105</ele>
        <time>2020-08-30T10:51:14.603Z</time>
      </trkpt>
      <trkpt lat="59.83009" lon="18.73573">
        <ele>12.113836</ele>
        <time>2020-08-30T10:51:19.715Z</time>
      </trkpt>
      <trkpt lat="59.82959" lon="18.73557">
        <ele>12.291277</ele>
        <time>2020-08-30T10:51:28.002Z</time>
      </trkpt>
      <trkpt lat="59.82906" lon="18.73572">
        <ele>12.687395</ele>
        <time>2020-08-30T10:51:38.027Z</time>
      </trkpt>
      <trkpt lat="59.82884" lon="18.73586">
        <ele>12.858215</ele>
        <time>2020-08-30T10:51:42.853Z</time>
      </trkpt>
      <trkpt lat="59.82846" lon="18.73614">
        <ele>13.163819</ele>
        <time>2020-08-30T10:51:52.996Z</time>
      </trkpt>
      <trkpt lat="59.82839" lon="18.73626">
        <ele>13.234391</ele>
        <time>2020-08-30T10:51:55.698Z</time>
      </trkpt>
      <trkpt lat="59.82829" lon="18.73658">
        <ele>13.438093</ele>
        <time>2020-08-30T10:52:00.349Z</time>
      </trkpt>
      <trkpt lat="59.82827" lon="18.73683">
        <ele>13.789233</ele>
        <time>2020-08-30T10:52:03.713Z</time>
      </trkpt>
      <trkpt lat="59.82835" lon="18.73796">
        <ele>15.423887</ele>
        <time>2020-08-30T10:52:19.258Z</time>
      </trkpt>
      <trkpt lat="59.82837" lon="18.73861">
        <ele>16.350919</ele>
        <time>2020-08-30T10:52:29.230Z</time>
      </trkpt>
      <trkpt lat="59.82838" lon="18.73931">
        <ele>17.353302</ele>
        <time>2020-08-30T10:52:39.252Z</time>
      </trkpt>
      <trkpt lat="59.82829" lon="18.74076">
        <ele>18.683416</ele>
        <time>2020-08-30T10:52:58.292Z</time>
      </trkpt>
      <trkpt lat="59.82822" lon="18.74145">
        <ele>18.916621</ele>
        <time>2020-08-30T10:53:05.782Z</time>
      </trkpt>
      <trkpt lat="59.82814" lon="18.74212">
        <ele>19.148611</ele>
        <time>2020-08-30T10:53:12.076Z</time>
      </trkpt>
      <trkpt lat="59.82793" lon="18.74343">
        <ele>19.605559</ele>
        <time>2020-08-30T10:53:23.713Z</time>
      </trkpt>
      <trkpt lat="59.82624" lon="18.74985">
        <ele>18.477504</ele>
        <time>2020-08-30T10:54:24.537Z</time>
      </trkpt>
      <trkpt lat="59.82535" lon="18.75319">
        <ele>20.18811</ele>
        <time>2020-08-30T10:55:03.174Z</time>
      </trkpt>
      <trkpt lat="59.82515" lon="18.75396">
        <ele>21.472698</ele>
        <time>2020-08-30T10:55:14.236Z</time>
      </trkpt>
      <trkpt lat="59.82504" lon="18.75439">
        <ele>22.185164</ele>
        <time>2020-08-30T10:55:20.932Z</time>
      </trkpt>
      <trkpt lat="59.82427" lon="18.7572">
        <ele>26.952782</ele>
        <time>2020-08-30T10:56:08.878Z</time>
      </trkpt>
      <trkpt lat="59.82391" lon="18.75802">
        <ele>28.570184</ele>
        <time>2020-08-30T10:56:23.909Z</time>
      </trkpt>
      <trkpt lat="59.8237" lon="18.75834">
        <ele>29.36058</ele>
        <time>2020-08-30T10:56:30.923Z</time>
      </trkpt>
      <trkpt lat="59.82321" lon="18.75894">
        <ele>30.751366</ele>
        <time>2020-08-30T10:56:45.267Z</time>
      </trkpt>
      <trkpt lat="59.82281" lon="18.75925">
        <ele>31.172604</ele>
        <time>2020-08-30T10:56:55.101Z</time>
      </trkpt>
      <trkpt lat="59.82219" lon="18.75947">
        <ele>31.798889</ele>
        <time>2020-08-30T10:57:08.298Z</time>
      </trkpt>
      <trkpt lat="59.82169" lon="18.75943">
        <ele>32.287518</ele>
        <time>2020-08-30T10:57:17.559Z</time>
      </trkpt>
      <trkpt lat="59.82151" lon="18.75937">
        <ele>32.311401</ele>
        <time>2020-08-30T10:57:20.778Z</time>
      </trkpt>
      <trkpt lat="59.8208" lon="18.75911">
        <ele>31.915244</ele>
        <time>2020-08-30T10:57:32.952Z</time>
      </trkpt>
      <trkpt lat="59.82045" lon="18.75905">
        <ele>31.725151</ele>
        <time>2020-08-30T10:57:38.584Z</time>
      </trkpt>
      <trkpt lat="59.8182" lon="18.75907">
        <ele>29.666072</ele>
        <time>2020-08-30T10:58:13.614Z</time>
      </trkpt>
      <trkpt lat="59.81549" lon="18.75918">
        <ele>25.860275</ele>
        <time>2020-08-30T10:58:53.733Z</time>
      </trkpt>
      <trkpt lat="59.81529" lon="18.75917">
        <ele>25.56927</ele>
        <time>2020-08-30T10:58:56.540Z</time>
      </trkpt>
      <trkpt lat="59.81513" lon="18.75915">
        <ele>25.332795</ele>
        <time>2020-08-30T10:58:58.786Z</time>
      </trkpt>
      <trkpt lat="59.81477" lon="18.75908">
        <ele>24.792922</ele>
        <time>2020-08-30T10:59:04.034Z</time>
      </trkpt>
      <trkpt lat="59.81421" lon="18.75867">
        <ele>24.063355</ele>
        <time>2020-08-30T10:59:12.980Z</time>
      </trkpt>
      <trkpt lat="59.81326" lon="18.75757">
        <ele>23.146491</ele>
        <time>2020-08-30T10:59:30.171Z</time>
      </trkpt>
      <trkpt lat="59.81183" lon="18.75563">
        <ele>22.021533</ele>
        <time>2020-08-30T10:59:59.303Z</time>
      </trkpt>
      <trkpt lat="59.81112" lon="18.75498">
        <ele>21.578444</ele>
        <time>2020-08-30T11:00:11.365Z</time>
      </trkpt>
      <trkpt lat="59.81024" lon="18.75463">
        <ele>21.108657</ele>
        <time>2020-08-30T11:00:25.726Z</time>
      </trkpt>
      <trkpt lat="59.80985" lon="18.7546">
        <ele>20.907351</ele>
        <time>2020-08-30T11:00:32.224Z</time>
      </trkpt>
      <trkpt lat="59.80917" lon="18.75467">
        <ele>20.99864</ele>
        <time>2020-08-30T11:00:44.904Z</time>
      </trkpt>
      <trkpt lat="59.80829" lon="18.75473">
        <ele>21.425846</ele>
        <time>2020-08-30T11:01:03.068Z</time>
      </trkpt>
      <trkpt lat="59.80756" lon="18.75481">
        <ele>21.340245</ele>
        <time>2020-08-30T11:01:17.341Z</time>
      </trkpt>
      <trkpt lat="59.80721" lon="18.75485">
        <ele>20.92205</ele>
        <time>2020-08-30T11:01:23.044Z</time>
      </trkpt>
      <trkpt lat="59.80624" lon="18.7551">
        <ele>19.739721</ele>
        <time>2020-08-30T11:01:37.140Z</time>
      </trkpt>
      <trkpt lat="59.80519" lon="18.75571">
        <ele>18.181874</ele>
        <time>2020-08-30T11:01:52.150Z</time>
      </trkpt>
      <trkpt lat="59.80472" lon="18.75603">
        <ele>17.462213</ele>
        <time>2020-08-30T11:01:59.216Z</time>
      </trkpt>
      <trkpt lat="59.80248" lon="18.7576">
        <ele>17.315923</ele>
        <time>2020-08-30T11:02:45.125Z</time>
      </trkpt>
      <trkpt lat="59.80129" lon="18.75844">
        <ele>16.764511</ele>
        <time>2020-08-30T11:03:06.059Z</time>
      </trkpt>
      <trkpt lat="59.80072" lon="18.75884">
        <ele>16.603129</ele>
        <time>2020-08-30T11:03:15.402Z</time>
      </trkpt>
      <trkpt lat="59.80068" lon="18.75887">
        <ele>16.603506</ele>
        <time>2020-08-30T11:03:16.007Z</time>
      </trkpt>
      <trkpt lat="59.79994" lon="18.75904">
        <ele>16.609811</ele>
        <time>2020-08-30T11:03:27.977Z</time>
      </trkpt>
      <trkpt lat="59.79897" lon="18.75891">
        <ele>17.096927</ele>
        <time>2020-08-30T11:03:47.602Z</time>
      </trkpt>
      <trkpt lat="59.79829" lon="18.75888">
        <ele>18.793766</ele>
        <time>2020-08-30T11:04:05.081Z</time>
      </trkpt>
      <trkpt lat="59.79809" lon="18.75888">
        <ele>19.286672</ele>
        <time>2020-08-30T11:04:10.320Z</time>
      </trkpt>
      <trkpt lat="59.7975" lon="18.75882">
        <ele>20.769811</ele>
        <time>2020-08-30T11:04:27.109Z</time>
      </trkpt>
      <trkpt lat="59.79704" lon="18.75867">
        <ele>21.865963</ele>
        <time>2020-08-30T11:04:40.435Z</time>
      </trkpt>
      <trkpt lat="59.79671" lon="18.75842">
        <ele>22.647915</ele>
        <time>2020-08-30T11:04:49.987Z</time>
      </trkpt>
      <trkpt lat="59.79634" lon="18.75796">
        <ele>23.652048</ele>
        <time>2020-08-30T11:05:01.916Z</time>
      </trkpt>
      <trkpt lat="59.79601" lon="18.75743">
        <ele>24.614998</ele>
        <time>2020-08-30T11:05:12.265Z</time>
      </trkpt>
      <trkpt lat="59.79492" lon="18.75514">
        <ele>24.674062</ele>
        <time>2020-08-30T11:05:40.808Z</time>
      </trkpt>
      <trkpt lat="59.79405" lon="18.75348">
        <ele>22.632404</ele>
        <time>2020-08-30T11:05:57.932Z</time>
      </trkpt>
      <trkpt lat="59.79372" lon="18.75316">
        <ele>21.711065</ele>
        <time>2020-08-30T11:06:02.648Z</time>
      </trkpt>
      <trkpt lat="59.79342" lon="18.75303">
        <ele>20.909299</ele>
        <time>2020-08-30T11:06:06.740Z</time>
      </trkpt>
      <trkpt lat="59.7931" lon="18.75304">
        <ele>20.121367</ele>
        <time>2020-08-30T11:06:10.837Z</time>
      </trkpt>
      <trkpt lat="59.79259" lon="18.75336">
        <ele>19.01845</ele>
        <time>2020-08-30T11:06:18.160Z</time>
      </trkpt>
      <trkpt lat="59.79252" lon="18.75343">
        <ele>18.861293</ele>
        <time>2020-08-30T11:06:19.124Z</time>
      </trkpt>
      <trkpt lat="59.79241" lon="18.7536">
        <ele>18.566129</ele>
        <time>2020-08-30T11:06:21.240Z</time>
      </trkpt>
      <trkpt lat="59.79206" lon="18.75429">
        <ele>17.590954</ele>
        <time>2020-08-30T11:06:28.227Z</time>
      </trkpt>
      <trkpt lat="59.79189" lon="18.75481">
        <ele>16.967219</ele>
        <time>2020-08-30T11:06:32.672Z</time>
      </trkpt>
      <trkpt lat="59.7914" lon="18.75782">
        <ele>15.107206</ele>
        <time>2020-08-30T11:06:57.618Z</time>
      </trkpt>
      <trkpt lat="59.79126" lon="18.75832">
        <ele>14.82769</ele>
        <time>2020-08-30T11:07:02.226Z</time>
      </trkpt>
      <trkpt lat="59.79051" lon="18.76013">
        <ele>13.277807</ele>
        <time>2020-08-30T11:07:20.239Z</time>
      </trkpt>
      <trkpt lat="59.78991" lon="18.76131">
        <ele>12.10109</ele>
        <time>2020-08-30T11:07:32.494Z</time>
      </trkpt>
      <trkpt lat="59.78949" lon="18.762">
        <ele>11.320197</ele>
        <time>2020-08-30T11:07:40.281Z</time>
      </trkpt>
      <trkpt lat="59.78826" lon="18.76351">
        <ele>9.526919</ele>
        <time>2020-08-30T11:08:01.765Z</time>
      </trkpt>
      <trkpt lat="59.78773" lon="18.76452">
        <ele>9.556449</ele>
        <time>2020-08-30T11:08:14.354Z</time>
      </trkpt>
      <trkpt lat="59.78698" lon="18.7667">
        <ele>10.099446</ele>
        <time>2020-08-30T11:08:41.153Z</time>
      </trkpt>
      <trkpt lat="59.78643" lon="18.76878">
        <ele>11.423355</ele>
        <time>2020-08-30T11:09:07.275Z</time>
      </trkpt>
      <trkpt lat="59.78553" lon="18.77169">
        <ele>12.947108</ele>
        <time>2020-08-30T11:09:43.321Z</time>
      </trkpt>
      <trkpt lat="59.78472" lon="18.77413">
        <ele>13.535878</ele>
        <time>2020-08-30T11:10:10.687Z</time>
      </trkpt>
      <trkpt lat="59.78446" lon="18.77473">
        <ele>13.659262</ele>
        <time>2020-08-30T11:10:18.117Z</time>
      </trkpt>
      <trkpt lat="59.78427" lon="18.77498">
        <ele>13.733976</ele>
        <time>2020-08-30T11:10:22.584Z</time>
      </trkpt>
      <trkpt lat="59.78412" lon="18.77515">
        <ele>13.800158</ele>
        <time>2020-08-30T11:10:25.762Z</time>
      </trkpt>
      <trkpt lat="59.78351" lon="18.77442">
        <ele>14.073155</ele>
        <time>2020-08-30T11:10:39.544Z</time>
      </trkpt>
      <trkpt lat="59.78321" lon="18.77411">
        <ele>14.202484</ele>
        <time>2020-08-30T11:10:46.175Z</time>
      </trkpt>
      <trkpt lat="59.78312" lon="18.77401">
        <ele>14.241887</ele>
        <time>2020-08-30T11:10:48.282Z</time>
      </trkpt>
      <trkpt lat="59.78148" lon="18.77193">
        <ele>14.220324</ele>
        <time>2020-08-30T11:11:23.771Z</time>
      </trkpt>
      <trkpt lat="59.7808" lon="18.77082">
        <ele>13.452063</ele>
        <time>2020-08-30T11:11:37.319Z</time>
      </trkpt>
      <trkpt lat="59.77995" lon="18.76938">
        <ele>12.099817</ele>
        <time>2020-08-30T11:11:53.695Z</time>
      </trkpt>
      <trkpt lat="59.77963" lon="18.76882">
        <ele>11.985779</ele>
        <time>2020-08-30T11:12:00.017Z</time>
      </trkpt>
      <trkpt lat="59.77943" lon="18.7684">
        <ele>11.961075</ele>
        <time>2020-08-30T11:12:04.933Z</time>
      </trkpt>
      <trkpt lat="59.77937" lon="18.76827">
        <ele>11.953914</ele>
        <time>2020-08-30T11:12:06.346Z</time>
      </trkpt>
      <trkpt lat="59.77921" lon="18.76789">
        <ele>11.93244</ele>
        <time>2020-08-30T11:12:11.020Z</time>
      </trkpt>
      <trkpt lat="59.7791" lon="18.76759">
        <ele>11.916822</ele>
        <time>2020-08-30T11:12:14.487Z</time>
      </trkpt>
      <trkpt lat="59.77895" lon="18.76715">
        <ele>11.894408</ele>
        <time>2020-08-30T11:12:19.906Z</time>
      </trkpt>
      <trkpt lat="59.77886" lon="18.76687">
        <ele>11.880353</ele>
        <time>2020-08-30T11:12:23.402Z</time>
      </trkpt>
      <trkpt lat="59.77863" lon="18.76601">
        <ele>11.862757</ele>
        <time>2020-08-30T11:12:33.794Z</time>
      </trkpt>
      <trkpt lat="59.77804" lon="18.76369">
        <ele>11.859036</ele>
        <time>2020-08-30T11:12:57.760Z</time>
      </trkpt>
      <trkpt lat="59.77802" lon="18.7636">
        <ele>11.85889</ele>
        <time>2020-08-30T11:12:58.385Z</time>
      </trkpt>
      <trkpt lat="59.77741" lon="18.76118">
        <ele>10.649007</ele>
        <time>2020-08-30T11:13:18.904Z</time>
      </trkpt>
      <trkpt lat="59.77714" lon="18.76015">
        <ele>10.074235</ele>
        <time>2020-08-30T11:13:27.706Z</time>
      </trkpt>
      <trkpt lat="59.77693" lon="18.75933">
        <ele>10.688814</ele>
        <time>2020-08-30T11:13:36.346Z</time>
      </trkpt>
      <trkpt lat="59.77673" lon="18.75857">
        <ele>11.250066</ele>
        <time>2020-08-30T11:13:45.637Z</time>
      </trkpt>
      <trkpt lat="59.7761" lon="18.75611">
        <ele>13.440079</ele>
        <time>2020-08-30T11:14:20.947Z</time>
      </trkpt>
      <trkpt lat="59.77579" lon="18.75492">
        <ele>14.814877</ele>
        <time>2020-08-30T11:14:38.175Z</time>
      </trkpt>
      <trkpt lat="59.77541" lon="18.75353">
        <ele>16.072597</ele>
        <time>2020-08-30T11:14:56.738Z</time>
      </trkpt>
      <trkpt lat="59.77523" lon="18.75295">
        <ele>15.987773</ele>
        <time>2020-08-30T11:15:03.653Z</time>
      </trkpt>
      <trkpt lat="59.77494" lon="18.75206">
        <ele>15.855356</ele>
        <time>2020-08-30T11:15:13.287Z</time>
      </trkpt>
      <trkpt lat="59.77356" lon="18.74855">
        <ele>13.602297</ele>
        <time>2020-08-30T11:15:46.027Z</time>
      </trkpt>
      <trkpt lat="59.77335" lon="18.74799">
        <ele>13.151341</ele>
        <time>2020-08-30T11:15:51.457Z</time>
      </trkpt>
      <trkpt lat="59.77307" lon="18.74725">
        <ele>13.07946</ele>
        <time>2020-08-30T11:15:59.116Z</time>
      </trkpt>
      <trkpt lat="59.77249" lon="18.74553">
        <ele>12.91752</ele>
        <time>2020-08-30T11:16:18.264Z</time>
      </trkpt>
      <trkpt lat="59.77209" lon="18.74377">
        <ele>12.41651</ele>
        <time>2020-08-30T11:16:35.886Z</time>
      </trkpt>
      <trkpt lat="59.77199" lon="18.74366">
        <ele>12.347055</ele>
        <time>2020-08-30T11:16:37.675Z</time>
      </trkpt>
      <trkpt lat="59.77179" lon="18.74249">
        <ele>11.946212</ele>
        <time>2020-08-30T11:16:48.246Z</time>
      </trkpt>
      <trkpt lat="59.77153" lon="18.74006">
        <ele>10.550476</ele>
        <time>2020-08-30T11:17:06.954Z</time>
      </trkpt>
      <trkpt lat="59.77147" lon="18.73952">
        <ele>10.189068</ele>
        <time>2020-08-30T11:17:11.279Z</time>
      </trkpt>
      <trkpt lat="59.77138" lon="18.73873">
        <ele>9.656176</ele>
        <time>2020-08-30T11:17:17.747Z</time>
      </trkpt>
      <trkpt lat="59.77128" lon="18.73818">
        <ele>9.480524</ele>
        <time>2020-08-30T11:17:22.772Z</time>
      </trkpt>
      <trkpt lat="59.77124" lon="18.73779">
        <ele>9.739237</ele>
        <time>2020-08-30T11:17:26.307Z</time>
      </trkpt>
      <trkpt lat="59.77122" lon="18.73663">
        <ele>10.478556</ele>
        <time>2020-08-30T11:17:38.696Z</time>
      </trkpt>
      <trkpt lat="59.77117" lon="18.73584">
        <ele>10.979306</ele>
        <time>2020-08-30T11:17:48.286Z</time>
      </trkpt>
      <trkpt lat="59.77112" lon="18.73515">
        <ele>11.427408</ele>
        <time>2020-08-30T11:17:57.796Z</time>
      </trkpt>
      <trkpt lat="59.77099" lon="18.73351">
        <ele>12.360807</ele>
        <time>2020-08-30T11:18:20.926Z</time>
      </trkpt>
      <trkpt lat="59.77076" lon="18.73165">
        <ele>13.403007</ele>
        <time>2020-08-30T11:18:40.480Z</time>
      </trkpt>
      <trkpt lat="59.77073" lon="18.73142">
        <ele>13.530681</ele>
        <time>2020-08-30T11:18:43.172Z</time>
      </trkpt>
      <trkpt lat="59.7707" lon="18.73126">
        <ele>13.560214</ele>
        <time>2020-08-30T11:18:44.340Z</time>
      </trkpt>
      <trkpt lat="59.7704" lon="18.72956">
        <ele>12.40231</ele>
        <time>2020-08-30T11:18:58.954Z</time>
      </trkpt>
      <trkpt lat="59.77031" lon="18.72907">
        <ele>12.065633</ele>
        <time>2020-08-30T11:19:02.733Z</time>
      </trkpt>
      <trkpt lat="59.77014" lon="18.72825">
        <ele>11.498783</ele>
        <time>2020-08-30T11:19:09.338Z</time>
      </trkpt>
      <trkpt lat="59.77" lon="18.7279">
        <ele>11.301808</ele>
        <time>2020-08-30T11:19:12.941Z</time>
      </trkpt>
      <trkpt lat="59.76993" lon="18.72794">
        <ele>11.306531</ele>
        <time>2020-08-30T11:19:13.869Z</time>
      </trkpt>
      <trkpt lat="59.76916" lon="18.72875">
        <ele>11.368376</ele>
        <time>2020-08-30T11:19:29.082Z</time>
      </trkpt>
      <trkpt lat="59.76851" lon="18.72768">
        <ele>11.509302</ele>
        <time>2020-08-30T11:19:47.965Z</time>
      </trkpt>
      <trkpt lat="59.7684" lon="18.72739">
        <ele>11.743774</ele>
        <time>2020-08-30T11:19:52.175Z</time>
      </trkpt>
      <trkpt lat="59.76834" lon="18.72733">
        <ele>11.835964</ele>
        <time>2020-08-30T11:19:54.030Z</time>
      </trkpt>
      <trkpt lat="59.76838" lon="18.72644">
        <ele>12.429591</ele>
        <time>2020-08-30T11:20:04.032Z</time>
      </trkpt>
      <trkpt lat="59.76831" lon="18.72619">
        <ele>12.613068</ele>
        <time>2020-08-30T11:20:07.196Z</time>
      </trkpt>
      <trkpt lat="59.76831" lon="18.72584">
        <ele>12.850243</ele>
        <time>2020-08-30T11:20:11.220Z</time>
      </trkpt>
      <trkpt lat="59.76831" lon="18.72556">
        <ele>13.033606</ele>
        <time>2020-08-30T11:20:14.311Z</time>
      </trkpt>
      <trkpt lat="59.76831" lon="18.72515">
        <ele>13.30814</ele>
        <time>2020-08-30T11:20:18.991Z</time>
      </trkpt>
      <trkpt lat="59.7683" lon="18.72487">
        <ele>13.490957</ele>
        <time>2020-08-30T11:20:22.039Z</time>
      </trkpt>
      <trkpt lat="59.76837" lon="18.72429">
        <ele>13.815297</ele>
        <time>2020-08-30T11:20:28.727Z</time>
      </trkpt>
      <trkpt lat="59.76827" lon="18.72333">
        <ele>13.941348</ele>
        <time>2020-08-30T11:20:38.584Z</time>
      </trkpt>
      <trkpt lat="59.76808" lon="18.72151">
        <ele>14.182471</ele>
        <time>2020-08-30T11:20:55.018Z</time>
      </trkpt>
      <trkpt lat="59.76804" lon="18.72107">
        <ele>14.240941</ele>
        <time>2020-08-30T11:20:58.777Z</time>
      </trkpt>
      <trkpt lat="59.76801" lon="18.72085">
        <ele>14.29435</ele>
        <time>2020-08-30T11:21:00.671Z</time>
      </trkpt>
      <trkpt lat="59.768" lon="18.72073">
        <ele>14.350846</ele>
        <time>2020-08-30T11:21:01.723Z</time>
      </trkpt>
      <trkpt lat="59.76799" lon="18.72058">
        <ele>14.416278</ele>
        <time>2020-08-30T11:21:03.049Z</time>
      </trkpt>
      <trkpt lat="59.76791" lon="18.71956">
        <ele>14.882384</ele>
        <time>2020-08-30T11:21:13.021Z</time>
      </trkpt>
      <trkpt lat="59.76789" lon="18.71887">
        <ele>15.190985</ele>
        <time>2020-08-30T11:21:20.258Z</time>
      </trkpt>
      <trkpt lat="59.76787" lon="18.71841">
        <ele>15.397077</ele>
        <time>2020-08-30T11:21:25.312Z</time>
      </trkpt>
      <trkpt lat="59.76783" lon="18.71798">
        <ele>15.595029</ele>
        <time>2020-08-30T11:21:30.264Z</time>
      </trkpt>
      <trkpt lat="59.76777" lon="18.71771">
        <ele>15.725966</ele>
        <time>2020-08-30T11:21:33.644Z</time>
      </trkpt>
      <trkpt lat="59.76761" lon="18.71692">
        <ele>16.417484</ele>
        <time>2020-08-30T11:21:43.915Z</time>
      </trkpt>
      <trkpt lat="59.76755" lon="18.7166">
        <ele>16.754215</ele>
        <time>2020-08-30T11:21:48.292Z</time>
      </trkpt>
      <trkpt lat="59.76713" lon="18.71482">
        <ele>18.720736</ele>
        <time>2020-08-30T11:22:13.046Z</time>
      </trkpt>
      <trkpt lat="59.76705" lon="18.71471">
        <ele>18.912365</ele>
        <time>2020-08-30T11:22:15.790Z</time>
      </trkpt>
      <trkpt lat="59.76705" lon="18.71458">
        <ele>19.038807</ele>
        <time>2020-08-30T11:22:17.119Z</time>
      </trkpt>
      <trkpt lat="59.76696" lon="18.71419">
        <ele>19.459371</ele>
        <time>2020-08-30T11:22:22.782Z</time>
      </trkpt>
      <trkpt lat="59.76691" lon="18.71394">
        <ele>19.672035</ele>
        <time>2020-08-30T11:22:26.161Z</time>
      </trkpt>
      <trkpt lat="59.76683" lon="18.71348">
        <ele>20.055457</ele>
        <time>2020-08-30T11:22:32.507Z</time>
      </trkpt>
      <trkpt lat="59.76648" lon="18.71189">
        <ele>21.409843</ele>
        <time>2020-08-30T11:22:53.044Z</time>
      </trkpt>
      <trkpt lat="59.76644" lon="18.71173">
        <ele>21.557176</ele>
        <time>2020-08-30T11:22:55.309Z</time>
      </trkpt>
      <trkpt lat="59.76635" lon="18.71157">
        <ele>21.739487</ele>
        <time>2020-08-30T11:22:58.130Z</time>
      </trkpt>
      <trkpt lat="59.76613" lon="18.71124">
        <ele>22.161374</ele>
        <time>2020-08-30T11:23:04.309Z</time>
      </trkpt>
      <trkpt lat="59.76609" lon="18.71113">
        <ele>22.234126</ele>
        <time>2020-08-30T11:23:06.079Z</time>
      </trkpt>
      <trkpt lat="59.76603" lon="18.71096">
        <ele>22.243188</ele>
        <time>2020-08-30T11:23:08.297Z</time>
      </trkpt>
      <trkpt lat="59.76576" lon="18.7091">
        <ele>22.32542</ele>
        <time>2020-08-30T11:23:31.306Z</time>
      </trkpt>
      <trkpt lat="59.76567" lon="18.7085">
        <ele>22.35215</ele>
        <time>2020-08-30T11:23:38.142Z</time>
      </trkpt>
      <trkpt lat="59.76559" lon="18.70798">
        <ele>22.375314</ele>
        <time>2020-08-30T11:23:42.749Z</time>
      </trkpt>
      <trkpt lat="59.76545" lon="18.70711">
        <ele>22.227928</ele>
        <time>2020-08-30T11:23:50.382Z</time>
      </trkpt>
      <trkpt lat="59.7654" lon="18.70692">
        <ele>22.178636</ele>
        <time>2020-08-30T11:23:52.385Z</time>
      </trkpt>
      <trkpt lat="59.76534" lon="18.70676">
        <ele>22.13501</ele>
        <time>2020-08-30T11:23:54.280Z</time>
      </trkpt>
      <trkpt lat="59.76531" lon="18.70656">
        <ele>22.090799</ele>
        <time>2020-08-30T11:23:56.070Z</time>
      </trkpt>
      <trkpt lat="59.76482" lon="18.70658">
        <ele>21.87325</ele>
        <time>2020-08-30T11:24:04.262Z</time>
      </trkpt>
      <trkpt lat="59.76376" lon="18.70661">
        <ele>20.984223</ele>
        <time>2020-08-30T11:24:21.583Z</time>
      </trkpt>
      <trkpt lat="59.76355" lon="18.70661">
        <ele>20.692177</ele>
        <time>2020-08-30T11:24:24.844Z</time>
      </trkpt>
      <trkpt lat="59.76146" lon="18.70663">
        <ele>16.891583</ele>
        <time>2020-08-30T11:24:54.591Z</time>
      </trkpt>
      <trkpt lat="59.76141" lon="18.70663">
        <ele>16.759938</ele>
        <time>2020-08-30T11:24:55.269Z</time>
      </trkpt>
      <trkpt lat="59.76082" lon="18.70664">
        <ele>15.40884</ele>
        <time>2020-08-30T11:25:03.438Z</time>
      </trkpt>
      <trkpt lat="59.76074" lon="18.70664">
        <ele>15.22177</ele>
        <time>2020-08-30T11:25:04.545Z</time>
      </trkpt>
      <trkpt lat="59.7606" lon="18.70665">
        <ele>14.903055</ele>
        <time>2020-08-30T11:25:06.304Z</time>
      </trkpt>
      <trkpt lat="59.76019" lon="18.70665">
        <ele>13.888405</ele>
        <time>2020-08-30T11:25:11.747Z</time>
      </trkpt>
      <trkpt lat="59.76005" lon="18.70665">
        <ele>13.543592</ele>
        <time>2020-08-30T11:25:13.662Z</time>
      </trkpt>
      <trkpt lat="59.75993" lon="18.70665">
        <ele>13.245519</ele>
        <time>2020-08-30T11:25:15.137Z</time>
      </trkpt>
      <trkpt lat="59.75926" lon="18.70666">
        <ele>11.600208</ele>
        <time>2020-08-30T11:25:24.035Z</time>
      </trkpt>
      <trkpt lat="59.7591" lon="18.70673">
        <ele>11.207629</ele>
        <time>2020-08-30T11:25:26.201Z</time>
      </trkpt>
      <trkpt lat="59.75905" lon="18.70676">
        <ele>11.067727</ele>
        <time>2020-08-30T11:25:27.031Z</time>
      </trkpt>
      <trkpt lat="59.75872" lon="18.70707">
        <ele>10.654823</ele>
        <time>2020-08-30T11:25:32.300Z</time>
      </trkpt>
      <trkpt lat="59.75817" lon="18.70767">
        <ele>11.987694</ele>
        <time>2020-08-30T11:25:43.718Z</time>
      </trkpt>
      <trkpt lat="59.75815" lon="18.70769">
        <ele>12.033834</ele>
        <time>2020-08-30T11:25:44.067Z</time>
      </trkpt>
      <trkpt lat="59.75813" lon="18.70771">
        <ele>12.081614</ele>
        <time>2020-08-30T11:25:44.491Z</time>
      </trkpt>
      <trkpt lat="59.75807" lon="18.70777">
        <ele>12.239502</ele>
        <time>2020-08-30T11:25:46.685Z</time>
      </trkpt>
      <trkpt lat="59.75795" lon="18.70786">
        <ele>12.505339</ele>
        <time>2020-08-30T11:25:49.889Z</time>
      </trkpt>
      <trkpt lat="59.75793" lon="18.70788">
        <ele>12.546758</ele>
        <time>2020-08-30T11:25:50.238Z</time>
      </trkpt>
      <trkpt lat="59.75759" lon="18.70813">
        <ele>13.325119</ele>
        <time>2020-08-30T11:25:59.756Z</time>
      </trkpt>
      <trkpt lat="59.75744" lon="18.70826">
        <ele>13.674611</ele>
        <time>2020-08-30T11:26:04.624Z</time>
      </trkpt>
      <trkpt lat="59.75729" lon="18.70837">
        <ele>13.998416</ele>
        <time>2020-08-30T11:26:10.590Z</time>
      </trkpt>
      <trkpt lat="59.75726" lon="18.70838">
        <ele>14.066849</ele>
        <time>2020-08-30T11:26:11.671Z</time>
      </trkpt>
      <trkpt lat="59.75717" lon="18.7084">
        <ele>14.306733</ele>
        <time>2020-08-30T11:26:14.953Z</time>
      </trkpt>
      <trkpt lat="59.75711" lon="18.70841">
        <ele>14.685815</ele>
        <time>2020-08-30T11:26:17.046Z</time>
      </trkpt>
      <trkpt lat="59.75699" lon="18.70845">
        <ele>15.396349</ele>
        <time>2020-08-30T11:26:22.453Z</time>
      </trkpt>
      <trkpt lat="59.75679" lon="18.70841">
        <ele>16.666438</ele>
        <time>2020-08-30T11:26:29.934Z</time>
      </trkpt>
      <trkpt lat="59.7563" lon="18.70813">
        <ele>19.805148</ele>
        <time>2020-08-30T11:26:51.810Z</time>
      </trkpt>
      <trkpt lat="59.75604" lon="18.70785">
        <ele>21.666526</ele>
        <time>2020-08-30T11:27:03.635Z</time>
      </trkpt>
      <trkpt lat="59.7558" lon="18.70759">
        <ele>23.341928</ele>
        <time>2020-08-30T11:27:13.816Z</time>
      </trkpt>
      <trkpt lat="59.75561" lon="18.70739">
        <ele>24.690477</ele>
        <time>2020-08-30T11:27:22.555Z</time>
      </trkpt>
      <trkpt lat="59.75537" lon="18.70717">
        <ele>25.690918</ele>
        <time>2020-08-30T11:27:30.746Z</time>
      </trkpt>
      <trkpt lat="59.75515" lon="18.70702">
        <ele>26.129751</ele>
        <time>2020-08-30T11:27:37.409Z</time>
      </trkpt>
      <trkpt lat="59.75496" lon="18.70693">
        <ele>26.497614</ele>
        <time>2020-08-30T11:27:42.832Z</time>
      </trkpt>
      <trkpt lat="59.75466" lon="18.70679">
        <ele>27.086037</ele>
        <time>2020-08-30T11:27:50.842Z</time>
      </trkpt>
      <trkpt lat="59.75439" lon="18.70673">
        <ele>27.613156</ele>
        <time>2020-08-30T11:27:56.722Z</time>
      </trkpt>
      <trkpt lat="59.75436" lon="18.70673">
        <ele>27.662681</ele>
        <time>2020-08-30T11:27:57.186Z</time>
      </trkpt>
      <trkpt lat="59.75387" lon="18.70668">
        <ele>28.607775</ele>
        <time>2020-08-30T11:28:06.187Z</time>
      </trkpt>
      <trkpt lat="59.75377" lon="18.70667">
        <ele>28.783051</ele>
        <time>2020-08-30T11:28:07.581Z</time>
      </trkpt>
      <trkpt lat="59.75368" lon="18.70644">
        <ele>28.767663</ele>
        <time>2020-08-30T11:28:10.138Z</time>
      </trkpt>
      <trkpt lat="59.7534" lon="18.70605">
        <ele>28.585891</ele>
        <time>2020-08-30T11:28:15.798Z</time>
      </trkpt>
      <trkpt lat="59.75318" lon="18.70563">
        <ele>28.425699</ele>
        <time>2020-08-30T11:28:20.766Z</time>
      </trkpt>
      <trkpt lat="59.75277" lon="18.70453">
        <ele>28.054604</ele>
        <time>2020-08-30T11:28:32.347Z</time>
      </trkpt>
      <trkpt lat="59.75254" lon="18.70458">
        <ele>27.93115</ele>
        <time>2020-08-30T11:28:36.453Z</time>
      </trkpt>
      <trkpt lat="59.75201" lon="18.70467">
        <ele>27.747186</ele>
        <time>2020-08-30T11:28:46.405Z</time>
      </trkpt>
      <trkpt lat="59.75177" lon="18.70451">
        <ele>27.671734</ele>
        <time>2020-08-30T11:28:51.088Z</time>
      </trkpt>
      <trkpt lat="59.75149" lon="18.70419">
        <ele>27.57519</ele>
        <time>2020-08-30T11:28:57.010Z</time>
      </trkpt>
      <trkpt lat="59.75001" lon="18.70245">
        <ele>25.834467</ele>
        <time>2020-08-30T11:29:26.333Z</time>
      </trkpt>
      <trkpt lat="59.74964" lon="18.70208">
        <ele>25.168</ele>
        <time>2020-08-30T11:29:32.377Z</time>
      </trkpt>
      <trkpt lat="59.74954" lon="18.70195">
        <ele>24.965336</ele>
        <time>2020-08-30T11:29:34.160Z</time>
      </trkpt>
      <trkpt lat="59.74931" lon="18.70174">
        <ele>24.554523</ele>
        <time>2020-08-30T11:29:37.610Z</time>
      </trkpt>
      <trkpt lat="59.74906" lon="18.70166">
        <ele>24.049829</ele>
        <time>2020-08-30T11:29:40.980Z</time>
      </trkpt>
      <trkpt lat="59.74856" lon="18.70158">
        <ele>22.891751</ele>
        <time>2020-08-30T11:29:47.923Z</time>
      </trkpt>
      <trkpt lat="59.74789" lon="18.70149">
        <ele>21.364722</ele>
        <time>2020-08-30T11:29:57.099Z</time>
      </trkpt>
      <trkpt lat="59.74761" lon="18.70152">
        <ele>20.736306</ele>
        <time>2020-08-30T11:30:01.007Z</time>
      </trkpt>
      <trkpt lat="59.74617" lon="18.70268">
        <ele>23.171481</ele>
        <time>2020-08-30T11:30:37.967Z</time>
      </trkpt>
      <trkpt lat="59.74574" lon="18.70327">
        <ele>24.398016</ele>
        <time>2020-08-30T11:30:55.371Z</time>
      </trkpt>
      <trkpt lat="59.74554" lon="18.70357">
        <ele>25.31216</ele>
        <time>2020-08-30T11:31:03.704Z</time>
      </trkpt>
      <trkpt lat="59.74536" lon="18.70383">
        <ele>26.123039</ele>
        <time>2020-08-30T11:31:11.317Z</time>
      </trkpt>
      <trkpt lat="59.745" lon="18.70487">
        <ele>28.431218</ele>
        <time>2020-08-30T11:31:32.091Z</time>
      </trkpt>
      <trkpt lat="59.74476" lon="18.70634">
        <ele>30.808292</ele>
        <time>2020-08-30T11:31:53.724Z</time>
      </trkpt>
      <trkpt lat="59.74467" lon="18.70656">
        <ele>30.964988</ele>
        <time>2020-08-30T11:31:56.377Z</time>
      </trkpt>
      <trkpt lat="59.7443" lon="18.70731">
        <ele>31.562543</ele>
        <time>2020-08-30T11:32:06.182Z</time>
      </trkpt>
      <trkpt lat="59.74388" lon="18.70772">
        <ele>32.085409</ele>
        <time>2020-08-30T11:32:15.729Z</time>
      </trkpt>
      <trkpt lat="59.74382" lon="18.70777">
        <ele>32.166317</ele>
        <time>2020-08-30T11:32:17.403Z</time>
      </trkpt>
      <trkpt lat="59.74378" lon="18.7078">
        <ele>32.21231</ele>
        <time>2020-08-30T11:32:18.334Z</time>
      </trkpt>
      <trkpt lat="59.74383" lon="18.70822">
        <ele>32.454928</ele>
        <time>2020-08-30T11:32:22.861Z</time>
      </trkpt>
      <trkpt lat="59.74388" lon="18.70867">
        <ele>32.793768</ele>
        <time>2020-08-30T11:32:28.027Z</time>
      </trkpt>
      <trkpt lat="59.74411" lon="18.71114">
        <ele>35.404648</ele>
        <time>2020-08-30T11:32:59.143Z</time>
      </trkpt>
      <trkpt lat="59.74432" lon="18.71297">
        <ele>36.757295</ele>
        <time>2020-08-30T11:33:23.887Z</time>
      </trkpt>
      <trkpt lat="59.74464" lon="18.71493">
        <ele>37.642509</ele>
        <time>2020-08-30T11:33:45.233Z</time>
      </trkpt>
      <trkpt lat="59.74484" lon="18.7158">
        <ele>37.246769</ele>
        <time>2020-08-30T11:33:52.664Z</time>
      </trkpt>
      <trkpt lat="59.74495" lon="18.71631">
        <ele>36.442244</ele>
        <time>2020-08-30T11:33:56.695Z</time>
      </trkpt>
      <trkpt lat="59.74498" lon="18.71626">
        <ele>36.332502</ele>
        <time>2020-08-30T11:33:57.649Z</time>
      </trkpt>
      <trkpt lat="59.74567" lon="18.71872">
        <ele>32.097962</ele>
        <time>2020-08-30T11:34:15.703Z</time>
      </trkpt>
      <trkpt lat="59.74658" lon="18.72241">
        <ele>24.499548</ele>
        <time>2020-08-30T11:34:41.684Z</time>
      </trkpt>
      <trkpt lat="59.74674" lon="18.7232">
        <ele>23.507316</ele>
        <time>2020-08-30T11:34:47.605Z</time>
      </trkpt>
      <trkpt lat="59.74708" lon="18.72513">
        <ele>21.126004</ele>
        <time>2020-08-30T11:35:02.896Z</time>
      </trkpt>
      <trkpt lat="59.74743" lon="18.72763">
        <ele>18.543442</ele>
        <time>2020-08-30T11:35:21.919Z</time>
      </trkpt>
      <trkpt lat="59.74748" lon="18.72889">
        <ele>17.026755</ele>
        <time>2020-08-30T11:35:30.370Z</time>
      </trkpt>
      <trkpt lat="59.74746" lon="18.73074">
        <ele>14.152697</ele>
        <time>2020-08-30T11:35:42.454Z</time>
      </trkpt>
      <trkpt lat="59.74737" lon="18.73462">
        <ele>8.949439</ele>
        <time>2020-08-30T11:36:08.582Z</time>
      </trkpt>
      <trkpt lat="59.7473" lon="18.73458">
        <ele>8.785527</ele>
        <time>2020-08-30T11:36:09.866Z</time>
      </trkpt>
      <trkpt lat="59.74729" lon="18.73567">
        <ele>7.668495</ele>
        <time>2020-08-30T11:36:17.970Z</time>
      </trkpt>
      <trkpt lat="59.74729" lon="18.73595">
        <ele>7.557753</ele>
        <time>2020-08-30T11:36:20.088Z</time>
      </trkpt>
      <trkpt lat="59.74727" lon="18.73654">
        <ele>7.326713</ele>
        <time>2020-08-30T11:36:24.673Z</time>
      </trkpt>
      <trkpt lat="59.74725" lon="18.73753">
        <ele>6.936503</ele>
        <time>2020-08-30T11:36:32.722Z</time>
      </trkpt>
      <trkpt lat="59.74716" lon="18.73933">
        <ele>6.363739</ele>
        <time>2020-08-30T11:36:48.120Z</time>
      </trkpt>
      <trkpt lat="59.74714" lon="18.73971">
        <ele>6.349565</ele>
        <time>2020-08-30T11:36:51.394Z</time>
      </trkpt>
      <trkpt lat="59.747" lon="18.74213">
        <ele>6.260852</ele>
        <time>2020-08-30T11:37:13.012Z</time>
      </trkpt>
      <trkpt lat="59.74695" lon="18.7428">
        <ele>6.274757</ele>
        <time>2020-08-30T11:37:19.299Z</time>
      </trkpt>
      <trkpt lat="59.74692" lon="18.74323">
        <ele>6.313766</ele>
        <time>2020-08-30T11:37:23.385Z</time>
      </trkpt>
      <trkpt lat="59.74677" lon="18.74449">
        <ele>6.42968</ele>
        <time>2020-08-30T11:37:35.388Z</time>
      </trkpt>
      <trkpt lat="59.74662" lon="18.74531">
        <ele>6.508422</ele>
        <time>2020-08-30T11:37:43.561Z</time>
      </trkpt>
      <trkpt lat="59.74617" lon="18.74703">
        <ele>6.780579</ele>
        <time>2020-08-30T11:38:01.557Z</time>
      </trkpt>
      <trkpt lat="59.74571" lon="18.74826">
        <ele>7.037507</ele>
        <time>2020-08-30T11:38:16.180Z</time>
      </trkpt>
      <trkpt lat="59.74477" lon="18.75045">
        <ele>7.916542</ele>
        <time>2020-08-30T11:38:44.956Z</time>
      </trkpt>
      <trkpt lat="59.7441" lon="18.75176">
        <ele>8.735876</ele>
        <time>2020-08-30T11:39:04.414Z</time>
      </trkpt>
      <trkpt lat="59.74365" lon="18.75242">
        <ele>9.538371</ele>
        <time>2020-08-30T11:39:15.829Z</time>
      </trkpt>
      <trkpt lat="59.74316" lon="18.75302">
        <ele>10.372081</ele>
        <time>2020-08-30T11:39:28.581Z</time>
      </trkpt>
      <trkpt lat="59.7423" lon="18.75372">
        <ele>12.645325</ele>
        <time>2020-08-30T11:39:51.954Z</time>
      </trkpt>
      <trkpt lat="59.74195" lon="18.75396">
        <ele>13.899752</ele>
        <time>2020-08-30T11:40:02.293Z</time>
      </trkpt>
      <trkpt lat="59.74056" lon="18.7548">
        <ele>19.281628</ele>
        <time>2020-08-30T11:40:47.364Z</time>
      </trkpt>
      <trkpt lat="59.73946" lon="18.75548">
        <ele>24.194592</ele>
        <time>2020-08-30T11:41:25.048Z</time>
      </trkpt>
      <trkpt lat="59.73946" lon="18.75548">
        <ele>24.194592</ele>
        <time>2020-08-30T11:41:25.100Z</time>
      </trkpt>
      <trkpt lat="59.73946" lon="18.75548">
        <ele>24.194592</ele>
        <time>2020-08-30T11:41:25.109Z</time>
      </trkpt>
      <trkpt lat="59.73901" lon="18.75577">
        <ele>25.49262</ele>
        <time>2020-08-30T11:41:38.926Z</time>
      </trkpt>
      <trkpt lat="59.73862" lon="18.75606">
        <ele>26.372221</ele>
        <time>2020-08-30T11:41:50.511Z</time>
      </trkpt>
      <trkpt lat="59.73727" lon="18.75709">
        <ele>28.008347</ele>
        <time>2020-08-30T11:42:21.769Z</time>
      </trkpt>
      <trkpt lat="59.73691" lon="18.75737">
        <ele>27.457704</ele>
        <time>2020-08-30T11:42:27.637Z</time>
      </trkpt>
      <trkpt lat="59.73673" lon="18.75751">
        <ele>27.165821</ele>
        <time>2020-08-30T11:42:30.660Z</time>
      </trkpt>
      <trkpt lat="59.73626" lon="18.7579">
        <ele>26.435161</ele>
        <time>2020-08-30T11:42:37.587Z</time>
      </trkpt>
      <trkpt lat="59.73548" lon="18.75886">
        <ele>23.805346</ele>
        <time>2020-08-30T11:42:49.193Z</time>
      </trkpt>
      <trkpt lat="59.73522" lon="18.75929">
        <ele>22.566655</ele>
        <time>2020-08-30T11:42:53.420Z</time>
      </trkpt>
      <trkpt lat="59.73498" lon="18.75974">
        <ele>21.347793</ele>
        <time>2020-08-30T11:42:57.464Z</time>
      </trkpt>
      <trkpt lat="59.73475" lon="18.76024">
        <ele>20.092142</ele>
        <time>2020-08-30T11:43:01.887Z</time>
      </trkpt>
      <trkpt lat="59.73426" lon="18.76154">
        <ele>19.824889</ele>
        <time>2020-08-30T11:43:13.111Z</time>
      </trkpt>
      <trkpt lat="59.73422" lon="18.76165">
        <ele>19.870806</ele>
        <time>2020-08-30T11:43:14.023Z</time>
      </trkpt>
      <trkpt lat="59.73406" lon="18.76212">
        <ele>20.064812</ele>
        <time>2020-08-30T11:43:19.234Z</time>
      </trkpt>
      <trkpt lat="59.73397" lon="18.76237">
        <ele>20.168238</ele>
        <time>2020-08-30T11:43:22.577Z</time>
      </trkpt>
      <trkpt lat="59.73258" lon="18.76609">
        <ele>27.78547</ele>
        <time>2020-08-30T11:44:36.557Z</time>
      </trkpt>
      <trkpt lat="59.73249" lon="18.76629">
        <ele>28.347517</ele>
        <time>2020-08-30T11:44:41.175Z</time>
      </trkpt>
      <trkpt lat="59.73238" lon="18.76647">
        <ele>28.654196</ele>
        <time>2020-08-30T11:44:45.812Z</time>
      </trkpt>
      <trkpt lat="59.73201" lon="18.76682">
        <ele>29.56959</ele>
        <time>2020-08-30T11:44:58.133Z</time>
      </trkpt>
      <trkpt lat="59.73172" lon="18.76688">
        <ele>30.23313</ele>
        <time>2020-08-30T11:45:06.991Z</time>
      </trkpt>
      <trkpt lat="59.73027" lon="18.76634">
        <ele>31.652694</ele>
        <time>2020-08-30T11:45:36.402Z</time>
      </trkpt>
      <trkpt lat="59.72984" lon="18.76631">
        <ele>31.075145</ele>
        <time>2020-08-30T11:45:42.669Z</time>
      </trkpt>
      <trkpt lat="59.72948" lon="18.76645">
        <ele>30.601747</ele>
        <time>2020-08-30T11:45:47.671Z</time>
      </trkpt>
      <trkpt lat="59.72839" lon="18.76731">
        <ele>28.692592</ele>
        <time>2020-08-30T11:46:03.597Z</time>
      </trkpt>
      <trkpt lat="59.72789" lon="18.76794">
        <ele>27.602227</ele>
        <time>2020-08-30T11:46:11.941Z</time>
      </trkpt>
      <trkpt lat="59.72724" lon="18.76921">
        <ele>26.322214</ele>
        <time>2020-08-30T11:46:26.442Z</time>
      </trkpt>
      <trkpt lat="59.7269" lon="18.77029">
        <ele>25.763629</ele>
        <time>2020-08-30T11:46:37.010Z</time>
      </trkpt>
      <trkpt lat="59.72669" lon="18.77159">
        <ele>25.166911</ele>
        <time>2020-08-30T11:46:47.622Z</time>
      </trkpt>
      <trkpt lat="59.72669" lon="18.77162">
        <ele>25.155392</ele>
        <time>2020-08-30T11:46:48.091Z</time>
      </trkpt>
      <trkpt lat="59.72663" lon="18.77224">
        <ele>24.697467</ele>
        <time>2020-08-30T11:46:52.921Z</time>
      </trkpt>
      <trkpt lat="59.72662" lon="18.7725">
        <ele>24.500553</ele>
        <time>2020-08-30T11:46:55.076Z</time>
      </trkpt>
      <trkpt lat="59.72661" lon="18.77261">
        <ele>24.413111</ele>
        <time>2020-08-30T11:46:55.779Z</time>
      </trkpt>
      <trkpt lat="59.7266" lon="18.77343">
        <ele>23.786054</ele>
        <time>2020-08-30T11:47:01.937Z</time>
      </trkpt>
      <trkpt lat="59.72675" lon="18.77501">
        <ele>22.552127</ele>
        <time>2020-08-30T11:47:13.603Z</time>
      </trkpt>
      <trkpt lat="59.72674" lon="18.77521">
        <ele>22.400403</ele>
        <time>2020-08-30T11:47:15.030Z</time>
      </trkpt>
      <trkpt lat="59.72662" lon="18.77559">
        <ele>22.202168</ele>
        <time>2020-08-30T11:47:18.211Z</time>
      </trkpt>
      <trkpt lat="59.72658" lon="18.7757">
        <ele>22.148145</ele>
        <time>2020-08-30T11:47:19.127Z</time>
      </trkpt>
      <trkpt lat="59.72648" lon="18.77551">
        <ele>22.03175</ele>
        <time>2020-08-30T11:47:21.337Z</time>
      </trkpt>
      <trkpt lat="59.72581" lon="18.77431">
        <ele>21.287356</ele>
        <time>2020-08-30T11:47:35.625Z</time>
      </trkpt>
      <trkpt lat="59.72553" lon="18.7737">
        <ele>20.941249</ele>
        <time>2020-08-30T11:47:42.589Z</time>
      </trkpt>
      <trkpt lat="59.72436" lon="18.77073">
        <ele>21.322757</ele>
        <time>2020-08-30T11:48:18.327Z</time>
      </trkpt>
      <trkpt lat="59.72338" lon="18.7685">
        <ele>21.979957</ele>
        <time>2020-08-30T11:48:46.947Z</time>
      </trkpt>
      <trkpt lat="59.72301" lon="18.76783">
        <ele>22.32916</ele>
        <time>2020-08-30T11:48:56.762Z</time>
      </trkpt>
      <trkpt lat="59.72235" lon="18.76687">
        <ele>23.137238</ele>
        <time>2020-08-30T11:49:13.219Z</time>
      </trkpt>
      <trkpt lat="59.72214" lon="18.76666">
        <ele>23.365387</ele>
        <time>2020-08-30T11:49:17.807Z</time>
      </trkpt>
      <trkpt lat="59.72197" lon="18.76657">
        <ele>23.539801</ele>
        <time>2020-08-30T11:49:21.729Z</time>
      </trkpt>
      <trkpt lat="59.72134" lon="18.76624">
        <ele>24.394269</ele>
        <time>2020-08-30T11:49:36.842Z</time>
      </trkpt>
      <trkpt lat="59.72065" lon="18.76585">
        <ele>25.595409</ele>
        <time>2020-08-30T11:49:54.720Z</time>
      </trkpt>
      <trkpt lat="59.71996" lon="18.76546">
        <ele>26.79472</ele>
        <time>2020-08-30T11:50:11.304Z</time>
      </trkpt>
      <trkpt lat="59.71948" lon="18.76517">
        <ele>26.795349</ele>
        <time>2020-08-30T11:50:22.249Z</time>
      </trkpt>
      <trkpt lat="59.71745" lon="18.76301">
        <ele>25.554585</ele>
        <time>2020-08-30T11:50:58.628Z</time>
      </trkpt>
      <trkpt lat="59.71608" lon="18.76183">
        <ele>24.002489</ele>
        <time>2020-08-30T11:51:20.991Z</time>
      </trkpt>
      <trkpt lat="59.71389" lon="18.76033">
        <ele>21.841968</ele>
        <time>2020-08-30T11:51:57.327Z</time>
      </trkpt>
      <trkpt lat="59.7134" lon="18.76014">
        <ele>21.429474</ele>
        <time>2020-08-30T11:52:05.268Z</time>
      </trkpt>
      <trkpt lat="59.71321" lon="18.76007">
        <ele>21.29582</ele>
        <time>2020-08-30T11:52:08.356Z</time>
      </trkpt>
      <trkpt lat="59.71252" lon="18.75989">
        <ele>21.04473</ele>
        <time>2020-08-30T11:52:19.670Z</time>
      </trkpt>
      <trkpt lat="59.71173" lon="18.75968">
        <ele>20.753472</ele>
        <time>2020-08-30T11:52:33.592Z</time>
      </trkpt>
      <trkpt lat="59.71029" lon="18.75919">
        <ele>20.178828</ele>
        <time>2020-08-30T11:52:58.854Z</time>
      </trkpt>
      <trkpt lat="59.71008" lon="18.7592">
        <ele>20.096441</ele>
        <time>2020-08-30T11:53:02.095Z</time>
      </trkpt>
      <trkpt lat="59.70978" lon="18.75932">
        <ele>19.975868</ele>
        <time>2020-08-30T11:53:06.844Z</time>
      </trkpt>
      <trkpt lat="59.70952" lon="18.75959">
        <ele>19.8338</ele>
        <time>2020-08-30T11:53:11.352Z</time>
      </trkpt>
      <trkpt lat="59.70806" lon="18.7614">
        <ele>19.343618</ele>
        <time>2020-08-30T11:53:39.317Z</time>
      </trkpt>
      <trkpt lat="59.70786" lon="18.76155">
        <ele>19.762868</ele>
        <time>2020-08-30T11:53:43.839Z</time>
      </trkpt>
      <trkpt lat="59.70698" lon="18.76182">
        <ele>21.467922</ele>
        <time>2020-08-30T11:54:05.991Z</time>
      </trkpt>
      <trkpt lat="59.70629" lon="18.76202">
        <ele>22.794797</ele>
        <time>2020-08-30T11:54:25.567Z</time>
      </trkpt>
      <trkpt lat="59.70584" lon="18.76236">
        <ele>23.675757</ele>
        <time>2020-08-30T11:54:38.977Z</time>
      </trkpt>
      <trkpt lat="59.70513" lon="18.76314">
        <ele>25.164175</ele>
        <time>2020-08-30T11:54:58.121Z</time>
      </trkpt>
      <trkpt lat="59.70335" lon="18.7657">
        <ele>26.083466</ele>
        <time>2020-08-30T11:55:36.865Z</time>
      </trkpt>
      <trkpt lat="59.70294" lon="18.7664">
        <ele>27.00687</ele>
        <time>2020-08-30T11:55:47.548Z</time>
      </trkpt>
      <trkpt lat="59.70284" lon="18.76668">
        <ele>27.30771</ele>
        <time>2020-08-30T11:55:51.266Z</time>
      </trkpt>
      <trkpt lat="59.70209" lon="18.76918">
        <ele>30.642555</ele>
        <time>2020-08-30T11:56:29.364Z</time>
      </trkpt>
      <trkpt lat="59.7016" lon="18.76997">
        <ele>32.892814</ele>
        <time>2020-08-30T11:56:48.785Z</time>
      </trkpt>
      <trkpt lat="59.70112" lon="18.77048">
        <ele>34.839712</ele>
        <time>2020-08-30T11:57:05.666Z</time>
      </trkpt>
      <trkpt lat="59.70084" lon="18.77075">
        <ele>35.841175</ele>
        <time>2020-08-30T11:57:15.044Z</time>
      </trkpt>
      <trkpt lat="59.70065" lon="18.77094">
        <ele>36.446296</ele>
        <time>2020-08-30T11:57:21.462Z</time>
      </trkpt>
      <trkpt lat="59.70025" lon="18.77131">
        <ele>37.685326</ele>
        <time>2020-08-30T11:57:34.228Z</time>
      </trkpt>
      <trkpt lat="59.69984" lon="18.77153">
        <ele>38.884929</ele>
        <time>2020-08-30T11:57:45.695Z</time>
      </trkpt>
      <trkpt lat="59.69946" lon="18.77134">
        <ele>39.998486</ele>
        <time>2020-08-30T11:57:55.673Z</time>
      </trkpt>
      <trkpt lat="59.69873" lon="18.7708">
        <ele>40.323972</ele>
        <time>2020-08-30T11:58:12.447Z</time>
      </trkpt>
      <trkpt lat="59.69741" lon="18.76944">
        <ele>39.143841</ele>
        <time>2020-08-30T11:58:34.801Z</time>
      </trkpt>
      <trkpt lat="59.69717" lon="18.76929">
        <ele>38.510699</ele>
        <time>2020-08-30T11:58:38.348Z</time>
      </trkpt>
      <trkpt lat="59.69702" lon="18.76922">
        <ele>38.137101</ele>
        <time>2020-08-30T11:58:40.394Z</time>
      </trkpt>
      <trkpt lat="59.69545" lon="18.76845">
        <ele>33.748821</ele>
        <time>2020-08-30T11:59:01.875Z</time>
      </trkpt>
      <trkpt lat="59.69516" lon="18.76821">
        <ele>32.730188</ele>
        <time>2020-08-30T11:59:06.084Z</time>
      </trkpt>
      <trkpt lat="59.69456" lon="18.76736">
        <ele>30.374562</ele>
        <time>2020-08-30T11:59:15.665Z</time>
      </trkpt>
      <trkpt lat="59.69348" lon="18.76647">
        <ele>26.319108</ele>
        <time>2020-08-30T11:59:30.508Z</time>
      </trkpt>
      <trkpt lat="59.6917" lon="18.76392">
        <ele>20.454297</ele>
        <time>2020-08-30T11:59:59.084Z</time>
      </trkpt>
      <trkpt lat="59.69032" lon="18.76194">
        <ele>21.292318</ele>
        <time>2020-08-30T12:00:33.402Z</time>
      </trkpt>
      <trkpt lat="59.69001" lon="18.76134">
        <ele>21.957279</ele>
        <time>2020-08-30T12:00:45.586Z</time>
      </trkpt>
      <trkpt lat="59.6897" lon="18.7596">
        <ele>24.692842</ele>
        <time>2020-08-30T12:01:13.030Z</time>
      </trkpt>
      <trkpt lat="59.68953" lon="18.75898">
        <ele>25.856686</ele>
        <time>2020-08-30T12:01:23.867Z</time>
      </trkpt>
      <trkpt lat="59.68907" lon="18.75808">
        <ele>27.910822</ele>
        <time>2020-08-30T12:01:42.163Z</time>
      </trkpt>
      <trkpt lat="59.68833" lon="18.75689">
        <ele>27.727377</ele>
        <time>2020-08-30T12:02:03.469Z</time>
      </trkpt>
      <trkpt lat="59.68813" lon="18.75638">
        <ele>27.640662</ele>
        <time>2020-08-30T12:02:08.567Z</time>
      </trkpt>
      <trkpt lat="59.68775" lon="18.75489">
        <ele>25.665522</ele>
        <time>2020-08-30T12:02:19.752Z</time>
      </trkpt>
      <trkpt lat="59.6876" lon="18.75451">
        <ele>24.216366</ele>
        <time>2020-08-30T12:02:22.709Z</time>
      </trkpt>
      <trkpt lat="59.68741" lon="18.75417">
        <ele>22.658862</ele>
        <time>2020-08-30T12:02:25.718Z</time>
      </trkpt>
      <trkpt lat="59.68718" lon="18.75395">
        <ele>21.123094</ele>
        <time>2020-08-30T12:02:28.608Z</time>
      </trkpt>
      <trkpt lat="59.68665" lon="18.75369">
        <ele>17.882253</ele>
        <time>2020-08-30T12:02:34.809Z</time>
      </trkpt>
      <trkpt lat="59.68634" lon="18.75372">
        <ele>16.163064</ele>
        <time>2020-08-30T12:02:38.366Z</time>
      </trkpt>
      <trkpt lat="59.68606" lon="18.75378">
        <ele>14.817112</ele>
        <time>2020-08-30T12:02:41.537Z</time>
      </trkpt>
      <trkpt lat="59.68592" lon="18.75379">
        <ele>14.123603</ele>
        <time>2020-08-30T12:02:43.230Z</time>
      </trkpt>
      <trkpt lat="59.68578" lon="18.75373">
        <ele>13.453516</ele>
        <time>2020-08-30T12:02:44.823Z</time>
      </trkpt>
      <trkpt lat="59.68509" lon="18.75302">
        <ele>9.72497</ele>
        <time>2020-08-30T12:02:54.269Z</time>
      </trkpt>
      <trkpt lat="59.68486" lon="18.75275">
        <ele>8.414505</ele>
        <time>2020-08-30T12:02:57.865Z</time>
      </trkpt>
      <trkpt lat="59.68481" lon="18.75269">
        <ele>8.126086</ele>
        <time>2020-08-30T12:02:58.704Z</time>
      </trkpt>
      <trkpt lat="59.68433" lon="18.75215">
        <ele>9.185113</ele>
        <time>2020-08-30T12:03:09.011Z</time>
      </trkpt>
      <trkpt lat="59.68424" lon="18.75205">
        <ele>9.390118</ele>
        <time>2020-08-30T12:03:11.345Z</time>
      </trkpt>
      <trkpt lat="59.68285" lon="18.75051">
        <ele>12.736964</ele>
        <time>2020-08-30T12:03:58.669Z</time>
      </trkpt>
      <trkpt lat="59.68264" lon="18.75034">
        <ele>13.265782</ele>
        <time>2020-08-30T12:04:04.627Z</time>
      </trkpt>
      <trkpt lat="59.68229" lon="18.75041">
        <ele>14.072983</ele>
        <time>2020-08-30T12:04:13.668Z</time>
      </trkpt>
      <trkpt lat="59.68213" lon="18.75048">
        <ele>14.464451</ele>
        <time>2020-08-30T12:04:18.472Z</time>
      </trkpt>
      <trkpt lat="59.68193" lon="18.75061">
        <ele>14.969723</ele>
        <time>2020-08-30T12:04:23.054Z</time>
      </trkpt>
      <trkpt lat="59.68187" lon="18.75064">
        <ele>15.09941</ele>
        <time>2020-08-30T12:04:24.695Z</time>
      </trkpt>
      <trkpt lat="59.68179" lon="18.75029">
        <ele>15.555522</ele>
        <time>2020-08-30T12:04:28.738Z</time>
      </trkpt>
      <trkpt lat="59.68162" lon="18.74968">
        <ele>15.817967</ele>
        <time>2020-08-30T12:04:36.001Z</time>
      </trkpt>
      <trkpt lat="59.68147" lon="18.74938">
        <ele>15.716519</ele>
        <time>2020-08-30T12:04:40.268Z</time>
      </trkpt>
      <trkpt lat="59.68132" lon="18.74915">
        <ele>15.629743</ele>
        <time>2020-08-30T12:04:43.140Z</time>
      </trkpt>
      <trkpt lat="59.68064" lon="18.74806">
        <ele>15.215583</ele>
        <time>2020-08-30T12:04:56.353Z</time>
      </trkpt>
      <trkpt lat="59.6804" lon="18.74728">
        <ele>15.032293</ele>
        <time>2020-08-30T12:05:03.554Z</time>
      </trkpt>
      <trkpt lat="59.68022" lon="18.74672">
        <ele>14.96057</ele>
        <time>2020-08-30T12:05:09.298Z</time>
      </trkpt>
      <trkpt lat="59.68004" lon="18.74602">
        <ele>14.875211</ele>
        <time>2020-08-30T12:05:16.475Z</time>
      </trkpt>
      <trkpt lat="59.67965" lon="18.74439">
        <ele>14.6809</ele>
        <time>2020-08-30T12:05:32.847Z</time>
      </trkpt>
      <trkpt lat="59.67949" lon="18.74365">
        <ele>14.331976</ele>
        <time>2020-08-30T12:05:39.924Z</time>
      </trkpt>
      <trkpt lat="59.67946" lon="18.74312">
        <ele>14.08918</ele>
        <time>2020-08-30T12:05:44.336Z</time>
      </trkpt>
      <trkpt lat="59.67947" lon="18.74241">
        <ele>13.774527</ele>
        <time>2020-08-30T12:05:49.758Z</time>
      </trkpt>
      <trkpt lat="59.67946" lon="18.74169">
        <ele>13.448986</ele>
        <time>2020-08-30T12:05:55.304Z</time>
      </trkpt>
      <trkpt lat="59.67945" lon="18.74157">
        <ele>13.393264</ele>
        <time>2020-08-30T12:05:56.266Z</time>
      </trkpt>
      <trkpt lat="59.67942" lon="18.74086">
        <ele>13.074488</ele>
        <time>2020-08-30T12:06:01.606Z</time>
      </trkpt>
      <trkpt lat="59.67938" lon="18.73997">
        <ele>12.569752</ele>
        <time>2020-08-30T12:06:08.219Z</time>
      </trkpt>
      <trkpt lat="59.67935" lon="18.7396">
        <ele>12.361295</ele>
        <time>2020-08-30T12:06:11.001Z</time>
      </trkpt>
      <trkpt lat="59.67924" lon="18.73782">
        <ele>11.347435</ele>
        <time>2020-08-30T12:06:24.723Z</time>
      </trkpt>
      <trkpt lat="59.67919" lon="18.7372">
        <ele>11.053645</ele>
        <time>2020-08-30T12:06:29.747Z</time>
      </trkpt>
      <trkpt lat="59.67918" lon="18.73704">
        <ele>11.035108</ele>
        <time>2020-08-30T12:06:31.287Z</time>
      </trkpt>
      <trkpt lat="59.67906" lon="18.73346">
        <ele>10.643065</ele>
        <time>2020-08-30T12:07:03.008Z</time>
      </trkpt>
      <trkpt lat="59.67905" lon="18.73305">
        <ele>10.608679</ele>
        <time>2020-08-30T12:07:06.604Z</time>
      </trkpt>
      <trkpt lat="59.67894" lon="18.72935">
        <ele>10.292422</ele>
        <time>2020-08-30T12:07:39.138Z</time>
      </trkpt>
      <trkpt lat="59.67894" lon="18.7277">
        <ele>10.139531</ele>
        <time>2020-08-30T12:07:53.659Z</time>
      </trkpt>
      <trkpt lat="59.67915" lon="18.72217">
        <ele>9.322225</ele>
        <time>2020-08-30T12:08:41.238Z</time>
      </trkpt>
      <trkpt lat="59.67924" lon="18.72037">
        <ele>8.924506</ele>
        <time>2020-08-30T12:08:56.496Z</time>
      </trkpt>
      <trkpt lat="59.67935" lon="18.71912">
        <ele>8.653856</ele>
        <time>2020-08-30T12:09:06.958Z</time>
      </trkpt>
      <trkpt lat="59.67972" lon="18.71688">
        <ele>8.177087</ele>
        <time>2020-08-30T12:09:26.495Z</time>
      </trkpt>
      <trkpt lat="59.67973" lon="18.7166">
        <ele>8.12018</ele>
        <time>2020-08-30T12:09:28.809Z</time>
      </trkpt>
      <trkpt lat="59.67987" lon="18.71397">
        <ele>8.442453</ele>
        <time>2020-08-30T12:09:53.285Z</time>
      </trkpt>
      <trkpt lat="59.68002" lon="18.71099">
        <ele>9.031025</ele>
        <time>2020-08-30T12:10:24.404Z</time>
      </trkpt>
      <trkpt lat="59.68025" lon="18.70925">
        <ele>9.392607</ele>
        <time>2020-08-30T12:10:41.436Z</time>
      </trkpt>
      <trkpt lat="59.68027" lon="18.70869">
        <ele>9.292597</ele>
        <time>2020-08-30T12:10:46.181Z</time>
      </trkpt>
      <trkpt lat="59.68018" lon="18.70751">
        <ele>8.915646</ele>
        <time>2020-08-30T12:10:55.872Z</time>
      </trkpt>
      <trkpt lat="59.68015" lon="18.70725">
        <ele>8.830518</ele>
        <time>2020-08-30T12:10:57.953Z</time>
      </trkpt>
      <trkpt lat="59.6801" lon="18.70685">
        <ele>8.696965</ele>
        <time>2020-08-30T12:11:01.337Z</time>
      </trkpt>
      <trkpt lat="59.67973" lon="18.70537">
        <ele>8.226651</ele>
        <time>2020-08-30T12:11:14.377Z</time>
      </trkpt>
      <trkpt lat="59.67966" lon="18.70465">
        <ele>8.103213</ele>
        <time>2020-08-30T12:11:20.299Z</time>
      </trkpt>
      <trkpt lat="59.67965" lon="18.70287">
        <ele>7.800829</ele>
        <time>2020-08-30T12:11:36.307Z</time>
      </trkpt>
      <trkpt lat="59.67965" lon="18.7011">
        <ele>7.379966</ele>
        <time>2020-08-30T12:11:51.750Z</time>
      </trkpt>
      <trkpt lat="59.67964" lon="18.69707">
        <ele>6.836928</ele>
        <time>2020-08-30T12:12:24.260Z</time>
      </trkpt>
      <trkpt lat="59.67964" lon="18.69487">
        <ele>7.265903</ele>
        <time>2020-08-30T12:12:46.122Z</time>
      </trkpt>
      <trkpt lat="59.67965" lon="18.68695">
        <ele>16.892474</ele>
        <time>2020-08-30T12:14:32.006Z</time>
      </trkpt>
      <trkpt lat="59.67963" lon="18.68461">
        <ele>18.795946</ele>
        <time>2020-08-30T12:14:57.958Z</time>
      </trkpt>
      <trkpt lat="59.67963" lon="18.68366">
        <ele>18.967935</ele>
        <time>2020-08-30T12:15:07.858Z</time>
      </trkpt>
      <trkpt lat="59.67963" lon="18.68348">
        <ele>18.96288</ele>
        <time>2020-08-30T12:15:09.342Z</time>
      </trkpt>
      <trkpt lat="59.67925" lon="18.68354">
        <ele>18.942568</ele>
        <time>2020-08-30T12:15:16.284Z</time>
      </trkpt>
      <trkpt lat="59.67877" lon="18.68353">
        <ele>18.916282</ele>
        <time>2020-08-30T12:15:24.613Z</time>
      </trkpt>
      <trkpt lat="59.6787" lon="18.68353">
        <ele>18.912472</ele>
        <time>2020-08-30T12:15:25.698Z</time>
      </trkpt>
      <trkpt lat="59.67845" lon="18.68346">
        <ele>18.898558</ele>
        <time>2020-08-30T12:15:29.546Z</time>
      </trkpt>
      <trkpt lat="59.67809" lon="18.68332">
        <ele>18.597503</ele>
        <time>2020-08-30T12:15:35.336Z</time>
      </trkpt>
      <trkpt lat="59.67765" lon="18.68307">
        <ele>17.960925</ele>
        <time>2020-08-30T12:15:42.654Z</time>
      </trkpt>
      <trkpt lat="59.67711" lon="18.68268">
        <ele>17.14575</ele>
        <time>2020-08-30T12:15:51.173Z</time>
      </trkpt>
      <trkpt lat="59.67594" lon="18.68168">
        <ele>15.318998</ele>
        <time>2020-08-30T12:16:08.991Z</time>
      </trkpt>
      <trkpt lat="59.67526" lon="18.6812">
        <ele>14.283765</ele>
        <time>2020-08-30T12:16:19.666Z</time>
      </trkpt>
      <trkpt lat="59.67488" lon="18.68103">
        <ele>13.791541</ele>
        <time>2020-08-30T12:16:25.886Z</time>
      </trkpt>
      <trkpt lat="59.67409" lon="18.68075">
        <ele>14.730997</ele>
        <time>2020-08-30T12:16:40.591Z</time>
      </trkpt>
      <trkpt lat="59.6734" lon="18.68038">
        <ele>15.57383</ele>
        <time>2020-08-30T12:16:57.464Z</time>
      </trkpt>
      <trkpt lat="59.6725" lon="18.67963">
        <ele>18.151461</ele>
        <time>2020-08-30T12:17:24.823Z</time>
      </trkpt>
      <trkpt lat="59.67194" lon="18.67888">
        <ele>20.297506</ele>
        <time>2020-08-30T12:17:44.570Z</time>
      </trkpt>
      <trkpt lat="59.67176" lon="18.67858">
        <ele>21.036757</ele>
        <time>2020-08-30T12:17:51.450Z</time>
      </trkpt>
      <trkpt lat="59.67121" lon="18.67759">
        <ele>22.435076</ele>
        <time>2020-08-30T12:18:11.394Z</time>
      </trkpt>
      <trkpt lat="59.6708" lon="18.67687">
        <ele>23.249166</ele>
        <time>2020-08-30T12:18:24.219Z</time>
      </trkpt>
      <trkpt lat="59.67006" lon="18.67558">
        <ele>24.083519</ele>
        <time>2020-08-30T12:18:42.339Z</time>
      </trkpt>
      <trkpt lat="59.66947" lon="18.67483">
        <ele>23.710782</ele>
        <time>2020-08-30T12:18:53.247Z</time>
      </trkpt>
      <trkpt lat="59.66915" lon="18.67452">
        <ele>23.517044</ele>
        <time>2020-08-30T12:18:58.774Z</time>
      </trkpt>
      <trkpt lat="59.66877" lon="18.67422">
        <ele>23.297991</ele>
        <time>2020-08-30T12:19:05.359Z</time>
      </trkpt>
      <trkpt lat="59.66852" lon="18.67406">
        <ele>23.267067</ele>
        <time>2020-08-30T12:19:09.760Z</time>
      </trkpt>
      <trkpt lat="59.66783" lon="18.67372">
        <ele>23.213898</ele>
        <time>2020-08-30T12:19:22.033Z</time>
      </trkpt>
      <trkpt lat="59.66741" lon="18.67352">
        <ele>23.182005</ele>
        <time>2020-08-30T12:19:29.772Z</time>
      </trkpt>
      <trkpt lat="59.66633" lon="18.67279">
        <ele>23.012829</ele>
        <time>2020-08-30T12:19:51.651Z</time>
      </trkpt>
      <trkpt lat="59.66592" lon="18.67234">
        <ele>22.923883</ele>
        <time>2020-08-30T12:19:59.885Z</time>
      </trkpt>
      <trkpt lat="59.66568" lon="18.67207">
        <ele>22.872845</ele>
        <time>2020-08-30T12:20:04.246Z</time>
      </trkpt>
      <trkpt lat="59.66524" lon="18.67141">
        <ele>22.442917</ele>
        <time>2020-08-30T12:20:12.866Z</time>
      </trkpt>
      <trkpt lat="59.66506" lon="18.67114">
        <ele>22.058483</ele>
        <time>2020-08-30T12:20:16.394Z</time>
      </trkpt>
      <trkpt lat="59.6647" lon="18.67069">
        <ele>21.359008</ele>
        <time>2020-08-30T12:20:22.588Z</time>
      </trkpt>
      <trkpt lat="59.66415" lon="18.67013">
        <ele>20.336389</ele>
        <time>2020-08-30T12:20:31.396Z</time>
      </trkpt>
      <trkpt lat="59.66372" lon="18.6698">
        <ele>19.437004</ele>
        <time>2020-08-30T12:20:37.814Z</time>
      </trkpt>
      <trkpt lat="59.66293" lon="18.66947">
        <ele>17.496586</ele>
        <time>2020-08-30T12:20:48.594Z</time>
      </trkpt>
      <trkpt lat="59.66273" lon="18.66944">
        <ele>16.987869</ele>
        <time>2020-08-30T12:20:51.386Z</time>
      </trkpt>
      <trkpt lat="59.66217" lon="18.66938">
        <ele>15.64945</ele>
        <time>2020-08-30T12:20:59.055Z</time>
      </trkpt>
      <trkpt lat="59.66201" lon="18.66939">
        <ele>15.37522</ele>
        <time>2020-08-30T12:21:01.296Z</time>
      </trkpt>
      <trkpt lat="59.66162" lon="18.66948">
        <ele>14.996716</ele>
        <time>2020-08-30T12:21:06.768Z</time>
      </trkpt>
      <trkpt lat="59.66113" lon="18.66971">
        <ele>14.49995</ele>
        <time>2020-08-30T12:21:14.138Z</time>
      </trkpt>
      <trkpt lat="59.65881" lon="18.67085">
        <ele>15.340699</ele>
        <time>2020-08-30T12:21:58.583Z</time>
      </trkpt>
      <trkpt lat="59.6554" lon="18.67277">
        <ele>28.383418</ele>
        <time>2020-08-30T12:23:50.519Z</time>
      </trkpt>
      <trkpt lat="59.65302" lon="18.67484">
        <ele>31.764564</ele>
        <time>2020-08-30T12:24:49.046Z</time>
      </trkpt>
      <trkpt lat="59.65229" lon="18.67502">
        <ele>31.13847</ele>
        <time>2020-08-30T12:24:59.983Z</time>
      </trkpt>
      <trkpt lat="59.64987" lon="18.67502">
        <ele>26.189671</ele>
        <time>2020-08-30T12:25:32.719Z</time>
      </trkpt>
      <trkpt lat="59.64972" lon="18.67502">
        <ele>25.985609</ele>
        <time>2020-08-30T12:25:34.991Z</time>
      </trkpt>
      <trkpt lat="59.64886" lon="18.67466">
        <ele>24.85085</ele>
        <time>2020-08-30T12:25:47.936Z</time>
      </trkpt>
      <trkpt lat="59.64718" lon="18.67324">
        <ele>23.712607</ele>
        <time>2020-08-30T12:26:17.358Z</time>
      </trkpt>
      <trkpt lat="59.64639" lon="18.67287">
        <ele>23.886237</ele>
        <time>2020-08-30T12:26:32.430Z</time>
      </trkpt>
      <trkpt lat="59.64578" lon="18.67267">
        <ele>25.178516</ele>
        <time>2020-08-30T12:26:46.464Z</time>
      </trkpt>
      <trkpt lat="59.64462" lon="18.67253">
        <ele>27.576176</ele>
        <time>2020-08-30T12:27:18.064Z</time>
      </trkpt>
      <trkpt lat="59.64446" lon="18.67258">
        <ele>27.891819</ele>
        <time>2020-08-30T12:27:22.828Z</time>
      </trkpt>
      <trkpt lat="59.64381" lon="18.67286">
        <ele>29.201003</ele>
        <time>2020-08-30T12:27:40.311Z</time>
      </trkpt>
      <trkpt lat="59.6438" lon="18.67278">
        <ele>29.280753</ele>
        <time>2020-08-30T12:27:41.274Z</time>
      </trkpt>
      <trkpt lat="59.64373" lon="18.67229">
        <ele>29.780595</ele>
        <time>2020-08-30T12:27:47.334Z</time>
      </trkpt>
      <trkpt lat="59.64377" lon="18.67209">
        <ele>29.989408</ele>
        <time>2020-08-30T12:27:50.015Z</time>
      </trkpt>
      <trkpt lat="59.64367" lon="18.67183">
        <ele>30.31473</ele>
        <time>2020-08-30T12:27:53.611Z</time>
      </trkpt>
      <trkpt lat="59.64355" lon="18.67167">
        <ele>30.590176</ele>
        <time>2020-08-30T12:27:57.104Z</time>
      </trkpt>
      <trkpt lat="59.64327" lon="18.67149">
        <ele>30.515221</ele>
        <time>2020-08-30T12:28:03.163Z</time>
      </trkpt>
      <trkpt lat="59.64296" lon="18.67124">
        <ele>29.961515</ele>
        <time>2020-08-30T12:28:08.707Z</time>
      </trkpt>
      <trkpt lat="59.64253" lon="18.67082">
        <ele>29.162311</ele>
        <time>2020-08-30T12:28:15.856Z</time>
      </trkpt>
      <trkpt lat="59.64192" lon="18.66995">
        <ele>27.898627</ele>
        <time>2020-08-30T12:28:26.567Z</time>
      </trkpt>
      <trkpt lat="59.64143" lon="18.66901">
        <ele>25.190339</ele>
        <time>2020-08-30T12:28:35.720Z</time>
      </trkpt>
      <trkpt lat="59.64106" lon="18.66818">
        <ele>22.829213</ele>
        <time>2020-08-30T12:28:42.950Z</time>
      </trkpt>
      <trkpt lat="59.64056" lon="18.66663">
        <ele>19.07388</ele>
        <time>2020-08-30T12:28:54.829Z</time>
      </trkpt>
      <trkpt lat="59.64039" lon="18.66602">
        <ele>17.702308</ele>
        <time>2020-08-30T12:28:59.477Z</time>
      </trkpt>
      <trkpt lat="59.64035" lon="18.66589">
        <ele>17.416374</ele>
        <time>2020-08-30T12:29:00.436Z</time>
      </trkpt>
      <trkpt lat="59.64016" lon="18.66508">
        <ele>15.675232</ele>
        <time>2020-08-30T12:29:06.437Z</time>
      </trkpt>
      <trkpt lat="59.63973" lon="18.66259">
        <ele>12.275631</ele>
        <time>2020-08-30T12:29:25.146Z</time>
      </trkpt>
      <trkpt lat="59.63963" lon="18.66203">
        <ele>11.823466</ele>
        <time>2020-08-30T12:29:29.954Z</time>
      </trkpt>
      <trkpt lat="59.63949" lon="18.66122">
        <ele>11.176347</ele>
        <time>2020-08-30T12:29:37.067Z</time>
      </trkpt>
      <trkpt lat="59.63944" lon="18.66104">
        <ele>11.018728</ele>
        <time>2020-08-30T12:29:38.810Z</time>
      </trkpt>
      <trkpt lat="59.639" lon="18.65951">
        <ele>10.843892</ele>
        <time>2020-08-30T12:29:55.001Z</time>
      </trkpt>
      <trkpt lat="59.63847" lon="18.65773">
        <ele>11.125034</ele>
        <time>2020-08-30T12:30:16.022Z</time>
      </trkpt>
      <trkpt lat="59.63809" lon="18.65658">
        <ele>11.693057</ele>
        <time>2020-08-30T12:30:30.785Z</time>
      </trkpt>
      <trkpt lat="59.63801" lon="18.65633">
        <ele>11.829638</ele>
        <time>2020-08-30T12:30:33.958Z</time>
      </trkpt>
      <trkpt lat="59.63748" lon="18.65469">
        <ele>12.72154</ele>
        <time>2020-08-30T12:30:55.948Z</time>
      </trkpt>
      <trkpt lat="59.6373" lon="18.6538">
        <ele>12.756881</ele>
        <time>2020-08-30T12:31:05.850Z</time>
      </trkpt>
      <trkpt lat="59.63729" lon="18.6531">
        <ele>12.734885</ele>
        <time>2020-08-30T12:31:13.095Z</time>
      </trkpt>
      <trkpt lat="59.6373" lon="18.65259">
        <ele>12.718704</ele>
        <time>2020-08-30T12:31:18.410Z</time>
      </trkpt>
      <trkpt lat="59.63734" lon="18.65222">
        <ele>12.706872</ele>
        <time>2020-08-30T12:31:21.603Z</time>
      </trkpt>
      <trkpt lat="59.63745" lon="18.65166">
        <ele>12.688056</ele>
        <time>2020-08-30T12:31:26.943Z</time>
      </trkpt>
      <trkpt lat="59.63888" lon="18.64678">
        <ele>8.961145</ele>
        <time>2020-08-30T12:32:10.750Z</time>
      </trkpt>
      <trkpt lat="59.63904" lon="18.64627">
        <ele>8.525879</ele>
        <time>2020-08-30T12:32:15.398Z</time>
      </trkpt>
      <trkpt lat="59.63917" lon="18.64578">
        <ele>8.127169</ele>
        <time>2020-08-30T12:32:19.671Z</time>
      </trkpt>
      <trkpt lat="59.63932" lon="18.64502">
        <ele>7.536543</ele>
        <time>2020-08-30T12:32:26.268Z</time>
      </trkpt>
      <trkpt lat="59.63937" lon="18.64458">
        <ele>7.402102</ele>
        <time>2020-08-30T12:32:29.915Z</time>
      </trkpt>
      <trkpt lat="59.63939" lon="18.64439">
        <ele>7.352694</ele>
        <time>2020-08-30T12:32:31.586Z</time>
      </trkpt>
      <trkpt lat="59.63944" lon="18.64376">
        <ele>7.193872</ele>
        <time>2020-08-30T12:32:36.986Z</time>
      </trkpt>
      <trkpt lat="59.63945" lon="18.64319">
        <ele>7.05057</ele>
        <time>2020-08-30T12:32:42.012Z</time>
      </trkpt>
      <trkpt lat="59.63943" lon="18.64249">
        <ele>6.877491</ele>
        <time>2020-08-30T12:32:48.390Z</time>
      </trkpt>
      <trkpt lat="59.6393" lon="18.64143">
        <ele>6.610484</ele>
        <time>2020-08-30T12:32:58.532Z</time>
      </trkpt>
      <trkpt lat="59.639" lon="18.63946">
        <ele>6.388798</ele>
        <time>2020-08-30T12:33:17.550Z</time>
      </trkpt>
      <trkpt lat="59.63883" lon="18.63838">
        <ele>6.267475</ele>
        <time>2020-08-30T12:33:27.478Z</time>
      </trkpt>
      <trkpt lat="59.63847" lon="18.63709">
        <ele>6.33588</ele>
        <time>2020-08-30T12:33:40.415Z</time>
      </trkpt>
      <trkpt lat="59.63786" lon="18.63559">
        <ele>6.510307</ele>
        <time>2020-08-30T12:33:58.260Z</time>
      </trkpt>
      <trkpt lat="59.63632" lon="18.63226">
        <ele>10.412517</ele>
        <time>2020-08-30T12:34:53.285Z</time>
      </trkpt>
      <trkpt lat="59.63467" lon="18.62856">
        <ele>16.955453</ele>
        <time>2020-08-30T12:36:06.962Z</time>
      </trkpt>
      <trkpt lat="59.63462" lon="18.62859">
        <ele>17.042035</ele>
        <time>2020-08-30T12:36:07.939Z</time>
      </trkpt>
      <trkpt lat="59.63456" lon="18.62862">
        <ele>17.164548</ele>
        <time>2020-08-30T12:36:09.300Z</time>
      </trkpt>
      <trkpt lat="59.63444" lon="18.62829">
        <ele>17.54923</ele>
        <time>2020-08-30T12:36:13.675Z</time>
      </trkpt>
      <trkpt lat="59.63425" lon="18.62777">
        <ele>18.149557</ele>
        <time>2020-08-30T12:36:19.935Z</time>
      </trkpt>
      <trkpt lat="59.63397" lon="18.62659">
        <ele>18.333125</ele>
        <time>2020-08-30T12:36:30.978Z</time>
      </trkpt>
      <trkpt lat="59.63389" lon="18.62613">
        <ele>18.204242</ele>
        <time>2020-08-30T12:36:34.586Z</time>
      </trkpt>
      <trkpt lat="59.63351" lon="18.62255">
        <ele>18.064991</ele>
        <time>2020-08-30T12:37:04.845Z</time>
      </trkpt>
      <trkpt lat="59.63342" lon="18.62185">
        <ele>18.296982</ele>
        <time>2020-08-30T12:37:12.668Z</time>
      </trkpt>
      <trkpt lat="59.63328" lon="18.62067">
        <ele>18.682181</ele>
        <time>2020-08-30T12:37:26.602Z</time>
      </trkpt>
      <trkpt lat="59.63307" lon="18.61769">
        <ele>21.068468</ele>
        <time>2020-08-30T12:38:02.593Z</time>
      </trkpt>
      <trkpt lat="59.63284" lon="18.61676">
        <ele>21.993616</ele>
        <time>2020-08-30T12:38:14.169Z</time>
      </trkpt>
      <trkpt lat="59.63273" lon="18.6161">
        <ele>22.701456</ele>
        <time>2020-08-30T12:38:21.294Z</time>
      </trkpt>
      <trkpt lat="59.63271" lon="18.61597">
        <ele>22.842923</ele>
        <time>2020-08-30T12:38:22.501Z</time>
      </trkpt>
      <trkpt lat="59.63267" lon="18.61565">
        <ele>23.181109</ele>
        <time>2020-08-30T12:38:26.040Z</time>
      </trkpt>
      <trkpt lat="59.63267" lon="18.61527">
        <ele>23.573604</ele>
        <time>2020-08-30T12:38:30.898Z</time>
      </trkpt>
      <trkpt lat="59.63289" lon="18.61314">
        <ele>26.37673</ele>
        <time>2020-08-30T12:38:59.828Z</time>
      </trkpt>
      <trkpt lat="59.63288" lon="18.61272">
        <ele>27.301275</ele>
        <time>2020-08-30T12:39:05.643Z</time>
      </trkpt>
      <trkpt lat="59.63282" lon="18.61235">
        <ele>28.172161</ele>
        <time>2020-08-30T12:39:12.230Z</time>
      </trkpt>
      <trkpt lat="59.63234" lon="18.61075">
        <ele>32.343289</ele>
        <time>2020-08-30T12:39:44.219Z</time>
      </trkpt>
      <trkpt lat="59.63173" lon="18.60925">
        <ele>36.406229</ele>
        <time>2020-08-30T12:40:18.214Z</time>
      </trkpt>
      <trkpt lat="59.63153" lon="18.6089">
        <ele>37.519195</ele>
        <time>2020-08-30T12:40:26.747Z</time>
      </trkpt>
      <trkpt lat="59.63111" lon="18.60836">
        <ele>39.587755</ele>
        <time>2020-08-30T12:40:41.431Z</time>
      </trkpt>
      <trkpt lat="59.63101" lon="18.60814">
        <ele>40.204346</ele>
        <time>2020-08-30T12:40:45.548Z</time>
      </trkpt>
      <trkpt lat="59.63097" lon="18.60788">
        <ele>40.709068</ele>
        <time>2020-08-30T12:40:48.969Z</time>
      </trkpt>
      <trkpt lat="59.63097" lon="18.6076">
        <ele>40.802195</ele>
        <time>2020-08-30T12:40:52.871Z</time>
      </trkpt>
      <trkpt lat="59.63102" lon="18.60727">
        <ele>40.915669</ele>
        <time>2020-08-30T12:40:56.823Z</time>
      </trkpt>
      <trkpt lat="59.63128" lon="18.6061">
        <ele>41.335488</ele>
        <time>2020-08-30T12:41:10.579Z</time>
      </trkpt>
      <trkpt lat="59.63126" lon="18.60439">
        <ele>41.812971</ele>
        <time>2020-08-30T12:41:25.192Z</time>
      </trkpt>
      <trkpt lat="59.63139" lon="18.60319">
        <ele>40.890381</ele>
        <time>2020-08-30T12:41:34.219Z</time>
      </trkpt>
      <trkpt lat="59.63151" lon="18.60267">
        <ele>40.454725</ele>
        <time>2020-08-30T12:41:38.349Z</time>
      </trkpt>
      <trkpt lat="59.63224" lon="18.60065">
        <ele>38.917934</ele>
        <time>2020-08-30T12:41:56.553Z</time>
      </trkpt>
      <trkpt lat="59.63261" lon="18.59974">
        <ele>38.531421</ele>
        <time>2020-08-30T12:42:05.847Z</time>
      </trkpt>
      <trkpt lat="59.63289" lon="18.59905">
        <ele>38.235689</ele>
        <time>2020-08-30T12:42:13.535Z</time>
      </trkpt>
      <trkpt lat="59.63338" lon="18.59769">
        <ele>38.164719</ele>
        <time>2020-08-30T12:42:29.191Z</time>
      </trkpt>
      <trkpt lat="59.63351" lon="18.59721">
        <ele>38.255989</ele>
        <time>2020-08-30T12:42:34.741Z</time>
      </trkpt>
      <trkpt lat="59.63354" lon="18.59688">
        <ele>38.310943</ele>
        <time>2020-08-30T12:42:38.159Z</time>
      </trkpt>
      <trkpt lat="59.63353" lon="18.59653">
        <ele>38.369812</ele>
        <time>2020-08-30T12:42:41.731Z</time>
      </trkpt>
      <trkpt lat="59.63337" lon="18.59533">
        <ele>38.578869</ele>
        <time>2020-08-30T12:42:53.638Z</time>
      </trkpt>
      <trkpt lat="59.63332" lon="18.59432">
        <ele>38.38117</ele>
        <time>2020-08-30T12:43:02.752Z</time>
      </trkpt>
      <trkpt lat="59.63351" lon="18.59092">
        <ele>37.45751</ele>
        <time>2020-08-30T12:43:30.502Z</time>
      </trkpt>
      <trkpt lat="59.63356" lon="18.59005">
        <ele>37.12046</ele>
        <time>2020-08-30T12:43:37.447Z</time>
      </trkpt>
      <trkpt lat="59.63359" lon="18.5894">
        <ele>36.867175</ele>
        <time>2020-08-30T12:43:42.714Z</time>
      </trkpt>
      <trkpt lat="59.63355" lon="18.58822">
        <ele>36.413056</ele>
        <time>2020-08-30T12:43:52.265Z</time>
      </trkpt>
      <trkpt lat="59.63338" lon="18.58748">
        <ele>36.203918</ele>
        <time>2020-08-30T12:43:58.957Z</time>
      </trkpt>
      <trkpt lat="59.63245" lon="18.58489">
        <ele>35.750418</ele>
        <time>2020-08-30T12:44:25.388Z</time>
      </trkpt>
      <trkpt lat="59.63221" lon="18.58438">
        <ele>36.201938</ele>
        <time>2020-08-30T12:44:31.823Z</time>
      </trkpt>
      <trkpt lat="59.63167" lon="18.5837">
        <ele>37.015066</ele>
        <time>2020-08-30T12:44:45.303Z</time>
      </trkpt>
      <trkpt lat="59.63119" lon="18.58318">
        <ele>37.711926</ele>
        <time>2020-08-30T12:44:59.391Z</time>
      </trkpt>
      <trkpt lat="59.63102" lon="18.5829">
        <ele>38.135153</ele>
        <time>2020-08-30T12:45:06.267Z</time>
      </trkpt>
      <trkpt lat="59.63081" lon="18.58224">
        <ele>39.059545</ele>
        <time>2020-08-30T12:45:16.380Z</time>
      </trkpt>
      <trkpt lat="59.63059" lon="18.58102">
        <ele>40.59937</ele>
        <time>2020-08-30T12:45:34.169Z</time>
      </trkpt>
      <trkpt lat="59.63047" lon="18.58033">
        <ele>41.455804</ele>
        <time>2020-08-30T12:45:43.888Z</time>
      </trkpt>
      <trkpt lat="59.6304" lon="18.57999">
        <ele>41.890982</ele>
        <time>2020-08-30T12:45:47.551Z</time>
      </trkpt>
      <trkpt lat="59.62997" lon="18.57843">
        <ele>41.181939</ele>
        <time>2020-08-30T12:46:04.974Z</time>
      </trkpt>
      <trkpt lat="59.62986" lon="18.57816">
        <ele>41.005744</ele>
        <time>2020-08-30T12:46:07.327Z</time>
      </trkpt>
      <trkpt lat="59.62964" lon="18.57763">
        <ele>40.658307</ele>
        <time>2020-08-30T12:46:12.057Z</time>
      </trkpt>
      <trkpt lat="59.62953" lon="18.57737">
        <ele>40.488497</ele>
        <time>2020-08-30T12:46:14.393Z</time>
      </trkpt>
      <trkpt lat="59.62945" lon="18.57707">
        <ele>40.319324</ele>
        <time>2020-08-30T12:46:16.708Z</time>
      </trkpt>
      <trkpt lat="59.62939" lon="18.57684">
        <ele>40.136495</ele>
        <time>2020-08-30T12:46:18.484Z</time>
      </trkpt>
      <trkpt lat="59.62926" lon="18.57549">
        <ele>38.610308</ele>
        <time>2020-08-30T12:46:27.972Z</time>
      </trkpt>
      <trkpt lat="59.62928" lon="18.57473">
        <ele>37.758641</ele>
        <time>2020-08-30T12:46:33.430Z</time>
      </trkpt>
      <trkpt lat="59.62933" lon="18.57338">
        <ele>36.251705</ele>
        <time>2020-08-30T12:46:43.105Z</time>
      </trkpt>
      <trkpt lat="59.62937" lon="18.5726">
        <ele>35.28103</ele>
        <time>2020-08-30T12:46:48.687Z</time>
      </trkpt>
      <trkpt lat="59.62941" lon="18.57177">
        <ele>34.248336</ele>
        <time>2020-08-30T12:46:54.534Z</time>
      </trkpt>
      <trkpt lat="59.62941" lon="18.57018">
        <ele>32.286008</ele>
        <time>2020-08-30T12:47:05.470Z</time>
      </trkpt>
      <trkpt lat="59.62947" lon="18.56766">
        <ele>28.424551</ele>
        <time>2020-08-30T12:47:22.211Z</time>
      </trkpt>
      <trkpt lat="59.62954" lon="18.56678">
        <ele>27.014233</ele>
        <time>2020-08-30T12:47:28.089Z</time>
      </trkpt>
      <trkpt lat="59.62968" lon="18.56585">
        <ele>25.607702</ele>
        <time>2020-08-30T12:47:34.457Z</time>
      </trkpt>
      <trkpt lat="59.6302" lon="18.56279">
        <ele>21.369629</ele>
        <time>2020-08-30T12:47:56.595Z</time>
      </trkpt>
      <trkpt lat="59.63036" lon="18.56077">
        <ele>19.748692</ele>
        <time>2020-08-30T12:48:11.640Z</time>
      </trkpt>
      <trkpt lat="59.63035" lon="18.56022">
        <ele>19.315198</ele>
        <time>2020-08-30T12:48:15.823Z</time>
      </trkpt>
      <trkpt lat="59.63021" lon="18.55952">
        <ele>18.719809</ele>
        <time>2020-08-30T12:48:21.671Z</time>
      </trkpt>
      <trkpt lat="59.62986" lon="18.55872">
        <ele>18.213011</ele>
        <time>2020-08-30T12:48:30.008Z</time>
      </trkpt>
      <trkpt lat="59.62969" lon="18.55808">
        <ele>17.880992</ele>
        <time>2020-08-30T12:48:35.723Z</time>
      </trkpt>
      <trkpt lat="59.62936" lon="18.55623">
        <ele>16.995337</ele>
        <time>2020-08-30T12:48:51.359Z</time>
      </trkpt>
      <trkpt lat="59.6292" lon="18.55449">
        <ele>16.437072</ele>
        <time>2020-08-30T12:49:05.538Z</time>
      </trkpt>
      <trkpt lat="59.6291" lon="18.55257">
        <ele>15.948169</ele>
        <time>2020-08-30T12:49:21.550Z</time>
      </trkpt>
      <trkpt lat="59.62882" lon="18.54793">
        <ele>17.357363</ele>
        <time>2020-08-30T12:50:06.561Z</time>
      </trkpt>
      <trkpt lat="59.62876" lon="18.54691">
        <ele>18.098763</ele>
        <time>2020-08-30T12:50:18.751Z</time>
      </trkpt>
      <trkpt lat="59.62869" lon="18.54649">
        <ele>18.416322</ele>
        <time>2020-08-30T12:50:24.277Z</time>
      </trkpt>
      <trkpt lat="59.62859" lon="18.54543">
        <ele>19.432212</ele>
        <time>2020-08-30T12:50:38.332Z</time>
      </trkpt>
      <trkpt lat="59.6286" lon="18.54478">
        <ele>20.284344</ele>
        <time>2020-08-30T12:50:46.953Z</time>
      </trkpt>
      <trkpt lat="59.62886" lon="18.54276">
        <ele>23.065547</ele>
        <time>2020-08-30T12:51:15.540Z</time>
      </trkpt>
      <trkpt lat="59.6291" lon="18.54207">
        <ele>24.028026</ele>
        <time>2020-08-30T12:51:26.229Z</time>
      </trkpt>
      <trkpt lat="59.62971" lon="18.54117">
        <ele>25.463813</ele>
        <time>2020-08-30T12:51:45.084Z</time>
      </trkpt>
      <trkpt lat="59.63004" lon="18.54037">
        <ele>26.452468</ele>
        <time>2020-08-30T12:51:57.136Z</time>
      </trkpt>
      <trkpt lat="59.63015" lon="18.53993">
        <ele>26.921829</ele>
        <time>2020-08-30T12:52:02.566Z</time>
      </trkpt>
      <trkpt lat="59.6302" lon="18.53973">
        <ele>27.102053</ele>
        <time>2020-08-30T12:52:05.045Z</time>
      </trkpt>
      <trkpt lat="59.6303" lon="18.53877">
        <ele>27.645384</ele>
        <time>2020-08-30T12:52:15.638Z</time>
      </trkpt>
      <trkpt lat="59.63029" lon="18.53798">
        <ele>28.080119</ele>
        <time>2020-08-30T12:52:24.001Z</time>
      </trkpt>
      <trkpt lat="59.6301" lon="18.53687">
        <ele>28.728829</ele>
        <time>2020-08-30T12:52:36.418Z</time>
      </trkpt>
      <trkpt lat="59.62944" lon="18.53524">
        <ele>30.351156</ele>
        <time>2020-08-30T12:52:59.067Z</time>
      </trkpt>
      <trkpt lat="59.62936" lon="18.53484">
        <ele>30.723536</ele>
        <time>2020-08-30T12:53:04.314Z</time>
      </trkpt>
      <trkpt lat="59.6293" lon="18.53417">
        <ele>31.306982</ele>
        <time>2020-08-30T12:53:12.878Z</time>
      </trkpt>
      <trkpt lat="59.62936" lon="18.53361">
        <ele>31.804004</ele>
        <time>2020-08-30T12:53:20.296Z</time>
      </trkpt>
      <trkpt lat="59.62938" lon="18.533">
        <ele>32.254914</ele>
        <time>2020-08-30T12:53:27.908Z</time>
      </trkpt>
      <trkpt lat="59.62933" lon="18.53251">
        <ele>32.570797</ele>
        <time>2020-08-30T12:53:34.185Z</time>
      </trkpt>
      <trkpt lat="59.62909" lon="18.53149">
        <ele>33.272821</ele>
        <time>2020-08-30T12:53:47.605Z</time>
      </trkpt>
      <trkpt lat="59.62906" lon="18.53094">
        <ele>33.616015</ele>
        <time>2020-08-30T12:53:53.812Z</time>
      </trkpt>
      <trkpt lat="59.62926" lon="18.52954">
        <ele>33.991739</ele>
        <time>2020-08-30T12:54:08.301Z</time>
      </trkpt>
      <trkpt lat="59.62953" lon="18.52691">
        <ele>31.74977</ele>
        <time>2020-08-30T12:54:27.347Z</time>
      </trkpt>
      <trkpt lat="59.62965" lon="18.52613">
        <ele>31.125699</ele>
        <time>2020-08-30T12:54:32.970Z</time>
      </trkpt>
      <trkpt lat="59.62967" lon="18.52607">
        <ele>31.083838</ele>
        <time>2020-08-30T12:54:33.372Z</time>
      </trkpt>
      <trkpt lat="59.62985" lon="18.52534">
        <ele>30.570873</ele>
        <time>2020-08-30T12:54:39.114Z</time>
      </trkpt>
      <trkpt lat="59.62999" lon="18.52467">
        <ele>30.112249</ele>
        <time>2020-08-30T12:54:44.434Z</time>
      </trkpt>
      <trkpt lat="59.63003" lon="18.52444">
        <ele>29.955228</ele>
        <time>2020-08-30T12:54:46.377Z</time>
      </trkpt>
      <trkpt lat="59.6302" lon="18.52312">
        <ele>29.09428</ele>
        <time>2020-08-30T12:54:57.521Z</time>
      </trkpt>
      <trkpt lat="59.63034" lon="18.52202">
        <ele>29.467091</ele>
        <time>2020-08-30T12:55:09.203Z</time>
      </trkpt>
      <trkpt lat="59.63053" lon="18.52051">
        <ele>30.025546</ele>
        <time>2020-08-30T12:55:26.278Z</time>
      </trkpt>
      <trkpt lat="59.63058" lon="18.51998">
        <ele>30.221861</ele>
        <time>2020-08-30T12:55:32.350Z</time>
      </trkpt>
      <trkpt lat="59.63063" lon="18.5195">
        <ele>30.255343</ele>
        <time>2020-08-30T12:55:37.582Z</time>
      </trkpt>
      <trkpt lat="59.63067" lon="18.51927">
        <ele>30.087071</ele>
        <time>2020-08-30T12:55:39.589Z</time>
      </trkpt>
      <trkpt lat="59.6307" lon="18.51906">
        <ele>29.924737</ele>
        <time>2020-08-30T12:55:41.562Z</time>
      </trkpt>
      <trkpt lat="59.63085" lon="18.5184">
        <ele>29.406793</ele>
        <time>2020-08-30T12:55:47.575Z</time>
      </trkpt>
      <trkpt lat="59.63099" lon="18.51777">
        <ele>28.906177</ele>
        <time>2020-08-30T12:55:52.979Z</time>
      </trkpt>
      <trkpt lat="59.63108" lon="18.51739">
        <ele>28.606639</ele>
        <time>2020-08-30T12:55:55.744Z</time>
      </trkpt>
      <trkpt lat="59.6311" lon="18.51692">
        <ele>28.266938</ele>
        <time>2020-08-30T12:55:59.065Z</time>
      </trkpt>
      <trkpt lat="59.63107" lon="18.5164">
        <ele>27.886767</ele>
        <time>2020-08-30T12:56:02.495Z</time>
      </trkpt>
      <trkpt lat="59.63085" lon="18.51495">
        <ele>26.050399</ele>
        <time>2020-08-30T12:56:12.611Z</time>
      </trkpt>
      <trkpt lat="59.63081" lon="18.51463">
        <ele>25.623376</ele>
        <time>2020-08-30T12:56:14.758Z</time>
      </trkpt>
      <trkpt lat="59.63079" lon="18.51433">
        <ele>25.251331</ele>
        <time>2020-08-30T12:56:16.817Z</time>
      </trkpt>
      <trkpt lat="59.63076" lon="18.51354">
        <ele>24.246637</ele>
        <time>2020-08-30T12:56:22.220Z</time>
      </trkpt>
      <trkpt lat="59.63076" lon="18.51328">
        <ele>23.918674</ele>
        <time>2020-08-30T12:56:23.961Z</time>
      </trkpt>
      <trkpt lat="59.63087" lon="18.51091">
        <ele>23.286278</ele>
        <time>2020-08-30T12:56:43.193Z</time>
      </trkpt>
      <trkpt lat="59.63078" lon="18.50976">
        <ele>23.289424</ele>
        <time>2020-08-30T12:56:55.703Z</time>
      </trkpt>
      <trkpt lat="59.63057" lon="18.50884">
        <ele>23.512812</ele>
        <time>2020-08-30T12:57:06.736Z</time>
      </trkpt>
      <trkpt lat="59.63047" lon="18.50855">
        <ele>23.670036</ele>
        <time>2020-08-30T12:57:10.545Z</time>
      </trkpt>
      <trkpt lat="59.62985" lon="18.50692">
        <ele>24.57944</ele>
        <time>2020-08-30T12:57:31.173Z</time>
      </trkpt>
      <trkpt lat="59.62983" lon="18.50681">
        <ele>24.631277</ele>
        <time>2020-08-30T12:57:32.458Z</time>
      </trkpt>
      <trkpt lat="59.62916" lon="18.50732">
        <ele>25.943679</ele>
        <time>2020-08-30T12:57:47.307Z</time>
      </trkpt>
      <trkpt lat="59.62897" lon="18.50739">
        <ele>26.401291</ele>
        <time>2020-08-30T12:57:51.795Z</time>
      </trkpt>
      <trkpt lat="59.62887" lon="18.50744">
        <ele>26.666496</ele>
        <time>2020-08-30T12:57:54.328Z</time>
      </trkpt>
      <trkpt lat="59.62867" lon="18.50743">
        <ele>27.158888</ele>
        <time>2020-08-30T12:57:59.814Z</time>
      </trkpt>
      <trkpt lat="59.62832" lon="18.5074">
        <ele>28.013881</ele>
        <time>2020-08-30T12:58:09.293Z</time>
      </trkpt>
      <trkpt lat="59.62814" lon="18.50733">
        <ele>28.4614</ele>
        <time>2020-08-30T12:58:14.132Z</time>
      </trkpt>
      <trkpt lat="59.62717" lon="18.50697">
        <ele>31.880535</ele>
        <time>2020-08-30T12:58:43.901Z</time>
      </trkpt>
      <trkpt lat="59.62662" lon="18.50679">
        <ele>34.103205</ele>
        <time>2020-08-30T12:59:01.671Z</time>
      </trkpt>
      <trkpt lat="59.62632" lon="18.50681">
        <ele>35.313341</ele>
        <time>2020-08-30T12:59:11.439Z</time>
      </trkpt>
      <trkpt lat="59.62567" lon="18.50696">
        <ele>37.522507</ele>
        <time>2020-08-30T12:59:31.078Z</time>
      </trkpt>
      <trkpt lat="59.62566" lon="18.50668">
        <ele>37.934489</ele>
        <time>2020-08-30T12:59:35.696Z</time>
      </trkpt>
      <trkpt lat="59.62566" lon="18.50635">
        <ele>38.427031</ele>
        <time>2020-08-30T12:59:39.891Z</time>
      </trkpt>
      <trkpt lat="59.62579" lon="18.50497">
        <ele>40.489942</ele>
        <time>2020-08-30T12:59:58.146Z</time>
      </trkpt>
      <trkpt lat="59.62585" lon="18.50455">
        <ele>41.126149</ele>
        <time>2020-08-30T13:00:03.929Z</time>
      </trkpt>
      <trkpt lat="59.62583" lon="18.5038">
        <ele>42.315669</ele>
        <time>2020-08-30T13:00:14.070Z</time>
      </trkpt>
      <trkpt lat="59.62582" lon="18.50259">
        <ele>44.360289</ele>
        <time>2020-08-30T13:00:32.663Z</time>
      </trkpt>
      <trkpt lat="59.62585" lon="18.5023">
        <ele>44.848636</ele>
        <time>2020-08-30T13:00:36.698Z</time>
      </trkpt>
      <trkpt lat="59.62587" lon="18.50214">
        <ele>45.133144</ele>
        <time>2020-08-30T13:00:39.843Z</time>
      </trkpt>
      <trkpt lat="59.626" lon="18.50143">
        <ele>46.410086</ele>
        <time>2020-08-30T13:00:51.717Z</time>
      </trkpt>
      <trkpt lat="59.62595" lon="18.50101">
        <ele>47.136772</ele>
        <time>2020-08-30T13:00:57.540Z</time>
      </trkpt>
      <trkpt lat="59.62581" lon="18.49963">
        <ele>49.017968</ele>
        <time>2020-08-30T13:01:18.269Z</time>
      </trkpt>
      <trkpt lat="59.62573" lon="18.49888">
        <ele>49.953077</ele>
        <time>2020-08-30T13:01:29.676Z</time>
      </trkpt>
      <trkpt lat="59.6258" lon="18.49784">
        <ele>51.229423</ele>
        <time>2020-08-30T13:01:43.318Z</time>
      </trkpt>
      <trkpt lat="59.62599" lon="18.49721">
        <ele>52.052672</ele>
        <time>2020-08-30T13:01:51.648Z</time>
      </trkpt>
      <trkpt lat="59.62613" lon="18.49635">
        <ele>52.14705</ele>
        <time>2020-08-30T13:02:00.329Z</time>
      </trkpt>
      <trkpt lat="59.62614" lon="18.49599">
        <ele>52.1847</ele>
        <time>2020-08-30T13:02:03.584Z</time>
      </trkpt>
      <trkpt lat="59.62607" lon="18.49548">
        <ele>52.239753</ele>
        <time>2020-08-30T13:02:08.295Z</time>
      </trkpt>
      <trkpt lat="59.62573" lon="18.49421">
        <ele>52.38873</ele>
        <time>2020-08-30T13:02:21.151Z</time>
      </trkpt>
      <trkpt lat="59.6249" lon="18.49168">
        <ele>53.991792</ele>
        <time>2020-08-30T13:02:53.894Z</time>
      </trkpt>
      <trkpt lat="59.62484" lon="18.49131">
        <ele>54.210612</ele>
        <time>2020-08-30T13:02:58.794Z</time>
      </trkpt>
      <trkpt lat="59.6248" lon="18.48999">
        <ele>55.309293</ele>
        <time>2020-08-30T13:03:15.937Z</time>
      </trkpt>
      <trkpt lat="59.62449" lon="18.48509">
        <ele>58.764462</ele>
        <time>2020-08-30T13:04:16.996Z</time>
      </trkpt>
      <trkpt lat="59.62422" lon="18.48428">
        <ele>59.174551</ele>
        <time>2020-08-30T13:04:25.448Z</time>
      </trkpt>
      <trkpt lat="59.62388" lon="18.48285">
        <ele>58.283345</ele>
        <time>2020-08-30T13:04:38.114Z</time>
      </trkpt>
      <trkpt lat="59.62387" lon="18.48262">
        <ele>58.097122</ele>
        <time>2020-08-30T13:04:39.969Z</time>
      </trkpt>
      <trkpt lat="59.62388" lon="18.48243">
        <ele>57.945586</ele>
        <time>2020-08-30T13:04:41.301Z</time>
      </trkpt>
      <trkpt lat="59.6243" lon="18.48068">
        <ele>56.446429</ele>
        <time>2020-08-30T13:04:55.818Z</time>
      </trkpt>
      <trkpt lat="59.62494" lon="18.47862">
        <ele>54.955388</ele>
        <time>2020-08-30T13:05:14.865Z</time>
      </trkpt>
      <trkpt lat="59.62495" lon="18.47763">
        <ele>54.346858</ele>
        <time>2020-08-30T13:05:23.329Z</time>
      </trkpt>
      <trkpt lat="59.6245" lon="18.47482">
        <ele>53.16379</ele>
        <time>2020-08-30T13:05:48.746Z</time>
      </trkpt>
      <trkpt lat="59.62435" lon="18.47241">
        <ele>51.389368</ele>
        <time>2020-08-30T13:06:08.017Z</time>
      </trkpt>
      <trkpt lat="59.62432" lon="18.47223">
        <ele>51.228069</ele>
        <time>2020-08-30T13:06:09.420Z</time>
      </trkpt>
      <trkpt lat="59.62429" lon="18.47205">
        <ele>51.066415</ele>
        <time>2020-08-30T13:06:10.780Z</time>
      </trkpt>
      <trkpt lat="59.62409" lon="18.47145">
        <ele>50.448394</ele>
        <time>2020-08-30T13:06:16.214Z</time>
      </trkpt>
      <trkpt lat="59.62389" lon="18.47015">
        <ele>49.162803</ele>
        <time>2020-08-30T13:06:26.180Z</time>
      </trkpt>
      <trkpt lat="59.62405" lon="18.4678">
        <ele>46.679672</ele>
        <time>2020-08-30T13:06:43.534Z</time>
      </trkpt>
      <trkpt lat="59.62404" lon="18.46753">
        <ele>46.402145</ele>
        <time>2020-08-30T13:06:45.508Z</time>
      </trkpt>
      <trkpt lat="59.62397" lon="18.46699">
        <ele>45.997984</ele>
        <time>2020-08-30T13:06:49.793Z</time>
      </trkpt>
      <trkpt lat="59.6231" lon="18.4646">
        <ele>44.758287</ele>
        <time>2020-08-30T13:07:15.169Z</time>
      </trkpt>
      <trkpt lat="59.62276" lon="18.464">
        <ele>44.150005</ele>
        <time>2020-08-30T13:07:23.458Z</time>
      </trkpt>
      <trkpt lat="59.62239" lon="18.46327">
        <ele>43.308629</ele>
        <time>2020-08-30T13:07:31.692Z</time>
      </trkpt>
      <trkpt lat="59.62212" lon="18.46283">
        <ele>42.741989</ele>
        <time>2020-08-30T13:07:36.730Z</time>
      </trkpt>
      <trkpt lat="59.62211" lon="18.46278">
        <ele>42.702022</ele>
        <time>2020-08-30T13:07:37.972Z</time>
      </trkpt>
      <trkpt lat="59.6221" lon="18.46266">
        <ele>42.600703</ele>
        <time>2020-08-30T13:07:38.706Z</time>
      </trkpt>
      <trkpt lat="59.62217" lon="18.46241">
        <ele>42.365312</ele>
        <time>2020-08-30T13:07:40.894Z</time>
      </trkpt>
      <trkpt lat="59.62275" lon="18.46172">
        <ele>41.209475</ele>
        <time>2020-08-30T13:07:51.033Z</time>
      </trkpt>
      <trkpt lat="59.62281" lon="18.46161">
        <ele>41.056807</ele>
        <time>2020-08-30T13:07:52.041Z</time>
      </trkpt>
      <trkpt lat="59.62285" lon="18.46151">
        <ele>40.937849</ele>
        <time>2020-08-30T13:07:53.280Z</time>
      </trkpt>
      <trkpt lat="59.62288" lon="18.46102">
        <ele>40.477161</ele>
        <time>2020-08-30T13:07:56.794Z</time>
      </trkpt>
      <trkpt lat="59.62282" lon="18.46021">
        <ele>39.715369</ele>
        <time>2020-08-30T13:08:02.414Z</time>
      </trkpt>
      <trkpt lat="59.62281" lon="18.4599">
        <ele>39.427738</ele>
        <time>2020-08-30T13:08:05.393Z</time>
      </trkpt>
      <trkpt lat="59.62288" lon="18.45916">
        <ele>38.725142</ele>
        <time>2020-08-30T13:08:11.481Z</time>
      </trkpt>
      <trkpt lat="59.62286" lon="18.45815">
        <ele>38.696712</ele>
        <time>2020-08-30T13:08:20.756Z</time>
      </trkpt>
      <trkpt lat="59.62295" lon="18.45735">
        <ele>39.031448</ele>
        <time>2020-08-30T13:08:29.980Z</time>
      </trkpt>
      <trkpt lat="59.62299" lon="18.45715">
        <ele>39.117314</ele>
        <time>2020-08-30T13:08:32.581Z</time>
      </trkpt>
      <trkpt lat="59.62295" lon="18.45667">
        <ele>39.316461</ele>
        <time>2020-08-30T13:08:37.959Z</time>
      </trkpt>
      <trkpt lat="59.62289" lon="18.45628">
        <ele>39.480421</ele>
        <time>2020-08-30T13:08:42.664Z</time>
      </trkpt>
      <trkpt lat="59.62272" lon="18.45545">
        <ele>39.845018</ele>
        <time>2020-08-30T13:08:52.709Z</time>
      </trkpt>
      <trkpt lat="59.6225" lon="18.45465">
        <ele>40.488995</ele>
        <time>2020-08-30T13:09:03.261Z</time>
      </trkpt>
      <trkpt lat="59.62194" lon="18.45361">
        <ele>41.576833</ele>
        <time>2020-08-30T13:09:20.730Z</time>
      </trkpt>
      <trkpt lat="59.62179" lon="18.45343">
        <ele>41.834999</ele>
        <time>2020-08-30T13:09:24.930Z</time>
      </trkpt>
      <trkpt lat="59.62105" lon="18.453">
        <ele>43.08204</ele>
        <time>2020-08-30T13:09:43.230Z</time>
      </trkpt>
      <trkpt lat="59.62091" lon="18.45265">
        <ele>43.510145</ele>
        <time>2020-08-30T13:09:48.958Z</time>
      </trkpt>
      <trkpt lat="59.62077" lon="18.45202">
        <ele>44.159312</ele>
        <time>2020-08-30T13:09:57.740Z</time>
      </trkpt>
      <trkpt lat="59.62055" lon="18.45147">
        <ele>44.813019</ele>
        <time>2020-08-30T13:10:06.573Z</time>
      </trkpt>
      <trkpt lat="59.62023" lon="18.45103">
        <ele>45.542526</ele>
        <time>2020-08-30T13:10:16.334Z</time>
      </trkpt>
      <trkpt lat="59.61973" lon="18.45069">
        <ele>46.021596</ele>
        <time>2020-08-30T13:10:28.926Z</time>
      </trkpt>
      <trkpt lat="59.61957" lon="18.45042">
        <ele>46.150824</ele>
        <time>2020-08-30T13:10:34.149Z</time>
      </trkpt>
      <trkpt lat="59.6191" lon="18.45001">
        <ele>46.457888</ele>
        <time>2020-08-30T13:10:45.485Z</time>
      </trkpt>
      <trkpt lat="59.61901" lon="18.44988">
        <ele>46.525809</ele>
        <time>2020-08-30T13:10:47.470Z</time>
      </trkpt>
      <trkpt lat="59.61893" lon="18.44966">
        <ele>46.609115</ele>
        <time>2020-08-30T13:10:50.369Z</time>
      </trkpt>
      <trkpt lat="59.61886" lon="18.44928">
        <ele>46.733329</ele>
        <time>2020-08-30T13:10:53.698Z</time>
      </trkpt>
      <trkpt lat="59.61879" lon="18.449">
        <ele>46.827683</ele>
        <time>2020-08-30T13:10:56.720Z</time>
      </trkpt>
      <trkpt lat="59.61872" lon="18.44877">
        <ele>46.760794</ele>
        <time>2020-08-30T13:10:58.709Z</time>
      </trkpt>
      <trkpt lat="59.61868" lon="18.4486">
        <ele>46.622132</ele>
        <time>2020-08-30T13:11:00.295Z</time>
      </trkpt>
      <trkpt lat="59.61865" lon="18.44811">
        <ele>46.253991</ele>
        <time>2020-08-30T13:11:03.806Z</time>
      </trkpt>
      <trkpt lat="59.61868" lon="18.44752">
        <ele>45.814464</ele>
        <time>2020-08-30T13:11:08.350Z</time>
      </trkpt>
      <trkpt lat="59.61869" lon="18.4473">
        <ele>45.649906</ele>
        <time>2020-08-30T13:11:09.810Z</time>
      </trkpt>
      <trkpt lat="59.61859" lon="18.44669">
        <ele>45.181343</ele>
        <time>2020-08-30T13:11:14.425Z</time>
      </trkpt>
      <trkpt lat="59.61814" lon="18.44612">
        <ele>44.3965</ele>
        <time>2020-08-30T13:11:24.376Z</time>
      </trkpt>
      <trkpt lat="59.618" lon="18.44602">
        <ele>44.236977</ele>
        <time>2020-08-30T13:11:26.512Z</time>
      </trkpt>
      <trkpt lat="59.61795" lon="18.44599">
        <ele>44.245672</ele>
        <time>2020-08-30T13:11:27.187Z</time>
      </trkpt>
      <trkpt lat="59.61744" lon="18.44529">
        <ele>44.36009</ele>
        <time>2020-08-30T13:11:38.160Z</time>
      </trkpt>
      <trkpt lat="59.61735" lon="18.44511">
        <ele>44.382985</ele>
        <time>2020-08-30T13:11:40.388Z</time>
      </trkpt>
      <trkpt lat="59.6173" lon="18.44497">
        <ele>44.399271</ele>
        <time>2020-08-30T13:11:43.349Z</time>
      </trkpt>
      <trkpt lat="59.61724" lon="18.44406">
        <ele>44.484638</ele>
        <time>2020-08-30T13:11:52.356Z</time>
      </trkpt>
      <trkpt lat="59.61723" lon="18.44232">
        <ele>43.226053</ele>
        <time>2020-08-30T13:12:11.675Z</time>
      </trkpt>
      <trkpt lat="59.61717" lon="18.44172">
        <ele>42.339077</ele>
        <time>2020-08-30T13:12:16.356Z</time>
      </trkpt>
      <trkpt lat="59.61711" lon="18.44136">
        <ele>41.786542</ele>
        <time>2020-08-30T13:12:18.900Z</time>
      </trkpt>
      <trkpt lat="59.61663" lon="18.43993">
        <ele>39.22545</ele>
        <time>2020-08-30T13:12:29.914Z</time>
      </trkpt>
      <trkpt lat="59.61661" lon="18.43969">
        <ele>38.569844</ele>
        <time>2020-08-30T13:12:31.506Z</time>
      </trkpt>
      <trkpt lat="59.61667" lon="18.4394">
        <ele>37.72258</ele>
        <time>2020-08-30T13:12:33.401Z</time>
      </trkpt>
      <trkpt lat="59.61703" lon="18.43854">
        <ele>34.747076</ele>
        <time>2020-08-30T13:12:40.473Z</time>
      </trkpt>
      <trkpt lat="59.61707" lon="18.43811">
        <ele>33.59467</ele>
        <time>2020-08-30T13:12:43.136Z</time>
      </trkpt>
      <trkpt lat="59.61703" lon="18.43774">
        <ele>32.59134</ele>
        <time>2020-08-30T13:12:45.544Z</time>
      </trkpt>
      <trkpt lat="59.61699" lon="18.43749">
        <ele>31.903577</ele>
        <time>2020-08-30T13:12:47.101Z</time>
      </trkpt>
      <trkpt lat="59.61687" lon="18.43701">
        <ele>30.493453</ele>
        <time>2020-08-30T13:12:50.550Z</time>
      </trkpt>
      <trkpt lat="59.6168" lon="18.43678">
        <ele>29.963145</ele>
        <time>2020-08-30T13:12:52.343Z</time>
      </trkpt>
      <trkpt lat="59.61656" lon="18.43603">
        <ele>29.666605</ele>
        <time>2020-08-30T13:12:59.298Z</time>
      </trkpt>
      <trkpt lat="59.6164" lon="18.4351">
        <ele>29.343026</ele>
        <time>2020-08-30T13:13:07.261Z</time>
      </trkpt>
      <trkpt lat="59.61637" lon="18.43501">
        <ele>29.305209</ele>
        <time>2020-08-30T13:13:08.063Z</time>
      </trkpt>
      <trkpt lat="59.6163" lon="18.43488">
        <ele>29.242392</ele>
        <time>2020-08-30T13:13:10.194Z</time>
      </trkpt>
      <trkpt lat="59.61535" lon="18.43412">
        <ele>29.869484</ele>
        <time>2020-08-30T13:13:34.412Z</time>
      </trkpt>
      <trkpt lat="59.61515" lon="18.43409">
        <ele>30.442219</ele>
        <time>2020-08-30T13:13:39.178Z</time>
      </trkpt>
      <trkpt lat="59.61448" lon="18.43436">
        <ele>32.415784</ele>
        <time>2020-08-30T13:13:57.861Z</time>
      </trkpt>
      <trkpt lat="59.61442" lon="18.43432">
        <ele>32.605024</ele>
        <time>2020-08-30T13:13:59.487Z</time>
      </trkpt>
      <trkpt lat="59.6144" lon="18.43422">
        <ele>32.756032</ele>
        <time>2020-08-30T13:14:01.695Z</time>
      </trkpt>
      <trkpt lat="59.61445" lon="18.43379">
        <ele>33.414</ele>
        <time>2020-08-30T13:14:08.119Z</time>
      </trkpt>
      <trkpt lat="59.61477" lon="18.43287">
        <ele>35.872778</ele>
        <time>2020-08-30T13:14:27.459Z</time>
      </trkpt>
      <trkpt lat="59.61478" lon="18.43266">
        <ele>36.443501</ele>
        <time>2020-08-30T13:14:31.021Z</time>
      </trkpt>
      <trkpt lat="59.61472" lon="18.43227">
        <ele>37.552112</ele>
        <time>2020-08-30T13:14:39.133Z</time>
      </trkpt>
      <trkpt lat="59.61452" lon="18.43174">
        <ele>39.303447</ele>
        <time>2020-08-30T13:14:51.444Z</time>
      </trkpt>
      <trkpt lat="59.61438" lon="18.43127">
        <ele>40.733848</ele>
        <time>2020-08-30T13:15:01.313Z</time>
      </trkpt>
      <trkpt lat="59.61429" lon="18.43082">
        <ele>42.02837</ele>
        <time>2020-08-30T13:15:09.806Z</time>
      </trkpt>
      <trkpt lat="59.61429" lon="18.43062">
        <ele>42.574517</ele>
        <time>2020-08-30T13:15:14.225Z</time>
      </trkpt>
      <trkpt lat="59.61435" lon="18.43019">
        <ele>43.695091</ele>
        <time>2020-08-30T13:15:21.570Z</time>
      </trkpt>
      <trkpt lat="59.61458" lon="18.42943">
        <ele>45.535453</ele>
        <time>2020-08-30T13:15:37.768Z</time>
      </trkpt>
      <trkpt lat="59.61491" lon="18.42906">
        <ele>47.089035</ele>
        <time>2020-08-30T13:15:51.138Z</time>
      </trkpt>
      <trkpt lat="59.61505" lon="18.4288">
        <ele>47.905566</ele>
        <time>2020-08-30T13:15:56.904Z</time>
      </trkpt>
      <trkpt lat="59.61507" lon="18.42865">
        <ele>48.227128</ele>
        <time>2020-08-30T13:15:59.992Z</time>
      </trkpt>
      <trkpt lat="59.61508" lon="18.42859">
        <ele>48.343081</ele>
        <time>2020-08-30T13:16:01.175Z</time>
      </trkpt>
      <trkpt lat="59.61493" lon="18.42696">
        <ele>50.872403</ele>
        <time>2020-08-30T13:16:23.897Z</time>
      </trkpt>
      <trkpt lat="59.61492" lon="18.42677">
        <ele>50.870636</ele>
        <time>2020-08-30T13:16:25.752Z</time>
      </trkpt>
      <trkpt lat="59.61488" lon="18.42655">
        <ele>50.868485</ele>
        <time>2020-08-30T13:16:29.161Z</time>
      </trkpt>
      <trkpt lat="59.61474" lon="18.42617">
        <ele>50.864141</ele>
        <time>2020-08-30T13:16:33.688Z</time>
      </trkpt>
      <trkpt lat="59.61457" lon="18.42578">
        <ele>50.859193</ele>
        <time>2020-08-30T13:16:39.482Z</time>
      </trkpt>
      <trkpt lat="59.61449" lon="18.42558">
        <ele>50.856825</ele>
        <time>2020-08-30T13:16:41.545Z</time>
      </trkpt>
      <trkpt lat="59.61439" lon="18.42503">
        <ele>50.851377</ele>
        <time>2020-08-30T13:16:46.301Z</time>
      </trkpt>
      <trkpt lat="59.61449" lon="18.42354">
        <ele>49.6027</ele>
        <time>2020-08-30T13:16:57.631Z</time>
      </trkpt>
      <trkpt lat="59.61501" lon="18.42092">
        <ele>44.129197</ele>
        <time>2020-08-30T13:17:16.019Z</time>
      </trkpt>
      <trkpt lat="59.61523" lon="18.41988">
        <ele>42.805979</ele>
        <time>2020-08-30T13:17:23.538Z</time>
      </trkpt>
      <trkpt lat="59.61523" lon="18.41966">
        <ele>42.55534</ele>
        <time>2020-08-30T13:17:25.101Z</time>
      </trkpt>
      <trkpt lat="59.6152" lon="18.41924">
        <ele>42.090089</ele>
        <time>2020-08-30T13:17:28.086Z</time>
      </trkpt>
      <trkpt lat="59.61497" lon="18.41802">
        <ele>40.655115</ele>
        <time>2020-08-30T13:17:37.992Z</time>
      </trkpt>
      <trkpt lat="59.61482" lon="18.41646">
        <ele>40.925591</ele>
        <time>2020-08-30T13:17:54.469Z</time>
      </trkpt>
      <trkpt lat="59.61437" lon="18.41442">
        <ele>42.946315</ele>
        <time>2020-08-30T13:18:24.297Z</time>
      </trkpt>
      <trkpt lat="59.6142" lon="18.41247">
        <ele>45.019589</ele>
        <time>2020-08-30T13:18:51.328Z</time>
      </trkpt>
      <trkpt lat="59.61386" lon="18.41086">
        <ele>46.875806</ele>
        <time>2020-08-30T13:19:13.023Z</time>
      </trkpt>
      <trkpt lat="59.6138" lon="18.40996">
        <ele>47.177498</ele>
        <time>2020-08-30T13:19:23.571Z</time>
      </trkpt>
      <trkpt lat="59.61382" lon="18.40944">
        <ele>47.261126</ele>
        <time>2020-08-30T13:19:29.342Z</time>
      </trkpt>
      <trkpt lat="59.61399" lon="18.40751">
        <ele>47.574719</ele>
        <time>2020-08-30T13:19:47.563Z</time>
      </trkpt>
      <trkpt lat="59.61417" lon="18.40659">
        <ele>47.122045</ele>
        <time>2020-08-30T13:19:55.901Z</time>
      </trkpt>
      <trkpt lat="59.61418" lon="18.40652">
        <ele>47.071339</ele>
        <time>2020-08-30T13:19:56.452Z</time>
      </trkpt>
      <trkpt lat="59.61422" lon="18.4062">
        <ele>46.813069</ele>
        <time>2020-08-30T13:19:59.050Z</time>
      </trkpt>
      <trkpt lat="59.61422" lon="18.40534">
        <ele>46.149385</ele>
        <time>2020-08-30T13:20:05.594Z</time>
      </trkpt>
      <trkpt lat="59.61441" lon="18.40362">
        <ele>44.805791</ele>
        <time>2020-08-30T13:20:18.730Z</time>
      </trkpt>
      <trkpt lat="59.6144" lon="18.40326">
        <ele>44.594336</ele>
        <time>2020-08-30T13:20:21.567Z</time>
      </trkpt>
      <trkpt lat="59.61439" lon="18.40295">
        <ele>44.405515</ele>
        <time>2020-08-30T13:20:23.874Z</time>
      </trkpt>
      <trkpt lat="59.61433" lon="18.40272">
        <ele>44.252994</ele>
        <time>2020-08-30T13:20:26.065Z</time>
      </trkpt>
      <trkpt lat="59.61418" lon="18.40241">
        <ele>44.000542</ele>
        <time>2020-08-30T13:20:29.301Z</time>
      </trkpt>
      <trkpt lat="59.61314" lon="18.40099">
        <ele>42.794755</ele>
        <time>2020-08-30T13:20:50.216Z</time>
      </trkpt>
      <trkpt lat="59.61296" lon="18.40063">
        <ele>42.820752</ele>
        <time>2020-08-30T13:20:54.903Z</time>
      </trkpt>
      <trkpt lat="59.61283" lon="18.39993">
        <ele>42.860473</ele>
        <time>2020-08-30T13:21:02.060Z</time>
      </trkpt>
      <trkpt lat="59.61271" lon="18.39886">
        <ele>42.917807</ele>
        <time>2020-08-30T13:21:12.779Z</time>
      </trkpt>
      <trkpt lat="59.61265" lon="18.39829">
        <ele>42.947913</ele>
        <time>2020-08-30T13:21:18.593Z</time>
      </trkpt>
      <trkpt lat="59.61268" lon="18.39801">
        <ele>43.033282</ele>
        <time>2020-08-30T13:21:21.631Z</time>
      </trkpt>
      <trkpt lat="59.6129" lon="18.3974">
        <ele>43.773898</ele>
        <time>2020-08-30T13:21:29.679Z</time>
      </trkpt>
      <trkpt lat="59.61299" lon="18.39714">
        <ele>44.095633</ele>
        <time>2020-08-30T13:21:33.250Z</time>
      </trkpt>
      <trkpt lat="59.613" lon="18.39697">
        <ele>44.261241</ele>
        <time>2020-08-30T13:21:35.200Z</time>
      </trkpt>
      <trkpt lat="59.61295" lon="18.39664">
        <ele>44.607973</ele>
        <time>2020-08-30T13:21:39.168Z</time>
      </trkpt>
      <trkpt lat="59.61265" lon="18.39591">
        <ele>45.549802</ele>
        <time>2020-08-30T13:21:50.728Z</time>
      </trkpt>
      <trkpt lat="59.61246" lon="18.39511">
        <ele>46.427088</ele>
        <time>2020-08-30T13:22:04.093Z</time>
      </trkpt>
      <trkpt lat="59.61246" lon="18.39469">
        <ele>47.28894</ele>
        <time>2020-08-30T13:22:10.390Z</time>
      </trkpt>
      <trkpt lat="59.6125" lon="18.39449">
        <ele>47.790095</ele>
        <time>2020-08-30T13:22:14.123Z</time>
      </trkpt>
      <trkpt lat="59.61273" lon="18.39394">
        <ele>49.421932</ele>
        <time>2020-08-30T13:22:25.803Z</time>
      </trkpt>
      <trkpt lat="59.61284" lon="18.39348">
        <ele>50.596681</ele>
        <time>2020-08-30T13:22:34.178Z</time>
      </trkpt>
      <trkpt lat="59.61287" lon="18.39305">
        <ele>51.597592</ele>
        <time>2020-08-30T13:22:41.904Z</time>
      </trkpt>
      <trkpt lat="59.61274" lon="18.39249">
        <ele>53.018136</ele>
        <time>2020-08-30T13:22:52.490Z</time>
      </trkpt>
      <trkpt lat="59.61269" lon="18.39162">
        <ele>54.938452</ele>
        <time>2020-08-30T13:23:08.207Z</time>
      </trkpt>
      <trkpt lat="59.61236" lon="18.39071">
        <ele>56.835389</ele>
        <time>2020-08-30T13:23:28.253Z</time>
      </trkpt>
      <trkpt lat="59.61198" lon="18.38999">
        <ele>58.624668</ele>
        <time>2020-08-30T13:23:44.101Z</time>
      </trkpt>
      <trkpt lat="59.61195" lon="18.38964">
        <ele>59.220004</ele>
        <time>2020-08-30T13:23:49.213Z</time>
      </trkpt>
      <trkpt lat="59.61198" lon="18.3891">
        <ele>60.16408</ele>
        <time>2020-08-30T13:23:55.870Z</time>
      </trkpt>
      <trkpt lat="59.61193" lon="18.38848">
        <ele>60.672172</ele>
        <time>2020-08-30T13:24:02.747Z</time>
      </trkpt>
      <trkpt lat="59.61146" lon="18.3873">
        <ele>60.16078</ele>
        <time>2020-08-30T13:24:16.389Z</time>
      </trkpt>
      <trkpt lat="59.61092" lon="18.38653">
        <ele>59.718097</ele>
        <time>2020-08-30T13:24:26.432Z</time>
      </trkpt>
      <trkpt lat="59.61082" lon="18.38632">
        <ele>59.618558</ele>
        <time>2020-08-30T13:24:28.533Z</time>
      </trkpt>
      <trkpt lat="59.61061" lon="18.38573">
        <ele>59.078609</ele>
        <time>2020-08-30T13:24:33.816Z</time>
      </trkpt>
      <trkpt lat="59.61049" lon="18.38543">
        <ele>58.743455</ele>
        <time>2020-08-30T13:24:36.627Z</time>
      </trkpt>
      <trkpt lat="59.61039" lon="18.38516">
        <ele>58.44585</ele>
        <time>2020-08-30T13:24:39.030Z</time>
      </trkpt>
      <trkpt lat="59.61028" lon="18.38464">
        <ele>57.954816</ele>
        <time>2020-08-30T13:24:43.057Z</time>
      </trkpt>
      <trkpt lat="59.61026" lon="18.38458">
        <ele>57.882892</ele>
        <time>2020-08-30T13:24:43.633Z</time>
      </trkpt>
      <trkpt lat="59.61015" lon="18.38428">
        <ele>57.564165</ele>
        <time>2020-08-30T13:24:46.351Z</time>
      </trkpt>
      <trkpt lat="59.60981" lon="18.3838">
        <ele>56.837238</ele>
        <time>2020-08-30T13:24:52.412Z</time>
      </trkpt>
      <trkpt lat="59.6086" lon="18.38272">
        <ele>53.74727</ele>
        <time>2020-08-30T13:25:11.444Z</time>
      </trkpt>
      <trkpt lat="59.60797" lon="18.38225">
        <ele>52.127165</ele>
        <time>2020-08-30T13:25:20.109Z</time>
      </trkpt>
      <trkpt lat="59.60734" lon="18.38134">
        <ele>49.769595</ele>
        <time>2020-08-30T13:25:30.299Z</time>
      </trkpt>
      <trkpt lat="59.60705" lon="18.38076">
        <ele>48.53777</ele>
        <time>2020-08-30T13:25:35.620Z</time>
      </trkpt>
      <trkpt lat="59.60665" lon="18.37998">
        <ele>46.836793</ele>
        <time>2020-08-30T13:25:43.159Z</time>
      </trkpt>
      <trkpt lat="59.60619" lon="18.37901">
        <ele>46.3902</ele>
        <time>2020-08-30T13:25:52.648Z</time>
      </trkpt>
      <trkpt lat="59.60554" lon="18.37775">
        <ele>46.029772</ele>
        <time>2020-08-30T13:26:08.500Z</time>
      </trkpt>
      <trkpt lat="59.60537" lon="18.37733">
        <ele>45.922847</ele>
        <time>2020-08-30T13:26:14.673Z</time>
      </trkpt>
      <trkpt lat="59.60534" lon="18.37713">
        <ele>46.100883</ele>
        <time>2020-08-30T13:26:17.705Z</time>
      </trkpt>
      <trkpt lat="59.60539" lon="18.3766">
        <ele>46.658357</ele>
        <time>2020-08-30T13:26:24.151Z</time>
      </trkpt>
      <trkpt lat="59.60568" lon="18.37522">
        <ele>48.225465</ele>
        <time>2020-08-30T13:26:43.535Z</time>
      </trkpt>
      <trkpt lat="59.60571" lon="18.37474">
        <ele>48.731024</ele>
        <time>2020-08-30T13:26:49.645Z</time>
      </trkpt>
      <trkpt lat="59.60572" lon="18.37457">
        <ele>48.908175</ele>
        <time>2020-08-30T13:26:51.729Z</time>
      </trkpt>
      <trkpt lat="59.60575" lon="18.37414">
        <ele>49.355185</ele>
        <time>2020-08-30T13:26:57.255Z</time>
      </trkpt>
      <trkpt lat="59.6059" lon="18.37351">
        <ele>50.121638</ele>
        <time>2020-08-30T13:27:05.840Z</time>
      </trkpt>
      <trkpt lat="59.60591" lon="18.37345">
        <ele>50.194395</ele>
        <time>2020-08-30T13:27:06.985Z</time>
      </trkpt>
      <trkpt lat="59.606" lon="18.37294">
        <ele>50.799545</ele>
        <time>2020-08-30T13:27:13.158Z</time>
      </trkpt>
      <trkpt lat="59.60607" lon="18.37225">
        <ele>51.591969</ele>
        <time>2020-08-30T13:27:21.669Z</time>
      </trkpt>
      <trkpt lat="59.60615" lon="18.37147">
        <ele>52.480561</ele>
        <time>2020-08-30T13:27:30.966Z</time>
      </trkpt>
      <trkpt lat="59.60641" lon="18.36936">
        <ele>55.594947</ele>
        <time>2020-08-30T13:28:00.779Z</time>
      </trkpt>
      <trkpt lat="59.60641" lon="18.36907">
        <ele>56.086293</ele>
        <time>2020-08-30T13:28:05.330Z</time>
      </trkpt>
      <trkpt lat="59.60637" lon="18.36875">
        <ele>56.649345</ele>
        <time>2020-08-30T13:28:10.298Z</time>
      </trkpt>
      <trkpt lat="59.60629" lon="18.3683">
        <ele>57.443568</ele>
        <time>2020-08-30T13:28:17.550Z</time>
      </trkpt>
      <trkpt lat="59.60618" lon="18.36799">
        <ele>58.110094</ele>
        <time>2020-08-30T13:28:23.440Z</time>
      </trkpt>
      <trkpt lat="59.60603" lon="18.36768">
        <ele>58.841713</ele>
        <time>2020-08-30T13:28:30.227Z</time>
      </trkpt>
      <trkpt lat="59.60545" lon="18.36682">
        <ele>60.356214</ele>
        <time>2020-08-30T13:28:51.803Z</time>
      </trkpt>
      <trkpt lat="59.60453" lon="18.36514">
        <ele>62.166253</ele>
        <time>2020-08-30T13:29:18.775Z</time>
      </trkpt>
      <trkpt lat="59.60413" lon="18.36475">
        <ele>61.985583</ele>
        <time>2020-08-30T13:29:26.173Z</time>
      </trkpt>
      <trkpt lat="59.60397" lon="18.36442">
        <ele>61.813785</ele>
        <time>2020-08-30T13:29:29.905Z</time>
      </trkpt>
      <trkpt lat="59.60394" lon="18.36434">
        <ele>61.778161</ele>
        <time>2020-08-30T13:29:30.604Z</time>
      </trkpt>
      <trkpt lat="59.60374" lon="18.36372">
        <ele>61.496866</ele>
        <time>2020-08-30T13:29:36.533Z</time>
      </trkpt>
      <trkpt lat="59.60359" lon="18.36342">
        <ele>61.333619</ele>
        <time>2020-08-30T13:29:40.136Z</time>
      </trkpt>
      <trkpt lat="59.60356" lon="18.36337">
        <ele>61.30619</ele>
        <time>2020-08-30T13:29:40.689Z</time>
      </trkpt>
      <trkpt lat="59.60306" lon="18.36259">
        <ele>60.969581</ele>
        <time>2020-08-30T13:29:51.139Z</time>
      </trkpt>
      <trkpt lat="59.60257" lon="18.36163">
        <ele>61.235986</ele>
        <time>2020-08-30T13:30:03.363Z</time>
      </trkpt>
      <trkpt lat="59.60246" lon="18.3614">
        <ele>61.300079</ele>
        <time>2020-08-30T13:30:06.897Z</time>
      </trkpt>
      <trkpt lat="59.60214" lon="18.36079">
        <ele>61.471864</ele>
        <time>2020-08-30T13:30:16.790Z</time>
      </trkpt>
      <trkpt lat="59.60156" lon="18.35937">
        <ele>61.904329</ele>
        <time>2020-08-30T13:30:37.080Z</time>
      </trkpt>
      <trkpt lat="59.60144" lon="18.35913">
        <ele>61.996561</ele>
        <time>2020-08-30T13:30:41.283Z</time>
      </trkpt>
      <trkpt lat="59.60125" lon="18.35879">
        <ele>62.130689</ele>
        <time>2020-08-30T13:30:46.299Z</time>
      </trkpt>
      <trkpt lat="59.60026" lon="18.35714">
        <ele>62.338718</ele>
        <time>2020-08-30T13:31:10.363Z</time>
      </trkpt>
      <trkpt lat="59.60013" lon="18.35689">
        <ele>62.247245</ele>
        <time>2020-08-30T13:31:13.463Z</time>
      </trkpt>
      <trkpt lat="59.59988" lon="18.35623">
        <ele>62.042331</ele>
        <time>2020-08-30T13:31:20.576Z</time>
      </trkpt>
      <trkpt lat="59.59972" lon="18.3557">
        <ele>61.889495</ele>
        <time>2020-08-30T13:31:25.810Z</time>
      </trkpt>
      <trkpt lat="59.59962" lon="18.35537">
        <ele>61.791868</ele>
        <time>2020-08-30T13:31:29.240Z</time>
      </trkpt>
      <trkpt lat="59.59956" lon="18.35517">
        <ele>61.734808</ele>
        <time>2020-08-30T13:31:31.069Z</time>
      </trkpt>
      <trkpt lat="59.5994" lon="18.35469">
        <ele>61.401542</ele>
        <time>2020-08-30T13:31:35.843Z</time>
      </trkpt>
      <trkpt lat="59.59926" lon="18.35443">
        <ele>61.09117</ele>
        <time>2020-08-30T13:31:39.135Z</time>
      </trkpt>
      <trkpt lat="59.59913" lon="18.35426">
        <ele>60.860138</ele>
        <time>2020-08-30T13:31:41.622Z</time>
      </trkpt>
      <trkpt lat="59.59891" lon="18.354">
        <ele>60.451579</ele>
        <time>2020-08-30T13:31:45.892Z</time>
      </trkpt>
      <trkpt lat="59.59887" lon="18.35393">
        <ele>60.371459</ele>
        <time>2020-08-30T13:31:46.725Z</time>
      </trkpt>
      <trkpt lat="59.59883" lon="18.35384">
        <ele>60.279122</ele>
        <time>2020-08-30T13:31:47.545Z</time>
      </trkpt>
      <trkpt lat="59.59876" lon="18.35363">
        <ele>60.076239</ele>
        <time>2020-08-30T13:31:49.595Z</time>
      </trkpt>
      <trkpt lat="59.5985" lon="18.3533">
        <ele>59.603896</ele>
        <time>2020-08-30T13:31:54.029Z</time>
      </trkpt>
      <trkpt lat="59.59776" lon="18.35256">
        <ele>57.858754</ele>
        <time>2020-08-30T13:32:06.151Z</time>
      </trkpt>
      <trkpt lat="59.59762" lon="18.35242">
        <ele>57.438415</ele>
        <time>2020-08-30T13:32:08.223Z</time>
      </trkpt>
      <trkpt lat="59.59742" lon="18.35223">
        <ele>56.823694</ele>
        <time>2020-08-30T13:32:11.430Z</time>
      </trkpt>
      <trkpt lat="59.59728" lon="18.35209">
        <ele>56.391598</ele>
        <time>2020-08-30T13:32:13.584Z</time>
      </trkpt>
      <trkpt lat="59.59697" lon="18.35153">
        <ele>55.217228</ele>
        <time>2020-08-30T13:32:19.664Z</time>
      </trkpt>
      <trkpt lat="59.59693" lon="18.35146">
        <ele>55.078693</ele>
        <time>2020-08-30T13:32:20.335Z</time>
      </trkpt>
      <trkpt lat="59.59688" lon="18.35135">
        <ele>54.863488</ele>
        <time>2020-08-30T13:32:21.443Z</time>
      </trkpt>
      <trkpt lat="59.59677" lon="18.35112">
        <ele>54.421292</ele>
        <time>2020-08-30T13:32:23.548Z</time>
      </trkpt>
      <trkpt lat="59.5964" lon="18.35063">
        <ele>53.13936</ele>
        <time>2020-08-30T13:32:29.622Z</time>
      </trkpt>
      <trkpt lat="59.59603" lon="18.34963">
        <ele>51.261156</ele>
        <time>2020-08-30T13:32:38.194Z</time>
      </trkpt>
      <trkpt lat="59.59594" lon="18.34944">
        <ele>50.859352</ele>
        <time>2020-08-30T13:32:40.097Z</time>
      </trkpt>
      <trkpt lat="59.59575" lon="18.34915">
        <ele>50.133371</ele>
        <time>2020-08-30T13:32:43.424Z</time>
      </trkpt>
      <trkpt lat="59.59527" lon="18.34857">
        <ele>48.455314</ele>
        <time>2020-08-30T13:32:51.459Z</time>
      </trkpt>
      <trkpt lat="59.59516" lon="18.34839">
        <ele>48.050736</ele>
        <time>2020-08-30T13:32:53.354Z</time>
      </trkpt>
      <trkpt lat="59.59503" lon="18.34818">
        <ele>47.590275</ele>
        <time>2020-08-30T13:32:55.771Z</time>
      </trkpt>
      <trkpt lat="59.59482" lon="18.3477">
        <ele>46.685938</ele>
        <time>2020-08-30T13:33:00.161Z</time>
      </trkpt>
      <trkpt lat="59.59463" lon="18.34724">
        <ele>45.838973</ele>
        <time>2020-08-30T13:33:04.228Z</time>
      </trkpt>
      <trkpt lat="59.59439" lon="18.34651">
        <ele>44.60092</ele>
        <time>2020-08-30T13:33:10.549Z</time>
      </trkpt>
      <trkpt lat="59.59431" lon="18.34636">
        <ele>44.300869</ele>
        <time>2020-08-30T13:33:11.968Z</time>
      </trkpt>
      <trkpt lat="59.59421" lon="18.34621">
        <ele>43.943134</ele>
        <time>2020-08-30T13:33:13.781Z</time>
      </trkpt>
      <trkpt lat="59.59349" lon="18.34568">
        <ele>42.696101</ele>
        <time>2020-08-30T13:33:25.314Z</time>
      </trkpt>
      <trkpt lat="59.59319" lon="18.34524">
        <ele>42.222161</ele>
        <time>2020-08-30T13:33:30.915Z</time>
      </trkpt>
      <trkpt lat="59.59299" lon="18.3445">
        <ele>41.669974</ele>
        <time>2020-08-30T13:33:37.625Z</time>
      </trkpt>
      <trkpt lat="59.59273" lon="18.34278">
        <ele>41.899115</ele>
        <time>2020-08-30T13:33:54.566Z</time>
      </trkpt>
      <trkpt lat="59.59268" lon="18.34266">
        <ele>42.01384</ele>
        <time>2020-08-30T13:33:56.268Z</time>
      </trkpt>
      <trkpt lat="59.59258" lon="18.34245">
        <ele>42.216488</ele>
        <time>2020-08-30T13:33:59.342Z</time>
      </trkpt>
      <trkpt lat="59.59211" lon="18.34202">
        <ele>42.975474</ele>
        <time>2020-08-30T13:34:11.571Z</time>
      </trkpt>
      <trkpt lat="59.59169" lon="18.34138">
        <ele>43.748975</ele>
        <time>2020-08-30T13:34:26.528Z</time>
      </trkpt>
      <trkpt lat="59.5909" lon="18.3412">
        <ele>45.411707</ele>
        <time>2020-08-30T13:34:48.586Z</time>
      </trkpt>
      <trkpt lat="59.59052" lon="18.34077">
        <ele>46.337236</ele>
        <time>2020-08-30T13:34:59.182Z</time>
      </trkpt>
      <trkpt lat="59.59048" lon="18.3407">
        <ele>46.450884</ele>
        <time>2020-08-30T13:35:01.726Z</time>
      </trkpt>
      <trkpt lat="59.59024" lon="18.34022">
        <ele>47.175069</ele>
        <time>2020-08-30T13:35:09.321Z</time>
      </trkpt>
      <trkpt lat="59.58995" lon="18.33944">
        <ele>47.587044</ele>
        <time>2020-08-30T13:35:20.048Z</time>
      </trkpt>
      <trkpt lat="59.5899" lon="18.33922">
        <ele>47.589606</ele>
        <time>2020-08-30T13:35:22.045Z</time>
      </trkpt>
      <trkpt lat="59.58985" lon="18.33867">
        <ele>47.595463</ele>
        <time>2020-08-30T13:35:27.838Z</time>
      </trkpt>
      <trkpt lat="59.58978" lon="18.33672">
        <ele>47.616173</ele>
        <time>2020-08-30T13:35:44.179Z</time>
      </trkpt>
      <trkpt lat="59.58936" lon="18.33496">
        <ele>47.257748</ele>
        <time>2020-08-30T13:36:00.166Z</time>
      </trkpt>
      <trkpt lat="59.58915" lon="18.33387">
        <ele>47.015369</ele>
        <time>2020-08-30T13:36:10.323Z</time>
      </trkpt>
      <trkpt lat="59.58903" lon="18.33323">
        <ele>46.874307</ele>
        <time>2020-08-30T13:36:16.310Z</time>
      </trkpt>
      <trkpt lat="59.58896" lon="18.333">
        <ele>46.841332</ele>
        <time>2020-08-30T13:36:18.346Z</time>
      </trkpt>
      <trkpt lat="59.58881" lon="18.33245">
        <ele>46.762132</ele>
        <time>2020-08-30T13:36:23.926Z</time>
      </trkpt>
      <trkpt lat="59.58878" lon="18.33233">
        <ele>46.745148</ele>
        <time>2020-08-30T13:36:24.933Z</time>
      </trkpt>
      <trkpt lat="59.58876" lon="18.33225">
        <ele>46.733258</ele>
        <time>2020-08-30T13:36:25.735Z</time>
      </trkpt>
      <trkpt lat="59.58871" lon="18.33208">
        <ele>46.708574</ele>
        <time>2020-08-30T13:36:27.746Z</time>
      </trkpt>
      <trkpt lat="59.58854" lon="18.33179">
        <ele>46.6515</ele>
        <time>2020-08-30T13:36:31.424Z</time>
      </trkpt>
      <trkpt lat="59.58834" lon="18.33112">
        <ele>46.553843</ele>
        <time>2020-08-30T13:36:37.874Z</time>
      </trkpt>
      <trkpt lat="59.58791" lon="18.32942">
        <ele>46.467109</ele>
        <time>2020-08-30T13:36:55.028Z</time>
      </trkpt>
      <trkpt lat="59.58785" lon="18.32889">
        <ele>46.489947</ele>
        <time>2020-08-30T13:37:00.132Z</time>
      </trkpt>
      <trkpt lat="59.58784" lon="18.32867">
        <ele>46.498871</ele>
        <time>2020-08-30T13:37:02.175Z</time>
      </trkpt>
      <trkpt lat="59.58782" lon="18.3284">
        <ele>46.510366</ele>
        <time>2020-08-30T13:37:04.631Z</time>
      </trkpt>
      <trkpt lat="59.58763" lon="18.32732">
        <ele>46.558451</ele>
        <time>2020-08-30T13:37:15.379Z</time>
      </trkpt>
      <trkpt lat="59.58763" lon="18.32701">
        <ele>46.571518</ele>
        <time>2020-08-30T13:37:18.152Z</time>
      </trkpt>
      <trkpt lat="59.5877" lon="18.32666">
        <ele>46.575069</ele>
        <time>2020-08-30T13:37:21.702Z</time>
      </trkpt>
      <trkpt lat="59.58809" lon="18.32572">
        <ele>46.562812</ele>
        <time>2020-08-30T13:37:32.471Z</time>
      </trkpt>
      <trkpt lat="59.58855" lon="18.32521">
        <ele>46.552262</ele>
        <time>2020-08-30T13:37:41.598Z</time>
      </trkpt>
      <trkpt lat="59.58868" lon="18.32489">
        <ele>46.548089</ele>
        <time>2020-08-30T13:37:45.457Z</time>
      </trkpt>
      <trkpt lat="59.58876" lon="18.32449">
        <ele>46.543745</ele>
        <time>2020-08-30T13:37:49.233Z</time>
      </trkpt>
      <trkpt lat="59.58875" lon="18.32426">
        <ele>46.543376</ele>
        <time>2020-08-30T13:37:51.540Z</time>
      </trkpt>
      <trkpt lat="59.58866" lon="18.32404">
        <ele>46.593736</ele>
        <time>2020-08-30T13:37:53.929Z</time>
      </trkpt>
      <trkpt lat="59.58791" lon="18.32302">
        <ele>46.913177</ele>
        <time>2020-08-30T13:38:10.856Z</time>
      </trkpt>
      <trkpt lat="59.58759" lon="18.32234">
        <ele>47.080945</ele>
        <time>2020-08-30T13:38:19.915Z</time>
      </trkpt>
      <trkpt lat="59.58742" lon="18.32194">
        <ele>47.172219</ele>
        <time>2020-08-30T13:38:25.047Z</time>
      </trkpt>
      <trkpt lat="59.58741" lon="18.32158">
        <ele>47.391885</ele>
        <time>2020-08-30T13:38:28.777Z</time>
      </trkpt>
      <trkpt lat="59.58731" lon="18.32099">
        <ele>47.795375</ele>
        <time>2020-08-30T13:38:35.416Z</time>
      </trkpt>
      <trkpt lat="59.58695" lon="18.32049">
        <ele>48.363079</ele>
        <time>2020-08-30T13:38:45.066Z</time>
      </trkpt>
      <trkpt lat="59.58675" lon="18.3201">
        <ele>48.721548</ele>
        <time>2020-08-30T13:38:51.346Z</time>
      </trkpt>
      <trkpt lat="59.58648" lon="18.31915">
        <ele>49.426891</ele>
        <time>2020-08-30T13:39:03.984Z</time>
      </trkpt>
      <trkpt lat="59.58631" lon="18.31879">
        <ele>49.867841</ele>
        <time>2020-08-30T13:39:09.738Z</time>
      </trkpt>
      <trkpt lat="59.58609" lon="18.31843">
        <ele>50.404908</ele>
        <time>2020-08-30T13:39:16.569Z</time>
      </trkpt>
      <trkpt lat="59.58514" lon="18.31731">
        <ele>52.496943</ele>
        <time>2020-08-30T13:39:43.579Z</time>
      </trkpt>
      <trkpt lat="59.58494" lon="18.31695">
        <ele>52.928136</ele>
        <time>2020-08-30T13:39:50.243Z</time>
      </trkpt>
      <trkpt lat="59.58459" lon="18.31609">
        <ele>53.392026</ele>
        <time>2020-08-30T13:40:03.008Z</time>
      </trkpt>
      <trkpt lat="59.58411" lon="18.31446">
        <ele>54.185153</ele>
        <time>2020-08-30T13:40:21.863Z</time>
      </trkpt>
      <trkpt lat="59.58386" lon="18.3141">
        <ele>54.203776</ele>
        <time>2020-08-30T13:40:27.400Z</time>
      </trkpt>
      <trkpt lat="59.58379" lon="18.31393">
        <ele>54.034912</ele>
        <time>2020-08-30T13:40:29.099Z</time>
      </trkpt>
      <trkpt lat="59.58371" lon="18.31362">
        <ele>53.759748</ele>
        <time>2020-08-30T13:40:32.209Z</time>
      </trkpt>
      <trkpt lat="59.58359" lon="18.31311">
        <ele>53.325787</ele>
        <time>2020-08-30T13:40:36.533Z</time>
      </trkpt>
      <trkpt lat="59.58335" lon="18.31216">
        <ele>52.485849</ele>
        <time>2020-08-30T13:40:44.573Z</time>
      </trkpt>
      <trkpt lat="59.58302" lon="18.31088">
        <ele>50.810671</ele>
        <time>2020-08-30T13:40:54.331Z</time>
      </trkpt>
      <trkpt lat="59.58285" lon="18.30948">
        <ele>46.820728</ele>
        <time>2020-08-30T13:41:03.691Z</time>
      </trkpt>
      <trkpt lat="59.58274" lon="18.30876">
        <ele>44.736973</ele>
        <time>2020-08-30T13:41:08.083Z</time>
      </trkpt>
      <trkpt lat="59.58262" lon="18.30839">
        <ele>43.520889</ele>
        <time>2020-08-30T13:41:10.577Z</time>
      </trkpt>
      <trkpt lat="59.5824" lon="18.30802">
        <ele>41.94278</ele>
        <time>2020-08-30T13:41:13.817Z</time>
      </trkpt>
      <trkpt lat="59.58194" lon="18.30778">
        <ele>38.439987</ele>
        <time>2020-08-30T13:41:19.111Z</time>
      </trkpt>
      <trkpt lat="59.5818" lon="18.30763">
        <ele>37.166749</ele>
        <time>2020-08-30T13:41:21.009Z</time>
      </trkpt>
      <trkpt lat="59.58172" lon="18.30748">
        <ele>36.324506</ele>
        <time>2020-08-30T13:41:22.213Z</time>
      </trkpt>
      <trkpt lat="59.58167" lon="18.30739">
        <ele>35.875008</ele>
        <time>2020-08-30T13:41:22.893Z</time>
      </trkpt>
      <trkpt lat="59.58162" lon="18.30703">
        <ele>34.423266</ele>
        <time>2020-08-30T13:41:25.070Z</time>
      </trkpt>
      <trkpt lat="59.58161" lon="18.30679">
        <ele>33.47279</ele>
        <time>2020-08-30T13:41:26.439Z</time>
      </trkpt>
      <trkpt lat="59.58163" lon="18.30461">
        <ele>26.954047</ele>
        <time>2020-08-30T13:41:39.072Z</time>
      </trkpt>
      <trkpt lat="59.58163" lon="18.30452">
        <ele>26.823631</ele>
        <time>2020-08-30T13:41:39.645Z</time>
      </trkpt>
      <trkpt lat="59.58166" lon="18.3035">
        <ele>25.37979</ele>
        <time>2020-08-30T13:41:46.406Z</time>
      </trkpt>
      <trkpt lat="59.58172" lon="18.30279">
        <ele>24.375647</ele>
        <time>2020-08-30T13:41:51.736Z</time>
      </trkpt>
      <trkpt lat="59.58195" lon="18.30145">
        <ele>23.690751</ele>
        <time>2020-08-30T13:42:05.277Z</time>
      </trkpt>
      <trkpt lat="59.58203" lon="18.30111">
        <ele>24.253263</ele>
        <time>2020-08-30T13:42:09.238Z</time>
      </trkpt>
      <trkpt lat="59.58209" lon="18.30087">
        <ele>24.652106</ele>
        <time>2020-08-30T13:42:13.107Z</time>
      </trkpt>
      <trkpt lat="59.58227" lon="18.30035">
        <ele>25.578251</ele>
        <time>2020-08-30T13:42:21.193Z</time>
      </trkpt>
      <trkpt lat="59.58335" lon="18.29788">
        <ele>31.508235</ele>
        <time>2020-08-30T13:43:14.053Z</time>
      </trkpt>
      <trkpt lat="59.58349" lon="18.29745">
        <ele>32.648971</ele>
        <time>2020-08-30T13:43:22.893Z</time>
      </trkpt>
      <trkpt lat="59.5836" lon="18.2967">
        <ele>34.39133</ele>
        <time>2020-08-30T13:43:36.045Z</time>
      </trkpt>
      <trkpt lat="59.58374" lon="18.29471">
        <ele>37.629989</ele>
        <time>2020-08-30T13:44:07.232Z</time>
      </trkpt>
      <trkpt lat="59.58409" lon="18.29339">
        <ele>39.379012</ele>
        <time>2020-08-30T13:44:25.332Z</time>
      </trkpt>
      <trkpt lat="59.58418" lon="18.29302">
        <ele>39.867603</ele>
        <time>2020-08-30T13:44:30.080Z</time>
      </trkpt>
      <trkpt lat="59.58405" lon="18.29277">
        <ele>40.280577</ele>
        <time>2020-08-30T13:44:33.501Z</time>
      </trkpt>
      <trkpt lat="59.5839" lon="18.29245">
        <ele>40.383663</ele>
        <time>2020-08-30T13:44:37.978Z</time>
      </trkpt>
      <trkpt lat="59.58374" lon="18.29201">
        <ele>40.339627</ele>
        <time>2020-08-30T13:44:43.035Z</time>
      </trkpt>
      <trkpt lat="59.58295" lon="18.28907">
        <ele>40.105583</ele>
        <time>2020-08-30T13:45:10.734Z</time>
      </trkpt>
      <trkpt lat="59.58278" lon="18.28861">
        <ele>40.092673</ele>
        <time>2020-08-30T13:45:15.749Z</time>
      </trkpt>
      <trkpt lat="59.58231" lon="18.28774">
        <ele>40.064294</ele>
        <time>2020-08-30T13:45:26.926Z</time>
      </trkpt>
      <trkpt lat="59.58202" lon="18.28739">
        <ele>40.049342</ele>
        <time>2020-08-30T13:45:33.098Z</time>
      </trkpt>
      <trkpt lat="59.58142" lon="18.28672">
        <ele>40.647827</ele>
        <time>2020-08-30T13:45:46.610Z</time>
      </trkpt>
      <trkpt lat="59.58084" lon="18.28604">
        <ele>41.477228</ele>
        <time>2020-08-30T13:46:01.969Z</time>
      </trkpt>
      <trkpt lat="59.58057" lon="18.28563">
        <ele>41.896617</ele>
        <time>2020-08-30T13:46:09.851Z</time>
      </trkpt>
      <trkpt lat="59.58027" lon="18.28499">
        <ele>42.315115</ele>
        <time>2020-08-30T13:46:20.272Z</time>
      </trkpt>
      <trkpt lat="59.58023" lon="18.2849">
        <ele>42.339807</ele>
        <time>2020-08-30T13:46:21.820Z</time>
      </trkpt>
      <trkpt lat="59.58021" lon="18.28487">
        <ele>42.348308</ele>
        <time>2020-08-30T13:46:22.368Z</time>
      </trkpt>
      <trkpt lat="59.58013" lon="18.28467">
        <ele>42.400283</ele>
        <time>2020-08-30T13:46:25.546Z</time>
      </trkpt>
      <trkpt lat="59.57951" lon="18.28311">
        <ele>42.796031</ele>
        <time>2020-08-30T13:46:45.610Z</time>
      </trkpt>
      <trkpt lat="59.57936" lon="18.28273">
        <ele>42.890508</ele>
        <time>2020-08-30T13:46:49.346Z</time>
      </trkpt>
      <trkpt lat="59.57924" lon="18.28247">
        <ele>42.962539</ele>
        <time>2020-08-30T13:46:52.191Z</time>
      </trkpt>
      <trkpt lat="59.57911" lon="18.28218">
        <ele>42.678895</ele>
        <time>2020-08-30T13:46:54.925Z</time>
      </trkpt>
      <trkpt lat="59.57893" lon="18.28186">
        <ele>42.310731</ele>
        <time>2020-08-30T13:46:58.332Z</time>
      </trkpt>
      <trkpt lat="59.57864" lon="18.28145">
        <ele>41.760171</ele>
        <time>2020-08-30T13:47:03.498Z</time>
      </trkpt>
      <trkpt lat="59.57842" lon="18.28116">
        <ele>41.367451</ele>
        <time>2020-08-30T13:47:07.214Z</time>
      </trkpt>
      <trkpt lat="59.5781" lon="18.28077">
        <ele>40.779746</ele>
        <time>2020-08-30T13:47:12.768Z</time>
      </trkpt>
      <trkpt lat="59.5777" lon="18.28029">
        <ele>40.069508</ele>
        <time>2020-08-30T13:47:19.558Z</time>
      </trkpt>
      <trkpt lat="59.57732" lon="18.27984">
        <ele>39.389343</ele>
        <time>2020-08-30T13:47:26.267Z</time>
      </trkpt>
      <trkpt lat="59.57708" lon="18.27955">
        <ele>38.955947</ele>
        <time>2020-08-30T13:47:30.654Z</time>
      </trkpt>
      <trkpt lat="59.57693" lon="18.27934">
        <ele>38.667313</ele>
        <time>2020-08-30T13:47:33.636Z</time>
      </trkpt>
      <trkpt lat="59.57598" lon="18.27812">
        <ele>36.320266</ele>
        <time>2020-08-30T13:47:49.903Z</time>
      </trkpt>
      <trkpt lat="59.5757" lon="18.27776">
        <ele>35.185706</ele>
        <time>2020-08-30T13:47:54.169Z</time>
      </trkpt>
      <trkpt lat="59.57518" lon="18.27708">
        <ele>33.089329</ele>
        <time>2020-08-30T13:48:01.978Z</time>
      </trkpt>
      <trkpt lat="59.57498" lon="18.27683">
        <ele>32.312403</ele>
        <time>2020-08-30T13:48:04.840Z</time>
      </trkpt>
      <trkpt lat="59.57483" lon="18.27658">
        <ele>31.629545</ele>
        <time>2020-08-30T13:48:07.467Z</time>
      </trkpt>
      <trkpt lat="59.5746" lon="18.27621">
        <ele>31.187468</ele>
        <time>2020-08-30T13:48:11.264Z</time>
      </trkpt>
      <trkpt lat="59.5745" lon="18.27604">
        <ele>31.059588</ele>
        <time>2020-08-30T13:48:12.991Z</time>
      </trkpt>
      <trkpt lat="59.57421" lon="18.27549">
        <ele>30.660617</ele>
        <time>2020-08-30T13:48:18.677Z</time>
      </trkpt>
      <trkpt lat="59.57402" lon="18.27495">
        <ele>30.334919</ele>
        <time>2020-08-30T13:48:23.985Z</time>
      </trkpt>
      <trkpt lat="59.57398" lon="18.27482">
        <ele>30.260876</ele>
        <time>2020-08-30T13:48:25.140Z</time>
      </trkpt>
      <trkpt lat="59.57388" lon="18.27418">
        <ele>29.920598</ele>
        <time>2020-08-30T13:48:31.665Z</time>
      </trkpt>
      <trkpt lat="59.57379" lon="18.27323">
        <ele>29.83252</ele>
        <time>2020-08-30T13:48:42.812Z</time>
      </trkpt>
      <trkpt lat="59.57371" lon="18.27228">
        <ele>30.286423</ele>
        <time>2020-08-30T13:48:54.901Z</time>
      </trkpt>
      <trkpt lat="59.57353" lon="18.27059">
        <ele>31.105664</ele>
        <time>2020-08-30T13:49:13.744Z</time>
      </trkpt>
      <trkpt lat="59.57341" lon="18.26995">
        <ele>31.174479</ele>
        <time>2020-08-30T13:49:19.490Z</time>
      </trkpt>
      <trkpt lat="59.57324" lon="18.26946">
        <ele>30.779222</ele>
        <time>2020-08-30T13:49:23.958Z</time>
      </trkpt>
      <trkpt lat="59.57322" lon="18.26937">
        <ele>30.705601</ele>
        <time>2020-08-30T13:49:24.813Z</time>
      </trkpt>
      <trkpt lat="59.57309" lon="18.26906">
        <ele>30.434219</ele>
        <time>2020-08-30T13:49:27.634Z</time>
      </trkpt>
      <trkpt lat="59.57294" lon="18.26876">
        <ele>30.150824</ele>
        <time>2020-08-30T13:49:30.750Z</time>
      </trkpt>
      <trkpt lat="59.5725" lon="18.2681">
        <ele>29.407056</ele>
        <time>2020-08-30T13:49:38.805Z</time>
      </trkpt>
      <trkpt lat="59.572" lon="18.26736">
        <ele>28.526381</ele>
        <time>2020-08-30T13:49:47.856Z</time>
      </trkpt>
      <trkpt lat="59.57178" lon="18.26697">
        <ele>28.074777</ele>
        <time>2020-08-30T13:49:52.114Z</time>
      </trkpt>
      <trkpt lat="59.57157" lon="18.26653">
        <ele>27.601871</ele>
        <time>2020-08-30T13:49:56.624Z</time>
      </trkpt>
      <trkpt lat="59.57141" lon="18.26622">
        <ele>27.255417</ele>
        <time>2020-08-30T13:50:00.039Z</time>
      </trkpt>
      <trkpt lat="59.57108" lon="18.26521">
        <ele>26.323773</ele>
        <time>2020-08-30T13:50:09.117Z</time>
      </trkpt>
      <trkpt lat="59.57087" lon="18.26459">
        <ele>25.502524</ele>
        <time>2020-08-30T13:50:14.592Z</time>
      </trkpt>
      <trkpt lat="59.5705" lon="18.26375">
        <ele>24.16255</ele>
        <time>2020-08-30T13:50:22.429Z</time>
      </trkpt>
      <trkpt lat="59.5701" lon="18.26311">
        <ele>22.936397</ele>
        <time>2020-08-30T13:50:29.284Z</time>
      </trkpt>
      <trkpt lat="59.56976" lon="18.26258">
        <ele>21.914598</ele>
        <time>2020-08-30T13:50:34.915Z</time>
      </trkpt>
      <trkpt lat="59.56688" lon="18.25743">
        <ele>14.340329</ele>
        <time>2020-08-30T13:51:29.630Z</time>
      </trkpt>
      <trkpt lat="59.56684" lon="18.25735">
        <ele>14.29905</ele>
        <time>2020-08-30T13:51:30.516Z</time>
      </trkpt>
      <trkpt lat="59.56574" lon="18.25536">
        <ele>13.224765</ele>
        <time>2020-08-30T13:51:55.566Z</time>
      </trkpt>
      <trkpt lat="59.56531" lon="18.25448">
        <ele>13.166207</ele>
        <time>2020-08-30T13:52:06.059Z</time>
      </trkpt>
      <trkpt lat="59.56508" lon="18.25387">
        <ele>13.129235</ele>
        <time>2020-08-30T13:52:12.767Z</time>
      </trkpt>
      <trkpt lat="59.56479" lon="18.25293">
        <ele>13.076282</ele>
        <time>2020-08-30T13:52:22.743Z</time>
      </trkpt>
      <trkpt lat="59.56468" lon="18.25251">
        <ele>13.072795</ele>
        <time>2020-08-30T13:52:27.014Z</time>
      </trkpt>
      <trkpt lat="59.56293" lon="18.2524">
        <ele>14.0779</ele>
        <time>2020-08-30T13:53:01.461Z</time>
      </trkpt>
      <trkpt lat="59.56263" lon="18.25253">
        <ele>14.009715</ele>
        <time>2020-08-30T13:53:07.907Z</time>
      </trkpt>
      <trkpt lat="59.56261" lon="18.25254">
        <ele>14.001814</ele>
        <time>2020-08-30T13:53:08.635Z</time>
      </trkpt>
      <trkpt lat="59.56239" lon="18.25268">
        <ele>13.934892</ele>
        <time>2020-08-30T13:53:13.344Z</time>
      </trkpt>
      <trkpt lat="59.56214" lon="18.25299">
        <ele>13.850613</ele>
        <time>2020-08-30T13:53:19.000Z</time>
      </trkpt>
      <trkpt lat="59.56203" lon="18.25319">
        <ele>13.806186</ele>
        <time>2020-08-30T13:53:21.482Z</time>
      </trkpt>
      <trkpt lat="59.56195" lon="18.25344">
        <ele>13.763184</ele>
        <time>2020-08-30T13:53:24.058Z</time>
      </trkpt>
      <trkpt lat="59.56192" lon="18.25354">
        <ele>13.746945</ele>
        <time>2020-08-30T13:53:24.955Z</time>
      </trkpt>
      <trkpt lat="59.56155" lon="18.25465">
        <ele>13.444278</ele>
        <time>2020-08-30T13:53:34.943Z</time>
      </trkpt>
      <trkpt lat="59.56152" lon="18.2547">
        <ele>13.368477</ele>
        <time>2020-08-30T13:53:35.543Z</time>
      </trkpt>
      <trkpt lat="59.5613" lon="18.25508">
        <ele>12.806845</ele>
        <time>2020-08-30T13:53:39.701Z</time>
      </trkpt>
      <trkpt lat="59.56082" lon="18.25591">
        <ele>11.573174</ele>
        <time>2020-08-30T13:53:48.745Z</time>
      </trkpt>
      <trkpt lat="59.56074" lon="18.25605">
        <ele>11.366797</ele>
        <time>2020-08-30T13:53:50.181Z</time>
      </trkpt>
      <trkpt lat="59.56016" lon="18.25746">
        <ele>9.906204</ele>
        <time>2020-08-30T13:54:02.993Z</time>
      </trkpt>
      <trkpt lat="59.56" lon="18.25811">
        <ele>9.653389</ele>
        <time>2020-08-30T13:54:08.305Z</time>
      </trkpt>
      <trkpt lat="59.55997" lon="18.25829">
        <ele>9.584521</ele>
        <time>2020-08-30T13:54:09.736Z</time>
      </trkpt>
      <trkpt lat="59.5599" lon="18.25887">
        <ele>9.375234</ele>
        <time>2020-08-30T13:54:14.803Z</time>
      </trkpt>
      <trkpt lat="59.55975" lon="18.25953">
        <ele>9.122254</ele>
        <time>2020-08-30T13:54:21.342Z</time>
      </trkpt>
      <trkpt lat="59.5593" lon="18.2608">
        <ele>9.735336</ele>
        <time>2020-08-30T13:54:36.626Z</time>
      </trkpt>
      <trkpt lat="59.55919" lon="18.26113">
        <ele>10.209301</ele>
        <time>2020-08-30T13:54:40.754Z</time>
      </trkpt>
      <trkpt lat="59.55912" lon="18.26138">
        <ele>10.555209</ele>
        <time>2020-08-30T13:54:44.095Z</time>
      </trkpt>
      <trkpt lat="59.55898" lon="18.26327">
        <ele>12.835501</ele>
        <time>2020-08-30T13:55:11.196Z</time>
      </trkpt>
      <trkpt lat="59.55873" lon="18.26403">
        <ele>14.717644</ele>
        <time>2020-08-30T13:55:25.646Z</time>
      </trkpt>
      <trkpt lat="59.55857" lon="18.26428">
        <ele>15.668927</ele>
        <time>2020-08-30T13:55:32.183Z</time>
      </trkpt>
      <trkpt lat="59.55854" lon="18.26432">
        <ele>15.844118</ele>
        <time>2020-08-30T13:55:33.316Z</time>
      </trkpt>
      <trkpt lat="59.55846" lon="18.26445">
        <ele>16.347617</ele>
        <time>2020-08-30T13:55:36.996Z</time>
      </trkpt>
      <trkpt lat="59.55762" lon="18.26525">
        <ele>20.680142</ele>
        <time>2020-08-30T13:56:08.195Z</time>
      </trkpt>
      <trkpt lat="59.55739" lon="18.26561">
        <ele>22.117305</ele>
        <time>2020-08-30T13:56:18.412Z</time>
      </trkpt>
      <trkpt lat="59.55688" lon="18.26666">
        <ele>25.937574</ele>
        <time>2020-08-30T13:56:43.304Z</time>
      </trkpt>
      <trkpt lat="59.5563" lon="18.2681">
        <ele>30.78119</ele>
        <time>2020-08-30T13:57:16.406Z</time>
      </trkpt>
      <trkpt lat="59.55618" lon="18.26842">
        <ele>31.575336</ele>
        <time>2020-08-30T13:57:23.286Z</time>
      </trkpt>
      <trkpt lat="59.55604" lon="18.26882">
        <ele>32.568293</ele>
        <time>2020-08-30T13:57:31.670Z</time>
      </trkpt>
      <trkpt lat="59.55586" lon="18.26946">
        <ele>34.024372</ele>
        <time>2020-08-30T13:57:43.540Z</time>
      </trkpt>
      <trkpt lat="59.55573" lon="18.26988">
        <ele>35.033828</ele>
        <time>2020-08-30T13:57:51.484Z</time>
      </trkpt>
      <trkpt lat="59.5555" lon="18.27072">
        <ele>36.946295</ele>
        <time>2020-08-30T13:58:05.641Z</time>
      </trkpt>
      <trkpt lat="59.55542" lon="18.27083">
        <ele>37.320079</ele>
        <time>2020-08-30T13:58:08.421Z</time>
      </trkpt>
      <trkpt lat="59.55489" lon="18.27169">
        <ele>38.010447</ele>
        <time>2020-08-30T13:58:25.156Z</time>
      </trkpt>
      <trkpt lat="59.55213" lon="18.27523">
        <ele>35.463925</ele>
        <time>2020-08-30T13:59:16.341Z</time>
      </trkpt>
      <trkpt lat="59.55155" lon="18.27593">
        <ele>33.396506</ele>
        <time>2020-08-30T13:59:25.346Z</time>
      </trkpt>
      <trkpt lat="59.55103" lon="18.27651">
        <ele>31.596285</ele>
        <time>2020-08-30T13:59:32.927Z</time>
      </trkpt>
      <trkpt lat="59.55036" lon="18.27701">
        <ele>29.135687</ele>
        <time>2020-08-30T13:59:41.870Z</time>
      </trkpt>
      <trkpt lat="59.54973" lon="18.27704">
        <ele>26.756766</ele>
        <time>2020-08-30T13:59:49.851Z</time>
      </trkpt>
      <trkpt lat="59.54912" lon="18.27687">
        <ele>24.479507</ele>
        <time>2020-08-30T13:59:57.704Z</time>
      </trkpt>
      <trkpt lat="59.54827" lon="18.27632">
        <ele>22.527053</ele>
        <time>2020-08-30T14:00:09.508Z</time>
      </trkpt>
      <trkpt lat="59.54701" lon="18.27515">
        <ele>20.897697</ele>
        <time>2020-08-30T14:00:30.441Z</time>
      </trkpt>
      <trkpt lat="59.54585" lon="18.27433">
        <ele>22.132965</ele>
        <time>2020-08-30T14:00:58.194Z</time>
      </trkpt>
      <trkpt lat="59.54561" lon="18.27416">
        <ele>22.433134</ele>
        <time>2020-08-30T14:01:05.014Z</time>
      </trkpt>
      <trkpt lat="59.54505" lon="18.27377">
        <ele>23.514649</ele>
        <time>2020-08-30T14:01:20.543Z</time>
      </trkpt>
      <trkpt lat="59.5447" lon="18.27361">
        <ele>24.173045</ele>
        <time>2020-08-30T14:01:29.734Z</time>
      </trkpt>
      <trkpt lat="59.54386" lon="18.27351">
        <ele>25.607337</ele>
        <time>2020-08-30T14:01:48.883Z</time>
      </trkpt>
      <trkpt lat="59.54362" lon="18.27348">
        <ele>25.3273</ele>
        <time>2020-08-30T14:01:53.334Z</time>
      </trkpt>
      <trkpt lat="59.54326" lon="18.27349">
        <ele>24.926659</ele>
        <time>2020-08-30T14:01:59.150Z</time>
      </trkpt>
      <trkpt lat="59.5428" lon="18.27358">
        <ele>24.394499</ele>
        <time>2020-08-30T14:02:06.188Z</time>
      </trkpt>
      <trkpt lat="59.54229" lon="18.27371">
        <ele>23.816536</ele>
        <time>2020-08-30T14:02:13.285Z</time>
      </trkpt>
      <trkpt lat="59.54047" lon="18.27399">
        <ele>19.458119</ele>
        <time>2020-08-30T14:02:37.819Z</time>
      </trkpt>
      <trkpt lat="59.53971" lon="18.27412">
        <ele>18.434375</ele>
        <time>2020-08-30T14:02:48.662Z</time>
      </trkpt>
      <trkpt lat="59.5389" lon="18.27398">
        <ele>17.567568</ele>
        <time>2020-08-30T14:03:01.168Z</time>
      </trkpt>
      <trkpt lat="59.53725" lon="18.27326">
        <ele>18.948261</ele>
        <time>2020-08-30T14:03:33.253Z</time>
      </trkpt>
      <trkpt lat="59.53701" lon="18.27324">
        <ele>19.282364</ele>
        <time>2020-08-30T14:03:39.746Z</time>
      </trkpt>
      <trkpt lat="59.53665" lon="18.27339">
        <ele>20.465445</ele>
        <time>2020-08-30T14:03:50.693Z</time>
      </trkpt>
      <trkpt lat="59.53649" lon="18.27347">
        <ele>21.580893</ele>
        <time>2020-08-30T14:03:55.815Z</time>
      </trkpt>
      <trkpt lat="59.53624" lon="18.2736">
        <ele>23.341371</ele>
        <time>2020-08-30T14:04:05.028Z</time>
      </trkpt>
      <trkpt lat="59.53561" lon="18.27367">
        <ele>27.616761</ele>
        <time>2020-08-30T14:04:29.474Z</time>
      </trkpt>
      <trkpt lat="59.53408" lon="18.27359">
        <ele>40.644703</ele>
        <time>2020-08-30T14:05:43.863Z</time>
      </trkpt>
      <trkpt lat="59.53223" lon="18.27355">
        <ele>57.078397</ele>
        <time>2020-08-30T14:07:15.198Z</time>
      </trkpt>
      <trkpt lat="59.53053" lon="18.27354">
        <ele>67.782283</ele>
        <time>2020-08-30T14:08:19.404Z</time>
      </trkpt>
      <trkpt lat="59.53025" lon="18.27363">
        <ele>69.080529</ele>
        <time>2020-08-30T14:08:28.010Z</time>
      </trkpt>
      <trkpt lat="59.52963" lon="18.27406">
        <ele>72.000183</ele>
        <time>2020-08-30T14:08:45.899Z</time>
      </trkpt>
      <trkpt lat="59.5291" lon="18.2741">
        <ele>72.304153</ele>
        <time>2020-08-30T14:08:58.463Z</time>
      </trkpt>
      <trkpt lat="59.52858" lon="18.27393">
        <ele>72.604098</ele>
        <time>2020-08-30T14:09:08.995Z</time>
      </trkpt>
      <trkpt lat="59.52813" lon="18.27363">
        <ele>72.873283</ele>
        <time>2020-08-30T14:09:17.145Z</time>
      </trkpt>
      <trkpt lat="59.52712" lon="18.27262">
        <ele>71.816821</ele>
        <time>2020-08-30T14:09:33.960Z</time>
      </trkpt>
      <trkpt lat="59.52643" lon="18.27232">
        <ele>70.834829</ele>
        <time>2020-08-30T14:09:44.124Z</time>
      </trkpt>
      <trkpt lat="59.52577" lon="18.27228">
        <ele>70.242134</ele>
        <time>2020-08-30T14:09:54.120Z</time>
      </trkpt>
      <trkpt lat="59.52561" lon="18.2723">
        <ele>70.139341</ele>
        <time>2020-08-30T14:09:56.478Z</time>
      </trkpt>
      <trkpt lat="59.52504" lon="18.27254">
        <ele>69.763384</ele>
        <time>2020-08-30T14:10:05.986Z</time>
      </trkpt>
      <trkpt lat="59.5242" lon="18.27299">
        <ele>69.292481</ele>
        <time>2020-08-30T14:10:21.430Z</time>
      </trkpt>
      <trkpt lat="59.52301" lon="18.27338">
        <ele>68.975987</ele>
        <time>2020-08-30T14:10:42.977Z</time>
      </trkpt>
      <trkpt lat="59.52257" lon="18.27343">
        <ele>68.655411</ele>
        <time>2020-08-30T14:10:50.052Z</time>
      </trkpt>
      <trkpt lat="59.5217" lon="18.27332">
        <ele>66.77205</ele>
        <time>2020-08-30T14:11:02.795Z</time>
      </trkpt>
      <trkpt lat="59.52113" lon="18.27341">
        <ele>65.552795</ele>
        <time>2020-08-30T14:11:10.253Z</time>
      </trkpt>
      <trkpt lat="59.5201" lon="18.27341">
        <ele>62.293661</ele>
        <time>2020-08-30T14:11:23.584Z</time>
      </trkpt>
      <trkpt lat="59.51981" lon="18.27349">
        <ele>61.2861</ele>
        <time>2020-08-30T14:11:27.396Z</time>
      </trkpt>
      <trkpt lat="59.51974" lon="18.27352">
        <ele>61.040283</ele>
        <time>2020-08-30T14:11:28.247Z</time>
      </trkpt>
      <trkpt lat="59.51939" lon="18.27385">
        <ele>59.698908</ele>
        <time>2020-08-30T14:11:33.157Z</time>
      </trkpt>
      <trkpt lat="59.51861" lon="18.27524">
        <ele>56.529586</ele>
        <time>2020-08-30T14:11:46.803Z</time>
      </trkpt>
      <trkpt lat="59.51852" lon="18.27543">
        <ele>56.148553</ele>
        <time>2020-08-30T14:11:48.586Z</time>
      </trkpt>
      <trkpt lat="59.51831" lon="18.2757">
        <ele>55.418306</ele>
        <time>2020-08-30T14:11:52.182Z</time>
      </trkpt>
      <trkpt lat="59.51792" lon="18.27616">
        <ele>54.131906</ele>
        <time>2020-08-30T14:11:58.295Z</time>
      </trkpt>
      <trkpt lat="59.51757" lon="18.27638">
        <ele>53.087841</ele>
        <time>2020-08-30T14:12:03.332Z</time>
      </trkpt>
      <trkpt lat="59.51743" lon="18.27642">
        <ele>52.707385</ele>
        <time>2020-08-30T14:12:05.255Z</time>
      </trkpt>
      <trkpt lat="59.51576" lon="18.27685">
        <ele>48.011972</ele>
        <time>2020-08-30T14:12:27.820Z</time>
      </trkpt>
      <trkpt lat="59.51475" lon="18.27699">
        <ele>44.947236</ele>
        <time>2020-08-30T14:12:41.139Z</time>
      </trkpt>
      <trkpt lat="59.51435" lon="18.27711">
        <ele>43.720576</ele>
        <time>2020-08-30T14:12:46.483Z</time>
      </trkpt>
      <trkpt lat="59.514" lon="18.27739">
        <ele>42.481081</ele>
        <time>2020-08-30T14:12:51.416Z</time>
      </trkpt>
      <trkpt lat="59.51263" lon="18.27941">
        <ele>36.34932</ele>
        <time>2020-08-30T14:13:13.332Z</time>
      </trkpt>
      <trkpt lat="59.51212" lon="18.27994">
        <ele>34.243311</ele>
        <time>2020-08-30T14:13:20.562Z</time>
      </trkpt>
      <trkpt lat="59.51182" lon="18.28032">
        <ele>32.940848</ele>
        <time>2020-08-30T14:13:25.104Z</time>
      </trkpt>
      <trkpt lat="59.51165" lon="18.28049">
        <ele>32.236925</ele>
        <time>2020-08-30T14:13:27.655Z</time>
      </trkpt>
      <trkpt lat="59.51159" lon="18.28051">
        <ele>32.029967</ele>
        <time>2020-08-30T14:13:28.323Z</time>
      </trkpt>
      <trkpt lat="59.51112" lon="18.28057">
        <ele>30.306694</ele>
        <time>2020-08-30T14:13:34.291Z</time>
      </trkpt>
      <trkpt lat="59.51064" lon="18.2808">
        <ele>28.745219</ele>
        <time>2020-08-30T14:13:40.869Z</time>
      </trkpt>
      <trkpt lat="59.51018" lon="18.28111">
        <ele>27.22581</ele>
        <time>2020-08-30T14:13:47.425Z</time>
      </trkpt>
      <trkpt lat="59.50999" lon="18.2813">
        <ele>26.564845</ele>
        <time>2020-08-30T14:13:50.287Z</time>
      </trkpt>
      <trkpt lat="59.50937" lon="18.2819">
        <ele>24.363774</ele>
        <time>2020-08-30T14:13:59.377Z</time>
      </trkpt>
      <trkpt lat="59.50897" lon="18.28207">
        <ele>22.670982</ele>
        <time>2020-08-30T14:14:04.539Z</time>
      </trkpt>
      <trkpt lat="59.5083" lon="18.28209">
        <ele>19.893707</ele>
        <time>2020-08-30T14:14:12.815Z</time>
      </trkpt>
      <trkpt lat="59.50782" lon="18.28196">
        <ele>17.876367</ele>
        <time>2020-08-30T14:14:18.810Z</time>
      </trkpt>
      <trkpt lat="59.50742" lon="18.28195">
        <ele>16.612059</ele>
        <time>2020-08-30T14:14:23.754Z</time>
      </trkpt>
      <trkpt lat="59.50704" lon="18.28196">
        <ele>15.683513</ele>
        <time>2020-08-30T14:14:28.492Z</time>
      </trkpt>
      <trkpt lat="59.50696" lon="18.28195">
        <ele>15.492877</ele>
        <time>2020-08-30T14:14:29.425Z</time>
      </trkpt>
      <trkpt lat="59.50618" lon="18.2821">
        <ele>13.581247</ele>
        <time>2020-08-30T14:14:40.065Z</time>
      </trkpt>
      <trkpt lat="59.50556" lon="18.28204">
        <ele>13.570801</ele>
        <time>2020-08-30T14:14:52.482Z</time>
      </trkpt>
      <trkpt lat="59.50535" lon="18.2821">
        <ele>14.127989</ele>
        <time>2020-08-30T14:14:57.721Z</time>
      </trkpt>
      <trkpt lat="59.50507" lon="18.28225">
        <ele>14.897862</ele>
        <time>2020-08-30T14:15:05.609Z</time>
      </trkpt>
      <trkpt lat="59.50499" lon="18.28229">
        <ele>15.128475</ele>
        <time>2020-08-30T14:15:08.099Z</time>
      </trkpt>
      <trkpt lat="59.50464" lon="18.28239">
        <ele>16.043598</ele>
        <time>2020-08-30T14:15:18.210Z</time>
      </trkpt>
      <trkpt lat="59.50377" lon="18.28231">
        <ele>18.20416</ele>
        <time>2020-08-30T14:15:45.420Z</time>
      </trkpt>
      <trkpt lat="59.50313" lon="18.28277">
        <ele>19.612077</ele>
        <time>2020-08-30T14:16:04.143Z</time>
      </trkpt>
      <trkpt lat="59.5028" lon="18.28295">
        <ele>20.333219</ele>
        <time>2020-08-30T14:16:11.205Z</time>
      </trkpt>
      <trkpt lat="59.50253" lon="18.28299">
        <ele>20.907566</ele>
        <time>2020-08-30T14:16:16.710Z</time>
      </trkpt>
      <trkpt lat="59.50232" lon="18.28299">
        <ele>21.308824</ele>
        <time>2020-08-30T14:16:20.907Z</time>
      </trkpt>
      <trkpt lat="59.5023" lon="18.283">
        <ele>21.285001</ele>
        <time>2020-08-30T14:16:21.337Z</time>
      </trkpt>
      <trkpt lat="59.50231" lon="18.28299">
        <ele>21.273953</ele>
        <time>2020-08-30T14:16:21.537Z</time>
      </trkpt>
      <trkpt lat="59.50184" lon="18.28316">
        <ele>20.874653</ele>
        <time>2020-08-30T14:16:29.144Z</time>
      </trkpt>
      <trkpt lat="59.5016" lon="18.28334">
        <ele>20.657622</ele>
        <time>2020-08-30T14:16:33.282Z</time>
      </trkpt>
      <trkpt lat="59.50148" lon="18.28347">
        <ele>20.546396</ele>
        <time>2020-08-30T14:16:35.173Z</time>
      </trkpt>
      <trkpt lat="59.50157" lon="18.28364">
        <ele>20.445516</ele>
        <time>2020-08-30T14:16:37.302Z</time>
      </trkpt>
      <trkpt lat="59.50145" lon="18.28383">
        <ele>20.317573</ele>
        <time>2020-08-30T14:16:39.438Z</time>
      </trkpt>
      <trkpt lat="59.50132" lon="18.28404">
        <ele>20.174504</ele>
        <time>2020-08-30T14:16:41.991Z</time>
      </trkpt>
      <trkpt lat="59.50126" lon="18.2841">
        <ele>20.118385</ele>
        <time>2020-08-30T14:16:43.103Z</time>
      </trkpt>
      <trkpt lat="59.50123" lon="18.28392">
        <ele>20.039038</ele>
        <time>2020-08-30T14:16:44.380Z</time>
      </trkpt>
      <trkpt lat="59.50117" lon="18.2836">
        <ele>19.891267</ele>
        <time>2020-08-30T14:16:47.002Z</time>
      </trkpt>
      <trkpt lat="59.501" lon="18.28309">
        <ele>19.617753</ele>
        <time>2020-08-30T14:16:51.615Z</time>
      </trkpt>
      <trkpt lat="59.50061" lon="18.28253">
        <ele>19.171506</ele>
        <time>2020-08-30T14:16:59.717Z</time>
      </trkpt>
      <trkpt lat="59.4991" lon="18.28161">
        <ele>17.650472</ele>
        <time>2020-08-30T14:17:24.300Z</time>
      </trkpt>
      <trkpt lat="59.49892" lon="18.2816">
        <ele>17.449184</ele>
        <time>2020-08-30T14:17:27.226Z</time>
      </trkpt>
      <trkpt lat="59.49888" lon="18.28159">
        <ele>17.412293</ele>
        <time>2020-08-30T14:17:27.713Z</time>
      </trkpt>
      <trkpt lat="59.49872" lon="18.28136">
        <ele>17.195494</ele>
        <time>2020-08-30T14:17:30.899Z</time>
      </trkpt>
      <trkpt lat="59.49718" lon="18.28051">
        <ele>15.29985</ele>
        <time>2020-08-30T14:17:55.135Z</time>
      </trkpt>
      <trkpt lat="59.49699" lon="18.28052">
        <ele>15.05713</ele>
        <time>2020-08-30T14:17:58.017Z</time>
      </trkpt>
      <trkpt lat="59.49666" lon="18.28024">
        <ele>14.568629</ele>
        <time>2020-08-30T14:18:03.636Z</time>
      </trkpt>
      <trkpt lat="59.49665" lon="18.28023">
        <ele>14.555964</ele>
        <time>2020-08-30T14:18:03.748Z</time>
      </trkpt>
      <trkpt lat="59.49641" lon="18.2801">
        <ele>14.228194</ele>
        <time>2020-08-30T14:18:07.486Z</time>
      </trkpt>
      <trkpt lat="59.49554" lon="18.27958">
        <ele>12.764435</ele>
        <time>2020-08-30T14:18:20.324Z</time>
      </trkpt>
      <trkpt lat="59.49512" lon="18.27948">
        <ele>12.014914</ele>
        <time>2020-08-30T14:18:26.445Z</time>
      </trkpt>
      <trkpt lat="59.49469" lon="18.27937">
        <ele>11.251214</ele>
        <time>2020-08-30T14:18:32.740Z</time>
      </trkpt>
      <trkpt lat="59.49463" lon="18.27936">
        <ele>11.150421</ele>
        <time>2020-08-30T14:18:33.463Z</time>
      </trkpt>
      <trkpt lat="59.49467" lon="18.2792">
        <ele>10.99492</ele>
        <time>2020-08-30T14:18:34.943Z</time>
      </trkpt>
      <trkpt lat="59.49464" lon="18.27919">
        <ele>10.937805</ele>
        <time>2020-08-30T14:18:35.404Z</time>
      </trkpt>
      <trkpt lat="59.49465" lon="18.27912">
        <ele>10.878038</ele>
        <time>2020-08-30T14:18:35.903Z</time>
      </trkpt>
      <trkpt lat="59.49458" lon="18.27892">
        <ele>10.662128</ele>
        <time>2020-08-30T14:18:37.725Z</time>
      </trkpt>
      <trkpt lat="59.49455" lon="18.27891">
        <ele>10.630846</ele>
        <time>2020-08-30T14:18:38.168Z</time>
      </trkpt>
      <trkpt lat="59.49451" lon="18.27892">
        <ele>10.599246</ele>
        <time>2020-08-30T14:18:38.599Z</time>
      </trkpt>
      <trkpt lat="59.49449" lon="18.27896">
        <ele>10.567557</ele>
        <time>2020-08-30T14:18:39.077Z</time>
      </trkpt>
      <trkpt lat="59.49447" lon="18.279">
        <ele>10.538919</ele>
        <time>2020-08-30T14:18:39.577Z</time>
      </trkpt>
      <trkpt lat="59.49439" lon="18.27882">
        <ele>10.421987</ele>
        <time>2020-08-30T14:18:41.447Z</time>
      </trkpt>
      <trkpt lat="59.49401" lon="18.27817">
        <ele>9.956021</ele>
        <time>2020-08-30T14:18:48.639Z</time>
      </trkpt>
      <trkpt lat="59.4938" lon="18.27791">
        <ele>9.72068</ele>
        <time>2020-08-30T14:18:52.479Z</time>
      </trkpt>
      <trkpt lat="59.49343" lon="18.27752">
        <ele>9.323485</ele>
        <time>2020-08-30T14:18:59.299Z</time>
      </trkpt>
      <trkpt lat="59.49341" lon="18.2775">
        <ele>9.305692</ele>
        <time>2020-08-30T14:18:59.601Z</time>
      </trkpt>
      <trkpt lat="59.49331" lon="18.27784">
        <ele>9.114687</ele>
        <time>2020-08-30T14:19:03.505Z</time>
      </trkpt>
      <trkpt lat="59.49313" lon="18.27758">
        <ele>9.017323</ele>
        <time>2020-08-30T14:19:07.449Z</time>
      </trkpt>
      <trkpt lat="59.49309" lon="18.27753">
        <ele>9.051153</ele>
        <time>2020-08-30T14:19:08.565Z</time>
      </trkpt>
      <trkpt lat="59.49306" lon="18.27718">
        <ele>9.164589</ele>
        <time>2020-08-30T14:19:11.931Z</time>
      </trkpt>
      <trkpt lat="59.49156" lon="18.27533">
        <ele>10.508438</ele>
        <time>2020-08-30T14:19:49.213Z</time>
      </trkpt>
      <trkpt lat="59.49139" lon="18.27518">
        <ele>10.77273</ele>
        <time>2020-08-30T14:19:53.596Z</time>
      </trkpt>
      <trkpt lat="59.49061" lon="18.27489">
        <ele>11.928304</ele>
        <time>2020-08-30T14:20:12.045Z</time>
      </trkpt>
      <trkpt lat="59.49048" lon="18.27511">
        <ele>12.170086</ele>
        <time>2020-08-30T14:20:15.931Z</time>
      </trkpt>
      <trkpt lat="59.49043" lon="18.27512">
        <ele>12.249892</ele>
        <time>2020-08-30T14:20:17.359Z</time>
      </trkpt>
      <trkpt lat="59.49037" lon="18.27509">
        <ele>12.340014</ele>
        <time>2020-08-30T14:20:18.975Z</time>
      </trkpt>
      <trkpt lat="59.49022" lon="18.27599">
        <ele>13.063695</ele>
        <time>2020-08-30T14:20:30.519Z</time>
      </trkpt>
      <trkpt lat="59.49005" lon="18.27659">
        <ele>13.62456</ele>
        <time>2020-08-30T14:20:39.549Z</time>
      </trkpt>
      <trkpt lat="59.48977" lon="18.27695">
        <ele>14.167184</ele>
        <time>2020-08-30T14:20:48.227Z</time>
      </trkpt>
      <trkpt lat="59.48944" lon="18.27718">
        <ele>14.731525</ele>
        <time>2020-08-30T14:20:57.142Z</time>
      </trkpt>
      <trkpt lat="59.48897" lon="18.27731">
        <ele>15.483793</ele>
        <time>2020-08-30T14:21:08.128Z</time>
      </trkpt>
      <trkpt lat="59.48877" lon="18.27735">
        <ele>15.513797</ele>
        <time>2020-08-30T14:21:12.191Z</time>
      </trkpt>
      <trkpt lat="59.48868" lon="18.27738">
        <ele>15.449103</ele>
        <time>2020-08-30T14:21:13.839Z</time>
      </trkpt>
      <trkpt lat="59.48783" lon="18.27772">
        <ele>14.849347</ele>
        <time>2020-08-30T14:21:27.665Z</time>
      </trkpt>
      <trkpt lat="59.48759" lon="18.27794">
        <ele>14.670229</ele>
        <time>2020-08-30T14:21:31.943Z</time>
      </trkpt>
      <trkpt lat="59.48763" lon="18.27779">
        <ele>14.611172</ele>
        <time>2020-08-30T14:21:33.089Z</time>
      </trkpt>
      <trkpt lat="59.48763" lon="18.2776">
        <ele>14.544413</ele>
        <time>2020-08-30T14:21:34.974Z</time>
      </trkpt>
      <trkpt lat="59.48748" lon="18.27707">
        <ele>14.329111</ele>
        <time>2020-08-30T14:21:39.734Z</time>
      </trkpt>
      <trkpt lat="59.48737" lon="18.27673">
        <ele>14.16177</ele>
        <time>2020-08-30T14:21:43.473Z</time>
      </trkpt>
      <trkpt lat="59.48717" lon="18.27619">
        <ele>13.895881</ele>
        <time>2020-08-30T14:21:49.179Z</time>
      </trkpt>
      <trkpt lat="59.48686" lon="18.27596">
        <ele>13.6275</ele>
        <time>2020-08-30T14:21:54.550Z</time>
      </trkpt>
      <trkpt lat="59.48681" lon="18.2758">
        <ele>13.553235</ele>
        <time>2020-08-30T14:21:55.996Z</time>
      </trkpt>
      <trkpt lat="59.48676" lon="18.27556">
        <ele>13.446901</ele>
        <time>2020-08-30T14:21:57.972Z</time>
      </trkpt>
      <trkpt lat="59.4867" lon="18.27537">
        <ele>13.358719</ele>
        <time>2020-08-30T14:21:59.785Z</time>
      </trkpt>
      <trkpt lat="59.48654" lon="18.27523">
        <ele>13.215007</ele>
        <time>2020-08-30T14:22:02.876Z</time>
      </trkpt>
      <trkpt lat="59.48619" lon="18.27437">
        <ele>12.707553</ele>
        <time>2020-08-30T14:22:12.983Z</time>
      </trkpt>
      <trkpt lat="59.48592" lon="18.2739">
        <ele>12.299718</ele>
        <time>2020-08-30T14:22:19.493Z</time>
      </trkpt>
      <trkpt lat="59.48553" lon="18.27345">
        <ele>11.789729</ele>
        <time>2020-08-30T14:22:27.276Z</time>
      </trkpt>
      <trkpt lat="59.48449" lon="18.27278">
        <ele>10.958851</ele>
        <time>2020-08-30T14:22:43.045Z</time>
      </trkpt>
      <trkpt lat="59.48398" lon="18.27229">
        <ele>11.065626</ele>
        <time>2020-08-30T14:22:52.577Z</time>
      </trkpt>
      <trkpt lat="59.48391" lon="18.2722">
        <ele>11.081495</ele>
        <time>2020-08-30T14:22:53.947Z</time>
      </trkpt>
      <trkpt lat="59.4838" lon="18.27211">
        <ele>11.103414</ele>
        <time>2020-08-30T14:22:56.975Z</time>
      </trkpt>
      <trkpt lat="59.48368" lon="18.27205">
        <ele>11.12766</ele>
        <time>2020-08-30T14:23:00.212Z</time>
      </trkpt>
      <trkpt lat="59.48358" lon="18.27193">
        <ele>11.14913</ele>
        <time>2020-08-30T14:23:02.221Z</time>
      </trkpt>
      <trkpt lat="59.48275" lon="18.27075">
        <ele>12.537057</ele>
        <time>2020-08-30T14:23:28.235Z</time>
      </trkpt>
      <trkpt lat="59.48258" lon="18.27045">
        <ele>13.101268</ele>
        <time>2020-08-30T14:23:34.871Z</time>
      </trkpt>
      <trkpt lat="59.48252" lon="18.2704">
        <ele>13.247523</ele>
        <time>2020-08-30T14:23:36.612Z</time>
      </trkpt>
      <trkpt lat="59.48229" lon="18.26997">
        <ele>14.024625</ele>
        <time>2020-08-30T14:23:45.662Z</time>
      </trkpt>
      <trkpt lat="59.48212" lon="18.2693">
        <ele>14.939531</ele>
        <time>2020-08-30T14:23:55.839Z</time>
      </trkpt>
      <trkpt lat="59.48206" lon="18.26871">
        <ele>15.622066</ele>
        <time>2020-08-30T14:24:03.417Z</time>
      </trkpt>
      <trkpt lat="59.48209" lon="18.26736">
        <ele>16.114833</ele>
        <time>2020-08-30T14:24:18.027Z</time>
      </trkpt>
      <trkpt lat="59.48189" lon="18.26599">
        <ele>16.636628</ele>
        <time>2020-08-30T14:24:31.046Z</time>
      </trkpt>
      <trkpt lat="59.4816" lon="18.26492">
        <ele>17.267119</ele>
        <time>2020-08-30T14:24:42.566Z</time>
      </trkpt>
      <trkpt lat="59.48125" lon="18.26422">
        <ele>17.972356</ele>
        <time>2020-08-30T14:24:51.935Z</time>
      </trkpt>
      <trkpt lat="59.48094" lon="18.26362">
        <ele>18.5881</ele>
        <time>2020-08-30T14:25:01.747Z</time>
      </trkpt>
      <trkpt lat="59.48075" lon="18.26322">
        <ele>18.9864</ele>
        <time>2020-08-30T14:25:08.790Z</time>
      </trkpt>
      <trkpt lat="59.48014" lon="18.26233">
        <ele>20.845907</ele>
        <time>2020-08-30T14:25:29.422Z</time>
      </trkpt>
      <trkpt lat="59.48004" lon="18.2621">
        <ele>21.356498</ele>
        <time>2020-08-30T14:25:33.286Z</time>
      </trkpt>
      <trkpt lat="59.47989" lon="18.26194">
        <ele>21.923383</ele>
        <time>2020-08-30T14:25:39.546Z</time>
      </trkpt>
      <trkpt lat="59.47961" lon="18.26161">
        <ele>22.970756</ele>
        <time>2020-08-30T14:25:49.352Z</time>
      </trkpt>
      <trkpt lat="59.47916" lon="18.26087">
        <ele>24.889889</ele>
        <time>2020-08-30T14:26:05.600Z</time>
      </trkpt>
      <trkpt lat="59.47909" lon="18.26072">
        <ele>25.216336</ele>
        <time>2020-08-30T14:26:09.695Z</time>
      </trkpt>
      <trkpt lat="59.47848" lon="18.25953">
        <ele>26.273279</ele>
        <time>2020-08-30T14:26:30.292Z</time>
      </trkpt>
      <trkpt lat="59.47826" lon="18.25886">
        <ele>26.741887</ele>
        <time>2020-08-30T14:26:38.346Z</time>
      </trkpt>
      <trkpt lat="59.47822" lon="18.25855">
        <ele>26.929588</ele>
        <time>2020-08-30T14:26:42.245Z</time>
      </trkpt>
      <trkpt lat="59.47814" lon="18.25833">
        <ele>27.08308</ele>
        <time>2020-08-30T14:26:44.357Z</time>
      </trkpt>
      <trkpt lat="59.47811" lon="18.25824">
        <ele>27.148262</ele>
        <time>2020-08-30T14:26:45.224Z</time>
      </trkpt>
      <trkpt lat="59.47787" lon="18.25729">
        <ele>27.212138</ele>
        <time>2020-08-30T14:26:53.660Z</time>
      </trkpt>
      <trkpt lat="59.47769" lon="18.25635">
        <ele>26.940995</ele>
        <time>2020-08-30T14:27:01.775Z</time>
      </trkpt>
      <trkpt lat="59.47764" lon="18.25468">
        <ele>26.485491</ele>
        <time>2020-08-30T14:27:15.498Z</time>
      </trkpt>
      <trkpt lat="59.47767" lon="18.25447">
        <ele>26.429403</ele>
        <time>2020-08-30T14:27:17.393Z</time>
      </trkpt>
      <trkpt lat="59.47765" lon="18.25425">
        <ele>26.424223</ele>
        <time>2020-08-30T14:27:19.528Z</time>
      </trkpt>
      <trkpt lat="59.47762" lon="18.25405">
        <ele>26.419399</ele>
        <time>2020-08-30T14:27:21.362Z</time>
      </trkpt>
      <trkpt lat="59.47757" lon="18.25391">
        <ele>26.415256</ele>
        <time>2020-08-30T14:27:22.924Z</time>
      </trkpt>
      <trkpt lat="59.47749" lon="18.25391">
        <ele>26.411814</ele>
        <time>2020-08-30T14:27:24.337Z</time>
      </trkpt>
      <trkpt lat="59.47742" lon="18.25387">
        <ele>26.408343</ele>
        <time>2020-08-30T14:27:25.948Z</time>
      </trkpt>
      <trkpt lat="59.47737" lon="18.25398">
        <ele>26.40496</ele>
        <time>2020-08-30T14:27:27.505Z</time>
      </trkpt>
      <trkpt lat="59.47726" lon="18.25403">
        <ele>26.399439</ele>
        <time>2020-08-30T14:27:29.791Z</time>
      </trkpt>
      <trkpt lat="59.47629" lon="18.25375">
        <ele>26.354502</ele>
        <time>2020-08-30T14:27:48.155Z</time>
      </trkpt>
      <trkpt lat="59.47609" lon="18.25361">
        <ele>26.277946</ele>
        <time>2020-08-30T14:27:51.355Z</time>
      </trkpt>
      <trkpt lat="59.47599" lon="18.25355">
        <ele>26.143138</ele>
        <time>2020-08-30T14:27:53.108Z</time>
      </trkpt>
      <trkpt lat="59.47569" lon="18.25327">
        <ele>25.682698</ele>
        <time>2020-08-30T14:27:58.328Z</time>
      </trkpt>
      <trkpt lat="59.47481" lon="18.25245">
        <ele>24.371741</ele>
        <time>2020-08-30T14:28:12.536Z</time>
      </trkpt>
      <trkpt lat="59.47424" lon="18.25229">
        <ele>23.530026</ele>
        <time>2020-08-30T14:28:20.746Z</time>
      </trkpt>
      <trkpt lat="59.47385" lon="18.25237">
        <ele>22.891296</ele>
        <time>2020-08-30T14:28:26.183Z</time>
      </trkpt>
      <trkpt lat="59.47338" lon="18.25273">
        <ele>22.074567</ele>
        <time>2020-08-30T14:28:33.455Z</time>
      </trkpt>
      <trkpt lat="59.47147" lon="18.2554">
        <ele>18.720286</ele>
        <time>2020-08-30T14:29:09.407Z</time>
      </trkpt>
      <trkpt lat="59.47025" lon="18.25757">
        <ele>14.339258</ele>
        <time>2020-08-30T14:29:31.283Z</time>
      </trkpt>
      <trkpt lat="59.47021" lon="18.25794">
        <ele>13.807828</ele>
        <time>2020-08-30T14:29:33.685Z</time>
      </trkpt>
      <trkpt lat="59.47001" lon="18.25818">
        <ele>13.281872</ele>
        <time>2020-08-30T14:29:36.793Z</time>
      </trkpt>
      <trkpt lat="59.47" lon="18.25813">
        <ele>13.217578</ele>
        <time>2020-08-30T14:29:37.184Z</time>
      </trkpt>
      <trkpt lat="59.46989" lon="18.25807">
        <ele>12.99697</ele>
        <time>2020-08-30T14:29:38.622Z</time>
      </trkpt>
      <trkpt lat="59.46982" lon="18.25823">
        <ele>12.775085</ele>
        <time>2020-08-30T14:29:40.217Z</time>
      </trkpt>
      <trkpt lat="59.46982" lon="18.2583">
        <ele>12.709137</ele>
        <time>2020-08-30T14:29:40.660Z</time>
      </trkpt>
      <trkpt lat="59.46965" lon="18.25829">
        <ele>12.366973</ele>
        <time>2020-08-30T14:29:42.837Z</time>
      </trkpt>
      <trkpt lat="59.46944" lon="18.25841">
        <ele>11.921485</ele>
        <time>2020-08-30T14:29:45.970Z</time>
      </trkpt>
      <trkpt lat="59.46911" lon="18.25864">
        <ele>11.200021</ele>
        <time>2020-08-30T14:29:50.934Z</time>
      </trkpt>
      <trkpt lat="59.46894" lon="18.25884">
        <ele>10.799296</ele>
        <time>2020-08-30T14:29:53.640Z</time>
      </trkpt>
      <trkpt lat="59.46873" lon="18.25907">
        <ele>10.312468</ele>
        <time>2020-08-30T14:29:57.352Z</time>
      </trkpt>
      <trkpt lat="59.46855" lon="18.25914">
        <ele>9.94916</ele>
        <time>2020-08-30T14:30:00.454Z</time>
      </trkpt>
      <trkpt lat="59.46848" lon="18.2593">
        <ele>9.940184</ele>
        <time>2020-08-30T14:30:02.082Z</time>
      </trkpt>
      <trkpt lat="59.46832" lon="18.25933">
        <ele>9.925947</ele>
        <time>2020-08-30T14:30:04.824Z</time>
      </trkpt>
      <trkpt lat="59.46687" lon="18.26055">
        <ele>9.821913</ele>
        <time>2020-08-30T14:30:33.444Z</time>
      </trkpt>
      <trkpt lat="59.46612" lon="18.26127">
        <ele>10.354931</ele>
        <time>2020-08-30T14:30:48.887Z</time>
      </trkpt>
      <trkpt lat="59.46602" lon="18.26134">
        <ele>10.422418</ele>
        <time>2020-08-30T14:30:50.607Z</time>
      </trkpt>
      <trkpt lat="59.46584" lon="18.26145">
        <ele>10.541887</ele>
        <time>2020-08-30T14:30:54.639Z</time>
      </trkpt>
      <trkpt lat="59.46464" lon="18.26203">
        <ele>12.022152</ele>
        <time>2020-08-30T14:31:21.796Z</time>
      </trkpt>
      <trkpt lat="59.46377" lon="18.26241">
        <ele>13.617028</ele>
        <time>2020-08-30T14:31:44.096Z</time>
      </trkpt>
      <trkpt lat="59.46288" lon="18.26281">
        <ele>14.686259</ele>
        <time>2020-08-30T14:32:05.412Z</time>
      </trkpt>
      <trkpt lat="59.46216" lon="18.26356">
        <ele>15.403435</ele>
        <time>2020-08-30T14:32:21.796Z</time>
      </trkpt>
      <trkpt lat="59.462" lon="18.26396">
        <ele>15.630935</ele>
        <time>2020-08-30T14:32:26.478Z</time>
      </trkpt>
      <trkpt lat="59.46176" lon="18.26508">
        <ele>15.679136</ele>
        <time>2020-08-30T14:32:37.065Z</time>
      </trkpt>
      <trkpt lat="59.46153" lon="18.26539">
        <ele>15.656186</ele>
        <time>2020-08-30T14:32:41.657Z</time>
      </trkpt>
      <trkpt lat="59.46089" lon="18.26569">
        <ele>15.599919</ele>
        <time>2020-08-30T14:32:53.327Z</time>
      </trkpt>
      <trkpt lat="59.46072" lon="18.2659">
        <ele>15.582359</ele>
        <time>2020-08-30T14:32:57.060Z</time>
      </trkpt>
      <trkpt lat="59.45921" lon="18.26855">
        <ele>15.165371</ele>
        <time>2020-08-30T14:33:32.655Z</time>
      </trkpt>
      <trkpt lat="59.45798" lon="18.27025">
        <ele>13.977977</ele>
        <time>2020-08-30T14:33:55.729Z</time>
      </trkpt>
      <trkpt lat="59.45771" lon="18.27051">
        <ele>13.860468</ele>
        <time>2020-08-30T14:34:00.491Z</time>
      </trkpt>
      <trkpt lat="59.45762" lon="18.27055">
        <ele>13.925863</ele>
        <time>2020-08-30T14:34:01.796Z</time>
      </trkpt>
      <trkpt lat="59.45736" lon="18.27081">
        <ele>14.131384</ele>
        <time>2020-08-30T14:34:06.849Z</time>
      </trkpt>
      <trkpt lat="59.45569" lon="18.27236">
        <ele>16.932365</ele>
        <time>2020-08-30T14:34:46.994Z</time>
      </trkpt>
      <trkpt lat="59.45545" lon="18.27272">
        <ele>18.016648</ele>
        <time>2020-08-30T14:34:55.292Z</time>
      </trkpt>
      <trkpt lat="59.45522" lon="18.27293">
        <ele>18.960674</ele>
        <time>2020-08-30T14:35:03.407Z</time>
      </trkpt>
      <trkpt lat="59.45442" lon="18.27352">
        <ele>22.283871</ele>
        <time>2020-08-30T14:35:33.167Z</time>
      </trkpt>
      <trkpt lat="59.45392" lon="18.27376">
        <ele>24.999207</ele>
        <time>2020-08-30T14:35:51.566Z</time>
      </trkpt>
      <trkpt lat="59.45379" lon="18.27379">
        <ele>25.714653</ele>
        <time>2020-08-30T14:35:57.330Z</time>
      </trkpt>
      <trkpt lat="59.45328" lon="18.27373">
        <ele>28.446438</ele>
        <time>2020-08-30T14:36:15.144Z</time>
      </trkpt>
      <trkpt lat="59.4532" lon="18.27368">
        <ele>28.908761</ele>
        <time>2020-08-30T14:36:18.168Z</time>
      </trkpt>
      <trkpt lat="59.45297" lon="18.27353">
        <ele>30.199192</ele>
        <time>2020-08-30T14:36:26.582Z</time>
      </trkpt>
      <trkpt lat="59.45208" lon="18.27278">
        <ele>33.453149</ele>
        <time>2020-08-30T14:36:56.739Z</time>
      </trkpt>
      <trkpt lat="59.45147" lon="18.27198">
        <ele>35.57004</ele>
        <time>2020-08-30T14:37:15.157Z</time>
      </trkpt>
      <trkpt lat="59.45082" lon="18.27062">
        <ele>36.124811</ele>
        <time>2020-08-30T14:37:34.790Z</time>
      </trkpt>
      <trkpt lat="59.45001" lon="18.26918">
        <ele>35.664519</ele>
        <time>2020-08-30T14:37:51.523Z</time>
      </trkpt>
      <trkpt lat="59.44989" lon="18.26907">
        <ele>35.410018</ele>
        <time>2020-08-30T14:37:53.451Z</time>
      </trkpt>
      <trkpt lat="59.4498" lon="18.26898">
        <ele>35.122192</ele>
        <time>2020-08-30T14:37:54.984Z</time>
      </trkpt>
      <trkpt lat="59.44977" lon="18.26891">
        <ele>34.988907</ele>
        <time>2020-08-30T14:37:55.648Z</time>
      </trkpt>
      <trkpt lat="59.44974" lon="18.26884">
        <ele>34.853384</ele>
        <time>2020-08-30T14:37:56.181Z</time>
      </trkpt>
      <trkpt lat="59.44957" lon="18.26833">
        <ele>33.966798</ele>
        <time>2020-08-30T14:38:00.558Z</time>
      </trkpt>
      <trkpt lat="59.44785" lon="18.26558">
        <ele>27.803868</ele>
        <time>2020-08-30T14:38:29.296Z</time>
      </trkpt>
      <trkpt lat="59.44705" lon="18.26434">
        <ele>25.160184</ele>
        <time>2020-08-30T14:38:43.911Z</time>
      </trkpt>
      <trkpt lat="59.44624" lon="18.26309">
        <ele>22.850591</ele>
        <time>2020-08-30T14:38:58.407Z</time>
      </trkpt>
      <trkpt lat="59.44606" lon="18.2629">
        <ele>22.381475</ele>
        <time>2020-08-30T14:39:01.287Z</time>
      </trkpt>
      <trkpt lat="59.44601" lon="18.26284">
        <ele>22.249382</ele>
        <time>2020-08-30T14:39:01.975Z</time>
      </trkpt>
      <trkpt lat="59.44597" lon="18.26293">
        <ele>22.109975</ele>
        <time>2020-08-30T14:39:02.944Z</time>
      </trkpt>
      <trkpt lat="59.44588" lon="18.26314">
        <ele>21.8058</ele>
        <time>2020-08-30T14:39:05.029Z</time>
      </trkpt>
      <trkpt lat="59.44588" lon="18.26314">
        <ele>21.8058</ele>
        <time>2020-08-30T14:39:05.223Z</time>
      </trkpt>
      <trkpt lat="59.44588" lon="18.26314">
        <ele>21.8058</ele>
        <time>2020-08-30T14:39:05.257Z</time>
      </trkpt>
      <trkpt lat="59.44597" lon="18.26293">
        <ele>21.497544</ele>
        <time>2020-08-30T14:39:07.021Z</time>
      </trkpt>
      <trkpt lat="59.44601" lon="18.26284">
        <ele>21.353586</ele>
        <time>2020-08-30T14:39:07.829Z</time>
      </trkpt>
      <trkpt lat="59.44607" lon="18.26265">
        <ele>21.096862</ele>
        <time>2020-08-30T14:39:09.569Z</time>
      </trkpt>
      <trkpt lat="59.44545" lon="18.26168">
        <ele>19.26645</ele>
        <time>2020-08-30T14:39:20.092Z</time>
      </trkpt>
      <trkpt lat="59.44493" lon="18.26079">
        <ele>17.652893</ele>
        <time>2020-08-30T14:39:29.650Z</time>
      </trkpt>
      <trkpt lat="59.44462" lon="18.26005">
        <ele>18.085192</ele>
        <time>2020-08-30T14:39:36.956Z</time>
      </trkpt>
      <trkpt lat="59.44396" lon="18.25788">
        <ele>20.113713</ele>
        <time>2020-08-30T14:40:08.919Z</time>
      </trkpt>
      <trkpt lat="59.44377" lon="18.25711">
        <ele>21.339051</ele>
        <time>2020-08-30T14:40:23.335Z</time>
      </trkpt>
      <trkpt lat="59.44377" lon="18.2567">
        <ele>22.025978</ele>
        <time>2020-08-30T14:40:29.807Z</time>
      </trkpt>
      <trkpt lat="59.44382" lon="18.25651">
        <ele>22.380384</ele>
        <time>2020-08-30T14:40:34.112Z</time>
      </trkpt>
      <trkpt lat="59.44414" lon="18.2555">
        <ele>24.361561</ele>
        <time>2020-08-30T14:40:52.181Z</time>
      </trkpt>
      <trkpt lat="59.44429" lon="18.25491">
        <ele>25.475392</ele>
        <time>2020-08-30T14:41:01.399Z</time>
      </trkpt>
      <trkpt lat="59.44431" lon="18.25484">
        <ele>25.609521</ele>
        <time>2020-08-30T14:41:02.427Z</time>
      </trkpt>
      <trkpt lat="59.44445" lon="18.25393">
        <ele>25.94261</ele>
        <time>2020-08-30T14:41:13.781Z</time>
      </trkpt>
      <trkpt lat="59.44451" lon="18.2532">
        <ele>25.621007</ele>
        <time>2020-08-30T14:41:19.491Z</time>
      </trkpt>
      <trkpt lat="59.44469" lon="18.25119">
        <ele>24.732376</ele>
        <time>2020-08-30T14:41:33.492Z</time>
      </trkpt>
      <trkpt lat="59.44492" lon="18.24854">
        <ele>26.280583</ele>
        <time>2020-08-30T14:41:59.363Z</time>
      </trkpt>
      <trkpt lat="59.44497" lon="18.24792">
        <ele>26.680792</ele>
        <time>2020-08-30T14:42:09.046Z</time>
      </trkpt>
      <trkpt lat="59.44509" lon="18.24723">
        <ele>27.641812</ele>
        <time>2020-08-30T14:42:20.809Z</time>
      </trkpt>
      <trkpt lat="59.44534" lon="18.24632">
        <ele>29.783276</ele>
        <time>2020-08-30T14:42:38.499Z</time>
      </trkpt>
      <trkpt lat="59.44538" lon="18.24598">
        <ele>30.514461</ele>
        <time>2020-08-30T14:42:44.726Z</time>
      </trkpt>
      <trkpt lat="59.44537" lon="18.24533">
        <ele>31.873007</ele>
        <time>2020-08-30T14:42:56.479Z</time>
      </trkpt>
      <trkpt lat="59.44529" lon="18.24492">
        <ele>32.766209</ele>
        <time>2020-08-30T14:43:02.940Z</time>
      </trkpt>
      <trkpt lat="59.44504" lon="18.24434">
        <ele>34.304604</ele>
        <time>2020-08-30T14:43:13.268Z</time>
      </trkpt>
      <trkpt lat="59.44426" lon="18.24323">
        <ele>36.284858</ele>
        <time>2020-08-30T14:43:37.032Z</time>
      </trkpt>
      <trkpt lat="59.44405" lon="18.24278">
        <ele>36.921296</ele>
        <time>2020-08-30T14:43:44.283Z</time>
      </trkpt>
      <trkpt lat="59.444" lon="18.24244">
        <ele>37.291257</ele>
        <time>2020-08-30T14:43:48.467Z</time>
      </trkpt>
      <trkpt lat="59.44402" lon="18.24219">
        <ele>37.551361</ele>
        <time>2020-08-30T14:43:51.302Z</time>
      </trkpt>
      <trkpt lat="59.44423" lon="18.24173">
        <ele>38.12561</ele>
        <time>2020-08-30T14:43:58.431Z</time>
      </trkpt>
      <trkpt lat="59.44471" lon="18.24111">
        <ele>38.978573</ele>
        <time>2020-08-30T14:44:11.819Z</time>
      </trkpt>
      <trkpt lat="59.44706" lon="18.23797">
        <ele>42.589164</ele>
        <time>2020-08-30T14:45:15.199Z</time>
      </trkpt>
      <trkpt lat="59.44787" lon="18.23684">
        <ele>41.755023</ele>
        <time>2020-08-30T14:45:31.867Z</time>
      </trkpt>
      <trkpt lat="59.44815" lon="18.23629">
        <ele>41.374123</ele>
        <time>2020-08-30T14:45:37.919Z</time>
      </trkpt>
      <trkpt lat="59.45034" lon="18.23145">
        <ele>33.732236</ele>
        <time>2020-08-30T14:46:22.524Z</time>
      </trkpt>
      <trkpt lat="59.4505" lon="18.23087">
        <ele>32.878181</ele>
        <time>2020-08-30T14:46:26.852Z</time>
      </trkpt>
      <trkpt lat="59.45056" lon="18.2305">
        <ele>32.375701</ele>
        <time>2020-08-30T14:46:29.604Z</time>
      </trkpt>
      <trkpt lat="59.4506" lon="18.2302">
        <ele>31.978686</ele>
        <time>2020-08-30T14:46:31.522Z</time>
      </trkpt>
      <trkpt lat="59.4507" lon="18.21921">
        <ele>26.826904</ele>
        <time>2020-08-30T14:47:58.697Z</time>
      </trkpt>
      <trkpt lat="59.45065" lon="18.21795">
        <ele>27.73468</ele>
        <time>2020-08-30T14:48:13.669Z</time>
      </trkpt>
      <trkpt lat="59.45056" lon="18.21722">
        <ele>28.280665</ele>
        <time>2020-08-30T14:48:23.128Z</time>
      </trkpt>
      <trkpt lat="59.45052" lon="18.21703">
        <ele>28.42472</ele>
        <time>2020-08-30T14:48:25.760Z</time>
      </trkpt>
      <trkpt lat="59.45046" lon="18.21674">
        <ele>28.648696</ele>
        <time>2020-08-30T14:48:29.393Z</time>
      </trkpt>
      <trkpt lat="59.45044" lon="18.21664">
        <ele>28.724152</ele>
        <time>2020-08-30T14:48:30.681Z</time>
      </trkpt>
      <trkpt lat="59.45038" lon="18.21636">
        <ele>28.948543</ele>
        <time>2020-08-30T14:48:34.783Z</time>
      </trkpt>
      <trkpt lat="59.45028" lon="18.21608">
        <ele>29.194199</ele>
        <time>2020-08-30T14:48:38.731Z</time>
      </trkpt>
      <trkpt lat="59.45015" lon="18.21581">
        <ele>29.252387</ele>
        <time>2020-08-30T14:48:43.520Z</time>
      </trkpt>
      <trkpt lat="59.45026" lon="18.21554">
        <ele>29.28732</ele>
        <time>2020-08-30T14:48:47.356Z</time>
      </trkpt>
      <trkpt lat="59.45049" lon="18.21491">
        <ele>29.365462</ele>
        <time>2020-08-30T14:48:55.982Z</time>
      </trkpt>
      <trkpt lat="59.45105" lon="18.21306">
        <ele>29.521257</ele>
        <time>2020-08-30T14:49:13.806Z</time>
      </trkpt>
      <trkpt lat="59.45145" lon="18.2116">
        <ele>28.547287</ele>
        <time>2020-08-30T14:49:25.965Z</time>
      </trkpt>
      <trkpt lat="59.45164" lon="18.21091">
        <ele>28.086826</ele>
        <time>2020-08-30T14:49:31.734Z</time>
      </trkpt>
      <trkpt lat="59.45236" lon="18.20761">
        <ele>27.140763</ele>
        <time>2020-08-30T14:50:01.882Z</time>
      </trkpt>
      <trkpt lat="59.45283" lon="18.20497">
        <ele>26.602553</ele>
        <time>2020-08-30T14:50:28.839Z</time>
      </trkpt>
      <trkpt lat="59.45323" lon="18.20202">
        <ele>24.844494</ele>
        <time>2020-08-30T14:50:52.356Z</time>
      </trkpt>
      <trkpt lat="59.45339" lon="18.20053">
        <ele>23.288651</ele>
        <time>2020-08-30T14:51:02.915Z</time>
      </trkpt>
      <trkpt lat="59.4535" lon="18.19901">
        <ele>21.721621</ele>
        <time>2020-08-30T14:51:13.564Z</time>
      </trkpt>
      <trkpt lat="59.45355" lon="18.19711">
        <ele>19.779015</ele>
        <time>2020-08-30T14:51:27.194Z</time>
      </trkpt>
      <trkpt lat="59.45351" lon="18.19562">
        <ele>18.654842</ele>
        <time>2020-08-30T14:51:38.359Z</time>
      </trkpt>
      <trkpt lat="59.45349" lon="18.19485">
        <ele>18.299105</ele>
        <time>2020-08-30T14:51:44.251Z</time>
      </trkpt>
      <trkpt lat="59.45345" lon="18.19437">
        <ele>18.073149</ele>
        <time>2020-08-30T14:51:48.058Z</time>
      </trkpt>
      <trkpt lat="59.45337" lon="18.19321">
        <ele>17.530582</ele>
        <time>2020-08-30T14:51:57.553Z</time>
      </trkpt>
      <trkpt lat="59.45333" lon="18.19271">
        <ele>17.458429</ele>
        <time>2020-08-30T14:52:01.784Z</time>
      </trkpt>
      <trkpt lat="59.45318" lon="18.19163">
        <ele>18.491097</ele>
        <time>2020-08-30T14:52:12.861Z</time>
      </trkpt>
      <trkpt lat="59.45294" lon="18.18984">
        <ele>20.193687</ele>
        <time>2020-08-30T14:52:36.592Z</time>
      </trkpt>
      <trkpt lat="59.4528" lon="18.18853">
        <ele>22.451448</ele>
        <time>2020-08-30T14:52:57.168Z</time>
      </trkpt>
      <trkpt lat="59.45271" lon="18.18678">
        <ele>26.105766</ele>
        <time>2020-08-30T14:53:26.434Z</time>
      </trkpt>
      <trkpt lat="59.45271" lon="18.18512">
        <ele>28.810234</ele>
        <time>2020-08-30T14:53:52.391Z</time>
      </trkpt>
      <trkpt lat="59.45284" lon="18.18301">
        <ele>31.188466</ele>
        <time>2020-08-30T14:54:19.172Z</time>
      </trkpt>
      <trkpt lat="59.45315" lon="18.18075">
        <ele>31.625507</ele>
        <time>2020-08-30T14:54:41.383Z</time>
      </trkpt>
      <trkpt lat="59.45359" lon="18.17877">
        <ele>31.145632</ele>
        <time>2020-08-30T14:54:58.385Z</time>
      </trkpt>
      <trkpt lat="59.45393" lon="18.17761">
        <ele>30.4384</ele>
        <time>2020-08-30T14:55:08.540Z</time>
      </trkpt>
      <trkpt lat="59.45468" lon="18.17547">
        <ele>29.529968</ele>
        <time>2020-08-30T14:55:29.013Z</time>
      </trkpt>
      <trkpt lat="59.45533" lon="18.17339">
        <ele>29.822185</ele>
        <time>2020-08-30T14:55:51.549Z</time>
      </trkpt>
      <trkpt lat="59.45576" lon="18.17156">
        <ele>32.360552</ele>
        <time>2020-08-30T14:56:17.410Z</time>
      </trkpt>
      <trkpt lat="59.45595" lon="18.17052">
        <ele>34.040931</ele>
        <time>2020-08-30T14:56:34.055Z</time>
      </trkpt>
      <trkpt lat="59.45604" lon="18.16993">
        <ele>34.972754</ele>
        <time>2020-08-30T14:56:43.718Z</time>
      </trkpt>
      <trkpt lat="59.45613" lon="18.16925">
        <ele>36.250335</ele>
        <time>2020-08-30T14:56:54.993Z</time>
      </trkpt>
      <trkpt lat="59.45633" lon="18.1673">
        <ele>40.040831</ele>
        <time>2020-08-30T14:57:26.979Z</time>
      </trkpt>
      <trkpt lat="59.4564" lon="18.16553">
        <ele>42.462951</ele>
        <time>2020-08-30T14:57:51.371Z</time>
      </trkpt>
      <trkpt lat="59.45634" lon="18.16318">
        <ele>43.888551</ele>
        <time>2020-08-30T14:58:16.625Z</time>
      </trkpt>
      <trkpt lat="59.45626" lon="18.16202">
        <ele>43.501728</ele>
        <time>2020-08-30T14:58:26.736Z</time>
      </trkpt>
      <trkpt lat="59.456" lon="18.15996">
        <ele>41.580265</ele>
        <time>2020-08-30T14:58:42.455Z</time>
      </trkpt>
      <trkpt lat="59.45539" lon="18.15666">
        <ele>35.052929</ele>
        <time>2020-08-30T14:59:04.884Z</time>
      </trkpt>
      <trkpt lat="59.45516" lon="18.15537">
        <ele>32.059848</ele>
        <time>2020-08-30T14:59:13.385Z</time>
      </trkpt>
      <trkpt lat="59.45507" lon="18.15482">
        <ele>30.722978</ele>
        <time>2020-08-30T14:59:16.975Z</time>
      </trkpt>
      <trkpt lat="59.4549" lon="18.15351">
        <ele>27.567813</ele>
        <time>2020-08-30T14:59:25.398Z</time>
      </trkpt>
      <trkpt lat="59.45481" lon="18.15278">
        <ele>25.829886</ele>
        <time>2020-08-30T14:59:30.068Z</time>
      </trkpt>
      <trkpt lat="59.45474" lon="18.15211">
        <ele>24.56221</ele>
        <time>2020-08-30T14:59:34.478Z</time>
      </trkpt>
      <trkpt lat="59.45468" lon="18.1512">
        <ele>23.051321</ele>
        <time>2020-08-30T14:59:40.557Z</time>
      </trkpt>
      <trkpt lat="59.4546" lon="18.14999">
        <ele>21.033841</ele>
        <time>2020-08-30T14:59:48.675Z</time>
      </trkpt>
      <trkpt lat="59.45455" lon="18.14848">
        <ele>18.813642</ele>
        <time>2020-08-30T14:59:58.945Z</time>
      </trkpt>
      <trkpt lat="59.45457" lon="18.14578">
        <ele>15.642876</ele>
        <time>2020-08-30T15:00:18.193Z</time>
      </trkpt>
      <trkpt lat="59.45477" lon="18.14251">
        <ele>11.78423</ele>
        <time>2020-08-30T15:00:41.182Z</time>
      </trkpt>
      <trkpt lat="59.45505" lon="18.13996">
        <ele>9.784193</ele>
        <time>2020-08-30T15:00:59.888Z</time>
      </trkpt>
      <trkpt lat="59.45519" lon="18.13908">
        <ele>9.170807</ele>
        <time>2020-08-30T15:01:07.257Z</time>
      </trkpt>
      <trkpt lat="59.45534" lon="18.13846">
        <ele>9.045696</ele>
        <time>2020-08-30T15:01:13.527Z</time>
      </trkpt>
      <trkpt lat="59.45541" lon="18.13819">
        <ele>9.388931</ele>
        <time>2020-08-30T15:01:16.656Z</time>
      </trkpt>
      <trkpt lat="59.45551" lon="18.13778">
        <ele>9.922537</ele>
        <time>2020-08-30T15:01:21.385Z</time>
      </trkpt>
      <trkpt lat="59.45562" lon="18.13733">
        <ele>10.492119</ele>
        <time>2020-08-30T15:01:27.359Z</time>
      </trkpt>
      <trkpt lat="59.45566" lon="18.13723">
        <ele>10.651359</ele>
        <time>2020-08-30T15:01:28.969Z</time>
      </trkpt>
      <trkpt lat="59.45569" lon="18.13722">
        <ele>10.710955</ele>
        <time>2020-08-30T15:01:29.613Z</time>
      </trkpt>
      <trkpt lat="59.45573" lon="18.1372">
        <ele>10.807808</ele>
        <time>2020-08-30T15:01:30.678Z</time>
      </trkpt>
      <trkpt lat="59.45578" lon="18.13709">
        <ele>10.975361</ele>
        <time>2020-08-30T15:01:32.761Z</time>
      </trkpt>
      <trkpt lat="59.45581" lon="18.13673">
        <ele>11.399065</ele>
        <time>2020-08-30T15:01:37.643Z</time>
      </trkpt>
      <trkpt lat="59.45588" lon="18.13645">
        <ele>11.75924</ele>
        <time>2020-08-30T15:01:42.563Z</time>
      </trkpt>
      <trkpt lat="59.45617" lon="18.13556">
        <ele>13.023573</ele>
        <time>2020-08-30T15:01:58.222Z</time>
      </trkpt>
      <trkpt lat="59.45636" lon="18.13502">
        <ele>14.25739</ele>
        <time>2020-08-30T15:02:08.534Z</time>
      </trkpt>
      <trkpt lat="59.4566" lon="18.13448">
        <ele>15.623388</ele>
        <time>2020-08-30T15:02:20.111Z</time>
      </trkpt>
      <trkpt lat="59.45665" lon="18.13437">
        <ele>15.888977</ele>
        <time>2020-08-30T15:02:22.973Z</time>
      </trkpt>
      <trkpt lat="59.45676" lon="18.13413">
        <ele>16.507822</ele>
        <time>2020-08-30T15:02:27.941Z</time>
      </trkpt>
      <trkpt lat="59.45767" lon="18.13265">
        <ele>20.072912</ele>
        <time>2020-08-30T15:03:01.633Z</time>
      </trkpt>
      <trkpt lat="59.4582" lon="18.13211">
        <ele>20.854198</ele>
        <time>2020-08-30T15:03:16.211Z</time>
      </trkpt>
      <trkpt lat="59.45976" lon="18.13129">
        <ele>22.170443</ele>
        <time>2020-08-30T15:03:44.455Z</time>
      </trkpt>
      <trkpt lat="59.46" lon="18.13114">
        <ele>22.229559</ele>
        <time>2020-08-30T15:03:49.156Z</time>
      </trkpt>
      <trkpt lat="59.46003" lon="18.13122">
        <ele>22.241116</ele>
        <time>2020-08-30T15:03:49.817Z</time>
      </trkpt>
      <trkpt lat="59.46022" lon="18.13109">
        <ele>22.286716</ele>
        <time>2020-08-30T15:03:54.335Z</time>
      </trkpt>
      <trkpt lat="59.46031" lon="18.13115">
        <ele>22.309338</ele>
        <time>2020-08-30T15:03:56.365Z</time>
      </trkpt>
      <trkpt lat="59.46053" lon="18.13109">
        <ele>22.360665</ele>
        <time>2020-08-30T15:04:01.200Z</time>
      </trkpt>
      <trkpt lat="59.46065" lon="18.13101">
        <ele>22.389838</ele>
        <time>2020-08-30T15:04:04.247Z</time>
      </trkpt>
      <trkpt lat="59.46069" lon="18.13082">
        <ele>22.41509</ele>
        <time>2020-08-30T15:04:05.795Z</time>
      </trkpt>
      <trkpt lat="59.46061" lon="18.13061">
        <ele>22.466989</ele>
        <time>2020-08-30T15:04:09.140Z</time>
      </trkpt>
      <trkpt lat="59.46051" lon="18.13014">
        <ele>22.567482</ele>
        <time>2020-08-30T15:04:13.845Z</time>
      </trkpt>
      <trkpt lat="59.46041" lon="18.12969">
        <ele>22.662447</ele>
        <time>2020-08-30T15:04:19.604Z</time>
      </trkpt>
      <trkpt lat="59.4603" lon="18.12947">
        <ele>22.724546</ele>
        <time>2020-08-30T15:04:22.100Z</time>
      </trkpt>
      <trkpt lat="59.4602" lon="18.1294">
        <ele>22.764651</ele>
        <time>2020-08-30T15:04:24.827Z</time>
      </trkpt>
      <trkpt lat="59.45999" lon="18.12942">
        <ele>22.847573</ele>
        <time>2020-08-30T15:04:28.714Z</time>
      </trkpt>
      <trkpt lat="59.45974" lon="18.12949">
        <ele>22.941825</ele>
        <time>2020-08-30T15:04:33.968Z</time>
      </trkpt>
      <trkpt lat="59.45965" lon="18.12953">
        <ele>22.977012</ele>
        <time>2020-08-30T15:04:35.228Z</time>
      </trkpt>
      <trkpt lat="59.45953" lon="18.12955">
        <ele>23.02395</ele>
        <time>2020-08-30T15:04:38.157Z</time>
      </trkpt>
      <trkpt lat="59.45925" lon="18.12938">
        <ele>23.082029</ele>
        <time>2020-08-30T15:04:43.806Z</time>
      </trkpt>
      <trkpt lat="59.4588" lon="18.12939">
        <ele>22.966217</ele>
        <time>2020-08-30T15:04:52.694Z</time>
      </trkpt>
      <trkpt lat="59.45865" lon="18.1294">
        <ele>22.925565</ele>
        <time>2020-08-30T15:04:55.248Z</time>
      </trkpt>
      <trkpt lat="59.4584" lon="18.12961">
        <ele>22.856574</ele>
        <time>2020-08-30T15:04:59.730Z</time>
      </trkpt>
      <trkpt lat="59.45833" lon="18.12975">
        <ele>22.829101</ele>
        <time>2020-08-30T15:05:01.147Z</time>
      </trkpt>
      <trkpt lat="59.45829" lon="18.12962">
        <ele>22.809816</ele>
        <time>2020-08-30T15:05:02.228Z</time>
      </trkpt>
      <trkpt lat="59.45821" lon="18.12955">
        <ele>22.787574</ele>
        <time>2020-08-30T15:05:03.554Z</time>
      </trkpt>
      <trkpt lat="59.45792" lon="18.1296">
        <ele>22.71283</ele>
        <time>2020-08-30T15:05:08.228Z</time>
      </trkpt>
      <trkpt lat="59.45658" lon="18.12972">
        <ele>24.795892</ele>
        <time>2020-08-30T15:05:38.682Z</time>
      </trkpt>
      <trkpt lat="59.45651" lon="18.12972">
        <ele>24.924705</ele>
        <time>2020-08-30T15:05:41.054Z</time>
      </trkpt>
      <trkpt lat="59.45649" lon="18.12967">
        <ele>24.994013</ele>
        <time>2020-08-30T15:05:42.652Z</time>
      </trkpt>
      <trkpt lat="59.45623" lon="18.12911">
        <ele>25.780341</ele>
        <time>2020-08-30T15:05:53.038Z</time>
      </trkpt>
      <trkpt lat="59.45612" lon="18.12892">
        <ele>26.080225</ele>
        <time>2020-08-30T15:05:56.385Z</time>
      </trkpt>
      <trkpt lat="59.45603" lon="18.12879">
        <ele>26.311372</ele>
        <time>2020-08-30T15:06:00.076Z</time>
      </trkpt>
      <trkpt lat="59.45592" lon="18.12861">
        <ele>26.663386</ele>
        <time>2020-08-30T15:06:04.458Z</time>
      </trkpt>
      <trkpt lat="59.45573" lon="18.12859">
        <ele>27.153421</ele>
        <time>2020-08-30T15:06:10.172Z</time>
      </trkpt>
      <trkpt lat="59.45562" lon="18.1287">
        <ele>27.454934</ele>
        <time>2020-08-30T15:06:14.631Z</time>
      </trkpt>
      <trkpt lat="59.45556" lon="18.12876">
        <ele>27.632119</ele>
        <time>2020-08-30T15:06:16.112Z</time>
      </trkpt>
      <trkpt lat="59.45522" lon="18.12948">
        <ele>28.882175</ele>
        <time>2020-08-30T15:06:31.700Z</time>
      </trkpt>
      <trkpt lat="59.45511" lon="18.12965">
        <ele>29.235277</ele>
        <time>2020-08-30T15:06:35.758Z</time>
      </trkpt>
      <trkpt lat="59.45454" lon="18.12962">
        <ele>30.659946</ele>
        <time>2020-08-30T15:06:49.980Z</time>
      </trkpt>
      <trkpt lat="59.4538" lon="18.12975">
        <ele>29.069655</ele>
        <time>2020-08-30T15:07:01.497Z</time>
      </trkpt>
      <trkpt lat="59.45358" lon="18.12927">
        <ele>28.222146</ele>
        <time>2020-08-30T15:07:06.058Z</time>
      </trkpt>
      <trkpt lat="59.45345" lon="18.12884">
        <ele>27.565348</ele>
        <time>2020-08-30T15:07:09.559Z</time>
      </trkpt>
      <trkpt lat="59.45336" lon="18.12859">
        <ele>27.150082</ele>
        <time>2020-08-30T15:07:11.566Z</time>
      </trkpt>
      <trkpt lat="59.45326" lon="18.12854">
        <ele>26.899117</ele>
        <time>2020-08-30T15:07:12.763Z</time>
      </trkpt>
      <trkpt lat="59.45312" lon="18.12848">
        <ele>26.516232</ele>
        <time>2020-08-30T15:07:15.024Z</time>
      </trkpt>
      <trkpt lat="59.45306" lon="18.12837">
        <ele>26.294773</ele>
        <time>2020-08-30T15:07:16.040Z</time>
      </trkpt>
      <trkpt lat="59.453" lon="18.12825">
        <ele>26.073306</ele>
        <time>2020-08-30T15:07:17.021Z</time>
      </trkpt>
      <trkpt lat="59.45285" lon="18.12805">
        <ele>25.579783</ele>
        <time>2020-08-30T15:07:19.643Z</time>
      </trkpt>
      <trkpt lat="59.4528" lon="18.12802">
        <ele>25.430979</ele>
        <time>2020-08-30T15:07:20.283Z</time>
      </trkpt>
      <trkpt lat="59.45283" lon="18.12777">
        <ele>25.071169</ele>
        <time>2020-08-30T15:07:21.807Z</time>
      </trkpt>
      <trkpt lat="59.45287" lon="18.12727">
        <ele>24.356066</ele>
        <time>2020-08-30T15:07:25.182Z</time>
      </trkpt>
      <trkpt lat="59.45218" lon="18.12523">
        <ele>21.639301</ele>
        <time>2020-08-30T15:07:42.871Z</time>
      </trkpt>
      <trkpt lat="59.45205" lon="18.12491">
        <ele>22.586681</ele>
        <time>2020-08-30T15:07:49.305Z</time>
      </trkpt>
      <trkpt lat="59.45196" lon="18.12477">
        <ele>23.110572</ele>
        <time>2020-08-30T15:07:53.550Z</time>
      </trkpt>
      <trkpt lat="59.45187" lon="18.12469">
        <ele>23.575268</ele>
        <time>2020-08-30T15:07:56.773Z</time>
      </trkpt>
      <trkpt lat="59.45159" lon="18.12468">
        <ele>24.874758</ele>
        <time>2020-08-30T15:08:06.768Z</time>
      </trkpt>
      <trkpt lat="59.45142" lon="18.12458">
        <ele>25.694498</ele>
        <time>2020-08-30T15:08:12.912Z</time>
      </trkpt>
      <trkpt lat="59.45104" lon="18.12437">
        <ele>27.479062</ele>
        <time>2020-08-30T15:08:27.473Z</time>
      </trkpt>
      <trkpt lat="59.45075" lon="18.1242">
        <ele>28.870829</ele>
        <time>2020-08-30T15:08:40.215Z</time>
      </trkpt>
      <trkpt lat="59.45078" lon="18.124">
        <ele>29.349459</ele>
        <time>2020-08-30T15:08:44.587Z</time>
      </trkpt>
      <trkpt lat="59.45089" lon="18.12322">
        <ele>31.444216</ele>
        <time>2020-08-30T15:09:02.499Z</time>
      </trkpt>
      <trkpt lat="59.45092" lon="18.12191">
        <ele>34.849801</ele>
        <time>2020-08-30T15:09:28.665Z</time>
      </trkpt>
      <trkpt lat="59.45089" lon="18.12184">
        <ele>35.08417</ele>
        <time>2020-08-30T15:09:30.778Z</time>
      </trkpt>
      <trkpt lat="59.45092" lon="18.1217">
        <ele>35.460244</ele>
        <time>2020-08-30T15:09:33.529Z</time>
      </trkpt>
      <trkpt lat="59.45091" lon="18.11977">
        <ele>38.426453</ele>
        <time>2020-08-30T15:10:04.145Z</time>
      </trkpt>
      <trkpt lat="59.45085" lon="18.11961">
        <ele>38.365585</ele>
        <time>2020-08-30T15:10:06.891Z</time>
      </trkpt>
      <trkpt lat="59.45069" lon="18.11946">
        <ele>38.25981</ele>
        <time>2020-08-30T15:10:11.102Z</time>
      </trkpt>
      <trkpt lat="59.45063" lon="18.11946">
        <ele>38.223219</ele>
        <time>2020-08-30T15:10:12.658Z</time>
      </trkpt>
      <trkpt lat="59.45033" lon="18.11946">
        <ele>38.047463</ele>
        <time>2020-08-30T15:10:19.484Z</time>
      </trkpt>
      <trkpt lat="59.44996" lon="18.11942">
        <ele>37.824532</ele>
        <time>2020-08-30T15:10:26.991Z</time>
      </trkpt>
      <trkpt lat="59.44989" lon="18.11938">
        <ele>37.780839</ele>
        <time>2020-08-30T15:10:28.412Z</time>
      </trkpt>
      <trkpt lat="59.44978" lon="18.11931">
        <ele>37.708636</ele>
        <time>2020-08-30T15:10:30.545Z</time>
      </trkpt>
      <trkpt lat="59.44965" lon="18.11932">
        <ele>37.631102</ele>
        <time>2020-08-30T15:10:32.260Z</time>
      </trkpt>
      <trkpt lat="59.44927" lon="18.11947">
        <ele>36.17161</ele>
        <time>2020-08-30T15:10:37.139Z</time>
      </trkpt>
      <trkpt lat="59.44846" lon="18.11977">
        <ele>31.906203</ele>
        <time>2020-08-30T15:10:46.977Z</time>
      </trkpt>
      <trkpt lat="59.44828" lon="18.11982">
        <ele>30.988301</ele>
        <time>2020-08-30T15:10:49.036Z</time>
      </trkpt>
      <trkpt lat="59.44795" lon="18.12003">
        <ele>29.197621</ele>
        <time>2020-08-30T15:10:53.134Z</time>
      </trkpt>
      <trkpt lat="59.44786" lon="18.12008">
        <ele>28.740311</ele>
        <time>2020-08-30T15:10:54.161Z</time>
      </trkpt>
      <trkpt lat="59.44738" lon="18.12016">
        <ele>27.106561</ele>
        <time>2020-08-30T15:11:00.116Z</time>
      </trkpt>
      <trkpt lat="59.44718" lon="18.12015">
        <ele>26.527808</ele>
        <time>2020-08-30T15:11:02.490Z</time>
      </trkpt>
      <trkpt lat="59.44717" lon="18.12001">
        <ele>26.314623</ele>
        <time>2020-08-30T15:11:03.421Z</time>
      </trkpt>
      <trkpt lat="59.44706" lon="18.11986">
        <ele>25.929271</ele>
        <time>2020-08-30T15:11:05.107Z</time>
      </trkpt>
      <trkpt lat="59.44698" lon="18.11959">
        <ele>25.457443</ele>
        <time>2020-08-30T15:11:07.089Z</time>
      </trkpt>
      <trkpt lat="59.44666" lon="18.11891">
        <ele>24.063006</ele>
        <time>2020-08-30T15:11:13.738Z</time>
      </trkpt>
      <trkpt lat="59.44621" lon="18.11821">
        <ele>23.127576</ele>
        <time>2020-08-30T15:11:23.267Z</time>
      </trkpt>
      <trkpt lat="59.44608" lon="18.11769">
        <ele>23.35017</ele>
        <time>2020-08-30T15:11:29.291Z</time>
      </trkpt>
      <trkpt lat="59.44607" lon="18.11732">
        <ele>23.493444</ele>
        <time>2020-08-30T15:11:33.143Z</time>
      </trkpt>
      <trkpt lat="59.44607" lon="18.11723">
        <ele>23.528091</ele>
        <time>2020-08-30T15:11:34.361Z</time>
      </trkpt>
      <trkpt lat="59.44606" lon="18.11715">
        <ele>23.559799</ele>
        <time>2020-08-30T15:11:35.176Z</time>
      </trkpt>
      <trkpt lat="59.44602" lon="18.11671">
        <ele>23.731871</ele>
        <time>2020-08-30T15:11:40.140Z</time>
      </trkpt>
      <trkpt lat="59.44598" lon="18.11629">
        <ele>23.898148</ele>
        <time>2020-08-30T15:11:45.009Z</time>
      </trkpt>
      <trkpt lat="59.44594" lon="18.11614">
        <ele>23.960443</ele>
        <time>2020-08-30T15:11:46.909Z</time>
      </trkpt>
      <trkpt lat="59.4459" lon="18.115">
        <ele>24.37888</ele>
        <time>2020-08-30T15:11:59.421Z</time>
      </trkpt>
      <trkpt lat="59.44592" lon="18.11445">
        <ele>24.518065</ele>
        <time>2020-08-30T15:12:05.523Z</time>
      </trkpt>
      <trkpt lat="59.44596" lon="18.11439">
        <ele>24.541098</ele>
        <time>2020-08-30T15:12:06.392Z</time>
      </trkpt>
      <trkpt lat="59.44597" lon="18.11426">
        <ele>24.572395</ele>
        <time>2020-08-30T15:12:07.739Z</time>
      </trkpt>
      <trkpt lat="59.44597" lon="18.11413">
        <ele>24.605936</ele>
        <time>2020-08-30T15:12:09.286Z</time>
      </trkpt>
      <trkpt lat="59.44593" lon="18.11389">
        <ele>24.66866</ele>
        <time>2020-08-30T15:12:11.728Z</time>
      </trkpt>
      <trkpt lat="59.44579" lon="18.11269">
        <ele>24.976745</ele>
        <time>2020-08-30T15:12:23.948Z</time>
      </trkpt>
      <trkpt lat="59.44574" lon="18.11248">
        <ele>25.033272</ele>
        <time>2020-08-30T15:12:25.985Z</time>
      </trkpt>
      <trkpt lat="59.44554" lon="18.112">
        <ele>25.189737</ele>
        <time>2020-08-30T15:12:31.849Z</time>
      </trkpt>
      <trkpt lat="59.44551" lon="18.1118">
        <ele>25.150673</ele>
        <time>2020-08-30T15:12:33.667Z</time>
      </trkpt>
      <trkpt lat="59.44552" lon="18.11161">
        <ele>25.006751</ele>
        <time>2020-08-30T15:12:35.560Z</time>
      </trkpt>
      <trkpt lat="59.44558" lon="18.11132">
        <ele>24.774023</ele>
        <time>2020-08-30T15:12:38.469Z</time>
      </trkpt>
      <trkpt lat="59.44586" lon="18.10883">
        <ele>22.879144</ele>
        <time>2020-08-30T15:12:57.413Z</time>
      </trkpt>
      <trkpt lat="59.44587" lon="18.10847">
        <ele>22.613282</ele>
        <time>2020-08-30T15:13:00.112Z</time>
      </trkpt>
      <trkpt lat="59.44586" lon="18.1084">
        <ele>22.526076</ele>
        <time>2020-08-30T15:13:00.504Z</time>
      </trkpt>
      <trkpt lat="59.44547" lon="18.10573">
        <ele>18.209795</ele>
        <time>2020-08-30T15:13:19.131Z</time>
      </trkpt>
      <trkpt lat="59.44547" lon="18.10563">
        <ele>18.055058</ele>
        <time>2020-08-30T15:13:19.680Z</time>
      </trkpt>
      <trkpt lat="59.44538" lon="18.10495">
        <ele>16.980949</ele>
        <time>2020-08-30T15:13:24.375Z</time>
      </trkpt>
      <trkpt lat="59.44531" lon="18.10499">
        <ele>16.768393</ele>
        <time>2020-08-30T15:13:25.561Z</time>
      </trkpt>
      <trkpt lat="59.44523" lon="18.10506">
        <ele>16.547572</ele>
        <time>2020-08-30T15:13:26.898Z</time>
      </trkpt>
      <trkpt lat="59.44514" lon="18.10548">
        <ele>15.93439</ele>
        <time>2020-08-30T15:13:29.945Z</time>
      </trkpt>
      <trkpt lat="59.44506" lon="18.10561">
        <ele>15.659582</ele>
        <time>2020-08-30T15:13:31.533Z</time>
      </trkpt>
      <trkpt lat="59.44498" lon="18.10566">
        <ele>15.433532</ele>
        <time>2020-08-30T15:13:32.698Z</time>
      </trkpt>
      <trkpt lat="59.44474" lon="18.10573">
        <ele>14.791438</ele>
        <time>2020-08-30T15:13:36.034Z</time>
      </trkpt>
      <trkpt lat="59.44464" lon="18.10573">
        <ele>14.523264</ele>
        <time>2020-08-30T15:13:37.440Z</time>
      </trkpt>
      <trkpt lat="59.44434" lon="18.10547">
        <ele>13.64244</ele>
        <time>2020-08-30T15:13:42.072Z</time>
      </trkpt>
      <trkpt lat="59.44431" lon="18.10539">
        <ele>13.503016</ele>
        <time>2020-08-30T15:13:42.726Z</time>
      </trkpt>
      <trkpt lat="59.44308" lon="18.10559">
        <ele>11.993871</ele>
        <time>2020-08-30T15:14:01.655Z</time>
      </trkpt>
      <trkpt lat="59.44262" lon="18.10575">
        <ele>11.802418</ele>
        <time>2020-08-30T15:14:09.526Z</time>
      </trkpt>
      <trkpt lat="59.44114" lon="18.10627">
        <ele>12.605057</ele>
        <time>2020-08-30T15:14:44.471Z</time>
      </trkpt>
      <trkpt lat="59.44085" lon="18.10633">
        <ele>12.918302</ele>
        <time>2020-08-30T15:14:51.897Z</time>
      </trkpt>
      <trkpt lat="59.44067" lon="18.10637">
        <ele>13.116274</ele>
        <time>2020-08-30T15:14:55.600Z</time>
      </trkpt>
      <trkpt lat="59.43985" lon="18.10612">
        <ele>13.03087</ele>
        <time>2020-08-30T15:15:11.294Z</time>
      </trkpt>
      <trkpt lat="59.43934" lon="18.10611">
        <ele>12.492358</ele>
        <time>2020-08-30T15:15:19.652Z</time>
      </trkpt>
      <trkpt lat="59.43927" lon="18.1062">
        <ele>12.405081</ele>
        <time>2020-08-30T15:15:20.716Z</time>
      </trkpt>
      <trkpt lat="59.43925" lon="18.10624">
        <ele>12.373913</ele>
        <time>2020-08-30T15:15:21.199Z</time>
      </trkpt>
      <trkpt lat="59.43917" lon="18.10642">
        <ele>12.240222</ele>
        <time>2020-08-30T15:15:23.313Z</time>
      </trkpt>
      <trkpt lat="59.43907" lon="18.1063">
        <ele>12.119781</ele>
        <time>2020-08-30T15:15:25.035Z</time>
      </trkpt>
      <trkpt lat="59.43905" lon="18.10618">
        <ele>12.053464</ele>
        <time>2020-08-30T15:15:25.835Z</time>
      </trkpt>
      <trkpt lat="59.43899" lon="18.10578">
        <ele>11.830018</ele>
        <time>2020-08-30T15:15:29.228Z</time>
      </trkpt>
      <trkpt lat="59.43876" lon="18.10531">
        <ele>11.600338</ele>
        <time>2020-08-30T15:15:34.247Z</time>
      </trkpt>
      <trkpt lat="59.43824" lon="18.10479">
        <ele>11.533083</ele>
        <time>2020-08-30T15:15:42.771Z</time>
      </trkpt>
      <trkpt lat="59.43815" lon="18.10462">
        <ele>11.518337</ele>
        <time>2020-08-30T15:15:44.963Z</time>
      </trkpt>
      <trkpt lat="59.43787" lon="18.10427">
        <ele>11.479927</ele>
        <time>2020-08-30T15:15:50.240Z</time>
      </trkpt>
      <trkpt lat="59.4377" lon="18.10393">
        <ele>11.451551</ele>
        <time>2020-08-30T15:15:55.268Z</time>
      </trkpt>
      <trkpt lat="59.43711" lon="18.10216">
        <ele>14.967106</ele>
        <time>2020-08-30T15:16:26.522Z</time>
      </trkpt>
      <trkpt lat="59.43715" lon="18.1021">
        <ele>15.240831</ele>
        <time>2020-08-30T15:16:28.315Z</time>
      </trkpt>
      <trkpt lat="59.43719" lon="18.10203">
        <ele>15.499221</ele>
        <time>2020-08-30T15:16:30.113Z</time>
      </trkpt>
      <trkpt lat="59.43714" lon="18.10187">
        <ele>15.983409</ele>
        <time>2020-08-30T15:16:33.208Z</time>
      </trkpt>
      <trkpt lat="59.43678" lon="18.10077">
        <ele>19.412922</ele>
        <time>2020-08-30T15:16:59.785Z</time>
      </trkpt>
      <trkpt lat="59.43655" lon="18.10019">
        <ele>21.412134</ele>
        <time>2020-08-30T15:17:15.522Z</time>
      </trkpt>
      <trkpt lat="59.43639" lon="18.09996">
        <ele>22.522885</ele>
        <time>2020-08-30T15:17:23.791Z</time>
      </trkpt>
      <trkpt lat="59.43621" lon="18.09977">
        <ele>23.717569</ele>
        <time>2020-08-30T15:17:32.646Z</time>
      </trkpt>
      <trkpt lat="59.43598" lon="18.09968">
        <ele>25.058994</ele>
        <time>2020-08-30T15:17:42.501Z</time>
      </trkpt>
      <trkpt lat="59.43577" lon="18.09964">
        <ele>26.271892</ele>
        <time>2020-08-30T15:17:51.288Z</time>
      </trkpt>
      <trkpt lat="59.43559" lon="18.09958">
        <ele>27.288599</ele>
        <time>2020-08-30T15:17:57.700Z</time>
      </trkpt>
      <trkpt lat="59.43541" lon="18.09951">
        <ele>28.355503</ele>
        <time>2020-08-30T15:18:04.358Z</time>
      </trkpt>
      <trkpt lat="59.43489" lon="18.09857">
        <ele>31.017612</ele>
        <time>2020-08-30T15:18:25.045Z</time>
      </trkpt>
      <trkpt lat="59.4347" lon="18.0984">
        <ele>31.085121</ele>
        <time>2020-08-30T15:18:30.403Z</time>
      </trkpt>
      <trkpt lat="59.43448" lon="18.09829">
        <ele>31.157013</ele>
        <time>2020-08-30T15:18:35.704Z</time>
      </trkpt>
      <trkpt lat="59.43407" lon="18.09841">
        <ele>31.290902</ele>
        <time>2020-08-30T15:18:43.079Z</time>
      </trkpt>
      <trkpt lat="59.43397" lon="18.09849">
        <ele>31.32741</ele>
        <time>2020-08-30T15:18:45.019Z</time>
      </trkpt>
      <trkpt lat="59.43384" lon="18.09854">
        <ele>31.369268</ele>
        <time>2020-08-30T15:18:47.067Z</time>
      </trkpt>
      <trkpt lat="59.43341" lon="18.09856">
        <ele>31.507055</ele>
        <time>2020-08-30T15:18:53.454Z</time>
      </trkpt>
      <trkpt lat="59.43314" lon="18.09847">
        <ele>30.756718</ele>
        <time>2020-08-30T15:18:57.525Z</time>
      </trkpt>
      <trkpt lat="59.43284" lon="18.0983">
        <ele>29.849549</ele>
        <time>2020-08-30T15:19:01.808Z</time>
      </trkpt>
      <trkpt lat="59.43241" lon="18.09801">
        <ele>28.478263</ele>
        <time>2020-08-30T15:19:08.206Z</time>
      </trkpt>
      <trkpt lat="59.43232" lon="18.09799">
        <ele>28.219149</ele>
        <time>2020-08-30T15:19:09.298Z</time>
      </trkpt>
      <trkpt lat="59.43127" lon="18.09795">
        <ele>25.314858</ele>
        <time>2020-08-30T15:19:23.447Z</time>
      </trkpt>
      <trkpt lat="59.43095" lon="18.09763">
        <ele>24.490328</ele>
        <time>2020-08-30T15:19:28.375Z</time>
      </trkpt>
      <trkpt lat="59.43085" lon="18.09741">
        <ele>24.136441</ele>
        <time>2020-08-30T15:19:30.576Z</time>
      </trkpt>
      <trkpt lat="59.43083" lon="18.09708">
        <ele>23.745644</ele>
        <time>2020-08-30T15:19:33.251Z</time>
      </trkpt>
      <trkpt lat="59.43086" lon="18.097">
        <ele>23.637369</ele>
        <time>2020-08-30T15:19:33.826Z</time>
      </trkpt>
      <trkpt lat="59.43082" lon="18.09696">
        <ele>23.538978</ele>
        <time>2020-08-30T15:19:34.510Z</time>
      </trkpt>
      <trkpt lat="59.43077" lon="18.09689">
        <ele>23.402385</ele>
        <time>2020-08-30T15:19:35.465Z</time>
      </trkpt>
      <trkpt lat="59.43074" lon="18.09684">
        <ele>23.302848</ele>
        <time>2020-08-30T15:19:36.158Z</time>
      </trkpt>
      <trkpt lat="59.43072" lon="18.09687">
        <ele>23.238744</ele>
        <time>2020-08-30T15:19:36.623Z</time>
      </trkpt>
      <trkpt lat="59.43056" lon="18.09696">
        <ele>22.855989</ele>
        <time>2020-08-30T15:19:39.207Z</time>
      </trkpt>
      <trkpt lat="59.43037" lon="18.09671">
        <ele>22.343673</ele>
        <time>2020-08-30T15:19:42.713Z</time>
      </trkpt>
      <trkpt lat="59.43003" lon="18.09615">
        <ele>21.548188</ele>
        <time>2020-08-30T15:19:49.749Z</time>
      </trkpt>
      <trkpt lat="59.42937" lon="18.09508">
        <ele>20.262001</ele>
        <time>2020-08-30T15:20:03.208Z</time>
      </trkpt>
      <trkpt lat="59.42826" lon="18.0932">
        <ele>17.535315</ele>
        <time>2020-08-30T15:20:25.157Z</time>
      </trkpt>
      <trkpt lat="59.42808" lon="18.09283">
        <ele>16.980992</ele>
        <time>2020-08-30T15:20:28.737Z</time>
      </trkpt>
      <trkpt lat="59.42781" lon="18.09199">
        <ele>15.883161</ele>
        <time>2020-08-30T15:20:35.973Z</time>
      </trkpt>
      <trkpt lat="59.42767" lon="18.09128">
        <ele>15.136834</ele>
        <time>2020-08-30T15:20:41.642Z</time>
      </trkpt>
      <trkpt lat="59.42717" lon="18.08898">
        <ele>13.108308</ele>
        <time>2020-08-30T15:21:01.139Z</time>
      </trkpt>
      <trkpt lat="59.42705" lon="18.08806">
        <ele>12.338264</ele>
        <time>2020-08-30T15:21:09.039Z</time>
      </trkpt>
      <trkpt lat="59.42691" lon="18.08573">
        <ele>10.417483</ele>
        <time>2020-08-30T15:21:27.419Z</time>
      </trkpt>
      <trkpt lat="59.4269" lon="18.08514">
        <ele>9.938195</ele>
        <time>2020-08-30T15:21:31.861Z</time>
      </trkpt>
      <trkpt lat="59.42694" lon="18.0849">
        <ele>9.72598</ele>
        <time>2020-08-30T15:21:33.985Z</time>
      </trkpt>
      <trkpt lat="59.42693" lon="18.08479">
        <ele>9.63154</ele>
        <time>2020-08-30T15:21:34.833Z</time>
      </trkpt>
      <trkpt lat="59.42691" lon="18.08471">
        <ele>9.571048</ele>
        <time>2020-08-30T15:21:35.377Z</time>
      </trkpt>
      <trkpt lat="59.42685" lon="18.08468">
        <ele>9.479843</ele>
        <time>2020-08-30T15:21:36.394Z</time>
      </trkpt>
      <trkpt lat="59.42656" lon="18.08278">
        <ele>8.051384</ele>
        <time>2020-08-30T15:21:51.442Z</time>
      </trkpt>
      <trkpt lat="59.42654" lon="18.08234">
        <ele>7.732768</ele>
        <time>2020-08-30T15:21:55.071Z</time>
      </trkpt>
      <trkpt lat="59.4263" lon="18.0807">
        <ele>7.737917</ele>
        <time>2020-08-30T15:22:09.493Z</time>
      </trkpt>
      <trkpt lat="59.42623" lon="18.08023">
        <ele>8.122817</ele>
        <time>2020-08-30T15:22:15.025Z</time>
      </trkpt>
      <trkpt lat="59.42596" lon="18.07872">
        <ele>9.368055</ele>
        <time>2020-08-30T15:22:35.461Z</time>
      </trkpt>
      <trkpt lat="59.42589" lon="18.0788">
        <ele>9.500233</ele>
        <time>2020-08-30T15:22:37.806Z</time>
      </trkpt>
      <trkpt lat="59.42585" lon="18.07873">
        <ele>9.576282</ele>
        <time>2020-08-30T15:22:39.161Z</time>
      </trkpt>
      <trkpt lat="59.42554" lon="18.07811">
        <ele>11.059284</ele>
        <time>2020-08-30T15:22:52.287Z</time>
      </trkpt>
      <trkpt lat="59.42533" lon="18.07785">
        <ele>12.221628</ele>
        <time>2020-08-30T15:23:00.022Z</time>
      </trkpt>
      <trkpt lat="59.42511" lon="18.0778">
        <ele>13.207636</ele>
        <time>2020-08-30T15:23:07.731Z</time>
      </trkpt>
      <trkpt lat="59.42466" lon="18.07791">
        <ele>15.292648</ele>
        <time>2020-08-30T15:23:23.384Z</time>
      </trkpt>
      <trkpt lat="59.4244" lon="18.07783">
        <ele>16.503948</ele>
        <time>2020-08-30T15:23:32.582Z</time>
      </trkpt>
      <trkpt lat="59.42427" lon="18.07767">
        <ele>17.186272</ele>
        <time>2020-08-30T15:23:37.820Z</time>
      </trkpt>
      <trkpt lat="59.42399" lon="18.07708">
        <ele>18.796889</ele>
        <time>2020-08-30T15:23:51.130Z</time>
      </trkpt>
      <trkpt lat="59.42385" lon="18.07677">
        <ele>19.478966</ele>
        <time>2020-08-30T15:23:58.137Z</time>
      </trkpt>
      <trkpt lat="59.42363" lon="18.07629">
        <ele>20.588043</ele>
        <time>2020-08-30T15:24:08.422Z</time>
      </trkpt>
      <trkpt lat="59.42358" lon="18.07635">
        <ele>20.790555</ele>
        <time>2020-08-30T15:24:10.548Z</time>
      </trkpt>
      <trkpt lat="59.42306" lon="18.07622">
        <ele>22.504779</ele>
        <time>2020-08-30T15:24:25.571Z</time>
      </trkpt>
      <trkpt lat="59.42283" lon="18.07618">
        <ele>23.257528</ele>
        <time>2020-08-30T15:24:32.108Z</time>
      </trkpt>
      <trkpt lat="59.42272" lon="18.07623">
        <ele>23.642789</ele>
        <time>2020-08-30T15:24:34.814Z</time>
      </trkpt>
      <trkpt lat="59.42251" lon="18.07674">
        <ele>23.925178</ele>
        <time>2020-08-30T15:24:46.200Z</time>
      </trkpt>
      <trkpt lat="59.42226" lon="18.07762">
        <ele>23.71027</ele>
        <time>2020-08-30T15:25:00.069Z</time>
      </trkpt>
      <trkpt lat="59.4221" lon="18.07799">
        <ele>23.607049</ele>
        <time>2020-08-30T15:25:07.062Z</time>
      </trkpt>
      <trkpt lat="59.42195" lon="18.07846">
        <ele>23.490148</ele>
        <time>2020-08-30T15:25:14.486Z</time>
      </trkpt>
      <trkpt lat="59.42176" lon="18.0789">
        <ele>23.366704</ele>
        <time>2020-08-30T15:25:22.297Z</time>
      </trkpt>
      <trkpt lat="59.42161" lon="18.07912">
        <ele>23.287662</ele>
        <time>2020-08-30T15:25:27.708Z</time>
      </trkpt>
      <trkpt lat="59.42154" lon="18.0792">
        <ele>23.238545</ele>
        <time>2020-08-30T15:25:29.515Z</time>
      </trkpt>
      <trkpt lat="59.42127" lon="18.0795">
        <ele>22.888498</ele>
        <time>2020-08-30T15:25:38.161Z</time>
      </trkpt>
      <trkpt lat="59.42099" lon="18.07979">
        <ele>22.5284</ele>
        <time>2020-08-30T15:25:46.751Z</time>
      </trkpt>
      <trkpt lat="59.42069" lon="18.08">
        <ele>22.173001</ele>
        <time>2020-08-30T15:25:54.885Z</time>
      </trkpt>
      <trkpt lat="59.42059" lon="18.0801">
        <ele>22.04543</ele>
        <time>2020-08-30T15:25:57.665Z</time>
      </trkpt>
      <trkpt lat="59.41993" lon="18.08067">
        <ele>21.23325</ele>
        <time>2020-08-30T15:26:17.071Z</time>
      </trkpt>
      <trkpt lat="59.41827" lon="18.08206">
        <ele>20.301358</ele>
        <time>2020-08-30T15:27:08.531Z</time>
      </trkpt>
      <trkpt lat="59.4181" lon="18.08218">
        <ele>20.207908</ele>
        <time>2020-08-30T15:27:13.706Z</time>
      </trkpt>
      <trkpt lat="59.41798" lon="18.08232">
        <ele>20.136878</ele>
        <time>2020-08-30T15:27:17.775Z</time>
      </trkpt>
      <trkpt lat="59.4175" lon="18.08273">
        <ele>19.871575</ele>
        <time>2020-08-30T15:27:26.327Z</time>
      </trkpt>
      <trkpt lat="59.41735" lon="18.08302">
        <ele>19.762712</ele>
        <time>2020-08-30T15:27:29.840Z</time>
      </trkpt>
      <trkpt lat="59.41682" lon="18.0837">
        <ele>19.440741</ele>
        <time>2020-08-30T15:27:40.153Z</time>
      </trkpt>
      <trkpt lat="59.41676" lon="18.08376">
        <ele>19.405146</ele>
        <time>2020-08-30T15:27:41.532Z</time>
      </trkpt>
      <trkpt lat="59.41656" lon="18.08393">
        <ele>19.202307</ele>
        <time>2020-08-30T15:27:44.963Z</time>
      </trkpt>
      <trkpt lat="59.41636" lon="18.0841">
        <ele>18.980431</ele>
        <time>2020-08-30T15:27:48.607Z</time>
      </trkpt>
      <trkpt lat="59.41618" lon="18.08421">
        <ele>18.793168</ele>
        <time>2020-08-30T15:27:51.408Z</time>
      </trkpt>
      <trkpt lat="59.41579" lon="18.08439">
        <ele>18.391909</ele>
        <time>2020-08-30T15:27:57.675Z</time>
      </trkpt>
      <trkpt lat="59.41538" lon="18.08435">
        <ele>17.984321</ele>
        <time>2020-08-30T15:28:03.908Z</time>
      </trkpt>
      <trkpt lat="59.41497" lon="18.08422">
        <ele>17.55772</ele>
        <time>2020-08-30T15:28:10.122Z</time>
      </trkpt>
      <trkpt lat="59.41474" lon="18.08422">
        <ele>17.260051</ele>
        <time>2020-08-30T15:28:13.375Z</time>
      </trkpt>
      <trkpt lat="59.41469" lon="18.08422">
        <ele>17.189784</ele>
        <time>2020-08-30T15:28:14.202Z</time>
      </trkpt>
      <trkpt lat="59.41467" lon="18.08446">
        <ele>17.029535</ele>
        <time>2020-08-30T15:28:16.086Z</time>
      </trkpt>
      <trkpt lat="59.41474" lon="18.08622">
        <ele>15.841906</ele>
        <time>2020-08-30T15:28:29.519Z</time>
      </trkpt>
      <trkpt lat="59.41464" lon="18.08671">
        <ele>15.492425</ele>
        <time>2020-08-30T15:28:33.459Z</time>
      </trkpt>
      <trkpt lat="59.41376" lon="18.08838">
        <ele>14.226562</ele>
        <time>2020-08-30T15:28:51.909Z</time>
      </trkpt>
      <trkpt lat="59.41349" lon="18.08888">
        <ele>13.872247</ele>
        <time>2020-08-30T15:28:57.617Z</time>
      </trkpt>
      <trkpt lat="59.41313" lon="18.08929">
        <ele>13.465652</ele>
        <time>2020-08-30T15:29:04.643Z</time>
      </trkpt>
      <trkpt lat="59.41249" lon="18.0897">
        <ele>14.084587</ele>
        <time>2020-08-30T15:29:16.606Z</time>
      </trkpt>
      <trkpt lat="59.41192" lon="18.08992">
        <ele>14.614433</ele>
        <time>2020-08-30T15:29:29.157Z</time>
      </trkpt>
      <trkpt lat="59.41168" lon="18.09016">
        <ele>14.859692</ele>
        <time>2020-08-30T15:29:35.509Z</time>
      </trkpt>
      <trkpt lat="59.41122" lon="18.09069">
        <ele>15.46113</ele>
        <time>2020-08-30T15:29:48.390Z</time>
      </trkpt>
      <trkpt lat="59.41075" lon="18.09104">
        <ele>16.114118</ele>
        <time>2020-08-30T15:30:01.091Z</time>
      </trkpt>
      <trkpt lat="59.40994" lon="18.09156">
        <ele>17.244886</ele>
        <time>2020-08-30T15:30:19.788Z</time>
      </trkpt>
      <trkpt lat="59.40938" lon="18.09208">
        <ele>16.704977</ele>
        <time>2020-08-30T15:30:30.752Z</time>
      </trkpt>
      <trkpt lat="59.40819" lon="18.0932">
        <ele>14.303856</ele>
        <time>2020-08-30T15:30:48.834Z</time>
      </trkpt>
      <trkpt lat="59.40779" lon="18.0936">
        <ele>13.231973</ele>
        <time>2020-08-30T15:30:54.592Z</time>
      </trkpt>
      <trkpt lat="59.40763" lon="18.09363">
        <ele>12.856518</ele>
        <time>2020-08-30T15:30:56.624Z</time>
      </trkpt>
      <trkpt lat="59.40747" lon="18.09365">
        <ele>12.464416</ele>
        <time>2020-08-30T15:30:58.638Z</time>
      </trkpt>
      <trkpt lat="59.40737" lon="18.09352">
        <ele>12.175824</ele>
        <time>2020-08-30T15:31:00.285Z</time>
      </trkpt>
      <trkpt lat="59.40727" lon="18.09339">
        <ele>11.861963</ele>
        <time>2020-08-30T15:31:01.874Z</time>
      </trkpt>
      <trkpt lat="59.40713" lon="18.09313">
        <ele>11.387303</ele>
        <time>2020-08-30T15:31:04.503Z</time>
      </trkpt>
      <trkpt lat="59.40701" lon="18.0927">
        <ele>10.784835</ele>
        <time>2020-08-30T15:31:07.788Z</time>
      </trkpt>
      <trkpt lat="59.40637" lon="18.09133">
        <ele>10.71205</ele>
        <time>2020-08-30T15:31:23.368Z</time>
      </trkpt>
      <trkpt lat="59.40632" lon="18.09126">
        <ele>10.810218</ele>
        <time>2020-08-30T15:31:24.372Z</time>
      </trkpt>
      <trkpt lat="59.40618" lon="18.09107">
        <ele>11.087717</ele>
        <time>2020-08-30T15:31:28.538Z</time>
      </trkpt>
      <trkpt lat="59.40612" lon="18.09105">
        <ele>11.187414</ele>
        <time>2020-08-30T15:31:30.098Z</time>
      </trkpt>
      <trkpt lat="59.40596" lon="18.09107">
        <ele>11.438891</ele>
        <time>2020-08-30T15:31:34.113Z</time>
      </trkpt>
      <trkpt lat="59.40572" lon="18.09116">
        <ele>11.839407</ele>
        <time>2020-08-30T15:31:40.881Z</time>
      </trkpt>
      <trkpt lat="59.40549" lon="18.09143">
        <ele>12.27328</ele>
        <time>2020-08-30T15:31:48.571Z</time>
      </trkpt>
      <trkpt lat="59.40524" lon="18.09202">
        <ele>12.96932</ele>
        <time>2020-08-30T15:32:00.167Z</time>
      </trkpt>
      <trkpt lat="59.40513" lon="18.09229">
        <ele>13.373885</ele>
        <time>2020-08-30T15:32:05.617Z</time>
      </trkpt>
      <trkpt lat="59.40473" lon="18.09372">
        <ele>15.23505</ele>
        <time>2020-08-30T15:32:28.883Z</time>
      </trkpt>
      <trkpt lat="59.40459" lon="18.09398">
        <ele>15.672958</ele>
        <time>2020-08-30T15:32:34.181Z</time>
      </trkpt>
      <trkpt lat="59.40437" lon="18.09448">
        <ele>16.43481</ele>
        <time>2020-08-30T15:32:42.146Z</time>
      </trkpt>
      <trkpt lat="59.40388" lon="18.09525">
        <ele>15.900645</ele>
        <time>2020-08-30T15:32:52.849Z</time>
      </trkpt>
      <trkpt lat="59.40342" lon="18.09569">
        <ele>14.97521</ele>
        <time>2020-08-30T15:33:00.346Z</time>
      </trkpt>
      <trkpt lat="59.40297" lon="18.09591">
        <ele>14.126219</ele>
        <time>2020-08-30T15:33:06.822Z</time>
      </trkpt>
      <trkpt lat="59.40241" lon="18.0958">
        <ele>13.008249</ele>
        <time>2020-08-30T15:33:14.537Z</time>
      </trkpt>
      <trkpt lat="59.40208" lon="18.0957">
        <ele>12.220347</ele>
        <time>2020-08-30T15:33:19.333Z</time>
      </trkpt>
      <trkpt lat="59.40196" lon="18.09574">
        <ele>11.939948</ele>
        <time>2020-08-30T15:33:21.055Z</time>
      </trkpt>
      <trkpt lat="59.40114" lon="18.097">
        <ele>9.530084</ele>
        <time>2020-08-30T15:33:35.995Z</time>
      </trkpt>
      <trkpt lat="59.40054" lon="18.09778">
        <ele>8.937701</ele>
        <time>2020-08-30T15:33:47.645Z</time>
      </trkpt>
      <trkpt lat="59.40048" lon="18.09784">
        <ele>8.894264</ele>
        <time>2020-08-30T15:33:48.618Z</time>
      </trkpt>
      <trkpt lat="59.40026" lon="18.09791">
        <ele>8.76131</ele>
        <time>2020-08-30T15:33:53.071Z</time>
      </trkpt>
      <trkpt lat="59.39932" lon="18.09733">
        <ele>8.209192</ele>
        <time>2020-08-30T15:34:10.926Z</time>
      </trkpt>
      <trkpt lat="59.39896" lon="18.0973">
        <ele>8.143696</ele>
        <time>2020-08-30T15:34:17.959Z</time>
      </trkpt>
      <trkpt lat="59.39813" lon="18.09749">
        <ele>7.995166</ele>
        <time>2020-08-30T15:34:33.351Z</time>
      </trkpt>
      <trkpt lat="59.39769" lon="18.09792">
        <ele>7.906944</ele>
        <time>2020-08-30T15:34:41.768Z</time>
      </trkpt>
      <trkpt lat="59.39749" lon="18.09794">
        <ele>7.853248</ele>
        <time>2020-08-30T15:34:45.085Z</time>
      </trkpt>
      <trkpt lat="59.39695" lon="18.09784">
        <ele>7.703501</ele>
        <time>2020-08-30T15:34:54.503Z</time>
      </trkpt>
      <trkpt lat="59.39681" lon="18.09781">
        <ele>7.666436</ele>
        <time>2020-08-30T15:34:56.735Z</time>
      </trkpt>
      <trkpt lat="59.39672" lon="18.09774">
        <ele>7.639785</ele>
        <time>2020-08-30T15:34:58.544Z</time>
      </trkpt>
      <trkpt lat="59.39649" lon="18.09724">
        <ele>7.546008</ele>
        <time>2020-08-30T15:35:04.593Z</time>
      </trkpt>
      <trkpt lat="59.39641" lon="18.09683">
        <ele>7.485044</ele>
        <time>2020-08-30T15:35:08.620Z</time>
      </trkpt>
      <trkpt lat="59.39641" lon="18.09672">
        <ele>7.469896</ele>
        <time>2020-08-30T15:35:09.751Z</time>
      </trkpt>
      <trkpt lat="59.39639" lon="18.09619">
        <ele>7.476663</ele>
        <time>2020-08-30T15:35:14.793Z</time>
      </trkpt>
      <trkpt lat="59.39639" lon="18.09553">
        <ele>7.74327</ele>
        <time>2020-08-30T15:35:21.381Z</time>
      </trkpt>
      <trkpt lat="59.39626" lon="18.09412">
        <ele>8.327751</ele>
        <time>2020-08-30T15:35:37.573Z</time>
      </trkpt>
      <trkpt lat="59.39623" lon="18.0939">
        <ele>8.419199</ele>
        <time>2020-08-30T15:35:40.289Z</time>
      </trkpt>
      <trkpt lat="59.39618" lon="18.09381">
        <ele>8.471753</ele>
        <time>2020-08-30T15:35:41.691Z</time>
      </trkpt>
      <trkpt lat="59.39605" lon="18.09362">
        <ele>8.598935</ele>
        <time>2020-08-30T15:35:45.283Z</time>
      </trkpt>
      <trkpt lat="59.3959" lon="18.09346">
        <ele>8.737523</ele>
        <time>2020-08-30T15:35:49.025Z</time>
      </trkpt>
      <trkpt lat="59.39582" lon="18.09338">
        <ele>8.809962</ele>
        <time>2020-08-30T15:35:50.958Z</time>
      </trkpt>
      <trkpt lat="59.39559" lon="18.09319">
        <ele>8.89283</ele>
        <time>2020-08-30T15:35:56.269Z</time>
      </trkpt>
      <trkpt lat="59.3954" lon="18.09308">
        <ele>8.931503</ele>
        <time>2020-08-30T15:36:00.380Z</time>
      </trkpt>
      <trkpt lat="59.39517" lon="18.09306">
        <ele>8.976873</ele>
        <time>2020-08-30T15:36:05.253Z</time>
      </trkpt>
      <trkpt lat="59.39501" lon="18.09315">
        <ele>9.008635</ele>
        <time>2020-08-30T15:36:08.550Z</time>
      </trkpt>
      <trkpt lat="59.39418" lon="18.09409">
        <ele>9.193308</ele>
        <time>2020-08-30T15:36:26.142Z</time>
      </trkpt>
      <trkpt lat="59.3941" lon="18.09416">
        <ele>9.183109</ele>
        <time>2020-08-30T15:36:27.396Z</time>
      </trkpt>
      <trkpt lat="59.39398" lon="18.0942">
        <ele>9.103777</ele>
        <time>2020-08-30T15:36:29.590Z</time>
      </trkpt>
      <trkpt lat="59.39389" lon="18.09413">
        <ele>9.045825</ele>
        <time>2020-08-30T15:36:31.164Z</time>
      </trkpt>
      <trkpt lat="59.39363" lon="18.09349">
        <ele>8.789924</ele>
        <time>2020-08-30T15:36:38.017Z</time>
      </trkpt>
      <trkpt lat="59.39349" lon="18.09308">
        <ele>8.634545</ele>
        <time>2020-08-30T15:36:42.206Z</time>
      </trkpt>
      <trkpt lat="59.39334" lon="18.09308">
        <ele>8.542072</ele>
        <time>2020-08-30T15:36:44.601Z</time>
      </trkpt>
      <trkpt lat="59.39306" lon="18.09298">
        <ele>8.364114</ele>
        <time>2020-08-30T15:36:49.536Z</time>
      </trkpt>
      <trkpt lat="59.39293" lon="18.09281">
        <ele>8.270218</ele>
        <time>2020-08-30T15:36:51.961Z</time>
      </trkpt>
      <trkpt lat="59.39278" lon="18.09256">
        <ele>8.148168</ele>
        <time>2020-08-30T15:36:55.584Z</time>
      </trkpt>
      <trkpt lat="59.39274" lon="18.09251">
        <ele>8.122766</ele>
        <time>2020-08-30T15:36:56.359Z</time>
      </trkpt>
      <trkpt lat="59.39236" lon="18.09177">
        <ele>7.901217</ele>
        <time>2020-08-30T15:37:05.849Z</time>
      </trkpt>
      <trkpt lat="59.39189" lon="18.09156">
        <ele>7.711728</ele>
        <time>2020-08-30T15:37:14.388Z</time>
      </trkpt>
      <trkpt lat="59.39172" lon="18.0913">
        <ele>7.628556</ele>
        <time>2020-08-30T15:37:18.182Z</time>
      </trkpt>
      <trkpt lat="59.3916" lon="18.0906">
        <ele>7.480167</ele>
        <time>2020-08-30T15:37:25.039Z</time>
      </trkpt>
      <trkpt lat="59.39153" lon="18.09058">
        <ele>7.452874</ele>
        <time>2020-08-30T15:37:26.173Z</time>
      </trkpt>
      <trkpt lat="59.39111" lon="18.09039">
        <ele>7.091501</ele>
        <time>2020-08-30T15:37:33.597Z</time>
      </trkpt>
      <trkpt lat="59.39075" lon="18.08998">
        <ele>6.630079</ele>
        <time>2020-08-30T15:37:40.549Z</time>
      </trkpt>
      <trkpt lat="59.39067" lon="18.08981">
        <ele>6.504267</ele>
        <time>2020-08-30T15:37:42.413Z</time>
      </trkpt>
      <trkpt lat="59.39063" lon="18.08972">
        <ele>6.441353</ele>
        <time>2020-08-30T15:37:43.340Z</time>
      </trkpt>
      <trkpt lat="59.3906" lon="18.0896">
        <ele>6.362315</ele>
        <time>2020-08-30T15:37:44.430Z</time>
      </trkpt>
      <trkpt lat="59.39057" lon="18.0894">
        <ele>6.245198</ele>
        <time>2020-08-30T15:37:46.107Z</time>
      </trkpt>
      <trkpt lat="59.39057" lon="18.0892">
        <ele>6.1317</ele>
        <time>2020-08-30T15:37:47.722Z</time>
      </trkpt>
      <trkpt lat="59.3907" lon="18.08868">
        <ele>5.810001</ele>
        <time>2020-08-30T15:37:52.092Z</time>
      </trkpt>
      <trkpt lat="59.39071" lon="18.08828">
        <ele>5.584827</ele>
        <time>2020-08-30T15:37:55.220Z</time>
      </trkpt>
      <trkpt lat="59.39056" lon="18.0872">
        <ele>5.247798</ele>
        <time>2020-08-30T15:38:04.081Z</time>
      </trkpt>
      <trkpt lat="59.39039" lon="18.08612">
        <ele>5.025408</ele>
        <time>2020-08-30T15:38:13.767Z</time>
      </trkpt>
      <trkpt lat="59.39021" lon="18.08538">
        <ele>4.864969</ele>
        <time>2020-08-30T15:38:21.510Z</time>
      </trkpt>
      <trkpt lat="59.39004" lon="18.08479">
        <ele>4.732239</ele>
        <time>2020-08-30T15:38:28.138Z</time>
      </trkpt>
      <trkpt lat="59.38993" lon="18.08444">
        <ele>4.989156</ele>
        <time>2020-08-30T15:38:32.625Z</time>
      </trkpt>
      <trkpt lat="59.3897" lon="18.08402">
        <ele>5.536343</ele>
        <time>2020-08-30T15:38:39.776Z</time>
      </trkpt>
      <trkpt lat="59.38932" lon="18.08356">
        <ele>6.31762</ele>
        <time>2020-08-30T15:38:51.002Z</time>
      </trkpt>
      <trkpt lat="59.38901" lon="18.08338">
        <ele>6.885883</ele>
        <time>2020-08-30T15:38:59.420Z</time>
      </trkpt>
      <trkpt lat="59.38875" lon="18.08339">
        <ele>7.340541</ele>
        <time>2020-08-30T15:39:06.125Z</time>
      </trkpt>
      <trkpt lat="59.38859" lon="18.08342">
        <ele>7.62834</ele>
        <time>2020-08-30T15:39:10.395Z</time>
      </trkpt>
      <trkpt lat="59.38849" lon="18.08349">
        <ele>7.808641</ele>
        <time>2020-08-30T15:39:13.055Z</time>
      </trkpt>
      <trkpt lat="59.38817" lon="18.08378">
        <ele>8.317819</ele>
        <time>2020-08-30T15:39:22.005Z</time>
      </trkpt>
      <trkpt lat="59.38805" lon="18.08387">
        <ele>8.487561</ele>
        <time>2020-08-30T15:39:24.971Z</time>
      </trkpt>
      <trkpt lat="59.38775" lon="18.0841">
        <ele>8.948279</ele>
        <time>2020-08-30T15:39:32.941Z</time>
      </trkpt>
      <trkpt lat="59.3869" lon="18.0849">
        <ele>10.263979</ele>
        <time>2020-08-30T15:39:54.339Z</time>
      </trkpt>
      <trkpt lat="59.38673" lon="18.08495">
        <ele>10.355277</ele>
        <time>2020-08-30T15:39:57.693Z</time>
      </trkpt>
      <trkpt lat="59.38662" lon="18.08489">
        <ele>10.333937</ele>
        <time>2020-08-30T15:39:59.859Z</time>
      </trkpt>
      <trkpt lat="59.38649" lon="18.08471">
        <ele>10.30654</ele>
        <time>2020-08-30T15:40:02.639Z</time>
      </trkpt>
      <trkpt lat="59.3861" lon="18.08378">
        <ele>10.197961</ele>
        <time>2020-08-30T15:40:13.354Z</time>
      </trkpt>
      <trkpt lat="59.38602" lon="18.08354">
        <ele>10.171748</ele>
        <time>2020-08-30T15:40:15.950Z</time>
      </trkpt>
      <trkpt lat="59.38596" lon="18.08322">
        <ele>10.141958</ele>
        <time>2020-08-30T15:40:18.809Z</time>
      </trkpt>
      <trkpt lat="59.38593" lon="18.08292">
        <ele>10.114482</ele>
        <time>2020-08-30T15:40:21.502Z</time>
      </trkpt>
      <trkpt lat="59.38594" lon="18.08268">
        <ele>10.09288</ele>
        <time>2020-08-30T15:40:23.682Z</time>
      </trkpt>
      <trkpt lat="59.38599" lon="18.08238">
        <ele>10.063933</ele>
        <time>2020-08-30T15:40:26.475Z</time>
      </trkpt>
      <trkpt lat="59.38532" lon="18.08084">
        <ele>10.176218</ele>
        <time>2020-08-30T15:40:44.268Z</time>
      </trkpt>
      <trkpt lat="59.38462" lon="18.08112">
        <ele>10.267696</ele>
        <time>2020-08-30T15:40:58.286Z</time>
      </trkpt>
      <trkpt lat="59.38421" lon="18.08138">
        <ele>10.240576</ele>
        <time>2020-08-30T15:41:07.249Z</time>
      </trkpt>
      <trkpt lat="59.3842" lon="18.08138">
        <ele>10.238346</ele>
        <time>2020-08-30T15:41:07.585Z</time>
      </trkpt>
      <trkpt lat="59.38416" lon="18.08136">
        <ele>10.23362</ele>
        <time>2020-08-30T15:41:08.184Z</time>
      </trkpt>
      <trkpt lat="59.38399" lon="18.08158">
        <ele>10.207622</ele>
        <time>2020-08-30T15:41:11.933Z</time>
      </trkpt>
      <trkpt lat="59.38346" lon="18.08183">
        <ele>10.137475</ele>
        <time>2020-08-30T15:41:21.912Z</time>
      </trkpt>
      <trkpt lat="59.38311" lon="18.08232">
        <ele>10.082</ele>
        <time>2020-08-30T15:41:29.092Z</time>
      </trkpt>
      <trkpt lat="59.38294" lon="18.08253">
        <ele>10.055818</ele>
        <time>2020-08-30T15:41:33.006Z</time>
      </trkpt>
      <trkpt lat="59.38282" lon="18.08272">
        <ele>9.94689</ele>
        <time>2020-08-30T15:41:35.226Z</time>
      </trkpt>
      <trkpt lat="59.38241" lon="18.08303">
        <ele>9.490094</ele>
        <time>2020-08-30T15:41:42.495Z</time>
      </trkpt>
      <trkpt lat="59.38186" lon="18.08373">
        <ele>8.818608</ele>
        <time>2020-08-30T15:41:52.683Z</time>
      </trkpt>
      <trkpt lat="59.38166" lon="18.08385">
        <ele>8.599096</ele>
        <time>2020-08-30T15:41:56.375Z</time>
      </trkpt>
      <trkpt lat="59.38148" lon="18.08382">
        <ele>8.41727</ele>
        <time>2020-08-30T15:41:59.173Z</time>
      </trkpt>
      <trkpt lat="59.38081" lon="18.08279">
        <ele>7.715182</ele>
        <time>2020-08-30T15:42:13.014Z</time>
      </trkpt>
      <trkpt lat="59.38056" lon="18.08216">
        <ele>7.405081</ele>
        <time>2020-08-30T15:42:19.746Z</time>
      </trkpt>
      <trkpt lat="59.3805" lon="18.08195">
        <ele>7.313937</ele>
        <time>2020-08-30T15:42:22.204Z</time>
      </trkpt>
      <trkpt lat="59.38039" lon="18.08127">
        <ele>7.038955</ele>
        <time>2020-08-30T15:42:28.338Z</time>
      </trkpt>
      <trkpt lat="59.37985" lon="18.08033">
        <ele>6.449964</ele>
        <time>2020-08-30T15:42:48.565Z</time>
      </trkpt>
      <trkpt lat="59.37975" lon="18.08013">
        <ele>6.333653</ele>
        <time>2020-08-30T15:42:52.229Z</time>
      </trkpt>
      <trkpt lat="59.37974" lon="18.08001">
        <ele>6.27999</ele>
        <time>2020-08-30T15:42:53.876Z</time>
      </trkpt>
      <trkpt lat="59.37969" lon="18.07982">
        <ele>6.186545</ele>
        <time>2020-08-30T15:42:57.249Z</time>
      </trkpt>
      <trkpt lat="59.37946" lon="18.07934">
        <ele>5.900574</ele>
        <time>2020-08-30T15:43:06.226Z</time>
      </trkpt>
      <trkpt lat="59.37889" lon="18.07882">
        <ele>5.368992</ele>
        <time>2020-08-30T15:43:23.154Z</time>
      </trkpt>
      <trkpt lat="59.37872" lon="18.07857">
        <ele>5.229132</ele>
        <time>2020-08-30T15:43:29.096Z</time>
      </trkpt>
      <trkpt lat="59.37854" lon="18.07809">
        <ele>5.056726</ele>
        <time>2020-08-30T15:43:37.738Z</time>
      </trkpt>
      <trkpt lat="59.37841" lon="18.07775">
        <ele>4.934262</ele>
        <time>2020-08-30T15:43:43.645Z</time>
      </trkpt>
      <trkpt lat="59.37837" lon="18.07723">
        <ele>4.781193</ele>
        <time>2020-08-30T15:43:50.996Z</time>
      </trkpt>
      <trkpt lat="59.37872" lon="18.07616">
        <ele>4.415873</ele>
        <time>2020-08-30T15:44:08.855Z</time>
      </trkpt>
      <trkpt lat="59.37881" lon="18.07538">
        <ele>4.362929</ele>
        <time>2020-08-30T15:44:21.072Z</time>
      </trkpt>
      <trkpt lat="59.37885" lon="18.07399">
        <ele>4.641553</ele>
        <time>2020-08-30T15:44:42.953Z</time>
      </trkpt>
      <trkpt lat="59.37898" lon="18.0735">
        <ele>4.752971</ele>
        <time>2020-08-30T15:44:51.889Z</time>
      </trkpt>
      <trkpt lat="59.37901" lon="18.07343">
        <ele>4.771058</ele>
        <time>2020-08-30T15:44:53.631Z</time>
      </trkpt>
      <trkpt lat="59.379" lon="18.07333">
        <ele>4.791827</ele>
        <time>2020-08-30T15:44:54.948Z</time>
      </trkpt>
      <trkpt lat="59.37909" lon="18.07209">
        <ele>5.040352</ele>
        <time>2020-08-30T15:45:08.032Z</time>
      </trkpt>
      <trkpt lat="59.37928" lon="18.07151">
        <ele>5.173674</ele>
        <time>2020-08-30T15:45:14.838Z</time>
      </trkpt>
      <trkpt lat="59.37963" lon="18.07077">
        <ele>5.369417</ele>
        <time>2020-08-30T15:45:25.112Z</time>
      </trkpt>
      <trkpt lat="59.37979" lon="18.07043">
        <ele>5.458833</ele>
        <time>2020-08-30T15:45:29.234Z</time>
      </trkpt>
      <trkpt lat="59.37983" lon="18.07033">
        <ele>5.484619</ele>
        <time>2020-08-30T15:45:30.665Z</time>
      </trkpt>
      <trkpt lat="59.37982" lon="18.07018">
        <ele>5.513823</ele>
        <time>2020-08-30T15:45:32.029Z</time>
      </trkpt>
      <trkpt lat="59.37975" lon="18.07">
        <ele>5.557136</ele>
        <time>2020-08-30T15:45:33.988Z</time>
      </trkpt>
      <trkpt lat="59.37959" lon="18.06947">
        <ele>5.675512</ele>
        <time>2020-08-30T15:45:40.158Z</time>
      </trkpt>
      <trkpt lat="59.37942" lon="18.06905">
        <ele>5.913047</ele>
        <time>2020-08-30T15:45:46.322Z</time>
      </trkpt>
      <trkpt lat="59.37936" lon="18.06874">
        <ele>6.065466</ele>
        <time>2020-08-30T15:45:49.435Z</time>
      </trkpt>
      <trkpt lat="59.37932" lon="18.06853">
        <ele>6.169921</ele>
        <time>2020-08-30T15:45:52.494Z</time>
      </trkpt>
      <trkpt lat="59.37924" lon="18.06837">
        <ele>6.268115</ele>
        <time>2020-08-30T15:45:54.601Z</time>
      </trkpt>
      <trkpt lat="59.37873" lon="18.06704">
        <ele>7.028653</ele>
        <time>2020-08-30T15:46:12.490Z</time>
      </trkpt>
      <trkpt lat="59.3787" lon="18.06691">
        <ele>7.095186</ele>
        <time>2020-08-30T15:46:14.616Z</time>
      </trkpt>
      <trkpt lat="59.37871" lon="18.06596">
        <ele>7.595079</ele>
        <time>2020-08-30T15:46:25.284Z</time>
      </trkpt>
      <trkpt lat="59.37873" lon="18.06555">
        <ele>7.8406</ele>
        <time>2020-08-30T15:46:30.759Z</time>
      </trkpt>
      <trkpt lat="59.37862" lon="18.06533">
        <ele>8.023486</ele>
        <time>2020-08-30T15:46:33.969Z</time>
      </trkpt>
      <trkpt lat="59.37858" lon="18.06514">
        <ele>8.144332</ele>
        <time>2020-08-30T15:46:36.532Z</time>
      </trkpt>
      <trkpt lat="59.37851" lon="18.06497">
        <ele>8.271802</ele>
        <time>2020-08-30T15:46:39.246Z</time>
      </trkpt>
      <trkpt lat="59.37847" lon="18.06483">
        <ele>8.368727</ele>
        <time>2020-08-30T15:46:40.822Z</time>
      </trkpt>
      <trkpt lat="59.37847" lon="18.06483">
        <ele>8.368727</ele>
        <time>2020-08-30T15:46:40.826Z</time>
      </trkpt>
      <trkpt lat="59.37844" lon="18.0647">
        <ele>8.45177</ele>
        <time>2020-08-30T15:46:43.028Z</time>
      </trkpt>
      <trkpt lat="59.37845" lon="18.06334">
        <ele>9.251576</ele>
        <time>2020-08-30T15:47:05.599Z</time>
      </trkpt>
      <trkpt lat="59.37839" lon="18.06294">
        <ele>9.646252</ele>
        <time>2020-08-30T15:47:13.085Z</time>
      </trkpt>
      <trkpt lat="59.37841" lon="18.06156">
        <ele>11.43502</ele>
        <time>2020-08-30T15:47:36.543Z</time>
      </trkpt>
      <trkpt lat="59.37856" lon="18.06107">
        <ele>12.176813</ele>
        <time>2020-08-30T15:47:47.013Z</time>
      </trkpt>
      <trkpt lat="59.3786" lon="18.06087">
        <ele>12.45072</ele>
        <time>2020-08-30T15:47:50.318Z</time>
      </trkpt>
      <trkpt lat="59.37873" lon="18.06026">
        <ele>13.305298</ele>
        <time>2020-08-30T15:48:00.399Z</time>
      </trkpt>
      <trkpt lat="59.37881" lon="18.059">
        <ele>16.515487</ele>
        <time>2020-08-30T15:48:22.716Z</time>
      </trkpt>
      <trkpt lat="59.3789" lon="18.05874">
        <ele>17.535242</ele>
        <time>2020-08-30T15:48:28.774Z</time>
      </trkpt>
      <trkpt lat="59.37928" lon="18.05839">
        <ele>20.267366</ele>
        <time>2020-08-30T15:48:46.587Z</time>
      </trkpt>
      <trkpt lat="59.37968" lon="18.05813">
        <ele>22.998065</ele>
        <time>2020-08-30T15:49:04.785Z</time>
      </trkpt>
      <trkpt lat="59.38018" lon="18.05765">
        <ele>26.114555</ele>
        <time>2020-08-30T15:49:27.629Z</time>
      </trkpt>
      <trkpt lat="59.38059" lon="18.05744">
        <ele>27.608364</ele>
        <time>2020-08-30T15:49:44.324Z</time>
      </trkpt>
      <trkpt lat="59.38077" lon="18.05721">
        <ele>28.367222</ele>
        <time>2020-08-30T15:49:52.071Z</time>
      </trkpt>
      <trkpt lat="59.38101" lon="18.0569">
        <ele>29.405183</ele>
        <time>2020-08-30T15:50:01.902Z</time>
      </trkpt>
      <trkpt lat="59.38119" lon="18.05666">
        <ele>30.192062</ele>
        <time>2020-08-30T15:50:07.392Z</time>
      </trkpt>
      <trkpt lat="59.38153" lon="18.05622">
        <ele>31.617515</ele>
        <time>2020-08-30T15:50:16.243Z</time>
      </trkpt>
      <trkpt lat="59.38197" lon="18.05564">
        <ele>29.980122</ele>
        <time>2020-08-30T15:50:23.718Z</time>
      </trkpt>
      <trkpt lat="59.38217" lon="18.05535">
        <ele>28.884191</ele>
        <time>2020-08-30T15:50:27.186Z</time>
      </trkpt>
      <trkpt lat="59.38225" lon="18.05521">
        <ele>28.428253</ele>
        <time>2020-08-30T15:50:28.409Z</time>
      </trkpt>
      <trkpt lat="59.38234" lon="18.05505">
        <ele>27.900244</ele>
        <time>2020-08-30T15:50:30.042Z</time>
      </trkpt>
      <trkpt lat="59.38245" lon="18.05483">
        <ele>27.190654</ele>
        <time>2020-08-30T15:50:32.049Z</time>
      </trkpt>
      <trkpt lat="59.38245" lon="18.0547">
        <ele>26.917331</ele>
        <time>2020-08-30T15:50:32.771Z</time>
      </trkpt>
      <trkpt lat="59.38244" lon="18.05442">
        <ele>26.276093</ele>
        <time>2020-08-30T15:50:34.704Z</time>
      </trkpt>
      <trkpt lat="59.38246" lon="18.05435">
        <ele>26.091128</ele>
        <time>2020-08-30T15:50:35.233Z</time>
      </trkpt>
      <trkpt lat="59.3825" lon="18.05423">
        <ele>25.772927</ele>
        <time>2020-08-30T15:50:36.159Z</time>
      </trkpt>
      <trkpt lat="59.38245" lon="18.05412">
        <ele>25.41425</ele>
        <time>2020-08-30T15:50:37.087Z</time>
      </trkpt>
      <trkpt lat="59.38248" lon="18.05337">
        <ele>23.718365</ele>
        <time>2020-08-30T15:50:41.751Z</time>
      </trkpt>
      <trkpt lat="59.38282" lon="18.05154">
        <ele>19.155733</ele>
        <time>2020-08-30T15:50:54.085Z</time>
      </trkpt>
      <trkpt lat="59.38291" lon="18.05044">
        <ele>16.553987</ele>
        <time>2020-08-30T15:51:01.771Z</time>
      </trkpt>
      <trkpt lat="59.38288" lon="18.0504">
        <ele>16.377436</ele>
        <time>2020-08-30T15:51:02.360Z</time>
      </trkpt>
      <trkpt lat="59.38299" lon="18.04988">
        <ele>15.881126</ele>
        <time>2020-08-30T15:51:06.579Z</time>
      </trkpt>
      <trkpt lat="59.38295" lon="18.04958">
        <ele>15.963738</ele>
        <time>2020-08-30T15:51:09.183Z</time>
      </trkpt>
      <trkpt lat="59.38295" lon="18.04933">
        <ele>16.034974</ele>
        <time>2020-08-30T15:51:11.819Z</time>
      </trkpt>
      <trkpt lat="59.38292" lon="18.04925">
        <ele>16.062397</ele>
        <time>2020-08-30T15:51:12.551Z</time>
      </trkpt>
      <trkpt lat="59.38296" lon="18.04897">
        <ele>16.140097</ele>
        <time>2020-08-30T15:51:15.213Z</time>
      </trkpt>
      <trkpt lat="59.38316" lon="18.04821">
        <ele>16.375325</ele>
        <time>2020-08-30T15:51:24.777Z</time>
      </trkpt>
      <trkpt lat="59.38328" lon="18.048">
        <ele>16.465092</ele>
        <time>2020-08-30T15:51:28.629Z</time>
      </trkpt>
      <trkpt lat="59.38371" lon="18.04758">
        <ele>16.722347</ele>
        <time>2020-08-30T15:51:40.868Z</time>
      </trkpt>
      <trkpt lat="59.38377" lon="18.04742">
        <ele>16.79639</ele>
        <time>2020-08-30T15:51:43.934Z</time>
      </trkpt>
      <trkpt lat="59.3838" lon="18.04738">
        <ele>16.83794</ele>
        <time>2020-08-30T15:51:44.872Z</time>
      </trkpt>
      <trkpt lat="59.38393" lon="18.04687">
        <ele>17.209484</ele>
        <time>2020-08-30T15:51:52.289Z</time>
      </trkpt>
      <trkpt lat="59.38395" lon="18.04674">
        <ele>17.298609</ele>
        <time>2020-08-30T15:51:54.320Z</time>
      </trkpt>
      <trkpt lat="59.38399" lon="18.04654">
        <ele>17.438512</ele>
        <time>2020-08-30T15:51:56.806Z</time>
      </trkpt>
      <trkpt lat="59.3842" lon="18.04592">
        <ele>17.930327</ele>
        <time>2020-08-30T15:52:05.194Z</time>
      </trkpt>
      <trkpt lat="59.3845" lon="18.04554">
        <ele>18.396747</ele>
        <time>2020-08-30T15:52:13.327Z</time>
      </trkpt>
      <trkpt lat="59.38462" lon="18.04547">
        <ele>18.558333</ele>
        <time>2020-08-30T15:52:16.116Z</time>
      </trkpt>
      <trkpt lat="59.38469" lon="18.04543">
        <ele>18.64435</ele>
        <time>2020-08-30T15:52:17.682Z</time>
      </trkpt>
      <trkpt lat="59.38477" lon="18.04536">
        <ele>18.762258</ele>
        <time>2020-08-30T15:52:19.683Z</time>
      </trkpt>
      <trkpt lat="59.38515" lon="18.04507">
        <ele>19.201865</ele>
        <time>2020-08-30T15:52:27.114Z</time>
      </trkpt>
      <trkpt lat="59.38524" lon="18.0449">
        <ele>19.298011</ele>
        <time>2020-08-30T15:52:29.280Z</time>
      </trkpt>
      <trkpt lat="59.38534" lon="18.04474">
        <ele>19.394458</ele>
        <time>2020-08-30T15:52:31.809Z</time>
      </trkpt>
      <trkpt lat="59.38543" lon="18.04468">
        <ele>19.462202</ele>
        <time>2020-08-30T15:52:33.894Z</time>
      </trkpt>
      <trkpt lat="59.38544" lon="18.0446">
        <ele>19.495259</ele>
        <time>2020-08-30T15:52:34.602Z</time>
      </trkpt>
      <trkpt lat="59.38544" lon="18.0445">
        <ele>19.533897</ele>
        <time>2020-08-30T15:52:35.796Z</time>
      </trkpt>
      <trkpt lat="59.38545" lon="18.04442">
        <ele>19.564567</ele>
        <time>2020-08-30T15:52:36.558Z</time>
      </trkpt>
      <trkpt lat="59.38548" lon="18.04424">
        <ele>19.633753</ele>
        <time>2020-08-30T15:52:38.497Z</time>
      </trkpt>
      <trkpt lat="59.38554" lon="18.04393">
        <ele>19.760488</ele>
        <time>2020-08-30T15:52:42.763Z</time>
      </trkpt>
      <trkpt lat="59.3856" lon="18.04387">
        <ele>19.814028</ele>
        <time>2020-08-30T15:52:44.649Z</time>
      </trkpt>
      <trkpt lat="59.38565" lon="18.04384">
        <ele>19.852032</ele>
        <time>2020-08-30T15:52:45.931Z</time>
      </trkpt>
      <trkpt lat="59.38574" lon="18.04387">
        <ele>19.921514</ele>
        <time>2020-08-30T15:52:48.158Z</time>
      </trkpt>
      <trkpt lat="59.38593" lon="18.04395">
        <ele>20.068842</ele>
        <time>2020-08-30T15:52:52.059Z</time>
      </trkpt>
      <trkpt lat="59.38598" lon="18.04402">
        <ele>20.112222</ele>
        <time>2020-08-30T15:52:53.306Z</time>
      </trkpt>
      <trkpt lat="59.38585" lon="18.04403">
        <ele>20.20817</ele>
        <time>2020-08-30T15:52:56.321Z</time>
      </trkpt>
      <trkpt lat="59.38564" lon="18.044">
        <ele>20.368016</ele>
        <time>2020-08-30T15:53:00.498Z</time>
      </trkpt>
      <trkpt lat="59.38533" lon="18.04388">
        <ele>20.20619</ele>
        <time>2020-08-30T15:53:05.937Z</time>
      </trkpt>
      <trkpt lat="59.38518" lon="18.04378">
        <ele>20.057615</ele>
        <time>2020-08-30T15:53:08.848Z</time>
      </trkpt>
      <trkpt lat="59.38493" lon="18.04366">
        <ele>19.81834</ele>
        <time>2020-08-30T15:53:12.740Z</time>
      </trkpt>
      <trkpt lat="59.38482" lon="18.0436">
        <ele>19.701465</ele>
        <time>2020-08-30T15:53:14.806Z</time>
      </trkpt>
      <trkpt lat="59.38476" lon="18.04357">
        <ele>19.647822</ele>
        <time>2020-08-30T15:53:15.481Z</time>
      </trkpt>
      <trkpt lat="59.38453" lon="18.04322">
        <ele>19.369812</ele>
        <time>2020-08-30T15:53:20.535Z</time>
      </trkpt>
      <trkpt lat="59.38428" lon="18.043">
        <ele>19.112116</ele>
        <time>2020-08-30T15:53:24.668Z</time>
      </trkpt>
      <trkpt lat="59.38394" lon="18.04267">
        <ele>18.755369</ele>
        <time>2020-08-30T15:53:30.293Z</time>
      </trkpt>
      <trkpt lat="59.38349" lon="18.0423">
        <ele>18.068266</ele>
        <time>2020-08-30T15:53:37.048Z</time>
      </trkpt>
      <trkpt lat="59.382" lon="18.04136">
        <ele>16.353363</ele>
        <time>2020-08-30T15:54:01.561Z</time>
      </trkpt>
      <trkpt lat="59.38191" lon="18.04135">
        <ele>16.429146</ele>
        <time>2020-08-30T15:54:04.021Z</time>
      </trkpt>
      <trkpt lat="59.38179" lon="18.04134">
        <ele>16.536397</ele>
        <time>2020-08-30T15:54:06.566Z</time>
      </trkpt>
      <trkpt lat="59.38146" lon="18.04158">
        <ele>16.833535</ele>
        <time>2020-08-30T15:54:14.133Z</time>
      </trkpt>
      <trkpt lat="59.38103" lon="18.04259">
        <ele>17.414293</ele>
        <time>2020-08-30T15:54:29.149Z</time>
      </trkpt>
      <trkpt lat="59.3808" lon="18.04294">
        <ele>17.659364</ele>
        <time>2020-08-30T15:54:36.715Z</time>
      </trkpt>
      <trkpt lat="59.38021" lon="18.04323">
        <ele>18.564182</ele>
        <time>2020-08-30T15:54:50.893Z</time>
      </trkpt>
      <trkpt lat="59.37954" lon="18.04326">
        <ele>19.605201</ele>
        <time>2020-08-30T15:55:07.230Z</time>
      </trkpt>
      <trkpt lat="59.37951" lon="18.04332">
        <ele>19.667344</ele>
        <time>2020-08-30T15:55:08.381Z</time>
      </trkpt>
      <trkpt lat="59.37949" lon="18.0434">
        <ele>19.743541</ele>
        <time>2020-08-30T15:55:10.230Z</time>
      </trkpt>
      <trkpt lat="59.37934" lon="18.04334">
        <ele>19.983509</ele>
        <time>2020-08-30T15:55:14.063Z</time>
      </trkpt>
      <trkpt lat="59.37885" lon="18.04361">
        <ele>20.294864</ele>
        <time>2020-08-30T15:55:24.411Z</time>
      </trkpt>
      <trkpt lat="59.37854" lon="18.04409">
        <ele>19.874016</ele>
        <time>2020-08-30T15:55:32.256Z</time>
      </trkpt>
      <trkpt lat="59.37844" lon="18.04425">
        <ele>19.739379</ele>
        <time>2020-08-30T15:55:35.114Z</time>
      </trkpt>
      <trkpt lat="59.3784" lon="18.0443">
        <ele>19.68929</ele>
        <time>2020-08-30T15:55:35.848Z</time>
      </trkpt>
      <trkpt lat="59.37832" lon="18.04439">
        <ele>19.590308</ele>
        <time>2020-08-30T15:55:37.082Z</time>
      </trkpt>
      <trkpt lat="59.37769" lon="18.04504">
        <ele>18.832507</ele>
        <time>2020-08-30T15:55:47.654Z</time>
      </trkpt>
      <trkpt lat="59.37682" lon="18.04587">
        <ele>17.367226</ele>
        <time>2020-08-30T15:56:01.147Z</time>
      </trkpt>
      <trkpt lat="59.37646" lon="18.04623">
        <ele>16.69097</ele>
        <time>2020-08-30T15:56:07.340Z</time>
      </trkpt>
      <trkpt lat="59.37596" lon="18.04673">
        <ele>15.744267</ele>
        <time>2020-08-30T15:56:16.557Z</time>
      </trkpt>
      <trkpt lat="59.37596" lon="18.04681">
        <ele>15.672683</ele>
        <time>2020-08-30T15:56:17.304Z</time>
      </trkpt>
      <trkpt lat="59.37597" lon="18.0469">
        <ele>15.595956</ele>
        <time>2020-08-30T15:56:17.997Z</time>
      </trkpt>
      <trkpt lat="59.37583" lon="18.04698">
        <ele>15.61438</ele>
        <time>2020-08-30T15:56:20.573Z</time>
      </trkpt>
      <trkpt lat="59.37573" lon="18.04705">
        <ele>15.660859</ele>
        <time>2020-08-30T15:56:22.674Z</time>
      </trkpt>
      <trkpt lat="59.3756" lon="18.04715">
        <ele>15.720477</ele>
        <time>2020-08-30T15:56:25.204Z</time>
      </trkpt>
      <trkpt lat="59.37544" lon="18.04731">
        <ele>15.795192</ele>
        <time>2020-08-30T15:56:29.018Z</time>
      </trkpt>
      <trkpt lat="59.37538" lon="18.04736">
        <ele>15.82042</ele>
        <time>2020-08-30T15:56:30.217Z</time>
      </trkpt>
      <trkpt lat="59.37535" lon="18.0474">
        <ele>15.838106</ele>
        <time>2020-08-30T15:56:31.138Z</time>
      </trkpt>
      <trkpt lat="59.37524" lon="18.0475">
        <ele>15.88693</ele>
        <time>2020-08-30T15:56:33.386Z</time>
      </trkpt>
      <trkpt lat="59.37509" lon="18.04761">
        <ele>15.952946</ele>
        <time>2020-08-30T15:56:37.045Z</time>
      </trkpt>
      <trkpt lat="59.37498" lon="18.0477">
        <ele>16.003702</ele>
        <time>2020-08-30T15:56:39.552Z</time>
      </trkpt>
      <trkpt lat="59.3744" lon="18.04839">
        <ele>16.290044</ele>
        <time>2020-08-30T15:56:54.643Z</time>
      </trkpt>
      <trkpt lat="59.37339" lon="18.04977">
        <ele>15.52331</ele>
        <time>2020-08-30T15:57:16.672Z</time>
      </trkpt>
      <trkpt lat="59.37332" lon="18.04998">
        <ele>15.440517</ele>
        <time>2020-08-30T15:57:18.379Z</time>
      </trkpt>
      <trkpt lat="59.37311" lon="18.05023">
        <ele>15.269718</ele>
        <time>2020-08-30T15:57:22.722Z</time>
      </trkpt>
      <trkpt lat="59.37287" lon="18.05049">
        <ele>15.061399</ele>
        <time>2020-08-30T15:57:26.454Z</time>
      </trkpt>
      <trkpt lat="59.37279" lon="18.05055">
        <ele>14.892202</ele>
        <time>2020-08-30T15:57:27.960Z</time>
      </trkpt>
      <trkpt lat="59.37278" lon="18.05056">
        <ele>14.861746</ele>
        <time>2020-08-30T15:57:28.115Z</time>
      </trkpt>
      <trkpt lat="59.37237" lon="18.05065">
        <ele>14.028641</ele>
        <time>2020-08-30T15:57:33.837Z</time>
      </trkpt>
      <trkpt lat="59.37172" lon="18.05095">
        <ele>12.695472</ele>
        <time>2020-08-30T15:57:43.191Z</time>
      </trkpt>
      <trkpt lat="59.37155" lon="18.051">
        <ele>12.344993</ele>
        <time>2020-08-30T15:57:45.450Z</time>
      </trkpt>
      <trkpt lat="59.37137" lon="18.05098">
        <ele>11.980815</ele>
        <time>2020-08-30T15:57:48.317Z</time>
      </trkpt>
      <trkpt lat="59.37128" lon="18.05101">
        <ele>11.797512</ele>
        <time>2020-08-30T15:57:49.475Z</time>
      </trkpt>
      <trkpt lat="59.37093" lon="18.0511">
        <ele>11.438479</ele>
        <time>2020-08-30T15:57:54.952Z</time>
      </trkpt>
      <trkpt lat="59.37092" lon="18.05099">
        <ele>11.432794</ele>
        <time>2020-08-30T15:57:55.771Z</time>
      </trkpt>
      <trkpt lat="59.37088" lon="18.05036">
        <ele>11.398464</ele>
        <time>2020-08-30T15:58:00.948Z</time>
      </trkpt>
      <trkpt lat="59.37086" lon="18.05028">
        <ele>11.393392</ele>
        <time>2020-08-30T15:58:01.731Z</time>
      </trkpt>
      <trkpt lat="59.37077" lon="18.0503">
        <ele>11.383731</ele>
        <time>2020-08-30T15:58:03.351Z</time>
      </trkpt>
      <trkpt lat="59.37072" lon="18.05023">
        <ele>11.376413</ele>
        <time>2020-08-30T15:58:04.598Z</time>
      </trkpt>
      <trkpt lat="59.3707" lon="18.05018">
        <ele>11.373664</ele>
        <time>2020-08-30T15:58:05.030Z</time>
      </trkpt>
      <trkpt lat="59.37066" lon="18.05019">
        <ele>11.368518</ele>
        <time>2020-08-30T15:58:05.773Z</time>
      </trkpt>
      <trkpt lat="59.37059" lon="18.05019">
        <ele>11.361395</ele>
        <time>2020-08-30T15:58:06.744Z</time>
      </trkpt>
      <trkpt lat="59.37054" lon="18.05017">
        <ele>11.356452</ele>
        <time>2020-08-30T15:58:07.499Z</time>
      </trkpt>
      <trkpt lat="59.37052" lon="18.05024">
        <ele>11.351887</ele>
        <time>2020-08-30T15:58:08.301Z</time>
      </trkpt>
      <trkpt lat="59.37043" lon="18.05031">
        <ele>11.341664</ele>
        <time>2020-08-30T15:58:10.221Z</time>
      </trkpt>
      <trkpt lat="59.37029" lon="18.05035">
        <ele>11.326961</ele>
        <time>2020-08-30T15:58:12.753Z</time>
      </trkpt>
      <trkpt lat="59.37007" lon="18.05037">
        <ele>11.303139</ele>
        <time>2020-08-30T15:58:17.768Z</time>
      </trkpt>
      <trkpt lat="59.36982" lon="18.05041">
        <ele>11.27716</ele>
        <time>2020-08-30T15:58:23.248Z</time>
      </trkpt>
      <trkpt lat="59.36942" lon="18.05063">
        <ele>11.941202</ele>
        <time>2020-08-30T15:58:33.122Z</time>
      </trkpt>
      <trkpt lat="59.3667" lon="18.05259">
        <ele>17.232458</ele>
        <time>2020-08-30T15:59:45.119Z</time>
      </trkpt>
      <trkpt lat="59.36587" lon="18.05294">
        <ele>17.392348</ele>
        <time>2020-08-30T15:59:59.875Z</time>
      </trkpt>
      <trkpt lat="59.36573" lon="18.05299">
        <ele>17.258157</ele>
        <time>2020-08-30T16:00:02.117Z</time>
      </trkpt>
      <trkpt lat="59.3656" lon="18.05302">
        <ele>17.144079</ele>
        <time>2020-08-30T16:00:04.146Z</time>
      </trkpt>
      <trkpt lat="59.36515" lon="18.05313">
        <ele>16.731459</ele>
        <time>2020-08-30T16:00:11.088Z</time>
      </trkpt>
      <trkpt lat="59.36491" lon="18.05321">
        <ele>16.510377</ele>
        <time>2020-08-30T16:00:14.597Z</time>
      </trkpt>
      <trkpt lat="59.36414" lon="18.05365">
        <ele>15.617848</ele>
        <time>2020-08-30T16:00:26.145Z</time>
      </trkpt>
      <trkpt lat="59.36332" lon="18.05428">
        <ele>14.497295</ele>
        <time>2020-08-30T16:00:39.454Z</time>
      </trkpt>
      <trkpt lat="59.36284" lon="18.0545">
        <ele>13.883806</ele>
        <time>2020-08-30T16:00:47.071Z</time>
      </trkpt>
      <trkpt lat="59.36259" lon="18.05472">
        <ele>13.685051</ele>
        <time>2020-08-30T16:00:51.289Z</time>
      </trkpt>
      <trkpt lat="59.36129" lon="18.05596">
        <ele>12.630393</ele>
        <time>2020-08-30T16:01:14.537Z</time>
      </trkpt>
      <trkpt lat="59.36118" lon="18.05605">
        <ele>12.584555</ele>
        <time>2020-08-30T16:01:16.435Z</time>
      </trkpt>
      <trkpt lat="59.36094" lon="18.0561">
        <ele>12.557595</ele>
        <time>2020-08-30T16:01:20.314Z</time>
      </trkpt>
      <trkpt lat="59.36077" lon="18.05602">
        <ele>12.537774</ele>
        <time>2020-08-30T16:01:23.235Z</time>
      </trkpt>
      <trkpt lat="59.36054" lon="18.05584">
        <ele>12.50947</ele>
        <time>2020-08-30T16:01:27.646Z</time>
      </trkpt>
      <trkpt lat="59.36027" lon="18.05572">
        <ele>12.478438</ele>
        <time>2020-08-30T16:01:32.378Z</time>
      </trkpt>
      <trkpt lat="59.35999" lon="18.05568">
        <ele>12.446995</ele>
        <time>2020-08-30T16:01:37.408Z</time>
      </trkpt>
      <trkpt lat="59.35976" lon="18.05574">
        <ele>12.421039</ele>
        <time>2020-08-30T16:01:41.836Z</time>
      </trkpt>
      <trkpt lat="59.35962" lon="18.0558">
        <ele>12.40512</ele>
        <time>2020-08-30T16:01:44.377Z</time>
      </trkpt>
      <trkpt lat="59.35953" lon="18.05585">
        <ele>12.394582</ele>
        <time>2020-08-30T16:01:46.327Z</time>
      </trkpt>
      <trkpt lat="59.35877" lon="18.05641">
        <ele>12.607248</ele>
        <time>2020-08-30T16:02:01.398Z</time>
      </trkpt>
      <trkpt lat="59.35828" lon="18.05651">
        <ele>12.749776</ele>
        <time>2020-08-30T16:02:10.964Z</time>
      </trkpt>
      <trkpt lat="59.35772" lon="18.05641">
        <ele>12.893083</ele>
        <time>2020-08-30T16:02:21.712Z</time>
      </trkpt>
      <trkpt lat="59.35714" lon="18.05608">
        <ele>12.674026</ele>
        <time>2020-08-30T16:02:32.218Z</time>
      </trkpt>
      <trkpt lat="59.35699" lon="18.05592">
        <ele>12.609668</ele>
        <time>2020-08-30T16:02:35.157Z</time>
      </trkpt>
      <trkpt lat="59.35686" lon="18.05575">
        <ele>12.553847</ele>
        <time>2020-08-30T16:02:37.620Z</time>
      </trkpt>
      <trkpt lat="59.35672" lon="18.05558">
        <ele>12.493959</ele>
        <time>2020-08-30T16:02:40.295Z</time>
      </trkpt>
      <trkpt lat="59.35659" lon="18.05543">
        <ele>12.439191</ele>
        <time>2020-08-30T16:02:42.639Z</time>
      </trkpt>
      <trkpt lat="59.35607" lon="18.05499">
        <ele>12.269236</ele>
        <time>2020-08-30T16:02:51.846Z</time>
      </trkpt>
      <trkpt lat="59.35537" lon="18.05427">
        <ele>12.719268</ele>
        <time>2020-08-30T16:03:04.976Z</time>
      </trkpt>
      <trkpt lat="59.35495" lon="18.05385">
        <ele>12.986901</ele>
        <time>2020-08-30T16:03:14.528Z</time>
      </trkpt>
      <trkpt lat="59.35389" lon="18.05279">
        <ele>15.187755</ele>
        <time>2020-08-30T16:03:43.236Z</time>
      </trkpt>
      <trkpt lat="59.35381" lon="18.05279">
        <ele>15.430561</ele>
        <time>2020-08-30T16:03:45.675Z</time>
      </trkpt>
      <trkpt lat="59.35362" lon="18.0529">
        <ele>15.972179</ele>
        <time>2020-08-30T16:03:51.150Z</time>
      </trkpt>
      <trkpt lat="59.35309" lon="18.05336">
        <ele>17.588884</ele>
        <time>2020-08-30T16:04:06.991Z</time>
      </trkpt>
      <trkpt lat="59.35234" lon="18.05438">
        <ele>20.24445</ele>
        <time>2020-08-30T16:04:34.798Z</time>
      </trkpt>
      <trkpt lat="59.35208" lon="18.05443">
        <ele>21.034373</ele>
        <time>2020-08-30T16:04:41.707Z</time>
      </trkpt>
      <trkpt lat="59.35171" lon="18.05475">
        <ele>22.215776</ele>
        <time>2020-08-30T16:04:52.299Z</time>
      </trkpt>
      <trkpt lat="59.35143" lon="18.05499">
        <ele>23.146246</ele>
        <time>2020-08-30T16:05:00.490Z</time>
      </trkpt>
      <trkpt lat="59.35133" lon="18.05501">
        <ele>23.428821</ele>
        <time>2020-08-30T16:05:03.266Z</time>
      </trkpt>
      <trkpt lat="59.35129" lon="18.05497">
        <ele>23.550841</ele>
        <time>2020-08-30T16:05:04.370Z</time>
      </trkpt>
      <trkpt lat="59.35126" lon="18.05494">
        <ele>23.634803</ele>
        <time>2020-08-30T16:05:05.124Z</time>
      </trkpt>
      <trkpt lat="59.35124" lon="18.0549">
        <ele>23.680667</ele>
        <time>2020-08-30T16:05:05.983Z</time>
      </trkpt>
      <trkpt lat="59.35118" lon="18.05493">
        <ele>23.77128</ele>
        <time>2020-08-30T16:05:07.478Z</time>
      </trkpt>
      <trkpt lat="59.35112" lon="18.05496">
        <ele>23.856372</ele>
        <time>2020-08-30T16:05:08.964Z</time>
      </trkpt>
      <trkpt lat="59.35104" lon="18.055">
        <ele>23.976497</ele>
        <time>2020-08-30T16:05:11.183Z</time>
      </trkpt>
      <trkpt lat="59.35097" lon="18.05503">
        <ele>24.06556</ele>
        <time>2020-08-30T16:05:12.926Z</time>
      </trkpt>
      <trkpt lat="59.35101" lon="18.05534">
        <ele>24.298037</ele>
        <time>2020-08-30T16:05:16.747Z</time>
      </trkpt>
      <trkpt lat="59.35102" lon="18.05552">
        <ele>24.425872</ele>
        <time>2020-08-30T16:05:18.888Z</time>
      </trkpt>
      <trkpt lat="59.35101" lon="18.05574">
        <ele>24.58909</ele>
        <time>2020-08-30T16:05:21.937Z</time>
      </trkpt>
      <trkpt lat="59.35098" lon="18.05634">
        <ele>25.024854</ele>
        <time>2020-08-30T16:05:29.114Z</time>
      </trkpt>
      <trkpt lat="59.35093" lon="18.05668">
        <ele>25.280867</ele>
        <time>2020-08-30T16:05:33.111Z</time>
      </trkpt>
      <trkpt lat="59.35089" lon="18.05681">
        <ele>25.386115</ele>
        <time>2020-08-30T16:05:34.703Z</time>
      </trkpt>
      <trkpt lat="59.35083" lon="18.05706">
        <ele>25.590827</ele>
        <time>2020-08-30T16:05:38.055Z</time>
      </trkpt>
      <trkpt lat="59.3507" lon="18.05746">
        <ele>25.93295</ele>
        <time>2020-08-30T16:05:42.816Z</time>
      </trkpt>
      <trkpt lat="59.35061" lon="18.05766">
        <ele>26.127233</ele>
        <time>2020-08-30T16:05:45.453Z</time>
      </trkpt>
      <trkpt lat="59.34973" lon="18.05857">
        <ele>27.005862</ele>
        <time>2020-08-30T16:06:05.392Z</time>
      </trkpt>
      <trkpt lat="59.34962" lon="18.05867">
        <ele>27.106577</ele>
        <time>2020-08-30T16:06:07.832Z</time>
      </trkpt>
      <trkpt lat="59.34964" lon="18.05872">
        <ele>27.132449</ele>
        <time>2020-08-30T16:06:08.386Z</time>
      </trkpt>
      <trkpt lat="59.34959" lon="18.05877">
        <ele>27.173898</ele>
        <time>2020-08-30T16:06:09.425Z</time>
      </trkpt>
      <trkpt lat="59.34957" lon="18.05879">
        <ele>27.194041</ele>
        <time>2020-08-30T16:06:09.943Z</time>
      </trkpt>
      <trkpt lat="59.34911" lon="18.05924">
        <ele>27.644352</ele>
        <time>2020-08-30T16:06:21.626Z</time>
      </trkpt>
      <trkpt lat="59.3489" lon="18.05943">
        <ele>27.917277</ele>
        <time>2020-08-30T16:06:26.584Z</time>
      </trkpt>
      <trkpt lat="59.34828" lon="18.06004">
        <ele>28.953331</ele>
        <time>2020-08-30T16:06:42.470Z</time>
      </trkpt>
      <trkpt lat="59.34823" lon="18.06009">
        <ele>29.042226</ele>
        <time>2020-08-30T16:06:44.138Z</time>
      </trkpt>
      <trkpt lat="59.34815" lon="18.06017">
        <ele>29.172199</ele>
        <time>2020-08-30T16:06:46.128Z</time>
      </trkpt>
      <trkpt lat="59.34808" lon="18.06024">
        <ele>29.292162</ele>
        <time>2020-08-30T16:06:48.010Z</time>
      </trkpt>
      <trkpt lat="59.34661" lon="18.06164">
        <ele>30.41328</ele>
        <time>2020-08-30T16:07:24.228Z</time>
      </trkpt>
      <trkpt lat="59.34656" lon="18.06169">
        <ele>30.413698</ele>
        <time>2020-08-30T16:07:25.338Z</time>
      </trkpt>
      <trkpt lat="59.3465" lon="18.06175">
        <ele>30.414239</ele>
        <time>2020-08-30T16:07:26.452Z</time>
      </trkpt>
      <trkpt lat="59.34642" lon="18.06182">
        <ele>30.414884</ele>
        <time>2020-08-30T16:07:27.703Z</time>
      </trkpt>
      <trkpt lat="59.34586" lon="18.06235">
        <ele>30.41971</ele>
        <time>2020-08-30T16:07:37.129Z</time>
      </trkpt>
      <trkpt lat="59.34583" lon="18.06238">
        <ele>30.419992</ele>
        <time>2020-08-30T16:07:37.598Z</time>
      </trkpt>
      <trkpt lat="59.34576" lon="18.06244">
        <ele>30.376777</ele>
        <time>2020-08-30T16:07:38.655Z</time>
      </trkpt>
      <trkpt lat="59.34574" lon="18.06237">
        <ele>30.306841</ele>
        <time>2020-08-30T16:07:39.256Z</time>
      </trkpt>
      <trkpt lat="59.34571" lon="18.0624">
        <ele>30.24198</ele>
        <time>2020-08-30T16:07:39.823Z</time>
      </trkpt>
      <trkpt lat="59.34567" lon="18.06244">
        <ele>30.170088</ele>
        <time>2020-08-30T16:07:40.435Z</time>
      </trkpt>
      <trkpt lat="59.34565" lon="18.06246">
        <ele>30.120748</ele>
        <time>2020-08-30T16:07:40.873Z</time>
      </trkpt>
      <trkpt lat="59.34562" lon="18.06249">
        <ele>30.061708</ele>
        <time>2020-08-30T16:07:41.430Z</time>
      </trkpt>
      <trkpt lat="59.34552" lon="18.06256">
        <ele>29.889017</ele>
        <time>2020-08-30T16:07:42.839Z</time>
      </trkpt>
      <trkpt lat="59.34548" lon="18.06255">
        <ele>29.819367</ele>
        <time>2020-08-30T16:07:43.406Z</time>
      </trkpt>
      <trkpt lat="59.34522" lon="18.06281">
        <ele>29.315305</ele>
        <time>2020-08-30T16:07:47.710Z</time>
      </trkpt>
      <trkpt lat="59.34513" lon="18.0629">
        <ele>29.130423</ele>
        <time>2020-08-30T16:07:49.230Z</time>
      </trkpt>
      <trkpt lat="59.34509" lon="18.06291">
        <ele>29.074814</ele>
        <time>2020-08-30T16:07:49.732Z</time>
      </trkpt>
      <trkpt lat="59.34488" lon="18.06291">
        <ele>28.701152</ele>
        <time>2020-08-30T16:07:52.918Z</time>
      </trkpt>
      <trkpt lat="59.34446" lon="18.06293">
        <ele>27.981176</ele>
        <time>2020-08-30T16:07:59.108Z</time>
      </trkpt>
      <trkpt lat="59.34411" lon="18.06293">
        <ele>27.368783</ele>
        <time>2020-08-30T16:08:04.550Z</time>
      </trkpt>
      <trkpt lat="59.34396" lon="18.06288">
        <ele>27.360675</ele>
        <time>2020-08-30T16:08:07.093Z</time>
      </trkpt>
      <trkpt lat="59.34394" lon="18.06286">
        <ele>27.371294</ele>
        <time>2020-08-30T16:08:07.417Z</time>
      </trkpt>
      <trkpt lat="59.34387" lon="18.06277">
        <ele>27.406916</ele>
        <time>2020-08-30T16:08:08.739Z</time>
      </trkpt>
      <trkpt lat="59.34374" lon="18.06264">
        <ele>27.468389</ele>
        <time>2020-08-30T16:08:10.964Z</time>
      </trkpt>
      <trkpt lat="59.34369" lon="18.06259">
        <ele>27.49428</ele>
        <time>2020-08-30T16:08:11.988Z</time>
      </trkpt>
      <trkpt lat="59.34366" lon="18.06257">
        <ele>27.508953</ele>
        <time>2020-08-30T16:08:12.789Z</time>
      </trkpt>
      <trkpt lat="59.34362" lon="18.06263">
        <ele>27.530747</ele>
        <time>2020-08-30T16:08:13.482Z</time>
      </trkpt>
      <trkpt lat="59.34358" lon="18.06266">
        <ele>27.54905</ele>
        <time>2020-08-30T16:08:14.178Z</time>
      </trkpt>
      <trkpt lat="59.34342" lon="18.06281">
        <ele>27.624665</ele>
        <time>2020-08-30T16:08:17.153Z</time>
      </trkpt>
      <trkpt lat="59.34298" lon="18.06323">
        <ele>27.840819</ele>
        <time>2020-08-30T16:08:27.477Z</time>
      </trkpt>
      <trkpt lat="59.34284" lon="18.06335">
        <ele>27.906331</ele>
        <time>2020-08-30T16:08:30.998Z</time>
      </trkpt>
      <trkpt lat="59.34276" lon="18.06344">
        <ele>27.948207</ele>
        <time>2020-08-30T16:08:33.226Z</time>
      </trkpt>
      <trkpt lat="59.34204" lon="18.06414">
        <ele>28.659838</ele>
        <time>2020-08-30T16:08:52.394Z</time>
      </trkpt>
      <trkpt lat="59.34196" lon="18.06421">
        <ele>28.75461</ele>
        <time>2020-08-30T16:08:54.327Z</time>
      </trkpt>
      <trkpt lat="59.34191" lon="18.06427">
        <ele>28.830804</ele>
        <time>2020-08-30T16:08:55.839Z</time>
      </trkpt>
      <trkpt lat="59.34181" lon="18.06437">
        <ele>28.969076</ele>
        <time>2020-08-30T16:08:58.449Z</time>
      </trkpt>
      <trkpt lat="59.34109" lon="18.06508">
        <ele>29.932994</ele>
        <time>2020-08-30T16:09:15.852Z</time>
      </trkpt>
      <trkpt lat="59.34105" lon="18.06512">
        <ele>29.981188</ele>
        <time>2020-08-30T16:09:16.739Z</time>
      </trkpt>
      <trkpt lat="59.34094" lon="18.06524">
        <ele>30.135028</ele>
        <time>2020-08-30T16:09:19.566Z</time>
      </trkpt>
      <trkpt lat="59.34086" lon="18.06534">
        <ele>30.249838</ele>
        <time>2020-08-30T16:09:21.616Z</time>
      </trkpt>
      <trkpt lat="59.34079" lon="18.06551">
        <ele>30.19465</ele>
        <time>2020-08-30T16:09:23.871Z</time>
      </trkpt>
      <trkpt lat="59.34066" lon="18.0658">
        <ele>30.09775</ele>
        <time>2020-08-30T16:09:27.856Z</time>
      </trkpt>
      <trkpt lat="59.34047" lon="18.06627">
        <ele>29.9392</ele>
        <time>2020-08-30T16:09:33.628Z</time>
      </trkpt>
      <trkpt lat="59.34037" lon="18.06649">
        <ele>29.860975</ele>
        <time>2020-08-30T16:09:36.310Z</time>
      </trkpt>
      <trkpt lat="59.34025" lon="18.06668">
        <ele>29.784845</ele>
        <time>2020-08-30T16:09:38.914Z</time>
      </trkpt>
      <trkpt lat="59.34017" lon="18.06682">
        <ele>29.729674</ele>
        <time>2020-08-30T16:09:40.736Z</time>
      </trkpt>
      <trkpt lat="59.34004" lon="18.06696">
        <ele>29.655325</ele>
        <time>2020-08-30T16:09:43.163Z</time>
      </trkpt>
      <trkpt lat="59.3397" lon="18.06731">
        <ele>29.460228</ele>
        <time>2020-08-30T16:09:49.328Z</time>
      </trkpt>
      <trkpt lat="59.33938" lon="18.06763">
        <ele>29.135421</ele>
        <time>2020-08-30T16:09:54.814Z</time>
      </trkpt>
      <trkpt lat="59.33928" lon="18.06776">
        <ele>28.939396</ele>
        <time>2020-08-30T16:09:56.514Z</time>
      </trkpt>
      <trkpt lat="59.33893" lon="18.06814">
        <ele>28.250165</ele>
        <time>2020-08-30T16:10:02.538Z</time>
      </trkpt>
      <trkpt lat="59.33883" lon="18.06825">
        <ele>28.06679</ele>
        <time>2020-08-30T16:10:04.144Z</time>
      </trkpt>
      <trkpt lat="59.33834" lon="18.06875">
        <ele>27.123351</ele>
        <time>2020-08-30T16:10:12.532Z</time>
      </trkpt>
      <trkpt lat="59.3381" lon="18.06901">
        <ele>26.661677</ele>
        <time>2020-08-30T16:10:16.663Z</time>
      </trkpt>
      <trkpt lat="59.338" lon="18.0692">
        <ele>26.420982</ele>
        <time>2020-08-30T16:10:18.833Z</time>
      </trkpt>
      <trkpt lat="59.33788" lon="18.06941">
        <ele>26.219619</ele>
        <time>2020-08-30T16:10:21.200Z</time>
      </trkpt>
      <trkpt lat="59.33779" lon="18.06958">
        <ele>26.11561</ele>
        <time>2020-08-30T16:10:23.196Z</time>
      </trkpt>
      <trkpt lat="59.33761" lon="18.06999">
        <ele>25.885718</ele>
        <time>2020-08-30T16:10:27.490Z</time>
      </trkpt>
      <trkpt lat="59.33753" lon="18.07014">
        <ele>25.795929</ele>
        <time>2020-08-30T16:10:29.247Z</time>
      </trkpt>
      <trkpt lat="59.33744" lon="18.07028">
        <ele>25.700802</ele>
        <time>2020-08-30T16:10:31.040Z</time>
      </trkpt>
      <trkpt lat="59.33701" lon="18.07098">
        <ele>25.236593</ele>
        <time>2020-08-30T16:10:40.367Z</time>
      </trkpt>
      <trkpt lat="59.33691" lon="18.07116">
        <ele>25.118754</ele>
        <time>2020-08-30T16:10:42.826Z</time>
      </trkpt>
      <trkpt lat="59.33633" lon="18.07202">
        <ele>24.640669</ele>
        <time>2020-08-30T16:10:56.069Z</time>
      </trkpt>
      <trkpt lat="59.33629" lon="18.07208">
        <ele>24.616464</ele>
        <time>2020-08-30T16:10:56.998Z</time>
      </trkpt>
      <trkpt lat="59.33622" lon="18.07217">
        <ele>24.578789</ele>
        <time>2020-08-30T16:10:58.604Z</time>
      </trkpt>
      <trkpt lat="59.33616" lon="18.07224">
        <ele>24.54698</ele>
        <time>2020-08-30T16:10:59.785Z</time>
      </trkpt>
      <trkpt lat="59.3361" lon="18.07232">
        <ele>24.512879</ele>
        <time>2020-08-30T16:11:01.011Z</time>
      </trkpt>
      <trkpt lat="59.33586" lon="18.07262">
        <ele>24.38259</ele>
        <time>2020-08-30T16:11:05.813Z</time>
      </trkpt>
      <trkpt lat="59.33569" lon="18.07278">
        <ele>24.297705</ele>
        <time>2020-08-30T16:11:08.799Z</time>
      </trkpt>
      <trkpt lat="59.33566" lon="18.07281">
        <ele>24.282697</ele>
        <time>2020-08-30T16:11:09.353Z</time>
      </trkpt>
      <trkpt lat="59.33561" lon="18.07287">
        <ele>24.253515</ele>
        <time>2020-08-30T16:11:10.493Z</time>
      </trkpt>
      <trkpt lat="59.33535" lon="18.07317">
        <ele>24.117482</ele>
        <time>2020-08-30T16:11:15.434Z</time>
      </trkpt>
      <trkpt lat="59.33517" lon="18.07341">
        <ele>24.018205</ele>
        <time>2020-08-30T16:11:19.139Z</time>
      </trkpt>
      <trkpt lat="59.33494" lon="18.07367">
        <ele>23.647771</ele>
        <time>2020-08-30T16:11:23.591Z</time>
      </trkpt>
      <trkpt lat="59.3349" lon="18.07372">
        <ele>23.556122</ele>
        <time>2020-08-30T16:11:24.262Z</time>
      </trkpt>
      <trkpt lat="59.33448" lon="18.07418">
        <ele>22.58826</ele>
        <time>2020-08-30T16:11:31.035Z</time>
      </trkpt>
      <trkpt lat="59.33442" lon="18.07426">
        <ele>22.441089</ele>
        <time>2020-08-30T16:11:32.023Z</time>
      </trkpt>
      <trkpt lat="59.33408" lon="18.07464">
        <ele>21.64919</ele>
        <time>2020-08-30T16:11:37.024Z</time>
      </trkpt>
      <trkpt lat="59.33394" lon="18.0748">
        <ele>21.319756</ele>
        <time>2020-08-30T16:11:39.106Z</time>
      </trkpt>
      <trkpt lat="59.3339" lon="18.07485">
        <ele>21.216756</ele>
        <time>2020-08-30T16:11:39.796Z</time>
      </trkpt>
      <trkpt lat="59.33374" lon="18.07505">
        <ele>20.839236</ele>
        <time>2020-08-30T16:11:42.506Z</time>
      </trkpt>
      <trkpt lat="59.33364" lon="18.07516">
        <ele>20.607744</ele>
        <time>2020-08-30T16:11:43.997Z</time>
      </trkpt>
      <trkpt lat="59.33333" lon="18.07551">
        <ele>20.288884</ele>
        <time>2020-08-30T16:11:49.472Z</time>
      </trkpt>
      <trkpt lat="59.3331" lon="18.07575">
        <ele>20.249088</ele>
        <time>2020-08-30T16:11:54.113Z</time>
      </trkpt>
      <trkpt lat="59.33307" lon="18.07577">
        <ele>20.244355</ele>
        <time>2020-08-30T16:11:54.483Z</time>
      </trkpt>
      <trkpt lat="59.33299" lon="18.07579">
        <ele>20.230785</ele>
        <time>2020-08-30T16:11:55.946Z</time>
      </trkpt>
      <trkpt lat="59.33296" lon="18.0758">
        <ele>20.226737</ele>
        <time>2020-08-30T16:11:56.415Z</time>
      </trkpt>
      <trkpt lat="59.3329" lon="18.07581">
        <ele>20.216598</ele>
        <time>2020-08-30T16:11:57.606Z</time>
      </trkpt>
      <trkpt lat="59.33281" lon="18.07583">
        <ele>20.203814</ele>
        <time>2020-08-30T16:11:59.337Z</time>
      </trkpt>
      <trkpt lat="59.33278" lon="18.07584">
        <ele>20.198663</ele>
        <time>2020-08-30T16:12:00.026Z</time>
      </trkpt>
      <trkpt lat="59.33277" lon="18.07583">
        <ele>20.196274</ele>
        <time>2020-08-30T16:12:00.370Z</time>
      </trkpt>
      <trkpt lat="59.33187" lon="18.07518">
        <ele>20.048071</ele>
        <time>2020-08-30T16:12:18.839Z</time>
      </trkpt>
      <trkpt lat="59.33107" lon="18.07455">
        <ele>19.010761</ele>
        <time>2020-08-30T16:12:36.357Z</time>
      </trkpt>
      <trkpt lat="59.331" lon="18.07448">
        <ele>18.913184</ele>
        <time>2020-08-30T16:12:37.478Z</time>
      </trkpt>
      <trkpt lat="59.33093" lon="18.07436">
        <ele>18.79751</ele>
        <time>2020-08-30T16:12:39.340Z</time>
      </trkpt>
      <trkpt lat="59.33069" lon="18.07346">
        <ele>18.153073</ele>
        <time>2020-08-30T16:12:46.788Z</time>
      </trkpt>
      <trkpt lat="59.33059" lon="18.07303">
        <ele>17.858428</ele>
        <time>2020-08-30T16:12:49.834Z</time>
      </trkpt>
      <trkpt lat="59.33056" lon="18.07291">
        <ele>17.717249</ele>
        <time>2020-08-30T16:12:50.928Z</time>
      </trkpt>
      <trkpt lat="59.33041" lon="18.07297">
        <ele>17.28905</ele>
        <time>2020-08-30T16:12:52.799Z</time>
      </trkpt>
      <trkpt lat="59.32982" lon="18.07333">
        <ele>15.664963</ele>
        <time>2020-08-30T16:13:00.729Z</time>
      </trkpt>
      <trkpt lat="59.32976" lon="18.07333">
        <ele>15.497174</ele>
        <time>2020-08-30T16:13:01.415Z</time>
      </trkpt>
      <trkpt lat="59.32963" lon="18.07332">
        <ele>15.14268</ele>
        <time>2020-08-30T16:13:03.186Z</time>
      </trkpt>
      <trkpt lat="59.32949" lon="18.07328">
        <ele>14.783395</ele>
        <time>2020-08-30T16:13:05.482Z</time>
      </trkpt>
      <trkpt lat="59.32944" lon="18.07326">
        <ele>14.640592</ele>
        <time>2020-08-30T16:13:06.178Z</time>
      </trkpt>
      <trkpt lat="59.32942" lon="18.07326">
        <ele>14.594882</ele>
        <time>2020-08-30T16:13:06.381Z</time>
      </trkpt>
      <trkpt lat="59.32819" lon="18.07297">
        <ele>14.333551</ele>
        <time>2020-08-30T16:13:26.923Z</time>
      </trkpt>
      <trkpt lat="59.32816" lon="18.07296">
        <ele>14.391764</ele>
        <time>2020-08-30T16:13:27.615Z</time>
      </trkpt>
      <trkpt lat="59.32814" lon="18.07296">
        <ele>14.441737</ele>
        <time>2020-08-30T16:13:28.113Z</time>
      </trkpt>
      <trkpt lat="59.32811" lon="18.07296">
        <ele>14.501541</ele>
        <time>2020-08-30T16:13:28.843Z</time>
      </trkpt>
      <trkpt lat="59.32805" lon="18.07289">
        <ele>14.641169</ele>
        <time>2020-08-30T16:13:30.690Z</time>
      </trkpt>
      <trkpt lat="59.32793" lon="18.07287">
        <ele>14.869111</ele>
        <time>2020-08-30T16:13:33.762Z</time>
      </trkpt>
      <trkpt lat="59.32789" lon="18.07288">
        <ele>14.964519</ele>
        <time>2020-08-30T16:13:35.091Z</time>
      </trkpt>
      <trkpt lat="59.32781" lon="18.07295">
        <ele>15.136665</ele>
        <time>2020-08-30T16:13:37.262Z</time>
      </trkpt>
      <trkpt lat="59.32713" lon="18.07378">
        <ele>16.867171</ele>
        <time>2020-08-30T16:14:01.682Z</time>
      </trkpt>
      <trkpt lat="59.32672" lon="18.07424">
        <ele>19.009212</ele>
        <time>2020-08-30T16:14:18.654Z</time>
      </trkpt>
      <trkpt lat="59.32666" lon="18.07432">
        <ele>19.320059</ele>
        <time>2020-08-30T16:14:20.724Z</time>
      </trkpt>
      <trkpt lat="59.32656" lon="18.07446">
        <ele>19.897516</ele>
        <time>2020-08-30T16:14:23.940Z</time>
      </trkpt>
      <trkpt lat="59.32652" lon="18.07434">
        <ele>20.212078</ele>
        <time>2020-08-30T16:14:26.179Z</time>
      </trkpt>
      <trkpt lat="59.32649" lon="18.07424">
        <ele>20.497406</ele>
        <time>2020-08-30T16:14:28.766Z</time>
      </trkpt>
      <trkpt lat="59.32641" lon="18.0742">
        <ele>20.86367</ele>
        <time>2020-08-30T16:14:31.665Z</time>
      </trkpt>
      <trkpt lat="59.32621" lon="18.07304">
        <ele>23.671762</ele>
        <time>2020-08-30T16:14:51.563Z</time>
      </trkpt>
      <trkpt lat="59.32619" lon="18.07306">
        <ele>23.777231</ele>
        <time>2020-08-30T16:14:53.248Z</time>
      </trkpt>
      <trkpt lat="59.32617" lon="18.07307">
        <ele>23.879249</ele>
        <time>2020-08-30T16:14:54.115Z</time>
      </trkpt>
      <trkpt lat="59.32609" lon="18.07295">
        <ele>24.356783</ele>
        <time>2020-08-30T16:14:57.225Z</time>
      </trkpt>
      <trkpt lat="59.32593" lon="18.073">
        <ele>24.76213</ele>
        <time>2020-08-30T16:15:01.637Z</time>
      </trkpt>
      <trkpt lat="59.32593" lon="18.07299">
        <ele>24.76213</ele>
        <time>2020-08-30T16:15:01.980Z</time>
      </trkpt>
      <trkpt lat="59.32588" lon="18.07261">
        <ele>24.76213</ele>
        <time>2020-08-30T16:15:08.909Z</time>
      </trkpt>
      <trkpt lat="59.32578" lon="18.072">
        <ele>24.76213</ele>
        <time>2020-08-30T16:15:19.407Z</time>
      </trkpt>
      <trkpt lat="59.32577" lon="18.072">
        <ele>24.76213</ele>
        <time>2020-08-30T16:15:19.753Z</time>
      </trkpt>
      <trkpt lat="59.32565" lon="18.07114">
        <ele>24.76213</ele>
        <time>2020-08-30T16:15:31.827Z</time>
      </trkpt>
      <trkpt lat="59.32541" lon="18.07123">
        <ele>24.76213</ele>
        <time>2020-08-30T16:15:38.443Z</time>
      </trkpt>
      <trkpt lat="59.32522" lon="18.07125">
        <ele>24.76213</ele>
        <time>2020-08-30T16:15:42.256Z</time>
      </trkpt>
      <trkpt lat="59.32519" lon="18.07105">
        <ele>24.76213</ele>
        <time>2020-08-30T16:15:44.937Z</time>
      </trkpt>
    </trkseg>
  </trk>
</gpx>